<?xml version="1.0" encoding="UTF-8"?>
<gpx version="1.1" creator="https://www.youtrack.es" xsi:schemaLocation="http://www.topografix.com/GPX/1/1 http://www.topografix.com/GPX/1/1/gpx.xsd http://www.garmin.com/xmlschemas/GpxExtensions/v3 http://www.garmin.com/xmlschemas/GpxExtensionsv3.xsd http://www.garmin.com/xmlschemas/TrackPointExtension/v1 http://www.garmin.com/xmlschemas/TrackPointExtensionv1.xsd" xmlns:gpxtpx="http://www.garmin.com/xmlschemas/TrackPointExtension/v1" xmlns:gpxx="http://www.garmin.com/xmlschemas/GpxExtensions/v3" xmlns:xsi="http://www.w3.org/2001/XMLSchema-instance">
  <metadata>
    <link href="https://www.youtrack.es">
      <text>YouTrack.es</text>
    </link>
    <time>2026-05-08T22:44:34Z</time>
  </metadata>
  <trk>
    <src>https://www.youtrack.es</src>
    <link href="https://www.youtrack.es/ruta/16-chipping-ongar-st-peter-s-chapel">
      <text>YouTrack.es</text>
    </link>
    <trkseg>
      <trkpt lat="51.705853035673499" lon="0.246128970757127">
        <ele>61.400001525878899</ele>
        <time>2018-02-14T08:15:26Z</time>
      </trkpt>
      <trkpt lat="51.705841971561313" lon="0.246123019605875">
        <ele>58.826532744703599</ele>
        <time>2018-02-14T08:16:02Z</time>
      </trkpt>
      <trkpt lat="51.705836020410061" lon="0.246151015162468">
        <ele>58</ele>
        <time>2018-02-14T08:16:25Z</time>
      </trkpt>
      <trkpt lat="51.705817999318242" lon="0.246180016547441">
        <ele>58</ele>
        <time>2018-02-14T08:16:42Z</time>
      </trkpt>
      <trkpt lat="51.705806013196707" lon="0.246204994618893">
        <ele>58</ele>
        <time>2018-02-14T08:16:44Z</time>
      </trkpt>
      <trkpt lat="51.705806013196707" lon="0.24624397046864">
        <ele>59</ele>
        <time>2018-02-14T08:16:47Z</time>
      </trkpt>
      <trkpt lat="51.705804001539946" lon="0.246276995167136">
        <ele>59</ele>
        <time>2018-02-14T08:16:48Z</time>
      </trkpt>
      <trkpt lat="51.705808024853468" lon="0.246308008208871">
        <ele>59</ele>
        <time>2018-02-14T08:16:49Z</time>
      </trkpt>
      <trkpt lat="51.705812970176339" lon="0.246366010978818">
        <ele>59</ele>
        <time>2018-02-14T08:16:51Z</time>
      </trkpt>
      <trkpt lat="51.705806013196707" lon="0.246397024020553">
        <ele>59</ele>
        <time>2018-02-14T08:16:52Z</time>
      </trkpt>
      <trkpt lat="51.705806013196707" lon="0.246429964900017">
        <ele>59.092780512265598</ele>
        <time>2018-02-14T08:16:53Z</time>
      </trkpt>
      <trkpt lat="51.705797966569662" lon="0.24645896628499">
        <ele>60</ele>
        <time>2018-02-14T08:16:54Z</time>
      </trkpt>
      <trkpt lat="51.705797966569662" lon="0.246487967669964">
        <ele>60</ele>
        <time>2018-02-14T08:16:55Z</time>
      </trkpt>
      <trkpt lat="51.705796038731933" lon="0.246518980711699">
        <ele>60</ele>
        <time>2018-02-14T08:16:56Z</time>
      </trkpt>
      <trkpt lat="51.705790003761649" lon="0.246547982096672">
        <ele>60</ele>
        <time>2018-02-14T08:16:57Z</time>
      </trkpt>
      <trkpt lat="51.705783968791366" lon="0.246574971824884">
        <ele>60</ele>
        <time>2018-02-14T08:16:58Z</time>
      </trkpt>
      <trkpt lat="51.705778017640114" lon="0.246606990695">
        <ele>60</ele>
        <time>2018-02-14T08:16:59Z</time>
      </trkpt>
      <trkpt lat="51.70579100959003" lon="0.246644960716367">
        <ele>60</ele>
        <time>2018-02-14T08:17:01Z</time>
      </trkpt>
      <trkpt lat="51.705804001539946" lon="0.246702963486314">
        <ele>60</ele>
        <time>2018-02-14T08:17:03Z</time>
      </trkpt>
      <trkpt lat="51.705820010975003" lon="0.246749985963106">
        <ele>60</ele>
        <time>2018-02-14T08:17:05Z</time>
      </trkpt>
      <trkpt lat="51.70583501458168" lon="0.246777981519699">
        <ele>61</ele>
        <time>2018-02-14T08:17:07Z</time>
      </trkpt>
      <trkpt lat="51.705849012359977" lon="0.246805977076292">
        <ele>61</ele>
        <time>2018-02-14T08:17:09Z</time>
      </trkpt>
      <trkpt lat="51.705859992653131" lon="0.246833972632885">
        <ele>61</ele>
        <time>2018-02-14T08:17:10Z</time>
      </trkpt>
      <trkpt lat="51.705868039280176" lon="0.246862974017859">
        <ele>61</ele>
        <time>2018-02-14T08:17:11Z</time>
      </trkpt>
      <trkpt lat="51.705880025401711" lon="0.246895998716354">
        <ele>61</ele>
        <time>2018-02-14T08:17:12Z</time>
      </trkpt>
      <trkpt lat="51.705895029008389" lon="0.246919970959425">
        <ele>61</ele>
        <time>2018-02-14T08:17:13Z</time>
      </trkpt>
      <trkpt lat="51.705923024564981" lon="0.246963975951076">
        <ele>61</ele>
        <time>2018-02-14T08:17:15Z</time>
      </trkpt>
      <trkpt lat="51.705938028171659" lon="0.246991971507669">
        <ele>61</ele>
        <time>2018-02-14T08:17:16Z</time>
      </trkpt>
      <trkpt lat="51.705951020121574" lon="0.247016027569771">
        <ele>61</ele>
        <time>2018-02-14T08:17:17Z</time>
      </trkpt>
      <trkpt lat="51.705959988757968" lon="0.247049974277616">
        <ele>61</ele>
        <time>2018-02-14T08:17:18Z</time>
      </trkpt>
      <trkpt lat="51.705969963222742" lon="0.247082998976111">
        <ele>61</ele>
        <time>2018-02-14T08:17:19Z</time>
      </trkpt>
      <trkpt lat="51.705974992364645" lon="0.247118035331368">
        <ele>61</ele>
        <time>2018-02-14T08:17:21Z</time>
      </trkpt>
      <trkpt lat="51.70598303899169" lon="0.247153993695974">
        <ele>61</ele>
        <time>2018-02-14T08:17:26Z</time>
      </trkpt>
      <trkpt lat="51.705996030941606" lon="0.247180983424187">
        <ele>61</ele>
        <time>2018-02-14T08:17:27Z</time>
      </trkpt>
      <trkpt lat="51.706013968214393" lon="0.247223982587457">
        <ele>61</ele>
        <time>2018-02-14T08:17:29Z</time>
      </trkpt>
      <trkpt lat="51.706015979871154" lon="0.247269999235868">
        <ele>61</ele>
        <time>2018-02-14T08:17:31Z</time>
      </trkpt>
      <trkpt lat="51.706015979871154" lon="0.247310986742377">
        <ele>61</ele>
        <time>2018-02-14T08:17:32Z</time>
      </trkpt>
      <trkpt lat="51.706018997356296" lon="0.247349040582776">
        <ele>61</ele>
        <time>2018-02-14T08:17:33Z</time>
      </trkpt>
      <trkpt lat="51.706024026498199" lon="0.247389022260904">
        <ele>61.1699968</ele>
        <time>2018-02-14T08:17:34Z</time>
      </trkpt>
      <trkpt lat="51.706026960164309" lon="0.247435960918665">
        <ele>62</ele>
        <time>2018-02-14T08:17:35Z</time>
      </trkpt>
      <trkpt lat="51.706034000962973" lon="0.247475020587444">
        <ele>62</ele>
        <time>2018-02-14T08:17:36Z</time>
      </trkpt>
      <trkpt lat="51.706037018448114" lon="0.24750997312367">
        <ele>62</ele>
        <time>2018-02-14T08:17:37Z</time>
      </trkpt>
      <trkpt lat="51.706039030104876" lon="0.247541991993785">
        <ele>62</ele>
        <time>2018-02-14T08:17:38Z</time>
      </trkpt>
      <trkpt lat="51.706041041761637" lon="0.247576022520661">
        <ele>62</ele>
        <time>2018-02-14T08:17:39Z</time>
      </trkpt>
      <trkpt lat="51.706040035933256" lon="0.247611980885267">
        <ele>62</ele>
        <time>2018-02-14T08:17:40Z</time>
      </trkpt>
      <trkpt lat="51.706037018448114" lon="0.247646011412144">
        <ele>62</ele>
        <time>2018-02-14T08:17:41Z</time>
      </trkpt>
      <trkpt lat="51.706036012619734" lon="0.24768196977675">
        <ele>62</ele>
        <time>2018-02-14T08:17:42Z</time>
      </trkpt>
      <trkpt lat="51.70602897182107" lon="0.247719017788768">
        <ele>62</ele>
        <time>2018-02-14T08:17:43Z</time>
      </trkpt>
      <trkpt lat="51.706016985699534" lon="0.24776503443718">
        <ele>62</ele>
        <time>2018-02-14T08:17:44Z</time>
      </trkpt>
      <trkpt lat="51.706002987921238" lon="0.247799986973405">
        <ele>62.178222464420102</ele>
        <time>2018-02-14T08:17:45Z</time>
      </trkpt>
      <trkpt lat="51.705988990142941" lon="0.247823037207127">
        <ele>63</ele>
        <time>2018-02-14T08:17:46Z</time>
      </trkpt>
      <trkpt lat="51.705972980707884" lon="0.247848015278578">
        <ele>63</ele>
        <time>2018-02-14T08:17:47Z</time>
      </trkpt>
      <trkpt lat="51.705955965444446" lon="0.247870981693268">
        <ele>63</ele>
        <time>2018-02-14T08:17:48Z</time>
      </trkpt>
      <trkpt lat="51.70594397932291" lon="0.247901994735003">
        <ele>63</ele>
        <time>2018-02-14T08:17:49Z</time>
      </trkpt>
      <trkpt lat="51.705929981544614" lon="0.247938958927989">
        <ele>63</ele>
        <time>2018-02-14T08:17:50Z</time>
      </trkpt>
      <trkpt lat="51.705916989594698" lon="0.247967038303614">
        <ele>63</ele>
        <time>2018-02-14T08:17:51Z</time>
      </trkpt>
      <trkpt lat="51.70589997433126" lon="0.247995033860207">
        <ele>63</ele>
        <time>2018-02-14T08:17:52Z</time>
      </trkpt>
      <trkpt lat="51.705883964896202" lon="0.248020011931658">
        <ele>63</ele>
        <time>2018-02-14T08:17:53Z</time>
      </trkpt>
      <trkpt lat="51.705867033451796" lon="0.248044990003109">
        <ele>63</ele>
        <time>2018-02-14T08:17:54Z</time>
      </trkpt>
      <trkpt lat="51.705845994874835" lon="0.248073991388083">
        <ele>63</ele>
        <time>2018-02-14T08:17:55Z</time>
      </trkpt>
      <trkpt lat="51.705825962126255" lon="0.248097963631153">
        <ele>63</ele>
        <time>2018-02-14T08:17:56Z</time>
      </trkpt>
      <trkpt lat="51.705805007368326" lon="0.248119002208114">
        <ele>63</ele>
        <time>2018-02-14T08:17:57Z</time>
      </trkpt>
      <trkpt lat="51.705782040953636" lon="0.248140040785074">
        <ele>63</ele>
        <time>2018-02-14T08:17:58Z</time>
      </trkpt>
      <trkpt lat="51.705761002376676" lon="0.248163007199764">
        <ele>63</ele>
        <time>2018-02-14T08:17:59Z</time>
      </trkpt>
      <trkpt lat="51.705739041790366" lon="0.248189996927977">
        <ele>63</ele>
        <time>2018-02-14T08:18:00Z</time>
      </trkpt>
      <trkpt lat="51.705721020698547" lon="0.248211035504937">
        <ele>63</ele>
        <time>2018-02-14T08:18:01Z</time>
      </trkpt>
      <trkpt lat="51.705708028748631" lon="0.24824095889926">
        <ele>63</ele>
        <time>2018-02-14T08:18:02Z</time>
      </trkpt>
      <trkpt lat="51.705696964636445" lon="0.248270966112614">
        <ele>63</ele>
        <time>2018-02-14T08:18:03Z</time>
      </trkpt>
      <trkpt lat="51.705692019313574" lon="0.24830399081111">
        <ele>63</ele>
        <time>2018-02-14T08:18:04Z</time>
      </trkpt>
      <trkpt lat="51.70568497851491" lon="0.248341038823128">
        <ele>63</ele>
        <time>2018-02-14T08:18:05Z</time>
      </trkpt>
      <trkpt lat="51.705677015706897" lon="0.248373979702592">
        <ele>63</ele>
        <time>2018-02-14T08:18:06Z</time>
      </trkpt>
      <trkpt lat="51.705669974908233" lon="0.24841396138072">
        <ele>63</ele>
        <time>2018-02-14T08:18:07Z</time>
      </trkpt>
      <trkpt lat="51.7056630179286" lon="0.248451009392738">
        <ele>63</ele>
        <time>2018-02-14T08:18:08Z</time>
      </trkpt>
      <trkpt lat="51.705655977129936" lon="0.248485039919615">
        <ele>63</ele>
        <time>2018-02-14T08:18:09Z</time>
      </trkpt>
      <trkpt lat="51.705648014321923" lon="0.24851999245584">
        <ele>63</ele>
        <time>2018-02-14T08:18:10Z</time>
      </trkpt>
      <trkpt lat="51.705638039857149" lon="0.248551005497575">
        <ele>63</ele>
        <time>2018-02-14T08:18:11Z</time>
      </trkpt>
      <trkpt lat="51.705628987401724" lon="0.248586963862181">
        <ele>63</ele>
        <time>2018-02-14T08:18:12Z</time>
      </trkpt>
      <trkpt lat="51.705621024593711" lon="0.248619988560677">
        <ele>63</ele>
        <time>2018-02-14T08:18:13Z</time>
      </trkpt>
      <trkpt lat="51.705614989623427" lon="0.248653013259172">
        <ele>63</ele>
        <time>2018-02-14T08:18:14Z</time>
      </trkpt>
      <trkpt lat="51.705609038472176" lon="0.248688971623778">
        <ele>63</ele>
        <time>2018-02-14T08:18:15Z</time>
      </trkpt>
      <trkpt lat="51.705603003501892" lon="0.248717973008752">
        <ele>63</ele>
        <time>2018-02-14T08:18:16Z</time>
      </trkpt>
      <trkpt lat="51.705608032643795" lon="0.248770024627447">
        <ele>63</ele>
        <time>2018-02-14T08:18:18Z</time>
      </trkpt>
      <trkpt lat="51.705614989623427" lon="0.248807994648814">
        <ele>62.799999999999997</ele>
        <time>2018-02-14T08:18:20Z</time>
      </trkpt>
      <trkpt lat="51.705623958259821" lon="0.248838001862168">
        <ele>62</ele>
        <time>2018-02-14T08:18:21Z</time>
      </trkpt>
      <trkpt lat="51.705629993230104" lon="0.248865997418761">
        <ele>62</ele>
        <time>2018-02-14T08:18:22Z</time>
      </trkpt>
      <trkpt lat="51.705636028200388" lon="0.248899022117257">
        <ele>62</ele>
        <time>2018-02-14T08:18:23Z</time>
      </trkpt>
      <trkpt lat="51.70564197935164" lon="0.248929029330611">
        <ele>62</ele>
        <time>2018-02-14T08:18:24Z</time>
      </trkpt>
      <trkpt lat="51.705655977129936" lon="0.248955013230443">
        <ele>62</ele>
        <time>2018-02-14T08:18:25Z</time>
      </trkpt>
      <trkpt lat="51.705667041242123" lon="0.248979991301894">
        <ele>62</ele>
        <time>2018-02-14T08:18:26Z</time>
      </trkpt>
      <trkpt lat="51.705679027363658" lon="0.249004969373345">
        <ele>62</ele>
        <time>2018-02-14T08:18:27Z</time>
      </trkpt>
      <trkpt lat="51.705693025141954" lon="0.249034976586699">
        <ele>62</ele>
        <time>2018-02-14T08:18:28Z</time>
      </trkpt>
      <trkpt lat="51.70570501126349" lon="0.249065989628434">
        <ele>62</ele>
        <time>2018-02-14T08:18:29Z</time>
      </trkpt>
      <trkpt lat="51.705716997385025" lon="0.249098008498549">
        <ele>61.803920338323699</ele>
        <time>2018-02-14T08:18:30Z</time>
      </trkpt>
      <trkpt lat="51.70572797767818" lon="0.249131033197045">
        <ele>61</ele>
        <time>2018-02-14T08:18:31Z</time>
      </trkpt>
      <trkpt lat="51.705738035961986" lon="0.249162968248129">
        <ele>61</ele>
        <time>2018-02-14T08:18:32Z</time>
      </trkpt>
      <trkpt lat="51.70574901625514" lon="0.249195992946625">
        <ele>61</ele>
        <time>2018-02-14T08:18:33Z</time>
      </trkpt>
      <trkpt lat="51.705757984891534" lon="0.249227005988359">
        <ele>61</ele>
        <time>2018-02-14T08:18:34Z</time>
      </trkpt>
      <trkpt lat="51.705767959356308" lon="0.249261036515236">
        <ele>61</ele>
        <time>2018-02-14T08:18:35Z</time>
      </trkpt>
      <trkpt lat="51.705776005983353" lon="0.249296994879842">
        <ele>61</ele>
        <time>2018-02-14T08:18:36Z</time>
      </trkpt>
      <trkpt lat="51.705776005983353" lon="0.249333037063479">
        <ele>61</ele>
        <time>2018-02-14T08:18:37Z</time>
      </trkpt>
      <trkpt lat="51.705768965184689" lon="0.249367989599705">
        <ele>61</ele>
        <time>2018-02-14T08:18:38Z</time>
      </trkpt>
      <trkpt lat="51.705761002376676" lon="0.249401014298201">
        <ele>61</ele>
        <time>2018-02-14T08:18:39Z</time>
      </trkpt>
      <trkpt lat="51.705753039568663" lon="0.249435966834426">
        <ele>61</ele>
        <time>2018-02-14T08:18:40Z</time>
      </trkpt>
      <trkpt lat="51.705747004598379" lon="0.249471003189683">
        <ele>61</ele>
        <time>2018-02-14T08:18:41Z</time>
      </trkpt>
      <trkpt lat="51.705741975456476" lon="0.24950603954494">
        <ele>61</ele>
        <time>2018-02-14T08:18:42Z</time>
      </trkpt>
      <trkpt lat="51.705736024305224" lon="0.249543003737926">
        <ele>61</ele>
        <time>2018-02-14T08:18:43Z</time>
      </trkpt>
      <trkpt lat="51.705726971849799" lon="0.249576028436422">
        <ele>61</ele>
        <time>2018-02-14T08:18:44Z</time>
      </trkpt>
      <trkpt lat="51.705718003213406" lon="0.249611986801028">
        <ele>61</ele>
        <time>2018-02-14T08:18:45Z</time>
      </trkpt>
      <trkpt lat="51.705710040405393" lon="0.249650962650776">
        <ele>60.813723521734801</ele>
        <time>2018-02-14T08:18:46Z</time>
      </trkpt>
      <trkpt lat="51.705704005435109" lon="0.249685999006033">
        <ele>60</ele>
        <time>2018-02-14T08:18:47Z</time>
      </trkpt>
      <trkpt lat="51.705695036798716" lon="0.249717012047768">
        <ele>60</ele>
        <time>2018-02-14T08:18:48Z</time>
      </trkpt>
      <trkpt lat="51.705682966858149" lon="0.249742995947599">
        <ele>60</ele>
        <time>2018-02-14T08:18:49Z</time>
      </trkpt>
      <trkpt lat="51.705670980736613" lon="0.24976696819067">
        <ele>60</ele>
        <time>2018-02-14T08:18:53Z</time>
      </trkpt>
      <trkpt lat="51.705680033192039" lon="0.249794041737914">
        <ele>60</ele>
        <time>2018-02-14T08:18:58Z</time>
      </trkpt>
      <trkpt lat="51.705697970464826" lon="0.249813990667462">
        <ele>60</ele>
        <time>2018-02-14T08:19:00Z</time>
      </trkpt>
      <trkpt lat="51.705722026526928" lon="0.249817008152604">
        <ele>60</ele>
        <time>2018-02-14T08:19:03Z</time>
      </trkpt>
      <trkpt lat="51.70574801042676" lon="0.249822037294507">
        <ele>61</ele>
        <time>2018-02-14T08:19:06Z</time>
      </trkpt>
      <trkpt lat="51.705767037346959" lon="0.249822037294507">
        <ele>61</ele>
        <time>2018-02-14T08:19:08Z</time>
      </trkpt>
      <trkpt lat="51.705794027075171" lon="0.249810973182321">
        <ele>60.910893975109602</ele>
        <time>2018-02-14T08:19:10Z</time>
      </trkpt>
      <trkpt lat="51.705817999318242" lon="0.249808039516211">
        <ele>60</ele>
        <time>2018-02-14T08:19:11Z</time>
      </trkpt>
      <trkpt lat="51.705840965732932" lon="0.249808039516211">
        <ele>60</ele>
        <time>2018-02-14T08:19:12Z</time>
      </trkpt>
      <trkpt lat="51.705865021795034" lon="0.249808961525559">
        <ele>60</ele>
        <time>2018-02-14T08:19:13Z</time>
      </trkpt>
      <trkpt lat="51.705889999866486" lon="0.24980996735394">
        <ele>60</ele>
        <time>2018-02-14T08:19:14Z</time>
      </trkpt>
      <trkpt lat="51.705914977937937" lon="0.249816002324224">
        <ele>60</ele>
        <time>2018-02-14T08:19:15Z</time>
      </trkpt>
      <trkpt lat="51.705937022343278" lon="0.249822959303856">
        <ele>60</ele>
        <time>2018-02-14T08:19:16Z</time>
      </trkpt>
      <trkpt lat="51.705959988757968" lon="0.249828994274139">
        <ele>60</ele>
        <time>2018-02-14T08:19:17Z</time>
      </trkpt>
      <trkpt lat="51.70598303899169" lon="0.249836035072804">
        <ele>60</ele>
        <time>2018-02-14T08:19:18Z</time>
      </trkpt>
      <trkpt lat="51.70600600540638" lon="0.249841986224055">
        <ele>60</ele>
        <time>2018-02-14T08:19:19Z</time>
      </trkpt>
      <trkpt lat="51.70602997764945" lon="0.249847015365958">
        <ele>60</ele>
        <time>2018-02-14T08:19:20Z</time>
      </trkpt>
      <trkpt lat="51.706051016226411" lon="0.2498500328511">
        <ele>60</ele>
        <time>2018-02-14T08:19:21Z</time>
      </trkpt>
      <trkpt lat="51.70607297681272" lon="0.249851038679481">
        <ele>60.095741928455702</ele>
        <time>2018-02-14T08:19:22Z</time>
      </trkpt>
      <trkpt lat="51.706097032874823" lon="0.249855984002352">
        <ele>61</ele>
        <time>2018-02-14T08:19:23Z</time>
      </trkpt>
      <trkpt lat="51.706119999289513" lon="0.249863024801016">
        <ele>61</ele>
        <time>2018-02-14T08:19:24Z</time>
      </trkpt>
      <trkpt lat="51.706145983189344" lon="0.249867970123887">
        <ele>61</ele>
        <time>2018-02-14T08:19:25Z</time>
      </trkpt>
      <trkpt lat="51.706170039251447" lon="0.249870987609029">
        <ele>61</ele>
        <time>2018-02-14T08:19:26Z</time>
      </trkpt>
      <trkpt lat="51.706196023151278" lon="0.249874005094171">
        <ele>61</ele>
        <time>2018-02-14T08:19:27Z</time>
      </trkpt>
      <trkpt lat="51.706218989565969" lon="0.249880040064454">
        <ele>61</ele>
        <time>2018-02-14T08:19:28Z</time>
      </trkpt>
      <trkpt lat="51.70624396763742" lon="0.249883979558945">
        <ele>61</ele>
        <time>2018-02-14T08:19:29Z</time>
      </trkpt>
      <trkpt lat="51.706268023699522" lon="0.249885991215706">
        <ele>61</ele>
        <time>2018-02-14T08:19:30Z</time>
      </trkpt>
      <trkpt lat="51.706294007599354" lon="0.249889008700848">
        <ele>61</ele>
        <time>2018-02-14T08:19:31Z</time>
      </trkpt>
      <trkpt lat="51.706318985670805" lon="0.249894037842751">
        <ele>61</ele>
        <time>2018-02-14T08:19:32Z</time>
      </trkpt>
      <trkpt lat="51.706341030076146" lon="0.249898983165622">
        <ele>61</ele>
        <time>2018-02-14T08:19:33Z</time>
      </trkpt>
      <trkpt lat="51.706386962905526" lon="0.249910969287157">
        <ele>61</ele>
        <time>2018-02-14T08:19:35Z</time>
      </trkpt>
      <trkpt lat="51.706409007310867" lon="0.24991599842906">
        <ele>61</ele>
        <time>2018-02-14T08:19:36Z</time>
      </trkpt>
      <trkpt lat="51.706429962068796" lon="0.249919015914202">
        <ele>60.8300032</ele>
        <time>2018-02-14T08:19:37Z</time>
      </trkpt>
      <trkpt lat="51.706452006474137" lon="0.249923961237073">
        <ele>60</ele>
        <time>2018-02-14T08:19:38Z</time>
      </trkpt>
      <trkpt lat="51.706474972888827" lon="0.249928990378976">
        <ele>60.061218358977001</ele>
        <time>2018-02-14T08:19:39Z</time>
      </trkpt>
      <trkpt lat="51.70650003477931" lon="0.249934019520879">
        <ele>61</ele>
        <time>2018-02-14T08:19:40Z</time>
      </trkpt>
      <trkpt lat="51.706524007022381" lon="0.249937959015369">
        <ele>61</ele>
        <time>2018-02-14T08:19:41Z</time>
      </trkpt>
      <trkpt lat="51.706547979265451" lon="0.249940976500511">
        <ele>61</ele>
        <time>2018-02-14T08:19:42Z</time>
      </trkpt>
      <trkpt lat="51.706572035327554" lon="0.249942988157272">
        <ele>61</ele>
        <time>2018-02-14T08:19:43Z</time>
      </trkpt>
      <trkpt lat="51.706598019227386" lon="0.249948017299175">
        <ele>61</ele>
        <time>2018-02-14T08:19:44Z</time>
      </trkpt>
      <trkpt lat="51.706624003127217" lon="0.249956985935569">
        <ele>61</ele>
        <time>2018-02-14T08:19:45Z</time>
      </trkpt>
      <trkpt lat="51.706648981198668" lon="0.249964026734233">
        <ele>61</ele>
        <time>2018-02-14T08:19:46Z</time>
      </trkpt>
      <trkpt lat="51.706673037260771" lon="0.249969977885485">
        <ele>61</ele>
        <time>2018-02-14T08:19:47Z</time>
      </trkpt>
      <trkpt lat="51.706697009503841" lon="0.249974001199007">
        <ele>61</ele>
        <time>2018-02-14T08:19:48Z</time>
      </trkpt>
      <trkpt lat="51.706723999232054" lon="0.24997903034091">
        <ele>61</ele>
        <time>2018-02-14T08:19:49Z</time>
      </trkpt>
      <trkpt lat="51.706747971475124" lon="0.249982969835401">
        <ele>61</ele>
        <time>2018-02-14T08:19:50Z</time>
      </trkpt>
      <trkpt lat="51.706774039193988" lon="0.249987998977304">
        <ele>61</ele>
        <time>2018-02-14T08:19:51Z</time>
      </trkpt>
      <trkpt lat="51.706798011437058" lon="0.249993028119206">
        <ele>61</ele>
        <time>2018-02-14T08:19:52Z</time>
      </trkpt>
      <trkpt lat="51.70682399533689" lon="0.249997973442078">
        <ele>61</ele>
        <time>2018-02-14T08:19:53Z</time>
      </trkpt>
      <trkpt lat="51.706848973408341" lon="0.250004008412361">
        <ele>61</ele>
        <time>2018-02-14T08:19:54Z</time>
      </trkpt>
      <trkpt lat="51.706869006156921" lon="0.250008031725883">
        <ele>61</ele>
        <time>2018-02-14T08:19:55Z</time>
      </trkpt>
      <trkpt lat="51.706891972571611" lon="0.250017000362277">
        <ele>61</ele>
        <time>2018-02-14T08:19:56Z</time>
      </trkpt>
      <trkpt lat="51.706910999491811" lon="0.250038038939238">
        <ele>61</ele>
        <time>2018-02-14T08:19:58Z</time>
      </trkpt>
      <trkpt lat="51.706921979784966" lon="0.250066034495831">
        <ele>61</ele>
        <time>2018-02-14T08:20:16Z</time>
      </trkpt>
      <trkpt lat="51.706940000876784" lon="0.250085983425379">
        <ele>61</ele>
        <time>2018-02-14T08:20:18Z</time>
      </trkpt>
      <trkpt lat="51.706957016140223" lon="0.250118002295494">
        <ele>61</ele>
        <time>2018-02-14T08:20:20Z</time>
      </trkpt>
      <trkpt lat="51.706974031403661" lon="0.250155972316861">
        <ele>60</ele>
        <time>2018-02-14T08:20:22Z</time>
      </trkpt>
      <trkpt lat="51.706981994211674" lon="0.250192014500499">
        <ele>60</ele>
        <time>2018-02-14T08:20:24Z</time>
      </trkpt>
      <trkpt lat="51.706986017525196" lon="0.250233002007008">
        <ele>60</ele>
        <time>2018-02-14T08:20:26Z</time>
      </trkpt>
      <trkpt lat="51.706984005868435" lon="0.250269966199994">
        <ele>60</ele>
        <time>2018-02-14T08:20:28Z</time>
      </trkpt>
      <trkpt lat="51.706987023353577" lon="0.25030299089849">
        <ele>60</ele>
        <time>2018-02-14T08:20:30Z</time>
      </trkpt>
      <trkpt lat="51.706992974504828" lon="0.250336015596986">
        <ele>60</ele>
        <time>2018-02-14T08:20:32Z</time>
      </trkpt>
      <trkpt lat="51.707005966454744" lon="0.250377003103495">
        <ele>60</ele>
        <time>2018-02-14T08:20:34Z</time>
      </trkpt>
      <trkpt lat="51.707010995596647" lon="0.250407010316849">
        <ele>60</ele>
        <time>2018-02-14T08:20:35Z</time>
      </trkpt>
      <trkpt lat="51.70701501891017" lon="0.250441040843725">
        <ele>60</ele>
        <time>2018-02-14T08:20:36Z</time>
      </trkpt>
      <trkpt lat="51.707019964233041" lon="0.250480016693473">
        <ele>60</ele>
        <time>2018-02-14T08:20:37Z</time>
      </trkpt>
      <trkpt lat="51.707024993374944" lon="0.25051798671484">
        <ele>60</ele>
        <time>2018-02-14T08:20:38Z</time>
      </trkpt>
      <trkpt lat="51.707032034173608" lon="0.250558974221349">
        <ele>60.173467255296401</ele>
        <time>2018-02-14T08:20:39Z</time>
      </trkpt>
      <trkpt lat="51.707035973668098" lon="0.250602979212999">
        <ele>61</ele>
        <time>2018-02-14T08:20:40Z</time>
      </trkpt>
      <trkpt lat="51.707042008638382" lon="0.250642960891128">
        <ele>61</ele>
        <time>2018-02-14T08:20:41Z</time>
      </trkpt>
      <trkpt lat="51.707048965618014" lon="0.250685038045049">
        <ele>61</ele>
        <time>2018-02-14T08:20:42Z</time>
      </trkpt>
      <trkpt lat="51.70705801807344" lon="0.250725019723177">
        <ele>61</ele>
        <time>2018-02-14T08:20:43Z</time>
      </trkpt>
      <trkpt lat="51.707064975053072" lon="0.250765001401305">
        <ele>60.8407131772409</ele>
        <time>2018-02-14T08:20:44Z</time>
      </trkpt>
      <trkpt lat="51.707073021680117" lon="0.250802971422672">
        <ele>60</ele>
        <time>2018-02-14T08:20:45Z</time>
      </trkpt>
      <trkpt lat="51.707077967002988" lon="0.250843036919832">
        <ele>59.790472010922599</ele>
        <time>2018-02-14T08:20:46Z</time>
      </trkpt>
      <trkpt lat="51.707084001973271" lon="0.250886036083102">
        <ele>59</ele>
        <time>2018-02-14T08:20:47Z</time>
      </trkpt>
      <trkpt lat="51.707089031115174" lon="0.25092501193285">
        <ele>59</ele>
        <time>2018-02-14T08:20:48Z</time>
      </trkpt>
      <trkpt lat="51.707094982266426" lon="0.2509690169245">
        <ele>59</ele>
        <time>2018-02-14T08:20:49Z</time>
      </trkpt>
      <trkpt lat="51.707099005579948" lon="0.25101101025939">
        <ele>59</ele>
        <time>2018-02-14T08:20:50Z</time>
      </trkpt>
      <trkpt lat="51.70710101723671" lon="0.25105501525104">
        <ele>59</ele>
        <time>2018-02-14T08:20:51Z</time>
      </trkpt>
      <trkpt lat="51.707105040550232" lon="0.251100026071072">
        <ele>59</ele>
        <time>2018-02-14T08:20:52Z</time>
      </trkpt>
      <trkpt lat="51.707107974216342" lon="0.251144031062722">
        <ele>59</ele>
        <time>2018-02-14T08:20:53Z</time>
      </trkpt>
      <trkpt lat="51.707110991701484" lon="0.251189041882753">
        <ele>59</ele>
        <time>2018-02-14T08:20:54Z</time>
      </trkpt>
      <trkpt lat="51.707115015015006" lon="0.251229023560882">
        <ele>59</ele>
        <time>2018-02-14T08:20:55Z</time>
      </trkpt>
      <trkpt lat="51.707121971994638" lon="0.251267999410629">
        <ele>59</ele>
        <time>2018-02-14T08:20:56Z</time>
      </trkpt>
      <trkpt lat="51.707131024450064" lon="0.251305969431996">
        <ele>58.792081717486603</ele>
        <time>2018-02-14T08:20:57Z</time>
      </trkpt>
      <trkpt lat="51.707143010571599" lon="0.251339999958873">
        <ele>58</ele>
        <time>2018-02-14T08:20:58Z</time>
      </trkpt>
      <trkpt lat="51.707159020006657" lon="0.251364978030324">
        <ele>57.838384360777802</ele>
        <time>2018-02-14T08:20:59Z</time>
      </trkpt>
      <trkpt lat="51.707177963107824" lon="0.251380987465382">
        <ele>57</ele>
        <time>2018-02-14T08:21:00Z</time>
      </trkpt>
      <trkpt lat="51.707200007513165" lon="0.251388028264046">
        <ele>57</ele>
        <time>2018-02-14T08:21:01Z</time>
      </trkpt>
      <trkpt lat="51.707220962271094" lon="0.251384004950523">
        <ele>57</ele>
        <time>2018-02-14T08:21:02Z</time>
      </trkpt>
      <trkpt lat="51.707240995019674" lon="0.25137503631413">
        <ele>57</ele>
        <time>2018-02-14T08:21:03Z</time>
      </trkpt>
      <trkpt lat="51.707261027768254" lon="0.251364978030324">
        <ele>57</ele>
        <time>2018-02-14T08:21:04Z</time>
      </trkpt>
      <trkpt lat="51.707279970869422" lon="0.25135600939393">
        <ele>57</ele>
        <time>2018-02-14T08:21:05Z</time>
      </trkpt>
      <trkpt lat="51.707301009446383" lon="0.251343017444015">
        <ele>57</ele>
        <time>2018-02-14T08:21:06Z</time>
      </trkpt>
      <trkpt lat="51.707321964204311" lon="0.251332959160209">
        <ele>57</ele>
        <time>2018-02-14T08:21:07Z</time>
      </trkpt>
      <trkpt lat="51.707341996952891" lon="0.251324996352196">
        <ele>57</ele>
        <time>2018-02-14T08:21:08Z</time>
      </trkpt>
      <trkpt lat="51.707361023873091" lon="0.251314016059041">
        <ele>57</ele>
        <time>2018-02-14T08:21:09Z</time>
      </trkpt>
      <trkpt lat="51.707380972802639" lon="0.251303035765886">
        <ele>57</ele>
        <time>2018-02-14T08:21:10Z</time>
      </trkpt>
      <trkpt lat="51.707398993894458" lon="0.2512919716537">
        <ele>57</ele>
        <time>2018-02-14T08:21:11Z</time>
      </trkpt>
      <trkpt lat="51.707419026643038" lon="0.251280991360545">
        <ele>57</ele>
        <time>2018-02-14T08:21:12Z</time>
      </trkpt>
      <trkpt lat="51.707438975572586" lon="0.251273028552532">
        <ele>57</ele>
        <time>2018-02-14T08:21:13Z</time>
      </trkpt>
      <trkpt lat="51.707459008321166" lon="0.251267999410629">
        <ele>57</ele>
        <time>2018-02-14T08:21:14Z</time>
      </trkpt>
      <trkpt lat="51.70748800970614" lon="0.251278979703784">
        <ele>57.134621538461502</ele>
        <time>2018-02-14T08:21:16Z</time>
      </trkpt>
      <trkpt lat="51.707497984170914" lon="0.251317033544183">
        <ele>58.10416</ele>
        <time>2018-02-14T08:21:18Z</time>
      </trkpt>
      <trkpt lat="51.707501001656055" lon="0.251353997737169">
        <ele>59</ele>
        <time>2018-02-14T08:21:20Z</time>
      </trkpt>
      <trkpt lat="51.707506030797958" lon="0.251393979415298">
        <ele>58.920000000000002</ele>
        <time>2018-02-14T08:21:22Z</time>
      </trkpt>
      <trkpt lat="51.707507958635688" lon="0.251429015770555">
        <ele>58</ele>
        <time>2018-02-14T08:21:24Z</time>
      </trkpt>
      <trkpt lat="51.707509970292449" lon="0.251460028812289">
        <ele>57.929690000000001</ele>
        <time>2018-02-14T08:21:26Z</time>
      </trkpt>
      <trkpt lat="51.70751097612083" lon="0.251509984955192">
        <ele>57.072167533187297</ele>
        <time>2018-02-14T08:21:29Z</time>
      </trkpt>
      <trkpt lat="51.707512987777591" lon="0.251574022695422">
        <ele>58</ele>
        <time>2018-02-14T08:21:31Z</time>
      </trkpt>
      <trkpt lat="51.707517011091113" lon="0.251608975231647">
        <ele>58</ele>
        <time>2018-02-14T08:21:32Z</time>
      </trkpt>
      <trkpt lat="51.707520028576255" lon="0.251645017415285">
        <ele>58</ele>
        <time>2018-02-14T08:21:33Z</time>
      </trkpt>
      <trkpt lat="51.707522040233016" lon="0.251680975779891">
        <ele>57.859995392058998</ele>
        <time>2018-02-14T08:21:34Z</time>
      </trkpt>
      <trkpt lat="51.707523968070745" lon="0.25172296911478">
        <ele>57</ele>
        <time>2018-02-14T08:21:35Z</time>
      </trkpt>
      <trkpt lat="51.707528997212648" lon="0.25176496244967">
        <ele>57</ele>
        <time>2018-02-14T08:21:36Z</time>
      </trkpt>
      <trkpt lat="51.707534026354551" lon="0.251807039603591">
        <ele>57</ele>
        <time>2018-02-14T08:21:37Z</time>
      </trkpt>
      <trkpt lat="51.707537965849042" lon="0.25184903293848">
        <ele>56.8679192880345</ele>
        <time>2018-02-14T08:21:38Z</time>
      </trkpt>
      <trkpt lat="51.707540983334184" lon="0.251887002959847">
        <ele>56</ele>
        <time>2018-02-14T08:21:39Z</time>
      </trkpt>
      <trkpt lat="51.707542994990945" lon="0.251928996294737">
        <ele>56</ele>
        <time>2018-02-14T08:21:40Z</time>
      </trkpt>
      <trkpt lat="51.707547018304467" lon="0.251965038478374">
        <ele>56</ele>
        <time>2018-02-14T08:21:41Z</time>
      </trkpt>
      <trkpt lat="51.707548024132848" lon="0.252004014328122">
        <ele>56</ele>
        <time>2018-02-14T08:21:42Z</time>
      </trkpt>
      <trkpt lat="51.707549029961228" lon="0.252040978521109">
        <ele>56</ele>
        <time>2018-02-14T08:21:43Z</time>
      </trkpt>
      <trkpt lat="51.707548024132848" lon="0.252081966027617">
        <ele>56</ele>
        <time>2018-02-14T08:21:44Z</time>
      </trkpt>
      <trkpt lat="51.707548024132848" lon="0.252123959362507">
        <ele>56</ele>
        <time>2018-02-14T08:21:45Z</time>
      </trkpt>
      <trkpt lat="51.707548024132848" lon="0.252167964354157">
        <ele>56</ele>
        <time>2018-02-14T08:21:46Z</time>
      </trkpt>
      <trkpt lat="51.707549029961228" lon="0.252254968509078">
        <ele>56</ele>
        <time>2018-02-14T08:21:48Z</time>
      </trkpt>
      <trkpt lat="51.707549029961228" lon="0.252294028177857">
        <ele>55.889996799999999</ele>
        <time>2018-02-14T08:21:49Z</time>
      </trkpt>
      <trkpt lat="51.707541989162564" lon="0.252333004027605">
        <ele>55</ele>
        <time>2018-02-14T08:21:50Z</time>
      </trkpt>
      <trkpt lat="51.707536960020661" lon="0.252371979877353">
        <ele>55</ele>
        <time>2018-02-14T08:21:51Z</time>
      </trkpt>
      <trkpt lat="51.707533020526171" lon="0.252405004575849">
        <ele>55</ele>
        <time>2018-02-14T08:21:52Z</time>
      </trkpt>
      <trkpt lat="51.707530003041029" lon="0.252439035102725">
        <ele>55</ele>
        <time>2018-02-14T08:21:53Z</time>
      </trkpt>
      <trkpt lat="51.707523968070745" lon="0.252471975982189">
        <ele>55</ele>
        <time>2018-02-14T08:21:54Z</time>
      </trkpt>
      <trkpt lat="51.707518016919494" lon="0.252509023994207">
        <ele>55</ele>
        <time>2018-02-14T08:21:55Z</time>
      </trkpt>
      <trkpt lat="51.707512987777591" lon="0.252541964873672">
        <ele>55</ele>
        <time>2018-02-14T08:21:56Z</time>
      </trkpt>
      <trkpt lat="51.707507036626339" lon="0.252581024542451">
        <ele>55</ele>
        <time>2018-02-14T08:21:57Z</time>
      </trkpt>
      <trkpt lat="51.707502007484436" lon="0.252625029534101">
        <ele>55</ele>
        <time>2018-02-14T08:21:58Z</time>
      </trkpt>
      <trkpt lat="51.707497984170914" lon="0.25266601704061">
        <ele>55</ele>
        <time>2018-02-14T08:21:59Z</time>
      </trkpt>
      <trkpt lat="51.707495972514153" lon="0.252711027860641">
        <ele>55</ele>
        <time>2018-02-14T08:22:00Z</time>
      </trkpt>
      <trkpt lat="51.707493960857391" lon="0.252750003710389">
        <ele>55</ele>
        <time>2018-02-14T08:22:01Z</time>
      </trkpt>
      <trkpt lat="51.707493960857391" lon="0.252793002873659">
        <ele>55</ele>
        <time>2018-02-14T08:22:02Z</time>
      </trkpt>
      <trkpt lat="51.707493960857391" lon="0.252831978723407">
        <ele>55</ele>
        <time>2018-02-14T08:22:03Z</time>
      </trkpt>
      <trkpt lat="51.707492033019662" lon="0.252873972058296">
        <ele>54.804515619887198</ele>
        <time>2018-02-14T08:22:04Z</time>
      </trkpt>
      <trkpt lat="51.70748901553452" lon="0.252914959564805">
        <ele>53.3007526033145</ele>
        <time>2018-02-14T08:22:05Z</time>
      </trkpt>
      <trkpt lat="51.707483986392617" lon="0.253001041710377">
        <ele>52.901955124987502</ele>
        <time>2018-02-14T08:22:07Z</time>
      </trkpt>
      <trkpt lat="51.707479041069746" lon="0.253038005903363">
        <ele>52</ele>
        <time>2018-02-14T08:22:08Z</time>
      </trkpt>
      <trkpt lat="51.707479963079095" lon="0.253076981753111">
        <ele>52</ele>
        <time>2018-02-14T08:22:09Z</time>
      </trkpt>
      <trkpt lat="51.707483986392617" lon="0.25311503559351">
        <ele>52</ele>
        <time>2018-02-14T08:22:10Z</time>
      </trkpt>
      <trkpt lat="51.707483986392617" lon="0.253154011443257">
        <ele>52</ele>
        <time>2018-02-14T08:22:11Z</time>
      </trkpt>
      <trkpt lat="51.707480968907475" lon="0.253196004778147">
        <ele>52</ele>
        <time>2018-02-14T08:22:12Z</time>
      </trkpt>
      <trkpt lat="51.707477029412985" lon="0.253232968971133">
        <ele>52</ele>
        <time>2018-02-14T08:22:13Z</time>
      </trkpt>
      <trkpt lat="51.707476023584604" lon="0.253269011154771">
        <ele>52</ele>
        <time>2018-02-14T08:22:14Z</time>
      </trkpt>
      <trkpt lat="51.707476023584604" lon="0.25330999866128">
        <ele>52</ele>
        <time>2018-02-14T08:22:15Z</time>
      </trkpt>
      <trkpt lat="51.707475017756224" lon="0.253350986167789">
        <ele>52</ele>
        <time>2018-02-14T08:22:16Z</time>
      </trkpt>
      <trkpt lat="51.707473006099463" lon="0.25339599698782">
        <ele>52</ele>
        <time>2018-02-14T08:22:17Z</time>
      </trkpt>
      <trkpt lat="51.707472000271082" lon="0.253443019464612">
        <ele>52</ele>
        <time>2018-02-14T08:22:18Z</time>
      </trkpt>
      <trkpt lat="51.70746898278594" lon="0.253489036113024">
        <ele>51.840000000000003</ele>
        <time>2018-02-14T08:22:19Z</time>
      </trkpt>
      <trkpt lat="51.707465965300798" lon="0.253533963114023">
        <ele>51</ele>
        <time>2018-02-14T08:22:20Z</time>
      </trkpt>
      <trkpt lat="51.707464959472418" lon="0.253576962277293">
        <ele>51</ele>
        <time>2018-02-14T08:22:21Z</time>
      </trkpt>
      <trkpt lat="51.707464037463069" lon="0.253620967268944">
        <ele>51</ele>
        <time>2018-02-14T08:22:22Z</time>
      </trkpt>
      <trkpt lat="51.707462025806308" lon="0.253663966432214">
        <ele>51</ele>
        <time>2018-02-14T08:22:23Z</time>
      </trkpt>
      <trkpt lat="51.707463031634688" lon="0.253705959767103">
        <ele>51</ele>
        <time>2018-02-14T08:22:24Z</time>
      </trkpt>
      <trkpt lat="51.707462025806308" lon="0.253748958930373">
        <ele>51</ele>
        <time>2018-02-14T08:22:25Z</time>
      </trkpt>
      <trkpt lat="51.707463031634688" lon="0.253792963922024">
        <ele>51</ele>
        <time>2018-02-14T08:22:26Z</time>
      </trkpt>
      <trkpt lat="51.707460014149547" lon="0.253837974742055">
        <ele>51</ele>
        <time>2018-02-14T08:22:27Z</time>
      </trkpt>
      <trkpt lat="51.707455990836024" lon="0.253880973905325">
        <ele>50.805825845977999</ele>
        <time>2018-02-14T08:22:28Z</time>
      </trkpt>
      <trkpt lat="51.707452973350883" lon="0.253924978896976">
        <ele>50</ele>
        <time>2018-02-14T08:22:29Z</time>
      </trkpt>
      <trkpt lat="51.707450961694121" lon="0.253966972231865">
        <ele>50</ele>
        <time>2018-02-14T08:22:30Z</time>
      </trkpt>
      <trkpt lat="51.707450039684772" lon="0.254012988880277">
        <ele>50</ele>
        <time>2018-02-14T08:22:31Z</time>
      </trkpt>
      <trkpt lat="51.70744601637125" lon="0.254053976386786">
        <ele>50</ele>
        <time>2018-02-14T08:22:32Z</time>
      </trkpt>
      <trkpt lat="51.707441993057728" lon="0.254095969721675">
        <ele>50</ele>
        <time>2018-02-14T08:22:33Z</time>
      </trkpt>
      <trkpt lat="51.707436963915825" lon="0.254136035218835">
        <ele>50</ele>
        <time>2018-02-14T08:22:34Z</time>
      </trkpt>
      <trkpt lat="51.707433024421334" lon="0.254174005240202">
        <ele>50</ele>
        <time>2018-02-14T08:22:35Z</time>
      </trkpt>
      <trkpt lat="51.707432018592954" lon="0.254215998575091">
        <ele>50</ele>
        <time>2018-02-14T08:22:36Z</time>
      </trkpt>
      <trkpt lat="51.707431012764573" lon="0.254252962768078">
        <ele>49.840000000000003</ele>
        <time>2018-02-14T08:22:37Z</time>
      </trkpt>
      <trkpt lat="51.707426989451051" lon="0.254294034093618">
        <ele>49</ele>
        <time>2018-02-14T08:22:38Z</time>
      </trkpt>
      <trkpt lat="51.70742497779429" lon="0.254333009943366">
        <ele>49</ele>
        <time>2018-02-14T08:22:39Z</time>
      </trkpt>
      <trkpt lat="51.70742598362267" lon="0.254367040470243">
        <ele>49</ele>
        <time>2018-02-14T08:22:40Z</time>
      </trkpt>
      <trkpt lat="51.70742497779429" lon="0.254398975521326">
        <ele>49</ele>
        <time>2018-02-14T08:22:41Z</time>
      </trkpt>
      <trkpt lat="51.707421960309148" lon="0.254430994391441">
        <ele>48.881887541700699</ele>
        <time>2018-02-14T08:22:42Z</time>
      </trkpt>
      <trkpt lat="51.707420032471418" lon="0.254468964412808">
        <ele>48.0944879508965</ele>
        <time>2018-02-14T08:22:43Z</time>
      </trkpt>
      <trkpt lat="51.707417014986277" lon="0.254505006596446">
        <ele>48</ele>
        <time>2018-02-14T08:22:44Z</time>
      </trkpt>
      <trkpt lat="51.707415003329515" lon="0.254541970789433">
        <ele>48</ele>
        <time>2018-02-14T08:22:45Z</time>
      </trkpt>
      <trkpt lat="51.707412991672754" lon="0.254584969952703">
        <ele>48</ele>
        <time>2018-02-14T08:22:46Z</time>
      </trkpt>
      <trkpt lat="51.707408968359232" lon="0.254628974944353">
        <ele>48</ele>
        <time>2018-02-14T08:22:47Z</time>
      </trkpt>
      <trkpt lat="51.707406034693122" lon="0.254670968279243">
        <ele>48</ele>
        <time>2018-02-14T08:22:48Z</time>
      </trkpt>
      <trkpt lat="51.70740301720798" lon="0.254712961614132">
        <ele>48</ele>
        <time>2018-02-14T08:22:49Z</time>
      </trkpt>
      <trkpt lat="51.707396982237697" lon="0.254753027111292">
        <ele>48</ele>
        <time>2018-02-14T08:22:50Z</time>
      </trkpt>
      <trkpt lat="51.707390025258064" lon="0.254790997132659">
        <ele>48</ele>
        <time>2018-02-14T08:22:51Z</time>
      </trkpt>
      <trkpt lat="51.707386001944542" lon="0.254827961325645">
        <ele>48</ele>
        <time>2018-02-14T08:22:52Z</time>
      </trkpt>
      <trkpt lat="51.707378039136529" lon="0.254867020994425">
        <ele>47.8499968</ele>
        <time>2018-02-14T08:22:53Z</time>
      </trkpt>
      <trkpt lat="51.707373009994626" lon="0.254903985187411">
        <ele>47</ele>
        <time>2018-02-14T08:22:54Z</time>
      </trkpt>
      <trkpt lat="51.707366975024343" lon="0.25494203902781">
        <ele>47</ele>
        <time>2018-02-14T08:22:55Z</time>
      </trkpt>
      <trkpt lat="51.707362029701471" lon="0.254983026534319">
        <ele>46.8499968</ele>
        <time>2018-02-14T08:22:56Z</time>
      </trkpt>
      <trkpt lat="51.707358006387949" lon="0.255016973242164">
        <ele>46</ele>
        <time>2018-02-14T08:22:57Z</time>
      </trkpt>
      <trkpt lat="51.707351971417665" lon="0.25504999794066">
        <ele>46</ele>
        <time>2018-02-14T08:22:58Z</time>
      </trkpt>
      <trkpt lat="51.707346020266414" lon="0.255090985447168">
        <ele>46</ele>
        <time>2018-02-14T08:22:59Z</time>
      </trkpt>
      <trkpt lat="51.707343002781272" lon="0.255132978782058">
        <ele>46</ele>
        <time>2018-02-14T08:23:00Z</time>
      </trkpt>
      <trkpt lat="51.70733897946775" lon="0.255172038450837">
        <ele>45.8015301486179</ele>
        <time>2018-02-14T08:23:01Z</time>
      </trkpt>
      <trkpt lat="51.707334034144878" lon="0.255212020128965">
        <ele>44.274801403124798</ele>
        <time>2018-02-14T08:23:02Z</time>
      </trkpt>
      <trkpt lat="51.707330010831356" lon="0.2552879601717">
        <ele>44.049996800000002</ele>
        <time>2018-02-14T08:23:04Z</time>
      </trkpt>
      <trkpt lat="51.707325987517834" lon="0.255328025668859">
        <ele>45</ele>
        <time>2018-02-14T08:23:05Z</time>
      </trkpt>
      <trkpt lat="51.707323975861073" lon="0.255367001518607">
        <ele>45</ele>
        <time>2018-02-14T08:23:06Z</time>
      </trkpt>
      <trkpt lat="51.707321964204311" lon="0.255404971539974">
        <ele>45</ele>
        <time>2018-02-14T08:23:07Z</time>
      </trkpt>
      <trkpt lat="51.707320036366582" lon="0.255445959046483">
        <ele>45</ele>
        <time>2018-02-14T08:23:08Z</time>
      </trkpt>
      <trkpt lat="51.707320036366582" lon="0.255485018715262">
        <ele>45</ele>
        <time>2018-02-14T08:23:09Z</time>
      </trkpt>
      <trkpt lat="51.70731701888144" lon="0.255533969029784">
        <ele>45</ele>
        <time>2018-02-14T08:23:10Z</time>
      </trkpt>
      <trkpt lat="51.707314001396298" lon="0.255576968193054">
        <ele>45</ele>
        <time>2018-02-14T08:23:11Z</time>
      </trkpt>
      <trkpt lat="51.707311989739537" lon="0.255618961527944">
        <ele>45</ele>
        <time>2018-02-14T08:23:12Z</time>
      </trkpt>
      <trkpt lat="51.707307966426015" lon="0.255661038681865">
        <ele>45</ele>
        <time>2018-02-14T08:23:13Z</time>
      </trkpt>
      <trkpt lat="51.707303021103144" lon="0.255701020359993">
        <ele>45</ele>
        <time>2018-02-14T08:23:14Z</time>
      </trkpt>
      <trkpt lat="51.707300003618002" lon="0.255739996209741">
        <ele>44.897953319488501</ele>
        <time>2018-02-14T08:23:15Z</time>
      </trkpt>
      <trkpt lat="51.707297991961241" lon="0.255786012858152">
        <ele>44</ele>
        <time>2018-02-14T08:23:16Z</time>
      </trkpt>
      <trkpt lat="51.707293968647718" lon="0.255828006193042">
        <ele>44</ele>
        <time>2018-02-14T08:23:17Z</time>
      </trkpt>
      <trkpt lat="51.707293968647718" lon="0.255869999527931">
        <ele>44</ele>
        <time>2018-02-14T08:23:18Z</time>
      </trkpt>
      <trkpt lat="51.707292962819338" lon="0.255908975377679">
        <ele>44</ele>
        <time>2018-02-14T08:23:19Z</time>
      </trkpt>
      <trkpt lat="51.707291034981608" lon="0.255943005904555">
        <ele>44</ele>
        <time>2018-02-14T08:23:20Z</time>
      </trkpt>
      <trkpt lat="51.707288017496467" lon="0.255977036431432">
        <ele>44</ele>
        <time>2018-02-14T08:23:21Z</time>
      </trkpt>
      <trkpt lat="51.707288017496467" lon="0.256006959825754">
        <ele>44</ele>
        <time>2018-02-14T08:23:22Z</time>
      </trkpt>
      <trkpt lat="51.707286005839705" lon="0.256037972867489">
        <ele>44</ele>
        <time>2018-02-14T08:23:23Z</time>
      </trkpt>
      <trkpt lat="51.707283994182944" lon="0.256074015051126">
        <ele>44</ele>
        <time>2018-02-14T08:23:24Z</time>
      </trkpt>
      <trkpt lat="51.707286005839705" lon="0.256113996729255">
        <ele>44</ele>
        <time>2018-02-14T08:23:25Z</time>
      </trkpt>
      <trkpt lat="51.707291034981608" lon="0.256150960922241">
        <ele>44</ele>
        <time>2018-02-14T08:23:26Z</time>
      </trkpt>
      <trkpt lat="51.707300003618002" lon="0.256187003105879">
        <ele>44</ele>
        <time>2018-02-14T08:23:27Z</time>
      </trkpt>
      <trkpt lat="51.707312995567918" lon="0.256222039461136">
        <ele>44</ele>
        <time>2018-02-14T08:23:28Z</time>
      </trkpt>
      <trkpt lat="51.707332022488117" lon="0.256250035017729">
        <ele>44</ele>
        <time>2018-02-14T08:23:29Z</time>
      </trkpt>
      <trkpt lat="51.707349037751555" lon="0.256268978118896">
        <ele>44</ele>
        <time>2018-02-14T08:23:30Z</time>
      </trkpt>
      <trkpt lat="51.707366975024343" lon="0.256285993382335">
        <ele>44</ele>
        <time>2018-02-14T08:23:31Z</time>
      </trkpt>
      <trkpt lat="51.707386001944542" lon="0.256298985332251">
        <ele>43.906253333333296</ele>
        <time>2018-02-14T08:23:32Z</time>
      </trkpt>
      <trkpt lat="51.707407040521502" lon="0.256305020302534">
        <ele>43</ele>
        <time>2018-02-14T08:23:33Z</time>
      </trkpt>
      <trkpt lat="51.707426989451051" lon="0.256302002817392">
        <ele>43</ele>
        <time>2018-02-14T08:23:34Z</time>
      </trkpt>
      <trkpt lat="51.707450039684772" lon="0.256298985332251">
        <ele>43</ele>
        <time>2018-02-14T08:23:35Z</time>
      </trkpt>
      <trkpt lat="51.707474011927843" lon="0.256298985332251">
        <ele>43</ele>
        <time>2018-02-14T08:23:36Z</time>
      </trkpt>
      <trkpt lat="51.707495972514153" lon="0.256298985332251">
        <ele>43.100005119934501</ele>
        <time>2018-02-14T08:23:37Z</time>
      </trkpt>
      <trkpt lat="51.707521034404635" lon="0.256300996989012">
        <ele>44</ele>
        <time>2018-02-14T08:23:38Z</time>
      </trkpt>
      <trkpt lat="51.707544000819325" lon="0.256300996989012">
        <ele>44</ele>
        <time>2018-02-14T08:23:39Z</time>
      </trkpt>
      <trkpt lat="51.707565961405635" lon="0.256308037787676">
        <ele>44</ele>
        <time>2018-02-14T08:23:40Z</time>
      </trkpt>
      <trkpt lat="51.707590017467737" lon="0.256321029737592">
        <ele>44</ele>
        <time>2018-02-14T08:23:41Z</time>
      </trkpt>
      <trkpt lat="51.707613989710808" lon="0.25634097866714">
        <ele>44</ele>
        <time>2018-02-14T08:23:42Z</time>
      </trkpt>
      <trkpt lat="51.70763703994453" lon="0.256363023072481">
        <ele>44</ele>
        <time>2018-02-14T08:23:43Z</time>
      </trkpt>
      <trkpt lat="51.707657994702458" lon="0.256384983658791">
        <ele>44</ele>
        <time>2018-02-14T08:23:44Z</time>
      </trkpt>
      <trkpt lat="51.707678027451038" lon="0.256410967558622">
        <ele>44</ele>
        <time>2018-02-14T08:23:45Z</time>
      </trkpt>
      <trkpt lat="51.707697976380587" lon="0.256435023620725">
        <ele>44</ele>
        <time>2018-02-14T08:23:46Z</time>
      </trkpt>
      <trkpt lat="51.707718009129167" lon="0.256463019177318">
        <ele>44</ele>
        <time>2018-02-14T08:23:47Z</time>
      </trkpt>
      <trkpt lat="51.707732006907463" lon="0.256495960056782">
        <ele>43.8099968</ele>
        <time>2018-02-14T08:23:48Z</time>
      </trkpt>
      <trkpt lat="51.707749022170901" lon="0.256535019725561">
        <ele>43</ele>
        <time>2018-02-14T08:23:49Z</time>
      </trkpt>
      <trkpt lat="51.707762014120817" lon="0.256571983918548">
        <ele>43</ele>
        <time>2018-02-14T08:23:50Z</time>
      </trkpt>
      <trkpt lat="51.707772994413972" lon="0.256608026102185">
        <ele>43</ele>
        <time>2018-02-14T08:23:51Z</time>
      </trkpt>
      <trkpt lat="51.707781963050365" lon="0.256643984466791">
        <ele>43</ele>
        <time>2018-02-14T08:23:52Z</time>
      </trkpt>
      <trkpt lat="51.707794032990932" lon="0.256678014993668">
        <ele>43</ele>
        <time>2018-02-14T08:23:53Z</time>
      </trkpt>
      <trkpt lat="51.707804007455707" lon="0.256714979186654">
        <ele>43</ele>
        <time>2018-02-14T08:23:54Z</time>
      </trkpt>
      <trkpt lat="51.707818005234003" lon="0.25674800388515">
        <ele>43</ele>
        <time>2018-02-14T08:23:55Z</time>
      </trkpt>
      <trkpt lat="51.7078320030123" lon="0.256778011098504">
        <ele>43</ele>
        <time>2018-02-14T08:23:56Z</time>
      </trkpt>
      <trkpt lat="51.707848012447357" lon="0.256803994998336">
        <ele>43</ele>
        <time>2018-02-14T08:23:57Z</time>
      </trkpt>
      <trkpt lat="51.707863016054034" lon="0.256829978898168">
        <ele>43</ele>
        <time>2018-02-14T08:23:58Z</time>
      </trkpt>
      <trkpt lat="51.70787600800395" lon="0.256859986111522">
        <ele>43</ele>
        <time>2018-02-14T08:23:59Z</time>
      </trkpt>
      <trkpt lat="51.707887994125485" lon="0.256889993324876">
        <ele>43</ele>
        <time>2018-02-14T08:24:00Z</time>
      </trkpt>
      <trkpt lat="51.707905009388924" lon="0.256911031901836">
        <ele>43</ele>
        <time>2018-02-14T08:24:01Z</time>
      </trkpt>
      <trkpt lat="51.707924036309123" lon="0.256928969174623">
        <ele>42.909004799999998</ele>
        <time>2018-02-14T08:24:02Z</time>
      </trkpt>
      <trkpt lat="51.707943985238671" lon="0.256943972781301">
        <ele>42</ele>
        <time>2018-02-14T08:24:03Z</time>
      </trkpt>
      <trkpt lat="51.707966029644012" lon="0.256957970559597">
        <ele>42.090995200000002</ele>
        <time>2018-02-14T08:24:04Z</time>
      </trkpt>
      <trkpt lat="51.707986984401941" lon="0.256970962509513">
        <ele>43</ele>
        <time>2018-02-14T08:24:05Z</time>
      </trkpt>
      <trkpt lat="51.708010034635663" lon="0.256982026621699">
        <ele>43</ele>
        <time>2018-02-14T08:24:06Z</time>
      </trkpt>
      <trkpt lat="51.708031995221972" lon="0.256989989429712">
        <ele>43</ele>
        <time>2018-02-14T08:24:07Z</time>
      </trkpt>
      <trkpt lat="51.708052027970552" lon="0.256999041885138">
        <ele>43</ele>
        <time>2018-02-14T08:24:08Z</time>
      </trkpt>
      <trkpt lat="51.708072982728481" lon="0.25700599886477">
        <ele>43</ele>
        <time>2018-02-14T08:24:09Z</time>
      </trkpt>
      <trkpt lat="51.708093015477061" lon="0.257011028006673">
        <ele>43</ele>
        <time>2018-02-14T08:24:10Z</time>
      </trkpt>
      <trkpt lat="51.708115981891751" lon="0.257018990814686">
        <ele>43</ele>
        <time>2018-02-14T08:24:11Z</time>
      </trkpt>
      <trkpt lat="51.708138026297092" lon="0.25702896527946">
        <ele>42.782173951613899</ele>
        <time>2018-02-14T08:24:12Z</time>
      </trkpt>
      <trkpt lat="51.708160992711782" lon="0.257040029391646">
        <ele>42</ele>
        <time>2018-02-14T08:24:13Z</time>
      </trkpt>
      <trkpt lat="51.708183959126472" lon="0.257047992199659">
        <ele>42</ele>
        <time>2018-02-14T08:24:14Z</time>
      </trkpt>
      <trkpt lat="51.708208015188575" lon="0.257058972492814">
        <ele>42</ele>
        <time>2018-02-14T08:24:15Z</time>
      </trkpt>
      <trkpt lat="51.708228969946504" lon="0.257073976099491">
        <ele>42.111113984277999</ele>
        <time>2018-02-14T08:24:16Z</time>
      </trkpt>
      <trkpt lat="51.708251014351845" lon="0.257087973877788">
        <ele>43</ele>
        <time>2018-02-14T08:24:17Z</time>
      </trkpt>
      <trkpt lat="51.708271969109774" lon="0.257107000797987">
        <ele>43</ele>
        <time>2018-02-14T08:24:18Z</time>
      </trkpt>
      <trkpt lat="51.708294013515115" lon="0.257126027718186">
        <ele>43</ele>
        <time>2018-02-14T08:24:19Z</time>
      </trkpt>
      <trkpt lat="51.708315974101424" lon="0.257145976647735">
        <ele>43</ele>
        <time>2018-02-14T08:24:20Z</time>
      </trkpt>
      <trkpt lat="51.708333995193243" lon="0.257166009396315">
        <ele>43</ele>
        <time>2018-02-14T08:24:21Z</time>
      </trkpt>
      <trkpt lat="51.708355033770204" lon="0.257188975811005">
        <ele>43</ele>
        <time>2018-02-14T08:24:22Z</time>
      </trkpt>
      <trkpt lat="51.708375988528132" lon="0.257210014387965">
        <ele>43</ele>
        <time>2018-02-14T08:24:23Z</time>
      </trkpt>
      <trkpt lat="51.708398032933474" lon="0.257230969145894">
        <ele>43</ele>
        <time>2018-02-14T08:24:24Z</time>
      </trkpt>
      <trkpt lat="51.708415970206261" lon="0.257255025207996">
        <ele>42.808078196110898</ele>
        <time>2018-02-14T08:24:25Z</time>
      </trkpt>
      <trkpt lat="51.708432985469699" lon="0.257281009107828">
        <ele>42</ele>
        <time>2018-02-14T08:24:26Z</time>
      </trkpt>
      <trkpt lat="51.708450000733137" lon="0.257310010492802">
        <ele>42</ele>
        <time>2018-02-14T08:24:27Z</time>
      </trkpt>
      <trkpt lat="51.708465004339814" lon="0.257339011877775">
        <ele>42</ele>
        <time>2018-02-14T08:24:28Z</time>
      </trkpt>
      <trkpt lat="51.708484031260014" lon="0.257368013262749">
        <ele>42.180004095947602</ele>
        <time>2018-02-14T08:24:29Z</time>
      </trkpt>
      <trkpt lat="51.708501968532801" lon="0.25739399716258">
        <ele>43</ele>
        <time>2018-02-14T08:24:30Z</time>
      </trkpt>
      <trkpt lat="51.708519989624619" lon="0.257418975234032">
        <ele>43</ele>
        <time>2018-02-14T08:24:31Z</time>
      </trkpt>
      <trkpt lat="51.708540022373199" lon="0.257444037124515">
        <ele>43</ele>
        <time>2018-02-14T08:24:32Z</time>
      </trkpt>
      <trkpt lat="51.708556031808257" lon="0.257467003539205">
        <ele>43</ele>
        <time>2018-02-14T08:24:33Z</time>
      </trkpt>
      <trkpt lat="51.708572041243315" lon="0.257487036287785">
        <ele>43</ele>
        <time>2018-02-14T08:24:34Z</time>
      </trkpt>
      <trkpt lat="51.708591990172863" lon="0.257512014359236">
        <ele>43</ele>
        <time>2018-02-14T08:24:36Z</time>
      </trkpt>
      <trkpt lat="51.708607999607921" lon="0.257524000480771">
        <ele>43</ele>
        <time>2018-02-14T08:24:38Z</time>
      </trkpt>
      <trkpt lat="51.708626020699739" lon="0.257534980773926">
        <ele>43</ele>
        <time>2018-02-14T08:24:40Z</time>
      </trkpt>
      <trkpt lat="51.708644963800907" lon="0.25754202157259">
        <ele>43</ele>
        <time>2018-02-14T08:24:42Z</time>
      </trkpt>
      <trkpt lat="51.708664996549487" lon="0.257548978552222">
        <ele>43</ele>
        <time>2018-02-14T08:24:44Z</time>
      </trkpt>
      <trkpt lat="51.708682011812925" lon="0.257579991593957">
        <ele>43</ele>
        <time>2018-02-14T08:24:46Z</time>
      </trkpt>
      <trkpt lat="51.708686035126448" lon="0.257617039605975">
        <ele>43</ele>
        <time>2018-02-14T08:24:48Z</time>
      </trkpt>
      <trkpt lat="51.708678994327784" lon="0.257660960778594">
        <ele>43</ele>
        <time>2018-02-14T08:24:51Z</time>
      </trkpt>
      <trkpt lat="51.708673965185881" lon="0.257697002962232">
        <ele>43</ele>
        <time>2018-02-14T08:24:53Z</time>
      </trkpt>
      <trkpt lat="51.70867002569139" lon="0.257728016003966">
        <ele>44</ele>
        <time>2018-02-14T08:24:55Z</time>
      </trkpt>
      <trkpt lat="51.708663990721107" lon="0.257751988247037">
        <ele>44</ele>
        <time>2018-02-14T08:24:57Z</time>
      </trkpt>
      <trkpt lat="51.708658039569855" lon="0.257799010723829">
        <ele>43.808078196110898</ele>
        <time>2018-02-14T08:25:00Z</time>
      </trkpt>
      <trkpt lat="51.708657033741474" lon="0.257829017937183">
        <ele>43</ele>
        <time>2018-02-14T08:25:01Z</time>
      </trkpt>
      <trkpt lat="51.708655022084713" lon="0.257861036807299">
        <ele>43</ele>
        <time>2018-02-14T08:25:02Z</time>
      </trkpt>
      <trkpt lat="51.708650998771191" lon="0.257890960201621">
        <ele>43</ele>
        <time>2018-02-14T08:25:03Z</time>
      </trkpt>
      <trkpt lat="51.708645969629288" lon="0.257925996556878">
        <ele>43</ele>
        <time>2018-02-14T08:25:04Z</time>
      </trkpt>
      <trkpt lat="51.708639012649655" lon="0.257959021255374">
        <ele>43</ele>
        <time>2018-02-14T08:25:05Z</time>
      </trkpt>
      <trkpt lat="51.708632977679372" lon="0.257990034297109">
        <ele>43</ele>
        <time>2018-02-14T08:25:06Z</time>
      </trkpt>
      <trkpt lat="51.708626020699739" lon="0.258022975176573">
        <ele>43</ele>
        <time>2018-02-14T08:25:07Z</time>
      </trkpt>
      <trkpt lat="51.708618979901075" lon="0.258053988218308">
        <ele>43</ele>
        <time>2018-02-14T08:25:08Z</time>
      </trkpt>
      <trkpt lat="51.708610011264682" lon="0.258086007088423">
        <ele>43</ele>
        <time>2018-02-14T08:25:09Z</time>
      </trkpt>
      <trkpt lat="51.708602970466018" lon="0.258118025958538">
        <ele>43</ele>
        <time>2018-02-14T08:25:10Z</time>
      </trkpt>
      <trkpt lat="51.708598025143147" lon="0.258150966838002">
        <ele>43</ele>
        <time>2018-02-14T08:25:11Z</time>
      </trkpt>
      <trkpt lat="51.70858696103096" lon="0.25818801485002">
        <ele>43.169806308264498</ele>
        <time>2018-02-14T08:25:12Z</time>
      </trkpt>
      <trkpt lat="51.708578998222947" lon="0.258221039548516">
        <ele>44</ele>
        <time>2018-02-14T08:25:13Z</time>
      </trkpt>
      <trkpt lat="51.708573969081044" lon="0.258251968771219">
        <ele>44</ele>
        <time>2018-02-14T08:25:14Z</time>
      </trkpt>
      <trkpt lat="51.708566006273031" lon="0.258282981812954">
        <ele>44</ele>
        <time>2018-02-14T08:25:15Z</time>
      </trkpt>
      <trkpt lat="51.708557959645987" lon="0.258350037038326">
        <ele>44</ele>
        <time>2018-02-14T08:25:17Z</time>
      </trkpt>
      <trkpt lat="51.708554020151496" lon="0.258384989574552">
        <ele>44</ele>
        <time>2018-02-14T08:25:18Z</time>
      </trkpt>
      <trkpt lat="51.708549996837974" lon="0.258420025929809">
        <ele>44</ele>
        <time>2018-02-14T08:25:19Z</time>
      </trkpt>
      <trkpt lat="51.70854102820158" lon="0.258456990122795">
        <ele>43</ele>
        <time>2018-02-14T08:25:20Z</time>
      </trkpt>
      <trkpt lat="51.708532981574535" lon="0.258490014821291">
        <ele>43.089996800000002</ele>
        <time>2018-02-14T08:25:21Z</time>
      </trkpt>
      <trkpt lat="51.708526024594903" lon="0.258524967357516">
        <ele>44</ele>
        <time>2018-02-14T08:25:22Z</time>
      </trkpt>
      <trkpt lat="51.708518983796239" lon="0.258556986227632">
        <ele>44</ele>
        <time>2018-02-14T08:25:23Z</time>
      </trkpt>
      <trkpt lat="51.708512026816607" lon="0.258587999269366">
        <ele>44</ele>
        <time>2018-02-14T08:25:24Z</time>
      </trkpt>
      <trkpt lat="51.708504986017942" lon="0.258622029796243">
        <ele>44</ele>
        <time>2018-02-14T08:25:25Z</time>
      </trkpt>
      <trkpt lat="51.708499034866691" lon="0.258656982332468">
        <ele>44</ele>
        <time>2018-02-14T08:25:26Z</time>
      </trkpt>
      <trkpt lat="51.708489982411265" lon="0.258692018687725">
        <ele>44</ele>
        <time>2018-02-14T08:25:27Z</time>
      </trkpt>
      <trkpt lat="51.708481013774872" lon="0.258722025901079">
        <ele>44</ele>
        <time>2018-02-14T08:25:28Z</time>
      </trkpt>
      <trkpt lat="51.708472967147827" lon="0.258751027286053">
        <ele>44</ele>
        <time>2018-02-14T08:25:29Z</time>
      </trkpt>
      <trkpt lat="51.708465004339814" lon="0.258782040327787">
        <ele>44</ele>
        <time>2018-02-14T08:25:30Z</time>
      </trkpt>
      <trkpt lat="51.708457041531801" lon="0.25881296955049">
        <ele>44</ele>
        <time>2018-02-14T08:25:31Z</time>
      </trkpt>
      <trkpt lat="51.708450000733137" lon="0.258843982592225">
        <ele>44</ele>
        <time>2018-02-14T08:25:32Z</time>
      </trkpt>
      <trkpt lat="51.708442959934473" lon="0.25887600146234">
        <ele>44.104473334798001</ele>
        <time>2018-02-14T08:25:33Z</time>
      </trkpt>
      <trkpt lat="51.70843499712646" lon="0.258907014504075">
        <ele>44.850745555799698</ele>
        <time>2018-02-14T08:25:34Z</time>
      </trkpt>
      <trkpt lat="51.708426028490067" lon="0.25893802754581">
        <ele>45</ele>
        <time>2018-02-14T08:25:35Z</time>
      </trkpt>
      <trkpt lat="51.708417981863022" lon="0.258967028930783">
        <ele>45</ele>
        <time>2018-02-14T08:25:36Z</time>
      </trkpt>
      <trkpt lat="51.708408007398248" lon="0.258997958153486">
        <ele>45</ele>
        <time>2018-02-14T08:25:37Z</time>
      </trkpt>
      <trkpt lat="51.708399960771203" lon="0.25902796536684">
        <ele>45</ele>
        <time>2018-02-14T08:25:38Z</time>
      </trkpt>
      <trkpt lat="51.70839199796319" lon="0.259058978408575">
        <ele>45</ele>
        <time>2018-02-14T08:25:39Z</time>
      </trkpt>
      <trkpt lat="51.708381017670035" lon="0.25908999145031">
        <ele>45</ele>
        <time>2018-02-14T08:25:40Z</time>
      </trkpt>
      <trkpt lat="51.708375988528132" lon="0.259117987006903">
        <ele>45</ele>
        <time>2018-02-14T08:25:41Z</time>
      </trkpt>
      <trkpt lat="51.708370037376881" lon="0.259147994220257">
        <ele>45</ele>
        <time>2018-02-14T08:25:42Z</time>
      </trkpt>
      <trkpt lat="51.708366014063358" lon="0.259182024747133">
        <ele>45</ele>
        <time>2018-02-14T08:25:43Z</time>
      </trkpt>
      <trkpt lat="51.708358973264694" lon="0.259213959798217">
        <ele>45</ele>
        <time>2018-02-14T08:25:44Z</time>
      </trkpt>
      <trkpt lat="51.708351010456681" lon="0.259245978668332">
        <ele>45</ele>
        <time>2018-02-14T08:25:45Z</time>
      </trkpt>
      <trkpt lat="51.708342963829637" lon="0.259276991710067">
        <ele>45.089996800000002</ele>
        <time>2018-02-14T08:25:46Z</time>
      </trkpt>
      <trkpt lat="51.708335001021624" lon="0.259309010580182">
        <ele>46</ele>
        <time>2018-02-14T08:25:47Z</time>
      </trkpt>
      <trkpt lat="51.708327038213611" lon="0.259340023621917">
        <ele>46</ele>
        <time>2018-02-14T08:25:48Z</time>
      </trkpt>
      <trkpt lat="51.708317985758185" lon="0.259371958673">
        <ele>46</ele>
        <time>2018-02-14T08:25:49Z</time>
      </trkpt>
      <trkpt lat="51.708309017121792" lon="0.259402971714735">
        <ele>46.079999999999998</ele>
        <time>2018-02-14T08:25:50Z</time>
      </trkpt>
      <trkpt lat="51.708298958837986" lon="0.259429039433599">
        <ele>47</ele>
        <time>2018-02-14T08:25:51Z</time>
      </trkpt>
      <trkpt lat="51.70828596688807" lon="0.259458040818572">
        <ele>47</ele>
        <time>2018-02-14T08:25:52Z</time>
      </trkpt>
      <trkpt lat="51.708274986594915" lon="0.259485030546784">
        <ele>47</ele>
        <time>2018-02-14T08:25:53Z</time>
      </trkpt>
      <trkpt lat="51.708265012130141" lon="0.259515037760139">
        <ele>46.9431854545455</ele>
        <time>2018-02-14T08:25:54Z</time>
      </trkpt>
      <trkpt lat="51.708256965503097" lon="0.259545966982841">
        <ele>46</ele>
        <time>2018-02-14T08:25:55Z</time>
      </trkpt>
      <trkpt lat="51.708249002695084" lon="0.259573040530086">
        <ele>46</ele>
        <time>2018-02-14T08:25:56Z</time>
      </trkpt>
      <trkpt lat="51.70824003405869" lon="0.259601958096027">
        <ele>46</ele>
        <time>2018-02-14T08:25:57Z</time>
      </trkpt>
      <trkpt lat="51.708229975774884" lon="0.259630959481001">
        <ele>46</ele>
        <time>2018-02-14T08:25:58Z</time>
      </trkpt>
      <trkpt lat="51.708223018795252" lon="0.259658033028245">
        <ele>46</ele>
        <time>2018-02-14T08:25:59Z</time>
      </trkpt>
      <trkpt lat="51.708213966339827" lon="0.259688962250948">
        <ele>46</ele>
        <time>2018-02-14T08:26:00Z</time>
      </trkpt>
      <trkpt lat="51.708208015188575" lon="0.259717963635921">
        <ele>46</ele>
        <time>2018-02-14T08:26:01Z</time>
      </trkpt>
      <trkpt lat="51.708200974389911" lon="0.259746965020895">
        <ele>46</ele>
        <time>2018-02-14T08:26:02Z</time>
      </trkpt>
      <trkpt lat="51.708193011581898" lon="0.25977898389101">
        <ele>46</ele>
        <time>2018-02-14T08:26:03Z</time>
      </trkpt>
      <trkpt lat="51.708188988268375" lon="0.259806979447603">
        <ele>46.1699968</ele>
        <time>2018-02-14T08:26:04Z</time>
      </trkpt>
      <trkpt lat="51.708182031288743" lon="0.259836986660957">
        <ele>47</ele>
        <time>2018-02-14T08:26:05Z</time>
      </trkpt>
      <trkpt lat="51.708170967176557" lon="0.259869005531073">
        <ele>47</ele>
        <time>2018-02-14T08:26:06Z</time>
      </trkpt>
      <trkpt lat="51.708161998540163" lon="0.259899012744427">
        <ele>47</ele>
        <time>2018-02-14T08:26:07Z</time>
      </trkpt>
      <trkpt lat="51.708155041560531" lon="0.259931031614542">
        <ele>47</ele>
        <time>2018-02-14T08:26:08Z</time>
      </trkpt>
      <trkpt lat="51.708148000761867" lon="0.259961038827896">
        <ele>47</ele>
        <time>2018-02-14T08:26:09Z</time>
      </trkpt>
      <trkpt lat="51.708141965791583" lon="0.25999397970736">
        <ele>47</ele>
        <time>2018-02-14T08:26:10Z</time>
      </trkpt>
      <trkpt lat="51.708135008811951" lon="0.260025998577476">
        <ele>47</ele>
        <time>2018-02-14T08:26:11Z</time>
      </trkpt>
      <trkpt lat="51.708127968013287" lon="0.26005701161921">
        <ele>47</ele>
        <time>2018-02-14T08:26:12Z</time>
      </trkpt>
      <trkpt lat="51.708116987720132" lon="0.260089030489326">
        <ele>47</ele>
        <time>2018-02-14T08:26:13Z</time>
      </trkpt>
      <trkpt lat="51.708106007426977" lon="0.260117026045918">
        <ele>47</ele>
        <time>2018-02-14T08:26:14Z</time>
      </trkpt>
      <trkpt lat="51.708096032962203" lon="0.260146027430892">
        <ele>47</ele>
        <time>2018-02-14T08:26:15Z</time>
      </trkpt>
      <trkpt lat="51.708086980506778" lon="0.260177040472627">
        <ele>46.939994368072099</ele>
        <time>2018-02-14T08:26:16Z</time>
      </trkpt>
      <trkpt lat="51.708080023527145" lon="0.2602060418576">
        <ele>46</ele>
        <time>2018-02-14T08:26:17Z</time>
      </trkpt>
      <trkpt lat="51.708071976900101" lon="0.260238982737064">
        <ele>46</ele>
        <time>2018-02-14T08:26:18Z</time>
      </trkpt>
      <trkpt lat="51.708064014092088" lon="0.26027100160718">
        <ele>46</ele>
        <time>2018-02-14T08:26:19Z</time>
      </trkpt>
      <trkpt lat="51.708052027970552" lon="0.260303020477295">
        <ele>46</ele>
        <time>2018-02-14T08:26:20Z</time>
      </trkpt>
      <trkpt lat="51.708040963858366" lon="0.260332021862268">
        <ele>46</ele>
        <time>2018-02-14T08:26:21Z</time>
      </trkpt>
      <trkpt lat="51.708030989393592" lon="0.260362029075623">
        <ele>46</ele>
        <time>2018-02-14T08:26:22Z</time>
      </trkpt>
      <trkpt lat="51.708023026585579" lon="0.260393964126706">
        <ele>46</ele>
        <time>2018-02-14T08:26:23Z</time>
      </trkpt>
      <trkpt lat="51.708015985786915" lon="0.260425982996821">
        <ele>46.079208171748697</ele>
        <time>2018-02-14T08:26:24Z</time>
      </trkpt>
      <trkpt lat="51.708008022978902" lon="0.260458001866937">
        <ele>47</ele>
        <time>2018-02-14T08:26:25Z</time>
      </trkpt>
      <trkpt lat="51.707999976351857" lon="0.260489014908671">
        <ele>47</ele>
        <time>2018-02-14T08:26:26Z</time>
      </trkpt>
      <trkpt lat="51.707993019372225" lon="0.260517010465264">
        <ele>47</ele>
        <time>2018-02-14T08:26:27Z</time>
      </trkpt>
      <trkpt lat="51.707985978573561" lon="0.26054902933538">
        <ele>47</ele>
        <time>2018-02-14T08:26:28Z</time>
      </trkpt>
      <trkpt lat="51.70798103325069" lon="0.260579958558083">
        <ele>47</ele>
        <time>2018-02-14T08:26:29Z</time>
      </trkpt>
      <trkpt lat="51.707973992452025" lon="0.260609965771437">
        <ele>46.946151649714999</ele>
        <time>2018-02-14T08:26:30Z</time>
      </trkpt>
      <trkpt lat="51.707967035472393" lon="0.26063896715641">
        <ele>46.1769246674478</ele>
        <time>2018-02-14T08:26:31Z</time>
      </trkpt>
      <trkpt lat="51.707958988845348" lon="0.260668974369764">
        <ele>46</ele>
        <time>2018-02-14T08:26:32Z</time>
      </trkpt>
      <trkpt lat="51.707951026037335" lon="0.260698981583118">
        <ele>46</ele>
        <time>2018-02-14T08:26:33Z</time>
      </trkpt>
      <trkpt lat="51.707936022430658" lon="0.260754972696304">
        <ele>46</ele>
        <time>2018-02-14T08:26:35Z</time>
      </trkpt>
      <trkpt lat="51.707927975803614" lon="0.260785985738039">
        <ele>46</ele>
        <time>2018-02-14T08:26:36Z</time>
      </trkpt>
      <trkpt lat="51.707921018823981" lon="0.260814987123013">
        <ele>46.059994367927899</ele>
        <time>2018-02-14T08:26:37Z</time>
      </trkpt>
      <trkpt lat="51.707910960540175" lon="0.260844994336367">
        <ele>47</ele>
        <time>2018-02-14T08:26:38Z</time>
      </trkpt>
      <trkpt lat="51.707900986075401" lon="0.26087298989296">
        <ele>47</ele>
        <time>2018-02-14T08:26:39Z</time>
      </trkpt>
      <trkpt lat="51.707893023267388" lon="0.260898973792791">
        <ele>47</ele>
        <time>2018-02-14T08:26:40Z</time>
      </trkpt>
      <trkpt lat="51.707884976640344" lon="0.260928981006145">
        <ele>47</ele>
        <time>2018-02-14T08:26:41Z</time>
      </trkpt>
      <trkpt lat="51.70787600800395" lon="0.2609589882195">
        <ele>47</ele>
        <time>2018-02-14T08:26:42Z</time>
      </trkpt>
      <trkpt lat="51.707867039367557" lon="0.260988995432854">
        <ele>47</ele>
        <time>2018-02-14T08:26:43Z</time>
      </trkpt>
      <trkpt lat="51.707861004397273" lon="0.261017996817827">
        <ele>47</ele>
        <time>2018-02-14T08:26:44Z</time>
      </trkpt>
      <trkpt lat="51.70785496942699" lon="0.26104599237442">
        <ele>47</ele>
        <time>2018-02-14T08:26:45Z</time>
      </trkpt>
      <trkpt lat="51.707847006618977" lon="0.261074993759394">
        <ele>47</ele>
        <time>2018-02-14T08:26:46Z</time>
      </trkpt>
      <trkpt lat="51.707837032154202" lon="0.261102989315987">
        <ele>47</ele>
        <time>2018-02-14T08:26:47Z</time>
      </trkpt>
      <trkpt lat="51.707824962213635" lon="0.26113199070096">
        <ele>47</ele>
        <time>2018-02-14T08:26:48Z</time>
      </trkpt>
      <trkpt lat="51.707814987748861" lon="0.261159986257553">
        <ele>46.953493217967697</ele>
        <time>2018-02-14T08:26:49Z</time>
      </trkpt>
      <trkpt lat="51.707804007455707" lon="0.261187981814146">
        <ele>46.178297496551899</ele>
        <time>2018-02-14T08:26:50Z</time>
      </trkpt>
      <trkpt lat="51.707794032990932" lon="0.2612179890275">
        <ele>46</ele>
        <time>2018-02-14T08:26:51Z</time>
      </trkpt>
      <trkpt lat="51.707785986363888" lon="0.261244978755713">
        <ele>46</ele>
        <time>2018-02-14T08:26:52Z</time>
      </trkpt>
      <trkpt lat="51.707779029384255" lon="0.261272974312305">
        <ele>45.805558518518502</ele>
        <time>2018-02-14T08:26:53Z</time>
      </trkpt>
      <trkpt lat="51.707771988585591" lon="0.261301975697279">
        <ele>45</ele>
        <time>2018-02-14T08:26:54Z</time>
      </trkpt>
      <trkpt lat="51.707767965272069" lon="0.261332988739014">
        <ele>45</ele>
        <time>2018-02-14T08:26:55Z</time>
      </trkpt>
      <trkpt lat="51.707762014120817" lon="0.26136601343751">
        <ele>44.820004096052401</ele>
        <time>2018-02-14T08:26:56Z</time>
      </trkpt>
      <trkpt lat="51.707755979150534" lon="0.261397026479244">
        <ele>44</ele>
        <time>2018-02-14T08:26:57Z</time>
      </trkpt>
      <trkpt lat="51.707752039656043" lon="0.261430973187089">
        <ele>44.173467255296401</ele>
        <time>2018-02-14T08:26:58Z</time>
      </trkpt>
      <trkpt lat="51.707744998857379" lon="0.261466009542346">
        <ele>45</ele>
        <time>2018-02-14T08:26:59Z</time>
      </trkpt>
      <trkpt lat="51.707737036049366" lon="0.261498028412461">
        <ele>45</ele>
        <time>2018-02-14T08:27:00Z</time>
      </trkpt>
      <trkpt lat="51.70772597193718" lon="0.261529041454196">
        <ele>45</ele>
        <time>2018-02-14T08:27:01Z</time>
      </trkpt>
      <trkpt lat="51.707717003300786" lon="0.261558964848518">
        <ele>45</ele>
        <time>2018-02-14T08:27:02Z</time>
      </trkpt>
      <trkpt lat="51.707706023007631" lon="0.261587966233492">
        <ele>45</ele>
        <time>2018-02-14T08:27:03Z</time>
      </trkpt>
      <trkpt lat="51.707693031057715" lon="0.261616967618465">
        <ele>45</ele>
        <time>2018-02-14T08:27:04Z</time>
      </trkpt>
      <trkpt lat="51.70768297277391" lon="0.261643035337329">
        <ele>45</ele>
        <time>2018-02-14T08:27:05Z</time>
      </trkpt>
      <trkpt lat="51.707674004137516" lon="0.261671030893922">
        <ele>45</ele>
        <time>2018-02-14T08:27:06Z</time>
      </trkpt>
      <trkpt lat="51.707653971388936" lon="0.261707995086908">
        <ele>45</ele>
        <time>2018-02-14T08:27:08Z</time>
      </trkpt>
      <trkpt lat="51.707625975832343" lon="0.261720987036824">
        <ele>45</ele>
        <time>2018-02-14T08:27:10Z</time>
      </trkpt>
      <trkpt lat="51.707609966397285" lon="0.261735990643501">
        <ele>46</ele>
        <time>2018-02-14T08:27:12Z</time>
      </trkpt>
      <trkpt lat="51.707600997760892" lon="0.261769015341997">
        <ele>46</ele>
        <time>2018-02-14T08:27:15Z</time>
      </trkpt>
      <trkpt lat="51.707588005810976" lon="0.261793993413448">
        <ele>45</ele>
        <time>2018-02-14T08:27:17Z</time>
      </trkpt>
      <trkpt lat="51.707578031346202" lon="0.261824000626802">
        <ele>45</ele>
        <time>2018-02-14T08:27:19Z</time>
      </trkpt>
      <trkpt lat="51.707573002204299" lon="0.261857025325298">
        <ele>45</ele>
        <time>2018-02-14T08:27:21Z</time>
      </trkpt>
      <trkpt lat="51.707565039396286" lon="0.261889966204762">
        <ele>45</ele>
        <time>2018-02-14T08:27:24Z</time>
      </trkpt>
      <trkpt lat="51.70755498111248" lon="0.2619260083884">
        <ele>45</ele>
        <time>2018-02-14T08:27:27Z</time>
      </trkpt>
      <trkpt lat="51.707539977505803" lon="0.261958027258515">
        <ele>45</ele>
        <time>2018-02-14T08:27:30Z</time>
      </trkpt>
      <trkpt lat="51.707525979727507" lon="0.261994991451502">
        <ele>45</ele>
        <time>2018-02-14T08:27:33Z</time>
      </trkpt>
      <trkpt lat="51.707512987777591" lon="0.262038996443152">
        <ele>45</ele>
        <time>2018-02-14T08:27:35Z</time>
      </trkpt>
      <trkpt lat="51.707498989999294" lon="0.262088030576706">
        <ele>45.070003200000002</ele>
        <time>2018-02-14T08:27:37Z</time>
      </trkpt>
      <trkpt lat="51.707485998049378" lon="0.262144021689892">
        <ele>46</ele>
        <time>2018-02-14T08:27:39Z</time>
      </trkpt>
      <trkpt lat="51.707478035241365" lon="0.262178974226117">
        <ele>46</ele>
        <time>2018-02-14T08:27:40Z</time>
      </trkpt>
      <trkpt lat="51.707466971129179" lon="0.262213004752994">
        <ele>46</ele>
        <time>2018-02-14T08:27:41Z</time>
      </trkpt>
      <trkpt lat="51.707455990836024" lon="0.262243011966348">
        <ele>46</ele>
        <time>2018-02-14T08:27:42Z</time>
      </trkpt>
      <trkpt lat="51.707444004714489" lon="0.262272013351321">
        <ele>46</ele>
        <time>2018-02-14T08:27:43Z</time>
      </trkpt>
      <trkpt lat="51.707429001107812" lon="0.262296991422772">
        <ele>46</ele>
        <time>2018-02-14T08:27:44Z</time>
      </trkpt>
      <trkpt lat="51.707412991672754" lon="0.262316018342972">
        <ele>46</ele>
        <time>2018-02-14T08:27:45Z</time>
      </trkpt>
      <trkpt lat="51.707396982237697" lon="0.262331021949649">
        <ele>46</ele>
        <time>2018-02-14T08:27:46Z</time>
      </trkpt>
      <trkpt lat="51.707380972802639" lon="0.262346025556326">
        <ele>46</ele>
        <time>2018-02-14T08:27:47Z</time>
      </trkpt>
      <trkpt lat="51.707350965589285" lon="0.26237896643579">
        <ele>46</ele>
        <time>2018-02-14T08:27:49Z</time>
      </trkpt>
      <trkpt lat="51.707321964204311" lon="0.262409979477525">
        <ele>46.188120192124899</ele>
        <time>2018-02-14T08:27:51Z</time>
      </trkpt>
      <trkpt lat="51.707297991961241" lon="0.262437975034118">
        <ele>47.180004095947602</ele>
        <time>2018-02-14T08:27:53Z</time>
      </trkpt>
      <trkpt lat="51.707280976697803" lon="0.262473011389375">
        <ele>48</ele>
        <time>2018-02-14T08:27:55Z</time>
      </trkpt>
      <trkpt lat="51.707279970869422" lon="0.262510981410742">
        <ele>48</ele>
        <time>2018-02-14T08:27:57Z</time>
      </trkpt>
      <trkpt lat="51.707290029153228" lon="0.262545011937618">
        <ele>48</ele>
        <time>2018-02-14T08:27:59Z</time>
      </trkpt>
      <trkpt lat="51.707294974476099" lon="0.262582981958985">
        <ele>48</ele>
        <time>2018-02-14T08:28:01Z</time>
      </trkpt>
      <trkpt lat="51.707300003618002" lon="0.262622041627765">
        <ele>49</ele>
        <time>2018-02-14T08:28:03Z</time>
      </trkpt>
      <trkpt lat="51.707309978082776" lon="0.262662023305893">
        <ele>49</ele>
        <time>2018-02-14T08:28:05Z</time>
      </trkpt>
      <trkpt lat="51.707320958375931" lon="0.262702004984021">
        <ele>49</ele>
        <time>2018-02-14T08:28:07Z</time>
      </trkpt>
      <trkpt lat="51.707332022488117" lon="0.26274299249053">
        <ele>49</ele>
        <time>2018-02-14T08:28:09Z</time>
      </trkpt>
      <trkpt lat="51.70733897946775" lon="0.262799989432096">
        <ele>49</ele>
        <time>2018-02-14T08:28:11Z</time>
      </trkpt>
      <trkpt lat="51.707343002781272" lon="0.262833014130592">
        <ele>49</ele>
        <time>2018-02-14T08:28:12Z</time>
      </trkpt>
      <trkpt lat="51.707349037751555" lon="0.262863021343946">
        <ele>49</ele>
        <time>2018-02-14T08:28:13Z</time>
      </trkpt>
      <trkpt lat="51.707353983074427" lon="0.262898979708552">
        <ele>49</ele>
        <time>2018-02-14T08:28:14Z</time>
      </trkpt>
      <trkpt lat="51.70735901221633" lon="0.262933010235429">
        <ele>49</ele>
        <time>2018-02-14T08:28:15Z</time>
      </trkpt>
      <trkpt lat="51.707364041358232" lon="0.262963017448783">
        <ele>49</ele>
        <time>2018-02-14T08:28:16Z</time>
      </trkpt>
      <trkpt lat="51.707366975024343" lon="0.262997969985008">
        <ele>49</ele>
        <time>2018-02-14T08:28:17Z</time>
      </trkpt>
      <trkpt lat="51.707366975024343" lon="0.263033006340265">
        <ele>49</ele>
        <time>2018-02-14T08:28:18Z</time>
      </trkpt>
      <trkpt lat="51.707369992509484" lon="0.263067036867142">
        <ele>49</ele>
        <time>2018-02-14T08:28:19Z</time>
      </trkpt>
      <trkpt lat="51.707374015823007" lon="0.263100983574986">
        <ele>49</ele>
        <time>2018-02-14T08:28:20Z</time>
      </trkpt>
      <trkpt lat="51.707378039136529" lon="0.263139959424734">
        <ele>49</ele>
        <time>2018-02-14T08:28:21Z</time>
      </trkpt>
      <trkpt lat="51.707380972802639" lon="0.263180024921894">
        <ele>49.0736873307374</ele>
        <time>2018-02-14T08:28:22Z</time>
      </trkpt>
      <trkpt lat="51.707386001944542" lon="0.263220006600022">
        <ele>50</ele>
        <time>2018-02-14T08:28:23Z</time>
      </trkpt>
      <trkpt lat="51.707391031086445" lon="0.26325898244977">
        <ele>50</ele>
        <time>2018-02-14T08:28:24Z</time>
      </trkpt>
      <trkpt lat="51.707395976409316" lon="0.263294018805027">
        <ele>50</ele>
        <time>2018-02-14T08:28:25Z</time>
      </trkpt>
      <trkpt lat="51.707404023036361" lon="0.263329977169633">
        <ele>49</ele>
        <time>2018-02-14T08:28:26Z</time>
      </trkpt>
      <trkpt lat="51.707407040521502" lon="0.263368031010032">
        <ele>49</ele>
        <time>2018-02-14T08:28:27Z</time>
      </trkpt>
      <trkpt lat="51.707412991672754" lon="0.263398960232735">
        <ele>49</ele>
        <time>2018-02-14T08:28:28Z</time>
      </trkpt>
      <trkpt lat="51.707420032471418" lon="0.263429973274469">
        <ele>48.838384360777802</ele>
        <time>2018-02-14T08:28:29Z</time>
      </trkpt>
      <trkpt lat="51.70742598362267" lon="0.2634940110147">
        <ele>48</ele>
        <time>2018-02-14T08:28:31Z</time>
      </trkpt>
      <trkpt lat="51.707435036078095" lon="0.263528963550925">
        <ele>48</ele>
        <time>2018-02-14T08:28:32Z</time>
      </trkpt>
      <trkpt lat="51.70744601637125" lon="0.263561988249421">
        <ele>48</ele>
        <time>2018-02-14T08:28:33Z</time>
      </trkpt>
      <trkpt lat="51.707455990836024" lon="0.263594007119536">
        <ele>48</ele>
        <time>2018-02-14T08:28:34Z</time>
      </trkpt>
      <trkpt lat="51.707463031634688" lon="0.263622002676129">
        <ele>48</ele>
        <time>2018-02-14T08:28:35Z</time>
      </trkpt>
      <trkpt lat="51.70746898278594" lon="0.263655027374625">
        <ele>48</ele>
        <time>2018-02-14T08:28:36Z</time>
      </trkpt>
      <trkpt lat="51.707476023584604" lon="0.263689979910851">
        <ele>48</ele>
        <time>2018-02-14T08:28:37Z</time>
      </trkpt>
      <trkpt lat="51.707483986392617" lon="0.263725016266108">
        <ele>48</ele>
        <time>2018-02-14T08:28:38Z</time>
      </trkpt>
      <trkpt lat="51.707490021362901" lon="0.263759968802333">
        <ele>48</ele>
        <time>2018-02-14T08:28:39Z</time>
      </trkpt>
      <trkpt lat="51.707498989999294" lon="0.263793999329209">
        <ele>48</ele>
        <time>2018-02-14T08:28:40Z</time>
      </trkpt>
      <trkpt lat="51.707508964464068" lon="0.263825012370944">
        <ele>48</ele>
        <time>2018-02-14T08:28:41Z</time>
      </trkpt>
      <trkpt lat="51.707517011091113" lon="0.263853007927537">
        <ele>48</ele>
        <time>2018-02-14T08:28:42Z</time>
      </trkpt>
      <trkpt lat="51.707526985555887" lon="0.263879997655749">
        <ele>48</ele>
        <time>2018-02-14T08:28:43Z</time>
      </trkpt>
      <trkpt lat="51.707536960020661" lon="0.263910004869103">
        <ele>48</ele>
        <time>2018-02-14T08:28:44Z</time>
      </trkpt>
      <trkpt lat="51.707546012476087" lon="0.263939006254077">
        <ele>48</ele>
        <time>2018-02-14T08:28:45Z</time>
      </trkpt>
      <trkpt lat="51.707555986940861" lon="0.263970019295812">
        <ele>48</ele>
        <time>2018-02-14T08:28:46Z</time>
      </trkpt>
      <trkpt lat="51.707566967234015" lon="0.264000026509166">
        <ele>48</ele>
        <time>2018-02-14T08:28:47Z</time>
      </trkpt>
      <trkpt lat="51.707578031346202" lon="0.26403296738863">
        <ele>48</ele>
        <time>2018-02-14T08:28:48Z</time>
      </trkpt>
      <trkpt lat="51.707588005810976" lon="0.264062974601984">
        <ele>48</ele>
        <time>2018-02-14T08:28:49Z</time>
      </trkpt>
      <trkpt lat="51.70759798027575" lon="0.264092981815338">
        <ele>48</ele>
        <time>2018-02-14T08:28:50Z</time>
      </trkpt>
      <trkpt lat="51.707608038559556" lon="0.264121983200312">
        <ele>48</ele>
        <time>2018-02-14T08:28:51Z</time>
      </trkpt>
      <trkpt lat="51.707624970003963" lon="0.264164982363582">
        <ele>48</ele>
        <time>2018-02-14T08:28:53Z</time>
      </trkpt>
      <trkpt lat="51.707626981660724" lon="0.264193983748555">
        <ele>48</ele>
        <time>2018-02-14T08:28:56Z</time>
      </trkpt>
      <trkpt lat="51.707637961953878" lon="0.264217033982277">
        <ele>48</ele>
        <time>2018-02-14T08:28:58Z</time>
      </trkpt>
      <trkpt lat="51.707656988874078" lon="0.264252992346883">
        <ele>48</ele>
        <time>2018-02-14T08:29:00Z</time>
      </trkpt>
      <trkpt lat="51.707668974995613" lon="0.264276964589953">
        <ele>48</ele>
        <time>2018-02-14T08:29:01Z</time>
      </trkpt>
      <trkpt lat="51.707679033279419" lon="0.264302026480436">
        <ele>48</ele>
        <time>2018-02-14T08:29:02Z</time>
      </trkpt>
      <trkpt lat="51.707693031057715" lon="0.264330022037029">
        <ele>48</ele>
        <time>2018-02-14T08:29:03Z</time>
      </trkpt>
      <trkpt lat="51.707708034664392" lon="0.264359023422003">
        <ele>48</ele>
        <time>2018-02-14T08:29:04Z</time>
      </trkpt>
      <trkpt lat="51.70772303827107" lon="0.264389030635357">
        <ele>48</ele>
        <time>2018-02-14T08:29:05Z</time>
      </trkpt>
      <trkpt lat="51.707739969715476" lon="0.264419037848711">
        <ele>48</ele>
        <time>2018-02-14T08:29:06Z</time>
      </trkpt>
      <trkpt lat="51.707754973322153" lon="0.264448039233685">
        <ele>48</ele>
        <time>2018-02-14T08:29:07Z</time>
      </trkpt>
      <trkpt lat="51.70776897110045" lon="0.264476034790277">
        <ele>48</ele>
        <time>2018-02-14T08:29:08Z</time>
      </trkpt>
      <trkpt lat="51.707784980535507" lon="0.264515010640025">
        <ele>48</ele>
        <time>2018-02-14T08:29:10Z</time>
      </trkpt>
      <trkpt lat="51.707795038819313" lon="0.264545017853379">
        <ele>48</ele>
        <time>2018-02-14T08:29:12Z</time>
      </trkpt>
      <trkpt lat="51.707807024940848" lon="0.26456999592483">
        <ele>48</ele>
        <time>2018-02-14T08:29:14Z</time>
      </trkpt>
      <trkpt lat="51.707822028547525" lon="0.264603020623326">
        <ele>48</ele>
        <time>2018-02-14T08:29:16Z</time>
      </trkpt>
      <trkpt lat="51.707834014669061" lon="0.26463596150279">
        <ele>48</ele>
        <time>2018-02-14T08:29:18Z</time>
      </trkpt>
      <trkpt lat="51.707847006618977" lon="0.264663035050035">
        <ele>48</ele>
        <time>2018-02-14T08:29:20Z</time>
      </trkpt>
      <trkpt lat="51.707863016054034" lon="0.264690024778247">
        <ele>48</ele>
        <time>2018-02-14T08:29:22Z</time>
      </trkpt>
      <trkpt lat="51.70787600800395" lon="0.26471902616322">
        <ele>48</ele>
        <time>2018-02-14T08:29:24Z</time>
      </trkpt>
      <trkpt lat="51.707890005782247" lon="0.264750961214304">
        <ele>48</ele>
        <time>2018-02-14T08:29:26Z</time>
      </trkpt>
      <trkpt lat="51.707904003560543" lon="0.264781974256039">
        <ele>48</ele>
        <time>2018-02-14T08:29:28Z</time>
      </trkpt>
      <trkpt lat="51.707924036309123" lon="0.264822961762547">
        <ele>48</ele>
        <time>2018-02-14T08:29:30Z</time>
      </trkpt>
      <trkpt lat="51.707936022430658" lon="0.26484802365303">
        <ele>48</ele>
        <time>2018-02-14T08:29:31Z</time>
      </trkpt>
      <trkpt lat="51.707948008552194" lon="0.26487099006772">
        <ele>48</ele>
        <time>2018-02-14T08:29:32Z</time>
      </trkpt>
      <trkpt lat="51.707958988845348" lon="0.264895968139172">
        <ele>48</ele>
        <time>2018-02-14T08:29:33Z</time>
      </trkpt>
      <trkpt lat="51.707969969138503" lon="0.264922035858035">
        <ele>48</ele>
        <time>2018-02-14T08:29:34Z</time>
      </trkpt>
      <trkpt lat="51.70798103325069" lon="0.264951037243009">
        <ele>48</ele>
        <time>2018-02-14T08:29:35Z</time>
      </trkpt>
      <trkpt lat="51.707993019372225" lon="0.264984983950853">
        <ele>48</ele>
        <time>2018-02-14T08:29:36Z</time>
      </trkpt>
      <trkpt lat="51.707999976351857" lon="0.26501901447773">
        <ele>48</ele>
        <time>2018-02-14T08:29:37Z</time>
      </trkpt>
      <trkpt lat="51.708008022978902" lon="0.265054972842336">
        <ele>48</ele>
        <time>2018-02-14T08:29:38Z</time>
      </trkpt>
      <trkpt lat="51.708010034635663" lon="0.265091015025973">
        <ele>48</ele>
        <time>2018-02-14T08:29:39Z</time>
      </trkpt>
      <trkpt lat="51.708013974130154" lon="0.265129990875721">
        <ele>48</ele>
        <time>2018-02-14T08:29:40Z</time>
      </trkpt>
      <trkpt lat="51.708019003272057" lon="0.265167038887739">
        <ele>48</ele>
        <time>2018-02-14T08:29:41Z</time>
      </trkpt>
      <trkpt lat="51.708022020757198" lon="0.265204003080726">
        <ele>48</ele>
        <time>2018-02-14T08:29:42Z</time>
      </trkpt>
      <trkpt lat="51.70802696608007" lon="0.265240967273712">
        <ele>48</ele>
        <time>2018-02-14T08:29:43Z</time>
      </trkpt>
      <trkpt lat="51.70802503824234" lon="0.265270974487066">
        <ele>48</ele>
        <time>2018-02-14T08:29:44Z</time>
      </trkpt>
      <trkpt lat="51.708016991615295" lon="0.265296958386898">
        <ele>48</ele>
        <time>2018-02-14T08:29:45Z</time>
      </trkpt>
      <trkpt lat="51.708001988008618" lon="0.265319002792239">
        <ele>48</ele>
        <time>2018-02-14T08:29:46Z</time>
      </trkpt>
      <trkpt lat="51.707971980795264" lon="0.265322020277381">
        <ele>48</ele>
        <time>2018-02-14T08:29:49Z</time>
      </trkpt>
      <trkpt lat="51.707944991067052" lon="0.265327971428633">
        <ele>48</ele>
        <time>2018-02-14T08:29:50Z</time>
      </trkpt>
      <trkpt lat="51.70791800133884" lon="0.265331994742155">
        <ele>48</ele>
        <time>2018-02-14T08:29:51Z</time>
      </trkpt>
      <trkpt lat="51.707893023267388" lon="0.2653400413692">
        <ele>48.070003200000002</ele>
        <time>2018-02-14T08:29:52Z</time>
      </trkpt>
      <trkpt lat="51.707867039367557" lon="0.265349010005593">
        <ele>49</ele>
        <time>2018-02-14T08:29:53Z</time>
      </trkpt>
      <trkpt lat="51.707841977477074" lon="0.265359990298748">
        <ele>49</ele>
        <time>2018-02-14T08:29:54Z</time>
      </trkpt>
      <trkpt lat="51.707816999405622" lon="0.265370970591903">
        <ele>49</ele>
        <time>2018-02-14T08:29:55Z</time>
      </trkpt>
      <trkpt lat="51.707793027162552" lon="0.265380023047328">
        <ele>49</ele>
        <time>2018-02-14T08:29:56Z</time>
      </trkpt>
      <trkpt lat="51.70776997692883" lon="0.265388991683722">
        <ele>49</ele>
        <time>2018-02-14T08:29:57Z</time>
      </trkpt>
      <trkpt lat="51.70774600468576" lon="0.265398966148496">
        <ele>49</ele>
        <time>2018-02-14T08:29:58Z</time>
      </trkpt>
      <trkpt lat="51.70772303827107" lon="0.265408018603921">
        <ele>49.0697651343011</ele>
        <time>2018-02-14T08:29:59Z</time>
      </trkpt>
      <trkpt lat="51.707696970552206" lon="0.265424028038979">
        <ele>49.844960855716799</ele>
        <time>2018-02-14T08:30:00Z</time>
      </trkpt>
      <trkpt lat="51.707650031894445" lon="0.265437019988894">
        <ele>50</ele>
        <time>2018-02-14T08:30:02Z</time>
      </trkpt>
      <trkpt lat="51.707625975832343" lon="0.265440037474036">
        <ele>50.089996800000002</ele>
        <time>2018-02-14T08:30:03Z</time>
      </trkpt>
      <trkpt lat="51.707604015246034" lon="0.265438025817275">
        <ele>51</ele>
        <time>2018-02-14T08:30:04Z</time>
      </trkpt>
      <trkpt lat="51.707583982497454" lon="0.265436014160514">
        <ele>51.089996800000002</ele>
        <time>2018-02-14T08:30:05Z</time>
      </trkpt>
      <trkpt lat="51.707563027739525" lon="0.265440959483385">
        <ele>52</ele>
        <time>2018-02-14T08:30:06Z</time>
      </trkpt>
      <trkpt lat="51.707545006647706" lon="0.265440959483385">
        <ele>52</ele>
        <time>2018-02-14T08:30:07Z</time>
      </trkpt>
      <trkpt lat="51.707516005262733" lon="0.26545001193881">
        <ele>52</ele>
        <time>2018-02-14T08:30:09Z</time>
      </trkpt>
      <trkpt lat="51.707490021362901" lon="0.265454035252333">
        <ele>52</ele>
        <time>2018-02-14T08:30:11Z</time>
      </trkpt>
      <trkpt lat="51.707477029412985" lon="0.265482030808926">
        <ele>51</ele>
        <time>2018-02-14T08:30:15Z</time>
      </trkpt>
      <trkpt lat="51.707474011927843" lon="0.265511032193899">
        <ele>51</ele>
        <time>2018-02-14T08:30:16Z</time>
      </trkpt>
      <trkpt lat="51.707469988614321" lon="0.265541961416602">
        <ele>51</ele>
        <time>2018-02-14T08:30:17Z</time>
      </trkpt>
      <trkpt lat="51.707465965300798" lon="0.265581021085382">
        <ele>51</ele>
        <time>2018-02-14T08:30:19Z</time>
      </trkpt>
      <trkpt lat="51.70746797695756" lon="0.265615973621607">
        <ele>51</ele>
        <time>2018-02-14T08:30:23Z</time>
      </trkpt>
      <trkpt lat="51.707464037463069" lon="0.265656961128116">
        <ele>52</ele>
        <time>2018-02-14T08:30:27Z</time>
      </trkpt>
      <trkpt lat="51.707455990836024" lon="0.265683028846979">
        <ele>52</ele>
        <time>2018-02-14T08:30:29Z</time>
      </trkpt>
      <trkpt lat="51.707432018592954" lon="0.265699960291386">
        <ele>52.209996799999999</ele>
        <time>2018-02-14T08:30:32Z</time>
      </trkpt>
      <trkpt lat="51.707415003329515" lon="0.265700966119766">
        <ele>53</ele>
        <time>2018-02-14T08:30:34Z</time>
      </trkpt>
      <trkpt lat="51.707392036914825" lon="0.26568696834147">
        <ele>52</ele>
        <time>2018-02-14T08:30:52Z</time>
      </trkpt>
      <trkpt lat="51.707364963367581" lon="0.265670036897063">
        <ele>52</ele>
        <time>2018-02-14T08:30:54Z</time>
      </trkpt>
      <trkpt lat="51.707327999174595" lon="0.265639023855329">
        <ele>52</ele>
        <time>2018-02-14T08:30:56Z</time>
      </trkpt>
      <trkpt lat="51.707306038588285" lon="0.26562200859189">
        <ele>52</ele>
        <time>2018-02-14T08:30:57Z</time>
      </trkpt>
      <trkpt lat="51.707285000011325" lon="0.265605999156833">
        <ele>54</ele>
        <time>2018-02-14T08:30:58Z</time>
      </trkpt>
      <trkpt lat="51.707262033596635" lon="0.265595018863678">
        <ele>54</ele>
        <time>2018-02-14T08:30:59Z</time>
      </trkpt>
      <trkpt lat="51.707239989191294" lon="0.265585966408253">
        <ele>54</ele>
        <time>2018-02-14T08:31:00Z</time>
      </trkpt>
      <trkpt lat="51.707219034433365" lon="0.265575991943479">
        <ele>54</ele>
        <time>2018-02-14T08:31:01Z</time>
      </trkpt>
      <trkpt lat="51.707200007513165" lon="0.265560988336802">
        <ele>54</ele>
        <time>2018-02-14T08:31:02Z</time>
      </trkpt>
      <trkpt lat="51.707181986421347" lon="0.265551013872027">
        <ele>53.821777535579898</ele>
        <time>2018-02-14T08:31:03Z</time>
      </trkpt>
      <trkpt lat="51.707162959501147" lon="0.265540033578873">
        <ele>53</ele>
        <time>2018-02-14T08:31:04Z</time>
      </trkpt>
      <trkpt lat="51.707146028056741" lon="0.265526035800576">
        <ele>53</ele>
        <time>2018-02-14T08:31:05Z</time>
      </trkpt>
      <trkpt lat="51.707128006964922" lon="0.265516983345151">
        <ele>53</ele>
        <time>2018-02-14T08:31:06Z</time>
      </trkpt>
      <trkpt lat="51.70710101723671" lon="0.265500973910093">
        <ele>53</ele>
        <time>2018-02-14T08:31:08Z</time>
      </trkpt>
      <trkpt lat="51.707082996144891" lon="0.265488987788558">
        <ele>53</ele>
        <time>2018-02-14T08:31:10Z</time>
      </trkpt>
      <trkpt lat="51.707062963396311" lon="0.2654729783535">
        <ele>53</ele>
        <time>2018-02-14T08:31:22Z</time>
      </trkpt>
      <trkpt lat="51.707046031951904" lon="0.265455041080713">
        <ele>52</ele>
        <time>2018-02-14T08:31:24Z</time>
      </trkpt>
      <trkpt lat="51.707028010860085" lon="0.265440037474036">
        <ele>52</ele>
        <time>2018-02-14T08:31:26Z</time>
      </trkpt>
      <trkpt lat="51.707006972283125" lon="0.265420004725456">
        <ele>52</ele>
        <time>2018-02-14T08:31:28Z</time>
      </trkpt>
      <trkpt lat="51.706984005868435" lon="0.265398966148496">
        <ele>53</ele>
        <time>2018-02-14T08:31:30Z</time>
      </trkpt>
      <trkpt lat="51.706957016140223" lon="0.265377005562186">
        <ele>53</ele>
        <time>2018-02-14T08:31:32Z</time>
      </trkpt>
      <trkpt lat="51.706937989220023" lon="0.265360996127129">
        <ele>53</ele>
        <time>2018-02-14T08:31:33Z</time>
      </trkpt>
      <trkpt lat="51.706919968128204" lon="0.265339035540819">
        <ele>53</ele>
        <time>2018-02-14T08:31:34Z</time>
      </trkpt>
      <trkpt lat="51.706902030855417" lon="0.265317996963859">
        <ele>53</ele>
        <time>2018-02-14T08:31:35Z</time>
      </trkpt>
      <trkpt lat="51.706883003935218" lon="0.265295030549169">
        <ele>53</ele>
        <time>2018-02-14T08:31:36Z</time>
      </trkpt>
      <trkpt lat="51.706863977015018" lon="0.265276003628969">
        <ele>53</ele>
        <time>2018-02-14T08:31:37Z</time>
      </trkpt>
      <trkpt lat="51.706845033913851" lon="0.265261000022292">
        <ele>53</ele>
        <time>2018-02-14T08:31:38Z</time>
      </trkpt>
      <trkpt lat="51.706826006993651" lon="0.265242978930473">
        <ele>53.159999999999997</ele>
        <time>2018-02-14T08:31:39Z</time>
      </trkpt>
      <trkpt lat="51.706808991730213" lon="0.265225041657686">
        <ele>54</ele>
        <time>2018-02-14T08:31:40Z</time>
      </trkpt>
      <trkpt lat="51.706789964810014" lon="0.265207020565867">
        <ele>54</ele>
        <time>2018-02-14T08:31:41Z</time>
      </trkpt>
      <trkpt lat="51.706772027537227" lon="0.265186987817287">
        <ele>54</ele>
        <time>2018-02-14T08:31:42Z</time>
      </trkpt>
      <trkpt lat="51.706756018102169" lon="0.265167960897088">
        <ele>54</ele>
        <time>2018-02-14T08:31:43Z</time>
      </trkpt>
      <trkpt lat="51.706739002838731" lon="0.265150023624301">
        <ele>54</ele>
        <time>2018-02-14T08:31:44Z</time>
      </trkpt>
      <trkpt lat="51.706721987575293" lon="0.265132002532482">
        <ele>54</ele>
        <time>2018-02-14T08:31:45Z</time>
      </trkpt>
      <trkpt lat="51.706705978140235" lon="0.265115993097425">
        <ele>54</ele>
        <time>2018-02-14T08:31:46Z</time>
      </trkpt>
      <trkpt lat="51.706688962876797" lon="0.265096966177225">
        <ele>54</ele>
        <time>2018-02-14T08:31:47Z</time>
      </trkpt>
      <trkpt lat="51.70667102560401" lon="0.265081962570548">
        <ele>54</ele>
        <time>2018-02-14T08:31:48Z</time>
      </trkpt>
      <trkpt lat="51.706654010340571" lon="0.265068970620632">
        <ele>54</ele>
        <time>2018-02-14T08:31:49Z</time>
      </trkpt>
      <trkpt lat="51.706635989248753" lon="0.265052039176226">
        <ele>54</ele>
        <time>2018-02-14T08:31:50Z</time>
      </trkpt>
      <trkpt lat="51.706619979813695" lon="0.265038041397929">
        <ele>54</ele>
        <time>2018-02-14T08:31:51Z</time>
      </trkpt>
      <trkpt lat="51.706601958721876" lon="0.26502002030611">
        <ele>54</ele>
        <time>2018-02-14T08:31:52Z</time>
      </trkpt>
      <trkpt lat="51.70658502727747" lon="0.26499898172915">
        <ele>54</ele>
        <time>2018-02-14T08:31:53Z</time>
      </trkpt>
      <trkpt lat="51.706567006185651" lon="0.264985989779234">
        <ele>54</ele>
        <time>2018-02-14T08:31:54Z</time>
      </trkpt>
      <trkpt lat="51.706548985093832" lon="0.264970986172557">
        <ele>54</ele>
        <time>2018-02-14T08:31:55Z</time>
      </trkpt>
      <trkpt lat="51.706530964002013" lon="0.264957994222641">
        <ele>54</ele>
        <time>2018-02-14T08:31:56Z</time>
      </trkpt>
      <trkpt lat="51.706513026729226" lon="0.264946008101106">
        <ele>54</ele>
        <time>2018-02-14T08:31:57Z</time>
      </trkpt>
      <trkpt lat="51.706493999809027" lon="0.264931004494429">
        <ele>54</ele>
        <time>2018-02-14T08:31:58Z</time>
      </trkpt>
      <trkpt lat="51.706475978717208" lon="0.264923041686416">
        <ele>54.1717133843608</ele>
        <time>2018-02-14T08:31:59Z</time>
      </trkpt>
      <trkpt lat="51.70645703561604" lon="0.26491398923099">
        <ele>55</ele>
        <time>2018-02-14T08:32:00Z</time>
      </trkpt>
      <trkpt lat="51.706438008695841" lon="0.264906026422977">
        <ele>55</ele>
        <time>2018-02-14T08:32:01Z</time>
      </trkpt>
      <trkpt lat="51.706420993432403" lon="0.264897979795933">
        <ele>55</ele>
        <time>2018-02-14T08:32:02Z</time>
      </trkpt>
      <trkpt lat="51.706401966512203" lon="0.26489001698792">
        <ele>55</ele>
        <time>2018-02-14T08:32:03Z</time>
      </trkpt>
      <trkpt lat="51.706384029239416" lon="0.264883982017636">
        <ele>55</ele>
        <time>2018-02-14T08:32:04Z</time>
      </trkpt>
      <trkpt lat="51.706346981227398" lon="0.26486998423934">
        <ele>55</ele>
        <time>2018-02-14T08:32:06Z</time>
      </trkpt>
      <trkpt lat="51.70632703229785" lon="0.264863027259707">
        <ele>55</ele>
        <time>2018-02-14T08:32:07Z</time>
      </trkpt>
      <trkpt lat="51.706290990114212" lon="0.264854980632663">
        <ele>55</ele>
        <time>2018-02-14T08:32:09Z</time>
      </trkpt>
      <trkpt lat="51.706271963194013" lon="0.264852968975902">
        <ele>55</ele>
        <time>2018-02-14T08:32:10Z</time>
      </trkpt>
      <trkpt lat="51.706236004829407" lon="0.264849029481411">
        <ele>55</ele>
        <time>2018-02-14T08:32:12Z</time>
      </trkpt>
      <trkpt lat="51.706217983737588" lon="0.264841988682747">
        <ele>55</ele>
        <time>2018-02-14T08:32:13Z</time>
      </trkpt>
      <trkpt lat="51.706183031201363" lon="0.264822961762547">
        <ele>56</ele>
        <time>2018-02-14T08:32:15Z</time>
      </trkpt>
      <trkpt lat="51.706161992624402" lon="0.264818016439676">
        <ele>56</ele>
        <time>2018-02-14T08:32:16Z</time>
      </trkpt>
      <trkpt lat="51.706143971532583" lon="0.264816004782915">
        <ele>56</ele>
        <time>2018-02-14T08:32:17Z</time>
      </trkpt>
      <trkpt lat="51.706123016774654" lon="0.264816004782915">
        <ele>56</ele>
        <time>2018-02-14T08:32:18Z</time>
      </trkpt>
      <trkpt lat="51.706103989854455" lon="0.264809969812632">
        <ele>56</ele>
        <time>2018-02-14T08:32:19Z</time>
      </trkpt>
      <trkpt lat="51.70606903731823" lon="0.264795972034335">
        <ele>56</ele>
        <time>2018-02-14T08:32:21Z</time>
      </trkpt>
      <trkpt lat="51.706051016226411" lon="0.264790020883083">
        <ele>56</ele>
        <time>2018-02-14T08:32:22Z</time>
      </trkpt>
      <trkpt lat="51.706015979871154" lon="0.264779962599278">
        <ele>56</ele>
        <time>2018-02-14T08:32:24Z</time>
      </trkpt>
      <trkpt lat="51.705997958779335" lon="0.264771999791265">
        <ele>56</ele>
        <time>2018-02-14T08:32:25Z</time>
      </trkpt>
      <trkpt lat="51.70596300624311" lon="0.264764036983252">
        <ele>56</ele>
        <time>2018-02-14T08:32:27Z</time>
      </trkpt>
      <trkpt lat="51.70594297349453" lon="0.264758002012968">
        <ele>56</ele>
        <time>2018-02-14T08:32:28Z</time>
      </trkpt>
      <trkpt lat="51.705909026786685" lon="0.264751967042685">
        <ele>56</ele>
        <time>2018-02-14T08:32:30Z</time>
      </trkpt>
      <trkpt lat="51.705888994038105" lon="0.264751967042685">
        <ele>56</ele>
        <time>2018-02-14T08:32:31Z</time>
      </trkpt>
      <trkpt lat="51.70585404150188" lon="0.264738975092769">
        <ele>56</ele>
        <time>2018-02-14T08:32:33Z</time>
      </trkpt>
      <trkpt lat="51.705822022631764" lon="0.264730006456375">
        <ele>56</ele>
        <time>2018-02-14T08:32:35Z</time>
      </trkpt>
      <trkpt lat="51.705802995711565" lon="0.264725983142853">
        <ele>56</ele>
        <time>2018-02-14T08:32:36Z</time>
      </trkpt>
      <trkpt lat="51.705782962962985" lon="0.264725983142853">
        <ele>56</ele>
        <time>2018-02-14T08:32:37Z</time>
      </trkpt>
      <trkpt lat="51.705745998769999" lon="0.26471802033484">
        <ele>56</ele>
        <time>2018-02-14T08:32:39Z</time>
      </trkpt>
      <trkpt lat="51.705726971849799" lon="0.26471802033484">
        <ele>56</ele>
        <time>2018-02-14T08:32:40Z</time>
      </trkpt>
      <trkpt lat="51.705693025141954" lon="0.264713997021317">
        <ele>56</ele>
        <time>2018-02-14T08:32:42Z</time>
      </trkpt>
      <trkpt lat="51.705660000443459" lon="0.264711985364556">
        <ele>56</ele>
        <time>2018-02-14T08:32:44Z</time>
      </trkpt>
      <trkpt lat="51.705626975744963" lon="0.264706034213305">
        <ele>56</ele>
        <time>2018-02-14T08:32:46Z</time>
      </trkpt>
      <trkpt lat="51.705594034865499" lon="0.26469798758626">
        <ele>56.169302714622503</ele>
        <time>2018-02-14T08:32:48Z</time>
      </trkpt>
      <trkpt lat="51.705558998510242" lon="0.264691030606627">
        <ele>57</ele>
        <time>2018-02-14T08:32:50Z</time>
      </trkpt>
      <trkpt lat="51.705523962154984" lon="0.264678038656712">
        <ele>57</ele>
        <time>2018-02-14T08:32:52Z</time>
      </trkpt>
      <trkpt lat="51.705494038760662" lon="0.264653982594609">
        <ele>57.060005631927901</ele>
        <time>2018-02-14T08:32:54Z</time>
      </trkpt>
      <trkpt lat="51.705478029325604" lon="0.264637973159552">
        <ele>58</ele>
        <time>2018-02-14T08:32:55Z</time>
      </trkpt>
      <trkpt lat="51.705461014062166" lon="0.264629004523158">
        <ele>58</ele>
        <time>2018-02-14T08:32:56Z</time>
      </trkpt>
      <trkpt lat="51.705430001020432" lon="0.264616012573242">
        <ele>58</ele>
        <time>2018-02-14T08:32:58Z</time>
      </trkpt>
      <trkpt lat="51.705396976321936" lon="0.26461198925972">
        <ele>58</ele>
        <time>2018-02-14T08:33:00Z</time>
      </trkpt>
      <trkpt lat="51.705365963280201" lon="0.264604026451707">
        <ele>58</ele>
        <time>2018-02-14T08:33:02Z</time>
      </trkpt>
      <trkpt lat="51.705333022400737" lon="0.26459002867341">
        <ele>58</ele>
        <time>2018-02-14T08:33:04Z</time>
      </trkpt>
      <trkpt lat="51.705315001308918" lon="0.264583993703127">
        <ele>58</ele>
        <time>2018-02-14T08:33:05Z</time>
      </trkpt>
      <trkpt lat="51.705279964953661" lon="0.264575025066733">
        <ele>58</ele>
        <time>2018-02-14T08:33:07Z</time>
      </trkpt>
      <trkpt lat="51.705261021852493" lon="0.264573013409972">
        <ele>58</ele>
        <time>2018-02-14T08:33:08Z</time>
      </trkpt>
      <trkpt lat="51.705243000760674" lon="0.264573013409972">
        <ele>58</ele>
        <time>2018-02-14T08:33:09Z</time>
      </trkpt>
      <trkpt lat="51.705223973840475" lon="0.26456899009645">
        <ele>58</ele>
        <time>2018-02-14T08:33:10Z</time>
      </trkpt>
      <trkpt lat="51.705206036567688" lon="0.26456999592483">
        <ele>58</ele>
        <time>2018-02-14T08:33:11Z</time>
      </trkpt>
      <trkpt lat="51.705186003819108" lon="0.264572007581592">
        <ele>58.120011263855801</ele>
        <time>2018-02-14T08:33:12Z</time>
      </trkpt>
      <trkpt lat="51.705163037404418" lon="0.264572007581592">
        <ele>60</ele>
        <time>2018-02-14T08:33:13Z</time>
      </trkpt>
      <trkpt lat="51.705143004655838" lon="0.264575025066733">
        <ele>60</ele>
        <time>2018-02-14T08:33:14Z</time>
      </trkpt>
      <trkpt lat="51.705106040462852" lon="0.264577036723495">
        <ele>60</ele>
        <time>2018-02-14T08:33:16Z</time>
      </trkpt>
      <trkpt lat="51.705088019371033" lon="0.264576030895114">
        <ele>60</ele>
        <time>2018-02-14T08:33:17Z</time>
      </trkpt>
      <trkpt lat="51.705069998279214" lon="0.264577036723495">
        <ele>60</ele>
        <time>2018-02-14T08:33:18Z</time>
      </trkpt>
      <trkpt lat="51.705048959702253" lon="0.264578964561224">
        <ele>60</ele>
        <time>2018-02-14T08:33:19Z</time>
      </trkpt>
      <trkpt lat="51.705032028257847" lon="0.264575025066733">
        <ele>60</ele>
        <time>2018-02-14T08:33:20Z</time>
      </trkpt>
      <trkpt lat="51.705010989680886" lon="0.264574019238353">
        <ele>60</ele>
        <time>2018-02-14T08:33:21Z</time>
      </trkpt>
      <trkpt lat="51.704991962760687" lon="0.264576030895114">
        <ele>59.919192180388897</ele>
        <time>2018-02-14T08:33:22Z</time>
      </trkpt>
      <trkpt lat="51.704960027709603" lon="0.264580976217985">
        <ele>59.0784308804337</ele>
        <time>2018-02-14T08:33:24Z</time>
      </trkpt>
      <trkpt lat="51.704928008839488" lon="0.264588017016649">
        <ele>60</ele>
        <time>2018-02-14T08:33:26Z</time>
      </trkpt>
      <trkpt lat="51.704895989969373" lon="0.264594973996282">
        <ele>60</ele>
        <time>2018-02-14T08:33:28Z</time>
      </trkpt>
      <trkpt lat="51.704861037433147" lon="0.264604026451707">
        <ele>60</ele>
        <time>2018-02-14T08:33:30Z</time>
      </trkpt>
      <trkpt lat="51.704827006906271" lon="0.26461198925972">
        <ele>60</ele>
        <time>2018-02-14T08:33:32Z</time>
      </trkpt>
      <trkpt lat="51.704801023006439" lon="0.2646129950881">
        <ele>60</ele>
        <time>2018-02-14T08:33:34Z</time>
      </trkpt>
      <trkpt lat="51.704780990257859" lon="0.264609977602959">
        <ele>60</ele>
        <time>2018-02-14T08:33:36Z</time>
      </trkpt>
      <trkpt lat="51.704758023843169" lon="0.264608971774578">
        <ele>60</ele>
        <time>2018-02-14T08:33:38Z</time>
      </trkpt>
      <trkpt lat="51.704735979437828" lon="0.264606960117817">
        <ele>60</ele>
        <time>2018-02-14T08:33:40Z</time>
      </trkpt>
      <trkpt lat="51.704711001366377" lon="0.264606038108468">
        <ele>60</ele>
        <time>2018-02-14T08:33:42Z</time>
      </trkpt>
      <trkpt lat="51.704688034951687" lon="0.264603020623326">
        <ele>60</ele>
        <time>2018-02-14T08:33:44Z</time>
      </trkpt>
      <trkpt lat="51.704664984717965" lon="0.264598997309804">
        <ele>60</ele>
        <time>2018-02-14T08:33:46Z</time>
      </trkpt>
      <trkpt lat="51.704641012474895" lon="0.264595979824662">
        <ele>60</ele>
        <time>2018-02-14T08:33:48Z</time>
      </trkpt>
      <trkpt lat="51.704618968069553" lon="0.264592040330172">
        <ele>61</ele>
        <time>2018-02-14T08:33:50Z</time>
      </trkpt>
      <trkpt lat="51.704598013311625" lon="0.264588017016649">
        <ele>61</ele>
        <time>2018-02-14T08:33:52Z</time>
      </trkpt>
      <trkpt lat="51.704574963077903" lon="0.264584999531507">
        <ele>61</ele>
        <time>2018-02-14T08:33:54Z</time>
      </trkpt>
      <trkpt lat="51.704553002491593" lon="0.264584999531507">
        <ele>61</ele>
        <time>2018-02-14T08:33:56Z</time>
      </trkpt>
      <trkpt lat="51.704531041905284" lon="0.264580976217985">
        <ele>61</ele>
        <time>2018-02-14T08:33:58Z</time>
      </trkpt>
      <trkpt lat="51.704507991671562" lon="0.264578964561224">
        <ele>61</ele>
        <time>2018-02-14T08:34:00Z</time>
      </trkpt>
      <trkpt lat="51.704486031085253" lon="0.264577036723495">
        <ele>61</ele>
        <time>2018-02-14T08:34:02Z</time>
      </trkpt>
      <trkpt lat="51.70446197502315" lon="0.264575025066733">
        <ele>61</ele>
        <time>2018-02-14T08:34:04Z</time>
      </trkpt>
      <trkpt lat="51.704435991123319" lon="0.264572007581592">
        <ele>61</ele>
        <time>2018-02-14T08:34:06Z</time>
      </trkpt>
      <trkpt lat="51.704411013051867" lon="0.26456999592483">
        <ele>61</ele>
        <time>2018-02-14T08:34:08Z</time>
      </trkpt>
      <trkpt lat="51.704387040808797" lon="0.264563960954547">
        <ele>61</ele>
        <time>2018-02-14T08:34:10Z</time>
      </trkpt>
      <trkpt lat="51.704361978918314" lon="0.264560021460056">
        <ele>61</ele>
        <time>2018-02-14T08:34:12Z</time>
      </trkpt>
      <trkpt lat="51.704337000846863" lon="0.264553986489773">
        <ele>61</ele>
        <time>2018-02-14T08:34:14Z</time>
      </trkpt>
      <trkpt lat="51.704311016947031" lon="0.264551974833012">
        <ele>61</ele>
        <time>2018-02-14T08:34:16Z</time>
      </trkpt>
      <trkpt lat="51.70428603887558" lon="0.264548035338521">
        <ele>61</ele>
        <time>2018-02-14T08:34:18Z</time>
      </trkpt>
      <trkpt lat="51.704259971156716" lon="0.264548035338521">
        <ele>61.099994879934499</ele>
        <time>2018-02-14T08:34:20Z</time>
      </trkpt>
      <trkpt lat="51.704235998913646" lon="0.26454602368176">
        <ele>62</ele>
        <time>2018-02-14T08:34:22Z</time>
      </trkpt>
      <trkpt lat="51.704209009185433" lon="0.264548035338521">
        <ele>62</ele>
        <time>2018-02-14T08:34:24Z</time>
      </trkpt>
      <trkpt lat="51.704183025285602" lon="0.264548035338521">
        <ele>62</ele>
        <time>2018-02-14T08:34:26Z</time>
      </trkpt>
      <trkpt lat="51.70415997505188" lon="0.26454602368176">
        <ele>62</ele>
        <time>2018-02-14T08:34:28Z</time>
      </trkpt>
      <trkpt lat="51.70413700863719" lon="0.264544012024999">
        <ele>62</ele>
        <time>2018-02-14T08:34:30Z</time>
      </trkpt>
      <trkpt lat="51.704113036394119" lon="0.264542000368238">
        <ele>62</ele>
        <time>2018-02-14T08:34:32Z</time>
      </trkpt>
      <trkpt lat="51.704090991988778" lon="0.264537977054715">
        <ele>62</ele>
        <time>2018-02-14T08:34:34Z</time>
      </trkpt>
      <trkpt lat="51.704065008088946" lon="0.264535965397954">
        <ele>62</ele>
        <time>2018-02-14T08:34:36Z</time>
      </trkpt>
      <trkpt lat="51.704038018360734" lon="0.264537977054715">
        <ele>62.188122576229901</ele>
        <time>2018-02-14T08:34:38Z</time>
      </trkpt>
      <trkpt lat="51.704014968127012" lon="0.264539988711476">
        <ele>63</ele>
        <time>2018-02-14T08:34:40Z</time>
      </trkpt>
      <trkpt lat="51.703999964520335" lon="0.264558009803295">
        <ele>62.811877423770099</ele>
        <time>2018-02-14T08:34:42Z</time>
      </trkpt>
      <trkpt lat="51.703985966742039" lon="0.264592040330172">
        <ele>62</ele>
        <time>2018-02-14T08:34:44Z</time>
      </trkpt>
      <trkpt lat="51.703984038904309" lon="0.264625987038016">
        <ele>62</ele>
        <time>2018-02-14T08:34:46Z</time>
      </trkpt>
      <trkpt lat="51.703980015590787" lon="0.264661023393273">
        <ele>62</ele>
        <time>2018-02-14T08:34:48Z</time>
      </trkpt>
      <trkpt lat="51.703979009762406" lon="0.264702010899782">
        <ele>62.191921803889102</ele>
        <time>2018-02-14T08:34:50Z</time>
      </trkpt>
      <trkpt lat="51.703981021419168" lon="0.26474098674953">
        <ele>63</ele>
        <time>2018-02-14T08:34:52Z</time>
      </trkpt>
      <trkpt lat="51.703975992277265" lon="0.264779962599278">
        <ele>62.801979570628298</ele>
        <time>2018-02-14T08:34:54Z</time>
      </trkpt>
      <trkpt lat="51.703972974792123" lon="0.264822039753199">
        <ele>62.191921803889102</ele>
        <time>2018-02-14T08:34:56Z</time>
      </trkpt>
      <trkpt lat="51.703976998105645" lon="0.264871995896101">
        <ele>63</ele>
        <time>2018-02-14T08:34:58Z</time>
      </trkpt>
      <trkpt lat="51.703976998105645" lon="0.264929998666048">
        <ele>63</ele>
        <time>2018-02-14T08:35:00Z</time>
      </trkpt>
      <trkpt lat="51.703975992277265" lon="0.264963023364544">
        <ele>63</ele>
        <time>2018-02-14T08:35:01Z</time>
      </trkpt>
      <trkpt lat="51.703974986448884" lon="0.264995964244008">
        <ele>63</ele>
        <time>2018-02-14T08:35:02Z</time>
      </trkpt>
      <trkpt lat="51.703974986448884" lon="0.265029994770885">
        <ele>63</ele>
        <time>2018-02-14T08:35:03Z</time>
      </trkpt>
      <trkpt lat="51.703974986448884" lon="0.265064025297761">
        <ele>63</ele>
        <time>2018-02-14T08:35:04Z</time>
      </trkpt>
      <trkpt lat="51.703975992277265" lon="0.265094032511115">
        <ele>63</ele>
        <time>2018-02-14T08:35:05Z</time>
      </trkpt>
      <trkpt lat="51.703971968963742" lon="0.26512797921896">
        <ele>63</ele>
        <time>2018-02-14T08:35:06Z</time>
      </trkpt>
      <trkpt lat="51.70396501198411" lon="0.265157986432314">
        <ele>63.173467255296401</ele>
        <time>2018-02-14T08:35:07Z</time>
      </trkpt>
      <trkpt lat="51.703958977013826" lon="0.265185981988907">
        <ele>64</ele>
        <time>2018-02-14T08:35:08Z</time>
      </trkpt>
      <trkpt lat="51.703954031690955" lon="0.265216995030642">
        <ele>64</ele>
        <time>2018-02-14T08:35:09Z</time>
      </trkpt>
      <trkpt lat="51.703954031690955" lon="0.265276003628969">
        <ele>64</ele>
        <time>2018-02-14T08:35:11Z</time>
      </trkpt>
      <trkpt lat="51.703953025862575" lon="0.265308022499084">
        <ele>64</ele>
        <time>2018-02-14T08:35:12Z</time>
      </trkpt>
      <trkpt lat="51.703949002549052" lon="0.265338029712439">
        <ele>64</ele>
        <time>2018-02-14T08:35:13Z</time>
      </trkpt>
      <trkpt lat="51.703941961750388" lon="0.265369964763522">
        <ele>64</ele>
        <time>2018-02-14T08:35:14Z</time>
      </trkpt>
      <trkpt lat="51.703936010599136" lon="0.265397038310766">
        <ele>64</ele>
        <time>2018-02-14T08:35:15Z</time>
      </trkpt>
      <trkpt lat="51.703926958143711" lon="0.265455963090062">
        <ele>64</ele>
        <time>2018-02-14T08:35:17Z</time>
      </trkpt>
      <trkpt lat="51.703924024477601" lon="0.265487981960177">
        <ele>64</ele>
        <time>2018-02-14T08:35:18Z</time>
      </trkpt>
      <trkpt lat="51.70392201282084" lon="0.265545984730124">
        <ele>64</ele>
        <time>2018-02-14T08:35:20Z</time>
      </trkpt>
      <trkpt lat="51.703920001164079" lon="0.265575991943479">
        <ele>64</ele>
        <time>2018-02-14T08:35:21Z</time>
      </trkpt>
      <trkpt lat="51.703918995335698" lon="0.265637012198567">
        <ele>64</ele>
        <time>2018-02-14T08:35:23Z</time>
      </trkpt>
      <trkpt lat="51.703917989507318" lon="0.265694009140134">
        <ele>64</ele>
        <time>2018-02-14T08:35:25Z</time>
      </trkpt>
      <trkpt lat="51.703915977850556" lon="0.265724016353488">
        <ele>64</ele>
        <time>2018-02-14T08:35:26Z</time>
      </trkpt>
      <trkpt lat="51.703914972022176" lon="0.265782019123435">
        <ele>64</ele>
        <time>2018-02-14T08:35:28Z</time>
      </trkpt>
      <trkpt lat="51.703911032527685" lon="0.26581596583128">
        <ele>64</ele>
        <time>2018-02-14T08:35:29Z</time>
      </trkpt>
      <trkpt lat="51.703908015042543" lon="0.265845973044634">
        <ele>64</ele>
        <time>2018-02-14T08:35:30Z</time>
      </trkpt>
      <trkpt lat="51.703907009214163" lon="0.265877991914749">
        <ele>64</ele>
        <time>2018-02-14T08:35:31Z</time>
      </trkpt>
      <trkpt lat="51.703904997557402" lon="0.265909004956484">
        <ele>64</ele>
        <time>2018-02-14T08:35:32Z</time>
      </trkpt>
      <trkpt lat="51.703906003385782" lon="0.265940017998219">
        <ele>64</ele>
        <time>2018-02-14T08:35:33Z</time>
      </trkpt>
      <trkpt lat="51.703907009214163" lon="0.265973964706063">
        <ele>64</ele>
        <time>2018-02-14T08:35:34Z</time>
      </trkpt>
      <trkpt lat="51.703909020870924" lon="0.266003971919417">
        <ele>64</ele>
        <time>2018-02-14T08:35:35Z</time>
      </trkpt>
      <trkpt lat="51.703912960365415" lon="0.266034984961152">
        <ele>64</ele>
        <time>2018-02-14T08:35:36Z</time>
      </trkpt>
      <trkpt lat="51.703916983678937" lon="0.266065998002887">
        <ele>64</ele>
        <time>2018-02-14T08:35:37Z</time>
      </trkpt>
      <trkpt lat="51.703920001164079" lon="0.266096005216241">
        <ele>64</ele>
        <time>2018-02-14T08:35:38Z</time>
      </trkpt>
      <trkpt lat="51.703925030305982" lon="0.266126012429595">
        <ele>64</ele>
        <time>2018-02-14T08:35:39Z</time>
      </trkpt>
      <trkpt lat="51.703928969800472" lon="0.266156019642949">
        <ele>64</ele>
        <time>2018-02-14T08:35:40Z</time>
      </trkpt>
      <trkpt lat="51.703935004770756" lon="0.266184015199542">
        <ele>64</ele>
        <time>2018-02-14T08:35:41Z</time>
      </trkpt>
      <trkpt lat="51.703941961750388" lon="0.266216034069657">
        <ele>64</ele>
        <time>2018-02-14T08:35:42Z</time>
      </trkpt>
      <trkpt lat="51.703950008377433" lon="0.266245035454631">
        <ele>64</ele>
        <time>2018-02-14T08:35:43Z</time>
      </trkpt>
      <trkpt lat="51.703957971185446" lon="0.266272025182843">
        <ele>64</ele>
        <time>2018-02-14T08:35:44Z</time>
      </trkpt>
      <trkpt lat="51.703963000327349" lon="0.266302032396197">
        <ele>64</ele>
        <time>2018-02-14T08:35:45Z</time>
      </trkpt>
      <trkpt lat="51.703970041126013" lon="0.266357017681003">
        <ele>64</ele>
        <time>2018-02-14T08:35:47Z</time>
      </trkpt>
      <trkpt lat="51.703976998105645" lon="0.266384007409215">
        <ele>64</ele>
        <time>2018-02-14T08:35:48Z</time>
      </trkpt>
      <trkpt lat="51.70398898422718" lon="0.266410997137427">
        <ele>64</ele>
        <time>2018-02-14T08:35:49Z</time>
      </trkpt>
      <trkpt lat="51.704000970348716" lon="0.266433963552117">
        <ele>64</ele>
        <time>2018-02-14T08:35:50Z</time>
      </trkpt>
      <trkpt lat="51.704010022804141" lon="0.266460031270981">
        <ele>64</ele>
        <time>2018-02-14T08:35:51Z</time>
      </trkpt>
      <trkpt lat="51.704024020582438" lon="0.266514010727406">
        <ele>64</ele>
        <time>2018-02-14T08:35:53Z</time>
      </trkpt>
      <trkpt lat="51.70403097756207" lon="0.266539994627237">
        <ele>64</ele>
        <time>2018-02-14T08:35:54Z</time>
      </trkpt>
      <trkpt lat="51.704039024189115" lon="0.266565978527069">
        <ele>64</ele>
        <time>2018-02-14T08:35:55Z</time>
      </trkpt>
      <trkpt lat="51.704047992825508" lon="0.266593974083662">
        <ele>64</ele>
        <time>2018-02-14T08:35:56Z</time>
      </trkpt>
      <trkpt lat="51.704056039452553" lon="0.266625992953777">
        <ele>64</ele>
        <time>2018-02-14T08:35:57Z</time>
      </trkpt>
      <trkpt lat="51.704061990603805" lon="0.266656000167131">
        <ele>64</ele>
        <time>2018-02-14T08:35:58Z</time>
      </trkpt>
      <trkpt lat="51.704061990603805" lon="0.266686007380486">
        <ele>64</ele>
        <time>2018-02-14T08:35:59Z</time>
      </trkpt>
      <trkpt lat="51.704061990603805" lon="0.266720037907362">
        <ele>64</ele>
        <time>2018-02-14T08:36:00Z</time>
      </trkpt>
      <trkpt lat="51.704067019745708" lon="0.266777034848928">
        <ele>64</ele>
        <time>2018-02-14T08:36:02Z</time>
      </trkpt>
      <trkpt lat="51.704070037230849" lon="0.266807964071631">
        <ele>64</ele>
        <time>2018-02-14T08:36:03Z</time>
      </trkpt>
      <trkpt lat="51.704075988382101" lon="0.266859009861946">
        <ele>64</ele>
        <time>2018-02-14T08:36:05Z</time>
      </trkpt>
      <trkpt lat="51.704076994210482" lon="0.266907960176468">
        <ele>64</ele>
        <time>2018-02-14T08:36:07Z</time>
      </trkpt>
      <trkpt lat="51.70407397672534" lon="0.266949031502008">
        <ele>64</ele>
        <time>2018-02-14T08:36:09Z</time>
      </trkpt>
      <trkpt lat="51.704071965068579" lon="0.266991024836898">
        <ele>64</ele>
        <time>2018-02-14T08:36:11Z</time>
      </trkpt>
      <trkpt lat="51.704067019745708" lon="0.267031006515026">
        <ele>64</ele>
        <time>2018-02-14T08:36:13Z</time>
      </trkpt>
      <trkpt lat="51.704061990603805" lon="0.267067970708013">
        <ele>64</ele>
        <time>2018-02-14T08:36:15Z</time>
      </trkpt>
      <trkpt lat="51.70405101031065" lon="0.267105018720031">
        <ele>65</ele>
        <time>2018-02-14T08:36:17Z</time>
      </trkpt>
      <trkpt lat="51.704047992825508" lon="0.267139971256256">
        <ele>65</ele>
        <time>2018-02-14T08:36:19Z</time>
      </trkpt>
      <trkpt lat="51.704043969511986" lon="0.267178025096655">
        <ele>65</ele>
        <time>2018-02-14T08:36:21Z</time>
      </trkpt>
      <trkpt lat="51.704033995047212" lon="0.267224041745067">
        <ele>64</ele>
        <time>2018-02-14T08:36:23Z</time>
      </trkpt>
      <trkpt lat="51.704028965905309" lon="0.267251031473279">
        <ele>64</ele>
        <time>2018-02-14T08:36:24Z</time>
      </trkpt>
      <trkpt lat="51.704025026410818" lon="0.267281038686633">
        <ele>64</ele>
        <time>2018-02-14T08:36:25Z</time>
      </trkpt>
      <trkpt lat="51.704024020582438" lon="0.267310040071607">
        <ele>64</ele>
        <time>2018-02-14T08:36:26Z</time>
      </trkpt>
      <trkpt lat="51.704026032239199" lon="0.26734096929431">
        <ele>64</ele>
        <time>2018-02-14T08:36:27Z</time>
      </trkpt>
      <trkpt lat="51.704027960076928" lon="0.267376005649567">
        <ele>64</ele>
        <time>2018-02-14T08:36:28Z</time>
      </trkpt>
      <trkpt lat="51.70403097756207" lon="0.267406012862921">
        <ele>64.099015296488304</ele>
        <time>2018-02-14T08:36:29Z</time>
      </trkpt>
      <trkpt lat="51.704032989218831" lon="0.267464015632868">
        <ele>64.909094435250296</ele>
        <time>2018-02-14T08:36:31Z</time>
      </trkpt>
      <trkpt lat="51.704036006703973" lon="0.267516989260912">
        <ele>64</ele>
        <time>2018-02-14T08:36:33Z</time>
      </trkpt>
      <trkpt lat="51.704038018360734" lon="0.267549008131027">
        <ele>64</ele>
        <time>2018-02-14T08:36:34Z</time>
      </trkpt>
      <trkpt lat="51.704041035845876" lon="0.267578009516001">
        <ele>64</ele>
        <time>2018-02-14T08:36:35Z</time>
      </trkpt>
      <trkpt lat="51.704045981168747" lon="0.267631988972425">
        <ele>64</ele>
        <time>2018-02-14T08:36:37Z</time>
      </trkpt>
      <trkpt lat="51.704047992825508" lon="0.267660990357399">
        <ele>64</ele>
        <time>2018-02-14T08:36:38Z</time>
      </trkpt>
      <trkpt lat="51.704047992825508" lon="0.267689991742373">
        <ele>64</ele>
        <time>2018-02-14T08:36:39Z</time>
      </trkpt>
      <trkpt lat="51.70405101031065" lon="0.267731985077262">
        <ele>65</ele>
        <time>2018-02-14T08:36:41Z</time>
      </trkpt>
      <trkpt lat="51.704054027795792" lon="0.267760986462235">
        <ele>65</ele>
        <time>2018-02-14T08:36:43Z</time>
      </trkpt>
      <trkpt lat="51.704061990603805" lon="0.267787976190448">
        <ele>64.803922798915806</ele>
        <time>2018-02-14T08:36:45Z</time>
      </trkpt>
      <trkpt lat="51.704061990603805" lon="0.267822006717324">
        <ele>64</ele>
        <time>2018-02-14T08:36:48Z</time>
      </trkpt>
      <trkpt lat="51.704065008088946" lon="0.267862994223833">
        <ele>64</ele>
        <time>2018-02-14T08:36:51Z</time>
      </trkpt>
      <trkpt lat="51.704059978947043" lon="0.267903981730342">
        <ele>64</ele>
        <time>2018-02-14T08:36:54Z</time>
      </trkpt>
      <trkpt lat="51.704037012532353" lon="0.267928037792444">
        <ele>64</ele>
        <time>2018-02-14T08:36:57Z</time>
      </trkpt>
      <trkpt lat="51.704017985612154" lon="0.267932983115315">
        <ele>64</ele>
        <time>2018-02-14T08:36:59Z</time>
      </trkpt>
      <trkpt lat="51.704004993662238" lon="0.267942035570741">
        <ele>66</ele>
        <time>2018-02-14T08:37:31Z</time>
      </trkpt>
      <trkpt lat="51.703984960913658" lon="0.267953015863895">
        <ele>66</ele>
        <time>2018-02-14T08:37:34Z</time>
      </trkpt>
      <trkpt lat="51.70396601781249" lon="0.267970031127334">
        <ele>66</ele>
        <time>2018-02-14T08:37:36Z</time>
      </trkpt>
      <trkpt lat="51.703949002549052" lon="0.267988974228501">
        <ele>66</ele>
        <time>2018-02-14T08:37:38Z</time>
      </trkpt>
      <trkpt lat="51.703927963972092" lon="0.268009006977081">
        <ele>63.909094435250303</ele>
        <time>2018-02-14T08:37:41Z</time>
      </trkpt>
      <trkpt lat="51.703912038356066" lon="0.268030967563391">
        <ele>63</ele>
        <time>2018-02-14T08:37:44Z</time>
      </trkpt>
      <trkpt lat="51.703899968415499" lon="0.268053011968732">
        <ele>63.101016239139398</ele>
        <time>2018-02-14T08:37:47Z</time>
      </trkpt>
      <trkpt lat="51.703884964808822" lon="0.268074972555041">
        <ele>64</ele>
        <time>2018-02-14T08:37:50Z</time>
      </trkpt>
      <trkpt lat="51.703865015879273" lon="0.268100034445524">
        <ele>63.207918282513397</ele>
        <time>2018-02-14T08:37:53Z</time>
      </trkpt>
      <trkpt lat="51.703845988959074" lon="0.26811202056706">
        <ele>64</ele>
        <time>2018-02-14T08:37:55Z</time>
      </trkpt>
      <trkpt lat="51.703829979524016" lon="0.268128030002117">
        <ele>64</ele>
        <time>2018-02-14T08:37:57Z</time>
      </trkpt>
      <trkpt lat="51.703803995624185" lon="0.268136998638511">
        <ele>64</ele>
        <time>2018-02-14T08:38:00Z</time>
      </trkpt>
      <trkpt lat="51.703786980360746" lon="0.268144039437175">
        <ele>63</ele>
        <time>2018-02-14T08:38:02Z</time>
      </trkpt>
      <trkpt lat="51.703768037259579" lon="0.268157031387091">
        <ele>64</ele>
        <time>2018-02-14T08:38:04Z</time>
      </trkpt>
      <trkpt lat="51.70375102199614" lon="0.26815895922482">
        <ele>64</ele>
        <time>2018-02-14T08:38:06Z</time>
      </trkpt>
      <trkpt lat="51.703733000904322" lon="0.268174968659878">
        <ele>65</ele>
        <time>2018-02-14T08:38:10Z</time>
      </trkpt>
      <trkpt lat="51.703722020611167" lon="0.268195001408458">
        <ele>65</ele>
        <time>2018-02-14T08:38:13Z</time>
      </trkpt>
      <trkpt lat="51.703714979812503" lon="0.268167005851865">
        <ele>64</ele>
        <time>2018-02-14T08:38:44Z</time>
      </trkpt>
      <trkpt lat="51.703711040318012" lon="0.268193995580077">
        <ele>65</ele>
        <time>2018-02-14T08:39:13Z</time>
      </trkpt>
      <trkpt lat="51.703711040318012" lon="0.268230959773064">
        <ele>65</ele>
        <time>2018-02-14T08:39:16Z</time>
      </trkpt>
      <trkpt lat="51.703714979812503" lon="0.26826398447156">
        <ele>66</ele>
        <time>2018-02-14T08:39:19Z</time>
      </trkpt>
      <trkpt lat="51.703720008954406" lon="0.268296003341675">
        <ele>66</ele>
        <time>2018-02-14T08:39:22Z</time>
      </trkpt>
      <trkpt lat="51.703725960105658" lon="0.268330033868551">
        <ele>65</ele>
        <time>2018-02-14T08:39:25Z</time>
      </trkpt>
      <trkpt lat="51.703727971762419" lon="0.268360041081905">
        <ele>65</ele>
        <time>2018-02-14T08:39:27Z</time>
      </trkpt>
      <trkpt lat="51.703727971762419" lon="0.268391976132989">
        <ele>65</ele>
        <time>2018-02-14T08:39:29Z</time>
      </trkpt>
      <trkpt lat="51.703727971762419" lon="0.268421983346343">
        <ele>65</ele>
        <time>2018-02-14T08:39:31Z</time>
      </trkpt>
      <trkpt lat="51.703728977590799" lon="0.268455008044839">
        <ele>64</ele>
        <time>2018-02-14T08:39:33Z</time>
      </trkpt>
      <trkpt lat="51.703727971762419" lon="0.268489038571715">
        <ele>64</ele>
        <time>2018-02-14T08:39:35Z</time>
      </trkpt>
      <trkpt lat="51.703731995075941" lon="0.26852197945118">
        <ele>64</ele>
        <time>2018-02-14T08:39:37Z</time>
      </trkpt>
      <trkpt lat="51.703740041702986" lon="0.268555004149675">
        <ele>64</ele>
        <time>2018-02-14T08:39:39Z</time>
      </trkpt>
      <trkpt lat="51.703742975369096" lon="0.268590962514281">
        <ele>64</ele>
        <time>2018-02-14T08:39:41Z</time>
      </trkpt>
      <trkpt lat="51.703745992854238" lon="0.268627004697919">
        <ele>64</ele>
        <time>2018-02-14T08:39:43Z</time>
      </trkpt>
      <trkpt lat="51.703746998682618" lon="0.268663968890905">
        <ele>64</ele>
        <time>2018-02-14T08:39:45Z</time>
      </trkpt>
      <trkpt lat="51.703746998682618" lon="0.268700011074543">
        <ele>64</ele>
        <time>2018-02-14T08:39:47Z</time>
      </trkpt>
      <trkpt lat="51.703748004510999" lon="0.268733035773039">
        <ele>63.140630000000002</ele>
        <time>2018-02-14T08:39:49Z</time>
      </trkpt>
      <trkpt lat="51.703749010339379" lon="0.268763964995742">
        <ele>63.070003200000002</ele>
        <time>2018-02-14T08:39:51Z</time>
      </trkpt>
      <trkpt lat="51.70375102199614" lon="0.268796989694238">
        <ele>64</ele>
        <time>2018-02-14T08:39:53Z</time>
      </trkpt>
      <trkpt lat="51.703753033652902" lon="0.268834037706256">
        <ele>64</ele>
        <time>2018-02-14T08:39:55Z</time>
      </trkpt>
      <trkpt lat="51.703756973147392" lon="0.268874019384384">
        <ele>64</ele>
        <time>2018-02-14T08:39:57Z</time>
      </trkpt>
      <trkpt lat="51.703766025602818" lon="0.268920036032796">
        <ele>64</ele>
        <time>2018-02-14T08:39:59Z</time>
      </trkpt>
      <trkpt lat="51.703767031431198" lon="0.268959011882544">
        <ele>64</ele>
        <time>2018-02-14T08:40:00Z</time>
      </trkpt>
      <trkpt lat="51.703769965097308" lon="0.268993964418769">
        <ele>64</ele>
        <time>2018-02-14T08:40:01Z</time>
      </trkpt>
      <trkpt lat="51.703771976754069" lon="0.269031012430787">
        <ele>64</ele>
        <time>2018-02-14T08:40:02Z</time>
      </trkpt>
      <trkpt lat="51.70377298258245" lon="0.269066970795393">
        <ele>64</ele>
        <time>2018-02-14T08:40:03Z</time>
      </trkpt>
      <trkpt lat="51.703774994239211" lon="0.269104018807411">
        <ele>64</ele>
        <time>2018-02-14T08:40:04Z</time>
      </trkpt>
      <trkpt lat="51.703777005895972" lon="0.269137965515256">
        <ele>64</ele>
        <time>2018-02-14T08:40:05Z</time>
      </trkpt>
      <trkpt lat="51.703787986189127" lon="0.269194040447474">
        <ele>64</ele>
        <time>2018-02-14T08:40:07Z</time>
      </trkpt>
      <trkpt lat="51.703799972310662" lon="0.269250031560659">
        <ele>64</ele>
        <time>2018-02-14T08:40:09Z</time>
      </trkpt>
      <trkpt lat="51.703805001452565" lon="0.269282972440124">
        <ele>64</ele>
        <time>2018-02-14T08:40:10Z</time>
      </trkpt>
      <trkpt lat="51.703809024766088" lon="0.269319014623761">
        <ele>64</ele>
        <time>2018-02-14T08:40:11Z</time>
      </trkpt>
      <trkpt lat="51.703811958432198" lon="0.269362013787031">
        <ele>64</ele>
        <time>2018-02-14T08:40:12Z</time>
      </trkpt>
      <trkpt lat="51.70381598174572" lon="0.269396966323256">
        <ele>64</ele>
        <time>2018-02-14T08:40:13Z</time>
      </trkpt>
      <trkpt lat="51.703817993402481" lon="0.269432002678514">
        <ele>64</ele>
        <time>2018-02-14T08:40:14Z</time>
      </trkpt>
      <trkpt lat="51.703818999230862" lon="0.269472990185022">
        <ele>64</ele>
        <time>2018-02-14T08:40:15Z</time>
      </trkpt>
      <trkpt lat="51.703821010887623" lon="0.269510038197041">
        <ele>64</ele>
        <time>2018-02-14T08:40:16Z</time>
      </trkpt>
      <trkpt lat="51.703822016716003" lon="0.269544990733266">
        <ele>64</ele>
        <time>2018-02-14T08:40:17Z</time>
      </trkpt>
      <trkpt lat="51.703825034201145" lon="0.269576003775001">
        <ele>64</ele>
        <time>2018-02-14T08:40:18Z</time>
      </trkpt>
      <trkpt lat="51.703828973695636" lon="0.269605005159974">
        <ele>64</ele>
        <time>2018-02-14T08:40:19Z</time>
      </trkpt>
      <trkpt lat="51.703834002837539" lon="0.269637024030089">
        <ele>64</ele>
        <time>2018-02-14T08:40:20Z</time>
      </trkpt>
      <trkpt lat="51.703839031979442" lon="0.269672982394695">
        <ele>64</ele>
        <time>2018-02-14T08:40:21Z</time>
      </trkpt>
      <trkpt lat="51.703841965645552" lon="0.269711958244443">
        <ele>64</ele>
        <time>2018-02-14T08:40:22Z</time>
      </trkpt>
      <trkpt lat="51.703842971473932" lon="0.269755963236094">
        <ele>64</ele>
        <time>2018-02-14T08:40:23Z</time>
      </trkpt>
      <trkpt lat="51.703843977302313" lon="0.269801979884505">
        <ele>64</ele>
        <time>2018-02-14T08:40:24Z</time>
      </trkpt>
      <trkpt lat="51.703849006444216" lon="0.269846990704536">
        <ele>64</ele>
        <time>2018-02-14T08:40:25Z</time>
      </trkpt>
      <trkpt lat="51.70385898090899" lon="0.269890995696187">
        <ele>64</ele>
        <time>2018-02-14T08:40:26Z</time>
      </trkpt>
      <trkpt lat="51.703869961202145" lon="0.269935000687838">
        <ele>64</ele>
        <time>2018-02-14T08:40:27Z</time>
      </trkpt>
      <trkpt lat="51.703874990344048" lon="0.269979005679488">
        <ele>64</ele>
        <time>2018-02-14T08:40:28Z</time>
      </trkpt>
      <trkpt lat="51.70388001948595" lon="0.270018987357616">
        <ele>63.848482105916403</ele>
        <time>2018-02-14T08:40:29Z</time>
      </trkpt>
      <trkpt lat="51.703884964808822" lon="0.270056035369635">
        <ele>63</ele>
        <time>2018-02-14T08:40:30Z</time>
      </trkpt>
      <trkpt lat="51.703887982293963" lon="0.270095011219382">
        <ele>63</ele>
        <time>2018-02-14T08:40:31Z</time>
      </trkpt>
      <trkpt lat="51.703890999779105" lon="0.270129963755608">
        <ele>63</ele>
        <time>2018-02-14T08:40:32Z</time>
      </trkpt>
      <trkpt lat="51.703895023092628" lon="0.270169023424387">
        <ele>63</ele>
        <time>2018-02-14T08:40:33Z</time>
      </trkpt>
      <trkpt lat="51.703899968415499" lon="0.270201964303851">
        <ele>63.188122576229901</ele>
        <time>2018-02-14T08:40:34Z</time>
      </trkpt>
      <trkpt lat="51.703900974243879" lon="0.270238006487489">
        <ele>64</ele>
        <time>2018-02-14T08:40:35Z</time>
      </trkpt>
      <trkpt lat="51.70390198007226" lon="0.270273964852095">
        <ele>64</ele>
        <time>2018-02-14T08:40:36Z</time>
      </trkpt>
      <trkpt lat="51.703906003385782" lon="0.270307995378971">
        <ele>64</ele>
        <time>2018-02-14T08:40:37Z</time>
      </trkpt>
      <trkpt lat="51.703911032527685" lon="0.270342025905848">
        <ele>63.828577001377496</ele>
        <time>2018-02-14T08:40:38Z</time>
      </trkpt>
      <trkpt lat="51.703912960365415" lon="0.270381001755595">
        <ele>63</ele>
        <time>2018-02-14T08:40:39Z</time>
      </trkpt>
      <trkpt lat="51.703917989507318" lon="0.270417965948582">
        <ele>63</ele>
        <time>2018-02-14T08:40:40Z</time>
      </trkpt>
      <trkpt lat="51.70392201282084" lon="0.270454008132219">
        <ele>63</ele>
        <time>2018-02-14T08:40:41Z</time>
      </trkpt>
      <trkpt lat="51.703924024477601" lon="0.270496001467109">
        <ele>63</ele>
        <time>2018-02-14T08:40:42Z</time>
      </trkpt>
      <trkpt lat="51.703928969800472" lon="0.270536988973618">
        <ele>63.089996800000002</ele>
        <time>2018-02-14T08:40:43Z</time>
      </trkpt>
      <trkpt lat="51.703931987285614" lon="0.270581999793649">
        <ele>64</ele>
        <time>2018-02-14T08:40:44Z</time>
      </trkpt>
      <trkpt lat="51.703938022255898" lon="0.27062801644206">
        <ele>64</ele>
        <time>2018-02-14T08:40:45Z</time>
      </trkpt>
      <trkpt lat="51.70394497923553" lon="0.270675038918853">
        <ele>64</ele>
        <time>2018-02-14T08:40:46Z</time>
      </trkpt>
      <trkpt lat="51.703950008377433" lon="0.270721977576613">
        <ele>64</ele>
        <time>2018-02-14T08:40:47Z</time>
      </trkpt>
      <trkpt lat="51.703953025862575" lon="0.270763970911503">
        <ele>64</ele>
        <time>2018-02-14T08:40:48Z</time>
      </trkpt>
      <trkpt lat="51.703956965357065" lon="0.270806970074773">
        <ele>64</ele>
        <time>2018-02-14T08:40:49Z</time>
      </trkpt>
      <trkpt lat="51.703958977013826" lon="0.270844018086791">
        <ele>64</ele>
        <time>2018-02-14T08:40:50Z</time>
      </trkpt>
      <trkpt lat="51.703963000327349" lon="0.270880982279778">
        <ele>63.927832466812703</ele>
        <time>2018-02-14T08:40:51Z</time>
      </trkpt>
      <trkpt lat="51.703969035297632" lon="0.270921969786286">
        <ele>63</ele>
        <time>2018-02-14T08:40:52Z</time>
      </trkpt>
      <trkpt lat="51.703973980620503" lon="0.270963041111827">
        <ele>63</ele>
        <time>2018-02-14T08:40:53Z</time>
      </trkpt>
      <trkpt lat="51.703980015590787" lon="0.271001011133194">
        <ele>63</ele>
        <time>2018-02-14T08:40:54Z</time>
      </trkpt>
      <trkpt lat="51.703985966742039" lon="0.2710369694978">
        <ele>63</ele>
        <time>2018-02-14T08:40:55Z</time>
      </trkpt>
      <trkpt lat="51.703990995883942" lon="0.27107703499496">
        <ele>63</ele>
        <time>2018-02-14T08:40:56Z</time>
      </trkpt>
      <trkpt lat="51.703994013369083" lon="0.271117016673088">
        <ele>63</ele>
        <time>2018-02-14T08:40:57Z</time>
      </trkpt>
      <trkpt lat="51.703998036682606" lon="0.271154986694455">
        <ele>63</ele>
        <time>2018-02-14T08:40:58Z</time>
      </trkpt>
      <trkpt lat="51.704002982005477" lon="0.271188011392951">
        <ele>63</ele>
        <time>2018-02-14T08:40:59Z</time>
      </trkpt>
      <trkpt lat="51.70400801114738" lon="0.271220030263066">
        <ele>63</ele>
        <time>2018-02-14T08:41:00Z</time>
      </trkpt>
      <trkpt lat="51.704011028632522" lon="0.27125003747642">
        <ele>63</ele>
        <time>2018-02-14T08:41:01Z</time>
      </trkpt>
      <trkpt lat="51.704013962298632" lon="0.271285995841026">
        <ele>63</ele>
        <time>2018-02-14T08:41:02Z</time>
      </trkpt>
      <trkpt lat="51.704014968127012" lon="0.271319020539522">
        <ele>63</ele>
        <time>2018-02-14T08:41:03Z</time>
      </trkpt>
      <trkpt lat="51.704018991440535" lon="0.271351039409637">
        <ele>63</ele>
        <time>2018-02-14T08:41:04Z</time>
      </trkpt>
      <trkpt lat="51.704024020582438" lon="0.27138096280396">
        <ele>63</ele>
        <time>2018-02-14T08:41:05Z</time>
      </trkpt>
      <trkpt lat="51.70403097756207" lon="0.271413987502456">
        <ele>63</ele>
        <time>2018-02-14T08:41:06Z</time>
      </trkpt>
      <trkpt lat="51.704037012532353" lon="0.271450029686093">
        <ele>63</ele>
        <time>2018-02-14T08:41:07Z</time>
      </trkpt>
      <trkpt lat="51.704041035845876" lon="0.27148699387908">
        <ele>63</ele>
        <time>2018-02-14T08:41:08Z</time>
      </trkpt>
      <trkpt lat="51.704043969511986" lon="0.271522030234337">
        <ele>63</ele>
        <time>2018-02-14T08:41:09Z</time>
      </trkpt>
      <trkpt lat="51.704047992825508" lon="0.271552037447691">
        <ele>63</ele>
        <time>2018-02-14T08:41:10Z</time>
      </trkpt>
      <trkpt lat="51.704053021967411" lon="0.271584978327155">
        <ele>63.207918282513397</ele>
        <time>2018-02-14T08:41:11Z</time>
      </trkpt>
      <trkpt lat="51.704056039452553" lon="0.271619008854032">
        <ele>64</ele>
        <time>2018-02-14T08:41:12Z</time>
      </trkpt>
      <trkpt lat="51.704060984775424" lon="0.271650021895766">
        <ele>64</ele>
        <time>2018-02-14T08:41:13Z</time>
      </trkpt>
      <trkpt lat="51.704069031402469" lon="0.271681034937501">
        <ele>64</ele>
        <time>2018-02-14T08:41:14Z</time>
      </trkpt>
      <trkpt lat="51.704081017524004" lon="0.271713975816965">
        <ele>64</ele>
        <time>2018-02-14T08:41:15Z</time>
      </trkpt>
      <trkpt lat="51.70409400947392" lon="0.271752029657364">
        <ele>64</ele>
        <time>2018-02-14T08:41:16Z</time>
      </trkpt>
      <trkpt lat="51.704102978110313" lon="0.271794022992253">
        <ele>63.797980450972297</ele>
        <time>2018-02-14T08:41:17Z</time>
      </trkpt>
      <trkpt lat="51.704112030565739" lon="0.271832998842001">
        <ele>63</ele>
        <time>2018-02-14T08:41:18Z</time>
      </trkpt>
      <trkpt lat="51.704125022515655" lon="0.271871974691749">
        <ele>63.200000000000003</ele>
        <time>2018-02-14T08:41:19Z</time>
      </trkpt>
      <trkpt lat="51.70413801446557" lon="0.271913968026638">
        <ele>64</ele>
        <time>2018-02-14T08:41:20Z</time>
      </trkpt>
      <trkpt lat="51.704146983101964" lon="0.271955961361527">
        <ele>64</ele>
        <time>2018-02-14T08:41:21Z</time>
      </trkpt>
      <trkpt lat="51.70415704138577" lon="0.271997032687068">
        <ele>64</ele>
        <time>2018-02-14T08:41:22Z</time>
      </trkpt>
      <trkpt lat="51.704166010022163" lon="0.272033996880054">
        <ele>64.149608441931505</ele>
        <time>2018-02-14T08:41:23Z</time>
      </trkpt>
      <trkpt lat="51.704176990315318" lon="0.272071966901422">
        <ele>64.937008032735704</ele>
        <time>2018-02-14T08:41:24Z</time>
      </trkpt>
      <trkpt lat="51.704186964780092" lon="0.272104991599917">
        <ele>65</ele>
        <time>2018-02-14T08:41:25Z</time>
      </trkpt>
      <trkpt lat="51.704198028892279" lon="0.272140027955174">
        <ele>65</ele>
        <time>2018-02-14T08:41:26Z</time>
      </trkpt>
      <trkpt lat="51.704208003357053" lon="0.272176992148161">
        <ele>65</ele>
        <time>2018-02-14T08:41:27Z</time>
      </trkpt>
      <trkpt lat="51.704220995306969" lon="0.272209011018276">
        <ele>65</ele>
        <time>2018-02-14T08:41:28Z</time>
      </trkpt>
      <trkpt lat="51.704230969771743" lon="0.272242035716772">
        <ele>65</ele>
        <time>2018-02-14T08:41:29Z</time>
      </trkpt>
      <trkpt lat="51.70424303971231" lon="0.272277994081378">
        <ele>65</ele>
        <time>2018-02-14T08:41:30Z</time>
      </trkpt>
      <trkpt lat="51.704256031662226" lon="0.272312024608254">
        <ele>65</ele>
        <time>2018-02-14T08:41:31Z</time>
      </trkpt>
      <trkpt lat="51.704265000298619" lon="0.272342031821609">
        <ele>65</ele>
        <time>2018-02-14T08:41:32Z</time>
      </trkpt>
      <trkpt lat="51.704274974763393" lon="0.272366004064679">
        <ele>65</ele>
        <time>2018-02-14T08:41:33Z</time>
      </trkpt>
      <trkpt lat="51.704287966713309" lon="0.272397017106414">
        <ele>65</ele>
        <time>2018-02-14T08:41:34Z</time>
      </trkpt>
      <trkpt lat="51.704299030825496" lon="0.272434987127781">
        <ele>65</ele>
        <time>2018-02-14T08:41:35Z</time>
      </trkpt>
      <trkpt lat="51.704302970319986" lon="0.272473962977529">
        <ele>65</ele>
        <time>2018-02-14T08:41:36Z</time>
      </trkpt>
      <trkpt lat="51.704304981976748" lon="0.272510005161166">
        <ele>65</ele>
        <time>2018-02-14T08:41:37Z</time>
      </trkpt>
      <trkpt lat="51.70430900529027" lon="0.272543029859662">
        <ele>65.070710074472501</ele>
        <time>2018-02-14T08:41:38Z</time>
      </trkpt>
      <trkpt lat="51.70431001111865" lon="0.272574964910746">
        <ele>66</ele>
        <time>2018-02-14T08:41:39Z</time>
      </trkpt>
      <trkpt lat="51.704314034432173" lon="0.2726049721241">
        <ele>66</ele>
        <time>2018-02-14T08:41:40Z</time>
      </trkpt>
      <trkpt lat="51.704317973926663" lon="0.272640008479357">
        <ele>66</ele>
        <time>2018-02-14T08:41:41Z</time>
      </trkpt>
      <trkpt lat="51.704320991411805" lon="0.272673033177853">
        <ele>66</ele>
        <time>2018-02-14T08:41:42Z</time>
      </trkpt>
      <trkpt lat="51.704327026382089" lon="0.272704968228936">
        <ele>66</ele>
        <time>2018-02-14T08:41:43Z</time>
      </trkpt>
      <trkpt lat="51.704329960048199" lon="0.272743022069335">
        <ele>66</ele>
        <time>2018-02-14T08:41:44Z</time>
      </trkpt>
      <trkpt lat="51.704333983361721" lon="0.272781997919083">
        <ele>66</ele>
        <time>2018-02-14T08:41:45Z</time>
      </trkpt>
      <trkpt lat="51.704334989190102" lon="0.272824997082353">
        <ele>66</ele>
        <time>2018-02-14T08:41:46Z</time>
      </trkpt>
      <trkpt lat="51.704333983361721" lon="0.272870007902384">
        <ele>66</ele>
        <time>2018-02-14T08:41:47Z</time>
      </trkpt>
      <trkpt lat="51.704334989190102" lon="0.272908983752131">
        <ele>66</ele>
        <time>2018-02-14T08:41:48Z</time>
      </trkpt>
      <trkpt lat="51.704335995018482" lon="0.27294703759253">
        <ele>66</ele>
        <time>2018-02-14T08:41:49Z</time>
      </trkpt>
      <trkpt lat="51.704339012503624" lon="0.272984001785517">
        <ele>66</ele>
        <time>2018-02-14T08:41:50Z</time>
      </trkpt>
      <trkpt lat="51.704341024160385" lon="0.273023983463645">
        <ele>66</ele>
        <time>2018-02-14T08:41:51Z</time>
      </trkpt>
      <trkpt lat="51.704343035817146" lon="0.273060025647283">
        <ele>66</ele>
        <time>2018-02-14T08:41:52Z</time>
      </trkpt>
      <trkpt lat="51.704342029988766" lon="0.273101013153791">
        <ele>66.181824058750493</ele>
        <time>2018-02-14T08:41:53Z</time>
      </trkpt>
      <trkpt lat="51.704343035817146" lon="0.273136971518397">
        <ele>67</ele>
        <time>2018-02-14T08:41:54Z</time>
      </trkpt>
      <trkpt lat="51.704343035817146" lon="0.273175025358796">
        <ele>67</ele>
        <time>2018-02-14T08:41:55Z</time>
      </trkpt>
      <trkpt lat="51.704340018332005" lon="0.273214001208544">
        <ele>67</ele>
        <time>2018-02-14T08:41:56Z</time>
      </trkpt>
      <trkpt lat="51.704341024160385" lon="0.273251971229911">
        <ele>67</ele>
        <time>2018-02-14T08:41:57Z</time>
      </trkpt>
      <trkpt lat="51.704341024160385" lon="0.273294970393181">
        <ele>67</ele>
        <time>2018-02-14T08:41:58Z</time>
      </trkpt>
      <trkpt lat="51.704343035817146" lon="0.273336041718721">
        <ele>67</ele>
        <time>2018-02-14T08:41:59Z</time>
      </trkpt>
      <trkpt lat="51.704345969483256" lon="0.273374011740088">
        <ele>67</ele>
        <time>2018-02-14T08:42:00Z</time>
      </trkpt>
      <trkpt lat="51.704346975311637" lon="0.273417010903358">
        <ele>67</ele>
        <time>2018-02-14T08:42:01Z</time>
      </trkpt>
      <trkpt lat="51.704350998625159" lon="0.273455986753106">
        <ele>67</ele>
        <time>2018-02-14T08:42:02Z</time>
      </trkpt>
      <trkpt lat="51.704349992796779" lon="0.273500997573137">
        <ele>67</ele>
        <time>2018-02-14T08:42:03Z</time>
      </trkpt>
      <trkpt lat="51.70435200445354" lon="0.273538967594504">
        <ele>67.217826048386101</ele>
        <time>2018-02-14T08:42:04Z</time>
      </trkpt>
      <trkpt lat="51.704350998625159" lon="0.273583978414536">
        <ele>68</ele>
        <time>2018-02-14T08:42:05Z</time>
      </trkpt>
      <trkpt lat="51.704348986968398" lon="0.273626977577806">
        <ele>68</ele>
        <time>2018-02-14T08:42:06Z</time>
      </trkpt>
      <trkpt lat="51.704346975311637" lon="0.273667965084314">
        <ele>68</ele>
        <time>2018-02-14T08:42:07Z</time>
      </trkpt>
      <trkpt lat="51.704343035817146" lon="0.273709036409855">
        <ele>68</ele>
        <time>2018-02-14T08:42:08Z</time>
      </trkpt>
      <trkpt lat="51.704341024160385" lon="0.273752035573125">
        <ele>67.920000000000002</ele>
        <time>2018-02-14T08:42:09Z</time>
      </trkpt>
      <trkpt lat="51.704338006675243" lon="0.273795034736395">
        <ele>67</ele>
        <time>2018-02-14T08:42:10Z</time>
      </trkpt>
      <trkpt lat="51.704337000846863" lon="0.273835016414523">
        <ele>67.1287101107647</ele>
        <time>2018-02-14T08:42:11Z</time>
      </trkpt>
      <trkpt lat="51.704330965876579" lon="0.273876003921032">
        <ele>68</ele>
        <time>2018-02-14T08:42:12Z</time>
      </trkpt>
      <trkpt lat="51.704326020553708" lon="0.273916991427541">
        <ele>68</ele>
        <time>2018-02-14T08:42:13Z</time>
      </trkpt>
      <trkpt lat="51.704319985583425" lon="0.27395797893405">
        <ele>68</ele>
        <time>2018-02-14T08:42:14Z</time>
      </trkpt>
      <trkpt lat="51.704313028603792" lon="0.273995026946068">
        <ele>68</ele>
        <time>2018-02-14T08:42:15Z</time>
      </trkpt>
      <trkpt lat="51.704305987805128" lon="0.274030985310674">
        <ele>68</ele>
        <time>2018-02-14T08:42:16Z</time>
      </trkpt>
      <trkpt lat="51.704297019168735" lon="0.27406401000917">
        <ele>68</ele>
        <time>2018-02-14T08:42:17Z</time>
      </trkpt>
      <trkpt lat="51.704286960884929" lon="0.274096028879285">
        <ele>68</ele>
        <time>2018-02-14T08:42:18Z</time>
      </trkpt>
      <trkpt lat="51.704275980591774" lon="0.274132993072271">
        <ele>68</ele>
        <time>2018-02-14T08:42:19Z</time>
      </trkpt>
      <trkpt lat="51.704268017783761" lon="0.274168029427528">
        <ele>68</ele>
        <time>2018-02-14T08:42:20Z</time>
      </trkpt>
      <trkpt lat="51.704260976985097" lon="0.274205999448895">
        <ele>68</ele>
        <time>2018-02-14T08:42:21Z</time>
      </trkpt>
      <trkpt lat="51.704256031662226" lon="0.274239024147391">
        <ele>68</ele>
        <time>2018-02-14T08:42:22Z</time>
      </trkpt>
      <trkpt lat="51.704248990863562" lon="0.274274982511997">
        <ele>68</ele>
        <time>2018-02-14T08:42:23Z</time>
      </trkpt>
      <trkpt lat="51.704239016398787" lon="0.274308007210493">
        <ele>68</ele>
        <time>2018-02-14T08:42:24Z</time>
      </trkpt>
      <trkpt lat="51.704229963943362" lon="0.274343965575099">
        <ele>68</ele>
        <time>2018-02-14T08:42:25Z</time>
      </trkpt>
      <trkpt lat="51.704218983650208" lon="0.274381013587117">
        <ele>68</ele>
        <time>2018-02-14T08:42:26Z</time>
      </trkpt>
      <trkpt lat="51.704210015013814" lon="0.274414960294962">
        <ele>68</ele>
        <time>2018-02-14T08:42:27Z</time>
      </trkpt>
      <trkpt lat="51.704201968386769" lon="0.27445200830698">
        <ele>68</ele>
        <time>2018-02-14T08:42:28Z</time>
      </trkpt>
      <trkpt lat="51.704195011407137" lon="0.274486960843205">
        <ele>68.209996799999999</ele>
        <time>2018-02-14T08:42:29Z</time>
      </trkpt>
      <trkpt lat="51.704186964780092" lon="0.274524008855224">
        <ele>69</ele>
        <time>2018-02-14T08:42:30Z</time>
      </trkpt>
      <trkpt lat="51.70418000780046" lon="0.274558961391449">
        <ele>69</ele>
        <time>2018-02-14T08:42:31Z</time>
      </trkpt>
      <trkpt lat="51.704169027507305" lon="0.274597015231848">
        <ele>69</ele>
        <time>2018-02-14T08:42:32Z</time>
      </trkpt>
      <trkpt lat="51.704158969223499" lon="0.274631967768073">
        <ele>69</ele>
        <time>2018-02-14T08:42:33Z</time>
      </trkpt>
      <trkpt lat="51.704150000587106" lon="0.27466700412333">
        <ele>69</ele>
        <time>2018-02-14T08:42:34Z</time>
      </trkpt>
      <trkpt lat="51.704141031950712" lon="0.274702962487936">
        <ele>69</ele>
        <time>2018-02-14T08:42:35Z</time>
      </trkpt>
      <trkpt lat="51.704132985323668" lon="0.274736993014812">
        <ele>69</ele>
        <time>2018-02-14T08:42:36Z</time>
      </trkpt>
      <trkpt lat="51.704126028344035" lon="0.274776974692941">
        <ele>69</ele>
        <time>2018-02-14T08:42:37Z</time>
      </trkpt>
      <trkpt lat="51.704118987545371" lon="0.274814022704959">
        <ele>69</ele>
        <time>2018-02-14T08:42:38Z</time>
      </trkpt>
      <trkpt lat="51.704113036394119" lon="0.274850986897945">
        <ele>69</ele>
        <time>2018-02-14T08:42:39Z</time>
      </trkpt>
      <trkpt lat="51.704103983938694" lon="0.274887029081583">
        <ele>69</ele>
        <time>2018-02-14T08:42:40Z</time>
      </trkpt>
      <trkpt lat="51.704098032787442" lon="0.27492399327457">
        <ele>69</ele>
        <time>2018-02-14T08:42:41Z</time>
      </trkpt>
      <trkpt lat="51.704091997817159" lon="0.274962969124317">
        <ele>69</ele>
        <time>2018-02-14T08:42:42Z</time>
      </trkpt>
      <trkpt lat="51.704086968675256" lon="0.275000017136335">
        <ele>69.089996799999994</ele>
        <time>2018-02-14T08:42:43Z</time>
      </trkpt>
      <trkpt lat="51.704081017524004" lon="0.275037987157702">
        <ele>70</ele>
        <time>2018-02-14T08:42:44Z</time>
      </trkpt>
      <trkpt lat="51.704076994210482" lon="0.275076040998101">
        <ele>70</ele>
        <time>2018-02-14T08:42:45Z</time>
      </trkpt>
      <trkpt lat="51.704071965068579" lon="0.275115016847849">
        <ele>70</ele>
        <time>2018-02-14T08:42:46Z</time>
      </trkpt>
      <trkpt lat="51.704067019745708" lon="0.275153992697597">
        <ele>69.910003200000006</ele>
        <time>2018-02-14T08:42:47Z</time>
      </trkpt>
      <trkpt lat="51.704062996432185" lon="0.275191040709615">
        <ele>69</ele>
        <time>2018-02-14T08:42:48Z</time>
      </trkpt>
      <trkpt lat="51.704056961461902" lon="0.275229010730982">
        <ele>69</ele>
        <time>2018-02-14T08:42:49Z</time>
      </trkpt>
      <trkpt lat="51.70405201613903" lon="0.275265974923968">
        <ele>69</ele>
        <time>2018-02-14T08:42:50Z</time>
      </trkpt>
      <trkpt lat="51.704046986997128" lon="0.275306962430477">
        <ele>69</ele>
        <time>2018-02-14T08:42:51Z</time>
      </trkpt>
      <trkpt lat="51.704042963683605" lon="0.275346022099257">
        <ele>69</ele>
        <time>2018-02-14T08:42:52Z</time>
      </trkpt>
      <trkpt lat="51.704041035845876" lon="0.275382986292243">
        <ele>69</ele>
        <time>2018-02-14T08:42:53Z</time>
      </trkpt>
      <trkpt lat="51.704038018360734" lon="0.275421962141991">
        <ele>69</ele>
        <time>2018-02-14T08:42:54Z</time>
      </trkpt>
      <trkpt lat="51.704033995047212" lon="0.275462027639151">
        <ele>69</ele>
        <time>2018-02-14T08:42:55Z</time>
      </trkpt>
      <trkpt lat="51.70403097756207" lon="0.27550402097404">
        <ele>69</ele>
        <time>2018-02-14T08:42:56Z</time>
      </trkpt>
      <trkpt lat="51.704028965905309" lon="0.275544002652168">
        <ele>69</ele>
        <time>2018-02-14T08:42:57Z</time>
      </trkpt>
      <trkpt lat="51.704025026410818" lon="0.275589013472199">
        <ele>69</ele>
        <time>2018-02-14T08:42:58Z</time>
      </trkpt>
      <trkpt lat="51.704023014754057" lon="0.275628995150328">
        <ele>69</ele>
        <time>2018-02-14T08:42:59Z</time>
      </trkpt>
      <trkpt lat="51.704019997268915" lon="0.275667971000075">
        <ele>70</ele>
        <time>2018-02-14T08:43:00Z</time>
      </trkpt>
      <trkpt lat="51.704015973955393" lon="0.275708036497235">
        <ele>70</ele>
        <time>2018-02-14T08:43:01Z</time>
      </trkpt>
      <trkpt lat="51.704012034460902" lon="0.275748018175364">
        <ele>70.201838956280795</ele>
        <time>2018-02-14T08:43:02Z</time>
      </trkpt>
      <trkpt lat="51.704010022804141" lon="0.275783976539969">
        <ele>71</ele>
        <time>2018-02-14T08:43:03Z</time>
      </trkpt>
      <trkpt lat="51.70400801114738" lon="0.275821024551988">
        <ele>71</ele>
        <time>2018-02-14T08:43:04Z</time>
      </trkpt>
      <trkpt lat="51.70400801114738" lon="0.275858994573355">
        <ele>70.873789906672101</ele>
        <time>2018-02-14T08:43:05Z</time>
      </trkpt>
      <trkpt lat="51.704011028632522" lon="0.275896964594722">
        <ele>70</ele>
        <time>2018-02-14T08:43:06Z</time>
      </trkpt>
      <trkpt lat="51.704013040289283" lon="0.275937030091882">
        <ele>70</ele>
        <time>2018-02-14T08:43:07Z</time>
      </trkpt>
      <trkpt lat="51.704012034460902" lon="0.275978017598391">
        <ele>70</ele>
        <time>2018-02-14T08:43:08Z</time>
      </trkpt>
      <trkpt lat="51.704012034460902" lon="0.276016993448138">
        <ele>70</ele>
        <time>2018-02-14T08:43:09Z</time>
      </trkpt>
      <trkpt lat="51.704012034460902" lon="0.276053035631776">
        <ele>69.927080000000004</ele>
        <time>2018-02-14T08:43:10Z</time>
      </trkpt>
      <trkpt lat="51.704012034460902" lon="0.276092011481524">
        <ele>69</ele>
        <time>2018-02-14T08:43:11Z</time>
      </trkpt>
      <trkpt lat="51.704013040289283" lon="0.276129981502891">
        <ele>69</ele>
        <time>2018-02-14T08:43:12Z</time>
      </trkpt>
      <trkpt lat="51.704014968127012" lon="0.276169963181019">
        <ele>70</ele>
        <time>2018-02-14T08:43:13Z</time>
      </trkpt>
      <trkpt lat="51.704014968127012" lon="0.276207011193037">
        <ele>70</ele>
        <time>2018-02-14T08:43:14Z</time>
      </trkpt>
      <trkpt lat="51.704016979783773" lon="0.276245987042785">
        <ele>70</ele>
        <time>2018-02-14T08:43:15Z</time>
      </trkpt>
      <trkpt lat="51.704018991440535" lon="0.276284962892532">
        <ele>70</ele>
        <time>2018-02-14T08:43:16Z</time>
      </trkpt>
      <trkpt lat="51.704021003097296" lon="0.276324022561312">
        <ele>70</ele>
        <time>2018-02-14T08:43:17Z</time>
      </trkpt>
      <trkpt lat="51.704024020582438" lon="0.27636400423944">
        <ele>70</ele>
        <time>2018-02-14T08:43:18Z</time>
      </trkpt>
      <trkpt lat="51.704024020582438" lon="0.276402980089188">
        <ele>70</ele>
        <time>2018-02-14T08:43:19Z</time>
      </trkpt>
      <trkpt lat="51.704025026410818" lon="0.276442039757967">
        <ele>70</ele>
        <time>2018-02-14T08:43:20Z</time>
      </trkpt>
      <trkpt lat="51.704026032239199" lon="0.276480009779334">
        <ele>70</ele>
        <time>2018-02-14T08:43:21Z</time>
      </trkpt>
      <trkpt lat="51.704026032239199" lon="0.276517979800701">
        <ele>70</ele>
        <time>2018-02-14T08:43:22Z</time>
      </trkpt>
      <trkpt lat="51.704026032239199" lon="0.276554021984339">
        <ele>70</ele>
        <time>2018-02-14T08:43:23Z</time>
      </trkpt>
      <trkpt lat="51.704027038067579" lon="0.276589980348945">
        <ele>70</ele>
        <time>2018-02-14T08:43:24Z</time>
      </trkpt>
      <trkpt lat="51.704028965905309" lon="0.276627028360963">
        <ele>70</ele>
        <time>2018-02-14T08:43:25Z</time>
      </trkpt>
      <trkpt lat="51.704029971733689" lon="0.276662986725569">
        <ele>71</ele>
        <time>2018-02-14T08:43:26Z</time>
      </trkpt>
      <trkpt lat="51.70403097756207" lon="0.276701040565968">
        <ele>71</ele>
        <time>2018-02-14T08:43:27Z</time>
      </trkpt>
      <trkpt lat="51.704033995047212" lon="0.276739010587335">
        <ele>71</ele>
        <time>2018-02-14T08:43:28Z</time>
      </trkpt>
      <trkpt lat="51.704036006703973" lon="0.276779998093843">
        <ele>71</ele>
        <time>2018-02-14T08:43:29Z</time>
      </trkpt>
      <trkpt lat="51.704038018360734" lon="0.276818973943591">
        <ele>71</ele>
        <time>2018-02-14T08:43:30Z</time>
      </trkpt>
      <trkpt lat="51.704040030017495" lon="0.27685803361237">
        <ele>71</ele>
        <time>2018-02-14T08:43:31Z</time>
      </trkpt>
      <trkpt lat="51.704042041674256" lon="0.276897009462118">
        <ele>71</ele>
        <time>2018-02-14T08:43:32Z</time>
      </trkpt>
      <trkpt lat="51.704042963683605" lon="0.276935985311866">
        <ele>71</ele>
        <time>2018-02-14T08:43:33Z</time>
      </trkpt>
      <trkpt lat="51.704043969511986" lon="0.276975966989994">
        <ele>71</ele>
        <time>2018-02-14T08:43:34Z</time>
      </trkpt>
      <trkpt lat="51.704042963683605" lon="0.277013015002012">
        <ele>71</ele>
        <time>2018-02-14T08:43:35Z</time>
      </trkpt>
      <trkpt lat="51.704044975340366" lon="0.277052996680141">
        <ele>71</ele>
        <time>2018-02-14T08:43:36Z</time>
      </trkpt>
      <trkpt lat="51.704045981168747" lon="0.277092978358269">
        <ele>71</ele>
        <time>2018-02-14T08:43:37Z</time>
      </trkpt>
      <trkpt lat="51.704045981168747" lon="0.277132038027048">
        <ele>71</ele>
        <time>2018-02-14T08:43:38Z</time>
      </trkpt>
      <trkpt lat="51.704045981168747" lon="0.277169002220035">
        <ele>71</ele>
        <time>2018-02-14T08:43:39Z</time>
      </trkpt>
      <trkpt lat="51.704046986997128" lon="0.277209989726543">
        <ele>71</ele>
        <time>2018-02-14T08:43:40Z</time>
      </trkpt>
      <trkpt lat="51.70405101031065" lon="0.277249971404672">
        <ele>71</ele>
        <time>2018-02-14T08:43:41Z</time>
      </trkpt>
      <trkpt lat="51.704053021967411" lon="0.277289031073451">
        <ele>71</ele>
        <time>2018-02-14T08:43:42Z</time>
      </trkpt>
      <trkpt lat="51.704054027795792" lon="0.277328006923199">
        <ele>71.175255011150597</ele>
        <time>2018-02-14T08:43:43Z</time>
      </trkpt>
      <trkpt lat="51.704056039452553" lon="0.277366982772946">
        <ele>72</ele>
        <time>2018-02-14T08:43:44Z</time>
      </trkpt>
      <trkpt lat="51.704056961461902" lon="0.277405958622694">
        <ele>72</ele>
        <time>2018-02-14T08:43:45Z</time>
      </trkpt>
      <trkpt lat="51.704058973118663" lon="0.277442000806332">
        <ele>72</ele>
        <time>2018-02-14T08:43:46Z</time>
      </trkpt>
      <trkpt lat="51.704060984775424" lon="0.277480976656079">
        <ele>72</ele>
        <time>2018-02-14T08:43:47Z</time>
      </trkpt>
      <trkpt lat="51.704062996432185" lon="0.277518024668098">
        <ele>72</ele>
        <time>2018-02-14T08:43:48Z</time>
      </trkpt>
      <trkpt lat="51.704062996432185" lon="0.277557000517845">
        <ele>72</ele>
        <time>2018-02-14T08:43:49Z</time>
      </trkpt>
      <trkpt lat="51.704062996432185" lon="0.277592958882451">
        <ele>72</ele>
        <time>2018-02-14T08:43:50Z</time>
      </trkpt>
      <trkpt lat="51.704061990603805" lon="0.27763101272285">
        <ele>72</ele>
        <time>2018-02-14T08:43:51Z</time>
      </trkpt>
      <trkpt lat="51.704059978947043" lon="0.277668982744217">
        <ele>72</ele>
        <time>2018-02-14T08:43:52Z</time>
      </trkpt>
      <trkpt lat="51.704059978947043" lon="0.277707036584616">
        <ele>72</ele>
        <time>2018-02-14T08:43:53Z</time>
      </trkpt>
      <trkpt lat="51.704059978947043" lon="0.277744000777602">
        <ele>72</ele>
        <time>2018-02-14T08:43:54Z</time>
      </trkpt>
      <trkpt lat="51.704059978947043" lon="0.277779959142208">
        <ele>72</ele>
        <time>2018-02-14T08:43:55Z</time>
      </trkpt>
      <trkpt lat="51.704059978947043" lon="0.277819018810987">
        <ele>72</ele>
        <time>2018-02-14T08:43:56Z</time>
      </trkpt>
      <trkpt lat="51.704058973118663" lon="0.277856988832355">
        <ele>72</ele>
        <time>2018-02-14T08:43:57Z</time>
      </trkpt>
      <trkpt lat="51.704058973118663" lon="0.277896970510483">
        <ele>72</ele>
        <time>2018-02-14T08:43:58Z</time>
      </trkpt>
      <trkpt lat="51.704057967290282" lon="0.277936030179262">
        <ele>72</ele>
        <time>2018-02-14T08:43:59Z</time>
      </trkpt>
      <trkpt lat="51.704057967290282" lon="0.277972994372249">
        <ele>72</ele>
        <time>2018-02-14T08:44:00Z</time>
      </trkpt>
      <trkpt lat="51.704057967290282" lon="0.278010964393616">
        <ele>72</ele>
        <time>2018-02-14T08:44:01Z</time>
      </trkpt>
      <trkpt lat="51.704057967290282" lon="0.278048012405634">
        <ele>72</ele>
        <time>2018-02-14T08:44:02Z</time>
      </trkpt>
      <trkpt lat="51.704057967290282" lon="0.278086988255382">
        <ele>72</ele>
        <time>2018-02-14T08:44:03Z</time>
      </trkpt>
      <trkpt lat="51.704060984775424" lon="0.2781240362674">
        <ele>72</ele>
        <time>2018-02-14T08:44:04Z</time>
      </trkpt>
      <trkpt lat="51.704062996432185" lon="0.278164017945528">
        <ele>72</ele>
        <time>2018-02-14T08:44:05Z</time>
      </trkpt>
      <trkpt lat="51.704066013917327" lon="0.278200982138515">
        <ele>72</ele>
        <time>2018-02-14T08:44:06Z</time>
      </trkpt>
      <trkpt lat="51.704069031402469" lon="0.278238030150533">
        <ele>72</ele>
        <time>2018-02-14T08:44:07Z</time>
      </trkpt>
      <trkpt lat="51.704070959240198" lon="0.2782760001719">
        <ele>72</ele>
        <time>2018-02-14T08:44:08Z</time>
      </trkpt>
      <trkpt lat="51.70407397672534" lon="0.278313970193267">
        <ele>72</ele>
        <time>2018-02-14T08:44:09Z</time>
      </trkpt>
      <trkpt lat="51.70407498255372" lon="0.278352024033666">
        <ele>72</ele>
        <time>2018-02-14T08:44:10Z</time>
      </trkpt>
      <trkpt lat="51.704075988382101" lon="0.278388988226652">
        <ele>72</ele>
        <time>2018-02-14T08:44:11Z</time>
      </trkpt>
      <trkpt lat="51.704075988382101" lon="0.27842896990478">
        <ele>72</ele>
        <time>2018-02-14T08:44:12Z</time>
      </trkpt>
      <trkpt lat="51.704076994210482" lon="0.278466017916799">
        <ele>72</ele>
        <time>2018-02-14T08:44:13Z</time>
      </trkpt>
      <trkpt lat="51.704076994210482" lon="0.278503987938166">
        <ele>72</ele>
        <time>2018-02-14T08:44:14Z</time>
      </trkpt>
      <trkpt lat="51.704079005867243" lon="0.278542041778564">
        <ele>72</ele>
        <time>2018-02-14T08:44:15Z</time>
      </trkpt>
      <trkpt lat="51.704082023352385" lon="0.278579005971551">
        <ele>72</ele>
        <time>2018-02-14T08:44:16Z</time>
      </trkpt>
      <trkpt lat="51.704085040837526" lon="0.278614964336157">
        <ele>72</ele>
        <time>2018-02-14T08:44:17Z</time>
      </trkpt>
      <trkpt lat="51.704090991988778" lon="0.278648994863033">
        <ele>72</ele>
        <time>2018-02-14T08:44:18Z</time>
      </trkpt>
      <trkpt lat="51.7040950153023" lon="0.27868403121829">
        <ele>72</ele>
        <time>2018-02-14T08:44:19Z</time>
      </trkpt>
      <trkpt lat="51.704101972281933" lon="0.278758965432644">
        <ele>72.3750133333333</ele>
        <time>2018-02-14T08:44:21Z</time>
      </trkpt>
      <trkpt lat="51.704101972281933" lon="0.278798025101423">
        <ele>74</ele>
        <time>2018-02-14T08:44:22Z</time>
      </trkpt>
      <trkpt lat="51.704101972281933" lon="0.27883498929441">
        <ele>74</ele>
        <time>2018-02-14T08:44:23Z</time>
      </trkpt>
      <trkpt lat="51.704103983938694" lon="0.278872959315777">
        <ele>74</ele>
        <time>2018-02-14T08:44:24Z</time>
      </trkpt>
      <trkpt lat="51.704108007252216" lon="0.278909001499414">
        <ele>74</ele>
        <time>2018-02-14T08:44:25Z</time>
      </trkpt>
      <trkpt lat="51.704111024737358" lon="0.278945965692401">
        <ele>74</ele>
        <time>2018-02-14T08:44:26Z</time>
      </trkpt>
      <trkpt lat="51.704113036394119" lon="0.278981002047658">
        <ele>74</ele>
        <time>2018-02-14T08:44:27Z</time>
      </trkpt>
      <trkpt lat="51.704115970060229" lon="0.279016960412264">
        <ele>74</ele>
        <time>2018-02-14T08:44:28Z</time>
      </trkpt>
      <trkpt lat="51.704120999202132" lon="0.27905099093914">
        <ele>74</ele>
        <time>2018-02-14T08:44:29Z</time>
      </trkpt>
      <trkpt lat="51.704126028344035" lon="0.279087033122778">
        <ele>74</ele>
        <time>2018-02-14T08:44:30Z</time>
      </trkpt>
      <trkpt lat="51.704129967838526" lon="0.279123997315764">
        <ele>74</ele>
        <time>2018-02-14T08:44:31Z</time>
      </trkpt>
      <trkpt lat="51.704131979495287" lon="0.279161967337132">
        <ele>74</ele>
        <time>2018-02-14T08:44:32Z</time>
      </trkpt>
      <trkpt lat="51.704132985323668" lon="0.27919901534915">
        <ele>74</ele>
        <time>2018-02-14T08:44:33Z</time>
      </trkpt>
      <trkpt lat="51.704133991152048" lon="0.279234973713756">
        <ele>74</ele>
        <time>2018-02-14T08:44:34Z</time>
      </trkpt>
      <trkpt lat="51.704136002808809" lon="0.279273027554154">
        <ele>74</ele>
        <time>2018-02-14T08:44:35Z</time>
      </trkpt>
      <trkpt lat="51.704139020293951" lon="0.27930898591876">
        <ele>74</ele>
        <time>2018-02-14T08:44:36Z</time>
      </trkpt>
      <trkpt lat="51.704142959788442" lon="0.279347961768508">
        <ele>73.825237047807207</ele>
        <time>2018-02-14T08:44:37Z</time>
      </trkpt>
      <trkpt lat="51.704148994758725" lon="0.279384003952146">
        <ele>73</ele>
        <time>2018-02-14T08:44:38Z</time>
      </trkpt>
      <trkpt lat="51.704153018072248" lon="0.279420968145132">
        <ele>73</ele>
        <time>2018-02-14T08:44:39Z</time>
      </trkpt>
      <trkpt lat="51.704157963395119" lon="0.27945801615715">
        <ele>73</ele>
        <time>2018-02-14T08:44:40Z</time>
      </trkpt>
      <trkpt lat="51.704165004193783" lon="0.279492968693376">
        <ele>73</ele>
        <time>2018-02-14T08:44:41Z</time>
      </trkpt>
      <trkpt lat="51.704169027507305" lon="0.279528005048633">
        <ele>73</ele>
        <time>2018-02-14T08:44:42Z</time>
      </trkpt>
      <trkpt lat="51.704172967001796" lon="0.27956304140389">
        <ele>73</ele>
        <time>2018-02-14T08:44:43Z</time>
      </trkpt>
      <trkpt lat="51.704176990315318" lon="0.279601011425257">
        <ele>73</ele>
        <time>2018-02-14T08:44:44Z</time>
      </trkpt>
      <trkpt lat="51.704183025285602" lon="0.279635963961482">
        <ele>73</ele>
        <time>2018-02-14T08:44:45Z</time>
      </trkpt>
      <trkpt lat="51.704186964780092" lon="0.2796730119735">
        <ele>73</ele>
        <time>2018-02-14T08:44:46Z</time>
      </trkpt>
      <trkpt lat="51.704191993921995" lon="0.279709976166487">
        <ele>73</ele>
        <time>2018-02-14T08:44:47Z</time>
      </trkpt>
      <trkpt lat="51.704197023063898" lon="0.279746018350124">
        <ele>73</ele>
        <time>2018-02-14T08:44:48Z</time>
      </trkpt>
      <trkpt lat="51.704200962558389" lon="0.279782982543111">
        <ele>72.8499968</ele>
        <time>2018-02-14T08:44:49Z</time>
      </trkpt>
      <trkpt lat="51.704204985871911" lon="0.279819024726748">
        <ele>72</ele>
        <time>2018-02-14T08:44:50Z</time>
      </trkpt>
      <trkpt lat="51.704209009185433" lon="0.279854983091354">
        <ele>72</ele>
        <time>2018-02-14T08:44:51Z</time>
      </trkpt>
      <trkpt lat="51.704211020842195" lon="0.279891025274992">
        <ele>72</ele>
        <time>2018-02-14T08:44:52Z</time>
      </trkpt>
      <trkpt lat="51.704215966165066" lon="0.279922960326076">
        <ele>72</ele>
        <time>2018-02-14T08:44:53Z</time>
      </trkpt>
      <trkpt lat="51.704220995306969" lon="0.279956990852952">
        <ele>72</ele>
        <time>2018-02-14T08:44:54Z</time>
      </trkpt>
      <trkpt lat="51.704226024448872" lon="0.279990015551448">
        <ele>72</ele>
        <time>2018-02-14T08:44:55Z</time>
      </trkpt>
      <trkpt lat="51.704228958114982" lon="0.280024968087673">
        <ele>72.350510022301094</ele>
        <time>2018-02-14T08:44:56Z</time>
      </trkpt>
      <trkpt lat="51.704231975600123" lon="0.280057992786169">
        <ele>74</ele>
        <time>2018-02-14T08:44:57Z</time>
      </trkpt>
      <trkpt lat="51.704233987256885" lon="0.280093029141426">
        <ele>74</ele>
        <time>2018-02-14T08:44:58Z</time>
      </trkpt>
      <trkpt lat="51.704234993085265" lon="0.280128987506032">
        <ele>74</ele>
        <time>2018-02-14T08:44:59Z</time>
      </trkpt>
      <trkpt lat="51.704239016398787" lon="0.280164023861289">
        <ele>74</ele>
        <time>2018-02-14T08:45:00Z</time>
      </trkpt>
      <trkpt lat="51.704242033883929" lon="0.280199982225895">
        <ele>74</ele>
        <time>2018-02-14T08:45:01Z</time>
      </trkpt>
      <trkpt lat="51.70424303971231" lon="0.280235018581152">
        <ele>74</ele>
        <time>2018-02-14T08:45:02Z</time>
      </trkpt>
      <trkpt lat="51.704242033883929" lon="0.280270976945758">
        <ele>74</ele>
        <time>2018-02-14T08:45:03Z</time>
      </trkpt>
      <trkpt lat="51.704241028055549" lon="0.280306013301015">
        <ele>74</ele>
        <time>2018-02-14T08:45:04Z</time>
      </trkpt>
      <trkpt lat="51.704243961721659" lon="0.28033803217113">
        <ele>74</ele>
        <time>2018-02-14T08:45:05Z</time>
      </trkpt>
      <trkpt lat="51.7042469792068" lon="0.280367033556104">
        <ele>74</ele>
        <time>2018-02-14T08:45:06Z</time>
      </trkpt>
      <trkpt lat="51.704252008348703" lon="0.280397040769458">
        <ele>73</ele>
        <time>2018-02-14T08:45:10Z</time>
      </trkpt>
      <trkpt lat="51.704254020005465" lon="0.2804259583354">
        <ele>73</ele>
        <time>2018-02-14T08:45:12Z</time>
      </trkpt>
      <trkpt lat="51.704255025833845" lon="0.280463006347418">
        <ele>73</ele>
        <time>2018-02-14T08:45:14Z</time>
      </trkpt>
      <trkpt lat="51.704255025833845" lon="0.280508017167449">
        <ele>74</ele>
        <time>2018-02-14T08:45:16Z</time>
      </trkpt>
      <trkpt lat="51.704257037490606" lon="0.280551016330719">
        <ele>74</ele>
        <time>2018-02-14T08:45:18Z</time>
      </trkpt>
      <trkpt lat="51.704257959499955" lon="0.280592003837228">
        <ele>74</ele>
        <time>2018-02-14T08:45:20Z</time>
      </trkpt>
      <trkpt lat="51.704260976985097" lon="0.280627962201834">
        <ele>74.175255011150597</ele>
        <time>2018-02-14T08:45:22Z</time>
      </trkpt>
      <trkpt lat="51.704262988641858" lon="0.280670039355755">
        <ele>75</ele>
        <time>2018-02-14T08:45:24Z</time>
      </trkpt>
      <trkpt lat="51.704262988641858" lon="0.280713038519025">
        <ele>74.830003199999993</ele>
        <time>2018-02-14T08:45:26Z</time>
      </trkpt>
      <trkpt lat="51.704262988641858" lon="0.280744973570108">
        <ele>74</ele>
        <time>2018-02-14T08:45:27Z</time>
      </trkpt>
      <trkpt lat="51.704260976985097" lon="0.280781015753746">
        <ele>74</ele>
        <time>2018-02-14T08:45:28Z</time>
      </trkpt>
      <trkpt lat="51.704258965328336" lon="0.280815968289971">
        <ele>74</ele>
        <time>2018-02-14T08:45:29Z</time>
      </trkpt>
      <trkpt lat="51.704259971156716" lon="0.280851004645228">
        <ele>74</ele>
        <time>2018-02-14T08:45:30Z</time>
      </trkpt>
      <trkpt lat="51.704260976985097" lon="0.280885035172105">
        <ele>74</ele>
        <time>2018-02-14T08:45:31Z</time>
      </trkpt>
      <trkpt lat="51.704259971156716" lon="0.28091898187995">
        <ele>74</ele>
        <time>2018-02-14T08:45:32Z</time>
      </trkpt>
      <trkpt lat="51.704257959499955" lon="0.280955024063587">
        <ele>74.071431370244099</ele>
        <time>2018-02-14T08:45:33Z</time>
      </trkpt>
      <trkpt lat="51.704257037490606" lon="0.280989976599813">
        <ele>75</ele>
        <time>2018-02-14T08:45:34Z</time>
      </trkpt>
      <trkpt lat="51.704257037490606" lon="0.281024007126689">
        <ele>75</ele>
        <time>2018-02-14T08:45:35Z</time>
      </trkpt>
      <trkpt lat="51.704256031662226" lon="0.281058037653565">
        <ele>75</ele>
        <time>2018-02-14T08:45:36Z</time>
      </trkpt>
      <trkpt lat="51.704253014177084" lon="0.281093996018171">
        <ele>75</ele>
        <time>2018-02-14T08:45:37Z</time>
      </trkpt>
      <trkpt lat="51.704247985035181" lon="0.281128026545048">
        <ele>74.911767289520199</ele>
        <time>2018-02-14T08:45:38Z</time>
      </trkpt>
      <trkpt lat="51.70424597337842" lon="0.281157027930021">
        <ele>74</ele>
        <time>2018-02-14T08:45:39Z</time>
      </trkpt>
      <trkpt lat="51.704241028055549" lon="0.281188040971756">
        <ele>74</ele>
        <time>2018-02-14T08:45:40Z</time>
      </trkpt>
      <trkpt lat="51.704239016398787" lon="0.28121997602284">
        <ele>74</ele>
        <time>2018-02-14T08:45:41Z</time>
      </trkpt>
      <trkpt lat="51.704241028055549" lon="0.281250989064574">
        <ele>74</ele>
        <time>2018-02-14T08:45:42Z</time>
      </trkpt>
      <trkpt lat="51.704244967550039" lon="0.281280996277928">
        <ele>73.799999999999997</ele>
        <time>2018-02-14T08:45:43Z</time>
      </trkpt>
      <trkpt lat="51.704251002520323" lon="0.281314020976424">
        <ele>73</ele>
        <time>2018-02-14T08:45:44Z</time>
      </trkpt>
      <trkpt lat="51.704251002520323" lon="0.281346961855888">
        <ele>73</ele>
        <time>2018-02-14T08:45:45Z</time>
      </trkpt>
      <trkpt lat="51.704253014177084" lon="0.281378980726004">
        <ele>73</ele>
        <time>2018-02-14T08:45:46Z</time>
      </trkpt>
      <trkpt lat="51.704255025833845" lon="0.281407982110977">
        <ele>73</ele>
        <time>2018-02-14T08:45:47Z</time>
      </trkpt>
      <trkpt lat="51.704251002520323" lon="0.281437989324331">
        <ele>73</ele>
        <time>2018-02-14T08:45:48Z</time>
      </trkpt>
      <trkpt lat="51.704240022227168" lon="0.28147797100246">
        <ele>73.914060000000006</ele>
        <time>2018-02-14T08:45:50Z</time>
      </trkpt>
      <trkpt lat="51.704240022227168" lon="0.281518958508968">
        <ele>74</ele>
        <time>2018-02-14T08:45:52Z</time>
      </trkpt>
      <trkpt lat="51.704243961721659" lon="0.281559024006128">
        <ele>74</ele>
        <time>2018-02-14T08:45:54Z</time>
      </trkpt>
      <trkpt lat="51.70424303971231" lon="0.281600011512637">
        <ele>73</ele>
        <time>2018-02-14T08:45:56Z</time>
      </trkpt>
      <trkpt lat="51.70424303971231" lon="0.281639993190765">
        <ele>73</ele>
        <time>2018-02-14T08:45:58Z</time>
      </trkpt>
      <trkpt lat="51.704244967550039" lon="0.281677041202784">
        <ele>73</ele>
        <time>2018-02-14T08:46:00Z</time>
      </trkpt>
      <trkpt lat="51.70424303971231" lon="0.281712999567389">
        <ele>73</ele>
        <time>2018-02-14T08:46:02Z</time>
      </trkpt>
      <trkpt lat="51.704241028055549" lon="0.281752981245518">
        <ele>73</ele>
        <time>2018-02-14T08:46:04Z</time>
      </trkpt>
      <trkpt lat="51.704241028055549" lon="0.281793968752027">
        <ele>73</ele>
        <time>2018-02-14T08:46:06Z</time>
      </trkpt>
      <trkpt lat="51.704241028055549" lon="0.281832022592425">
        <ele>73</ele>
        <time>2018-02-14T08:46:08Z</time>
      </trkpt>
      <trkpt lat="51.704241028055549" lon="0.281893964856863">
        <ele>73</ele>
        <time>2018-02-14T08:46:11Z</time>
      </trkpt>
      <trkpt lat="51.704240022227168" lon="0.281933024525642">
        <ele>73</ele>
        <time>2018-02-14T08:46:13Z</time>
      </trkpt>
      <trkpt lat="51.704238010570407" lon="0.281974012032151">
        <ele>73</ele>
        <time>2018-02-14T08:46:15Z</time>
      </trkpt>
      <trkpt lat="51.704239016398787" lon="0.282017011195421">
        <ele>73</ele>
        <time>2018-02-14T08:46:17Z</time>
      </trkpt>
      <trkpt lat="51.704237004742026" lon="0.282056992873549">
        <ele>73</ele>
        <time>2018-02-14T08:46:19Z</time>
      </trkpt>
      <trkpt lat="51.704235998913646" lon="0.282094040885568">
        <ele>73</ele>
        <time>2018-02-14T08:46:21Z</time>
      </trkpt>
      <trkpt lat="51.704232981428504" lon="0.282135028392076">
        <ele>73</ele>
        <time>2018-02-14T08:46:23Z</time>
      </trkpt>
      <trkpt lat="51.704229963943362" lon="0.282171992585063">
        <ele>73.059994367927899</ele>
        <time>2018-02-14T08:46:25Z</time>
      </trkpt>
      <trkpt lat="51.704226024448872" lon="0.282212980091572">
        <ele>74</ele>
        <time>2018-02-14T08:46:27Z</time>
      </trkpt>
      <trkpt lat="51.70422401279211" lon="0.282252039760351">
        <ele>74</ele>
        <time>2018-02-14T08:46:29Z</time>
      </trkpt>
      <trkpt lat="51.704226024448872" lon="0.28229302726686">
        <ele>74</ele>
        <time>2018-02-14T08:46:31Z</time>
      </trkpt>
      <trkpt lat="51.704226024448872" lon="0.282335020601749">
        <ele>74</ele>
        <time>2018-02-14T08:46:33Z</time>
      </trkpt>
      <trkpt lat="51.704228958114982" lon="0.282375002279878">
        <ele>74</ele>
        <time>2018-02-14T08:46:35Z</time>
      </trkpt>
      <trkpt lat="51.704229963943362" lon="0.282414983958006">
        <ele>74</ele>
        <time>2018-02-14T08:46:37Z</time>
      </trkpt>
      <trkpt lat="51.704228958114982" lon="0.282457983121276">
        <ele>74</ele>
        <time>2018-02-14T08:46:39Z</time>
      </trkpt>
      <trkpt lat="51.704227030277252" lon="0.282499976456165">
        <ele>74</ele>
        <time>2018-02-14T08:46:41Z</time>
      </trkpt>
      <trkpt lat="51.70422401279211" lon="0.282541969791055">
        <ele>74</ele>
        <time>2018-02-14T08:46:43Z</time>
      </trkpt>
      <trkpt lat="51.704222001135349" lon="0.282583041116595">
        <ele>75</ele>
        <time>2018-02-14T08:46:45Z</time>
      </trkpt>
      <trkpt lat="51.704222001135349" lon="0.282625034451485">
        <ele>75</ele>
        <time>2018-02-14T08:46:47Z</time>
      </trkpt>
      <trkpt lat="51.704222001135349" lon="0.282668033614755">
        <ele>75</ele>
        <time>2018-02-14T08:46:49Z</time>
      </trkpt>
      <trkpt lat="51.704220995306969" lon="0.282711032778025">
        <ele>75</ele>
        <time>2018-02-14T08:46:51Z</time>
      </trkpt>
      <trkpt lat="51.70422401279211" lon="0.282753026112914">
        <ele>76</ele>
        <time>2018-02-14T08:46:53Z</time>
      </trkpt>
      <trkpt lat="51.70422300696373" lon="0.282793007791042">
        <ele>76</ele>
        <time>2018-02-14T08:46:55Z</time>
      </trkpt>
      <trkpt lat="51.704218983650208" lon="0.282830977812409">
        <ele>76</ele>
        <time>2018-02-14T08:46:57Z</time>
      </trkpt>
      <trkpt lat="51.704220995306969" lon="0.282870959490538">
        <ele>76</ele>
        <time>2018-02-14T08:46:59Z</time>
      </trkpt>
      <trkpt lat="51.704222001135349" lon="0.282910019159317">
        <ele>76</ele>
        <time>2018-02-14T08:47:01Z</time>
      </trkpt>
      <trkpt lat="51.704228036105633" lon="0.282944971695542">
        <ele>76</ele>
        <time>2018-02-14T08:47:03Z</time>
      </trkpt>
      <trkpt lat="51.704232981428504" lon="0.282982019707561">
        <ele>76</ele>
        <time>2018-02-14T08:47:05Z</time>
      </trkpt>
      <trkpt lat="51.704233987256885" lon="0.283020995557308">
        <ele>76</ele>
        <time>2018-02-14T08:47:07Z</time>
      </trkpt>
      <trkpt lat="51.704234993085265" lon="0.283062988892198">
        <ele>76.060005631927893</ele>
        <time>2018-02-14T08:47:10Z</time>
      </trkpt>
      <trkpt lat="51.704235998913646" lon="0.283101964741945">
        <ele>77</ele>
        <time>2018-02-14T08:47:12Z</time>
      </trkpt>
      <trkpt lat="51.704225018620491" lon="0.283133983612061">
        <ele>77</ele>
        <time>2018-02-14T08:47:14Z</time>
      </trkpt>
      <trkpt lat="51.704205991700292" lon="0.283167008310556">
        <ele>77</ele>
        <time>2018-02-14T08:47:16Z</time>
      </trkpt>
      <trkpt lat="51.704184031113982" lon="0.283198021352291">
        <ele>77</ele>
        <time>2018-02-14T08:47:18Z</time>
      </trkpt>
      <trkpt lat="51.704162992537022" lon="0.283224005252123">
        <ele>77</ele>
        <time>2018-02-14T08:47:20Z</time>
      </trkpt>
      <trkpt lat="51.704144971445203" lon="0.283249989151955">
        <ele>77</ele>
        <time>2018-02-14T08:47:22Z</time>
      </trkpt>
      <trkpt lat="51.704124016687274" lon="0.283276978880167">
        <ele>77</ele>
        <time>2018-02-14T08:47:24Z</time>
      </trkpt>
      <trkpt lat="51.704098032787442" lon="0.283284019678831">
        <ele>77</ele>
        <time>2018-02-14T08:47:26Z</time>
      </trkpt>
      <trkpt lat="51.704081017524004" lon="0.283272033557296">
        <ele>77</ele>
        <time>2018-02-14T08:47:28Z</time>
      </trkpt>
      <trkpt lat="51.704060984775424" lon="0.283257029950619">
        <ele>77</ele>
        <time>2018-02-14T08:47:39Z</time>
      </trkpt>
      <trkpt lat="51.704036006703973" lon="0.283258035778999">
        <ele>77</ele>
        <time>2018-02-14T08:47:42Z</time>
      </trkpt>
      <trkpt lat="51.704007005318999" lon="0.283254012465477">
        <ele>77</ele>
        <time>2018-02-14T08:47:46Z</time>
      </trkpt>
      <trkpt lat="51.7039879783988" lon="0.283260969445109">
        <ele>77</ele>
        <time>2018-02-14T08:48:05Z</time>
      </trkpt>
      <trkpt lat="51.703975992277265" lon="0.28328200802207">
        <ele>78</ele>
        <time>2018-02-14T08:49:04Z</time>
      </trkpt>
      <trkpt lat="51.703957971185446" lon="0.283281002193689">
        <ele>77</ele>
        <time>2018-02-14T08:49:51Z</time>
      </trkpt>
      <trkpt lat="51.703933998942375" lon="0.283278990536928">
        <ele>77.020216139260995</ele>
        <time>2018-02-14T08:49:54Z</time>
      </trkpt>
      <trkpt lat="51.703909020870924" lon="0.28328200802207">
        <ele>78</ele>
        <time>2018-02-14T08:49:56Z</time>
      </trkpt>
      <trkpt lat="51.703874990344048" lon="0.283283013850451">
        <ele>78</ele>
        <time>2018-02-14T08:49:59Z</time>
      </trkpt>
      <trkpt lat="51.703855963423848" lon="0.283285025507212">
        <ele>77.870003199999999</ele>
        <time>2018-02-14T08:50:01Z</time>
      </trkpt>
      <trkpt lat="51.703838026151061" lon="0.283278990536928">
        <ele>77</ele>
        <time>2018-02-14T08:50:03Z</time>
      </trkpt>
      <trkpt lat="51.7038169875741" lon="0.283274967223406">
        <ele>77</ele>
        <time>2018-02-14T08:50:05Z</time>
      </trkpt>
      <trkpt lat="51.703792009502649" lon="0.283269016072154">
        <ele>78</ele>
        <time>2018-02-14T08:50:08Z</time>
      </trkpt>
      <trkpt lat="51.703769965097308" lon="0.283259963616729">
        <ele>78</ele>
        <time>2018-02-14T08:50:13Z</time>
      </trkpt>
      <trkpt lat="51.703752027824521" lon="0.283263986930251">
        <ele>78</ele>
        <time>2018-02-14T08:50:15Z</time>
      </trkpt>
      <trkpt lat="51.703721014782786" lon="0.283269016072154">
        <ele>78</ele>
        <time>2018-02-14T08:50:18Z</time>
      </trkpt>
      <trkpt lat="51.703697964549065" lon="0.283272033557296">
        <ele>78</ele>
        <time>2018-02-14T08:50:20Z</time>
      </trkpt>
      <trkpt lat="51.703679021447897" lon="0.283271027728915">
        <ele>78</ele>
        <time>2018-02-14T08:50:22Z</time>
      </trkpt>
      <trkpt lat="51.703657982870936" lon="0.283267004415393">
        <ele>78</ele>
        <time>2018-02-14T08:50:24Z</time>
      </trkpt>
      <trkpt lat="51.703633004799485" lon="0.283265998587012">
        <ele>77</ele>
        <time>2018-02-14T08:50:26Z</time>
      </trkpt>
      <trkpt lat="51.703610038384795" lon="0.283267004415393">
        <ele>77</ele>
        <time>2018-02-14T08:50:28Z</time>
      </trkpt>
      <trkpt lat="51.703588999807835" lon="0.283268010243773">
        <ele>77</ele>
        <time>2018-02-14T08:50:30Z</time>
      </trkpt>
      <trkpt lat="51.703564021736383" lon="0.283270021900535">
        <ele>77</ele>
        <time>2018-02-14T08:50:32Z</time>
      </trkpt>
      <trkpt lat="51.703537032008171" lon="0.283269016072154">
        <ele>77</ele>
        <time>2018-02-14T08:50:34Z</time>
      </trkpt>
      <trkpt lat="51.703516999259591" lon="0.283267004415393">
        <ele>77</ele>
        <time>2018-02-14T08:50:36Z</time>
      </trkpt>
      <trkpt lat="51.703495960682631" lon="0.283272033557296">
        <ele>77</ele>
        <time>2018-02-14T08:50:38Z</time>
      </trkpt>
      <trkpt lat="51.703469976782799" lon="0.283273039385676">
        <ele>77</ele>
        <time>2018-02-14T08:50:40Z</time>
      </trkpt>
      <trkpt lat="51.703446004539728" lon="0.283269016072154">
        <ele>77</ele>
        <time>2018-02-14T08:50:42Z</time>
      </trkpt>
      <trkpt lat="51.703419014811516" lon="0.283268010243773">
        <ele>77</ele>
        <time>2018-02-14T08:50:45Z</time>
      </trkpt>
      <trkpt lat="51.703395964577794" lon="0.283272033557296">
        <ele>76.885713937413897</ele>
        <time>2018-02-14T08:50:47Z</time>
      </trkpt>
      <trkpt lat="51.703372998163104" lon="0.283269016072154">
        <ele>76</ele>
        <time>2018-02-14T08:50:49Z</time>
      </trkpt>
      <trkpt lat="51.703347014263272" lon="0.283263986930251">
        <ele>76</ele>
        <time>2018-02-14T08:50:52Z</time>
      </trkpt>
      <trkpt lat="51.703323964029551" lon="0.283259963616729">
        <ele>76</ele>
        <time>2018-02-14T08:50:54Z</time>
      </trkpt>
      <trkpt lat="51.70329999178648" lon="0.283260969445109">
        <ele>76</ele>
        <time>2018-02-14T08:50:56Z</time>
      </trkpt>
      <trkpt lat="51.7032799590379" lon="0.283262981101871">
        <ele>76</ele>
        <time>2018-02-14T08:50:58Z</time>
      </trkpt>
      <trkpt lat="51.703260010108352" lon="0.283264992758632">
        <ele>76</ele>
        <time>2018-02-14T08:51:00Z</time>
      </trkpt>
      <trkpt lat="51.70323695987463" lon="0.28325904160738">
        <ele>76</ele>
        <time>2018-02-14T08:51:02Z</time>
      </trkpt>
      <trkpt lat="51.703218016773462" lon="0.283254012465477">
        <ele>76</ele>
        <time>2018-02-14T08:51:04Z</time>
      </trkpt>
      <trkpt lat="51.703183986246586" lon="0.283245965838432">
        <ele>76</ele>
        <time>2018-02-14T08:51:06Z</time>
      </trkpt>
      <trkpt lat="51.703164037317038" lon="0.283252000808716">
        <ele>76</ele>
        <time>2018-02-14T08:51:07Z</time>
      </trkpt>
      <trkpt lat="51.703146016225219" lon="0.28326197527349">
        <ele>76</ele>
        <time>2018-02-14T08:51:08Z</time>
      </trkpt>
      <trkpt lat="51.7031279951334" lon="0.283270021900535">
        <ele>76</ele>
        <time>2018-02-14T08:51:09Z</time>
      </trkpt>
      <trkpt lat="51.703101005405188" lon="0.283270021900535">
        <ele>76</ele>
        <time>2018-02-14T08:51:11Z</time>
      </trkpt>
      <trkpt lat="51.703079966828227" lon="0.28326197527349">
        <ele>76</ele>
        <time>2018-02-14T08:51:13Z</time>
      </trkpt>
      <trkpt lat="51.70306202955544" lon="0.28326197527349">
        <ele>76</ele>
        <time>2018-02-14T08:51:15Z</time>
      </trkpt>
      <trkpt lat="51.703039985150099" lon="0.283260969445109">
        <ele>76</ele>
        <time>2018-02-14T08:51:17Z</time>
      </trkpt>
      <trkpt lat="51.703020036220551" lon="0.28325904160738">
        <ele>76</ele>
        <time>2018-02-14T08:51:19Z</time>
      </trkpt>
      <trkpt lat="51.702993968501687" lon="0.28325904160738">
        <ele>75.803920338323707</ele>
        <time>2018-02-14T08:51:22Z</time>
      </trkpt>
      <trkpt lat="51.702972007915378" lon="0.283255018293858">
        <ele>75</ele>
        <time>2018-02-14T08:51:24Z</time>
      </trkpt>
      <trkpt lat="51.702948035672307" lon="0.283249989151955">
        <ele>75</ele>
        <time>2018-02-14T08:51:26Z</time>
      </trkpt>
      <trkpt lat="51.702922973781824" lon="0.283242026343942">
        <ele>75</ele>
        <time>2018-02-14T08:51:29Z</time>
      </trkpt>
      <trkpt lat="51.702902019023895" lon="0.283228028565645">
        <ele>75</ele>
        <time>2018-02-14T08:51:31Z</time>
      </trkpt>
      <trkpt lat="51.702878968790174" lon="0.283222999423742">
        <ele>75</ele>
        <time>2018-02-14T08:51:34Z</time>
      </trkpt>
      <trkpt lat="51.702857008203864" lon="0.283232973888516">
        <ele>75</ele>
        <time>2018-02-14T08:51:36Z</time>
      </trkpt>
      <trkpt lat="51.702837981283665" lon="0.283243032172322">
        <ele>75</ele>
        <time>2018-02-14T08:51:38Z</time>
      </trkpt>
      <trkpt lat="51.702819038182497" lon="0.283246971666813">
        <ele>75</ele>
        <time>2018-02-14T08:51:40Z</time>
      </trkpt>
      <trkpt lat="51.702797999605536" lon="0.283247977495193">
        <ele>75</ele>
        <time>2018-02-14T08:51:42Z</time>
      </trkpt>
      <trkpt lat="51.702778972685337" lon="0.283250994980335">
        <ele>75</ele>
        <time>2018-02-14T08:51:44Z</time>
      </trkpt>
      <trkpt lat="51.702752988785505" lon="0.283256024122238">
        <ele>75</ele>
        <time>2018-02-14T08:51:47Z</time>
      </trkpt>
      <trkpt lat="51.702731028199196" lon="0.283252000808716">
        <ele>75</ele>
        <time>2018-02-14T08:51:49Z</time>
      </trkpt>
      <trkpt lat="51.702708983793855" lon="0.283244038000703">
        <ele>75</ele>
        <time>2018-02-14T08:51:51Z</time>
      </trkpt>
      <trkpt lat="51.702682999894023" lon="0.283242026343942">
        <ele>75</ele>
        <time>2018-02-14T08:51:54Z</time>
      </trkpt>
      <trkpt lat="51.702661039307714" lon="0.283235991373658">
        <ele>75</ele>
        <time>2018-02-14T08:51:56Z</time>
      </trkpt>
      <trkpt lat="51.702640000730753" lon="0.283238003030419">
        <ele>75</ele>
        <time>2018-02-14T08:51:58Z</time>
      </trkpt>
      <trkpt lat="51.702621979638934" lon="0.283244960010052">
        <ele>74.820004096052401</ele>
        <time>2018-02-14T08:52:00Z</time>
      </trkpt>
      <trkpt lat="51.702599013224244" lon="0.283249989151955">
        <ele>74</ele>
        <time>2018-02-14T08:52:02Z</time>
      </trkpt>
      <trkpt lat="51.702575962990522" lon="0.283254012465477">
        <ele>75</ele>
        <time>2018-02-14T08:52:04Z</time>
      </trkpt>
      <trkpt lat="51.702558025717735" lon="0.283258035778999">
        <ele>75</ele>
        <time>2018-02-14T08:52:06Z</time>
      </trkpt>
      <trkpt lat="51.702537992969155" lon="0.283260969445109">
        <ele>75</ele>
        <time>2018-02-14T08:52:08Z</time>
      </trkpt>
      <trkpt lat="51.702515026554465" lon="0.28325904160738">
        <ele>75</ele>
        <time>2018-02-14T08:52:10Z</time>
      </trkpt>
      <trkpt lat="51.702488036826253" lon="0.283257029950619">
        <ele>74</ele>
        <time>2018-02-14T08:52:13Z</time>
      </trkpt>
      <trkpt lat="51.702464986592531" lon="0.283254012465477">
        <ele>74</ele>
        <time>2018-02-14T08:52:15Z</time>
      </trkpt>
      <trkpt lat="51.702445959672332" lon="0.283244038000703">
        <ele>74</ele>
        <time>2018-02-14T08:52:17Z</time>
      </trkpt>
      <trkpt lat="51.702421987429261" lon="0.283236997202039">
        <ele>74</ele>
        <time>2018-02-14T08:52:20Z</time>
      </trkpt>
      <trkpt lat="51.702399021014571" lon="0.283242026343942">
        <ele>74</ele>
        <time>2018-02-14T08:52:22Z</time>
      </trkpt>
      <trkpt lat="51.702378988265991" lon="0.283245965838432">
        <ele>75</ele>
        <time>2018-02-14T08:52:24Z</time>
      </trkpt>
      <trkpt lat="51.702360967174172" lon="0.283246971666813">
        <ele>75</ele>
        <time>2018-02-14T08:52:26Z</time>
      </trkpt>
      <trkpt lat="51.702338000759482" lon="0.283247977495193">
        <ele>75</ele>
        <time>2018-02-14T08:52:28Z</time>
      </trkpt>
      <trkpt lat="51.702304976060987" lon="0.283244038000703">
        <ele>75</ele>
        <time>2018-02-14T08:52:31Z</time>
      </trkpt>
      <trkpt lat="51.702284021303058" lon="0.283246971666813">
        <ele>74.122952797624706</ele>
        <time>2018-02-14T08:52:33Z</time>
      </trkpt>
      <trkpt lat="51.702261976897717" lon="0.283244038000703">
        <ele>74.061218358977001</ele>
        <time>2018-02-14T08:52:35Z</time>
      </trkpt>
      <trkpt lat="51.702239010483027" lon="0.283243032172322">
        <ele>75</ele>
        <time>2018-02-14T08:52:37Z</time>
      </trkpt>
      <trkpt lat="51.702217971906066" lon="0.283236997202039">
        <ele>75</ele>
        <time>2018-02-14T08:52:39Z</time>
      </trkpt>
      <trkpt lat="51.702197017148137" lon="0.283227022737265">
        <ele>74.938150723796198</ele>
        <time>2018-02-14T08:52:41Z</time>
      </trkpt>
      <trkpt lat="51.702173966914415" lon="0.283216964453459">
        <ele>74</ele>
        <time>2018-02-14T08:52:43Z</time>
      </trkpt>
      <trkpt lat="51.702153012156487" lon="0.283213024958968">
        <ele>74</ele>
        <time>2018-02-14T08:52:45Z</time>
      </trkpt>
      <trkpt lat="51.702129039913416" lon="0.283210007473826">
        <ele>73.952385789896098</ele>
        <time>2018-02-14T08:52:47Z</time>
      </trkpt>
      <trkpt lat="51.702108001336455" lon="0.283203972503543">
        <ele>73</ele>
        <time>2018-02-14T08:52:49Z</time>
      </trkpt>
      <trkpt lat="51.702090986073017" lon="0.283198021352291">
        <ele>73</ele>
        <time>2018-02-14T08:52:51Z</time>
      </trkpt>
      <trkpt lat="51.702067013829947" lon="0.283192992210388">
        <ele>73</ele>
        <time>2018-02-14T08:52:53Z</time>
      </trkpt>
      <trkpt lat="51.702043963596225" lon="0.283186035230756">
        <ele>73</ele>
        <time>2018-02-14T08:52:55Z</time>
      </trkpt>
      <trkpt lat="51.702025020495057" lon="0.283184023573995">
        <ele>73</ele>
        <time>2018-02-14T08:52:57Z</time>
      </trkpt>
      <trkpt lat="51.702004987746477" lon="0.283178994432092">
        <ele>73</ele>
        <time>2018-02-14T08:52:59Z</time>
      </trkpt>
      <trkpt lat="51.701985038816929" lon="0.283168014138937">
        <ele>72.852938961951594</ele>
        <time>2018-02-14T08:53:01Z</time>
      </trkpt>
      <trkpt lat="51.701965006068349" lon="0.283171031624079">
        <ele>72</ele>
        <time>2018-02-14T08:53:03Z</time>
      </trkpt>
      <trkpt lat="51.701943967491388" lon="0.283174971118569">
        <ele>72</ele>
        <time>2018-02-14T08:53:05Z</time>
      </trkpt>
      <trkpt lat="51.701922006905079" lon="0.283172037452459">
        <ele>72</ele>
        <time>2018-02-14T08:53:07Z</time>
      </trkpt>
      <trkpt lat="51.70190398581326" lon="0.283166002482176">
        <ele>72</ele>
        <time>2018-02-14T08:53:09Z</time>
      </trkpt>
      <trkpt lat="51.701884036883712" lon="0.283164996653795">
        <ele>72</ele>
        <time>2018-02-14T08:53:11Z</time>
      </trkpt>
      <trkpt lat="51.70186098664999" lon="0.28317597694695">
        <ele>72</ele>
        <time>2018-02-14T08:53:14Z</time>
      </trkpt>
      <trkpt lat="51.701841959729791" lon="0.283183017745614">
        <ele>72</ele>
        <time>2018-02-14T08:53:16Z</time>
      </trkpt>
      <trkpt lat="51.70181798748672" lon="0.283187963068485">
        <ele>72</ele>
        <time>2018-02-14T08:53:18Z</time>
      </trkpt>
      <trkpt lat="51.701797032728791" lon="0.283185029402375">
        <ele>72</ele>
        <time>2018-02-14T08:53:20Z</time>
      </trkpt>
      <trkpt lat="51.701771970838308" lon="0.283187041059136">
        <ele>71</ele>
        <time>2018-02-14T08:53:23Z</time>
      </trkpt>
      <trkpt lat="51.701750010251999" lon="0.283189974725246">
        <ele>71</ele>
        <time>2018-02-14T08:53:25Z</time>
      </trkpt>
      <trkpt lat="51.701726960018277" lon="0.283182011917233">
        <ele>71</ele>
        <time>2018-02-14T08:53:27Z</time>
      </trkpt>
      <trkpt lat="51.701702987775207" lon="0.283170025795698">
        <ele>71</ele>
        <time>2018-02-14T08:53:30Z</time>
      </trkpt>
      <trkpt lat="51.701682033017278" lon="0.283168014138937">
        <ele>71</ele>
        <time>2018-02-14T08:53:32Z</time>
      </trkpt>
      <trkpt lat="51.701655965298414" lon="0.283176982775331">
        <ele>71</ele>
        <time>2018-02-14T08:53:35Z</time>
      </trkpt>
      <trkpt lat="51.701636016368866" lon="0.283174971118569">
        <ele>71</ele>
        <time>2018-02-14T08:53:37Z</time>
      </trkpt>
      <trkpt lat="51.701614977791905" lon="0.283164996653795">
        <ele>71</ele>
        <time>2018-02-14T08:53:39Z</time>
      </trkpt>
      <trkpt lat="51.701591005548835" lon="0.283167008310556">
        <ele>71</ele>
        <time>2018-02-14T08:53:42Z</time>
      </trkpt>
      <trkpt lat="51.701568039134145" lon="0.283171031624079">
        <ele>71</ele>
        <time>2018-02-14T08:53:44Z</time>
      </trkpt>
      <trkpt lat="51.701542977243662" lon="0.283170025795698">
        <ele>71</ele>
        <time>2018-02-14T08:53:47Z</time>
      </trkpt>
      <trkpt lat="51.701524034142494" lon="0.283158039674163">
        <ele>71</ele>
        <time>2018-02-14T08:53:49Z</time>
      </trkpt>
      <trkpt lat="51.701504001393914" lon="0.283148987218738">
        <ele>71</ele>
        <time>2018-02-14T08:53:51Z</time>
      </trkpt>
      <trkpt lat="51.701478017494082" lon="0.283143036067486">
        <ele>71</ele>
        <time>2018-02-14T08:53:54Z</time>
      </trkpt>
      <trkpt lat="51.701456978917122" lon="0.283150998875499">
        <ele>71</ele>
        <time>2018-02-14T08:53:56Z</time>
      </trkpt>
      <trkpt lat="51.701435018330812" lon="0.283159967511892">
        <ele>71</ele>
        <time>2018-02-14T08:53:59Z</time>
      </trkpt>
      <trkpt lat="51.701414985582232" lon="0.283166002482176">
        <ele>71</ele>
        <time>2018-02-14T08:54:01Z</time>
      </trkpt>
      <trkpt lat="51.70138799585402" lon="0.283171031624079">
        <ele>71</ele>
        <time>2018-02-14T08:54:04Z</time>
      </trkpt>
      <trkpt lat="51.70136402361095" lon="0.283167008310556">
        <ele>71</ele>
        <time>2018-02-14T08:54:06Z</time>
      </trkpt>
      <trkpt lat="51.70134499669075" lon="0.283157033845782">
        <ele>71</ele>
        <time>2018-02-14T08:54:08Z</time>
      </trkpt>
      <trkpt lat="51.701320018619299" lon="0.283156028017402">
        <ele>71</ele>
        <time>2018-02-14T08:54:11Z</time>
      </trkpt>
      <trkpt lat="51.7013009916991" lon="0.283156028017402">
        <ele>71</ele>
        <time>2018-02-14T08:54:13Z</time>
      </trkpt>
      <trkpt lat="51.701275007799268" lon="0.283163990825415">
        <ele>71</ele>
        <time>2018-02-14T08:54:16Z</time>
      </trkpt>
      <trkpt lat="51.701255980879068" lon="0.283172959461808">
        <ele>71</ele>
        <time>2018-02-14T08:54:18Z</time>
      </trkpt>
      <trkpt lat="51.70123795978725" lon="0.283187963068485">
        <ele>71</ele>
        <time>2018-02-14T08:54:20Z</time>
      </trkpt>
      <trkpt lat="51.70121499337256" lon="0.283198021352291">
        <ele>71</ele>
        <time>2018-02-14T08:54:22Z</time>
      </trkpt>
      <trkpt lat="51.701194038614631" lon="0.283200033009052">
        <ele>70</ele>
        <time>2018-02-14T08:54:24Z</time>
      </trkpt>
      <trkpt lat="51.701176017522812" lon="0.283191986382008">
        <ele>70</ele>
        <time>2018-02-14T08:54:26Z</time>
      </trkpt>
      <trkpt lat="51.701155984774232" lon="0.28317597694695">
        <ele>69</ele>
        <time>2018-02-14T08:54:28Z</time>
      </trkpt>
      <trkpt lat="51.701134024187922" lon="0.283166002482176">
        <ele>69.8712898892353</ele>
        <time>2018-02-14T08:54:31Z</time>
      </trkpt>
      <trkpt lat="51.70110996812582" lon="0.283163990825415">
        <ele>69</ele>
        <time>2018-02-14T08:54:33Z</time>
      </trkpt>
      <trkpt lat="51.701091025024652" lon="0.283161979168653">
        <ele>69</ele>
        <time>2018-02-14T08:54:35Z</time>
      </trkpt>
      <trkpt lat="51.701071998104453" lon="0.283163990825415">
        <ele>69</ele>
        <time>2018-02-14T08:54:37Z</time>
      </trkpt>
      <trkpt lat="51.701048025861382" lon="0.283166002482176">
        <ele>69</ele>
        <time>2018-02-14T08:54:39Z</time>
      </trkpt>
      <trkpt lat="51.701027993112803" lon="0.283169019967318">
        <ele>69</ele>
        <time>2018-02-14T08:54:41Z</time>
      </trkpt>
      <trkpt lat="51.701008966192603" lon="0.283174971118569">
        <ele>69</ele>
        <time>2018-02-14T08:54:43Z</time>
      </trkpt>
      <trkpt lat="51.700985999777913" lon="0.283172959461808">
        <ele>69</ele>
        <time>2018-02-14T08:54:45Z</time>
      </trkpt>
      <trkpt lat="51.700964961200953" lon="0.283163990825415">
        <ele>68</ele>
        <time>2018-02-14T08:54:47Z</time>
      </trkpt>
      <trkpt lat="51.700948029756546" lon="0.283161979168653">
        <ele>67</ele>
        <time>2018-02-14T08:54:49Z</time>
      </trkpt>
      <trkpt lat="51.700925985351205" lon="0.283161979168653">
        <ele>67</ele>
        <time>2018-02-14T08:54:51Z</time>
      </trkpt>
      <trkpt lat="51.700904024764895" lon="0.283163990825415">
        <ele>67.138607963906395</ele>
        <time>2018-02-14T08:54:53Z</time>
      </trkpt>
      <trkpt lat="51.700886003673077" lon="0.283174971118569">
        <ele>68</ele>
        <time>2018-02-14T08:54:55Z</time>
      </trkpt>
      <trkpt lat="51.700867982581258" lon="0.283186035230756">
        <ele>68</ele>
        <time>2018-02-14T08:54:57Z</time>
      </trkpt>
      <trkpt lat="51.700847027823329" lon="0.283191986382008">
        <ele>68</ele>
        <time>2018-02-14T08:54:59Z</time>
      </trkpt>
      <trkpt lat="51.700826995074749" lon="0.283191986382008">
        <ele>67.140630000000002</ele>
        <time>2018-02-14T08:55:01Z</time>
      </trkpt>
      <trkpt lat="51.700803022831678" lon="0.283191986382008">
        <ele>67</ele>
        <time>2018-02-14T08:55:03Z</time>
      </trkpt>
      <trkpt lat="51.700780978426337" lon="0.283189974725246">
        <ele>67</ele>
        <time>2018-02-14T08:55:05Z</time>
      </trkpt>
      <trkpt lat="51.700757006183267" lon="0.283187041059136">
        <ele>67</ele>
        <time>2018-02-14T08:55:08Z</time>
      </trkpt>
      <trkpt lat="51.700736973434687" lon="0.283186035230756">
        <ele>67</ele>
        <time>2018-02-14T08:55:10Z</time>
      </trkpt>
      <trkpt lat="51.700713001191616" lon="0.283176982775331">
        <ele>67</ele>
        <time>2018-02-14T08:55:13Z</time>
      </trkpt>
      <trkpt lat="51.700692968443036" lon="0.283172959461808">
        <ele>67</ele>
        <time>2018-02-14T08:55:15Z</time>
      </trkpt>
      <trkpt lat="51.700666984543204" lon="0.283172037452459">
        <ele>67</ele>
        <time>2018-02-14T08:55:18Z</time>
      </trkpt>
      <trkpt lat="51.700645023956895" lon="0.283167008310556">
        <ele>67</ele>
        <time>2018-02-14T08:55:20Z</time>
      </trkpt>
      <trkpt lat="51.700624991208315" lon="0.283160973340273">
        <ele>67</ele>
        <time>2018-02-14T08:55:22Z</time>
      </trkpt>
      <trkpt lat="51.700599007308483" lon="0.283160973340273">
        <ele>66.901955124987495</ele>
        <time>2018-02-14T08:55:25Z</time>
      </trkpt>
      <trkpt lat="51.700576040893793" lon="0.283163990825415">
        <ele>66.080807819611096</ele>
        <time>2018-02-14T08:55:27Z</time>
      </trkpt>
      <trkpt lat="51.700558019801974" lon="0.283164996653795">
        <ele>67</ele>
        <time>2018-02-14T08:55:29Z</time>
      </trkpt>
      <trkpt lat="51.700537987053394" lon="0.283163990825415">
        <ele>67</ele>
        <time>2018-02-14T08:55:31Z</time>
      </trkpt>
      <trkpt lat="51.700514014810324" lon="0.283164996653795">
        <ele>67</ele>
        <time>2018-02-14T08:55:33Z</time>
      </trkpt>
      <trkpt lat="51.700491970404983" lon="0.283162984997034">
        <ele>67</ele>
        <time>2018-02-14T08:55:35Z</time>
      </trkpt>
      <trkpt lat="51.700475038960576" lon="0.283174971118569">
        <ele>65</ele>
        <time>2018-02-14T08:55:37Z</time>
      </trkpt>
      <trkpt lat="51.700483001768589" lon="0.283160973340273">
        <ele>65</ele>
        <time>2018-02-14T08:55:44Z</time>
      </trkpt>
      <trkpt lat="51.700504962354898" lon="0.283137001097202">
        <ele>65</ele>
        <time>2018-02-14T08:55:47Z</time>
      </trkpt>
      <trkpt lat="51.700526000931859" lon="0.283115040510893">
        <ele>65</ele>
        <time>2018-02-14T08:55:50Z</time>
      </trkpt>
      <trkpt lat="51.700544022023678" lon="0.283105988055468">
        <ele>65</ele>
        <time>2018-02-14T08:55:52Z</time>
      </trkpt>
      <trkpt lat="51.700529018417001" lon="0.283133983612061">
        <ele>66</ele>
        <time>2018-02-14T08:56:02Z</time>
      </trkpt>
      <trkpt lat="51.700508985668421" lon="0.28315301053226">
        <ele>66</ele>
        <time>2018-02-14T08:56:04Z</time>
      </trkpt>
      <trkpt lat="51.700483001768589" lon="0.283176982775331">
        <ele>66</ele>
        <time>2018-02-14T08:56:07Z</time>
      </trkpt>
      <trkpt lat="51.700470009818673" lon="0.283209001645446">
        <ele>65.920000000000002</ele>
        <time>2018-02-14T08:56:10Z</time>
      </trkpt>
      <trkpt lat="51.70046104118228" lon="0.283231968060136">
        <ele>65.079208171748704</ele>
        <time>2018-02-14T08:56:12Z</time>
      </trkpt>
      <trkpt lat="51.700452994555235" lon="0.283259963616729">
        <ele>66</ele>
        <time>2018-02-14T08:56:14Z</time>
      </trkpt>
      <trkpt lat="51.7004410084337" lon="0.283287037163973">
        <ele>66</ele>
        <time>2018-02-14T08:56:16Z</time>
      </trkpt>
      <trkpt lat="51.700429022312164" lon="0.283311009407043">
        <ele>66</ele>
        <time>2018-02-14T08:56:18Z</time>
      </trkpt>
      <trkpt lat="51.700416030362248" lon="0.283334981650114">
        <ele>66</ele>
        <time>2018-02-14T08:56:20Z</time>
      </trkpt>
      <trkpt lat="51.700397003442049" lon="0.283361971378326">
        <ele>66</ele>
        <time>2018-02-14T08:56:22Z</time>
      </trkpt>
      <trkpt lat="51.700375964865088" lon="0.283375969156623">
        <ele>66</ele>
        <time>2018-02-14T08:56:24Z</time>
      </trkpt>
      <trkpt lat="51.700352998450398" lon="0.28338803909719">
        <ele>66</ele>
        <time>2018-02-14T08:56:27Z</time>
      </trkpt>
      <trkpt lat="51.70033497735858" lon="0.283400025218725">
        <ele>66</ele>
        <time>2018-02-14T08:56:29Z</time>
      </trkpt>
      <trkpt lat="51.70031301677227" lon="0.283412011340261">
        <ele>66</ele>
        <time>2018-02-14T08:56:31Z</time>
      </trkpt>
      <trkpt lat="51.70029197819531" lon="0.283421985805035">
        <ele>66</ele>
        <time>2018-02-14T08:56:33Z</time>
      </trkpt>
      <trkpt lat="51.700270017609" lon="0.28343103826046">
        <ele>66.057853425295093</ele>
        <time>2018-02-14T08:56:35Z</time>
      </trkpt>
      <trkpt lat="51.700239004567266" lon="0.283448975533247">
        <ele>67</ele>
        <time>2018-02-14T08:56:38Z</time>
      </trkpt>
      <trkpt lat="51.700216960161924" lon="0.283468002453446">
        <ele>67</ele>
        <time>2018-02-14T08:56:40Z</time>
      </trkpt>
      <trkpt lat="51.700193993747234" lon="0.283479988574982">
        <ele>67</ele>
        <time>2018-02-14T08:56:42Z</time>
      </trkpt>
      <trkpt lat="51.700174966827035" lon="0.283488035202026">
        <ele>67</ele>
        <time>2018-02-14T08:56:44Z</time>
      </trkpt>
      <trkpt lat="51.700155017897487" lon="0.283493986353278">
        <ele>67</ele>
        <time>2018-02-14T08:56:46Z</time>
      </trkpt>
      <trkpt lat="51.700133979320526" lon="0.283504966646433">
        <ele>67</ele>
        <time>2018-02-14T08:56:48Z</time>
      </trkpt>
      <trkpt lat="51.700115958228707" lon="0.283517036587">
        <ele>67</ele>
        <time>2018-02-14T08:56:50Z</time>
      </trkpt>
      <trkpt lat="51.700095003470778" lon="0.283529022708535">
        <ele>67</ele>
        <time>2018-02-14T08:56:52Z</time>
      </trkpt>
      <trkpt lat="51.700074970722198" lon="0.283536985516548">
        <ele>67</ele>
        <time>2018-02-14T08:56:54Z</time>
      </trkpt>
      <trkpt lat="51.70005502179265" lon="0.283544026315212">
        <ele>67</ele>
        <time>2018-02-14T08:56:56Z</time>
      </trkpt>
      <trkpt lat="51.70003398321569" lon="0.283555006608367">
        <ele>67</ele>
        <time>2018-02-14T08:56:58Z</time>
      </trkpt>
      <trkpt lat="51.70001202262938" lon="0.283570010215044">
        <ele>67</ele>
        <time>2018-02-14T08:57:00Z</time>
      </trkpt>
      <trkpt lat="51.699995007365942" lon="0.283586019650102">
        <ele>66.820004096052401</ele>
        <time>2018-02-14T08:57:02Z</time>
      </trkpt>
      <trkpt lat="51.699975980445743" lon="0.283600017428398">
        <ele>66</ele>
        <time>2018-02-14T08:57:04Z</time>
      </trkpt>
      <trkpt lat="51.699957037344575" lon="0.283620972186327">
        <ele>66.175255011150597</ele>
        <time>2018-02-14T08:57:06Z</time>
      </trkpt>
      <trkpt lat="51.699933987110853" lon="0.283642010763288">
        <ele>67</ele>
        <time>2018-02-14T08:57:08Z</time>
      </trkpt>
      <trkpt lat="51.699915966019034" lon="0.283665983006358">
        <ele>67</ele>
        <time>2018-02-14T08:57:09Z</time>
      </trkpt>
      <trkpt lat="51.699898028746247" lon="0.283686015754938">
        <ele>67</ele>
        <time>2018-02-14T08:57:10Z</time>
      </trkpt>
      <trkpt lat="51.699880007654428" lon="0.283707976341248">
        <ele>67</ele>
        <time>2018-02-14T08:57:11Z</time>
      </trkpt>
      <trkpt lat="51.69986198656261" lon="0.28373203240335">
        <ele>67</ele>
        <time>2018-02-14T08:57:12Z</time>
      </trkpt>
      <trkpt lat="51.699845977127552" lon="0.283762039616704">
        <ele>67</ele>
        <time>2018-02-14T08:57:13Z</time>
      </trkpt>
      <trkpt lat="51.699834996834397" lon="0.283790035173297">
        <ele>67</ele>
        <time>2018-02-14T08:57:14Z</time>
      </trkpt>
      <trkpt lat="51.699824016541243" lon="0.28382197022438">
        <ele>67</ele>
        <time>2018-02-14T08:57:15Z</time>
      </trkpt>
      <trkpt lat="51.699814964085817" lon="0.283853989094496">
        <ele>67</ele>
        <time>2018-02-14T08:57:16Z</time>
      </trkpt>
      <trkpt lat="51.699793003499508" lon="0.283909980207682">
        <ele>67</ele>
        <time>2018-02-14T08:57:18Z</time>
      </trkpt>
      <trkpt lat="51.699781017377973" lon="0.283939987421036">
        <ele>67</ele>
        <time>2018-02-14T08:57:19Z</time>
      </trkpt>
      <trkpt lat="51.699774982407689" lon="0.283967982977629">
        <ele>67</ele>
        <time>2018-02-14T08:57:20Z</time>
      </trkpt>
      <trkpt lat="51.699772970750928" lon="0.283998996019363">
        <ele>67</ele>
        <time>2018-02-14T08:57:21Z</time>
      </trkpt>
      <trkpt lat="51.699768025428057" lon="0.284032020717859">
        <ele>67</ele>
        <time>2018-02-14T08:57:22Z</time>
      </trkpt>
      <trkpt lat="51.699759978801012" lon="0.284090023487806">
        <ele>67</ele>
        <time>2018-02-14T08:57:24Z</time>
      </trkpt>
      <trkpt lat="51.699757967144251" lon="0.284118019044399">
        <ele>67</ele>
        <time>2018-02-14T08:57:25Z</time>
      </trkpt>
      <trkpt lat="51.69975696131587" lon="0.284176021814346">
        <ele>67</ele>
        <time>2018-02-14T08:57:27Z</time>
      </trkpt>
      <trkpt lat="51.699755033478141" lon="0.284209968522191">
        <ele>67</ele>
        <time>2018-02-14T08:57:28Z</time>
      </trkpt>
      <trkpt lat="51.699759978801012" lon="0.284262020140886">
        <ele>67</ele>
        <time>2018-02-14T08:57:30Z</time>
      </trkpt>
      <trkpt lat="51.699766013771296" lon="0.284318011254072">
        <ele>67</ele>
        <time>2018-02-14T08:57:32Z</time>
      </trkpt>
      <trkpt lat="51.699755033478141" lon="0.284371990710497">
        <ele>67</ele>
        <time>2018-02-14T08:57:34Z</time>
      </trkpt>
      <trkpt lat="51.699743969365954" lon="0.284397974610329">
        <ele>67</ele>
        <time>2018-02-14T08:57:35Z</time>
      </trkpt>
      <trkpt lat="51.69973399490118" lon="0.284425970166922">
        <ele>67</ele>
        <time>2018-02-14T08:57:36Z</time>
      </trkpt>
      <trkpt lat="51.699728965759277" lon="0.284455977380276">
        <ele>67</ele>
        <time>2018-02-14T08:57:37Z</time>
      </trkpt>
      <trkpt lat="51.699724020436406" lon="0.28448598459363">
        <ele>67</ele>
        <time>2018-02-14T08:57:38Z</time>
      </trkpt>
      <trkpt lat="51.699717985466123" lon="0.284513980150223">
        <ele>67</ele>
        <time>2018-02-14T08:57:39Z</time>
      </trkpt>
      <trkpt lat="51.699707005172968" lon="0.284566031768918">
        <ele>67</ele>
        <time>2018-02-14T08:57:41Z</time>
      </trkpt>
      <trkpt lat="51.699700970202684" lon="0.284597966820002">
        <ele>67</ele>
        <time>2018-02-14T08:57:42Z</time>
      </trkpt>
      <trkpt lat="51.699697030708194" lon="0.284625962376595">
        <ele>67</ele>
        <time>2018-02-14T08:57:43Z</time>
      </trkpt>
      <trkpt lat="51.699693007394671" lon="0.284683965146542">
        <ele>67</ele>
        <time>2018-02-14T08:57:45Z</time>
      </trkpt>
      <trkpt lat="51.699692001566291" lon="0.284714978188276">
        <ele>67</ele>
        <time>2018-02-14T08:57:46Z</time>
      </trkpt>
      <trkpt lat="51.69969099573791" lon="0.28474397957325">
        <ele>67.186276478265199</ele>
        <time>2018-02-14T08:57:47Z</time>
      </trkpt>
      <trkpt lat="51.699688984081149" lon="0.284775998443365">
        <ele>68</ele>
        <time>2018-02-14T08:57:48Z</time>
      </trkpt>
      <trkpt lat="51.699687978252769" lon="0.284803993999958">
        <ele>68</ele>
        <time>2018-02-14T08:57:49Z</time>
      </trkpt>
      <trkpt lat="51.69969099573791" lon="0.284832995384932">
        <ele>68</ele>
        <time>2018-02-14T08:57:50Z</time>
      </trkpt>
      <trkpt lat="51.699693007394671" lon="0.284866020083427">
        <ele>68</ele>
        <time>2018-02-14T08:57:51Z</time>
      </trkpt>
      <trkpt lat="51.699693007394671" lon="0.284895021468401">
        <ele>68</ele>
        <time>2018-02-14T08:57:52Z</time>
      </trkpt>
      <trkpt lat="51.699694013223052" lon="0.284947995096445">
        <ele>68</ele>
        <time>2018-02-14T08:57:54Z</time>
      </trkpt>
      <trkpt lat="51.699703987687826" lon="0.284992000088096">
        <ele>68</ele>
        <time>2018-02-14T08:57:56Z</time>
      </trkpt>
      <trkpt lat="51.699728965759277" lon="0.285033993422985">
        <ele>68</ele>
        <time>2018-02-14T08:57:58Z</time>
      </trkpt>
      <trkpt lat="51.699748998507857" lon="0.285085961222649">
        <ele>68</ele>
        <time>2018-02-14T08:58:00Z</time>
      </trkpt>
      <trkpt lat="51.699759978801012" lon="0.285114040598273">
        <ele>68</ele>
        <time>2018-02-14T08:58:01Z</time>
      </trkpt>
      <trkpt lat="51.699770037084818" lon="0.285139018669724">
        <ele>68</ele>
        <time>2018-02-14T08:58:02Z</time>
      </trkpt>
      <trkpt lat="51.699782023206353" lon="0.285161985084414">
        <ele>68</ele>
        <time>2018-02-14T08:58:03Z</time>
      </trkpt>
      <trkpt lat="51.699788980185986" lon="0.285190986469388">
        <ele>68</ele>
        <time>2018-02-14T08:58:04Z</time>
      </trkpt>
      <trkpt lat="51.699790991842747" lon="0.285220993682742">
        <ele>68</ele>
        <time>2018-02-14T08:58:05Z</time>
      </trkpt>
      <trkpt lat="51.699804989621043" lon="0.285271033644676">
        <ele>68</ele>
        <time>2018-02-14T08:58:07Z</time>
      </trkpt>
      <trkpt lat="51.699820999056101" lon="0.285320989787579">
        <ele>68</ele>
        <time>2018-02-14T08:58:09Z</time>
      </trkpt>
      <trkpt lat="51.699829967692494" lon="0.285347979515791">
        <ele>68</ele>
        <time>2018-02-14T08:58:10Z</time>
      </trkpt>
      <trkpt lat="51.699844971299171" lon="0.285398019477725">
        <ele>68</ele>
        <time>2018-02-14T08:58:12Z</time>
      </trkpt>
      <trkpt lat="51.699857041239738" lon="0.285422997549176">
        <ele>68</ele>
        <time>2018-02-14T08:58:13Z</time>
      </trkpt>
      <trkpt lat="51.699870033189654" lon="0.285446969792247">
        <ele>68</ele>
        <time>2018-02-14T08:58:14Z</time>
      </trkpt>
      <trkpt lat="51.699881013482809" lon="0.285502960905433">
        <ele>68.176465420959502</ele>
        <time>2018-02-14T08:58:16Z</time>
      </trkpt>
      <trkpt lat="51.699888976290822" lon="0.285555012524128">
        <ele>69</ele>
        <time>2018-02-14T08:58:18Z</time>
      </trkpt>
      <trkpt lat="51.699897022917867" lon="0.28558099642396">
        <ele>69</ele>
        <time>2018-02-14T08:58:19Z</time>
      </trkpt>
      <trkpt lat="51.699906997382641" lon="0.285608991980553">
        <ele>69</ele>
        <time>2018-02-14T08:58:20Z</time>
      </trkpt>
      <trkpt lat="51.699915966019034" lon="0.285634975880384">
        <ele>69</ele>
        <time>2018-02-14T08:58:21Z</time>
      </trkpt>
      <trkpt lat="51.699924012646079" lon="0.285660959780216">
        <ele>69</ele>
        <time>2018-02-14T08:58:22Z</time>
      </trkpt>
      <trkpt lat="51.699931975454092" lon="0.285692978650332">
        <ele>69</ele>
        <time>2018-02-14T08:58:23Z</time>
      </trkpt>
      <trkpt lat="51.699939016252756" lon="0.285722985863686">
        <ele>69</ele>
        <time>2018-02-14T08:58:24Z</time>
      </trkpt>
      <trkpt lat="51.69994798488915" lon="0.285778976976871">
        <ele>69</ele>
        <time>2018-02-14T08:58:26Z</time>
      </trkpt>
      <trkpt lat="51.699966005980968" lon="0.285827005282044">
        <ele>69</ele>
        <time>2018-02-14T08:58:28Z</time>
      </trkpt>
      <trkpt lat="51.699974974617362" lon="0.285855000838637">
        <ele>69</ele>
        <time>2018-02-14T08:58:29Z</time>
      </trkpt>
      <trkpt lat="51.699982015416026" lon="0.285884002223611">
        <ele>69</ele>
        <time>2018-02-14T08:58:30Z</time>
      </trkpt>
      <trkpt lat="51.699986038729548" lon="0.285909986123443">
        <ele>70</ele>
        <time>2018-02-14T08:58:31Z</time>
      </trkpt>
      <trkpt lat="51.699998024851084" lon="0.285960026085377">
        <ele>70</ele>
        <time>2018-02-14T08:58:33Z</time>
      </trkpt>
      <trkpt lat="51.700015962123871" lon="0.286008976399899">
        <ele>70</ele>
        <time>2018-02-14T08:58:35Z</time>
      </trkpt>
      <trkpt lat="51.700026020407677" lon="0.286033032462001">
        <ele>70</ele>
        <time>2018-02-14T08:58:36Z</time>
      </trkpt>
      <trkpt lat="51.700035994872451" lon="0.286060022190213">
        <ele>70</ele>
        <time>2018-02-14T08:58:37Z</time>
      </trkpt>
      <trkpt lat="51.700050998479128" lon="0.286108972504735">
        <ele>70</ele>
        <time>2018-02-14T08:58:39Z</time>
      </trkpt>
      <trkpt lat="51.700056027621031" lon="0.286136968061328">
        <ele>70</ele>
        <time>2018-02-14T08:58:40Z</time>
      </trkpt>
      <trkpt lat="51.700071031227708" lon="0.286191031336784">
        <ele>70</ele>
        <time>2018-02-14T08:58:42Z</time>
      </trkpt>
      <trkpt lat="51.70007798820734" lon="0.286219026893377">
        <ele>70</ele>
        <time>2018-02-14T08:58:43Z</time>
      </trkpt>
      <trkpt lat="51.700090980157256" lon="0.286273006349802">
        <ele>70</ele>
        <time>2018-02-14T08:58:45Z</time>
      </trkpt>
      <trkpt lat="51.700093997642398" lon="0.286303013563156">
        <ele>70</ele>
        <time>2018-02-14T08:58:46Z</time>
      </trkpt>
      <trkpt lat="51.700103972107172" lon="0.286353975534439">
        <ele>70</ele>
        <time>2018-02-14T08:58:48Z</time>
      </trkpt>
      <trkpt lat="51.700110007077456" lon="0.286381971091032">
        <ele>70</ele>
        <time>2018-02-14T08:58:49Z</time>
      </trkpt>
      <trkpt lat="51.700122999027371" lon="0.286435028538108">
        <ele>71</ele>
        <time>2018-02-14T08:58:51Z</time>
      </trkpt>
      <trkpt lat="51.700130039826035" lon="0.286464029923081">
        <ele>71</ele>
        <time>2018-02-14T08:58:52Z</time>
      </trkpt>
      <trkpt lat="51.700136996805668" lon="0.286492025479674">
        <ele>71</ele>
        <time>2018-02-14T08:58:53Z</time>
      </trkpt>
      <trkpt lat="51.700149988755584" lon="0.286543993279338">
        <ele>71</ele>
        <time>2018-02-14T08:58:55Z</time>
      </trkpt>
      <trkpt lat="51.700155017897487" lon="0.286572994664311">
        <ele>71</ele>
        <time>2018-02-14T08:58:56Z</time>
      </trkpt>
      <trkpt lat="51.700165998190641" lon="0.286625968292356">
        <ele>71</ele>
        <time>2018-02-14T08:58:58Z</time>
      </trkpt>
      <trkpt lat="51.700173960998654" lon="0.286654969677329">
        <ele>71</ele>
        <time>2018-02-14T08:58:59Z</time>
      </trkpt>
      <trkpt lat="51.700182007625699" lon="0.286681959405541">
        <ele>71</ele>
        <time>2018-02-14T08:59:00Z</time>
      </trkpt>
      <trkpt lat="51.700190976262093" lon="0.286709032952785">
        <ele>71</ele>
        <time>2018-02-14T08:59:01Z</time>
      </trkpt>
      <trkpt lat="51.700197011232376" lon="0.286737028509378">
        <ele>71</ele>
        <time>2018-02-14T08:59:02Z</time>
      </trkpt>
      <trkpt lat="51.700212014839053" lon="0.286787990480661">
        <ele>71</ele>
        <time>2018-02-14T08:59:04Z</time>
      </trkpt>
      <trkpt lat="51.700216960161924" lon="0.286817997694016">
        <ele>71</ele>
        <time>2018-02-14T08:59:05Z</time>
      </trkpt>
      <trkpt lat="51.700222995132208" lon="0.286846999078989">
        <ele>71</ele>
        <time>2018-02-14T08:59:06Z</time>
      </trkpt>
      <trkpt lat="51.700231041759253" lon="0.286872982978821">
        <ele>71</ele>
        <time>2018-02-14T08:59:07Z</time>
      </trkpt>
      <trkpt lat="51.700237998738885" lon="0.286900978535414">
        <ele>71</ele>
        <time>2018-02-14T08:59:08Z</time>
      </trkpt>
      <trkpt lat="51.700245039537549" lon="0.286929979920387">
        <ele>71</ele>
        <time>2018-02-14T08:59:09Z</time>
      </trkpt>
      <trkpt lat="51.700259037315845" lon="0.286982031539083">
        <ele>71</ele>
        <time>2018-02-14T08:59:11Z</time>
      </trkpt>
      <trkpt lat="51.700271023437381" lon="0.287007009610534">
        <ele>71</ele>
        <time>2018-02-14T08:59:12Z</time>
      </trkpt>
      <trkpt lat="51.700283009558916" lon="0.287030981853604">
        <ele>71</ele>
        <time>2018-02-14T08:59:13Z</time>
      </trkpt>
      <trkpt lat="51.700288960710168" lon="0.287057971581817">
        <ele>71</ele>
        <time>2018-02-14T08:59:14Z</time>
      </trkpt>
      <trkpt lat="51.700294995680451" lon="0.287087978795171">
        <ele>71</ele>
        <time>2018-02-14T08:59:15Z</time>
      </trkpt>
      <trkpt lat="51.700302958488464" lon="0.287146987393498">
        <ele>71</ele>
        <time>2018-02-14T08:59:17Z</time>
      </trkpt>
      <trkpt lat="51.700309999287128" lon="0.287180012091994">
        <ele>71</ele>
        <time>2018-02-14T08:59:18Z</time>
      </trkpt>
      <trkpt lat="51.700316034257412" lon="0.287210019305348">
        <ele>71</ele>
        <time>2018-02-14T08:59:19Z</time>
      </trkpt>
      <trkpt lat="51.700321985408664" lon="0.287240026518703">
        <ele>71</ele>
        <time>2018-02-14T08:59:20Z</time>
      </trkpt>
      <trkpt lat="51.700327014550567" lon="0.287271039560437">
        <ele>71</ele>
        <time>2018-02-14T08:59:21Z</time>
      </trkpt>
      <trkpt lat="51.700336989015341" lon="0.287328036502004">
        <ele>71</ele>
        <time>2018-02-14T08:59:23Z</time>
      </trkpt>
      <trkpt lat="51.700342018157244" lon="0.287357959896326">
        <ele>71</ele>
        <time>2018-02-14T08:59:24Z</time>
      </trkpt>
      <trkpt lat="51.700351992622018" lon="0.287415040656924">
        <ele>71</ele>
        <time>2018-02-14T08:59:26Z</time>
      </trkpt>
      <trkpt lat="51.70037797652185" lon="0.287491986528039">
        <ele>72</ele>
        <time>2018-02-14T08:59:29Z</time>
      </trkpt>
      <trkpt lat="51.700384011492133" lon="0.287519982084632">
        <ele>72</ele>
        <time>2018-02-14T08:59:30Z</time>
      </trkpt>
      <trkpt lat="51.700389962643385" lon="0.287547977641225">
        <ele>72</ele>
        <time>2018-02-14T08:59:31Z</time>
      </trkpt>
      <trkpt lat="51.700395997613668" lon="0.287576979026198">
        <ele>72</ele>
        <time>2018-02-14T08:59:32Z</time>
      </trkpt>
      <trkpt lat="51.700403038412333" lon="0.287630036473274">
        <ele>72</ele>
        <time>2018-02-14T08:59:34Z</time>
      </trkpt>
      <trkpt lat="51.700411001220345" lon="0.287684015929699">
        <ele>72</ele>
        <time>2018-02-14T08:59:36Z</time>
      </trkpt>
      <trkpt lat="51.700419969856739" lon="0.287740007042885">
        <ele>72</ele>
        <time>2018-02-14T08:59:38Z</time>
      </trkpt>
      <trkpt lat="51.700430028140545" lon="0.28779398649931">
        <ele>72</ele>
        <time>2018-02-14T08:59:40Z</time>
      </trkpt>
      <trkpt lat="51.7004410084337" lon="0.287846038118005">
        <ele>72</ele>
        <time>2018-02-14T08:59:42Z</time>
      </trkpt>
      <trkpt lat="51.700451988726854" lon="0.287903035059571">
        <ele>72</ele>
        <time>2018-02-14T08:59:44Z</time>
      </trkpt>
      <trkpt lat="51.700457017868757" lon="0.287932036444545">
        <ele>72</ele>
        <time>2018-02-14T08:59:45Z</time>
      </trkpt>
      <trkpt lat="51.70046498067677" lon="0.287959026172757">
        <ele>72</ele>
        <time>2018-02-14T08:59:46Z</time>
      </trkpt>
      <trkpt lat="51.700478978455067" lon="0.288016023114324">
        <ele>72</ele>
        <time>2018-02-14T08:59:48Z</time>
      </trkpt>
      <trkpt lat="51.700489958748221" lon="0.28807201422751">
        <ele>72</ele>
        <time>2018-02-14T08:59:50Z</time>
      </trkpt>
      <trkpt lat="51.700491970404983" lon="0.288125993683934">
        <ele>72</ele>
        <time>2018-02-14T08:59:52Z</time>
      </trkpt>
      <trkpt lat="51.700498005375266" lon="0.288153989240527">
        <ele>72</ele>
        <time>2018-02-14T08:59:53Z</time>
      </trkpt>
      <trkpt lat="51.700510997325182" lon="0.288204029202461">
        <ele>72</ele>
        <time>2018-02-14T08:59:55Z</time>
      </trkpt>
      <trkpt lat="51.700517032295465" lon="0.288231018930674">
        <ele>72</ele>
        <time>2018-02-14T08:59:56Z</time>
      </trkpt>
      <trkpt lat="51.700521977618337" lon="0.288261026144028">
        <ele>72</ele>
        <time>2018-02-14T08:59:57Z</time>
      </trkpt>
      <trkpt lat="51.700530024245381" lon="0.288316011428833">
        <ele>72</ele>
        <time>2018-02-14T08:59:59Z</time>
      </trkpt>
      <trkpt lat="51.700535975396633" lon="0.288369990885258">
        <ele>72</ele>
        <time>2018-02-14T09:00:01Z</time>
      </trkpt>
      <trkpt lat="51.700538992881775" lon="0.288399998098612">
        <ele>72</ele>
        <time>2018-02-14T09:00:02Z</time>
      </trkpt>
      <trkpt lat="51.700541004538536" lon="0.288430005311966">
        <ele>72</ele>
        <time>2018-02-14T09:00:03Z</time>
      </trkpt>
      <trkpt lat="51.700545027852058" lon="0.288485996425152">
        <ele>72</ele>
        <time>2018-02-14T09:00:05Z</time>
      </trkpt>
      <trkpt lat="51.700548967346549" lon="0.288513991981745">
        <ele>72</ele>
        <time>2018-02-14T09:00:06Z</time>
      </trkpt>
      <trkpt lat="51.700551984831691" lon="0.288541987538338">
        <ele>72</ele>
        <time>2018-02-14T09:00:07Z</time>
      </trkpt>
      <trkpt lat="51.700552990660071" lon="0.288574006408453">
        <ele>72</ele>
        <time>2018-02-14T09:00:08Z</time>
      </trkpt>
      <trkpt lat="51.700553996488452" lon="0.288605019450188">
        <ele>72</ele>
        <time>2018-02-14T09:00:09Z</time>
      </trkpt>
      <trkpt lat="51.700556008145213" lon="0.288634020835161">
        <ele>72.130846711486498</ele>
        <time>2018-02-14T09:00:10Z</time>
      </trkpt>
      <trkpt lat="51.700560031458735" lon="0.288665033876896">
        <ele>73</ele>
        <time>2018-02-14T09:00:11Z</time>
      </trkpt>
      <trkpt lat="51.700561037287116" lon="0.288695963099599">
        <ele>73</ele>
        <time>2018-02-14T09:00:12Z</time>
      </trkpt>
      <trkpt lat="51.700563970953226" lon="0.288750026375055">
        <ele>73</ele>
        <time>2018-02-14T09:00:14Z</time>
      </trkpt>
      <trkpt lat="51.700565982609987" lon="0.288779027760029">
        <ele>73.180004095947595</ele>
        <time>2018-02-14T09:00:15Z</time>
      </trkpt>
      <trkpt lat="51.700564976781607" lon="0.288836024701595">
        <ele>74</ele>
        <time>2018-02-14T09:00:17Z</time>
      </trkpt>
      <trkpt lat="51.700563970953226" lon="0.288866031914949">
        <ele>74</ele>
        <time>2018-02-14T09:00:18Z</time>
      </trkpt>
      <trkpt lat="51.700564976781607" lon="0.288896039128304">
        <ele>74</ele>
        <time>2018-02-14T09:00:19Z</time>
      </trkpt>
      <trkpt lat="51.700566988438368" lon="0.288927974179387">
        <ele>74</ele>
        <time>2018-02-14T09:00:20Z</time>
      </trkpt>
      <trkpt lat="51.700564976781607" lon="0.288983965292573">
        <ele>74</ele>
        <time>2018-02-14T09:00:22Z</time>
      </trkpt>
      <trkpt lat="51.700564976781607" lon="0.289013972505927">
        <ele>74</ele>
        <time>2018-02-14T09:00:23Z</time>
      </trkpt>
      <trkpt lat="51.700563970953226" lon="0.289069963619113">
        <ele>74</ele>
        <time>2018-02-14T09:00:25Z</time>
      </trkpt>
      <trkpt lat="51.700561037287116" lon="0.289101982489228">
        <ele>74</ele>
        <time>2018-02-14T09:00:26Z</time>
      </trkpt>
      <trkpt lat="51.700557013973594" lon="0.289131989702582">
        <ele>74</ele>
        <time>2018-02-14T09:00:27Z</time>
      </trkpt>
      <trkpt lat="51.70054997317493" lon="0.289192004129291">
        <ele>74</ele>
        <time>2018-02-14T09:00:29Z</time>
      </trkpt>
      <trkpt lat="51.700548967346549" lon="0.289219999685884">
        <ele>74</ele>
        <time>2018-02-14T09:00:30Z</time>
      </trkpt>
      <trkpt lat="51.700547961518168" lon="0.289250006899238">
        <ele>74</ele>
        <time>2018-02-14T09:00:31Z</time>
      </trkpt>
      <trkpt lat="51.700546033680439" lon="0.289282025769353">
        <ele>74</ele>
        <time>2018-02-14T09:00:32Z</time>
      </trkpt>
      <trkpt lat="51.700545027852058" lon="0.289312032982707">
        <ele>74</ele>
        <time>2018-02-14T09:00:33Z</time>
      </trkpt>
      <trkpt lat="51.700539998710155" lon="0.289366012439132">
        <ele>74</ele>
        <time>2018-02-14T09:00:35Z</time>
      </trkpt>
      <trkpt lat="51.700535975396633" lon="0.289396019652486">
        <ele>74</ele>
        <time>2018-02-14T09:00:36Z</time>
      </trkpt>
      <trkpt lat="51.700533041730523" lon="0.289444969967008">
        <ele>74</ele>
        <time>2018-02-14T09:00:38Z</time>
      </trkpt>
      <trkpt lat="51.700526000931859" lon="0.289477994665504">
        <ele>74</ele>
        <time>2018-02-14T09:00:39Z</time>
      </trkpt>
      <trkpt lat="51.700518038123846" lon="0.289505990222096">
        <ele>74</ele>
        <time>2018-02-14T09:00:40Z</time>
      </trkpt>
      <trkpt lat="51.700509991496801" lon="0.289563992992044">
        <ele>74.147288206227302</ele>
        <time>2018-02-14T09:00:42Z</time>
      </trkpt>
      <trkpt lat="51.700509991496801" lon="0.289591988548636">
        <ele>74.922476235835802</ele>
        <time>2018-02-14T09:00:43Z</time>
      </trkpt>
      <trkpt lat="51.700509991496801" lon="0.289619984105229">
        <ele>75</ele>
        <time>2018-02-14T09:00:44Z</time>
      </trkpt>
      <trkpt lat="51.70050697401166" lon="0.289649991318583">
        <ele>75</ele>
        <time>2018-02-14T09:00:45Z</time>
      </trkpt>
      <trkpt lat="51.700500017032027" lon="0.289676981046796">
        <ele>75</ele>
        <time>2018-02-14T09:00:46Z</time>
      </trkpt>
      <trkpt lat="51.700486019253731" lon="0.289730038493872">
        <ele>74</ele>
        <time>2018-02-14T09:00:48Z</time>
      </trkpt>
      <trkpt lat="51.700473027303815" lon="0.289763985201716">
        <ele>74</ele>
        <time>2018-02-14T09:00:50Z</time>
      </trkpt>
      <trkpt lat="51.700461963191628" lon="0.289797009900212">
        <ele>74</ele>
        <time>2018-02-14T09:00:52Z</time>
      </trkpt>
      <trkpt lat="51.700454000383615" lon="0.289827017113566">
        <ele>74.179995903947599</ele>
        <time>2018-02-14T09:00:54Z</time>
      </trkpt>
      <trkpt lat="51.700443020090461" lon="0.289854006841779">
        <ele>75</ele>
        <time>2018-02-14T09:00:56Z</time>
      </trkpt>
      <trkpt lat="51.700429022312164" lon="0.289884014055133">
        <ele>75</ele>
        <time>2018-02-14T09:00:58Z</time>
      </trkpt>
      <trkpt lat="51.700417958199978" lon="0.289919972419739">
        <ele>75</ele>
        <time>2018-02-14T09:01:00Z</time>
      </trkpt>
      <trkpt lat="51.700407983735204" lon="0.289955008774996">
        <ele>75</ele>
        <time>2018-02-14T09:01:02Z</time>
      </trkpt>
      <trkpt lat="51.700402032583952" lon="0.289991972967982">
        <ele>75</ele>
        <time>2018-02-14T09:01:04Z</time>
      </trkpt>
      <trkpt lat="51.700394991785288" lon="0.290024997666478">
        <ele>75</ele>
        <time>2018-02-14T09:01:06Z</time>
      </trkpt>
      <trkpt lat="51.700387028977275" lon="0.290055004879832">
        <ele>75</ele>
        <time>2018-02-14T09:01:08Z</time>
      </trkpt>
      <trkpt lat="51.700374959036708" lon="0.290085012093186">
        <ele>75</ele>
        <time>2018-02-14T09:01:10Z</time>
      </trkpt>
      <trkpt lat="51.700366996228695" lon="0.290118958801031">
        <ele>75</ele>
        <time>2018-02-14T09:01:12Z</time>
      </trkpt>
      <trkpt lat="51.700363978743553" lon="0.290159024298191">
        <ele>75</ele>
        <time>2018-02-14T09:01:14Z</time>
      </trkpt>
      <trkpt lat="51.70035501010716" lon="0.290198000147939">
        <ele>75</ele>
        <time>2018-02-14T09:01:16Z</time>
      </trkpt>
      <trkpt lat="51.700346041470766" lon="0.290229013189673">
        <ele>75</ele>
        <time>2018-02-14T09:01:18Z</time>
      </trkpt>
      <trkpt lat="51.700336989015341" lon="0.290263965725899">
        <ele>75</ele>
        <time>2018-02-14T09:01:20Z</time>
      </trkpt>
      <trkpt lat="51.700325002893806" lon="0.290292967110872">
        <ele>75</ele>
        <time>2018-02-14T09:01:22Z</time>
      </trkpt>
      <trkpt lat="51.700311005115509" lon="0.290319034829736">
        <ele>75</ele>
        <time>2018-02-14T09:01:24Z</time>
      </trkpt>
      <trkpt lat="51.700302036479115" lon="0.290347030386329">
        <ele>75</ele>
        <time>2018-02-14T09:01:26Z</time>
      </trkpt>
      <trkpt lat="51.70029298402369" lon="0.290380977094173">
        <ele>75.141420148945002</ele>
        <time>2018-02-14T09:01:28Z</time>
      </trkpt>
      <trkpt lat="51.700287032872438" lon="0.29041500762105">
        <ele>76</ele>
        <time>2018-02-14T09:01:30Z</time>
      </trkpt>
      <trkpt lat="51.700278986245394" lon="0.290449038147926">
        <ele>76</ele>
        <time>2018-02-14T09:01:32Z</time>
      </trkpt>
      <trkpt lat="51.700268005952239" lon="0.290477033704519">
        <ele>76</ele>
        <time>2018-02-14T09:01:34Z</time>
      </trkpt>
      <trkpt lat="51.700259037315845" lon="0.290506035089493">
        <ele>76</ele>
        <time>2018-02-14T09:01:36Z</time>
      </trkpt>
      <trkpt lat="51.700254008173943" lon="0.29054501093924">
        <ele>76</ele>
        <time>2018-02-14T09:01:38Z</time>
      </trkpt>
      <trkpt lat="51.700242022052407" lon="0.290582980960608">
        <ele>76</ele>
        <time>2018-02-14T09:01:40Z</time>
      </trkpt>
      <trkpt lat="51.700242022052407" lon="0.290620028972626">
        <ele>75.824744988849403</ele>
        <time>2018-02-14T09:01:42Z</time>
      </trkpt>
      <trkpt lat="51.700245961546898" lon="0.290654981508851">
        <ele>75</ele>
        <time>2018-02-14T09:01:44Z</time>
      </trkpt>
      <trkpt lat="51.700254008173943" lon="0.290690017864108">
        <ele>75.181813480211503</ele>
        <time>2018-02-14T09:01:46Z</time>
      </trkpt>
      <trkpt lat="51.700255014002323" lon="0.290729999542236">
        <ele>76</ele>
        <time>2018-02-14T09:01:48Z</time>
      </trkpt>
      <trkpt lat="51.700256019830704" lon="0.290770987048745">
        <ele>76</ele>
        <time>2018-02-14T09:01:50Z</time>
      </trkpt>
      <trkpt lat="51.700258031487465" lon="0.290809962898493">
        <ele>75.9431854545455</ele>
        <time>2018-02-14T09:01:52Z</time>
      </trkpt>
      <trkpt lat="51.700260965153575" lon="0.29084499925375">
        <ele>75</ele>
        <time>2018-02-14T09:01:54Z</time>
      </trkpt>
      <trkpt lat="51.700263982638717" lon="0.290881041437387">
        <ele>75</ele>
        <time>2018-02-14T09:01:56Z</time>
      </trkpt>
      <trkpt lat="51.700271023437381" lon="0.290914988145232">
        <ele>75</ele>
        <time>2018-02-14T09:01:58Z</time>
      </trkpt>
      <trkpt lat="51.700280997902155" lon="0.290968967601657">
        <ele>75</ele>
        <time>2018-02-14T09:02:01Z</time>
      </trkpt>
      <trkpt lat="51.700277980417013" lon="0.291000986471772">
        <ele>76</ele>
        <time>2018-02-14T09:02:03Z</time>
      </trkpt>
      <trkpt lat="51.700285021215677" lon="0.291033005341887">
        <ele>76</ele>
        <time>2018-02-14T09:02:05Z</time>
      </trkpt>
      <trkpt lat="51.700296001508832" lon="0.291062006726861">
        <ele>76</ele>
        <time>2018-02-14T09:02:07Z</time>
      </trkpt>
      <trkpt lat="51.700307987630367" lon="0.291095031425357">
        <ele>76</ele>
        <time>2018-02-14T09:02:09Z</time>
      </trkpt>
      <trkpt lat="51.700315028429031" lon="0.29112596064806">
        <ele>76</ele>
        <time>2018-02-14T09:02:11Z</time>
      </trkpt>
      <trkpt lat="51.70031301677227" lon="0.291160997003317">
        <ele>76.200000000000003</ele>
        <time>2018-02-14T09:02:13Z</time>
      </trkpt>
      <trkpt lat="51.700293989852071" lon="0.291174994781613">
        <ele>77</ele>
        <time>2018-02-14T09:02:15Z</time>
      </trkpt>
      <trkpt lat="51.700264988467097" lon="0.291171977296472">
        <ele>77</ele>
        <time>2018-02-14T09:02:17Z</time>
      </trkpt>
      <trkpt lat="51.700239004567266" lon="0.291165020316839">
        <ele>77</ele>
        <time>2018-02-14T09:02:19Z</time>
      </trkpt>
      <trkpt lat="51.700215032324195" lon="0.291156973689795">
        <ele>77</ele>
        <time>2018-02-14T09:02:21Z</time>
      </trkpt>
      <trkpt lat="51.700190976262093" lon="0.291150016710162">
        <ele>77</ele>
        <time>2018-02-14T09:02:23Z</time>
      </trkpt>
      <trkpt lat="51.700161974877119" lon="0.291142975911498">
        <ele>77</ele>
        <time>2018-02-14T09:02:25Z</time>
      </trkpt>
      <trkpt lat="51.700136996805668" lon="0.291129983961582">
        <ele>77</ele>
        <time>2018-02-14T09:02:27Z</time>
      </trkpt>
      <trkpt lat="51.700115036219358" lon="0.291107017546892">
        <ele>77</ele>
        <time>2018-02-14T09:02:29Z</time>
      </trkpt>
      <trkpt lat="51.700089974328876" lon="0.29110400006175">
        <ele>77</ele>
        <time>2018-02-14T09:02:31Z</time>
      </trkpt>
      <trkpt lat="51.700067007914186" lon="0.291098970919847">
        <ele>77</ele>
        <time>2018-02-14T09:02:33Z</time>
      </trkpt>
      <trkpt lat="51.700047980993986" lon="0.291091008111835">
        <ele>77</ele>
        <time>2018-02-14T09:02:35Z</time>
      </trkpt>
      <trkpt lat="51.700027026236057" lon="0.29108103364706">
        <ele>77</ele>
        <time>2018-02-14T09:02:37Z</time>
      </trkpt>
      <trkpt lat="51.700000958517194" lon="0.291078016161919">
        <ele>77</ele>
        <time>2018-02-14T09:02:39Z</time>
      </trkpt>
      <trkpt lat="51.699976986274123" lon="0.291070975363255">
        <ele>77</ele>
        <time>2018-02-14T09:02:41Z</time>
      </trkpt>
      <trkpt lat="51.699953014031053" lon="0.291062006726861">
        <ele>77</ele>
        <time>2018-02-14T09:02:43Z</time>
      </trkpt>
      <trkpt lat="51.699929963797331" lon="0.291050020605326">
        <ele>77.048780868533598</ele>
        <time>2018-02-14T09:02:45Z</time>
      </trkpt>
      <trkpt lat="51.699910014867783" lon="0.291043985635042">
        <ele>78</ele>
        <time>2018-02-14T09:02:47Z</time>
      </trkpt>
      <trkpt lat="51.699888976290822" lon="0.291042979806662">
        <ele>78</ele>
        <time>2018-02-14T09:02:49Z</time>
      </trkpt>
      <trkpt lat="51.699871039018035" lon="0.291034011170268">
        <ele>78.181824058750493</ele>
        <time>2018-02-14T09:02:51Z</time>
      </trkpt>
      <trkpt lat="51.699851006269455" lon="0.29101800173521">
        <ele>79</ele>
        <time>2018-02-14T09:02:53Z</time>
      </trkpt>
      <trkpt lat="51.699824016541243" lon="0.291006015613675">
        <ele>79</ele>
        <time>2018-02-14T09:02:55Z</time>
      </trkpt>
      <trkpt lat="51.699800966307521" lon="0.290998974815011">
        <ele>79</ele>
        <time>2018-02-14T09:02:57Z</time>
      </trkpt>
      <trkpt lat="51.699777999892831" lon="0.290999980643392">
        <ele>79</ele>
        <time>2018-02-14T09:02:59Z</time>
      </trkpt>
      <trkpt lat="51.699755033478141" lon="0.29099696315825">
        <ele>79.080807819611096</ele>
        <time>2018-02-14T09:03:01Z</time>
      </trkpt>
      <trkpt lat="51.699721002951264" lon="0.291005009785295">
        <ele>80</ele>
        <time>2018-02-14T09:03:03Z</time>
      </trkpt>
      <trkpt lat="51.699702981859446" lon="0.29099503532052">
        <ele>80</ele>
        <time>2018-02-14T09:03:04Z</time>
      </trkpt>
      <trkpt lat="51.69968998990953" lon="0.290969973430038">
        <ele>80</ele>
        <time>2018-02-14T09:03:05Z</time>
      </trkpt>
      <trkpt lat="51.699675992131233" lon="0.29093099758029">
        <ele>80.100840064967898</ele>
        <time>2018-02-14T09:03:07Z</time>
      </trkpt>
      <trkpt lat="51.699643973261118" lon="0.290919011458755">
        <ele>81</ele>
        <time>2018-02-14T09:03:09Z</time>
      </trkpt>
      <trkpt lat="51.699621006846428" lon="0.290914988145232">
        <ele>81</ele>
        <time>2018-02-14T09:03:11Z</time>
      </trkpt>
      <trkpt lat="51.699596028774977" lon="0.290900990366936">
        <ele>82</ele>
        <time>2018-02-14T09:03:13Z</time>
      </trkpt>
      <trkpt lat="51.699579013511539" lon="0.290890010073781">
        <ele>82</ele>
        <time>2018-02-14T09:03:14Z</time>
      </trkpt>
      <trkpt lat="51.699559986591339" lon="0.290880035609007">
        <ele>82</ele>
        <time>2018-02-14T09:03:15Z</time>
      </trkpt>
      <trkpt lat="51.699536014348269" lon="0.290870983153582">
        <ele>82</ele>
        <time>2018-02-14T09:03:16Z</time>
      </trkpt>
      <trkpt lat="51.699513969942927" lon="0.290861008688807">
        <ele>82</ele>
        <time>2018-02-14T09:03:17Z</time>
      </trkpt>
      <trkpt lat="51.699493015184999" lon="0.290852962061763">
        <ele>82</ele>
        <time>2018-02-14T09:03:18Z</time>
      </trkpt>
      <trkpt lat="51.699473988264799" lon="0.290839970111847">
        <ele>82</ele>
        <time>2018-02-14T09:03:19Z</time>
      </trkpt>
      <trkpt lat="51.699456973001361" lon="0.290823960676789">
        <ele>82.183907369536101</ele>
        <time>2018-02-14T09:03:20Z</time>
      </trkpt>
      <trkpt lat="51.699440041556954" lon="0.290815997868776">
        <ele>86</ele>
        <time>2018-02-14T09:03:21Z</time>
      </trkpt>
      <trkpt lat="51.699420008808374" lon="0.290809040889144">
        <ele>86</ele>
        <time>2018-02-14T09:03:22Z</time>
      </trkpt>
      <trkpt lat="51.699400981888175" lon="0.290799988433719">
        <ele>86</ele>
        <time>2018-02-14T09:03:23Z</time>
      </trkpt>
      <trkpt lat="51.699382960796356" lon="0.290789008140564">
        <ele>86</ele>
        <time>2018-02-14T09:03:24Z</time>
      </trkpt>
      <trkpt lat="51.699364017695189" lon="0.290780961513519">
        <ele>86</ele>
        <time>2018-02-14T09:03:25Z</time>
      </trkpt>
      <trkpt lat="51.699344990774989" lon="0.290768975391984">
        <ele>86</ele>
        <time>2018-02-14T09:03:26Z</time>
      </trkpt>
      <trkpt lat="51.699309032410383" lon="0.290750032290816">
        <ele>86</ele>
        <time>2018-02-14T09:03:28Z</time>
      </trkpt>
      <trkpt lat="51.699290005490184" lon="0.29073603451252">
        <ele>86</ele>
        <time>2018-02-14T09:03:29Z</time>
      </trkpt>
      <trkpt lat="51.699270978569984" lon="0.290724970400333">
        <ele>86</ele>
        <time>2018-02-14T09:03:30Z</time>
      </trkpt>
      <trkpt lat="51.699253963306546" lon="0.290714995935559">
        <ele>86</ele>
        <time>2018-02-14T09:03:31Z</time>
      </trkpt>
      <trkpt lat="51.699226973578334" lon="0.290688006207347">
        <ele>86</ele>
        <time>2018-02-14T09:03:33Z</time>
      </trkpt>
      <trkpt lat="51.699209958314896" lon="0.290663028135896">
        <ele>86</ele>
        <time>2018-02-14T09:03:35Z</time>
      </trkpt>
      <trkpt lat="51.69919403269887" lon="0.290648024529219">
        <ele>86</ele>
        <time>2018-02-14T09:03:37Z</time>
      </trkpt>
      <trkpt lat="51.699177017435431" lon="0.290636038407683">
        <ele>86.105269540144704</ele>
        <time>2018-02-14T09:03:39Z</time>
      </trkpt>
      <trkpt lat="51.699157990515232" lon="0.290623968467116">
        <ele>87</ele>
        <time>2018-02-14T09:03:41Z</time>
      </trkpt>
      <trkpt lat="51.699139969423413" lon="0.2906109765172">
        <ele>86.8712898892353</ele>
        <time>2018-02-14T09:03:43Z</time>
      </trkpt>
      <trkpt lat="51.699121026322246" lon="0.290596978738904">
        <ele>86.072167533187297</ele>
        <time>2018-02-14T09:03:45Z</time>
      </trkpt>
      <trkpt lat="51.699099987745285" lon="0.290581975132227">
        <ele>87</ele>
        <time>2018-02-14T09:03:47Z</time>
      </trkpt>
      <trkpt lat="51.699078027158976" lon="0.29056697152555">
        <ele>87</ele>
        <time>2018-02-14T09:03:49Z</time>
      </trkpt>
      <trkpt lat="51.699059000238776" lon="0.290555991232395">
        <ele>86</ele>
        <time>2018-02-14T09:03:51Z</time>
      </trkpt>
      <trkpt lat="51.699043996632099" lon="0.290536964312196">
        <ele>85.078744998437799</ele>
        <time>2018-02-14T09:03:53Z</time>
      </trkpt>
      <trkpt lat="51.699029998853803" lon="0.290522966533899">
        <ele>85</ele>
        <time>2018-02-14T09:03:55Z</time>
      </trkpt>
      <trkpt lat="51.699012983590364" lon="0.290503017604351">
        <ele>86</ele>
        <time>2018-02-14T09:04:01Z</time>
      </trkpt>
      <trkpt lat="51.698995968326926" lon="0.29048197902739">
        <ele>85</ele>
        <time>2018-02-14T09:04:03Z</time>
      </trkpt>
      <trkpt lat="51.698978031054139" lon="0.290454989299178">
        <ele>85</ele>
        <time>2018-02-14T09:04:05Z</time>
      </trkpt>
      <trkpt lat="51.698962021619081" lon="0.290433028712869">
        <ele>85</ele>
        <time>2018-02-14T09:04:07Z</time>
      </trkpt>
      <trkpt lat="51.698935031890869" lon="0.290404027327895">
        <ele>86</ele>
        <time>2018-02-14T09:04:09Z</time>
      </trkpt>
      <trkpt lat="51.69891600497067" lon="0.290387012064457">
        <ele>86</ele>
        <time>2018-02-14T09:04:10Z</time>
      </trkpt>
      <trkpt lat="51.698897983878851" lon="0.290366979315877">
        <ele>86</ele>
        <time>2018-02-14T09:04:11Z</time>
      </trkpt>
      <trkpt lat="51.698879962787032" lon="0.290346024557948">
        <ele>86</ele>
        <time>2018-02-14T09:04:12Z</time>
      </trkpt>
      <trkpt lat="51.698864037171006" lon="0.290320040658116">
        <ele>86</ele>
        <time>2018-02-14T09:04:13Z</time>
      </trkpt>
      <trkpt lat="51.69885003939271" lon="0.290293972939253">
        <ele>86</ele>
        <time>2018-02-14T09:04:14Z</time>
      </trkpt>
      <trkpt lat="51.698835035786033" lon="0.290263965725899">
        <ele>86</ele>
        <time>2018-02-14T09:04:15Z</time>
      </trkpt>
      <trkpt lat="51.698820032179356" lon="0.290236975997686">
        <ele>86</ele>
        <time>2018-02-14T09:04:16Z</time>
      </trkpt>
      <trkpt lat="51.698804022744298" lon="0.290215015411377">
        <ele>86</ele>
        <time>2018-02-14T09:04:17Z</time>
      </trkpt>
      <trkpt lat="51.698786001652479" lon="0.290193976834416">
        <ele>86</ele>
        <time>2018-02-14T09:04:18Z</time>
      </trkpt>
      <trkpt lat="51.698768986389041" lon="0.290172016248107">
        <ele>86</ele>
        <time>2018-02-14T09:04:19Z</time>
      </trkpt>
      <trkpt lat="51.698752976953983" lon="0.290147960186005">
        <ele>85.803920338323707</ele>
        <time>2018-02-14T09:04:20Z</time>
      </trkpt>
      <trkpt lat="51.698736967518926" lon="0.290125999599695">
        <ele>85</ele>
        <time>2018-02-14T09:04:21Z</time>
      </trkpt>
      <trkpt lat="51.698722969740629" lon="0.290105966851115">
        <ele>85</ele>
        <time>2018-02-14T09:04:22Z</time>
      </trkpt>
      <trkpt lat="51.698706960305572" lon="0.290085012093186">
        <ele>85</ele>
        <time>2018-02-14T09:04:23Z</time>
      </trkpt>
      <trkpt lat="51.698689023032784" lon="0.290065985172987">
        <ele>85</ele>
        <time>2018-02-14T09:04:24Z</time>
      </trkpt>
      <trkpt lat="51.698671001940966" lon="0.290048969909549">
        <ele>85</ele>
        <time>2018-02-14T09:04:25Z</time>
      </trkpt>
      <trkpt lat="51.698651975020766" lon="0.290031032636762">
        <ele>85</ele>
        <time>2018-02-14T09:04:26Z</time>
      </trkpt>
      <trkpt lat="51.698634037747979" lon="0.290014017373323">
        <ele>85</ele>
        <time>2018-02-14T09:04:27Z</time>
      </trkpt>
      <trkpt lat="51.698617022484541" lon="0.289999013766646">
        <ele>85</ele>
        <time>2018-02-14T09:04:28Z</time>
      </trkpt>
      <trkpt lat="51.698596989735961" lon="0.289986021816731">
        <ele>85</ele>
        <time>2018-02-14T09:04:29Z</time>
      </trkpt>
      <trkpt lat="51.698577962815762" lon="0.289972024038434">
        <ele>85</ele>
        <time>2018-02-14T09:04:30Z</time>
      </trkpt>
      <trkpt lat="51.698557008057833" lon="0.289961965754628">
        <ele>85</ele>
        <time>2018-02-14T09:04:31Z</time>
      </trkpt>
      <trkpt lat="51.698537981137633" lon="0.289952997118235">
        <ele>85</ele>
        <time>2018-02-14T09:04:32Z</time>
      </trkpt>
      <trkpt lat="51.698519038036466" lon="0.289948973804712">
        <ele>85</ele>
        <time>2018-02-14T09:04:33Z</time>
      </trkpt>
      <trkpt lat="51.698499005287886" lon="0.289941010996699">
        <ele>85</ele>
        <time>2018-02-14T09:04:34Z</time>
      </trkpt>
      <trkpt lat="51.698480984196067" lon="0.289928019046783">
        <ele>85</ele>
        <time>2018-02-14T09:04:35Z</time>
      </trkpt>
      <trkpt lat="51.698462041094899" lon="0.289915027096868">
        <ele>85</ele>
        <time>2018-02-14T09:04:36Z</time>
      </trkpt>
      <trkpt lat="51.6984430141747" lon="0.289903040975332">
        <ele>85</ele>
        <time>2018-02-14T09:04:37Z</time>
      </trkpt>
      <trkpt lat="51.698424993082881" lon="0.289893988519907">
        <ele>85</ele>
        <time>2018-02-14T09:04:38Z</time>
      </trkpt>
      <trkpt lat="51.698403032496572" lon="0.289888037368655">
        <ele>85</ele>
        <time>2018-02-14T09:04:39Z</time>
      </trkpt>
      <trkpt lat="51.698384005576372" lon="0.289879990741611">
        <ele>85</ele>
        <time>2018-02-14T09:04:40Z</time>
      </trkpt>
      <trkpt lat="51.698347041383386" lon="0.289871022105217">
        <ele>85</ele>
        <time>2018-02-14T09:04:42Z</time>
      </trkpt>
      <trkpt lat="51.698328014463186" lon="0.289871022105217">
        <ele>85</ele>
        <time>2018-02-14T09:04:43Z</time>
      </trkpt>
      <trkpt lat="51.698307981714606" lon="0.289874039590359">
        <ele>85.336285992614606</ele>
        <time>2018-02-14T09:04:44Z</time>
      </trkpt>
      <trkpt lat="51.698287026956677" lon="0.289875967428088">
        <ele>87</ele>
        <time>2018-02-14T09:04:45Z</time>
      </trkpt>
      <trkpt lat="51.698266994208097" lon="0.28987898491323">
        <ele>87</ele>
        <time>2018-02-14T09:04:46Z</time>
      </trkpt>
      <trkpt lat="51.698246961459517" lon="0.289883008226752">
        <ele>87</ele>
        <time>2018-02-14T09:04:47Z</time>
      </trkpt>
      <trkpt lat="51.698226006701589" lon="0.289886025711894">
        <ele>86.950003199999998</ele>
        <time>2018-02-14T09:04:48Z</time>
      </trkpt>
      <trkpt lat="51.698206979781389" lon="0.289885019883513">
        <ele>86</ele>
        <time>2018-02-14T09:04:49Z</time>
      </trkpt>
      <trkpt lat="51.698187030851841" lon="0.289883008226752">
        <ele>86</ele>
        <time>2018-02-14T09:04:50Z</time>
      </trkpt>
      <trkpt lat="51.698166998103261" lon="0.289883008226752">
        <ele>85</ele>
        <time>2018-02-14T09:04:51Z</time>
      </trkpt>
      <trkpt lat="51.698148977011442" lon="0.289884014055133">
        <ele>85</ele>
        <time>2018-02-14T09:04:52Z</time>
      </trkpt>
      <trkpt lat="51.698130033910275" lon="0.289887031540275">
        <ele>85</ele>
        <time>2018-02-14T09:04:53Z</time>
      </trkpt>
      <trkpt lat="51.698108995333314" lon="0.289888959378004">
        <ele>85</ele>
        <time>2018-02-14T09:04:54Z</time>
      </trkpt>
      <trkpt lat="51.698089968413115" lon="0.289891976863146">
        <ele>85</ele>
        <time>2018-02-14T09:04:55Z</time>
      </trkpt>
      <trkpt lat="51.698072031140327" lon="0.289893988519907">
        <ele>85</ele>
        <time>2018-02-14T09:04:56Z</time>
      </trkpt>
      <trkpt lat="51.698050992563367" lon="0.289896000176668">
        <ele>85</ele>
        <time>2018-02-14T09:04:57Z</time>
      </trkpt>
      <trkpt lat="51.698032971471548" lon="0.289903962984681">
        <ele>85</ele>
        <time>2018-02-14T09:04:58Z</time>
      </trkpt>
      <trkpt lat="51.698001036420465" lon="0.2899219840765">
        <ele>81</ele>
        <time>2018-02-14T09:05:00Z</time>
      </trkpt>
      <trkpt lat="51.697985026985407" lon="0.289931036531925">
        <ele>81.514840443058802</ele>
        <time>2018-02-14T09:05:01Z</time>
      </trkpt>
      <trkpt lat="51.697964994236827" lon="0.289937993511558">
        <ele>85</ele>
        <time>2018-02-14T09:05:02Z</time>
      </trkpt>
      <trkpt lat="51.697946973145008" lon="0.289941010996699">
        <ele>85</ele>
        <time>2018-02-14T09:05:03Z</time>
      </trkpt>
      <trkpt lat="51.697912020608783" lon="0.289952997118235">
        <ele>85</ele>
        <time>2018-02-14T09:05:05Z</time>
      </trkpt>
      <trkpt lat="51.697878995910287" lon="0.289966994896531">
        <ele>85</ele>
        <time>2018-02-14T09:05:07Z</time>
      </trkpt>
      <trkpt lat="51.697845971211791" lon="0.289986021816731">
        <ele>85</ele>
        <time>2018-02-14T09:05:09Z</time>
      </trkpt>
      <trkpt lat="51.697810012847185" lon="0.290014017373323">
        <ele>85</ele>
        <time>2018-02-14T09:05:11Z</time>
      </trkpt>
      <trkpt lat="51.697791991755366" lon="0.290023991838098">
        <ele>85</ele>
        <time>2018-02-14T09:05:12Z</time>
      </trkpt>
      <trkpt lat="51.697772964835167" lon="0.290030026808381">
        <ele>85</ele>
        <time>2018-02-14T09:05:13Z</time>
      </trkpt>
      <trkpt lat="51.697754021733999" lon="0.290038995444775">
        <ele>85</ele>
        <time>2018-02-14T09:05:14Z</time>
      </trkpt>
      <trkpt lat="51.6977349948138" lon="0.29005098156631">
        <ele>85</ele>
        <time>2018-02-14T09:05:15Z</time>
      </trkpt>
      <trkpt lat="51.69771496206522" lon="0.290063973516226">
        <ele>85</ele>
        <time>2018-02-14T09:05:16Z</time>
      </trkpt>
      <trkpt lat="51.697695013135672" lon="0.290075037628412">
        <ele>85</ele>
        <time>2018-02-14T09:05:17Z</time>
      </trkpt>
      <trkpt lat="51.697674980387092" lon="0.290085012093186">
        <ele>85</ele>
        <time>2018-02-14T09:05:18Z</time>
      </trkpt>
      <trkpt lat="51.697655031457543" lon="0.290091969072819">
        <ele>85</ele>
        <time>2018-02-14T09:05:19Z</time>
      </trkpt>
      <trkpt lat="51.69762703590095" lon="0.290100015699863">
        <ele>84.559987199999995</ele>
        <time>2018-02-14T09:05:21Z</time>
      </trkpt>
      <trkpt lat="51.697610020637512" lon="0.290107978507876">
        <ele>81</ele>
        <time>2018-02-14T09:05:23Z</time>
      </trkpt>
      <trkpt lat="51.69758697040379" lon="0.290123987942934">
        <ele>81</ele>
        <time>2018-02-14T09:05:26Z</time>
      </trkpt>
      <trkpt lat="51.697561992332339" lon="0.290135974064469">
        <ele>81</ele>
        <time>2018-02-14T09:05:29Z</time>
      </trkpt>
      <trkpt lat="51.697537014260888" lon="0.290150977671146">
        <ele>81</ele>
        <time>2018-02-14T09:05:32Z</time>
      </trkpt>
      <trkpt lat="51.697512036189437" lon="0.290151983499527">
        <ele>81</ele>
        <time>2018-02-14T09:05:35Z</time>
      </trkpt>
      <trkpt lat="51.697488985955715" lon="0.290164975449443">
        <ele>81</ele>
        <time>2018-02-14T09:05:38Z</time>
      </trkpt>
      <trkpt lat="51.697469037026167" lon="0.290184002369642">
        <ele>81</ele>
        <time>2018-02-14T09:05:41Z</time>
      </trkpt>
      <trkpt lat="51.697449004277587" lon="0.290195988491178">
        <ele>80</ele>
        <time>2018-02-14T09:05:45Z</time>
      </trkpt>
      <trkpt lat="51.697429977357388" lon="0.290216021239758">
        <ele>80</ele>
        <time>2018-02-14T09:05:47Z</time>
      </trkpt>
      <trkpt lat="51.697404999285936" lon="0.290252985432744">
        <ele>80.207918282513404</ele>
        <time>2018-02-14T09:05:49Z</time>
      </trkpt>
      <trkpt lat="51.697385972365737" lon="0.290277041494846">
        <ele>81</ele>
        <time>2018-02-14T09:05:50Z</time>
      </trkpt>
      <trkpt lat="51.69736904092133" lon="0.290299002081156">
        <ele>81</ele>
        <time>2018-02-14T09:05:51Z</time>
      </trkpt>
      <trkpt lat="51.697351019829512" lon="0.290323980152607">
        <ele>81</ele>
        <time>2018-02-14T09:05:52Z</time>
      </trkpt>
      <trkpt lat="51.697336016222835" lon="0.290345018729568">
        <ele>81.839987199999996</ele>
        <time>2018-02-14T09:05:53Z</time>
      </trkpt>
      <trkpt lat="51.697317995131016" lon="0.290366979315877">
        <ele>85</ele>
        <time>2018-02-14T09:05:54Z</time>
      </trkpt>
      <trkpt lat="51.697299974039197" lon="0.290389023721218">
        <ele>85</ele>
        <time>2018-02-14T09:05:55Z</time>
      </trkpt>
      <trkpt lat="51.69728203676641" lon="0.290410984307528">
        <ele>85</ele>
        <time>2018-02-14T09:05:56Z</time>
      </trkpt>
      <trkpt lat="51.69726300984621" lon="0.290435962378979">
        <ele>85</ele>
        <time>2018-02-14T09:05:57Z</time>
      </trkpt>
      <trkpt lat="51.697243982926011" lon="0.290457000955939">
        <ele>85</ele>
        <time>2018-02-14T09:05:58Z</time>
      </trkpt>
      <trkpt lat="51.697225039824843" lon="0.290479967370629">
        <ele>85</ele>
        <time>2018-02-14T09:05:59Z</time>
      </trkpt>
      <trkpt lat="51.697207018733025" lon="0.290500000119209">
        <ele>85</ele>
        <time>2018-02-14T09:06:00Z</time>
      </trkpt>
      <trkpt lat="51.697188997641206" lon="0.29052103869617">
        <ele>81</ele>
        <time>2018-02-14T09:06:01Z</time>
      </trkpt>
      <trkpt lat="51.697170976549387" lon="0.290541993454099">
        <ele>81</ele>
        <time>2018-02-14T09:06:02Z</time>
      </trkpt>
      <trkpt lat="51.6971530392766" lon="0.290558002889156">
        <ele>81</ele>
        <time>2018-02-14T09:06:03Z</time>
      </trkpt>
      <trkpt lat="51.697136024013162" lon="0.290569989010692">
        <ele>81</ele>
        <time>2018-02-14T09:06:04Z</time>
      </trkpt>
      <trkpt lat="51.697118002921343" lon="0.290583986788988">
        <ele>80.839695924489206</ele>
        <time>2018-02-14T09:06:05Z</time>
      </trkpt>
      <trkpt lat="51.697098976001143" lon="0.290622962638736">
        <ele>80</ele>
        <time>2018-02-14T09:06:07Z</time>
      </trkpt>
      <trkpt lat="51.69709101319313" lon="0.29065003618598">
        <ele>80</ele>
        <time>2018-02-14T09:06:08Z</time>
      </trkpt>
      <trkpt lat="51.697070980444551" lon="0.290690017864108">
        <ele>80</ele>
        <time>2018-02-14T09:06:10Z</time>
      </trkpt>
      <trkpt lat="51.697043990716338" lon="0.290725976228714">
        <ele>80</ele>
        <time>2018-02-14T09:06:12Z</time>
      </trkpt>
      <trkpt lat="51.6970269754529" lon="0.290742991492152">
        <ele>80.110003199999994</ele>
        <time>2018-02-14T09:06:13Z</time>
      </trkpt>
      <trkpt lat="51.696999985724688" lon="0.290769981220365">
        <ele>81</ele>
        <time>2018-02-14T09:06:15Z</time>
      </trkpt>
      <trkpt lat="51.696974001824856" lon="0.290765035897493">
        <ele>81.7238239202253</ele>
        <time>2018-02-14T09:06:17Z</time>
      </trkpt>
      <trkpt lat="51.696938965469599" lon="0.290783978998661">
        <ele>85</ele>
        <time>2018-02-14T09:06:19Z</time>
      </trkpt>
      <trkpt lat="51.696923961862922" lon="0.290800994262099">
        <ele>85</ele>
        <time>2018-02-14T09:06:20Z</time>
      </trkpt>
      <trkpt lat="51.696907030418515" lon="0.290821027010679">
        <ele>85</ele>
        <time>2018-02-14T09:06:21Z</time>
      </trkpt>
      <trkpt lat="51.696890015155077" lon="0.290842987596989">
        <ele>85</ele>
        <time>2018-02-14T09:06:22Z</time>
      </trkpt>
      <trkpt lat="51.696874005720019" lon="0.290864026173949">
        <ele>85</ele>
        <time>2018-02-14T09:06:23Z</time>
      </trkpt>
      <trkpt lat="51.696859002113342" lon="0.290882969275117">
        <ele>85</ele>
        <time>2018-02-14T09:06:24Z</time>
      </trkpt>
      <trkpt lat="51.696842992678285" lon="0.290901996195316">
        <ele>85</ele>
        <time>2018-02-14T09:06:25Z</time>
      </trkpt>
      <trkpt lat="51.696813991293311" lon="0.290942983701825">
        <ele>85</ele>
        <time>2018-02-14T09:06:27Z</time>
      </trkpt>
      <trkpt lat="51.696799993515015" lon="0.290965028107166">
        <ele>85</ele>
        <time>2018-02-14T09:06:28Z</time>
      </trkpt>
      <trkpt lat="51.696785995736718" lon="0.290986988693476">
        <ele>85</ele>
        <time>2018-02-14T09:06:29Z</time>
      </trkpt>
      <trkpt lat="51.696769986301661" lon="0.291010038927197">
        <ele>85</ele>
        <time>2018-02-14T09:06:30Z</time>
      </trkpt>
      <trkpt lat="51.696755988523364" lon="0.291030993685126">
        <ele>85</ele>
        <time>2018-02-14T09:06:31Z</time>
      </trkpt>
      <trkpt lat="51.696741990745068" lon="0.291053038090467">
        <ele>85</ele>
        <time>2018-02-14T09:06:32Z</time>
      </trkpt>
      <trkpt lat="51.696726987138391" lon="0.291076004505157">
        <ele>85</ele>
        <time>2018-02-14T09:06:33Z</time>
      </trkpt>
      <trkpt lat="51.696711983531713" lon="0.291098970919847">
        <ele>85</ele>
        <time>2018-02-14T09:06:34Z</time>
      </trkpt>
      <trkpt lat="51.696696979925036" lon="0.29112302698195">
        <ele>85</ele>
        <time>2018-02-14T09:06:35Z</time>
      </trkpt>
      <trkpt lat="51.696681976318359" lon="0.291148005053401">
        <ele>85</ele>
        <time>2018-02-14T09:06:36Z</time>
      </trkpt>
      <trkpt lat="51.696667978540063" lon="0.29116996563971">
        <ele>85</ele>
        <time>2018-02-14T09:06:37Z</time>
      </trkpt>
      <trkpt lat="51.696650963276625" lon="0.291195027530193">
        <ele>85</ele>
        <time>2018-02-14T09:06:38Z</time>
      </trkpt>
      <trkpt lat="51.696636965498328" lon="0.291216988116503">
        <ele>85</ele>
        <time>2018-02-14T09:06:39Z</time>
      </trkpt>
      <trkpt lat="51.696621961891651" lon="0.291241966187954">
        <ele>85</ele>
        <time>2018-02-14T09:06:40Z</time>
      </trkpt>
      <trkpt lat="51.696604024618864" lon="0.291267028078437">
        <ele>85</ele>
        <time>2018-02-14T09:06:41Z</time>
      </trkpt>
      <trkpt lat="51.696588015183806" lon="0.291288988664746">
        <ele>85</ele>
        <time>2018-02-14T09:06:42Z</time>
      </trkpt>
      <trkpt lat="51.696573011577129" lon="0.291310027241707">
        <ele>85</ele>
        <time>2018-02-14T09:06:43Z</time>
      </trkpt>
      <trkpt lat="51.696559013798833" lon="0.291335005313158">
        <ele>85</ele>
        <time>2018-02-14T09:06:44Z</time>
      </trkpt>
      <trkpt lat="51.696547027677298" lon="0.291358977556229">
        <ele>85</ele>
        <time>2018-02-14T09:06:45Z</time>
      </trkpt>
      <trkpt lat="51.696535041555762" lon="0.291384039446712">
        <ele>85</ele>
        <time>2018-02-14T09:06:46Z</time>
      </trkpt>
      <trkpt lat="51.696514002978802" lon="0.291423015296459">
        <ele>85</ele>
        <time>2018-02-14T09:06:48Z</time>
      </trkpt>
      <trkpt lat="51.696500005200505" lon="0.291455034166574">
        <ele>84.920791828251296</ele>
        <time>2018-02-14T09:06:50Z</time>
      </trkpt>
      <trkpt lat="51.696477960795164" lon="0.291476994752884">
        <ele>84</ele>
        <time>2018-02-14T09:06:52Z</time>
      </trkpt>
      <trkpt lat="51.696459017693996" lon="0.291497027501464">
        <ele>84</ele>
        <time>2018-02-14T09:06:54Z</time>
      </trkpt>
      <trkpt lat="51.696439990773797" lon="0.291515970602632">
        <ele>84</ele>
        <time>2018-02-14T09:06:56Z</time>
      </trkpt>
      <trkpt lat="51.696416018530726" lon="0.29153298586607">
        <ele>84.089996799999994</ele>
        <time>2018-02-14T09:06:58Z</time>
      </trkpt>
      <trkpt lat="51.696391040459275" lon="0.291546983644366">
        <ele>85</ele>
        <time>2018-02-14T09:07:00Z</time>
      </trkpt>
      <trkpt lat="51.696376036852598" lon="0.291562993079424">
        <ele>84</ele>
        <time>2018-02-14T09:07:05Z</time>
      </trkpt>
      <trkpt lat="51.696354998275638" lon="0.291590988636017">
        <ele>84</ele>
        <time>2018-02-14T09:07:08Z</time>
      </trkpt>
      <trkpt lat="51.696341000497341" lon="0.291612027212977">
        <ele>84</ele>
        <time>2018-02-14T09:07:10Z</time>
      </trkpt>
      <trkpt lat="51.696322979405522" lon="0.291629964485765">
        <ele>84</ele>
        <time>2018-02-14T09:07:12Z</time>
      </trkpt>
      <trkpt lat="51.696304036304355" lon="0.291645973920822">
        <ele>84</ele>
        <time>2018-02-14T09:07:14Z</time>
      </trkpt>
      <trkpt lat="51.696281991899014" lon="0.291665000841022">
        <ele>84</ele>
        <time>2018-02-14T09:07:16Z</time>
      </trkpt>
      <trkpt lat="51.696261037141085" lon="0.291678998619318">
        <ele>84</ele>
        <time>2018-02-14T09:07:18Z</time>
      </trkpt>
      <trkpt lat="51.696241004392505" lon="0.291691990569234">
        <ele>84</ele>
        <time>2018-02-14T09:07:20Z</time>
      </trkpt>
      <trkpt lat="51.696219965815544" lon="0.291714034974575">
        <ele>84</ele>
        <time>2018-02-14T09:07:22Z</time>
      </trkpt>
      <trkpt lat="51.696200016885996" lon="0.291730966418982">
        <ele>84</ele>
        <time>2018-02-14T09:07:24Z</time>
      </trkpt>
      <trkpt lat="51.696175960823894" lon="0.291757034137845">
        <ele>85</ele>
        <time>2018-02-14T09:07:26Z</time>
      </trkpt>
      <trkpt lat="51.696158023551106" lon="0.291772959753871">
        <ele>85</ele>
        <time>2018-02-14T09:07:28Z</time>
      </trkpt>
      <trkpt lat="51.696142014116049" lon="0.29179098084569">
        <ele>85</ele>
        <time>2018-02-14T09:07:30Z</time>
      </trkpt>
      <trkpt lat="51.696119969710708" lon="0.291806990280747">
        <ele>85</ele>
        <time>2018-02-14T09:07:32Z</time>
      </trkpt>
      <trkpt lat="51.696094991639256" lon="0.291827023029327">
        <ele>84.939994368072107</ele>
        <time>2018-02-14T09:07:34Z</time>
      </trkpt>
      <trkpt lat="51.696071019396186" lon="0.291844960302114">
        <ele>84</ele>
        <time>2018-02-14T09:07:36Z</time>
      </trkpt>
      <trkpt lat="51.696051992475986" lon="0.291858036071062">
        <ele>85</ele>
        <time>2018-02-14T09:07:38Z</time>
      </trkpt>
      <trkpt lat="51.696032965555787" lon="0.291875973343849">
        <ele>85.047249014805601</ele>
        <time>2018-02-14T09:07:40Z</time>
      </trkpt>
      <trkpt lat="51.696015028283" lon="0.291903968900442">
        <ele>86</ele>
        <time>2018-02-14T09:07:42Z</time>
      </trkpt>
      <trkpt lat="51.695998013019562" lon="0.291930036619306">
        <ele>86</ele>
        <time>2018-02-14T09:07:44Z</time>
      </trkpt>
      <trkpt lat="51.695975968614221" lon="0.291959038004279">
        <ele>86</ele>
        <time>2018-02-14T09:07:46Z</time>
      </trkpt>
      <trkpt lat="51.695954008027911" lon="0.291982004418969">
        <ele>86</ele>
        <time>2018-02-14T09:07:48Z</time>
      </trkpt>
      <trkpt lat="51.69592902995646" lon="0.292011005803943">
        <ele>86</ele>
        <time>2018-02-14T09:07:50Z</time>
      </trkpt>
      <trkpt lat="51.695913020521402" lon="0.292028021067381">
        <ele>85.834953024804904</ele>
        <time>2018-02-14T09:07:51Z</time>
      </trkpt>
      <trkpt lat="51.695896005257964" lon="0.292045036330819">
        <ele>85</ele>
        <time>2018-02-14T09:07:52Z</time>
      </trkpt>
      <trkpt lat="51.695881001651287" lon="0.292065991088748">
        <ele>85</ele>
        <time>2018-02-14T09:07:53Z</time>
      </trkpt>
      <trkpt lat="51.695864992216229" lon="0.292088035494089">
        <ele>85</ele>
        <time>2018-02-14T09:07:54Z</time>
      </trkpt>
      <trkpt lat="51.695846971124411" lon="0.292108990252018">
        <ele>85</ele>
        <time>2018-02-14T09:07:55Z</time>
      </trkpt>
      <trkpt lat="51.695830961689353" lon="0.292124999687076">
        <ele>85</ele>
        <time>2018-02-14T09:07:56Z</time>
      </trkpt>
      <trkpt lat="51.695805983617902" lon="0.292162969708443">
        <ele>85</ele>
        <time>2018-02-14T09:07:58Z</time>
      </trkpt>
      <trkpt lat="51.695790980011225" lon="0.292186019942164">
        <ele>85</ele>
        <time>2018-02-14T09:07:59Z</time>
      </trkpt>
      <trkpt lat="51.695776982232928" lon="0.292207980528474">
        <ele>85</ele>
        <time>2018-02-14T09:08:00Z</time>
      </trkpt>
      <trkpt lat="51.695753009989858" lon="0.292247040197253">
        <ele>85</ele>
        <time>2018-02-14T09:08:02Z</time>
      </trkpt>
      <trkpt lat="51.695738006383181" lon="0.29226497747004">
        <ele>85</ele>
        <time>2018-02-14T09:08:03Z</time>
      </trkpt>
      <trkpt lat="51.695707999169827" lon="0.292296996340156">
        <ele>85</ele>
        <time>2018-02-14T09:08:05Z</time>
      </trkpt>
      <trkpt lat="51.695687966421247" lon="0.292316023260355">
        <ele>85</ele>
        <time>2018-02-14T09:08:06Z</time>
      </trkpt>
      <trkpt lat="51.69567103497684" lon="0.292333038523793">
        <ele>85</ele>
        <time>2018-02-14T09:08:07Z</time>
      </trkpt>
      <trkpt lat="51.695643039420247" lon="0.29237000271678">
        <ele>86</ele>
        <time>2018-02-14T09:08:09Z</time>
      </trkpt>
      <trkpt lat="51.695627029985189" lon="0.292391963303089">
        <ele>86</ele>
        <time>2018-02-14T09:08:10Z</time>
      </trkpt>
      <trkpt lat="51.695609008893371" lon="0.292418031021953">
        <ele>86</ele>
        <time>2018-02-14T09:08:11Z</time>
      </trkpt>
      <trkpt lat="51.695594005286694" lon="0.292443009093404">
        <ele>86</ele>
        <time>2018-02-14T09:08:12Z</time>
      </trkpt>
      <trkpt lat="51.695579001680017" lon="0.292469998821616">
        <ele>86</ele>
        <time>2018-02-14T09:08:13Z</time>
      </trkpt>
      <trkpt lat="51.69556500390172" lon="0.292497994378209">
        <ele>85.910003200000006</ele>
        <time>2018-02-14T09:08:14Z</time>
      </trkpt>
      <trkpt lat="51.695551006123424" lon="0.292528001591563">
        <ele>85</ele>
        <time>2018-02-14T09:08:15Z</time>
      </trkpt>
      <trkpt lat="51.695538014173508" lon="0.292554991319776">
        <ele>85</ele>
        <time>2018-02-14T09:08:16Z</time>
      </trkpt>
      <trkpt lat="51.695524016395211" lon="0.292577035725117">
        <ele>85</ele>
        <time>2018-02-14T09:08:17Z</time>
      </trkpt>
      <trkpt lat="51.695497026666999" lon="0.292619029060006">
        <ele>85</ele>
        <time>2018-02-14T09:08:19Z</time>
      </trkpt>
      <trkpt lat="51.69547900557518" lon="0.292644007131457">
        <ele>85</ele>
        <time>2018-02-14T09:08:20Z</time>
      </trkpt>
      <trkpt lat="51.695460984483361" lon="0.292661022394896">
        <ele>85</ele>
        <time>2018-02-14T09:08:21Z</time>
      </trkpt>
      <trkpt lat="51.695442963391542" lon="0.292679965496063">
        <ele>85</ele>
        <time>2018-02-14T09:08:22Z</time>
      </trkpt>
      <trkpt lat="51.695425026118755" lon="0.292695974931121">
        <ele>85</ele>
        <time>2018-02-14T09:08:23Z</time>
      </trkpt>
      <trkpt lat="51.695403987541795" lon="0.292709972709417">
        <ele>85</ele>
        <time>2018-02-14T09:08:24Z</time>
      </trkpt>
      <trkpt lat="51.695382026955485" lon="0.292725982144475">
        <ele>85</ele>
        <time>2018-02-14T09:08:25Z</time>
      </trkpt>
      <trkpt lat="51.695364005863667" lon="0.2927350345999">
        <ele>85</ele>
        <time>2018-02-14T09:08:26Z</time>
      </trkpt>
      <trkpt lat="51.695345984771848" lon="0.292745009064674">
        <ele>85</ele>
        <time>2018-02-14T09:08:27Z</time>
      </trkpt>
      <trkpt lat="51.695325030013919" lon="0.292760012671351">
        <ele>85</ele>
        <time>2018-02-14T09:08:28Z</time>
      </trkpt>
      <trkpt lat="51.6953070089221" lon="0.292771998792887">
        <ele>85.190003200000007</ele>
        <time>2018-02-14T09:08:29Z</time>
      </trkpt>
      <trkpt lat="51.69528697617352" lon="0.292791025713086">
        <ele>86</ele>
        <time>2018-02-14T09:08:30Z</time>
      </trkpt>
      <trkpt lat="51.695269960910082" lon="0.292808040976524">
        <ele>86</ele>
        <time>2018-02-14T09:08:31Z</time>
      </trkpt>
      <trkpt lat="51.695253029465675" lon="0.292824972420931">
        <ele>86</ele>
        <time>2018-02-14T09:08:32Z</time>
      </trkpt>
      <trkpt lat="51.695234002545476" lon="0.292846010997891">
        <ele>86</ele>
        <time>2018-02-14T09:08:33Z</time>
      </trkpt>
      <trkpt lat="51.695213969796896" lon="0.292865037918091">
        <ele>86</ele>
        <time>2018-02-14T09:08:34Z</time>
      </trkpt>
      <trkpt lat="51.695194020867348" lon="0.292878029868007">
        <ele>86</ele>
        <time>2018-02-14T09:08:35Z</time>
      </trkpt>
      <trkpt lat="51.695172982290387" lon="0.292890015989542">
        <ele>86</ele>
        <time>2018-02-14T09:08:36Z</time>
      </trkpt>
      <trkpt lat="51.695154039189219" lon="0.29290996491909">
        <ele>86</ele>
        <time>2018-02-14T09:08:37Z</time>
      </trkpt>
      <trkpt lat="51.695138029754162" lon="0.292932009324431">
        <ele>86</ele>
        <time>2018-02-14T09:08:38Z</time>
      </trkpt>
      <trkpt lat="51.695124031975865" lon="0.292955981567502">
        <ele>86</ele>
        <time>2018-02-14T09:08:39Z</time>
      </trkpt>
      <trkpt lat="51.695109028369188" lon="0.292985988780856">
        <ele>86</ele>
        <time>2018-02-14T09:08:40Z</time>
      </trkpt>
      <trkpt lat="51.695091007277369" lon="0.293010966852307">
        <ele>86.190003200000007</ele>
        <time>2018-02-14T09:08:41Z</time>
      </trkpt>
      <trkpt lat="51.695063011720777" lon="0.2930389624089">
        <ele>87</ele>
        <time>2018-02-14T09:08:43Z</time>
      </trkpt>
      <trkpt lat="51.6950289811939" lon="0.293068969622254">
        <ele>87</ele>
        <time>2018-02-14T09:08:45Z</time>
      </trkpt>
      <trkpt lat="51.695001991465688" lon="0.293107023462653">
        <ele>87</ele>
        <time>2018-02-14T09:08:47Z</time>
      </trkpt>
      <trkpt lat="51.694976007565856" lon="0.293138958513737">
        <ele>87</ele>
        <time>2018-02-14T09:08:49Z</time>
      </trkpt>
      <trkpt lat="51.69496200978756" lon="0.293155973777175">
        <ele>87</ele>
        <time>2018-02-14T09:08:50Z</time>
      </trkpt>
      <trkpt lat="51.694947006180882" lon="0.293178018182516">
        <ele>87</ele>
        <time>2018-02-14T09:08:51Z</time>
      </trkpt>
      <trkpt lat="51.69492001645267" lon="0.293219005689025">
        <ele>88</ele>
        <time>2018-02-14T09:08:53Z</time>
      </trkpt>
      <trkpt lat="51.694901995360851" lon="0.293238032609224">
        <ele>88</ele>
        <time>2018-02-14T09:08:54Z</time>
      </trkpt>
      <trkpt lat="51.694886991754174" lon="0.293255969882011">
        <ele>88</ele>
        <time>2018-02-14T09:08:55Z</time>
      </trkpt>
      <trkpt lat="51.694868970662355" lon="0.29327399097383">
        <ele>88</ele>
        <time>2018-02-14T09:08:56Z</time>
      </trkpt>
      <trkpt lat="51.694853967055678" lon="0.293292012065649">
        <ele>88</ele>
        <time>2018-02-14T09:08:57Z</time>
      </trkpt>
      <trkpt lat="51.694824965670705" lon="0.293327970430255">
        <ele>88.089996799999994</ele>
        <time>2018-02-14T09:08:59Z</time>
      </trkpt>
      <trkpt lat="51.694808034226298" lon="0.293349009007216">
        <ele>89</ele>
        <time>2018-02-14T09:09:00Z</time>
      </trkpt>
      <trkpt lat="51.69479101896286" lon="0.293364012613893">
        <ele>89</ele>
        <time>2018-02-14T09:09:01Z</time>
      </trkpt>
      <trkpt lat="51.694772997871041" lon="0.29338002204895">
        <ele>89</ele>
        <time>2018-02-14T09:09:02Z</time>
      </trkpt>
      <trkpt lat="51.694755982607603" lon="0.293396031484008">
        <ele>89</ele>
        <time>2018-02-14T09:09:03Z</time>
      </trkpt>
      <trkpt lat="51.694737961515784" lon="0.293412040919065">
        <ele>89</ele>
        <time>2018-02-14T09:09:04Z</time>
      </trkpt>
      <trkpt lat="51.694721030071378" lon="0.293429978191853">
        <ele>89</ele>
        <time>2018-02-14T09:09:05Z</time>
      </trkpt>
      <trkpt lat="51.69470502063632" lon="0.293446993455291">
        <ele>89</ele>
        <time>2018-02-14T09:09:06Z</time>
      </trkpt>
      <trkpt lat="51.694681970402598" lon="0.293482029810548">
        <ele>88.131780792014396</ele>
        <time>2018-02-14T09:09:08Z</time>
      </trkpt>
      <trkpt lat="51.694673001766205" lon="0.293503990396857">
        <ele>88</ele>
        <time>2018-02-14T09:09:09Z</time>
      </trkpt>
      <trkpt lat="51.694646012037992" lon="0.293529974296689">
        <ele>88</ele>
        <time>2018-02-14T09:09:11Z</time>
      </trkpt>
      <trkpt lat="51.694617010653019" lon="0.293545983731747">
        <ele>89</ele>
        <time>2018-02-14T09:09:13Z</time>
      </trkpt>
      <trkpt lat="51.694601001217961" lon="0.293560987338424">
        <ele>89</ele>
        <time>2018-02-14T09:09:14Z</time>
      </trkpt>
      <trkpt lat="51.694573005661368" lon="0.293593006208539">
        <ele>89</ele>
        <time>2018-02-14T09:09:16Z</time>
      </trkpt>
      <trkpt lat="51.694549033418298" lon="0.293626030907035">
        <ele>89</ele>
        <time>2018-02-14T09:09:18Z</time>
      </trkpt>
      <trkpt lat="51.694515002891421" lon="0.293656038120389">
        <ele>89</ele>
        <time>2018-02-14T09:09:20Z</time>
      </trkpt>
      <trkpt lat="51.694482984021306" lon="0.293686967343092">
        <ele>89</ele>
        <time>2018-02-14T09:09:22Z</time>
      </trkpt>
      <trkpt lat="51.694450965151191" lon="0.293713035061955">
        <ele>89</ele>
        <time>2018-02-14T09:09:24Z</time>
      </trkpt>
      <trkpt lat="51.694422969594598" lon="0.293739018961787">
        <ele>89</ele>
        <time>2018-02-14T09:09:26Z</time>
      </trkpt>
      <trkpt lat="51.69440696015954" lon="0.293756034225225">
        <ele>89</ele>
        <time>2018-02-14T09:09:27Z</time>
      </trkpt>
      <trkpt lat="51.694380976259708" lon="0.29378897510469">
        <ele>89.180004095947595</ele>
        <time>2018-02-14T09:09:29Z</time>
      </trkpt>
      <trkpt lat="51.694366978481412" lon="0.293814036995173">
        <ele>90</ele>
        <time>2018-02-14T09:09:30Z</time>
      </trkpt>
      <trkpt lat="51.694351974874735" lon="0.293827028945088">
        <ele>90</ele>
        <time>2018-02-14T09:09:31Z</time>
      </trkpt>
      <trkpt lat="51.694326996803284" lon="0.293830968439579">
        <ele>90</ele>
        <time>2018-02-14T09:09:33Z</time>
      </trkpt>
      <trkpt lat="51.694305036216974" lon="0.293856030330062">
        <ele>90</ele>
        <time>2018-02-14T09:09:35Z</time>
      </trkpt>
      <trkpt lat="51.694278968498111" lon="0.293885031715035">
        <ele>90</ele>
        <time>2018-02-14T09:09:37Z</time>
      </trkpt>
      <trkpt lat="51.694260025396943" lon="0.293915960937738">
        <ele>90</ele>
        <time>2018-02-14T09:09:39Z</time>
      </trkpt>
      <trkpt lat="51.694238986819983" lon="0.293944962322712">
        <ele>90</ele>
        <time>2018-02-14T09:09:41Z</time>
      </trkpt>
      <trkpt lat="51.694220965728164" lon="0.293972035869956">
        <ele>90</ele>
        <time>2018-02-14T09:09:43Z</time>
      </trkpt>
      <trkpt lat="51.694201016798615" lon="0.294006988406181">
        <ele>90</ele>
        <time>2018-02-14T09:09:45Z</time>
      </trkpt>
      <trkpt lat="51.694181989878416" lon="0.294040013104677">
        <ele>90</ele>
        <time>2018-02-14T09:09:47Z</time>
      </trkpt>
      <trkpt lat="51.694161035120487" lon="0.294061973690987">
        <ele>90</ele>
        <time>2018-02-14T09:09:49Z</time>
      </trkpt>
      <trkpt lat="51.694143014028668" lon="0.294092986732721">
        <ele>90</ele>
        <time>2018-02-14T09:09:52Z</time>
      </trkpt>
      <trkpt lat="51.694127004593611" lon="0.294126011431217">
        <ele>90</ele>
        <time>2018-02-14T09:09:54Z</time>
      </trkpt>
      <trkpt lat="51.694106971845031" lon="0.29415400698781">
        <ele>90</ele>
        <time>2018-02-14T09:09:56Z</time>
      </trkpt>
      <trkpt lat="51.694089034572244" lon="0.294187031686306">
        <ele>90</ele>
        <time>2018-02-14T09:09:58Z</time>
      </trkpt>
      <trkpt lat="51.694069001823664" lon="0.29421997256577">
        <ele>90</ele>
        <time>2018-02-14T09:10:00Z</time>
      </trkpt>
      <trkpt lat="51.694048969075084" lon="0.294254003092647">
        <ele>90</ele>
        <time>2018-02-14T09:10:02Z</time>
      </trkpt>
      <trkpt lat="51.694028014317155" lon="0.294285016134381">
        <ele>90</ele>
        <time>2018-02-14T09:10:04Z</time>
      </trkpt>
      <trkpt lat="51.694003036245704" lon="0.294308988377452">
        <ele>90</ele>
        <time>2018-02-14T09:10:06Z</time>
      </trkpt>
      <trkpt lat="51.693980991840363" lon="0.294323991984129">
        <ele>90</ele>
        <time>2018-02-14T09:10:08Z</time>
      </trkpt>
      <trkpt lat="51.693961964920163" lon="0.294341007247567">
        <ele>91</ele>
        <time>2018-02-14T09:10:10Z</time>
      </trkpt>
      <trkpt lat="51.693941010162234" lon="0.29436799697578">
        <ele>91</ele>
        <time>2018-02-14T09:10:12Z</time>
      </trkpt>
      <trkpt lat="51.693921983242035" lon="0.294402027502656">
        <ele>91</ele>
        <time>2018-02-14T09:10:14Z</time>
      </trkpt>
      <trkpt lat="51.693903962150216" lon="0.29443203471601">
        <ele>91</ele>
        <time>2018-02-14T09:10:16Z</time>
      </trkpt>
      <trkpt lat="51.693884013220668" lon="0.294459024444222">
        <ele>91</ele>
        <time>2018-02-14T09:10:18Z</time>
      </trkpt>
      <trkpt lat="51.693863980472088" lon="0.294486014172435">
        <ele>91.059411712522305</ele>
        <time>2018-02-14T09:10:20Z</time>
      </trkpt>
      <trkpt lat="51.693843025714159" lon="0.294509986415505">
        <ele>92</ele>
        <time>2018-02-14T09:10:22Z</time>
      </trkpt>
      <trkpt lat="51.693826010450721" lon="0.294529013335705">
        <ele>92</ele>
        <time>2018-02-14T09:10:24Z</time>
      </trkpt>
      <trkpt lat="51.693810001015663" lon="0.294548962265253">
        <ele>92</ele>
        <time>2018-02-14T09:10:26Z</time>
      </trkpt>
      <trkpt lat="51.693792985752225" lon="0.294574024155736">
        <ele>92</ele>
        <time>2018-02-14T09:10:28Z</time>
      </trkpt>
      <trkpt lat="51.693783011287451" lon="0.294605037197471">
        <ele>92</ele>
        <time>2018-02-14T09:10:30Z</time>
      </trkpt>
      <trkpt lat="51.693773036822677" lon="0.294644013047218">
        <ele>92</ele>
        <time>2018-02-14T09:10:32Z</time>
      </trkpt>
      <trkpt lat="51.693762978538871" lon="0.294686006382108">
        <ele>92</ele>
        <time>2018-02-14T09:10:34Z</time>
      </trkpt>
      <trkpt lat="51.693754009902477" lon="0.294731017202139">
        <ele>92</ele>
        <time>2018-02-14T09:10:36Z</time>
      </trkpt>
      <trkpt lat="51.693743029609323" lon="0.294769993051887">
        <ele>91</ele>
        <time>2018-02-14T09:10:38Z</time>
      </trkpt>
      <trkpt lat="51.693743029609323" lon="0.294807963073254">
        <ele>91.209996799999999</ele>
        <time>2018-02-14T09:10:40Z</time>
      </trkpt>
      <trkpt lat="51.693740012124181" lon="0.294854985550046">
        <ele>92</ele>
        <time>2018-02-14T09:10:42Z</time>
      </trkpt>
      <trkpt lat="51.693729031831026" lon="0.294890021905303">
        <ele>92.209996799999999</ele>
        <time>2018-02-14T09:10:44Z</time>
      </trkpt>
      <trkpt lat="51.69371503405273" lon="0.294921034947038">
        <ele>93</ele>
        <time>2018-02-14T09:10:46Z</time>
      </trkpt>
      <trkpt lat="51.693703969940543" lon="0.294953975826502">
        <ele>92.790003200000001</ele>
        <time>2018-02-14T09:10:48Z</time>
      </trkpt>
      <trkpt lat="51.693692989647388" lon="0.29499102383852">
        <ele>92</ele>
        <time>2018-02-14T09:10:50Z</time>
      </trkpt>
      <trkpt lat="51.693679997697473" lon="0.295024970546365">
        <ele>92</ele>
        <time>2018-02-14T09:10:52Z</time>
      </trkpt>
      <trkpt lat="51.693671029061079" lon="0.295061012730002">
        <ele>92</ele>
        <time>2018-02-14T09:10:54Z</time>
      </trkpt>
      <trkpt lat="51.693661976605654" lon="0.295095965266228">
        <ele>92</ele>
        <time>2018-02-14T09:10:56Z</time>
      </trkpt>
      <trkpt lat="51.69365300796926" lon="0.295143993571401">
        <ele>92</ele>
        <time>2018-02-14T09:10:58Z</time>
      </trkpt>
      <trkpt lat="51.693641021847725" lon="0.295181041583419">
        <ele>92.180955980056297</ele>
        <time>2018-02-14T09:10:59Z</time>
      </trkpt>
      <trkpt lat="51.69363004155457" lon="0.295214988291264">
        <ele>93</ele>
        <time>2018-02-14T09:11:00Z</time>
      </trkpt>
      <trkpt lat="51.693619983270764" lon="0.295244995504618">
        <ele>93</ele>
        <time>2018-02-14T09:11:01Z</time>
      </trkpt>
      <trkpt lat="51.693611014634371" lon="0.295277014374733">
        <ele>93</ele>
        <time>2018-02-14T09:11:02Z</time>
      </trkpt>
      <trkpt lat="51.693603973835707" lon="0.295310961082578">
        <ele>93</ele>
        <time>2018-02-14T09:11:03Z</time>
      </trkpt>
      <trkpt lat="51.693596011027694" lon="0.295347003266215">
        <ele>93</ele>
        <time>2018-02-14T09:11:04Z</time>
      </trkpt>
      <trkpt lat="51.69358897022903" lon="0.295379022136331">
        <ele>93</ele>
        <time>2018-02-14T09:11:05Z</time>
      </trkpt>
      <trkpt lat="51.693581007421017" lon="0.295407017692924">
        <ele>93</ele>
        <time>2018-02-14T09:11:06Z</time>
      </trkpt>
      <trkpt lat="51.693571032956243" lon="0.295435013249516">
        <ele>93</ele>
        <time>2018-02-14T09:11:07Z</time>
      </trkpt>
      <trkpt lat="51.693561980500817" lon="0.295467032119632">
        <ele>93</ele>
        <time>2018-02-14T09:11:08Z</time>
      </trkpt>
      <trkpt lat="51.693553011864424" lon="0.295499972999096">
        <ele>93</ele>
        <time>2018-02-14T09:11:09Z</time>
      </trkpt>
      <trkpt lat="51.693543959408998" lon="0.295530986040831">
        <ele>93</ele>
        <time>2018-02-14T09:11:10Z</time>
      </trkpt>
      <trkpt lat="51.693533984944224" lon="0.295567028224468">
        <ele>93</ele>
        <time>2018-02-14T09:11:11Z</time>
      </trkpt>
      <trkpt lat="51.693527027964592" lon="0.295601980760694">
        <ele>93</ele>
        <time>2018-02-14T09:11:12Z</time>
      </trkpt>
      <trkpt lat="51.693519987165928" lon="0.295633999630809">
        <ele>93.180004095947595</ele>
        <time>2018-02-14T09:11:13Z</time>
      </trkpt>
      <trkpt lat="51.693512024357915" lon="0.295667024329305">
        <ele>94</ele>
        <time>2018-02-14T09:11:14Z</time>
      </trkpt>
      <trkpt lat="51.69350397773087" lon="0.29570197686553">
        <ele>94</ele>
        <time>2018-02-14T09:11:15Z</time>
      </trkpt>
      <trkpt lat="51.693497020751238" lon="0.295736007392406">
        <ele>94</ele>
        <time>2018-02-14T09:11:16Z</time>
      </trkpt>
      <trkpt lat="51.693489979952574" lon="0.29576500877738">
        <ele>94</ele>
        <time>2018-02-14T09:11:17Z</time>
      </trkpt>
      <trkpt lat="51.693485034629703" lon="0.295796021819115">
        <ele>94</ele>
        <time>2018-02-14T09:11:18Z</time>
      </trkpt>
      <trkpt lat="51.693477993831038" lon="0.29582804068923">
        <ele>94</ele>
        <time>2018-02-14T09:11:19Z</time>
      </trkpt>
      <trkpt lat="51.693469025194645" lon="0.295858969911933">
        <ele>94</ele>
        <time>2018-02-14T09:11:20Z</time>
      </trkpt>
      <trkpt lat="51.69345997273922" lon="0.295891994610429">
        <ele>94</ele>
        <time>2018-02-14T09:11:21Z</time>
      </trkpt>
      <trkpt lat="51.693453015759587" lon="0.295923007652164">
        <ele>94</ele>
        <time>2018-02-14T09:11:22Z</time>
      </trkpt>
      <trkpt lat="51.693444969132543" lon="0.295951003208756">
        <ele>94</ele>
        <time>2018-02-14T09:11:23Z</time>
      </trkpt>
      <trkpt lat="51.69343801215291" lon="0.295983022078872">
        <ele>94</ele>
        <time>2018-02-14T09:11:24Z</time>
      </trkpt>
      <trkpt lat="51.693430971354246" lon="0.296016968786716">
        <ele>94</ele>
        <time>2018-02-14T09:11:25Z</time>
      </trkpt>
      <trkpt lat="51.693419991061091" lon="0.296052005141974">
        <ele>94</ele>
        <time>2018-02-14T09:11:26Z</time>
      </trkpt>
      <trkpt lat="51.693410016596317" lon="0.296085029840469">
        <ele>94</ele>
        <time>2018-02-14T09:11:27Z</time>
      </trkpt>
      <trkpt lat="51.693400964140892" lon="0.296116964891553">
        <ele>94</ele>
        <time>2018-02-14T09:11:28Z</time>
      </trkpt>
      <trkpt lat="51.693389983847737" lon="0.296146972104907">
        <ele>94</ele>
        <time>2018-02-14T09:11:29Z</time>
      </trkpt>
      <trkpt lat="51.693376991897821" lon="0.296173961833119">
        <ele>93</ele>
        <time>2018-02-14T09:11:30Z</time>
      </trkpt>
      <trkpt lat="51.693363999947906" lon="0.296202041208744">
        <ele>93</ele>
        <time>2018-02-14T09:11:31Z</time>
      </trkpt>
      <trkpt lat="51.69335201382637" lon="0.296226013451815">
        <ele>93</ele>
        <time>2018-02-14T09:11:32Z</time>
      </trkpt>
      <trkpt lat="51.693340027704835" lon="0.296251997351646">
        <ele>93</ele>
        <time>2018-02-14T09:11:33Z</time>
      </trkpt>
      <trkpt lat="51.6933280415833" lon="0.29628099873662">
        <ele>93</ele>
        <time>2018-02-14T09:11:34Z</time>
      </trkpt>
      <trkpt lat="51.693315971642733" lon="0.296306982636452">
        <ele>93.229173333333307</ele>
        <time>2018-02-14T09:11:35Z</time>
      </trkpt>
      <trkpt lat="51.693304991349578" lon="0.296332966536283">
        <ele>95</ele>
        <time>2018-02-14T09:11:36Z</time>
      </trkpt>
      <trkpt lat="51.693290993571281" lon="0.296359034255147">
        <ele>95.115386508866393</ele>
        <time>2018-02-14T09:11:37Z</time>
      </trkpt>
      <trkpt lat="51.693279007449746" lon="0.296384012326598">
        <ele>95.884613491133607</ele>
        <time>2018-02-14T09:11:38Z</time>
      </trkpt>
      <trkpt lat="51.693264003843069" lon="0.29640999622643">
        <ele>95.950003199999998</ele>
        <time>2018-02-14T09:11:39Z</time>
      </trkpt>
      <trkpt lat="51.693250006064773" lon="0.296437991783023">
        <ele>95</ele>
        <time>2018-02-14T09:11:40Z</time>
      </trkpt>
      <trkpt lat="51.693236008286476" lon="0.296463975682855">
        <ele>95</ele>
        <time>2018-02-14T09:11:41Z</time>
      </trkpt>
      <trkpt lat="51.693221004679799" lon="0.296486020088196">
        <ele>95</ele>
        <time>2018-02-14T09:11:42Z</time>
      </trkpt>
      <trkpt lat="51.693206001073122" lon="0.296506974846125">
        <ele>95</ele>
        <time>2018-02-14T09:11:43Z</time>
      </trkpt>
      <trkpt lat="51.693188985809684" lon="0.296532958745956">
        <ele>95</ele>
        <time>2018-02-14T09:11:44Z</time>
      </trkpt>
      <trkpt lat="51.693171970546246" lon="0.296556008979678">
        <ele>95</ele>
        <time>2018-02-14T09:11:45Z</time>
      </trkpt>
      <trkpt lat="51.693155961111188" lon="0.296576041728258">
        <ele>95</ele>
        <time>2018-02-14T09:11:46Z</time>
      </trkpt>
      <trkpt lat="51.69313601218164" lon="0.296598002314568">
        <ele>94.848279941031606</ele>
        <time>2018-02-14T09:11:47Z</time>
      </trkpt>
      <trkpt lat="51.69311597943306" lon="0.296619962900877">
        <ele>94.158623246616798</ele>
        <time>2018-02-14T09:11:48Z</time>
      </trkpt>
      <trkpt lat="51.693095024675131" lon="0.296639995649457">
        <ele>94</ele>
        <time>2018-02-14T09:11:49Z</time>
      </trkpt>
      <trkpt lat="51.69307398609817" lon="0.296662040054798">
        <ele>94.082474498884906</ele>
        <time>2018-02-14T09:11:50Z</time>
      </trkpt>
      <trkpt lat="51.693054959177971" lon="0.296680983155966">
        <ele>95</ele>
        <time>2018-02-14T09:11:51Z</time>
      </trkpt>
      <trkpt lat="51.693035010248423" lon="0.296697998419404">
        <ele>95</ele>
        <time>2018-02-14T09:11:52Z</time>
      </trkpt>
      <trkpt lat="51.693013971671462" lon="0.296715013682842">
        <ele>95</ele>
        <time>2018-02-14T09:11:53Z</time>
      </trkpt>
      <trkpt lat="51.692992011085153" lon="0.296734962612391">
        <ele>95</ele>
        <time>2018-02-14T09:11:54Z</time>
      </trkpt>
      <trkpt lat="51.692970972508192" lon="0.296752983704209">
        <ele>95</ele>
        <time>2018-02-14T09:11:55Z</time>
      </trkpt>
      <trkpt lat="51.692945994436741" lon="0.296777961775661">
        <ele>95</ele>
        <time>2018-02-14T09:11:56Z</time>
      </trkpt>
      <trkpt lat="51.692927973344922" lon="0.29679698869586">
        <ele>95</ele>
        <time>2018-02-14T09:11:57Z</time>
      </trkpt>
      <trkpt lat="51.692910036072135" lon="0.296819033101201">
        <ele>95</ele>
        <time>2018-02-14T09:11:58Z</time>
      </trkpt>
      <trkpt lat="51.692894026637077" lon="0.296843005344272">
        <ele>94.866665718511797</ele>
        <time>2018-02-14T09:11:59Z</time>
      </trkpt>
      <trkpt lat="51.692880028858781" lon="0.296863038092852">
        <ele>94</ele>
        <time>2018-02-14T09:12:00Z</time>
      </trkpt>
      <trkpt lat="51.692867036908865" lon="0.2968829870224">
        <ele>94</ele>
        <time>2018-02-14T09:12:01Z</time>
      </trkpt>
      <trkpt lat="51.692845998331904" lon="0.296918023377657">
        <ele>94</ele>
        <time>2018-02-14T09:12:03Z</time>
      </trkpt>
      <trkpt lat="51.692829988896847" lon="0.296944007277489">
        <ele>94</ele>
        <time>2018-02-14T09:12:05Z</time>
      </trkpt>
      <trkpt lat="51.692816996946931" lon="0.29696999117732">
        <ele>94</ele>
        <time>2018-02-14T09:12:07Z</time>
      </trkpt>
      <trkpt lat="51.692804004997015" lon="0.297002010047436">
        <ele>94</ele>
        <time>2018-02-14T09:12:09Z</time>
      </trkpt>
      <trkpt lat="51.69279302470386" lon="0.297036962583661">
        <ele>93</ele>
        <time>2018-02-14T09:12:11Z</time>
      </trkpt>
      <trkpt lat="51.692784978076816" lon="0.297069987282157">
        <ele>93</ele>
        <time>2018-02-14T09:12:13Z</time>
      </trkpt>
      <trkpt lat="51.692775003612041" lon="0.297109968960285">
        <ele>93</ele>
        <time>2018-02-14T09:12:15Z</time>
      </trkpt>
      <trkpt lat="51.692767962813377" lon="0.297138970345259">
        <ele>93.082474498884906</ele>
        <time>2018-02-14T09:12:16Z</time>
      </trkpt>
      <trkpt lat="51.692757988348603" lon="0.297170989215374">
        <ele>94</ele>
        <time>2018-02-14T09:12:17Z</time>
      </trkpt>
      <trkpt lat="51.692747008055449" lon="0.297202002257109">
        <ele>94.118812257623006</ele>
        <time>2018-02-14T09:12:18Z</time>
      </trkpt>
      <trkpt lat="51.692737033590674" lon="0.297234021127224">
        <ele>95</ele>
        <time>2018-02-14T09:12:19Z</time>
      </trkpt>
      <trkpt lat="51.692724963650107" lon="0.297266039997339">
        <ele>95</ele>
        <time>2018-02-14T09:12:20Z</time>
      </trkpt>
      <trkpt lat="51.692711971700191" lon="0.297303004190326">
        <ele>95</ele>
        <time>2018-02-14T09:12:21Z</time>
      </trkpt>
      <trkpt lat="51.692703003063798" lon="0.297335023060441">
        <ele>95</ele>
        <time>2018-02-14T09:12:22Z</time>
      </trkpt>
      <trkpt lat="51.692693028599024" lon="0.297362012788653">
        <ele>95</ele>
        <time>2018-02-14T09:12:23Z</time>
      </trkpt>
      <trkpt lat="51.692684981971979" lon="0.297389002516866">
        <ele>95</ele>
        <time>2018-02-14T09:12:24Z</time>
      </trkpt>
      <trkpt lat="51.692677019163966" lon="0.297418003901839">
        <ele>94.852710332304696</ele>
        <time>2018-02-14T09:12:25Z</time>
      </trkpt>
      <trkpt lat="51.692667966708541" lon="0.297448011115193">
        <ele>94.077514610888997</ele>
        <time>2018-02-14T09:12:26Z</time>
      </trkpt>
      <trkpt lat="51.692660003900528" lon="0.297480029985309">
        <ele>94</ele>
        <time>2018-02-14T09:12:27Z</time>
      </trkpt>
      <trkpt lat="51.692652041092515" lon="0.297513976693153">
        <ele>94</ele>
        <time>2018-02-14T09:12:28Z</time>
      </trkpt>
      <trkpt lat="51.69264399446547" lon="0.297544989734888">
        <ele>94</ele>
        <time>2018-02-14T09:12:29Z</time>
      </trkpt>
      <trkpt lat="51.692637959495187" lon="0.297574996948242">
        <ele>93.794119492514497</ele>
        <time>2018-02-14T09:12:30Z</time>
      </trkpt>
      <trkpt lat="51.692631002515554" lon="0.297601986676455">
        <ele>93</ele>
        <time>2018-02-14T09:12:31Z</time>
      </trkpt>
      <trkpt lat="51.692626979202032" lon="0.297628976404667">
        <ele>93</ele>
        <time>2018-02-14T09:12:32Z</time>
      </trkpt>
      <trkpt lat="51.692624967545271" lon="0.297681028023362">
        <ele>93</ele>
        <time>2018-02-14T09:12:34Z</time>
      </trkpt>
      <trkpt lat="51.692628990858793" lon="0.29772000387311">
        <ele>93</ele>
        <time>2018-02-14T09:12:36Z</time>
      </trkpt>
      <trkpt lat="51.692629996687174" lon="0.297755962237716">
        <ele>93</ele>
        <time>2018-02-14T09:12:38Z</time>
      </trkpt>
      <trkpt lat="51.692628990858793" lon="0.297796027734876">
        <ele>93</ele>
        <time>2018-02-14T09:12:40Z</time>
      </trkpt>
      <trkpt lat="51.692626979202032" lon="0.297835003584623">
        <ele>92.811961884757196</ele>
        <time>2018-02-14T09:12:42Z</time>
      </trkpt>
      <trkpt lat="51.692612981423736" lon="0.297874985262752">
        <ele>93</ele>
        <time>2018-02-14T09:12:47Z</time>
      </trkpt>
      <trkpt lat="51.692614993080497" lon="0.297913961112499">
        <ele>93</ele>
        <time>2018-02-14T09:12:50Z</time>
      </trkpt>
      <trkpt lat="51.692631002515554" lon="0.297931982204318">
        <ele>93</ele>
        <time>2018-02-14T09:12:52Z</time>
      </trkpt>
      <trkpt lat="51.692652963101864" lon="0.297946985810995">
        <ele>92.891085595518703</ele>
        <time>2018-02-14T09:12:54Z</time>
      </trkpt>
      <trkpt lat="51.692670984193683" lon="0.297956960275769">
        <ele>91.108914404481297</ele>
        <time>2018-02-14T09:12:58Z</time>
      </trkpt>
      <trkpt lat="51.692687999457121" lon="0.297964001074433">
        <ele>93</ele>
        <time>2018-02-14T09:13:01Z</time>
      </trkpt>
      <trkpt lat="51.692713983356953" lon="0.297976993024349">
        <ele>92</ele>
        <time>2018-02-14T09:13:04Z</time>
      </trkpt>
      <trkpt lat="51.692739967256784" lon="0.297986967489123">
        <ele>92</ele>
        <time>2018-02-14T09:13:06Z</time>
      </trkpt>
      <trkpt lat="51.692769974470139" lon="0.298008006066084">
        <ele>92</ele>
        <time>2018-02-14T09:13:08Z</time>
      </trkpt>
      <trkpt lat="51.692802999168634" lon="0.298028038814664">
        <ele>91</ele>
        <time>2018-02-14T09:13:10Z</time>
      </trkpt>
      <trkpt lat="51.692821020260453" lon="0.298036001622677">
        <ele>91.110003199999994</ele>
        <time>2018-02-14T09:13:11Z</time>
      </trkpt>
      <trkpt lat="51.692839041352272" lon="0.29804497025907">
        <ele>92</ele>
        <time>2018-02-14T09:13:12Z</time>
      </trkpt>
      <trkpt lat="51.692856978625059" lon="0.298056034371257">
        <ele>92</ele>
        <time>2018-02-14T09:13:13Z</time>
      </trkpt>
      <trkpt lat="51.692874999716878" lon="0.29806500300765">
        <ele>92</ele>
        <time>2018-02-14T09:13:14Z</time>
      </trkpt>
      <trkpt lat="51.692895032465458" lon="0.298071959987283">
        <ele>92</ele>
        <time>2018-02-14T09:13:15Z</time>
      </trkpt>
      <trkpt lat="51.692914981395006" lon="0.298081012442708">
        <ele>92</ele>
        <time>2018-02-14T09:13:16Z</time>
      </trkpt>
      <trkpt lat="51.692933002486825" lon="0.298089981079102">
        <ele>92</ele>
        <time>2018-02-14T09:13:17Z</time>
      </trkpt>
      <trkpt lat="51.692951023578644" lon="0.298100039362907">
        <ele>92</ele>
        <time>2018-02-14T09:13:18Z</time>
      </trkpt>
      <trkpt lat="51.692985976114869" lon="0.298114037141204">
        <ele>92</ele>
        <time>2018-02-14T09:13:20Z</time>
      </trkpt>
      <trkpt lat="51.693005003035069" lon="0.298123005777597">
        <ele>92</ele>
        <time>2018-02-14T09:13:21Z</time>
      </trkpt>
      <trkpt lat="51.693023024126887" lon="0.298133986070752">
        <ele>92</ele>
        <time>2018-02-14T09:13:22Z</time>
      </trkpt>
      <trkpt lat="51.693055965006351" lon="0.29814999550581">
        <ele>92</ele>
        <time>2018-02-14T09:13:24Z</time>
      </trkpt>
      <trkpt lat="51.69307298026979" lon="0.298158964142203">
        <ele>92</ele>
        <time>2018-02-14T09:13:25Z</time>
      </trkpt>
      <trkpt lat="51.693091001361609" lon="0.298172039911151">
        <ele>92</ele>
        <time>2018-02-14T09:13:26Z</time>
      </trkpt>
      <trkpt lat="51.693109022453427" lon="0.298186959698796">
        <ele>91.918367880046503</ele>
        <time>2018-02-14T09:13:27Z</time>
      </trkpt>
      <trkpt lat="51.693126959726214" lon="0.298201041296124">
        <ele>91</ele>
        <time>2018-02-14T09:13:28Z</time>
      </trkpt>
      <trkpt lat="51.693144980818033" lon="0.29821403324604">
        <ele>91.101016239139398</ele>
        <time>2018-02-14T09:13:29Z</time>
      </trkpt>
      <trkpt lat="51.693165013566613" lon="0.298227025195956">
        <ele>92</ele>
        <time>2018-02-14T09:13:30Z</time>
      </trkpt>
      <trkpt lat="51.693183034658432" lon="0.298240017145872">
        <ele>92</ele>
        <time>2018-02-14T09:13:31Z</time>
      </trkpt>
      <trkpt lat="51.6932019777596" lon="0.298247979953885">
        <ele>92</ele>
        <time>2018-02-14T09:13:32Z</time>
      </trkpt>
      <trkpt lat="51.693221004679799" lon="0.29825703240931">
        <ele>91.794119492514497</ele>
        <time>2018-02-14T09:13:33Z</time>
      </trkpt>
      <trkpt lat="51.693239025771618" lon="0.298269018530846">
        <ele>91</ele>
        <time>2018-02-14T09:13:34Z</time>
      </trkpt>
      <trkpt lat="51.693256041035056" lon="0.298284022137523">
        <ele>91</ele>
        <time>2018-02-14T09:13:35Z</time>
      </trkpt>
      <trkpt lat="51.693273978307843" lon="0.298298019915819">
        <ele>91</ele>
        <time>2018-02-14T09:13:36Z</time>
      </trkpt>
      <trkpt lat="51.693290993571281" lon="0.298311011865735">
        <ele>91</ele>
        <time>2018-02-14T09:13:37Z</time>
      </trkpt>
      <trkpt lat="51.693317983299494" lon="0.298330960795283">
        <ele>91</ele>
        <time>2018-02-14T09:13:39Z</time>
      </trkpt>
      <trkpt lat="51.6933280415833" lon="0.298359962180257">
        <ele>91.045042032311301</ele>
        <time>2018-02-14T09:13:41Z</time>
      </trkpt>
      <trkpt lat="51.693337010219693" lon="0.298388041555882">
        <ele>92</ele>
        <time>2018-02-14T09:13:43Z</time>
      </trkpt>
      <trkpt lat="51.693343967199326" lon="0.298419976606965">
        <ele>92</ele>
        <time>2018-02-14T09:13:45Z</time>
      </trkpt>
      <trkpt lat="51.693343967199326" lon="0.298464987426996">
        <ele>93</ele>
        <time>2018-02-14T09:13:47Z</time>
      </trkpt>
      <trkpt lat="51.693341033533216" lon="0.29851402156055">
        <ele>93</ele>
        <time>2018-02-14T09:13:49Z</time>
      </trkpt>
      <trkpt lat="51.693340027704835" lon="0.298544028773904">
        <ele>92.879999999999995</ele>
        <time>2018-02-14T09:13:50Z</time>
      </trkpt>
      <trkpt lat="51.693338016048074" lon="0.298574035987258">
        <ele>92</ele>
        <time>2018-02-14T09:13:51Z</time>
      </trkpt>
      <trkpt lat="51.693334998562932" lon="0.298603037372231">
        <ele>92</ele>
        <time>2018-02-14T09:13:52Z</time>
      </trkpt>
      <trkpt lat="51.693332986906171" lon="0.298632960766554">
        <ele>92</ele>
        <time>2018-02-14T09:13:53Z</time>
      </trkpt>
      <trkpt lat="51.693329969421029" lon="0.298661962151527">
        <ele>92</ele>
        <time>2018-02-14T09:13:54Z</time>
      </trkpt>
      <trkpt lat="51.693322006613016" lon="0.298715019598603">
        <ele>92.1287101107647</ele>
        <time>2018-02-14T09:13:56Z</time>
      </trkpt>
      <trkpt lat="51.693317983299494" lon="0.298747038468719">
        <ele>93</ele>
        <time>2018-02-14T09:13:57Z</time>
      </trkpt>
      <trkpt lat="51.693313959985971" lon="0.298776961863041">
        <ele>93</ele>
        <time>2018-02-14T09:13:58Z</time>
      </trkpt>
      <trkpt lat="51.693305997177958" lon="0.298828007653356">
        <ele>93</ele>
        <time>2018-02-14T09:14:00Z</time>
      </trkpt>
      <trkpt lat="51.693302979692817" lon="0.298860026523471">
        <ele>93</ele>
        <time>2018-02-14T09:14:01Z</time>
      </trkpt>
      <trkpt lat="51.693297028541565" lon="0.298917023465037">
        <ele>93</ele>
        <time>2018-02-14T09:14:03Z</time>
      </trkpt>
      <trkpt lat="51.693291999399662" lon="0.298974020406604">
        <ele>93</ele>
        <time>2018-02-14T09:14:05Z</time>
      </trkpt>
      <trkpt lat="51.693284958600998" lon="0.299020959064364">
        <ele>93</ele>
        <time>2018-02-14T09:14:07Z</time>
      </trkpt>
      <trkpt lat="51.693278001621366" lon="0.299066975712776">
        <ele>93</ele>
        <time>2018-02-14T09:14:09Z</time>
      </trkpt>
      <trkpt lat="51.693274984136224" lon="0.29909698292613">
        <ele>93</ele>
        <time>2018-02-14T09:14:10Z</time>
      </trkpt>
      <trkpt lat="51.693271966651082" lon="0.299147022888064">
        <ele>93</ele>
        <time>2018-02-14T09:14:12Z</time>
      </trkpt>
      <trkpt lat="51.693269032984972" lon="0.299196979030967">
        <ele>93</ele>
        <time>2018-02-14T09:14:14Z</time>
      </trkpt>
      <trkpt lat="51.69326500967145" lon="0.299247018992901">
        <ele>93</ele>
        <time>2018-02-14T09:14:16Z</time>
      </trkpt>
      <trkpt lat="51.693259980529547" lon="0.299290018156171">
        <ele>93</ele>
        <time>2018-02-14T09:14:18Z</time>
      </trkpt>
      <trkpt lat="51.693251011893153" lon="0.299345003440976">
        <ele>93</ele>
        <time>2018-02-14T09:14:20Z</time>
      </trkpt>
      <trkpt lat="51.693243971094489" lon="0.299390014261007">
        <ele>93</ele>
        <time>2018-02-14T09:14:22Z</time>
      </trkpt>
      <trkpt lat="51.693241037428379" lon="0.299441982060671">
        <ele>92</ele>
        <time>2018-02-14T09:14:24Z</time>
      </trkpt>
      <trkpt lat="51.693238019943237" lon="0.299469977617264">
        <ele>92</ele>
        <time>2018-02-14T09:14:25Z</time>
      </trkpt>
      <trkpt lat="51.693230979144573" lon="0.299515994265676">
        <ele>92</ele>
        <time>2018-02-14T09:14:27Z</time>
      </trkpt>
      <trkpt lat="51.693226033821702" lon="0.299564022570848">
        <ele>92</ele>
        <time>2018-02-14T09:14:29Z</time>
      </trkpt>
      <trkpt lat="51.693216981366277" lon="0.299615990370512">
        <ele>91</ele>
        <time>2018-02-14T09:14:31Z</time>
      </trkpt>
      <trkpt lat="51.693210024386644" lon="0.299667958170176">
        <ele>91</ele>
        <time>2018-02-14T09:14:33Z</time>
      </trkpt>
      <trkpt lat="51.6932019777596" lon="0.299726966768503">
        <ele>91</ele>
        <time>2018-02-14T09:14:35Z</time>
      </trkpt>
      <trkpt lat="51.693195020779967" lon="0.299776000902057">
        <ele>92</ele>
        <time>2018-02-14T09:14:37Z</time>
      </trkpt>
      <trkpt lat="51.693190997466445" lon="0.29982503503561">
        <ele>92</ele>
        <time>2018-02-14T09:14:39Z</time>
      </trkpt>
      <trkpt lat="51.693184962496161" lon="0.299877002835274">
        <ele>91.782183864344901</ele>
        <time>2018-02-14T09:14:41Z</time>
      </trkpt>
      <trkpt lat="51.69318001717329" lon="0.299923019483685">
        <ele>90.782183864344901</ele>
        <time>2018-02-14T09:14:43Z</time>
      </trkpt>
      <trkpt lat="51.693173982203007" lon="0.29997599311173">
        <ele>90</ele>
        <time>2018-02-14T09:14:45Z</time>
      </trkpt>
      <trkpt lat="51.693170964717865" lon="0.300023015588522">
        <ele>90</ele>
        <time>2018-02-14T09:14:47Z</time>
      </trkpt>
      <trkpt lat="51.693166019394994" lon="0.300073977559805">
        <ele>90</ele>
        <time>2018-02-14T09:14:49Z</time>
      </trkpt>
      <trkpt lat="51.69315998442471" lon="0.300128040835261">
        <ele>90</ele>
        <time>2018-02-14T09:14:51Z</time>
      </trkpt>
      <trkpt lat="51.693154033273458" lon="0.300176991149783">
        <ele>90</ele>
        <time>2018-02-14T09:14:53Z</time>
      </trkpt>
      <trkpt lat="51.693150009959936" lon="0.300205992534757">
        <ele>90</ele>
        <time>2018-02-14T09:14:54Z</time>
      </trkpt>
      <trkpt lat="51.693144980818033" lon="0.300257038325071">
        <ele>90</ele>
        <time>2018-02-14T09:14:56Z</time>
      </trkpt>
      <trkpt lat="51.693138023838401" lon="0.300303976982832">
        <ele>90</ele>
        <time>2018-02-14T09:14:58Z</time>
      </trkpt>
      <trkpt lat="51.693134000524879" lon="0.300352005288005">
        <ele>90</ele>
        <time>2018-02-14T09:15:00Z</time>
      </trkpt>
      <trkpt lat="51.693127965554595" lon="0.300401961430907">
        <ele>90</ele>
        <time>2018-02-14T09:15:02Z</time>
      </trkpt>
      <trkpt lat="51.693124026060104" lon="0.300453007221222">
        <ele>90</ele>
        <time>2018-02-14T09:15:04Z</time>
      </trkpt>
      <trkpt lat="51.693118996918201" lon="0.300496006384492">
        <ele>90</ele>
        <time>2018-02-14T09:15:06Z</time>
      </trkpt>
      <trkpt lat="51.693113967776299" lon="0.300546968355775">
        <ele>90</ele>
        <time>2018-02-14T09:15:08Z</time>
      </trkpt>
      <trkpt lat="51.693107010796666" lon="0.300593990832567">
        <ele>90</ele>
        <time>2018-02-14T09:15:10Z</time>
      </trkpt>
      <trkpt lat="51.693104999139905" lon="0.300639001652598">
        <ele>90</ele>
        <time>2018-02-14T09:15:12Z</time>
      </trkpt>
      <trkpt lat="51.693101981654763" lon="0.300668003037572">
        <ele>90</ele>
        <time>2018-02-14T09:15:13Z</time>
      </trkpt>
      <trkpt lat="51.69309401884675" lon="0.300718965008855">
        <ele>90</ele>
        <time>2018-02-14T09:15:15Z</time>
      </trkpt>
      <trkpt lat="51.693089995533228" lon="0.300764981657267">
        <ele>90</ele>
        <time>2018-02-14T09:15:17Z</time>
      </trkpt>
      <trkpt lat="51.693083960562944" lon="0.300816027447581">
        <ele>89.819995904052405</ele>
        <time>2018-02-14T09:15:19Z</time>
      </trkpt>
      <trkpt lat="51.693078009411693" lon="0.300863971933723">
        <ele>89</ele>
        <time>2018-02-14T09:15:21Z</time>
      </trkpt>
      <trkpt lat="51.69307298026979" lon="0.300913006067276">
        <ele>89</ele>
        <time>2018-02-14T09:15:23Z</time>
      </trkpt>
      <trkpt lat="51.693067029118538" lon="0.300960028544068">
        <ele>89</ele>
        <time>2018-02-14T09:15:25Z</time>
      </trkpt>
      <trkpt lat="51.693060994148254" lon="0.301002021878958">
        <ele>89</ele>
        <time>2018-02-14T09:15:27Z</time>
      </trkpt>
      <trkpt lat="51.693054959177971" lon="0.301049966365099">
        <ele>89</ele>
        <time>2018-02-14T09:15:29Z</time>
      </trkpt>
      <trkpt lat="51.693049008026719" lon="0.301095983013511">
        <ele>89</ele>
        <time>2018-02-14T09:15:31Z</time>
      </trkpt>
      <trkpt lat="51.693044984713197" lon="0.301140993833542">
        <ele>88.889996800000006</ele>
        <time>2018-02-14T09:15:33Z</time>
      </trkpt>
      <trkpt lat="51.693043978884816" lon="0.301193967461586">
        <ele>88</ele>
        <time>2018-02-14T09:15:35Z</time>
      </trkpt>
      <trkpt lat="51.693042973056436" lon="0.301240989938378">
        <ele>88</ele>
        <time>2018-02-14T09:15:37Z</time>
      </trkpt>
      <trkpt lat="51.693040039390326" lon="0.301292035728693">
        <ele>88</ele>
        <time>2018-02-14T09:15:39Z</time>
      </trkpt>
      <trkpt lat="51.693036016076803" lon="0.301345009356737">
        <ele>88</ele>
        <time>2018-02-14T09:15:41Z</time>
      </trkpt>
      <trkpt lat="51.693032998591661" lon="0.30139303766191">
        <ele>88</ele>
        <time>2018-02-14T09:15:43Z</time>
      </trkpt>
      <trkpt lat="51.693026041612029" lon="0.301442993804812">
        <ele>88</ele>
        <time>2018-02-14T09:15:45Z</time>
      </trkpt>
      <trkpt lat="51.693020006641746" lon="0.301494039595127">
        <ele>88</ele>
        <time>2018-02-14T09:15:47Z</time>
      </trkpt>
      <trkpt lat="51.693014977499843" lon="0.301542989909649">
        <ele>87</ele>
        <time>2018-02-14T09:15:49Z</time>
      </trkpt>
      <trkpt lat="51.69300802052021" lon="0.301595041528344">
        <ele>87</ele>
        <time>2018-02-14T09:15:51Z</time>
      </trkpt>
      <trkpt lat="51.692999973893166" lon="0.301638962700963">
        <ele>87</ele>
        <time>2018-02-14T09:15:53Z</time>
      </trkpt>
      <trkpt lat="51.692994022741914" lon="0.301695037633181">
        <ele>87</ele>
        <time>2018-02-14T09:15:55Z</time>
      </trkpt>
      <trkpt lat="51.692989999428391" lon="0.301745999604464">
        <ele>87</ele>
        <time>2018-02-14T09:15:57Z</time>
      </trkpt>
      <trkpt lat="51.692984970286489" lon="0.301776006817818">
        <ele>87</ele>
        <time>2018-02-14T09:15:58Z</time>
      </trkpt>
      <trkpt lat="51.692981030791998" lon="0.301807019859552">
        <ele>87</ele>
        <time>2018-02-14T09:15:59Z</time>
      </trkpt>
      <trkpt lat="51.692976001650095" lon="0.301850019022822">
        <ele>87</ele>
        <time>2018-02-14T09:16:01Z</time>
      </trkpt>
      <trkpt lat="51.692963009700179" lon="0.30186602845788">
        <ele>86</ele>
        <time>2018-02-14T09:16:11Z</time>
      </trkpt>
      <trkpt lat="51.692954963073134" lon="0.301893018186092">
        <ele>87</ele>
        <time>2018-02-14T09:16:19Z</time>
      </trkpt>
      <trkpt lat="51.692951023578644" lon="0.301923025399446">
        <ele>86</ele>
        <time>2018-02-14T09:16:32Z</time>
      </trkpt>
      <trkpt lat="51.692949011921883" lon="0.30195496045053">
        <ele>86</ele>
        <time>2018-02-14T09:16:35Z</time>
      </trkpt>
      <trkpt lat="51.692947000265121" lon="0.301992008462548">
        <ele>86</ele>
        <time>2018-02-14T09:16:38Z</time>
      </trkpt>
      <trkpt lat="51.692947000265121" lon="0.302024027332664">
        <ele>86</ele>
        <time>2018-02-14T09:16:40Z</time>
      </trkpt>
      <trkpt lat="51.692941971123219" lon="0.302069960162044">
        <ele>86</ele>
        <time>2018-02-14T09:16:43Z</time>
      </trkpt>
      <trkpt lat="51.692938031628728" lon="0.302104996517301">
        <ele>86</ele>
        <time>2018-02-14T09:16:45Z</time>
      </trkpt>
      <trkpt lat="51.692935014143586" lon="0.302137015387416">
        <ele>86</ele>
        <time>2018-02-14T09:16:47Z</time>
      </trkpt>
      <trkpt lat="51.692934008315206" lon="0.30216702260077">
        <ele>86</ele>
        <time>2018-02-14T09:16:49Z</time>
      </trkpt>
      <trkpt lat="51.692929985001683" lon="0.302200969308615">
        <ele>86</ele>
        <time>2018-02-14T09:16:51Z</time>
      </trkpt>
      <trkpt lat="51.692925961688161" lon="0.302242040634155">
        <ele>86</ele>
        <time>2018-02-14T09:16:53Z</time>
      </trkpt>
      <trkpt lat="51.69292202219367" lon="0.302279004827142">
        <ele>86</ele>
        <time>2018-02-14T09:16:55Z</time>
      </trkpt>
      <trkpt lat="51.692917998880148" lon="0.302312029525638">
        <ele>86</ele>
        <time>2018-02-14T09:16:57Z</time>
      </trkpt>
      <trkpt lat="51.692915987223387" lon="0.302346982061863">
        <ele>85</ele>
        <time>2018-02-14T09:16:59Z</time>
      </trkpt>
      <trkpt lat="51.692910036072135" lon="0.302384030073881">
        <ele>86</ele>
        <time>2018-02-14T09:17:01Z</time>
      </trkpt>
      <trkpt lat="51.692906012758613" lon="0.302420994266868">
        <ele>86</ele>
        <time>2018-02-14T09:17:03Z</time>
      </trkpt>
      <trkpt lat="51.692897966131568" lon="0.302458964288235">
        <ele>85</ele>
        <time>2018-02-14T09:17:06Z</time>
      </trkpt>
      <trkpt lat="51.692896038293839" lon="0.302487965673208">
        <ele>85.101004615802296</ele>
        <time>2018-02-14T09:17:08Z</time>
      </trkpt>
      <trkpt lat="51.692893020808697" lon="0.302520990371704">
        <ele>86</ele>
        <time>2018-02-14T09:17:10Z</time>
      </trkpt>
      <trkpt lat="51.692884974181652" lon="0.302561977878213">
        <ele>86</ele>
        <time>2018-02-14T09:17:12Z</time>
      </trkpt>
      <trkpt lat="51.692880028858781" lon="0.302603971213102">
        <ele>86</ele>
        <time>2018-02-14T09:17:14Z</time>
      </trkpt>
      <trkpt lat="51.692872988060117" lon="0.302649987861514">
        <ele>86</ele>
        <time>2018-02-14T09:17:16Z</time>
      </trkpt>
      <trkpt lat="51.692863013595343" lon="0.302688963711262">
        <ele>85.898995384197704</ele>
        <time>2018-02-14T09:17:18Z</time>
      </trkpt>
      <trkpt lat="51.692847004160285" lon="0.302717965096235">
        <ele>85</ele>
        <time>2018-02-14T09:17:20Z</time>
      </trkpt>
      <trkpt lat="51.692841975018382" lon="0.302749983966351">
        <ele>84</ele>
        <time>2018-02-14T09:17:22Z</time>
      </trkpt>
      <trkpt lat="51.692839041352272" lon="0.302785020321608">
        <ele>84</ele>
        <time>2018-02-14T09:17:24Z</time>
      </trkpt>
      <trkpt lat="51.692837029695511" lon="0.302818967029452">
        <ele>84</ele>
        <time>2018-02-14T09:17:26Z</time>
      </trkpt>
      <trkpt lat="51.692837029695511" lon="0.302859032526612">
        <ele>83.792081717486596</ele>
        <time>2018-02-14T09:17:28Z</time>
      </trkpt>
      <trkpt lat="51.69283501803875" lon="0.302894990891218">
        <ele>83</ele>
        <time>2018-02-14T09:17:30Z</time>
      </trkpt>
      <trkpt lat="51.692829988896847" lon="0.302940001711249">
        <ele>83.175255011150597</ele>
        <time>2018-02-14T09:17:33Z</time>
      </trkpt>
      <trkpt lat="51.692823031917214" lon="0.302976965904236">
        <ele>84</ele>
        <time>2018-02-14T09:17:35Z</time>
      </trkpt>
      <trkpt lat="51.692810039967299" lon="0.303017031401396">
        <ele>84</ele>
        <time>2018-02-14T09:17:37Z</time>
      </trkpt>
      <trkpt lat="51.692800987511873" lon="0.303053995594382">
        <ele>84</ele>
        <time>2018-02-14T09:17:39Z</time>
      </trkpt>
      <trkpt lat="51.692798975855112" lon="0.303088026121259">
        <ele>84</ele>
        <time>2018-02-14T09:17:41Z</time>
      </trkpt>
      <trkpt lat="51.69279595836997" lon="0.303123984485865">
        <ele>84</ele>
        <time>2018-02-14T09:17:43Z</time>
      </trkpt>
      <trkpt lat="51.692790007218719" lon="0.303160026669502">
        <ele>84</ele>
        <time>2018-02-14T09:17:45Z</time>
      </trkpt>
      <trkpt lat="51.692782966420054" lon="0.303193973377347">
        <ele>84</ele>
        <time>2018-02-14T09:17:47Z</time>
      </trkpt>
      <trkpt lat="51.692777015268803" lon="0.303226998075843">
        <ele>84</ele>
        <time>2018-02-14T09:17:49Z</time>
      </trkpt>
      <trkpt lat="51.692775003612041" lon="0.30326304025948">
        <ele>84</ele>
        <time>2018-02-14T09:17:51Z</time>
      </trkpt>
      <trkpt lat="51.69277299195528" lon="0.303301010280848">
        <ele>84</ele>
        <time>2018-02-14T09:17:53Z</time>
      </trkpt>
      <trkpt lat="51.692768968641758" lon="0.303339986130595">
        <ele>83.814428228339196</ele>
        <time>2018-02-14T09:17:55Z</time>
      </trkpt>
      <trkpt lat="51.692757988348603" lon="0.303378961980343">
        <ele>83.209996799999999</ele>
        <time>2018-02-14T09:17:57Z</time>
      </trkpt>
      <trkpt lat="51.692748013883829" lon="0.303416009992361">
        <ele>84</ele>
        <time>2018-02-14T09:17:59Z</time>
      </trkpt>
      <trkpt lat="51.692736027762294" lon="0.303453980013728">
        <ele>84</ele>
        <time>2018-02-14T09:18:01Z</time>
      </trkpt>
      <trkpt lat="51.692724041640759" lon="0.303488010540605">
        <ele>84</ele>
        <time>2018-02-14T09:18:03Z</time>
      </trkpt>
      <trkpt lat="51.692719012498856" lon="0.303517011925578">
        <ele>84</ele>
        <time>2018-02-14T09:18:17Z</time>
      </trkpt>
      <trkpt lat="51.692705014720559" lon="0.303553976118565">
        <ele>84</ele>
        <time>2018-02-14T09:18:20Z</time>
      </trkpt>
      <trkpt lat="51.692704008892179" lon="0.303582977503538">
        <ele>83</ele>
        <time>2018-02-14T09:18:22Z</time>
      </trkpt>
      <trkpt lat="51.692699985578656" lon="0.303614996373653">
        <ele>83</ele>
        <time>2018-02-14T09:18:24Z</time>
      </trkpt>
      <trkpt lat="51.692690011113882" lon="0.303653972223401">
        <ele>83</ele>
        <time>2018-02-14T09:18:26Z</time>
      </trkpt>
      <trkpt lat="51.692679030820727" lon="0.303697977215052">
        <ele>83</ele>
        <time>2018-02-14T09:18:28Z</time>
      </trkpt>
      <trkpt lat="51.692669978365302" lon="0.30375899747014">
        <ele>83</ele>
        <time>2018-02-14T09:18:30Z</time>
      </trkpt>
      <trkpt lat="51.69266302138567" lon="0.303792022168636">
        <ele>83</ele>
        <time>2018-02-14T09:18:31Z</time>
      </trkpt>
      <trkpt lat="51.692655980587006" lon="0.3038249630481">
        <ele>83</ele>
        <time>2018-02-14T09:18:32Z</time>
      </trkpt>
      <trkpt lat="51.692650029435754" lon="0.303858993574977">
        <ele>83</ele>
        <time>2018-02-14T09:18:33Z</time>
      </trkpt>
      <trkpt lat="51.692645000293851" lon="0.303891012445092">
        <ele>83</ele>
        <time>2018-02-14T09:18:34Z</time>
      </trkpt>
      <trkpt lat="51.692637959495187" lon="0.303923031315207">
        <ele>83</ele>
        <time>2018-02-14T09:18:35Z</time>
      </trkpt>
      <trkpt lat="51.692634020000696" lon="0.303954966366291">
        <ele>83</ele>
        <time>2018-02-14T09:18:36Z</time>
      </trkpt>
      <trkpt lat="51.692627985030413" lon="0.303987991064787">
        <ele>83</ele>
        <time>2018-02-14T09:18:37Z</time>
      </trkpt>
      <trkpt lat="51.69262396171689" lon="0.304022021591663">
        <ele>83</ele>
        <time>2018-02-14T09:18:38Z</time>
      </trkpt>
      <trkpt lat="51.6926200222224" lon="0.304054040461779">
        <ele>83</ele>
        <time>2018-02-14T09:18:39Z</time>
      </trkpt>
      <trkpt lat="51.692615998908877" lon="0.304086981341243">
        <ele>83</ele>
        <time>2018-02-14T09:18:40Z</time>
      </trkpt>
      <trkpt lat="51.692611975595355" lon="0.3041220176965">
        <ele>83</ele>
        <time>2018-02-14T09:18:41Z</time>
      </trkpt>
      <trkpt lat="51.692608036100864" lon="0.304154036566615">
        <ele>83</ele>
        <time>2018-02-14T09:18:42Z</time>
      </trkpt>
      <trkpt lat="51.692606024444103" lon="0.304184965789318">
        <ele>82.878788270583399</ele>
        <time>2018-02-14T09:18:43Z</time>
      </trkpt>
      <trkpt lat="51.692608036100864" lon="0.304218996316195">
        <ele>82</ele>
        <time>2018-02-14T09:18:44Z</time>
      </trkpt>
      <trkpt lat="51.692608036100864" lon="0.30425101518631">
        <ele>82</ele>
        <time>2018-02-14T09:18:45Z</time>
      </trkpt>
      <trkpt lat="51.692608036100864" lon="0.304284039884806">
        <ele>82</ele>
        <time>2018-02-14T09:18:46Z</time>
      </trkpt>
      <trkpt lat="51.692608958110213" lon="0.304318992421031">
        <ele>82</ele>
        <time>2018-02-14T09:18:47Z</time>
      </trkpt>
      <trkpt lat="51.692611975595355" lon="0.304351011291146">
        <ele>82</ele>
        <time>2018-02-14T09:18:48Z</time>
      </trkpt>
      <trkpt lat="51.692618010565639" lon="0.304384035989642">
        <ele>82</ele>
        <time>2018-02-14T09:18:49Z</time>
      </trkpt>
      <trkpt lat="51.692623039707541" lon="0.304415971040726">
        <ele>82</ele>
        <time>2018-02-14T09:18:50Z</time>
      </trkpt>
      <trkpt lat="51.692625973373652" lon="0.30444597825408">
        <ele>82</ele>
        <time>2018-02-14T09:18:51Z</time>
      </trkpt>
      <trkpt lat="51.692628990858793" lon="0.304476991295815">
        <ele>82</ele>
        <time>2018-02-14T09:18:52Z</time>
      </trkpt>
      <trkpt lat="51.692632008343935" lon="0.304511021822691">
        <ele>82</ele>
        <time>2018-02-14T09:18:53Z</time>
      </trkpt>
      <trkpt lat="51.692634020000696" lon="0.304541029036045">
        <ele>82</ele>
        <time>2018-02-14T09:18:54Z</time>
      </trkpt>
      <trkpt lat="51.692637959495187" lon="0.304571958258748">
        <ele>82</ele>
        <time>2018-02-14T09:18:55Z</time>
      </trkpt>
      <trkpt lat="51.692639971151948" lon="0.304604982957244">
        <ele>81.669990400000003</ele>
        <time>2018-02-14T09:18:56Z</time>
      </trkpt>
      <trkpt lat="51.692640976980329" lon="0.30463800765574">
        <ele>79</ele>
        <time>2018-02-14T09:18:57Z</time>
      </trkpt>
      <trkpt lat="51.69264298863709" lon="0.304672038182616">
        <ele>79</ele>
        <time>2018-02-14T09:18:58Z</time>
      </trkpt>
      <trkpt lat="51.692645000293851" lon="0.30470497906208">
        <ele>79</ele>
        <time>2018-02-14T09:18:59Z</time>
      </trkpt>
      <trkpt lat="51.69264298863709" lon="0.304734986275434">
        <ele>79</ele>
        <time>2018-02-14T09:19:00Z</time>
      </trkpt>
      <trkpt lat="51.69264298863709" lon="0.30476801097393">
        <ele>79</ele>
        <time>2018-02-14T09:19:01Z</time>
      </trkpt>
      <trkpt lat="51.69264399446547" lon="0.304802041500807">
        <ele>79</ele>
        <time>2018-02-14T09:19:02Z</time>
      </trkpt>
      <trkpt lat="51.69264298863709" lon="0.304834982380271">
        <ele>79</ele>
        <time>2018-02-14T09:19:03Z</time>
      </trkpt>
      <trkpt lat="51.692638965323567" lon="0.304870018735528">
        <ele>79</ele>
        <time>2018-02-14T09:19:04Z</time>
      </trkpt>
      <trkpt lat="51.692635025829077" lon="0.304903965443373">
        <ele>79</ele>
        <time>2018-02-14T09:19:05Z</time>
      </trkpt>
      <trkpt lat="51.692633014172316" lon="0.304936990141869">
        <ele>79</ele>
        <time>2018-02-14T09:19:06Z</time>
      </trkpt>
      <trkpt lat="51.692628990858793" lon="0.304970014840364">
        <ele>79</ele>
        <time>2018-02-14T09:19:07Z</time>
      </trkpt>
      <trkpt lat="51.692626979202032" lon="0.30500203371048">
        <ele>79</ele>
        <time>2018-02-14T09:19:08Z</time>
      </trkpt>
      <trkpt lat="51.69262396171689" lon="0.305033968761563">
        <ele>79</ele>
        <time>2018-02-14T09:19:09Z</time>
      </trkpt>
      <trkpt lat="51.6926200222224" lon="0.305065987631679">
        <ele>79</ele>
        <time>2018-02-14T09:19:10Z</time>
      </trkpt>
      <trkpt lat="51.692617004737258" lon="0.305098006501794">
        <ele>79</ele>
        <time>2018-02-14T09:19:11Z</time>
      </trkpt>
      <trkpt lat="51.692614993080497" lon="0.305128013715148">
        <ele>79</ele>
        <time>2018-02-14T09:19:12Z</time>
      </trkpt>
      <trkpt lat="51.692611975595355" lon="0.305161038413644">
        <ele>79</ele>
        <time>2018-02-14T09:19:13Z</time>
      </trkpt>
      <trkpt lat="51.692608036100864" lon="0.305192973464727">
        <ele>79</ele>
        <time>2018-02-14T09:19:14Z</time>
      </trkpt>
      <trkpt lat="51.692604012787342" lon="0.305227003991604">
        <ele>79</ele>
        <time>2018-02-14T09:19:15Z</time>
      </trkpt>
      <trkpt lat="51.69259998947382" lon="0.30526296235621">
        <ele>79</ele>
        <time>2018-02-14T09:19:16Z</time>
      </trkpt>
      <trkpt lat="51.692595966160297" lon="0.305294981226325">
        <ele>79</ele>
        <time>2018-02-14T09:19:17Z</time>
      </trkpt>
      <trkpt lat="51.692592026665807" lon="0.305329011753201">
        <ele>79</ele>
        <time>2018-02-14T09:19:18Z</time>
      </trkpt>
      <trkpt lat="51.692588003352284" lon="0.305362036451697">
        <ele>79</ele>
        <time>2018-02-14T09:19:19Z</time>
      </trkpt>
      <trkpt lat="51.692582974210382" lon="0.3053929656744">
        <ele>79</ele>
        <time>2018-02-14T09:19:20Z</time>
      </trkpt>
      <trkpt lat="51.692579034715891" lon="0.305423978716135">
        <ele>79</ele>
        <time>2018-02-14T09:19:21Z</time>
      </trkpt>
      <trkpt lat="51.692574005573988" lon="0.305457003414631">
        <ele>79</ele>
        <time>2018-02-14T09:19:22Z</time>
      </trkpt>
      <trkpt lat="51.692569982260466" lon="0.305489022284746">
        <ele>79</ele>
        <time>2018-02-14T09:19:23Z</time>
      </trkpt>
      <trkpt lat="51.692565036937594" lon="0.305523974820971">
        <ele>79</ele>
        <time>2018-02-14T09:19:24Z</time>
      </trkpt>
      <trkpt lat="51.692561013624072" lon="0.305558005347848">
        <ele>79</ele>
        <time>2018-02-14T09:19:25Z</time>
      </trkpt>
      <trkpt lat="51.692559001967311" lon="0.305590024217963">
        <ele>79</ele>
        <time>2018-02-14T09:19:26Z</time>
      </trkpt>
      <trkpt lat="51.692555984482169" lon="0.305623970925808">
        <ele>78.814428228339196</ele>
        <time>2018-02-14T09:19:27Z</time>
      </trkpt>
      <trkpt lat="51.692551961168647" lon="0.305656995624304">
        <ele>78</ele>
        <time>2018-02-14T09:19:28Z</time>
      </trkpt>
      <trkpt lat="51.692548021674156" lon="0.305688008666039">
        <ele>78</ele>
        <time>2018-02-14T09:19:29Z</time>
      </trkpt>
      <trkpt lat="51.692543998360634" lon="0.305720027536154">
        <ele>78</ele>
        <time>2018-02-14T09:19:30Z</time>
      </trkpt>
      <trkpt lat="51.692539975047112" lon="0.305750034749508">
        <ele>78</ele>
        <time>2018-02-14T09:19:31Z</time>
      </trkpt>
      <trkpt lat="51.692537041381001" lon="0.305780963972211">
        <ele>78</ele>
        <time>2018-02-14T09:19:32Z</time>
      </trkpt>
      <trkpt lat="51.692533018067479" lon="0.305814994499087">
        <ele>78</ele>
        <time>2018-02-14T09:19:33Z</time>
      </trkpt>
      <trkpt lat="51.692530000582337" lon="0.305846007540822">
        <ele>78</ele>
        <time>2018-02-14T09:19:34Z</time>
      </trkpt>
      <trkpt lat="51.692526983097196" lon="0.305878026410937">
        <ele>78</ele>
        <time>2018-02-14T09:19:35Z</time>
      </trkpt>
      <trkpt lat="51.692522037774324" lon="0.305910967290401">
        <ele>78</ele>
        <time>2018-02-14T09:19:36Z</time>
      </trkpt>
      <trkpt lat="51.692518014460802" lon="0.305942986160517">
        <ele>78</ele>
        <time>2018-02-14T09:19:37Z</time>
      </trkpt>
      <trkpt lat="51.69251499697566" lon="0.305977016687393">
        <ele>78</ele>
        <time>2018-02-14T09:19:38Z</time>
      </trkpt>
      <trkpt lat="51.692510973662138" lon="0.306011969223619">
        <ele>78</ele>
        <time>2018-02-14T09:19:39Z</time>
      </trkpt>
      <trkpt lat="51.692506028339267" lon="0.306043988093734">
        <ele>78</ele>
        <time>2018-02-14T09:19:40Z</time>
      </trkpt>
      <trkpt lat="51.692499993368983" lon="0.306076006963849">
        <ele>78</ele>
        <time>2018-02-14T09:19:41Z</time>
      </trkpt>
      <trkpt lat="51.69249496422708" lon="0.306109031662345">
        <ele>78</ele>
        <time>2018-02-14T09:19:42Z</time>
      </trkpt>
      <trkpt lat="51.69249203056097" lon="0.306139038875699">
        <ele>78</ele>
        <time>2018-02-14T09:19:43Z</time>
      </trkpt>
      <trkpt lat="51.692488007247448" lon="0.306173991411924">
        <ele>77</ele>
        <time>2018-02-14T09:19:44Z</time>
      </trkpt>
      <trkpt lat="51.692482978105545" lon="0.306211039423943">
        <ele>77</ele>
        <time>2018-02-14T09:19:45Z</time>
      </trkpt>
      <trkpt lat="51.692479038611054" lon="0.306244986131787">
        <ele>77</ele>
        <time>2018-02-14T09:19:46Z</time>
      </trkpt>
      <trkpt lat="51.692478032782674" lon="0.306275999173522">
        <ele>77</ele>
        <time>2018-02-14T09:19:47Z</time>
      </trkpt>
      <trkpt lat="51.692476021125913" lon="0.306308018043637">
        <ele>77</ele>
        <time>2018-02-14T09:19:48Z</time>
      </trkpt>
      <trkpt lat="51.69247199781239" lon="0.306340958923101">
        <ele>77</ele>
        <time>2018-02-14T09:19:49Z</time>
      </trkpt>
      <trkpt lat="51.692465962842107" lon="0.306372977793217">
        <ele>77</ele>
        <time>2018-02-14T09:19:50Z</time>
      </trkpt>
      <trkpt lat="51.692463029175997" lon="0.306406002491713">
        <ele>77</ele>
        <time>2018-02-14T09:19:51Z</time>
      </trkpt>
      <trkpt lat="51.692459005862474" lon="0.306439027190208">
        <ele>77</ele>
        <time>2018-02-14T09:19:52Z</time>
      </trkpt>
      <trkpt lat="51.692455988377333" lon="0.306474985554814">
        <ele>77</ele>
        <time>2018-02-14T09:19:53Z</time>
      </trkpt>
      <trkpt lat="51.692452970892191" lon="0.306511027738452">
        <ele>77</ele>
        <time>2018-02-14T09:19:54Z</time>
      </trkpt>
      <trkpt lat="51.6924490313977" lon="0.306547991931438">
        <ele>77</ele>
        <time>2018-02-14T09:19:55Z</time>
      </trkpt>
      <trkpt lat="51.692446013912559" lon="0.306582022458315">
        <ele>77</ele>
        <time>2018-02-14T09:19:56Z</time>
      </trkpt>
      <trkpt lat="51.692442996427417" lon="0.306614963337779">
        <ele>77</ele>
        <time>2018-02-14T09:19:57Z</time>
      </trkpt>
      <trkpt lat="51.692439978942275" lon="0.306651005521417">
        <ele>77</ele>
        <time>2018-02-14T09:19:58Z</time>
      </trkpt>
      <trkpt lat="51.692437967285514" lon="0.306684030219913">
        <ele>77</ele>
        <time>2018-02-14T09:19:59Z</time>
      </trkpt>
      <trkpt lat="51.692434027791023" lon="0.306716971099377">
        <ele>77</ele>
        <time>2018-02-14T09:20:00Z</time>
      </trkpt>
      <trkpt lat="51.692430004477501" lon="0.306752007454634">
        <ele>77</ele>
        <time>2018-02-14T09:20:01Z</time>
      </trkpt>
      <trkpt lat="51.692424975335598" lon="0.30678603798151">
        <ele>77</ele>
        <time>2018-02-14T09:20:02Z</time>
      </trkpt>
      <trkpt lat="51.692422041669488" lon="0.306818978860974">
        <ele>77</ele>
        <time>2018-02-14T09:20:03Z</time>
      </trkpt>
      <trkpt lat="51.692419024184346" lon="0.306854015216231">
        <ele>77</ele>
        <time>2018-02-14T09:20:04Z</time>
      </trkpt>
      <trkpt lat="51.692417012527585" lon="0.306887961924076">
        <ele>77</ele>
        <time>2018-02-14T09:20:05Z</time>
      </trkpt>
      <trkpt lat="51.692413995042443" lon="0.306922998279333">
        <ele>77</ele>
        <time>2018-02-14T09:20:06Z</time>
      </trkpt>
      <trkpt lat="51.692411983385682" lon="0.30695996247232">
        <ele>77</ele>
        <time>2018-02-14T09:20:07Z</time>
      </trkpt>
      <trkpt lat="51.692410977557302" lon="0.306993992999196">
        <ele>77</ele>
        <time>2018-02-14T09:20:08Z</time>
      </trkpt>
      <trkpt lat="51.69240796007216" lon="0.307028023526073">
        <ele>77</ele>
        <time>2018-02-14T09:20:09Z</time>
      </trkpt>
      <trkpt lat="51.692404020577669" lon="0.307061970233917">
        <ele>77</ele>
        <time>2018-02-14T09:20:10Z</time>
      </trkpt>
      <trkpt lat="51.692399997264147" lon="0.307094994932413">
        <ele>77</ele>
        <time>2018-02-14T09:20:11Z</time>
      </trkpt>
      <trkpt lat="51.692393962293863" lon="0.3071319591254">
        <ele>77</ele>
        <time>2018-02-14T09:20:12Z</time>
      </trkpt>
      <trkpt lat="51.692391028627753" lon="0.307163977995515">
        <ele>77</ele>
        <time>2018-02-14T09:20:13Z</time>
      </trkpt>
      <trkpt lat="51.692389016970992" lon="0.30719599686563">
        <ele>76.864071878611597</ele>
        <time>2018-02-14T09:20:14Z</time>
      </trkpt>
      <trkpt lat="51.69238499365747" lon="0.307228015735745">
        <ele>76</ele>
        <time>2018-02-14T09:20:15Z</time>
      </trkpt>
      <trkpt lat="51.692380970343947" lon="0.30725902877748">
        <ele>76</ele>
        <time>2018-02-14T09:20:16Z</time>
      </trkpt>
      <trkpt lat="51.692378958687186" lon="0.307291969656944">
        <ele>76</ele>
        <time>2018-02-14T09:20:17Z</time>
      </trkpt>
      <trkpt lat="51.692376025021076" lon="0.30732398852706">
        <ele>76.148516608158999</ele>
        <time>2018-02-14T09:20:18Z</time>
      </trkpt>
      <trkpt lat="51.692374013364315" lon="0.307353995740414">
        <ele>77</ele>
        <time>2018-02-14T09:20:19Z</time>
      </trkpt>
      <trkpt lat="51.692368984222412" lon="0.307386014610529">
        <ele>77</ele>
        <time>2018-02-14T09:20:20Z</time>
      </trkpt>
      <trkpt lat="51.692360015586019" lon="0.307416021823883">
        <ele>77</ele>
        <time>2018-02-14T09:20:21Z</time>
      </trkpt>
      <trkpt lat="51.692346017807722" lon="0.307439994066954">
        <ele>77</ele>
        <time>2018-02-14T09:20:22Z</time>
      </trkpt>
      <trkpt lat="51.69232196174562" lon="0.307449968531728">
        <ele>77</ele>
        <time>2018-02-14T09:20:23Z</time>
      </trkpt>
      <trkpt lat="51.692302012816072" lon="0.307446029037237">
        <ele>77</ele>
        <time>2018-02-14T09:20:26Z</time>
      </trkpt>
      <trkpt lat="51.69227703474462" lon="0.307446029037237">
        <ele>77</ele>
        <time>2018-02-14T09:20:27Z</time>
      </trkpt>
      <trkpt lat="51.692240992560983" lon="0.307439994066954">
        <ele>77</ele>
        <time>2018-02-14T09:20:31Z</time>
      </trkpt>
      <trkpt lat="51.692218026146293" lon="0.307442005723715">
        <ele>77</ele>
        <time>2018-02-14T09:20:32Z</time>
      </trkpt>
      <trkpt lat="51.692195981740952" lon="0.307444017380476">
        <ele>77</ele>
        <time>2018-02-14T09:20:33Z</time>
      </trkpt>
      <trkpt lat="51.692172009497881" lon="0.307444017380476">
        <ele>77</ele>
        <time>2018-02-14T09:20:34Z</time>
      </trkpt>
      <trkpt lat="51.69214703142643" lon="0.307439994066954">
        <ele>77</ele>
        <time>2018-02-14T09:20:35Z</time>
      </trkpt>
      <trkpt lat="51.692122975364327" lon="0.307435970753431">
        <ele>77</ele>
        <time>2018-02-14T09:20:36Z</time>
      </trkpt>
      <trkpt lat="51.692101014778018" lon="0.30743102543056">
        <ele>76.950003199999998</ele>
        <time>2018-02-14T09:20:37Z</time>
      </trkpt>
      <trkpt lat="51.692078970372677" lon="0.30743001960218">
        <ele>76</ele>
        <time>2018-02-14T09:20:38Z</time>
      </trkpt>
      <trkpt lat="51.692054998129606" lon="0.307429013773799">
        <ele>76</ele>
        <time>2018-02-14T09:20:39Z</time>
      </trkpt>
      <trkpt lat="51.692033037543297" lon="0.307428007945418">
        <ele>76</ele>
        <time>2018-02-14T09:20:40Z</time>
      </trkpt>
      <trkpt lat="51.692001018673182" lon="0.307422978803515">
        <ele>76</ele>
        <time>2018-02-14T09:20:42Z</time>
      </trkpt>
      <trkpt lat="51.691980985924602" lon="0.307421972975135">
        <ele>76</ele>
        <time>2018-02-14T09:20:43Z</time>
      </trkpt>
      <trkpt lat="51.691962964832783" lon="0.307419961318374">
        <ele>76</ele>
        <time>2018-02-14T09:20:44Z</time>
      </trkpt>
      <trkpt lat="51.691944021731615" lon="0.307421972975135">
        <ele>76</ele>
        <time>2018-02-14T09:20:45Z</time>
      </trkpt>
      <trkpt lat="51.691916026175022" lon="0.307419961318374">
        <ele>76</ele>
        <time>2018-02-14T09:20:47Z</time>
      </trkpt>
      <trkpt lat="51.691888030618429" lon="0.307419961318374">
        <ele>76.148518490355599</ele>
        <time>2018-02-14T09:20:49Z</time>
      </trkpt>
      <trkpt lat="51.691860035061836" lon="0.307422978803515">
        <ele>77</ele>
        <time>2018-02-14T09:20:51Z</time>
      </trkpt>
      <trkpt lat="51.691842013970017" lon="0.307435970753431">
        <ele>77</ele>
        <time>2018-02-14T09:20:53Z</time>
      </trkpt>
      <trkpt lat="51.691833967342973" lon="0.307465977966785">
        <ele>77</ele>
        <time>2018-02-14T09:20:56Z</time>
      </trkpt>
      <trkpt lat="51.691835978999734" lon="0.307504031807184">
        <ele>76</ele>
        <time>2018-02-14T09:21:01Z</time>
      </trkpt>
      <trkpt lat="51.691829022020102" lon="0.307534039020538">
        <ele>75.940479999999994</ele>
        <time>2018-02-14T09:21:03Z</time>
      </trkpt>
      <trkpt lat="51.691821981221437" lon="0.307563962414861">
        <ele>75</ele>
        <time>2018-02-14T09:21:05Z</time>
      </trkpt>
      <trkpt lat="51.691818041726947" lon="0.307606961578131">
        <ele>75</ele>
        <time>2018-02-14T09:21:08Z</time>
      </trkpt>
      <trkpt lat="51.691816030070186" lon="0.307637974619865">
        <ele>75</ele>
        <time>2018-02-14T09:21:10Z</time>
      </trkpt>
      <trkpt lat="51.691809995099902" lon="0.307665970176458">
        <ele>75</ele>
        <time>2018-02-14T09:21:23Z</time>
      </trkpt>
      <trkpt lat="51.691804965957999" lon="0.307709975168109">
        <ele>75</ele>
        <time>2018-02-14T09:21:26Z</time>
      </trkpt>
      <trkpt lat="51.69180303812027" lon="0.307741994038224">
        <ele>76</ele>
        <time>2018-02-14T09:21:28Z</time>
      </trkpt>
      <trkpt lat="51.69180303812027" lon="0.307776024565101">
        <ele>76</ele>
        <time>2018-02-14T09:21:30Z</time>
      </trkpt>
      <trkpt lat="51.691793985664845" lon="0.307807959616184">
        <ele>76</ele>
        <time>2018-02-14T09:21:32Z</time>
      </trkpt>
      <trkpt lat="51.691787028685212" lon="0.3078399784863">
        <ele>75</ele>
        <time>2018-02-14T09:21:34Z</time>
      </trkpt>
      <trkpt lat="51.691780993714929" lon="0.307874009013176">
        <ele>76</ele>
        <time>2018-02-14T09:21:36Z</time>
      </trkpt>
      <trkpt lat="51.691774036735296" lon="0.307907033711672">
        <ele>76</ele>
        <time>2018-02-14T09:21:38Z</time>
      </trkpt>
      <trkpt lat="51.691771019250154" lon="0.307951038703322">
        <ele>76</ele>
        <time>2018-02-14T09:21:41Z</time>
      </trkpt>
      <trkpt lat="51.691765990108252" lon="0.307984985411167">
        <ele>76</ele>
        <time>2018-02-14T09:21:43Z</time>
      </trkpt>
      <trkpt lat="51.691754003986716" lon="0.308025972917676">
        <ele>76</ele>
        <time>2018-02-14T09:21:45Z</time>
      </trkpt>
      <trkpt lat="51.691755009815097" lon="0.308074001222849">
        <ele>75</ele>
        <time>2018-02-14T09:21:47Z</time>
      </trkpt>
      <trkpt lat="51.691754003986716" lon="0.308106020092964">
        <ele>75</ele>
        <time>2018-02-14T09:21:48Z</time>
      </trkpt>
      <trkpt lat="51.691750986501575" lon="0.308138038963079">
        <ele>75</ele>
        <time>2018-02-14T09:21:49Z</time>
      </trkpt>
      <trkpt lat="51.691746041178703" lon="0.308170979842544">
        <ele>75</ele>
        <time>2018-02-14T09:21:50Z</time>
      </trkpt>
      <trkpt lat="51.691742017865181" lon="0.308207022026181">
        <ele>75</ele>
        <time>2018-02-14T09:21:51Z</time>
      </trkpt>
      <trkpt lat="51.691737994551659" lon="0.308240968734026">
        <ele>75</ele>
        <time>2018-02-14T09:21:52Z</time>
      </trkpt>
      <trkpt lat="51.691733971238136" lon="0.308272987604141">
        <ele>75</ele>
        <time>2018-02-14T09:21:53Z</time>
      </trkpt>
      <trkpt lat="51.691728020086884" lon="0.308306012302637">
        <ele>75</ele>
        <time>2018-02-14T09:21:54Z</time>
      </trkpt>
      <trkpt lat="51.691718967631459" lon="0.308341970667243">
        <ele>75</ele>
        <time>2018-02-14T09:21:55Z</time>
      </trkpt>
      <trkpt lat="51.691713016480207" lon="0.308374995365739">
        <ele>75</ele>
        <time>2018-02-14T09:21:56Z</time>
      </trkpt>
      <trkpt lat="51.691705975681543" lon="0.308408020064235">
        <ele>75</ele>
        <time>2018-02-14T09:21:57Z</time>
      </trkpt>
      <trkpt lat="51.691700024530292" lon="0.30844003893435">
        <ele>75</ele>
        <time>2018-02-14T09:21:58Z</time>
      </trkpt>
      <trkpt lat="51.691696001216769" lon="0.308469040319324">
        <ele>75</ele>
        <time>2018-02-14T09:21:59Z</time>
      </trkpt>
      <trkpt lat="51.691689966246486" lon="0.308500975370407">
        <ele>75</ele>
        <time>2018-02-14T09:22:00Z</time>
      </trkpt>
      <trkpt lat="51.691685020923615" lon="0.308535005897284">
        <ele>74.821777535579898</ele>
        <time>2018-02-14T09:22:01Z</time>
      </trkpt>
      <trkpt lat="51.691679991781712" lon="0.308566018939018">
        <ele>74</ele>
        <time>2018-02-14T09:22:02Z</time>
      </trkpt>
      <trkpt lat="51.691675968468189" lon="0.308598037809134">
        <ele>74</ele>
        <time>2018-02-14T09:22:03Z</time>
      </trkpt>
      <trkpt lat="51.691670017316937" lon="0.308630978688598">
        <ele>74.192307692307693</ele>
        <time>2018-02-14T09:22:04Z</time>
      </trkpt>
      <trkpt lat="51.691660964861512" lon="0.308662997558713">
        <ele>75</ele>
        <time>2018-02-14T09:22:05Z</time>
      </trkpt>
      <trkpt lat="51.69165400788188" lon="0.30869803391397">
        <ele>75</ele>
        <time>2018-02-14T09:22:06Z</time>
      </trkpt>
      <trkpt lat="51.691645961254835" lon="0.308732986450195">
        <ele>75</ele>
        <time>2018-02-14T09:22:07Z</time>
      </trkpt>
      <trkpt lat="51.691640010103583" lon="0.30876399949193">
        <ele>75</ele>
        <time>2018-02-14T09:22:08Z</time>
      </trkpt>
      <trkpt lat="51.6916339751333" lon="0.308796018362045">
        <ele>75</ele>
        <time>2018-02-14T09:22:09Z</time>
      </trkpt>
      <trkpt lat="51.691628023982048" lon="0.308831976726651">
        <ele>74.830003199999993</ele>
        <time>2018-02-14T09:22:10Z</time>
      </trkpt>
      <trkpt lat="51.691620983183384" lon="0.308863995596766">
        <ele>74</ele>
        <time>2018-02-14T09:22:11Z</time>
      </trkpt>
      <trkpt lat="51.691615032032132" lon="0.308897020295262">
        <ele>74</ele>
        <time>2018-02-14T09:22:12Z</time>
      </trkpt>
      <trkpt lat="51.691608997061849" lon="0.308929961174726">
        <ele>74</ele>
        <time>2018-02-14T09:22:13Z</time>
      </trkpt>
      <trkpt lat="51.691600028425455" lon="0.308986036106944">
        <ele>74</ele>
        <time>2018-02-14T09:22:15Z</time>
      </trkpt>
      <trkpt lat="51.691594999283552" lon="0.309018976986408">
        <ele>74</ele>
        <time>2018-02-14T09:22:16Z</time>
      </trkpt>
      <trkpt lat="51.691587036475539" lon="0.309052001684904">
        <ele>74</ele>
        <time>2018-02-14T09:22:17Z</time>
      </trkpt>
      <trkpt lat="51.691578989848495" lon="0.309083014726639">
        <ele>73.782173951613899</ele>
        <time>2018-02-14T09:22:18Z</time>
      </trkpt>
      <trkpt lat="51.691571027040482" lon="0.309111010283232">
        <ele>73</ele>
        <time>2018-02-14T09:22:19Z</time>
      </trkpt>
      <trkpt lat="51.691564992070198" lon="0.309138000011444">
        <ele>73</ele>
        <time>2018-02-14T09:22:20Z</time>
      </trkpt>
      <trkpt lat="51.691558035090566" lon="0.309172030538321">
        <ele>73.190003200000007</ele>
        <time>2018-02-14T09:22:21Z</time>
      </trkpt>
      <trkpt lat="51.691550994291902" lon="0.309206983074546">
        <ele>74.188122576229901</ele>
        <time>2018-02-14T09:22:22Z</time>
      </trkpt>
      <trkpt lat="51.691546970978379" lon="0.309240007773042">
        <ele>75</ele>
        <time>2018-02-14T09:22:23Z</time>
      </trkpt>
      <trkpt lat="51.691543031483889" lon="0.309274038299918">
        <ele>75</ele>
        <time>2018-02-14T09:22:24Z</time>
      </trkpt>
      <trkpt lat="51.691536996513605" lon="0.309309996664524">
        <ele>75</ele>
        <time>2018-02-14T09:22:25Z</time>
      </trkpt>
      <trkpt lat="51.691530961543322" lon="0.309342015534639">
        <ele>75</ele>
        <time>2018-02-14T09:22:26Z</time>
      </trkpt>
      <trkpt lat="51.691527022048831" lon="0.309375040233135">
        <ele>75</ele>
        <time>2018-02-14T09:22:27Z</time>
      </trkpt>
      <trkpt lat="51.691520987078547" lon="0.30940898694098">
        <ele>75</ele>
        <time>2018-02-14T09:22:28Z</time>
      </trkpt>
      <trkpt lat="51.691515035927296" lon="0.309441005811095">
        <ele>74</ele>
        <time>2018-02-14T09:22:29Z</time>
      </trkpt>
      <trkpt lat="51.691509000957012" lon="0.309473024681211">
        <ele>74</ele>
        <time>2018-02-14T09:22:30Z</time>
      </trkpt>
      <trkpt lat="51.691502965986729" lon="0.309507977217436">
        <ele>74</ele>
        <time>2018-02-14T09:22:31Z</time>
      </trkpt>
      <trkpt lat="51.691497014835477" lon="0.309538990259171">
        <ele>74</ele>
        <time>2018-02-14T09:22:32Z</time>
      </trkpt>
      <trkpt lat="51.691492991521955" lon="0.309571009129286">
        <ele>74</ele>
        <time>2018-02-14T09:22:33Z</time>
      </trkpt>
      <trkpt lat="51.691487962380052" lon="0.309605039656162">
        <ele>74</ele>
        <time>2018-02-14T09:22:34Z</time>
      </trkpt>
      <trkpt lat="51.691484022885561" lon="0.309634963050485">
        <ele>74</ele>
        <time>2018-02-14T09:22:35Z</time>
      </trkpt>
      <trkpt lat="51.691479999572039" lon="0.309664970263839">
        <ele>74</ele>
        <time>2018-02-14T09:22:36Z</time>
      </trkpt>
      <trkpt lat="51.691474970430136" lon="0.309697994962335">
        <ele>74</ele>
        <time>2018-02-14T09:22:37Z</time>
      </trkpt>
      <trkpt lat="51.691471030935645" lon="0.309729008004069">
        <ele>74</ele>
        <time>2018-02-14T09:22:38Z</time>
      </trkpt>
      <trkpt lat="51.691467007622123" lon="0.309758009389043">
        <ele>74</ele>
        <time>2018-02-14T09:22:39Z</time>
      </trkpt>
      <trkpt lat="51.691460972651839" lon="0.309789022430778">
        <ele>74</ele>
        <time>2018-02-14T09:22:40Z</time>
      </trkpt>
      <trkpt lat="51.691455021500587" lon="0.309818023815751">
        <ele>74</ele>
        <time>2018-02-14T09:22:41Z</time>
      </trkpt>
      <trkpt lat="51.691444041207433" lon="0.309874014928937">
        <ele>74</ele>
        <time>2018-02-14T09:22:43Z</time>
      </trkpt>
      <trkpt lat="51.69143901206553" lon="0.309904022142291">
        <ele>74</ele>
        <time>2018-02-14T09:22:44Z</time>
      </trkpt>
      <trkpt lat="51.691435994580388" lon="0.309936041012406">
        <ele>74</ele>
        <time>2018-02-14T09:22:45Z</time>
      </trkpt>
      <trkpt lat="51.691430965438485" lon="0.30996797606349">
        <ele>74</ele>
        <time>2018-02-14T09:22:46Z</time>
      </trkpt>
      <trkpt lat="51.691426020115614" lon="0.309998989105225">
        <ele>74</ele>
        <time>2018-02-14T09:22:47Z</time>
      </trkpt>
      <trkpt lat="51.69141998514533" lon="0.310026984661818">
        <ele>74</ele>
        <time>2018-02-14T09:22:48Z</time>
      </trkpt>
      <trkpt lat="51.691414033994079" lon="0.310055986046791">
        <ele>74</ele>
        <time>2018-02-14T09:22:49Z</time>
      </trkpt>
      <trkpt lat="51.691409004852176" lon="0.310088004916906">
        <ele>74</ele>
        <time>2018-02-14T09:22:50Z</time>
      </trkpt>
      <trkpt lat="51.691404981538653" lon="0.31011700630188">
        <ele>74</ele>
        <time>2018-02-14T09:22:51Z</time>
      </trkpt>
      <trkpt lat="51.691395007073879" lon="0.310175009071827">
        <ele>74</ele>
        <time>2018-02-14T09:22:53Z</time>
      </trkpt>
      <trkpt lat="51.691386960446835" lon="0.310229994356632">
        <ele>74</ele>
        <time>2018-02-14T09:22:55Z</time>
      </trkpt>
      <trkpt lat="51.691378997638822" lon="0.310258995741606">
        <ele>74</ele>
        <time>2018-02-14T09:22:56Z</time>
      </trkpt>
      <trkpt lat="51.691373968496919" lon="0.310287997126579">
        <ele>74</ele>
        <time>2018-02-14T09:22:57Z</time>
      </trkpt>
      <trkpt lat="51.691370029002428" lon="0.310320015996695">
        <ele>74</ele>
        <time>2018-02-14T09:22:58Z</time>
      </trkpt>
      <trkpt lat="51.691363994032145" lon="0.31035304069519">
        <ele>74</ele>
        <time>2018-02-14T09:22:59Z</time>
      </trkpt>
      <trkpt lat="51.691357959061861" lon="0.310384975746274">
        <ele>74</ele>
        <time>2018-02-14T09:23:00Z</time>
      </trkpt>
      <trkpt lat="51.691348990425467" lon="0.310439961031079">
        <ele>74</ele>
        <time>2018-02-14T09:23:02Z</time>
      </trkpt>
      <trkpt lat="51.691343039274216" lon="0.310470974072814">
        <ele>74</ele>
        <time>2018-02-14T09:23:03Z</time>
      </trkpt>
      <trkpt lat="51.691338010132313" lon="0.310499975457788">
        <ele>74</ele>
        <time>2018-02-14T09:23:04Z</time>
      </trkpt>
      <trkpt lat="51.69133398681879" lon="0.310529982671142">
        <ele>74</ele>
        <time>2018-02-14T09:23:05Z</time>
      </trkpt>
      <trkpt lat="51.691327029839158" lon="0.310559989884496">
        <ele>74</ele>
        <time>2018-02-14T09:23:06Z</time>
      </trkpt>
      <trkpt lat="51.691323006525636" lon="0.31058999709785">
        <ele>74</ele>
        <time>2018-02-14T09:23:07Z</time>
      </trkpt>
      <trkpt lat="51.691319989040494" lon="0.310618998482823">
        <ele>74</ele>
        <time>2018-02-14T09:23:08Z</time>
      </trkpt>
      <trkpt lat="51.691314037889242" lon="0.310650011524558">
        <ele>74</ele>
        <time>2018-02-14T09:23:09Z</time>
      </trkpt>
      <trkpt lat="51.691309008747339" lon="0.310680018737912">
        <ele>74</ele>
        <time>2018-02-14T09:23:10Z</time>
      </trkpt>
      <trkpt lat="51.691304985433817" lon="0.310709020122886">
        <ele>74.125</ele>
        <time>2018-02-14T09:23:11Z</time>
      </trkpt>
      <trkpt lat="51.691300040110946" lon="0.310741038993001">
        <ele>74.90625</ele>
        <time>2018-02-14T09:23:12Z</time>
      </trkpt>
      <trkpt lat="51.691296016797423" lon="0.310772974044085">
        <ele>75</ele>
        <time>2018-02-14T09:23:13Z</time>
      </trkpt>
      <trkpt lat="51.691292999312282" lon="0.3108049929142">
        <ele>74.831685803360998</ele>
        <time>2018-02-14T09:23:14Z</time>
      </trkpt>
      <trkpt lat="51.69129098765552" lon="0.310838017612696">
        <ele>74</ele>
        <time>2018-02-14T09:23:15Z</time>
      </trkpt>
      <trkpt lat="51.691288975998759" lon="0.310870036482811">
        <ele>74</ele>
        <time>2018-02-14T09:23:16Z</time>
      </trkpt>
      <trkpt lat="51.691282019019127" lon="0.310929967090487">
        <ele>73</ele>
        <time>2018-02-14T09:23:18Z</time>
      </trkpt>
      <trkpt lat="51.691279001533985" lon="0.310961985960603">
        <ele>73</ele>
        <time>2018-02-14T09:23:19Z</time>
      </trkpt>
      <trkpt lat="51.691274978220463" lon="0.310990987345576">
        <ele>73</ele>
        <time>2018-02-14T09:23:20Z</time>
      </trkpt>
      <trkpt lat="51.691270032897592" lon="0.311024012044072">
        <ele>73</ele>
        <time>2018-02-14T09:23:21Z</time>
      </trkpt>
      <trkpt lat="51.691265003755689" lon="0.311057036742568">
        <ele>73</ele>
        <time>2018-02-14T09:23:22Z</time>
      </trkpt>
      <trkpt lat="51.691261986270547" lon="0.311089977622032">
        <ele>73</ele>
        <time>2018-02-14T09:23:23Z</time>
      </trkpt>
      <trkpt lat="51.691257040947676" lon="0.31112601980567">
        <ele>73</ele>
        <time>2018-02-14T09:23:24Z</time>
      </trkpt>
      <trkpt lat="51.691252011805773" lon="0.311158038675785">
        <ele>73</ele>
        <time>2018-02-14T09:23:25Z</time>
      </trkpt>
      <trkpt lat="51.691245976835489" lon="0.311189973726869">
        <ele>73</ele>
        <time>2018-02-14T09:23:26Z</time>
      </trkpt>
      <trkpt lat="51.691239019855857" lon="0.311226015910506">
        <ele>73</ele>
        <time>2018-02-14T09:23:27Z</time>
      </trkpt>
      <trkpt lat="51.691232984885573" lon="0.311259040609002">
        <ele>73</ele>
        <time>2018-02-14T09:23:28Z</time>
      </trkpt>
      <trkpt lat="51.691228039562702" lon="0.311289969831705">
        <ele>73</ele>
        <time>2018-02-14T09:23:29Z</time>
      </trkpt>
      <trkpt lat="51.69122502207756" lon="0.31132198870182">
        <ele>73</ele>
        <time>2018-02-14T09:23:30Z</time>
      </trkpt>
      <trkpt lat="51.691222004592419" lon="0.311356019228697">
        <ele>73</ele>
        <time>2018-02-14T09:23:31Z</time>
      </trkpt>
      <trkpt lat="51.691218987107277" lon="0.311388960108161">
        <ele>73</ele>
        <time>2018-02-14T09:23:32Z</time>
      </trkpt>
      <trkpt lat="51.691214963793755" lon="0.311423996463418">
        <ele>73</ele>
        <time>2018-02-14T09:23:33Z</time>
      </trkpt>
      <trkpt lat="51.691209012642503" lon="0.311455009505153">
        <ele>73</ele>
        <time>2018-02-14T09:23:34Z</time>
      </trkpt>
      <trkpt lat="51.69120498932898" lon="0.311487028375268">
        <ele>72.910003200000006</ele>
        <time>2018-02-14T09:23:35Z</time>
      </trkpt>
      <trkpt lat="51.691199960187078" lon="0.311520975083113">
        <ele>72</ele>
        <time>2018-02-14T09:23:36Z</time>
      </trkpt>
      <trkpt lat="51.691196020692587" lon="0.311552993953228">
        <ele>72</ele>
        <time>2018-02-14T09:23:37Z</time>
      </trkpt>
      <trkpt lat="51.691191997379065" lon="0.311580989509821">
        <ele>72.133338209479206</ele>
        <time>2018-02-14T09:23:38Z</time>
      </trkpt>
      <trkpt lat="51.691185962408781" lon="0.311613008379936">
        <ele>73</ele>
        <time>2018-02-14T09:23:39Z</time>
      </trkpt>
      <trkpt lat="51.691177999600768" lon="0.311645027250052">
        <ele>73</ele>
        <time>2018-02-14T09:23:40Z</time>
      </trkpt>
      <trkpt lat="51.691170958802104" lon="0.311676040291786">
        <ele>73</ele>
        <time>2018-02-14T09:23:41Z</time>
      </trkpt>
      <trkpt lat="51.691165007650852" lon="0.31170898117125">
        <ele>73</ele>
        <time>2018-02-14T09:23:42Z</time>
      </trkpt>
      <trkpt lat="51.691157966852188" lon="0.311741000041366">
        <ele>73</ele>
        <time>2018-02-14T09:23:43Z</time>
      </trkpt>
      <trkpt lat="51.691151009872556" lon="0.311770001426339">
        <ele>73</ele>
        <time>2018-02-14T09:23:44Z</time>
      </trkpt>
      <trkpt lat="51.691140029579401" lon="0.31179497949779">
        <ele>73</ele>
        <time>2018-02-14T09:23:45Z</time>
      </trkpt>
      <trkpt lat="51.691123014315963" lon="0.311840996146202">
        <ele>72.910893975109602</ele>
        <time>2018-02-14T09:23:47Z</time>
      </trkpt>
      <trkpt lat="51.691116979345679" lon="0.311869997531176">
        <ele>72</ele>
        <time>2018-02-14T09:23:48Z</time>
      </trkpt>
      <trkpt lat="51.691110022366047" lon="0.311898998916149">
        <ele>72</ele>
        <time>2018-02-14T09:23:49Z</time>
      </trkpt>
      <trkpt lat="51.691094012930989" lon="0.311961024999619">
        <ele>72</ele>
        <time>2018-02-14T09:23:52Z</time>
      </trkpt>
      <trkpt lat="51.691088983789086" lon="0.311997989192605">
        <ele>72</ele>
        <time>2018-02-14T09:23:54Z</time>
      </trkpt>
      <trkpt lat="51.691084038466215" lon="0.31202900223434">
        <ele>72</ele>
        <time>2018-02-14T09:23:56Z</time>
      </trkpt>
      <trkpt lat="51.691081020981073" lon="0.312064038589597">
        <ele>73</ele>
        <time>2018-02-14T09:23:59Z</time>
      </trkpt>
      <trkpt lat="51.691078003495932" lon="0.312097985297441">
        <ele>73</ele>
        <time>2018-02-14T09:24:01Z</time>
      </trkpt>
      <trkpt lat="51.691070040687919" lon="0.312140984460711">
        <ele>72</ele>
        <time>2018-02-14T09:24:03Z</time>
      </trkpt>
      <trkpt lat="51.691064005717635" lon="0.312167974188924">
        <ele>72</ele>
        <time>2018-02-14T09:24:04Z</time>
      </trkpt>
      <trkpt lat="51.691064005717635" lon="0.312210973352194">
        <ele>72</ele>
        <time>2018-02-14T09:24:06Z</time>
      </trkpt>
      <trkpt lat="51.691070040687919" lon="0.312242992222309">
        <ele>71.961242694555494</ele>
        <time>2018-02-14T09:24:08Z</time>
      </trkpt>
      <trkpt lat="51.691071968525648" lon="0.312269981950521">
        <ele>71</ele>
        <time>2018-02-14T09:24:10Z</time>
      </trkpt>
      <trkpt lat="51.691071968525648" lon="0.312298983335495">
        <ele>72</ele>
        <time>2018-02-14T09:24:56Z</time>
      </trkpt>
      <trkpt lat="51.691080015152693" lon="0.312339970842004">
        <ele>71</ele>
        <time>2018-02-14T09:25:08Z</time>
      </trkpt>
      <trkpt lat="51.691078003495932" lon="0.312370983883739">
        <ele>71</ele>
        <time>2018-02-14T09:25:10Z</time>
      </trkpt>
      <trkpt lat="51.691068029031157" lon="0.31239696778357">
        <ele>71</ele>
        <time>2018-02-14T09:25:12Z</time>
      </trkpt>
      <trkpt lat="51.691061994060874" lon="0.312424963340163">
        <ele>71</ele>
        <time>2018-02-14T09:25:14Z</time>
      </trkpt>
      <trkpt lat="51.691059982404113" lon="0.312456982210279">
        <ele>72</ele>
        <time>2018-02-14T09:25:16Z</time>
      </trkpt>
      <trkpt lat="51.691062999889255" lon="0.312495036050677">
        <ele>72</ele>
        <time>2018-02-14T09:25:18Z</time>
      </trkpt>
      <trkpt lat="51.691062999889255" lon="0.312539041042328">
        <ele>72</ele>
        <time>2018-02-14T09:25:20Z</time>
      </trkpt>
      <trkpt lat="51.691064005717635" lon="0.312582040205598">
        <ele>72</ele>
        <time>2018-02-14T09:25:22Z</time>
      </trkpt>
      <trkpt lat="51.691070040687919" lon="0.312622021883726">
        <ele>72</ele>
        <time>2018-02-14T09:25:24Z</time>
      </trkpt>
      <trkpt lat="51.691073980182409" lon="0.312659991905093">
        <ele>72</ele>
        <time>2018-02-14T09:25:26Z</time>
      </trkpt>
      <trkpt lat="51.69107599183917" lon="0.31269796192646">
        <ele>72</ele>
        <time>2018-02-14T09:25:28Z</time>
      </trkpt>
      <trkpt lat="51.691080015152693" lon="0.312734004110098">
        <ele>72</ele>
        <time>2018-02-14T09:25:30Z</time>
      </trkpt>
      <trkpt lat="51.691079009324312" lon="0.312777003273368">
        <ele>72</ele>
        <time>2018-02-14T09:25:32Z</time>
      </trkpt>
      <trkpt lat="51.691082026809454" lon="0.312818996608257">
        <ele>72</ele>
        <time>2018-02-14T09:25:34Z</time>
      </trkpt>
      <trkpt lat="51.691081020981073" lon="0.312860989943147">
        <ele>72</ele>
        <time>2018-02-14T09:25:36Z</time>
      </trkpt>
      <trkpt lat="51.691082026809454" lon="0.312904994934797">
        <ele>72</ele>
        <time>2018-02-14T09:25:38Z</time>
      </trkpt>
      <trkpt lat="51.691082026809454" lon="0.312945982441306">
        <ele>72.089106024890398</ele>
        <time>2018-02-14T09:25:40Z</time>
      </trkpt>
      <trkpt lat="51.691079009324312" lon="0.312989987432957">
        <ele>73</ele>
        <time>2018-02-14T09:25:42Z</time>
      </trkpt>
      <trkpt lat="51.691081020981073" lon="0.313030974939466">
        <ele>73</ele>
        <time>2018-02-14T09:25:44Z</time>
      </trkpt>
      <trkpt lat="51.691082026809454" lon="0.313069028779864">
        <ele>72</ele>
        <time>2018-02-14T09:25:46Z</time>
      </trkpt>
      <trkpt lat="51.691084960475564" lon="0.313108004629612">
        <ele>72</ele>
        <time>2018-02-14T09:25:48Z</time>
      </trkpt>
      <trkpt lat="51.691082026809454" lon="0.313152009621263">
        <ele>72</ele>
        <time>2018-02-14T09:25:50Z</time>
      </trkpt>
      <trkpt lat="51.691072974354029" lon="0.313182016834617">
        <ele>72</ele>
        <time>2018-02-14T09:25:51Z</time>
      </trkpt>
      <trkpt lat="51.691066017374396" lon="0.313216969370842">
        <ele>72</ele>
        <time>2018-02-14T09:25:52Z</time>
      </trkpt>
      <trkpt lat="51.691059982404113" lon="0.313250999897718">
        <ele>72</ele>
        <time>2018-02-14T09:25:53Z</time>
      </trkpt>
      <trkpt lat="51.691062999889255" lon="0.313283018767834">
        <ele>72</ele>
        <time>2018-02-14T09:25:54Z</time>
      </trkpt>
      <trkpt lat="51.691060988232493" lon="0.313315037637949">
        <ele>72</ele>
        <time>2018-02-14T09:25:55Z</time>
      </trkpt>
      <trkpt lat="51.691065011546016" lon="0.313345966860652">
        <ele>72</ele>
        <time>2018-02-14T09:25:56Z</time>
      </trkpt>
      <trkpt lat="51.69107599183917" lon="0.313370022922754">
        <ele>71.910003200000006</ele>
        <time>2018-02-14T09:25:57Z</time>
      </trkpt>
      <trkpt lat="51.691087977960706" lon="0.313398018479347">
        <ele>71</ele>
        <time>2018-02-14T09:25:58Z</time>
      </trkpt>
      <trkpt lat="51.691098036244512" lon="0.313432971015573">
        <ele>71.079999999999998</ele>
        <time>2018-02-14T09:25:59Z</time>
      </trkpt>
      <trkpt lat="51.691110022366047" lon="0.31346901319921">
        <ele>72</ele>
        <time>2018-02-14T09:26:00Z</time>
      </trkpt>
      <trkpt lat="51.691122008487582" lon="0.313499020412564">
        <ele>71.920791828251296</ele>
        <time>2018-02-14T09:26:01Z</time>
      </trkpt>
      <trkpt lat="51.691135000437498" lon="0.313530033454299">
        <ele>71</ele>
        <time>2018-02-14T09:26:02Z</time>
      </trkpt>
      <trkpt lat="51.691151009872556" lon="0.313558029010892">
        <ele>71</ele>
        <time>2018-02-14T09:26:03Z</time>
      </trkpt>
      <trkpt lat="51.691165007650852" lon="0.313588036224246">
        <ele>71</ele>
        <time>2018-02-14T09:26:04Z</time>
      </trkpt>
      <trkpt lat="51.691180011257529" lon="0.313622988760471">
        <ele>71</ele>
        <time>2018-02-14T09:26:05Z</time>
      </trkpt>
      <trkpt lat="51.691195014864206" lon="0.313657019287348">
        <ele>71</ele>
        <time>2018-02-14T09:26:06Z</time>
      </trkpt>
      <trkpt lat="51.691212030127645" lon="0.313689038157463">
        <ele>71</ele>
        <time>2018-02-14T09:26:07Z</time>
      </trkpt>
      <trkpt lat="51.691228039562702" lon="0.313724996522069">
        <ele>71</ele>
        <time>2018-02-14T09:26:08Z</time>
      </trkpt>
      <trkpt lat="51.691242959350348" lon="0.313756009563804">
        <ele>71</ele>
        <time>2018-02-14T09:26:09Z</time>
      </trkpt>
      <trkpt lat="51.691258968785405" lon="0.313787022605538">
        <ele>71</ele>
        <time>2018-02-14T09:26:10Z</time>
      </trkpt>
      <trkpt lat="51.691271038725972" lon="0.313820969313383">
        <ele>71</ele>
        <time>2018-02-14T09:26:11Z</time>
      </trkpt>
      <trkpt lat="51.691284030675888" lon="0.313850976526737">
        <ele>71</ele>
        <time>2018-02-14T09:26:12Z</time>
      </trkpt>
      <trkpt lat="51.691300040110946" lon="0.31387897208333">
        <ele>71.089106024890398</ele>
        <time>2018-02-14T09:26:13Z</time>
      </trkpt>
      <trkpt lat="51.691317977383733" lon="0.313905039802194">
        <ele>72</ele>
        <time>2018-02-14T09:26:14Z</time>
      </trkpt>
      <trkpt lat="51.691337004303932" lon="0.313928006216884">
        <ele>72</ele>
        <time>2018-02-14T09:26:15Z</time>
      </trkpt>
      <trkpt lat="51.69135301373899" lon="0.313948038965464">
        <ele>72</ele>
        <time>2018-02-14T09:26:16Z</time>
      </trkpt>
      <trkpt lat="51.691369023174047" lon="0.313977962359786">
        <ele>71.928568629755901</ele>
        <time>2018-02-14T09:26:17Z</time>
      </trkpt>
      <trkpt lat="51.691383020952344" lon="0.314017022028565">
        <ele>71</ele>
        <time>2018-02-14T09:26:18Z</time>
      </trkpt>
      <trkpt lat="51.691391989588737" lon="0.314055997878313">
        <ele>71</ele>
        <time>2018-02-14T09:26:19Z</time>
      </trkpt>
      <trkpt lat="51.691400958225131" lon="0.31409396789968">
        <ele>71</ele>
        <time>2018-02-14T09:26:20Z</time>
      </trkpt>
      <trkpt lat="51.691413028165698" lon="0.314127998426557">
        <ele>71</ele>
        <time>2018-02-14T09:26:21Z</time>
      </trkpt>
      <trkpt lat="51.691427025943995" lon="0.314164962619543">
        <ele>71</ele>
        <time>2018-02-14T09:26:22Z</time>
      </trkpt>
      <trkpt lat="51.691456027328968" lon="0.314237968996167">
        <ele>71.84375</ele>
        <time>2018-02-14T09:26:24Z</time>
      </trkpt>
      <trkpt lat="51.691471030935645" lon="0.314269987866282">
        <ele>72</ele>
        <time>2018-02-14T09:26:25Z</time>
      </trkpt>
      <trkpt lat="51.691486034542322" lon="0.314301000908017">
        <ele>72</ele>
        <time>2018-02-14T09:26:26Z</time>
      </trkpt>
      <trkpt lat="51.691500032320619" lon="0.314332013949752">
        <ele>72</ele>
        <time>2018-02-14T09:26:27Z</time>
      </trkpt>
      <trkpt lat="51.691514030098915" lon="0.314364032819867">
        <ele>72</ele>
        <time>2018-02-14T09:26:28Z</time>
      </trkpt>
      <trkpt lat="51.691527022048831" lon="0.314396973699331">
        <ele>72</ele>
        <time>2018-02-14T09:26:29Z</time>
      </trkpt>
      <trkpt lat="51.691539008170366" lon="0.314428992569447">
        <ele>72</ele>
        <time>2018-02-14T09:26:30Z</time>
      </trkpt>
      <trkpt lat="51.691550994291902" lon="0.314461011439562">
        <ele>72</ele>
        <time>2018-02-14T09:26:31Z</time>
      </trkpt>
      <trkpt lat="51.691562980413437" lon="0.314494036138058">
        <ele>72</ele>
        <time>2018-02-14T09:26:32Z</time>
      </trkpt>
      <trkpt lat="51.691577984020114" lon="0.314527982845902">
        <ele>72</ele>
        <time>2018-02-14T09:26:33Z</time>
      </trkpt>
      <trkpt lat="51.691592987626791" lon="0.31456402502954">
        <ele>72</ele>
        <time>2018-02-14T09:26:34Z</time>
      </trkpt>
      <trkpt lat="51.691605979576707" lon="0.314599983394146">
        <ele>72</ele>
        <time>2018-02-14T09:26:35Z</time>
      </trkpt>
      <trkpt lat="51.691616037860513" lon="0.314634013921022">
        <ele>72</ele>
        <time>2018-02-14T09:26:36Z</time>
      </trkpt>
      <trkpt lat="51.691628023982048" lon="0.314671983942389">
        <ele>72</ele>
        <time>2018-02-14T09:26:37Z</time>
      </trkpt>
      <trkpt lat="51.691641015931964" lon="0.314707020297647">
        <ele>72</ele>
        <time>2018-02-14T09:26:38Z</time>
      </trkpt>
      <trkpt lat="51.691653002053499" lon="0.314740967005491">
        <ele>72</ele>
        <time>2018-02-14T09:26:39Z</time>
      </trkpt>
      <trkpt lat="51.691664988175035" lon="0.314776003360748">
        <ele>72</ele>
        <time>2018-02-14T09:26:40Z</time>
      </trkpt>
      <trkpt lat="51.691675968468189" lon="0.314809028059244">
        <ele>72</ele>
        <time>2018-02-14T09:26:41Z</time>
      </trkpt>
      <trkpt lat="51.691696001216769" lon="0.314873987808824">
        <ele>72</ele>
        <time>2018-02-14T09:26:43Z</time>
      </trkpt>
      <trkpt lat="51.691707987338305" lon="0.314901983365417">
        <ele>72</ele>
        <time>2018-02-14T09:26:44Z</time>
      </trkpt>
      <trkpt lat="51.691717961803079" lon="0.314929978922009">
        <ele>72</ele>
        <time>2018-02-14T09:26:45Z</time>
      </trkpt>
      <trkpt lat="51.691735982894897" lon="0.314983958378434">
        <ele>72</ele>
        <time>2018-02-14T09:26:47Z</time>
      </trkpt>
      <trkpt lat="51.6917410120368" lon="0.315017988905311">
        <ele>72</ele>
        <time>2018-02-14T09:26:48Z</time>
      </trkpt>
      <trkpt lat="51.691731037572026" lon="0.3150599822402">
        <ele>72.183668138240904</ele>
        <time>2018-02-14T09:26:50Z</time>
      </trkpt>
      <trkpt lat="51.69171703979373" lon="0.315090995281935">
        <ele>73</ele>
        <time>2018-02-14T09:26:52Z</time>
      </trkpt>
      <trkpt lat="51.691711004823446" lon="0.315125025808811">
        <ele>73</ele>
        <time>2018-02-14T09:26:54Z</time>
      </trkpt>
      <trkpt lat="51.691705975681543" lon="0.315153021365404">
        <ele>72</ele>
        <time>2018-02-14T09:26:56Z</time>
      </trkpt>
      <trkpt lat="51.69169801287353" lon="0.315181016921997">
        <ele>72.115384615384599</ele>
        <time>2018-02-14T09:27:02Z</time>
      </trkpt>
      <trkpt lat="51.691688038408756" lon="0.315204989165068">
        <ele>73</ele>
        <time>2018-02-14T09:27:04Z</time>
      </trkpt>
      <trkpt lat="51.691679991781712" lon="0.31523197889328">
        <ele>73</ele>
        <time>2018-02-14T09:27:06Z</time>
      </trkpt>
      <trkpt lat="51.691662976518273" lon="0.315253017470241">
        <ele>72</ele>
        <time>2018-02-14T09:27:09Z</time>
      </trkpt>
      <trkpt lat="51.691644033417106" lon="0.315259974449873">
        <ele>72</ele>
        <time>2018-02-14T09:27:14Z</time>
      </trkpt>
      <trkpt lat="51.691628023982048" lon="0.315277995541692">
        <ele>73</ele>
        <time>2018-02-14T09:27:17Z</time>
      </trkpt>
      <trkpt lat="51.691608997061849" lon="0.315296016633511">
        <ele>73</ele>
        <time>2018-02-14T09:27:19Z</time>
      </trkpt>
      <trkpt lat="51.691559040918946" lon="0.315306996926665">
        <ele>73</ele>
        <time>2018-02-14T09:27:22Z</time>
      </trkpt>
      <trkpt lat="51.691529033705592" lon="0.315339015796781">
        <ele>72.930690559772898</ele>
        <time>2018-02-14T09:27:24Z</time>
      </trkpt>
      <trkpt lat="51.691515035927296" lon="0.315361982211471">
        <ele>72</ele>
        <time>2018-02-14T09:27:25Z</time>
      </trkpt>
      <trkpt lat="51.691503971815109" lon="0.315384026616812">
        <ele>72</ele>
        <time>2018-02-14T09:27:26Z</time>
      </trkpt>
      <trkpt lat="51.691492991521955" lon="0.315413028001785">
        <ele>72</ele>
        <time>2018-02-14T09:27:27Z</time>
      </trkpt>
      <trkpt lat="51.6914820112288" lon="0.315443035215139">
        <ele>72</ele>
        <time>2018-02-14T09:27:28Z</time>
      </trkpt>
      <trkpt lat="51.691473964601755" lon="0.315470024943352">
        <ele>72.159999999999997</ele>
        <time>2018-02-14T09:27:29Z</time>
      </trkpt>
      <trkpt lat="51.691466001793742" lon="0.315502965822816">
        <ele>74</ele>
        <time>2018-02-14T09:27:30Z</time>
      </trkpt>
      <trkpt lat="51.691458960995078" lon="0.315533978864551">
        <ele>74</ele>
        <time>2018-02-14T09:27:31Z</time>
      </trkpt>
      <trkpt lat="51.691457033157349" lon="0.315563986077905">
        <ele>74</ele>
        <time>2018-02-14T09:27:32Z</time>
      </trkpt>
      <trkpt lat="51.691449992358685" lon="0.315597010776401">
        <ele>74</ele>
        <time>2018-02-14T09:27:33Z</time>
      </trkpt>
      <trkpt lat="51.691442029550672" lon="0.315628023818135">
        <ele>73.910893975109602</ele>
        <time>2018-02-14T09:27:34Z</time>
      </trkpt>
      <trkpt lat="51.691432977095246" lon="0.315656019374728">
        <ele>73</ele>
        <time>2018-02-14T09:27:35Z</time>
      </trkpt>
      <trkpt lat="51.69141897931695" lon="0.315686026588082">
        <ele>72.920000000000002</ele>
        <time>2018-02-14T09:27:36Z</time>
      </trkpt>
      <trkpt lat="51.691404981538653" lon="0.315714022144675">
        <ele>72</ele>
        <time>2018-02-14T09:27:37Z</time>
      </trkpt>
      <trkpt lat="51.691391989588737" lon="0.315739000216126">
        <ele>72</ele>
        <time>2018-02-14T09:27:38Z</time>
      </trkpt>
      <trkpt lat="51.69137698598206" lon="0.315762972459197">
        <ele>71</ele>
        <time>2018-02-14T09:27:39Z</time>
      </trkpt>
      <trkpt lat="51.691361982375383" lon="0.315789040178061">
        <ele>71</ele>
        <time>2018-02-14T09:27:40Z</time>
      </trkpt>
      <trkpt lat="51.691349996253848" lon="0.315809994935989">
        <ele>71</ele>
        <time>2018-02-14T09:27:41Z</time>
      </trkpt>
      <trkpt lat="51.69133398681879" lon="0.315832961350679">
        <ele>71.2075519544033</ele>
        <time>2018-02-14T09:27:42Z</time>
      </trkpt>
      <trkpt lat="51.691320994868875" lon="0.315860034897923">
        <ele>72</ele>
        <time>2018-02-14T09:27:43Z</time>
      </trkpt>
      <trkpt lat="51.691306997090578" lon="0.315888030454516">
        <ele>72</ele>
        <time>2018-02-14T09:27:44Z</time>
      </trkpt>
      <trkpt lat="51.69128998182714" lon="0.315915020182729">
        <ele>72</ele>
        <time>2018-02-14T09:27:45Z</time>
      </trkpt>
      <trkpt lat="51.691272966563702" lon="0.315933041274548">
        <ele>72</ele>
        <time>2018-02-14T09:27:46Z</time>
      </trkpt>
      <trkpt lat="51.691254023462534" lon="0.315956007689238">
        <ele>72</ele>
        <time>2018-02-14T09:27:47Z</time>
      </trkpt>
      <trkpt lat="51.691234996542335" lon="0.31598299741745">
        <ele>72</ele>
        <time>2018-02-14T09:27:48Z</time>
      </trkpt>
      <trkpt lat="51.691219992935658" lon="0.31600596383214">
        <ele>72</ele>
        <time>2018-02-14T09:27:49Z</time>
      </trkpt>
      <trkpt lat="51.691205995157361" lon="0.316030019894242">
        <ele>72</ele>
        <time>2018-02-14T09:27:50Z</time>
      </trkpt>
      <trkpt lat="51.691189985722303" lon="0.316045023500919">
        <ele>72</ele>
        <time>2018-02-14T09:27:51Z</time>
      </trkpt>
      <trkpt lat="51.69116199016571" lon="0.316058015450835">
        <ele>72</ele>
        <time>2018-02-14T09:27:53Z</time>
      </trkpt>
      <trkpt lat="51.691137012094259" lon="0.316062960773706">
        <ele>71.134918780539806</ele>
        <time>2018-02-14T09:27:57Z</time>
      </trkpt>
      <trkpt lat="51.691114967688918" lon="0.316072013229132">
        <ele>71</ele>
        <time>2018-02-14T09:27:59Z</time>
      </trkpt>
      <trkpt lat="51.69109501875937" lon="0.316076036542654">
        <ele>71</ele>
        <time>2018-02-14T09:28:01Z</time>
      </trkpt>
      <trkpt lat="51.69107599183917" lon="0.316076958552003">
        <ele>71</ele>
        <time>2018-02-14T09:28:03Z</time>
      </trkpt>
      <trkpt lat="51.691056964918971" lon="0.316082993522286">
        <ele>71</ele>
        <time>2018-02-14T09:28:06Z</time>
      </trkpt>
      <trkpt lat="51.691040033474565" lon="0.316088022664189">
        <ele>71</ele>
        <time>2018-02-14T09:28:28Z</time>
      </trkpt>
      <trkpt lat="51.69101295992732" lon="0.316087016835809">
        <ele>72</ele>
        <time>2018-02-14T09:28:31Z</time>
      </trkpt>
      <trkpt lat="51.690996028482914" lon="0.316110989078879">
        <ele>72</ele>
        <time>2018-02-14T09:28:34Z</time>
      </trkpt>
      <trkpt lat="51.691002985462546" lon="0.316148959100246">
        <ele>71.969384689732607</ele>
        <time>2018-02-14T09:28:37Z</time>
      </trkpt>
      <trkpt lat="51.691014971584082" lon="0.31617796048522">
        <ele>71</ele>
        <time>2018-02-14T09:28:39Z</time>
      </trkpt>
      <trkpt lat="51.691025029867887" lon="0.316210985183716">
        <ele>71</ele>
        <time>2018-02-14T09:28:41Z</time>
      </trkpt>
      <trkpt lat="51.691033998504281" lon="0.316246021538973">
        <ele>71</ele>
        <time>2018-02-14T09:28:43Z</time>
      </trkpt>
      <trkpt lat="51.691041961312294" lon="0.316282985731959">
        <ele>71</ele>
        <time>2018-02-14T09:28:45Z</time>
      </trkpt>
      <trkpt lat="51.691046990454197" lon="0.316320033743978">
        <ele>71</ele>
        <time>2018-02-14T09:28:47Z</time>
      </trkpt>
      <trkpt lat="51.691049002110958" lon="0.316361021250486">
        <ele>71</ele>
        <time>2018-02-14T09:28:49Z</time>
      </trkpt>
      <trkpt lat="51.691047996282578" lon="0.316403014585376">
        <ele>71.170213924860803</ele>
        <time>2018-02-14T09:28:51Z</time>
      </trkpt>
      <trkpt lat="51.691046990454197" lon="0.316438972949982">
        <ele>72</ele>
        <time>2018-02-14T09:28:53Z</time>
      </trkpt>
      <trkpt lat="51.691050007939339" lon="0.316479038447142">
        <ele>72</ele>
        <time>2018-02-14T09:28:55Z</time>
      </trkpt>
      <trkpt lat="51.691047996282578" lon="0.31652002595365">
        <ele>72</ele>
        <time>2018-02-14T09:28:57Z</time>
      </trkpt>
      <trkpt lat="51.691049002110958" lon="0.316561013460159">
        <ele>71</ele>
        <time>2018-02-14T09:28:59Z</time>
      </trkpt>
      <trkpt lat="51.691050007939339" lon="0.316603006795049">
        <ele>71</ele>
        <time>2018-02-14T09:29:01Z</time>
      </trkpt>
      <trkpt lat="51.691049002110958" lon="0.316638965159655">
        <ele>70</ele>
        <time>2018-02-14T09:29:03Z</time>
      </trkpt>
      <trkpt lat="51.691050007939339" lon="0.316669978201389">
        <ele>69.821777535579898</ele>
        <time>2018-02-14T09:29:05Z</time>
      </trkpt>
      <trkpt lat="51.691050007939339" lon="0.316704008728266">
        <ele>69</ele>
        <time>2018-02-14T09:29:07Z</time>
      </trkpt>
      <trkpt lat="51.691043972969055" lon="0.316738961264491">
        <ele>70</ele>
        <time>2018-02-14T09:29:09Z</time>
      </trkpt>
      <trkpt lat="51.691038021817803" lon="0.316773997619748">
        <ele>70</ele>
        <time>2018-02-14T09:29:11Z</time>
      </trkpt>
      <trkpt lat="51.691043972969055" lon="0.31682001426816">
        <ele>70</ele>
        <time>2018-02-14T09:29:15Z</time>
      </trkpt>
      <trkpt lat="51.691050007939339" lon="0.316847003996372">
        <ele>69.823524244553795</ele>
        <time>2018-02-14T09:29:17Z</time>
      </trkpt>
      <trkpt lat="51.691058976575732" lon="0.316882040351629">
        <ele>69</ele>
        <time>2018-02-14T09:29:20Z</time>
      </trkpt>
      <trkpt lat="51.691064005717635" lon="0.316914981231093">
        <ele>69</ele>
        <time>2018-02-14T09:29:22Z</time>
      </trkpt>
      <trkpt lat="51.691038021817803" lon="0.316919004544616">
        <ele>69</ele>
        <time>2018-02-14T09:29:25Z</time>
      </trkpt>
      <trkpt lat="51.691015977412462" lon="0.316953035071492">
        <ele>69</ele>
        <time>2018-02-14T09:29:29Z</time>
      </trkpt>
      <trkpt lat="51.69101002626121" lon="0.316983964294195">
        <ele>69</ele>
        <time>2018-02-14T09:29:31Z</time>
      </trkpt>
      <trkpt lat="51.690997034311295" lon="0.31701497733593">
        <ele>69</ele>
        <time>2018-02-14T09:29:33Z</time>
      </trkpt>
      <trkpt lat="51.690987981855869" lon="0.317046996206045">
        <ele>69</ele>
        <time>2018-02-14T09:29:35Z</time>
      </trkpt>
      <trkpt lat="51.690987981855869" lon="0.317080020904541">
        <ele>69</ele>
        <time>2018-02-14T09:29:37Z</time>
      </trkpt>
      <trkpt lat="51.690996028482914" lon="0.317112039774656">
        <ele>69</ele>
        <time>2018-02-14T09:29:39Z</time>
      </trkpt>
      <trkpt lat="51.690998040139675" lon="0.31714104115963">
        <ele>69</ele>
        <time>2018-02-14T09:29:41Z</time>
      </trkpt>
      <trkpt lat="51.690997034311295" lon="0.317171970382333">
        <ele>69</ele>
        <time>2018-02-14T09:29:43Z</time>
      </trkpt>
      <trkpt lat="51.69098999351263" lon="0.317212035879493">
        <ele>69</ele>
        <time>2018-02-14T09:29:45Z</time>
      </trkpt>
      <trkpt lat="51.690982030704618" lon="0.317255035042763">
        <ele>69</ele>
        <time>2018-02-14T09:29:47Z</time>
      </trkpt>
      <trkpt lat="51.690975995734334" lon="0.317288981750607">
        <ele>69</ele>
        <time>2018-02-14T09:29:49Z</time>
      </trkpt>
      <trkpt lat="51.690961997956038" lon="0.317319994792342">
        <ele>69</ele>
        <time>2018-02-14T09:29:51Z</time>
      </trkpt>
      <trkpt lat="51.690955962985754" lon="0.31735603697598">
        <ele>69</ele>
        <time>2018-02-14T09:29:53Z</time>
      </trkpt>
      <trkpt lat="51.690954035148025" lon="0.31740196980536">
        <ele>69</ele>
        <time>2018-02-14T09:29:55Z</time>
      </trkpt>
      <trkpt lat="51.690952023491263" lon="0.3174430411309">
        <ele>69</ele>
        <time>2018-02-14T09:29:57Z</time>
      </trkpt>
      <trkpt lat="51.690948000177741" lon="0.317482016980648">
        <ele>69</ele>
        <time>2018-02-14T09:29:59Z</time>
      </trkpt>
      <trkpt lat="51.690942971035838" lon="0.317520992830396">
        <ele>69</ele>
        <time>2018-02-14T09:30:01Z</time>
      </trkpt>
      <trkpt lat="51.69094598852098" lon="0.317560974508524">
        <ele>69</ele>
        <time>2018-02-14T09:30:03Z</time>
      </trkpt>
      <trkpt lat="51.69094598852098" lon="0.317596010863781">
        <ele>69</ele>
        <time>2018-02-14T09:30:05Z</time>
      </trkpt>
      <trkpt lat="51.690948000177741" lon="0.317632975056767">
        <ele>69.070003200000002</ele>
        <time>2018-02-14T09:30:08Z</time>
      </trkpt>
      <trkpt lat="51.690948000177741" lon="0.317669017240405">
        <ele>70</ele>
        <time>2018-02-14T09:30:10Z</time>
      </trkpt>
      <trkpt lat="51.690948000177741" lon="0.317706987261772">
        <ele>70</ele>
        <time>2018-02-14T09:30:12Z</time>
      </trkpt>
      <trkpt lat="51.690949006006122" lon="0.317738000303507">
        <ele>70</ele>
        <time>2018-02-14T09:30:14Z</time>
      </trkpt>
      <trkpt lat="51.690957974642515" lon="0.317761972546577">
        <ele>69</ele>
        <time>2018-02-14T09:30:18Z</time>
      </trkpt>
      <trkpt lat="51.690975995734334" lon="0.317778987810016">
        <ele>70</ele>
        <time>2018-02-14T09:30:21Z</time>
      </trkpt>
      <trkpt lat="51.690992005169392" lon="0.317790973931551">
        <ele>70</ele>
        <time>2018-02-14T09:30:23Z</time>
      </trkpt>
      <trkpt lat="51.691016983240843" lon="0.317802960053086">
        <ele>70</ele>
        <time>2018-02-14T09:30:25Z</time>
      </trkpt>
      <trkpt lat="51.691047996282578" lon="0.317792985588312">
        <ele>70</ele>
        <time>2018-02-14T09:30:27Z</time>
      </trkpt>
      <trkpt lat="51.691069034859538" lon="0.317792985588312">
        <ele>70</ele>
        <time>2018-02-14T09:30:28Z</time>
      </trkpt>
      <trkpt lat="51.691092001274228" lon="0.317800026386976">
        <ele>70</ele>
        <time>2018-02-14T09:30:29Z</time>
      </trkpt>
      <trkpt lat="51.691115973517299" lon="0.31781000085175">
        <ele>70</ele>
        <time>2018-02-14T09:30:30Z</time>
      </trkpt>
      <trkpt lat="51.69113801792264" lon="0.317825004458427">
        <ele>70</ele>
        <time>2018-02-14T09:30:31Z</time>
      </trkpt>
      <trkpt lat="51.691156961023808" lon="0.317840008065104">
        <ele>69.820004096052401</ele>
        <time>2018-02-14T09:30:32Z</time>
      </trkpt>
      <trkpt lat="51.691176993772388" lon="0.317859034985304">
        <ele>69</ele>
        <time>2018-02-14T09:30:33Z</time>
      </trkpt>
      <trkpt lat="51.691196020692587" lon="0.317876972258091">
        <ele>69</ele>
        <time>2018-02-14T09:30:34Z</time>
      </trkpt>
      <trkpt lat="51.691216975450516" lon="0.31789599917829">
        <ele>69</ele>
        <time>2018-02-14T09:30:35Z</time>
      </trkpt>
      <trkpt lat="51.691239019855857" lon="0.31791896559298">
        <ele>69.159999999999997</ele>
        <time>2018-02-14T09:30:36Z</time>
      </trkpt>
      <trkpt lat="51.691266009584069" lon="0.317942015826702">
        <ele>70</ele>
        <time>2018-02-14T09:30:37Z</time>
      </trkpt>
      <trkpt lat="51.691292999312282" lon="0.31795802526176">
        <ele>70</ele>
        <time>2018-02-14T09:30:38Z</time>
      </trkpt>
      <trkpt lat="51.691320994868875" lon="0.317970011383295">
        <ele>70</ele>
        <time>2018-02-14T09:30:39Z</time>
      </trkpt>
      <trkpt lat="51.691346978768706" lon="0.317986020818353">
        <ele>70</ele>
        <time>2018-02-14T09:30:40Z</time>
      </trkpt>
      <trkpt lat="51.691371034830809" lon="0.318005969747901">
        <ele>70</ele>
        <time>2018-02-14T09:30:41Z</time>
      </trkpt>
      <trkpt lat="51.69139601290226" lon="0.318030025810003">
        <ele>70</ele>
        <time>2018-02-14T09:30:42Z</time>
      </trkpt>
      <trkpt lat="51.69141897931695" lon="0.318053998053074">
        <ele>70</ele>
        <time>2018-02-14T09:30:43Z</time>
      </trkpt>
      <trkpt lat="51.691441023722291" lon="0.318073024973273">
        <ele>70</ele>
        <time>2018-02-14T09:30:44Z</time>
      </trkpt>
      <trkpt lat="51.691464995965362" lon="0.318086016923189">
        <ele>70</ele>
        <time>2018-02-14T09:30:45Z</time>
      </trkpt>
      <trkpt lat="51.691487040370703" lon="0.318096997216344">
        <ele>70</ele>
        <time>2018-02-14T09:30:46Z</time>
      </trkpt>
      <trkpt lat="51.691509000957012" lon="0.318113006651402">
        <ele>70.056454193548404</ele>
        <time>2018-02-14T09:30:47Z</time>
      </trkpt>
      <trkpt lat="51.691530961543322" lon="0.31813102774322">
        <ele>70.862905806451593</ele>
        <time>2018-02-14T09:30:48Z</time>
      </trkpt>
      <trkpt lat="51.691572032868862" lon="0.318154999986291">
        <ele>71</ele>
        <time>2018-02-14T09:30:50Z</time>
      </trkpt>
      <trkpt lat="51.69159198179841" lon="0.318162962794304">
        <ele>71</ele>
        <time>2018-02-14T09:30:51Z</time>
      </trkpt>
      <trkpt lat="51.691613020375371" lon="0.318166986107826">
        <ele>71</ele>
        <time>2018-02-14T09:30:52Z</time>
      </trkpt>
      <trkpt lat="51.691631963476539" lon="0.31817302107811">
        <ele>71</ele>
        <time>2018-02-14T09:30:53Z</time>
      </trkpt>
      <trkpt lat="51.691653002053499" lon="0.318175032734871">
        <ele>71</ele>
        <time>2018-02-14T09:30:54Z</time>
      </trkpt>
      <trkpt lat="51.69167404063046" lon="0.318179978057742">
        <ele>71</ele>
        <time>2018-02-14T09:30:55Z</time>
      </trkpt>
      <trkpt lat="51.691693989560008" lon="0.318184001371264">
        <ele>71</ele>
        <time>2018-02-14T09:30:56Z</time>
      </trkpt>
      <trkpt lat="51.691713016480207" lon="0.318191964179277">
        <ele>71</ele>
        <time>2018-02-14T09:30:57Z</time>
      </trkpt>
      <trkpt lat="51.691732965409756" lon="0.318199004977942">
        <ele>71</ele>
        <time>2018-02-14T09:30:58Z</time>
      </trkpt>
      <trkpt lat="51.691750986501575" lon="0.318201016634703">
        <ele>71</ele>
        <time>2018-02-14T09:30:59Z</time>
      </trkpt>
      <trkpt lat="51.691774036735296" lon="0.318203028291464">
        <ele>70.826532744703599</ele>
        <time>2018-02-14T09:31:00Z</time>
      </trkpt>
      <trkpt lat="51.691795997321606" lon="0.318204034119844">
        <ele>70</ele>
        <time>2018-02-14T09:31:01Z</time>
      </trkpt>
      <trkpt lat="51.691818041726947" lon="0.318202022463083">
        <ele>70</ele>
        <time>2018-02-14T09:31:02Z</time>
      </trkpt>
      <trkpt lat="51.691841008141637" lon="0.318202022463083">
        <ele>70</ele>
        <time>2018-02-14T09:31:03Z</time>
      </trkpt>
      <trkpt lat="51.691861962899566" lon="0.318204034119844">
        <ele>70</ele>
        <time>2018-02-14T09:31:04Z</time>
      </trkpt>
      <trkpt lat="51.691884007304907" lon="0.318209985271096">
        <ele>70</ele>
        <time>2018-02-14T09:31:05Z</time>
      </trkpt>
      <trkpt lat="51.691905967891216" lon="0.318213002756238">
        <ele>70</ele>
        <time>2018-02-14T09:31:06Z</time>
      </trkpt>
      <trkpt lat="51.691927006468177" lon="0.318218031898141">
        <ele>70</ele>
        <time>2018-02-14T09:31:07Z</time>
      </trkpt>
      <trkpt lat="51.691947961226106" lon="0.318218031898141">
        <ele>70</ele>
        <time>2018-02-14T09:31:08Z</time>
      </trkpt>
      <trkpt lat="51.691984003409743" lon="0.318220965564251">
        <ele>70</ele>
        <time>2018-02-14T09:31:10Z</time>
      </trkpt>
      <trkpt lat="51.692006969824433" lon="0.318220965564251">
        <ele>70</ele>
        <time>2018-02-14T09:31:11Z</time>
      </trkpt>
      <trkpt lat="51.692029014229774" lon="0.318222977221012">
        <ele>70</ele>
        <time>2018-02-14T09:31:12Z</time>
      </trkpt>
      <trkpt lat="51.692050974816084" lon="0.318219037726521">
        <ele>70</ele>
        <time>2018-02-14T09:31:13Z</time>
      </trkpt>
      <trkpt lat="51.692074025049806" lon="0.318218031898141">
        <ele>70</ele>
        <time>2018-02-14T09:31:14Z</time>
      </trkpt>
      <trkpt lat="51.692095985636115" lon="0.318222977221012">
        <ele>70.070710074472501</ele>
        <time>2018-02-14T09:31:15Z</time>
      </trkpt>
      <trkpt lat="51.692120041698217" lon="0.318233035504818">
        <ele>71</ele>
        <time>2018-02-14T09:31:16Z</time>
      </trkpt>
      <trkpt lat="51.692142002284527" lon="0.318243009969592">
        <ele>71</ele>
        <time>2018-02-14T09:31:17Z</time>
      </trkpt>
      <trkpt lat="51.692161029204726" lon="0.318258013576269">
        <ele>71</ele>
        <time>2018-02-14T09:31:18Z</time>
      </trkpt>
      <trkpt lat="51.692178966477513" lon="0.318267988041043">
        <ele>71</ele>
        <time>2018-02-14T09:31:19Z</time>
      </trkpt>
      <trkpt lat="51.692196987569332" lon="0.318285003304482">
        <ele>71</ele>
        <time>2018-02-14T09:31:20Z</time>
      </trkpt>
      <trkpt lat="51.692215008661151" lon="0.3183030243963">
        <ele>71</ele>
        <time>2018-02-14T09:31:21Z</time>
      </trkpt>
      <trkpt lat="51.692238980904222" lon="0.318328002467752">
        <ele>71</ele>
        <time>2018-02-14T09:31:22Z</time>
      </trkpt>
      <trkpt lat="51.692258007824421" lon="0.318349041044712">
        <ele>71</ele>
        <time>2018-02-14T09:31:23Z</time>
      </trkpt>
      <trkpt lat="51.69227896258235" lon="0.318363960832357">
        <ele>71</ele>
        <time>2018-02-14T09:31:24Z</time>
      </trkpt>
      <trkpt lat="51.69229899533093" lon="0.318380976095796">
        <ele>71</ele>
        <time>2018-02-14T09:31:25Z</time>
      </trkpt>
      <trkpt lat="51.692318022251129" lon="0.318400003015995">
        <ele>71</ele>
        <time>2018-02-14T09:31:26Z</time>
      </trkpt>
      <trkpt lat="51.692338977009058" lon="0.318427998572588">
        <ele>71</ele>
        <time>2018-02-14T09:31:27Z</time>
      </trkpt>
      <trkpt lat="51.692359009757638" lon="0.31845398247242">
        <ele>71</ele>
        <time>2018-02-14T09:31:28Z</time>
      </trkpt>
      <trkpt lat="51.692375019192696" lon="0.318483989685774">
        <ele>71</ele>
        <time>2018-02-14T09:31:29Z</time>
      </trkpt>
      <trkpt lat="51.692392034456134" lon="0.318516008555889">
        <ele>71</ele>
        <time>2018-02-14T09:31:30Z</time>
      </trkpt>
      <trkpt lat="51.692409971728921" lon="0.31854098662734">
        <ele>71</ele>
        <time>2018-02-14T09:31:31Z</time>
      </trkpt>
      <trkpt lat="51.692432016134262" lon="0.318563031032681">
        <ele>71</ele>
        <time>2018-02-14T09:31:32Z</time>
      </trkpt>
      <trkpt lat="51.69245196506381" lon="0.318581974133849">
        <ele>71</ele>
        <time>2018-02-14T09:31:33Z</time>
      </trkpt>
      <trkpt lat="51.69247099198401" lon="0.318602006882429">
        <ele>71</ele>
        <time>2018-02-14T09:31:34Z</time>
      </trkpt>
      <trkpt lat="51.692490018904209" lon="0.318622039631009">
        <ele>71</ele>
        <time>2018-02-14T09:31:35Z</time>
      </trkpt>
      <trkpt lat="51.692509967833757" lon="0.31864701770246">
        <ele>71</ele>
        <time>2018-02-14T09:31:36Z</time>
      </trkpt>
      <trkpt lat="51.692527988925576" lon="0.318677024915814">
        <ele>71</ele>
        <time>2018-02-14T09:31:37Z</time>
      </trkpt>
      <trkpt lat="51.692542992532253" lon="0.318708959966898">
        <ele>71</ele>
        <time>2018-02-14T09:31:38Z</time>
      </trkpt>
      <trkpt lat="51.69255699031055" lon="0.318742990493774">
        <ele>71</ele>
        <time>2018-02-14T09:31:39Z</time>
      </trkpt>
      <trkpt lat="51.692566964775324" lon="0.318780960515141">
        <ele>71</ele>
        <time>2018-02-14T09:31:40Z</time>
      </trkpt>
      <trkpt lat="51.692576017230749" lon="0.318815996870399">
        <ele>71.089996799999994</ele>
        <time>2018-02-14T09:31:41Z</time>
      </trkpt>
      <trkpt lat="51.692580040544271" lon="0.318847009912133">
        <ele>72</ele>
        <time>2018-02-14T09:31:42Z</time>
      </trkpt>
      <trkpt lat="51.692585991695523" lon="0.318880034610629">
        <ele>72</ele>
        <time>2018-02-14T09:31:43Z</time>
      </trkpt>
      <trkpt lat="51.692596971988678" lon="0.318913981318474">
        <ele>72</ele>
        <time>2018-02-14T09:31:44Z</time>
      </trkpt>
      <trkpt lat="51.692606024444103" lon="0.318952035158873">
        <ele>72</ele>
        <time>2018-02-14T09:31:45Z</time>
      </trkpt>
      <trkpt lat="51.692615998908877" lon="0.319029986858368">
        <ele>72</ele>
        <time>2018-02-14T09:31:47Z</time>
      </trkpt>
      <trkpt lat="51.692608958110213" lon="0.319068040698767">
        <ele>72</ele>
        <time>2018-02-14T09:31:48Z</time>
      </trkpt>
      <trkpt lat="51.692604012787342" lon="0.319102993234992">
        <ele>72</ele>
        <time>2018-02-14T09:31:49Z</time>
      </trkpt>
      <trkpt lat="51.692598983645439" lon="0.31913903541863">
        <ele>72</ele>
        <time>2018-02-14T09:31:50Z</time>
      </trkpt>
      <trkpt lat="51.692593032494187" lon="0.319175999611616">
        <ele>72</ele>
        <time>2018-02-14T09:31:51Z</time>
      </trkpt>
      <trkpt lat="51.692586997523904" lon="0.319210030138493">
        <ele>73</ele>
        <time>2018-02-14T09:31:52Z</time>
      </trkpt>
      <trkpt lat="51.692576017230749" lon="0.319244982674718">
        <ele>73</ele>
        <time>2018-02-14T09:31:53Z</time>
      </trkpt>
      <trkpt lat="51.692567970603704" lon="0.319281024858356">
        <ele>72.877360768970703</ele>
        <time>2018-02-14T09:31:54Z</time>
      </trkpt>
      <trkpt lat="51.692559001967311" lon="0.319315977394581">
        <ele>72</ele>
        <time>2018-02-14T09:31:55Z</time>
      </trkpt>
      <trkpt lat="51.692551961168647" lon="0.319347996264696">
        <ele>71.8736846360096</ele>
        <time>2018-02-14T09:31:56Z</time>
      </trkpt>
      <trkpt lat="51.692547015845776" lon="0.319382026791573">
        <ele>71</ele>
        <time>2018-02-14T09:31:57Z</time>
      </trkpt>
      <trkpt lat="51.692539975047112" lon="0.31941999681294">
        <ele>71</ele>
        <time>2018-02-14T09:31:58Z</time>
      </trkpt>
      <trkpt lat="51.692533018067479" lon="0.319452015683055">
        <ele>71.360008191895105</ele>
        <time>2018-02-14T09:31:59Z</time>
      </trkpt>
      <trkpt lat="51.692522959783673" lon="0.31948302872479">
        <ele>73</ele>
        <time>2018-02-14T09:32:00Z</time>
      </trkpt>
      <trkpt lat="51.692511979490519" lon="0.319515969604254">
        <ele>72.811879807875101</ele>
        <time>2018-02-14T09:32:01Z</time>
      </trkpt>
      <trkpt lat="51.692502005025744" lon="0.31954899430275">
        <ele>72</ele>
        <time>2018-02-14T09:32:02Z</time>
      </trkpt>
      <trkpt lat="51.69249102473259" lon="0.319584030658007">
        <ele>72</ele>
        <time>2018-02-14T09:32:03Z</time>
      </trkpt>
      <trkpt lat="51.692478032782674" lon="0.31961495988071">
        <ele>72</ele>
        <time>2018-02-14T09:32:04Z</time>
      </trkpt>
      <trkpt lat="51.692464035004377" lon="0.319643961265683">
        <ele>72</ele>
        <time>2018-02-14T09:32:05Z</time>
      </trkpt>
      <trkpt lat="51.692447019740939" lon="0.319670028984547">
        <ele>72</ele>
        <time>2018-02-14T09:32:06Z</time>
      </trkpt>
      <trkpt lat="51.692425981163979" lon="0.31969802454114">
        <ele>72</ele>
        <time>2018-02-14T09:32:07Z</time>
      </trkpt>
      <trkpt lat="51.692410977557302" lon="0.319726020097733">
        <ele>72</ele>
        <time>2018-02-14T09:32:08Z</time>
      </trkpt>
      <trkpt lat="51.692396979779005" lon="0.319749992340803">
        <ele>71.876193146493407</ele>
        <time>2018-02-14T09:32:09Z</time>
      </trkpt>
      <trkpt lat="51.692381976172328" lon="0.319779999554157">
        <ele>71</ele>
        <time>2018-02-14T09:32:10Z</time>
      </trkpt>
      <trkpt lat="51.692368984222412" lon="0.319813024252653">
        <ele>71</ele>
        <time>2018-02-14T09:32:11Z</time>
      </trkpt>
      <trkpt lat="51.692356998100877" lon="0.319847976788878">
        <ele>71</ele>
        <time>2018-02-14T09:32:12Z</time>
      </trkpt>
      <trkpt lat="51.692340988665819" lon="0.319875972345471">
        <ele>71</ele>
        <time>2018-02-14T09:32:13Z</time>
      </trkpt>
      <trkpt lat="51.692330008372664" lon="0.319907991215587">
        <ele>71</ele>
        <time>2018-02-14T09:32:14Z</time>
      </trkpt>
      <trkpt lat="51.692316010594368" lon="0.319940010085702">
        <ele>71</ele>
        <time>2018-02-14T09:32:15Z</time>
      </trkpt>
      <trkpt lat="51.692301006987691" lon="0.319969011470675">
        <ele>71</ele>
        <time>2018-02-14T09:32:16Z</time>
      </trkpt>
      <trkpt lat="51.692286003381014" lon="0.32000295817852">
        <ele>71</ele>
        <time>2018-02-14T09:32:17Z</time>
      </trkpt>
      <trkpt lat="51.692270999774337" lon="0.320041012018919">
        <ele>71</ele>
        <time>2018-02-14T09:32:18Z</time>
      </trkpt>
      <trkpt lat="51.692260019481182" lon="0.320076970383525">
        <ele>71</ele>
        <time>2018-02-14T09:32:19Z</time>
      </trkpt>
      <trkpt lat="51.692249039188027" lon="0.320111000910401">
        <ele>70.8712898892353</ele>
        <time>2018-02-14T09:32:20Z</time>
      </trkpt>
      <trkpt lat="51.69223596341908" lon="0.320146959275007">
        <ele>70</ele>
        <time>2018-02-14T09:32:21Z</time>
      </trkpt>
      <trkpt lat="51.692223977297544" lon="0.320181995630264">
        <ele>70</ele>
        <time>2018-02-14T09:32:22Z</time>
      </trkpt>
      <trkpt lat="51.692206962034106" lon="0.320223988965154">
        <ele>70</ele>
        <time>2018-02-14T09:32:23Z</time>
      </trkpt>
      <trkpt lat="51.69219397008419" lon="0.320256007835269">
        <ele>70</ele>
        <time>2018-02-14T09:32:24Z</time>
      </trkpt>
      <trkpt lat="51.692178966477513" lon="0.320291966199875">
        <ele>70</ele>
        <time>2018-02-14T09:32:25Z</time>
      </trkpt>
      <trkpt lat="51.692166980355978" lon="0.320324990898371">
        <ele>70</ele>
        <time>2018-02-14T09:32:26Z</time>
      </trkpt>
      <trkpt lat="51.692153988406062" lon="0.320356003940105">
        <ele>70</ele>
        <time>2018-02-14T09:32:27Z</time>
      </trkpt>
      <trkpt lat="51.692143008112907" lon="0.320391040295362">
        <ele>70.072168485504307</ele>
        <time>2018-02-14T09:32:28Z</time>
      </trkpt>
      <trkpt lat="51.692134039476514" lon="0.320426998659968">
        <ele>71</ele>
        <time>2018-02-14T09:32:29Z</time>
      </trkpt>
      <trkpt lat="51.692124987021089" lon="0.320463040843606">
        <ele>71</ele>
        <time>2018-02-14T09:32:30Z</time>
      </trkpt>
      <trkpt lat="51.692117024213076" lon="0.320501010864973">
        <ele>71</ele>
        <time>2018-02-14T09:32:31Z</time>
      </trkpt>
      <trkpt lat="51.69210696592927" lon="0.32053898088634">
        <ele>71</ele>
        <time>2018-02-14T09:32:32Z</time>
      </trkpt>
      <trkpt lat="51.692097997292876" lon="0.320572005584836">
        <ele>71</ele>
        <time>2018-02-14T09:32:33Z</time>
      </trkpt>
      <trkpt lat="51.692086011171341" lon="0.320603018626571">
        <ele>71</ele>
        <time>2018-02-14T09:32:34Z</time>
      </trkpt>
      <trkpt lat="51.692068995907903" lon="0.320635037496686">
        <ele>71</ele>
        <time>2018-02-14T09:32:35Z</time>
      </trkpt>
      <trkpt lat="51.692053992301226" lon="0.32066403888166">
        <ele>71</ele>
        <time>2018-02-14T09:32:36Z</time>
      </trkpt>
      <trkpt lat="51.692039994522929" lon="0.320693962275982">
        <ele>71</ele>
        <time>2018-02-14T09:32:37Z</time>
      </trkpt>
      <trkpt lat="51.692024990916252" lon="0.320720029994845">
        <ele>71</ele>
        <time>2018-02-14T09:32:38Z</time>
      </trkpt>
      <trkpt lat="51.692011998966336" lon="0.320742996409535">
        <ele>71</ele>
        <time>2018-02-14T09:32:39Z</time>
      </trkpt>
      <trkpt lat="51.69199800118804" lon="0.320769986137748">
        <ele>71</ele>
        <time>2018-02-14T09:32:40Z</time>
      </trkpt>
      <trkpt lat="51.691984003409743" lon="0.320794964209199">
        <ele>71</ele>
        <time>2018-02-14T09:32:41Z</time>
      </trkpt>
      <trkpt lat="51.691960031166673" lon="0.320851039141417">
        <ele>71</ele>
        <time>2018-02-14T09:32:43Z</time>
      </trkpt>
      <trkpt lat="51.691946033388376" lon="0.32090300694108">
        <ele>70.886356363636395</ele>
        <time>2018-02-14T09:32:45Z</time>
      </trkpt>
      <trkpt lat="51.691941004246473" lon="0.320933014154434">
        <ele>70</ele>
        <time>2018-02-14T09:32:46Z</time>
      </trkpt>
      <trkpt lat="51.691943015903234" lon="0.320963021367788">
        <ele>70</ele>
        <time>2018-02-14T09:32:47Z</time>
      </trkpt>
      <trkpt lat="51.691948967054486" lon="0.320998979732394">
        <ele>70</ele>
        <time>2018-02-14T09:32:48Z</time>
      </trkpt>
      <trkpt lat="51.691952990368009" lon="0.321035021916032">
        <ele>70</ele>
        <time>2018-02-14T09:32:49Z</time>
      </trkpt>
      <trkpt lat="51.691960031166673" lon="0.321069974452257">
        <ele>70</ele>
        <time>2018-02-14T09:32:50Z</time>
      </trkpt>
      <trkpt lat="51.691970005631447" lon="0.321099981665611">
        <ele>70</ele>
        <time>2018-02-14T09:32:51Z</time>
      </trkpt>
      <trkpt lat="51.691982997581363" lon="0.321128983050585">
        <ele>70</ele>
        <time>2018-02-14T09:32:52Z</time>
      </trkpt>
      <trkpt lat="51.69199800118804" lon="0.321157984435558">
        <ele>70</ele>
        <time>2018-02-14T09:32:53Z</time>
      </trkpt>
      <trkpt lat="51.692011998966336" lon="0.321179023012519">
        <ele>70</ele>
        <time>2018-02-14T09:32:54Z</time>
      </trkpt>
      <trkpt lat="51.692027002573013" lon="0.321200983598828">
        <ele>70</ele>
        <time>2018-02-14T09:32:55Z</time>
      </trkpt>
      <trkpt lat="51.69204100035131" lon="0.321227973327041">
        <ele>70</ele>
        <time>2018-02-14T09:32:56Z</time>
      </trkpt>
      <trkpt lat="51.692053992301226" lon="0.321251023560762">
        <ele>70</ele>
        <time>2018-02-14T09:32:57Z</time>
      </trkpt>
      <trkpt lat="51.692068995907903" lon="0.321279019117355">
        <ele>70</ele>
        <time>2018-02-14T09:32:58Z</time>
      </trkpt>
      <trkpt lat="51.69208399951458" lon="0.321302991360426">
        <ele>70</ele>
        <time>2018-02-14T09:32:59Z</time>
      </trkpt>
      <trkpt lat="51.692103026434779" lon="0.321327969431877">
        <ele>70</ele>
        <time>2018-02-14T09:33:00Z</time>
      </trkpt>
      <trkpt lat="51.692120963707566" lon="0.32135596498847">
        <ele>70</ele>
        <time>2018-02-14T09:33:01Z</time>
      </trkpt>
      <trkpt lat="51.692137978971004" lon="0.32137599773705">
        <ele>70</ele>
        <time>2018-02-14T09:33:02Z</time>
      </trkpt>
      <trkpt lat="51.692157005891204" lon="0.321400975808501">
        <ele>70</ele>
        <time>2018-02-14T09:33:03Z</time>
      </trkpt>
      <trkpt lat="51.692175026983023" lon="0.321421008557081">
        <ele>70</ele>
        <time>2018-02-14T09:33:04Z</time>
      </trkpt>
      <trkpt lat="51.6921900305897" lon="0.321438023820519">
        <ele>70</ele>
        <time>2018-02-14T09:33:05Z</time>
      </trkpt>
      <trkpt lat="51.692206040024757" lon="0.321455039083958">
        <ele>70</ele>
        <time>2018-02-14T09:33:06Z</time>
      </trkpt>
      <trkpt lat="51.692226994782686" lon="0.321473982185125">
        <ele>70</ele>
        <time>2018-02-14T09:33:07Z</time>
      </trkpt>
      <trkpt lat="51.692244010046124" lon="0.321496026590467">
        <ele>70</ele>
        <time>2018-02-14T09:33:08Z</time>
      </trkpt>
      <trkpt lat="51.692259013652802" lon="0.321523016318679">
        <ele>70</ele>
        <time>2018-02-14T09:33:09Z</time>
      </trkpt>
      <trkpt lat="51.692270999774337" lon="0.321549000218511">
        <ele>70</ele>
        <time>2018-02-14T09:33:10Z</time>
      </trkpt>
      <trkpt lat="51.692264964804053" lon="0.321580013260245">
        <ele>70</ele>
        <time>2018-02-14T09:33:13Z</time>
      </trkpt>
      <trkpt lat="51.692259013652802" lon="0.321625024080276">
        <ele>70</ele>
        <time>2018-02-14T09:33:16Z</time>
      </trkpt>
      <trkpt lat="51.692251972854137" lon="0.321679003536701">
        <ele>70</ele>
        <time>2018-02-14T09:33:18Z</time>
      </trkpt>
      <trkpt lat="51.692225988954306" lon="0.321724014356732">
        <ele>70</ele>
        <time>2018-02-14T09:33:20Z</time>
      </trkpt>
      <trkpt lat="51.69221400283277" lon="0.321752009913325">
        <ele>69</ele>
        <time>2018-02-14T09:33:21Z</time>
      </trkpt>
      <trkpt lat="51.692203022539616" lon="0.321784028783441">
        <ele>69</ele>
        <time>2018-02-14T09:33:22Z</time>
      </trkpt>
      <trkpt lat="51.6921900305897" lon="0.321815041825175">
        <ele>69.089996799999994</ele>
        <time>2018-02-14T09:33:23Z</time>
      </trkpt>
      <trkpt lat="51.692177038639784" lon="0.321839014068246">
        <ele>70</ele>
        <time>2018-02-14T09:33:24Z</time>
      </trkpt>
      <trkpt lat="51.692163040861487" lon="0.321864997968078">
        <ele>70</ele>
        <time>2018-02-14T09:33:26Z</time>
      </trkpt>
      <trkpt lat="51.692158011719584" lon="0.321904979646206">
        <ele>70</ele>
        <time>2018-02-14T09:33:29Z</time>
      </trkpt>
      <trkpt lat="51.692151976749301" lon="0.321938004344702">
        <ele>70</ele>
        <time>2018-02-14T09:33:32Z</time>
      </trkpt>
      <trkpt lat="51.692144013941288" lon="0.321964994072914">
        <ele>70</ele>
        <time>2018-02-14T09:33:34Z</time>
      </trkpt>
      <trkpt lat="51.692131021991372" lon="0.321987038478255">
        <ele>70</ele>
        <time>2018-02-14T09:33:37Z</time>
      </trkpt>
      <trkpt lat="51.692124987021089" lon="0.322021991014481">
        <ele>70</ele>
        <time>2018-02-14T09:33:40Z</time>
      </trkpt>
      <trkpt lat="51.692119035869837" lon="0.322054009884596">
        <ele>70</ele>
        <time>2018-02-14T09:33:42Z</time>
      </trkpt>
      <trkpt lat="51.692110989242792" lon="0.322085022926331">
        <ele>70.099003878032093</ele>
        <time>2018-02-14T09:33:44Z</time>
      </trkpt>
      <trkpt lat="51.692103026434779" lon="0.322117041796446">
        <ele>71</ele>
        <time>2018-02-14T09:33:46Z</time>
      </trkpt>
      <trkpt lat="51.692092968150973" lon="0.322150988504291">
        <ele>71</ele>
        <time>2018-02-14T09:33:48Z</time>
      </trkpt>
      <trkpt lat="51.692082993686199" lon="0.322183007374406">
        <ele>71</ele>
        <time>2018-02-14T09:33:50Z</time>
      </trkpt>
      <trkpt lat="51.692073019221425" lon="0.322214020416141">
        <ele>71</ele>
        <time>2018-02-14T09:33:52Z</time>
      </trkpt>
      <trkpt lat="51.692063966766" lon="0.322245033457875">
        <ele>71.099994879934499</ele>
        <time>2018-02-14T09:33:54Z</time>
      </trkpt>
      <trkpt lat="51.692048963159323" lon="0.322274034842849">
        <ele>72</ele>
        <time>2018-02-14T09:33:56Z</time>
      </trkpt>
      <trkpt lat="51.692033959552646" lon="0.322302030399442">
        <ele>72</ele>
        <time>2018-02-14T09:33:58Z</time>
      </trkpt>
      <trkpt lat="51.692023985087872" lon="0.322334971278906">
        <ele>72</ele>
        <time>2018-02-14T09:34:00Z</time>
      </trkpt>
      <trkpt lat="51.692019961774349" lon="0.322366990149021">
        <ele>71.150795424531196</ele>
        <time>2018-02-14T09:34:02Z</time>
      </trkpt>
      <trkpt lat="51.692008981481194" lon="0.322399009019136">
        <ele>71.346934510592703</ele>
        <time>2018-02-14T09:34:04Z</time>
      </trkpt>
      <trkpt lat="51.69199900701642" lon="0.322430022060871">
        <ele>73</ele>
        <time>2018-02-14T09:34:06Z</time>
      </trkpt>
      <trkpt lat="51.691990960389376" lon="0.322461035102606">
        <ele>73</ele>
        <time>2018-02-14T09:34:08Z</time>
      </trkpt>
      <trkpt lat="51.691982997581363" lon="0.322494981810451">
        <ele>73</ele>
        <time>2018-02-14T09:34:10Z</time>
      </trkpt>
      <trkpt lat="51.691973023116589" lon="0.322531023994088">
        <ele>73</ele>
        <time>2018-02-14T09:34:12Z</time>
      </trkpt>
      <trkpt lat="51.691963970661163" lon="0.322567988187075">
        <ele>73</ele>
        <time>2018-02-14T09:34:14Z</time>
      </trkpt>
      <trkpt lat="51.691952990368009" lon="0.322601012885571">
        <ele>73</ele>
        <time>2018-02-14T09:34:16Z</time>
      </trkpt>
      <trkpt lat="51.691942010074854" lon="0.322634037584066">
        <ele>73</ele>
        <time>2018-02-14T09:34:18Z</time>
      </trkpt>
      <trkpt lat="51.69193203561008" lon="0.32266597263515">
        <ele>73</ele>
        <time>2018-02-14T09:34:20Z</time>
      </trkpt>
      <trkpt lat="51.691921977326274" lon="0.322696985676885">
        <ele>73</ele>
        <time>2018-02-14T09:34:22Z</time>
      </trkpt>
      <trkpt lat="51.69191300868988" lon="0.322730010375381">
        <ele>73</ele>
        <time>2018-02-14T09:34:24Z</time>
      </trkpt>
      <trkpt lat="51.691903034225106" lon="0.322761023417115">
        <ele>73</ele>
        <time>2018-02-14T09:34:26Z</time>
      </trkpt>
      <trkpt lat="51.691893981769681" lon="0.32279497012496">
        <ele>73</ele>
        <time>2018-02-14T09:34:28Z</time>
      </trkpt>
      <trkpt lat="51.691886018961668" lon="0.322826988995075">
        <ele>73.1320807119655</ele>
        <time>2018-02-14T09:34:30Z</time>
      </trkpt>
      <trkpt lat="51.691877972334623" lon="0.322864037007093">
        <ele>74</ele>
        <time>2018-02-14T09:34:32Z</time>
      </trkpt>
      <trkpt lat="51.691865986213088" lon="0.322896977886558">
        <ele>74</ele>
        <time>2018-02-14T09:34:34Z</time>
      </trkpt>
      <trkpt lat="51.691856011748314" lon="0.322928996756673">
        <ele>74</ele>
        <time>2018-02-14T09:34:36Z</time>
      </trkpt>
      <trkpt lat="51.691846959292889" lon="0.322963027283549">
        <ele>74</ele>
        <time>2018-02-14T09:34:38Z</time>
      </trkpt>
      <trkpt lat="51.691835978999734" lon="0.323000997304916">
        <ele>74</ele>
        <time>2018-02-14T09:34:40Z</time>
      </trkpt>
      <trkpt lat="51.691820975393057" lon="0.323033016175032">
        <ele>74</ele>
        <time>2018-02-14T09:34:42Z</time>
      </trkpt>
      <trkpt lat="51.691809995099902" lon="0.323064029216766">
        <ele>74</ele>
        <time>2018-02-14T09:34:44Z</time>
      </trkpt>
      <trkpt lat="51.691801026463509" lon="0.323098981752992">
        <ele>74</ele>
        <time>2018-02-14T09:34:46Z</time>
      </trkpt>
      <trkpt lat="51.691790968179703" lon="0.323135023936629">
        <ele>74</ele>
        <time>2018-02-14T09:34:48Z</time>
      </trkpt>
      <trkpt lat="51.69178401120007" lon="0.323171988129616">
        <ele>74</ele>
        <time>2018-02-14T09:34:50Z</time>
      </trkpt>
      <trkpt lat="51.691774958744645" lon="0.323211969807744">
        <ele>74.1896585968707</ele>
        <time>2018-02-14T09:34:52Z</time>
      </trkpt>
      <trkpt lat="51.69176297262311" lon="0.32324600033462">
        <ele>75</ele>
        <time>2018-02-14T09:34:54Z</time>
      </trkpt>
      <trkpt lat="51.691752998158336" lon="0.323281958699226">
        <ele>75</ele>
        <time>2018-02-14T09:34:56Z</time>
      </trkpt>
      <trkpt lat="51.691739000380039" lon="0.323316995054483">
        <ele>75</ele>
        <time>2018-02-14T09:34:58Z</time>
      </trkpt>
      <trkpt lat="51.691734977066517" lon="0.32335203140974">
        <ele>74.782173951613899</ele>
        <time>2018-02-14T09:35:00Z</time>
      </trkpt>
      <trkpt lat="51.691728020086884" lon="0.323385978117585">
        <ele>74.188122576229901</ele>
        <time>2018-02-14T09:35:02Z</time>
      </trkpt>
      <trkpt lat="51.69171997345984" lon="0.323424031957984">
        <ele>75</ele>
        <time>2018-02-14T09:35:04Z</time>
      </trkpt>
      <trkpt lat="51.691712010651827" lon="0.323457978665829">
        <ele>75</ele>
        <time>2018-02-14T09:35:06Z</time>
      </trkpt>
      <trkpt lat="51.691702036187053" lon="0.323488991707563">
        <ele>75</ele>
        <time>2018-02-14T09:35:08Z</time>
      </trkpt>
      <trkpt lat="51.691691977903247" lon="0.323520004749298">
        <ele>75</ele>
        <time>2018-02-14T09:35:10Z</time>
      </trkpt>
      <trkpt lat="51.691684015095234" lon="0.323555963113904">
        <ele>76</ele>
        <time>2018-02-14T09:35:12Z</time>
      </trkpt>
      <trkpt lat="51.691675968468189" lon="0.323592005297542">
        <ele>76</ele>
        <time>2018-02-14T09:35:14Z</time>
      </trkpt>
      <trkpt lat="51.691665994003415" lon="0.323626035824418">
        <ele>76</ele>
        <time>2018-02-14T09:35:16Z</time>
      </trkpt>
      <trkpt lat="51.691657025367022" lon="0.323663000017405">
        <ele>76</ele>
        <time>2018-02-14T09:35:18Z</time>
      </trkpt>
      <trkpt lat="51.691646967083216" lon="0.323698036372662">
        <ele>75.929996799999998</ele>
        <time>2018-02-14T09:35:20Z</time>
      </trkpt>
      <trkpt lat="51.691640010103583" lon="0.323736006394029">
        <ele>75.079208171748704</ele>
        <time>2018-02-14T09:35:22Z</time>
      </trkpt>
      <trkpt lat="51.691630035638809" lon="0.323771964758635">
        <ele>76</ele>
        <time>2018-02-14T09:35:24Z</time>
      </trkpt>
      <trkpt lat="51.691620983183384" lon="0.323805995285511">
        <ele>76</ele>
        <time>2018-02-14T09:35:26Z</time>
      </trkpt>
      <trkpt lat="51.691610002890229" lon="0.323842037469149">
        <ele>76</ele>
        <time>2018-02-14T09:35:28Z</time>
      </trkpt>
      <trkpt lat="51.691602040082216" lon="0.323880007490516">
        <ele>76</ele>
        <time>2018-02-14T09:35:30Z</time>
      </trkpt>
      <trkpt lat="51.691594999283552" lon="0.323913032189012">
        <ele>76</ele>
        <time>2018-02-14T09:35:32Z</time>
      </trkpt>
      <trkpt lat="51.691587036475539" lon="0.323945973068476">
        <ele>76</ele>
        <time>2018-02-14T09:35:34Z</time>
      </trkpt>
      <trkpt lat="51.691576978191733" lon="0.323977991938591">
        <ele>76</ele>
        <time>2018-02-14T09:35:36Z</time>
      </trkpt>
      <trkpt lat="51.691567003726959" lon="0.324010010808706">
        <ele>76.070003200000002</ele>
        <time>2018-02-14T09:35:38Z</time>
      </trkpt>
      <trkpt lat="51.691561974585056" lon="0.324045969173312">
        <ele>77.079208171748704</ele>
        <time>2018-02-14T09:35:40Z</time>
      </trkpt>
      <trkpt lat="51.691550994291902" lon="0.324079999700189">
        <ele>78</ele>
        <time>2018-02-14T09:35:42Z</time>
      </trkpt>
      <trkpt lat="51.691545965149999" lon="0.324117969721556">
        <ele>78</ele>
        <time>2018-02-14T09:35:44Z</time>
      </trkpt>
      <trkpt lat="51.691541019827127" lon="0.324149988591671">
        <ele>77.929289925527499</ele>
        <time>2018-02-14T09:35:46Z</time>
      </trkpt>
      <trkpt lat="51.691530039533973" lon="0.324179995805025">
        <ele>77</ele>
        <time>2018-02-14T09:35:48Z</time>
      </trkpt>
      <trkpt lat="51.691516041755676" lon="0.324210003018379">
        <ele>76.939994368072107</ele>
        <time>2018-02-14T09:35:50Z</time>
      </trkpt>
      <trkpt lat="51.69150497764349" lon="0.324237998574972">
        <ele>76</ele>
        <time>2018-02-14T09:35:52Z</time>
      </trkpt>
      <trkpt lat="51.691495003178716" lon="0.324272029101849">
        <ele>77</ele>
        <time>2018-02-14T09:35:54Z</time>
      </trkpt>
      <trkpt lat="51.691485028713942" lon="0.324307987466455">
        <ele>77</ele>
        <time>2018-02-14T09:35:56Z</time>
      </trkpt>
      <trkpt lat="51.691472036764026" lon="0.324344029650092">
        <ele>77</ele>
        <time>2018-02-14T09:35:58Z</time>
      </trkpt>
      <trkpt lat="51.691466001793742" lon="0.324381999671459">
        <ele>77</ele>
        <time>2018-02-14T09:36:00Z</time>
      </trkpt>
      <trkpt lat="51.691457033157349" lon="0.324414018541574">
        <ele>76</ele>
        <time>2018-02-14T09:36:02Z</time>
      </trkpt>
      <trkpt lat="51.691446974873543" lon="0.32444603741169">
        <ele>76.212117294166305</ele>
        <time>2018-02-14T09:36:04Z</time>
      </trkpt>
      <trkpt lat="51.69143901206553" lon="0.324478978291154">
        <ele>77</ele>
        <time>2018-02-14T09:36:06Z</time>
      </trkpt>
      <trkpt lat="51.691429037600756" lon="0.324514014646411">
        <ele>76.800002438102695</ele>
        <time>2018-02-14T09:36:08Z</time>
      </trkpt>
      <trkpt lat="51.69141998514533" lon="0.324553996324539">
        <ele>76</ele>
        <time>2018-02-14T09:36:10Z</time>
      </trkpt>
      <trkpt lat="51.691414033994079" lon="0.324592972174287">
        <ele>76</ele>
        <time>2018-02-14T09:36:12Z</time>
      </trkpt>
      <trkpt lat="51.691403975710273" lon="0.324625996872783">
        <ele>76</ele>
        <time>2018-02-14T09:36:14Z</time>
      </trkpt>
      <trkpt lat="51.691399030387402" lon="0.324652986600995">
        <ele>77</ele>
        <time>2018-02-14T09:36:26Z</time>
      </trkpt>
      <trkpt lat="51.691392995417118" lon="0.324689028784633">
        <ele>77</ele>
        <time>2018-02-14T09:36:29Z</time>
      </trkpt>
      <trkpt lat="51.691378997638822" lon="0.32474803738296">
        <ele>77</ele>
        <time>2018-02-14T09:36:32Z</time>
      </trkpt>
      <trkpt lat="51.691370029002428" lon="0.32479103654623">
        <ele>77</ele>
        <time>2018-02-14T09:36:34Z</time>
      </trkpt>
      <trkpt lat="51.691362988203764" lon="0.324819032102823">
        <ele>77</ele>
        <time>2018-02-14T09:36:35Z</time>
      </trkpt>
      <trkpt lat="51.691351002082229" lon="0.324849039316177">
        <ele>77</ele>
        <time>2018-02-14T09:36:36Z</time>
      </trkpt>
      <trkpt lat="51.691342033445835" lon="0.32487602904439">
        <ele>77</ele>
        <time>2018-02-14T09:36:37Z</time>
      </trkpt>
      <trkpt lat="51.691326024010777" lon="0.32491902820766">
        <ele>77</ele>
        <time>2018-02-14T09:36:39Z</time>
      </trkpt>
      <trkpt lat="51.691317977383733" lon="0.324949035421014">
        <ele>77</ele>
        <time>2018-02-14T09:36:40Z</time>
      </trkpt>
      <trkpt lat="51.691312026232481" lon="0.324977030977607">
        <ele>77</ele>
        <time>2018-02-14T09:36:41Z</time>
      </trkpt>
      <trkpt lat="51.691298028454185" lon="0.325022963806987">
        <ele>77</ele>
        <time>2018-02-14T09:36:43Z</time>
      </trkpt>
      <trkpt lat="51.691285036504269" lon="0.325064035132527">
        <ele>77</ele>
        <time>2018-02-14T09:36:45Z</time>
      </trkpt>
      <trkpt lat="51.691275984048843" lon="0.325100999325514">
        <ele>76</ele>
        <time>2018-02-14T09:36:47Z</time>
      </trkpt>
      <trkpt lat="51.691260980442166" lon="0.325132012367249">
        <ele>76</ele>
        <time>2018-02-14T09:36:49Z</time>
      </trkpt>
      <trkpt lat="51.691245976835489" lon="0.325167970731854">
        <ele>76</ele>
        <time>2018-02-14T09:36:52Z</time>
      </trkpt>
      <trkpt lat="51.691234996542335" lon="0.325184985995293">
        <ele>78</ele>
        <time>2018-02-14T09:36:58Z</time>
      </trkpt>
      <trkpt lat="51.691227033734322" lon="0.325209964066744">
        <ele>77</ele>
        <time>2018-02-14T09:37:06Z</time>
      </trkpt>
      <trkpt lat="51.691222004592419" lon="0.325250029563904">
        <ele>76</ele>
        <time>2018-02-14T09:37:09Z</time>
      </trkpt>
      <trkpt lat="51.691215969622135" lon="0.325280036777258">
        <ele>76</ele>
        <time>2018-02-14T09:37:11Z</time>
      </trkpt>
      <trkpt lat="51.691205995157361" lon="0.325309038162231">
        <ele>75.115697496059497</ele>
        <time>2018-02-14T09:37:13Z</time>
      </trkpt>
      <trkpt lat="51.691197026520967" lon="0.325338039547205">
        <ele>75</ele>
        <time>2018-02-14T09:37:15Z</time>
      </trkpt>
      <trkpt lat="51.691193003207445" lon="0.325367040932179">
        <ele>75</ele>
        <time>2018-02-14T09:37:17Z</time>
      </trkpt>
      <trkpt lat="51.69118202291429" lon="0.325399981811643">
        <ele>75</ele>
        <time>2018-02-14T09:37:19Z</time>
      </trkpt>
      <trkpt lat="51.691173976287246" lon="0.32543602399528">
        <ele>75</ele>
        <time>2018-02-14T09:37:21Z</time>
      </trkpt>
      <trkpt lat="51.691164001822472" lon="0.325476005673409">
        <ele>75</ele>
        <time>2018-02-14T09:37:23Z</time>
      </trkpt>
      <trkpt lat="51.691155033186078" lon="0.325513975694776">
        <ele>74.864082616692301</ele>
        <time>2018-02-14T09:37:25Z</time>
      </trkpt>
      <trkpt lat="51.691145980730653" lon="0.325538031756878">
        <ele>74</ele>
        <time>2018-02-14T09:37:27Z</time>
      </trkpt>
      <trkpt lat="51.691142963245511" lon="0.325578013435006">
        <ele>74.169806308264498</ele>
        <time>2018-02-14T09:37:30Z</time>
      </trkpt>
      <trkpt lat="51.691129971295595" lon="0.325613971799612">
        <ele>75</ele>
        <time>2018-02-14T09:37:32Z</time>
      </trkpt>
      <trkpt lat="51.69111798517406" lon="0.325637022033334">
        <ele>75</ele>
        <time>2018-02-14T09:37:34Z</time>
      </trkpt>
      <trkpt lat="51.691113039851189" lon="0.32567398622632">
        <ele>75</ele>
        <time>2018-02-14T09:37:36Z</time>
      </trkpt>
      <trkpt lat="51.69111798517406" lon="0.325710028409958">
        <ele>74</ele>
        <time>2018-02-14T09:37:42Z</time>
      </trkpt>
      <trkpt lat="51.691131982952356" lon="0.325722014531493">
        <ele>74.175928888888905</ele>
        <time>2018-02-14T09:37:44Z</time>
      </trkpt>
      <trkpt lat="51.691151009872556" lon="0.325743975117803">
        <ele>75</ele>
        <time>2018-02-14T09:37:46Z</time>
      </trkpt>
      <trkpt lat="51.691177999600768" lon="0.325778005644679">
        <ele>75</ele>
        <time>2018-02-14T09:37:48Z</time>
      </trkpt>
      <trkpt lat="51.691196020692587" lon="0.325798960402608">
        <ele>75</ele>
        <time>2018-02-14T09:37:49Z</time>
      </trkpt>
      <trkpt lat="51.691209012642503" lon="0.325824022293091">
        <ele>75</ele>
        <time>2018-02-14T09:37:50Z</time>
      </trkpt>
      <trkpt lat="51.691214963793755" lon="0.325852017849684">
        <ele>75</ele>
        <time>2018-02-14T09:37:51Z</time>
      </trkpt>
      <trkpt lat="51.691219992935658" lon="0.325910020619631">
        <ele>75</ele>
        <time>2018-02-14T09:37:53Z</time>
      </trkpt>
      <trkpt lat="51.691218987107277" lon="0.325942039489746">
        <ele>75</ele>
        <time>2018-02-14T09:37:54Z</time>
      </trkpt>
      <trkpt lat="51.691214963793755" lon="0.32597397454083">
        <ele>75</ele>
        <time>2018-02-14T09:37:55Z</time>
      </trkpt>
      <trkpt lat="51.691209012642503" lon="0.326008005067706">
        <ele>75.220003583954096</ele>
        <time>2018-02-14T09:37:56Z</time>
      </trkpt>
      <trkpt lat="51.691202977672219" lon="0.326040023937821">
        <ele>76</ele>
        <time>2018-02-14T09:37:57Z</time>
      </trkpt>
      <trkpt lat="51.691199038177729" lon="0.326070031151176">
        <ele>76</ele>
        <time>2018-02-14T09:37:58Z</time>
      </trkpt>
      <trkpt lat="51.691193003207445" lon="0.326101966202259">
        <ele>76</ele>
        <time>2018-02-14T09:37:59Z</time>
      </trkpt>
      <trkpt lat="51.691187974065542" lon="0.326132979243994">
        <ele>75.809523229023199</ele>
        <time>2018-02-14T09:38:00Z</time>
      </trkpt>
      <trkpt lat="51.69118202291429" lon="0.326160974800587">
        <ele>75</ele>
        <time>2018-02-14T09:38:01Z</time>
      </trkpt>
      <trkpt lat="51.691171964630485" lon="0.326186958700418">
        <ele>75</ele>
        <time>2018-02-14T09:38:02Z</time>
      </trkpt>
      <trkpt lat="51.691158972680569" lon="0.326241021975875">
        <ele>75</ele>
        <time>2018-02-14T09:38:04Z</time>
      </trkpt>
      <trkpt lat="51.691154027357697" lon="0.32627203501761">
        <ele>75</ele>
        <time>2018-02-14T09:38:05Z</time>
      </trkpt>
      <trkpt lat="51.691147992387414" lon="0.326302964240313">
        <ele>75</ele>
        <time>2018-02-14T09:38:06Z</time>
      </trkpt>
      <trkpt lat="51.691140029579401" lon="0.326332971453667">
        <ele>75</ele>
        <time>2018-02-14T09:38:07Z</time>
      </trkpt>
      <trkpt lat="51.691132988780737" lon="0.32636197283864">
        <ele>75</ele>
        <time>2018-02-14T09:38:08Z</time>
      </trkpt>
      <trkpt lat="51.691125025972724" lon="0.326388962566853">
        <ele>75</ele>
        <time>2018-02-14T09:38:09Z</time>
      </trkpt>
      <trkpt lat="51.691109016537666" lon="0.326442020013928">
        <ele>75</ele>
        <time>2018-02-14T09:38:11Z</time>
      </trkpt>
      <trkpt lat="51.691099964082241" lon="0.326472027227283">
        <ele>75.212117294166305</ele>
        <time>2018-02-14T09:38:12Z</time>
      </trkpt>
      <trkpt lat="51.691092001274228" lon="0.326502034440637">
        <ele>76</ele>
        <time>2018-02-14T09:38:13Z</time>
      </trkpt>
      <trkpt lat="51.691084038466215" lon="0.32653296366334">
        <ele>76</ele>
        <time>2018-02-14T09:38:14Z</time>
      </trkpt>
      <trkpt lat="51.69107599183917" lon="0.326563976705074">
        <ele>76</ele>
        <time>2018-02-14T09:38:15Z</time>
      </trkpt>
      <trkpt lat="51.691069034859538" lon="0.326591972261667">
        <ele>76</ele>
        <time>2018-02-14T09:38:16Z</time>
      </trkpt>
      <trkpt lat="51.691064005717635" lon="0.326622985303402">
        <ele>76</ele>
        <time>2018-02-14T09:38:17Z</time>
      </trkpt>
      <trkpt lat="51.691054031252861" lon="0.326653998345137">
        <ele>76</ele>
        <time>2018-02-14T09:38:18Z</time>
      </trkpt>
      <trkpt lat="51.691041039302945" lon="0.326680988073349">
        <ele>76</ele>
        <time>2018-02-14T09:38:19Z</time>
      </trkpt>
      <trkpt lat="51.691029975190759" lon="0.326706971973181">
        <ele>76</ele>
        <time>2018-02-14T09:38:20Z</time>
      </trkpt>
      <trkpt lat="51.691017989069223" lon="0.326733039692044">
        <ele>76</ele>
        <time>2018-02-14T09:38:21Z</time>
      </trkpt>
      <trkpt lat="51.691008014604449" lon="0.326758017763495">
        <ele>76</ele>
        <time>2018-02-14T09:38:22Z</time>
      </trkpt>
      <trkpt lat="51.690990999341011" lon="0.326808979734778">
        <ele>76</ele>
        <time>2018-02-14T09:38:24Z</time>
      </trkpt>
      <trkpt lat="51.690982030704618" lon="0.326835969462991">
        <ele>76</ele>
        <time>2018-02-14T09:38:25Z</time>
      </trkpt>
      <trkpt lat="51.690970966592431" lon="0.326860025525093">
        <ele>76</ele>
        <time>2018-02-14T09:38:26Z</time>
      </trkpt>
      <trkpt lat="51.690944982692599" lon="0.326905036345124">
        <ele>77</ele>
        <time>2018-02-14T09:38:28Z</time>
      </trkpt>
      <trkpt lat="51.690931990742683" lon="0.326924985274673">
        <ele>77</ele>
        <time>2018-02-14T09:38:29Z</time>
      </trkpt>
      <trkpt lat="51.690916987136006" lon="0.326948035508394">
        <ele>77</ele>
        <time>2018-02-14T09:38:30Z</time>
      </trkpt>
      <trkpt lat="51.69090298935771" lon="0.326973013579845">
        <ele>77</ele>
        <time>2018-02-14T09:38:31Z</time>
      </trkpt>
      <trkpt lat="51.690889997407794" lon="0.326997991651297">
        <ele>77</ele>
        <time>2018-02-14T09:38:32Z</time>
      </trkpt>
      <trkpt lat="51.690869964659214" lon="0.327048031613231">
        <ele>77</ele>
        <time>2018-02-14T09:38:34Z</time>
      </trkpt>
      <trkpt lat="51.690858984366059" lon="0.327074015513062">
        <ele>77</ele>
        <time>2018-02-14T09:38:35Z</time>
      </trkpt>
      <trkpt lat="51.690843980759382" lon="0.327120032161474">
        <ele>77</ele>
        <time>2018-02-14T09:38:37Z</time>
      </trkpt>
      <trkpt lat="51.690825959667563" lon="0.327167976647615">
        <ele>77</ele>
        <time>2018-02-14T09:38:39Z</time>
      </trkpt>
      <trkpt lat="51.690812967717648" lon="0.327193038538098">
        <ele>77</ele>
        <time>2018-02-14T09:38:40Z</time>
      </trkpt>
      <trkpt lat="51.690799975767732" lon="0.32721801660955">
        <ele>77</ele>
        <time>2018-02-14T09:38:41Z</time>
      </trkpt>
      <trkpt lat="51.690781032666564" lon="0.327265039086342">
        <ele>77</ele>
        <time>2018-02-14T09:38:43Z</time>
      </trkpt>
      <trkpt lat="51.690772986039519" lon="0.327293034642935">
        <ele>77</ele>
        <time>2018-02-14T09:38:44Z</time>
      </trkpt>
      <trkpt lat="51.69075395911932" lon="0.327340979129076">
        <ele>77</ele>
        <time>2018-02-14T09:38:46Z</time>
      </trkpt>
      <trkpt lat="51.690728981047869" lon="0.327371992170811">
        <ele>76</ele>
        <time>2018-02-14T09:38:48Z</time>
      </trkpt>
      <trkpt lat="51.690718000754714" lon="0.327394036576152">
        <ele>76.110003199999994</ele>
        <time>2018-02-14T09:38:49Z</time>
      </trkpt>
      <trkpt lat="51.69070802628994" lon="0.327420020475984">
        <ele>77</ele>
        <time>2018-02-14T09:38:50Z</time>
      </trkpt>
      <trkpt lat="51.690697968006134" lon="0.327442986890674">
        <ele>77</ele>
        <time>2018-02-14T09:38:51Z</time>
      </trkpt>
      <trkpt lat="51.690677013248205" lon="0.327493026852608">
        <ele>77</ele>
        <time>2018-02-14T09:38:53Z</time>
      </trkpt>
      <trkpt lat="51.69066603295505" lon="0.32751901075244">
        <ele>77</ele>
        <time>2018-02-14T09:38:54Z</time>
      </trkpt>
      <trkpt lat="51.690655974671245" lon="0.327544994652271">
        <ele>77</ele>
        <time>2018-02-14T09:38:55Z</time>
      </trkpt>
      <trkpt lat="51.69064600020647" lon="0.327569972723722">
        <ele>77</ele>
        <time>2018-02-14T09:38:56Z</time>
      </trkpt>
      <trkpt lat="51.690633008256555" lon="0.327597968280315">
        <ele>77</ele>
        <time>2018-02-14T09:38:57Z</time>
      </trkpt>
      <trkpt lat="51.690620016306639" lon="0.327621018514037">
        <ele>77</ele>
        <time>2018-02-14T09:38:58Z</time>
      </trkpt>
      <trkpt lat="51.690594032406807" lon="0.327665023505688">
        <ele>77</ele>
        <time>2018-02-14T09:39:00Z</time>
      </trkpt>
      <trkpt lat="51.690571988001466" lon="0.327711040154099">
        <ele>77</ele>
        <time>2018-02-14T09:39:02Z</time>
      </trkpt>
      <trkpt lat="51.690557990223169" lon="0.327736018225551">
        <ele>77</ele>
        <time>2018-02-14T09:39:03Z</time>
      </trkpt>
      <trkpt lat="51.690546004101634" lon="0.32775797881186">
        <ele>77</ele>
        <time>2018-02-14T09:39:04Z</time>
      </trkpt>
      <trkpt lat="51.690534017980099" lon="0.327781029045582">
        <ele>77</ele>
        <time>2018-02-14T09:39:05Z</time>
      </trkpt>
      <trkpt lat="51.690521026030183" lon="0.327808018773794">
        <ele>77</ele>
        <time>2018-02-14T09:39:06Z</time>
      </trkpt>
      <trkpt lat="51.690509961917996" lon="0.327831991016865">
        <ele>77.188120192124899</ele>
        <time>2018-02-14T09:39:07Z</time>
      </trkpt>
      <trkpt lat="51.690498981624842" lon="0.327856969088316">
        <ele>78</ele>
        <time>2018-02-14T09:39:08Z</time>
      </trkpt>
      <trkpt lat="51.690488001331687" lon="0.327882030978799">
        <ele>78</ele>
        <time>2018-02-14T09:39:09Z</time>
      </trkpt>
      <trkpt lat="51.690462017431855" lon="0.327931987121701">
        <ele>78</ele>
        <time>2018-02-14T09:39:11Z</time>
      </trkpt>
      <trkpt lat="51.69045003131032" lon="0.327957971021533">
        <ele>78</ele>
        <time>2018-02-14T09:39:12Z</time>
      </trkpt>
      <trkpt lat="51.69042999856174" lon="0.328005999326706">
        <ele>77.100772963157695</ele>
        <time>2018-02-14T09:39:14Z</time>
      </trkpt>
      <trkpt lat="51.690420024096966" lon="0.328029971569777">
        <ele>77</ele>
        <time>2018-02-14T09:39:15Z</time>
      </trkpt>
      <trkpt lat="51.69040996581316" lon="0.328054027631879">
        <ele>77.168314196639002</ele>
        <time>2018-02-14T09:39:16Z</time>
      </trkpt>
      <trkpt lat="51.690398985520005" lon="0.32807900570333">
        <ele>78</ele>
        <time>2018-02-14T09:39:17Z</time>
      </trkpt>
      <trkpt lat="51.690389011055231" lon="0.328103983774781">
        <ele>78</ele>
        <time>2018-02-14T09:39:18Z</time>
      </trkpt>
      <trkpt lat="51.690379958599806" lon="0.328131979331374">
        <ele>78</ele>
        <time>2018-02-14T09:39:19Z</time>
      </trkpt>
      <trkpt lat="51.690369984135032" lon="0.328162992373109">
        <ele>78</ele>
        <time>2018-02-14T09:39:20Z</time>
      </trkpt>
      <trkpt lat="51.690357998013496" lon="0.328188976272941">
        <ele>78</ele>
        <time>2018-02-14T09:39:21Z</time>
      </trkpt>
      <trkpt lat="51.690346011891961" lon="0.328216971829534">
        <ele>78.183668138240904</ele>
        <time>2018-02-14T09:39:22Z</time>
      </trkpt>
      <trkpt lat="51.690334025770426" lon="0.328249996528029">
        <ele>79</ele>
        <time>2018-02-14T09:39:23Z</time>
      </trkpt>
      <trkpt lat="51.69032396748662" lon="0.328277992084622">
        <ele>79</ele>
        <time>2018-02-14T09:39:24Z</time>
      </trkpt>
      <trkpt lat="51.690313993021846" lon="0.328306993469596">
        <ele>79</ele>
        <time>2018-02-14T09:39:25Z</time>
      </trkpt>
      <trkpt lat="51.690306030213833" lon="0.328341023996472">
        <ele>79</ele>
        <time>2018-02-14T09:39:26Z</time>
      </trkpt>
      <trkpt lat="51.690298989415169" lon="0.328372037038207">
        <ele>79</ele>
        <time>2018-02-14T09:39:27Z</time>
      </trkpt>
      <trkpt lat="51.690283985808492" lon="0.328426016494632">
        <ele>79</ele>
        <time>2018-02-14T09:39:29Z</time>
      </trkpt>
      <trkpt lat="51.690276023000479" lon="0.328455017879605">
        <ele>79</ele>
        <time>2018-02-14T09:39:30Z</time>
      </trkpt>
      <trkpt lat="51.690264036878943" lon="0.328487036749721">
        <ele>79</ele>
        <time>2018-02-14T09:39:31Z</time>
      </trkpt>
      <trkpt lat="51.690255990251899" lon="0.328517965972424">
        <ele>79</ele>
        <time>2018-02-14T09:39:32Z</time>
      </trkpt>
      <trkpt lat="51.690248027443886" lon="0.328545039519668">
        <ele>79</ele>
        <time>2018-02-14T09:39:33Z</time>
      </trkpt>
      <trkpt lat="51.690239980816841" lon="0.32857496291399">
        <ele>79</ele>
        <time>2018-02-14T09:39:34Z</time>
      </trkpt>
      <trkpt lat="51.690225983038545" lon="0.328604970127344">
        <ele>79</ele>
        <time>2018-02-14T09:39:35Z</time>
      </trkpt>
      <trkpt lat="51.690221959725022" lon="0.328634977340698">
        <ele>79</ele>
        <time>2018-02-14T09:39:36Z</time>
      </trkpt>
      <trkpt lat="51.690217014402151" lon="0.328666996210814">
        <ele>79</ele>
        <time>2018-02-14T09:39:37Z</time>
      </trkpt>
      <trkpt lat="51.690210979431868" lon="0.328698009252548">
        <ele>79</ele>
        <time>2018-02-14T09:39:38Z</time>
      </trkpt>
      <trkpt lat="51.690204022452235" lon="0.328727010637522">
        <ele>79</ele>
        <time>2018-02-14T09:39:39Z</time>
      </trkpt>
      <trkpt lat="51.690195975825191" lon="0.328759029507637">
        <ele>79</ele>
        <time>2018-02-14T09:39:40Z</time>
      </trkpt>
      <trkpt lat="51.690189018845558" lon="0.328786019235849">
        <ele>79</ele>
        <time>2018-02-14T09:39:41Z</time>
      </trkpt>
      <trkpt lat="51.690181978046894" lon="0.328814014792442">
        <ele>79</ele>
        <time>2018-02-14T09:39:42Z</time>
      </trkpt>
      <trkpt lat="51.690176026895642" lon="0.328842010349035">
        <ele>79</ele>
        <time>2018-02-14T09:39:43Z</time>
      </trkpt>
      <trkpt lat="51.690164040774107" lon="0.328863970935345">
        <ele>79</ele>
        <time>2018-02-14T09:39:45Z</time>
      </trkpt>
      <trkpt lat="51.690153982490301" lon="0.328899007290602">
        <ele>79</ele>
        <time>2018-02-14T09:39:49Z</time>
      </trkpt>
      <trkpt lat="51.69014903716743" lon="0.328932031989098">
        <ele>79</ele>
        <time>2018-02-14T09:39:51Z</time>
      </trkpt>
      <trkpt lat="51.690137973055243" lon="0.328966984525323">
        <ele>79</ele>
        <time>2018-02-14T09:39:53Z</time>
      </trkpt>
      <trkpt lat="51.690132021903992" lon="0.328999003395438">
        <ele>79</ele>
        <time>2018-02-14T09:39:55Z</time>
      </trkpt>
      <trkpt lat="51.690121963620186" lon="0.329032028093934">
        <ele>79</ele>
        <time>2018-02-14T09:39:57Z</time>
      </trkpt>
      <trkpt lat="51.690111989155412" lon="0.32906798645854">
        <ele>79</ele>
        <time>2018-02-14T09:39:59Z</time>
      </trkpt>
      <trkpt lat="51.690102014690638" lon="0.329108973965049">
        <ele>79</ele>
        <time>2018-02-14T09:40:01Z</time>
      </trkpt>
      <trkpt lat="51.690097991377115" lon="0.329140992835164">
        <ele>79</ele>
        <time>2018-02-14T09:40:03Z</time>
      </trkpt>
      <trkpt lat="51.690092040225863" lon="0.329173011705279">
        <ele>79</ele>
        <time>2018-02-14T09:40:05Z</time>
      </trkpt>
      <trkpt lat="51.690084999427199" lon="0.329206036403775">
        <ele>79</ele>
        <time>2018-02-14T09:40:07Z</time>
      </trkpt>
      <trkpt lat="51.690078964456916" lon="0.329236965626478">
        <ele>79</ele>
        <time>2018-02-14T09:40:09Z</time>
      </trkpt>
      <trkpt lat="51.690074019134045" lon="0.329268984496593">
        <ele>79</ele>
        <time>2018-02-14T09:40:11Z</time>
      </trkpt>
      <trkpt lat="51.690071001648903" lon="0.329299997538328">
        <ele>79</ele>
        <time>2018-02-14T09:40:13Z</time>
      </trkpt>
      <trkpt lat="51.690068989992142" lon="0.329332016408443">
        <ele>79</ele>
        <time>2018-02-14T09:40:15Z</time>
      </trkpt>
      <trkpt lat="51.690069995820522" lon="0.329365963116288">
        <ele>79</ele>
        <time>2018-02-14T09:40:17Z</time>
      </trkpt>
      <trkpt lat="51.690069995820522" lon="0.329398987814784">
        <ele>79</ele>
        <time>2018-02-14T09:40:19Z</time>
      </trkpt>
      <trkpt lat="51.690064966678619" lon="0.329433018341661">
        <ele>79</ele>
        <time>2018-02-14T09:40:21Z</time>
      </trkpt>
      <trkpt lat="51.690054992213845" lon="0.329468976706266">
        <ele>78.879999999999995</ele>
        <time>2018-02-14T09:40:23Z</time>
      </trkpt>
      <trkpt lat="51.690044011920691" lon="0.329505018889904">
        <ele>78</ele>
        <time>2018-02-14T09:40:25Z</time>
      </trkpt>
      <trkpt lat="51.690032025799155" lon="0.329537037760019">
        <ele>78</ele>
        <time>2018-02-14T09:40:27Z</time>
      </trkpt>
      <trkpt lat="51.690045017749071" lon="0.329502001404762">
        <ele>78.110167377178996</ele>
        <time>2018-02-14T09:40:33Z</time>
      </trkpt>
      <trkpt lat="51.690052980557084" lon="0.329468976706266">
        <ele>79</ele>
        <time>2018-02-14T09:40:35Z</time>
      </trkpt>
      <trkpt lat="51.690060021355748" lon="0.329438969492912">
        <ele>79</ele>
        <time>2018-02-14T09:40:37Z</time>
      </trkpt>
      <trkpt lat="51.690073013305664" lon="0.329404016956687">
        <ele>78</ele>
        <time>2018-02-14T09:40:40Z</time>
      </trkpt>
      <trkpt lat="51.69008600525558" lon="0.329384990036488">
        <ele>78</ele>
        <time>2018-02-14T09:40:42Z</time>
      </trkpt>
      <trkpt lat="51.690073013305664" lon="0.329410973936319">
        <ele>79</ele>
        <time>2018-02-14T09:40:48Z</time>
      </trkpt>
      <trkpt lat="51.690057003870606" lon="0.329437963664532">
        <ele>79</ele>
        <time>2018-02-14T09:40:50Z</time>
      </trkpt>
      <trkpt lat="51.690044011920691" lon="0.329470988363028">
        <ele>79</ele>
        <time>2018-02-14T09:40:52Z</time>
      </trkpt>
      <trkpt lat="51.690036971122026" lon="0.329508036375046">
        <ele>79</ele>
        <time>2018-02-14T09:40:54Z</time>
      </trkpt>
      <trkpt lat="51.690029008314013" lon="0.329542988911271">
        <ele>79</ele>
        <time>2018-02-14T09:40:56Z</time>
      </trkpt>
      <trkpt lat="51.690016016364098" lon="0.329579031094909">
        <ele>79</ele>
        <time>2018-02-14T09:40:58Z</time>
      </trkpt>
      <trkpt lat="51.69000000692904" lon="0.329611971974373">
        <ele>79</ele>
        <time>2018-02-14T09:41:00Z</time>
      </trkpt>
      <trkpt lat="51.689989026635885" lon="0.329650025814772">
        <ele>79</ele>
        <time>2018-02-14T09:41:02Z</time>
      </trkpt>
      <trkpt lat="51.689988020807505" lon="0.329694030806422">
        <ele>79</ele>
        <time>2018-02-14T09:41:04Z</time>
      </trkpt>
      <trkpt lat="51.68997997418046" lon="0.329736024141312">
        <ele>79</ele>
        <time>2018-02-14T09:41:06Z</time>
      </trkpt>
      <trkpt lat="51.689963964745402" lon="0.329790003597736">
        <ele>79</ele>
        <time>2018-02-14T09:41:08Z</time>
      </trkpt>
      <trkpt lat="51.689956001937389" lon="0.329824034124613">
        <ele>78.896224022798407</ele>
        <time>2018-02-14T09:41:09Z</time>
      </trkpt>
      <trkpt lat="51.689953990280628" lon="0.32986200414598">
        <ele>78</ele>
        <time>2018-02-14T09:41:10Z</time>
      </trkpt>
      <trkpt lat="51.689952984452248" lon="0.329899974167347">
        <ele>78</ele>
        <time>2018-02-14T09:41:11Z</time>
      </trkpt>
      <trkpt lat="51.689949966967106" lon="0.329938028007746">
        <ele>78</ele>
        <time>2018-02-14T09:41:12Z</time>
      </trkpt>
      <trkpt lat="51.689946027472615" lon="0.329973986372352">
        <ele>78</ele>
        <time>2018-02-14T09:41:13Z</time>
      </trkpt>
      <trkpt lat="51.689938986673951" lon="0.33001103438437">
        <ele>78</ele>
        <time>2018-02-14T09:41:14Z</time>
      </trkpt>
      <trkpt lat="51.689932029694319" lon="0.330046992748976">
        <ele>78</ele>
        <time>2018-02-14T09:41:15Z</time>
      </trkpt>
      <trkpt lat="51.689925994724035" lon="0.330084040760994">
        <ele>79</ele>
        <time>2018-02-14T09:41:16Z</time>
      </trkpt>
      <trkpt lat="51.689919037744403" lon="0.330122010782361">
        <ele>79</ele>
        <time>2018-02-14T09:41:17Z</time>
      </trkpt>
      <trkpt lat="51.689911996945739" lon="0.330157969146967">
        <ele>79</ele>
        <time>2018-02-14T09:41:18Z</time>
      </trkpt>
      <trkpt lat="51.689904034137726" lon="0.330191999673843">
        <ele>79</ele>
        <time>2018-02-14T09:41:19Z</time>
      </trkpt>
      <trkpt lat="51.689897999167442" lon="0.330228041857481">
        <ele>79</ele>
        <time>2018-02-14T09:41:20Z</time>
      </trkpt>
      <trkpt lat="51.689891964197159" lon="0.330264000222087">
        <ele>79</ele>
        <time>2018-02-14T09:41:21Z</time>
      </trkpt>
      <trkpt lat="51.689884001389146" lon="0.330300964415073">
        <ele>79</ele>
        <time>2018-02-14T09:41:22Z</time>
      </trkpt>
      <trkpt lat="51.689876038581133" lon="0.330338012427092">
        <ele>79</ele>
        <time>2018-02-14T09:41:23Z</time>
      </trkpt>
      <trkpt lat="51.689868997782469" lon="0.330371959134936">
        <ele>79</ele>
        <time>2018-02-14T09:41:24Z</time>
      </trkpt>
      <trkpt lat="51.689860029146075" lon="0.330403978005052">
        <ele>79</ele>
        <time>2018-02-14T09:41:25Z</time>
      </trkpt>
      <trkpt lat="51.689852988347411" lon="0.330435996875167">
        <ele>79</ele>
        <time>2018-02-14T09:41:26Z</time>
      </trkpt>
      <trkpt lat="51.689847959205508" lon="0.330467009916902">
        <ele>79</ele>
        <time>2018-02-14T09:41:27Z</time>
      </trkpt>
      <trkpt lat="51.689841002225876" lon="0.330500034615397">
        <ele>79</ele>
        <time>2018-02-14T09:41:28Z</time>
      </trkpt>
      <trkpt lat="51.689833039417863" lon="0.330531969666481">
        <ele>79</ele>
        <time>2018-02-14T09:41:29Z</time>
      </trkpt>
      <trkpt lat="51.689823986962438" lon="0.330563988536596">
        <ele>79</ele>
        <time>2018-02-14T09:41:30Z</time>
      </trkpt>
      <trkpt lat="51.689815018326044" lon="0.330598019063473">
        <ele>79</ele>
        <time>2018-02-14T09:41:31Z</time>
      </trkpt>
      <trkpt lat="51.689806971698999" lon="0.330631965771317">
        <ele>79</ele>
        <time>2018-02-14T09:41:32Z</time>
      </trkpt>
      <trkpt lat="51.689802026376128" lon="0.330663984641433">
        <ele>79</ele>
        <time>2018-02-14T09:41:33Z</time>
      </trkpt>
      <trkpt lat="51.689794985577464" lon="0.330696003511548">
        <ele>79</ele>
        <time>2018-02-14T09:41:34Z</time>
      </trkpt>
      <trkpt lat="51.689786016941071" lon="0.330730034038424">
        <ele>79</ele>
        <time>2018-02-14T09:41:35Z</time>
      </trkpt>
      <trkpt lat="51.689779981970787" lon="0.330760041251779">
        <ele>79</ele>
        <time>2018-02-14T09:41:36Z</time>
      </trkpt>
      <trkpt lat="51.689774030819535" lon="0.330794993788004">
        <ele>79</ele>
        <time>2018-02-14T09:41:37Z</time>
      </trkpt>
      <trkpt lat="51.689766990020871" lon="0.330830030143261">
        <ele>79</ele>
        <time>2018-02-14T09:41:38Z</time>
      </trkpt>
      <trkpt lat="51.689760033041239" lon="0.330864982679486">
        <ele>79</ele>
        <time>2018-02-14T09:41:39Z</time>
      </trkpt>
      <trkpt lat="51.689751986414194" lon="0.330900019034743">
        <ele>79</ele>
        <time>2018-02-14T09:41:40Z</time>
      </trkpt>
      <trkpt lat="51.689746035262942" lon="0.330933965742588">
        <ele>79</ele>
        <time>2018-02-14T09:41:41Z</time>
      </trkpt>
      <trkpt lat="51.689741006121039" lon="0.330966990441084">
        <ele>79</ele>
        <time>2018-02-14T09:41:42Z</time>
      </trkpt>
      <trkpt lat="51.689734971150756" lon="0.331004038453102">
        <ele>79</ele>
        <time>2018-02-14T09:41:43Z</time>
      </trkpt>
      <trkpt lat="51.689730025827885" lon="0.331037985160947">
        <ele>79</ele>
        <time>2018-02-14T09:41:44Z</time>
      </trkpt>
      <trkpt lat="51.68972197920084" lon="0.331074027344584">
        <ele>79</ele>
        <time>2018-02-14T09:41:45Z</time>
      </trkpt>
      <trkpt lat="51.689715022221208" lon="0.33110998570919">
        <ele>79</ele>
        <time>2018-02-14T09:41:46Z</time>
      </trkpt>
      <trkpt lat="51.689708987250924" lon="0.331144016236067">
        <ele>79</ele>
        <time>2018-02-14T09:41:47Z</time>
      </trkpt>
      <trkpt lat="51.689702030271292" lon="0.331178968772292">
        <ele>79</ele>
        <time>2018-02-14T09:41:48Z</time>
      </trkpt>
      <trkpt lat="51.689695995301008" lon="0.331211993470788">
        <ele>79</ele>
        <time>2018-02-14T09:41:49Z</time>
      </trkpt>
      <trkpt lat="51.689689960330725" lon="0.331246023997664">
        <ele>79</ele>
        <time>2018-02-14T09:41:50Z</time>
      </trkpt>
      <trkpt lat="51.689685015007854" lon="0.331277959048748">
        <ele>79</ele>
        <time>2018-02-14T09:41:51Z</time>
      </trkpt>
      <trkpt lat="51.689679985865951" lon="0.331306038424373">
        <ele>79</ele>
        <time>2018-02-14T09:41:52Z</time>
      </trkpt>
      <trkpt lat="51.689674034714699" lon="0.331339985132217">
        <ele>79</ele>
        <time>2018-02-14T09:41:53Z</time>
      </trkpt>
      <trkpt lat="51.689667999744415" lon="0.331372004002333">
        <ele>79</ele>
        <time>2018-02-14T09:41:54Z</time>
      </trkpt>
      <trkpt lat="51.689660958945751" lon="0.331406034529209">
        <ele>79</ele>
        <time>2018-02-14T09:41:55Z</time>
      </trkpt>
      <trkpt lat="51.689652996137738" lon="0.331444004550576">
        <ele>79</ele>
        <time>2018-02-14T09:41:56Z</time>
      </trkpt>
      <trkpt lat="51.689646039158106" lon="0.331478035077453">
        <ele>79.135917383307699</ele>
        <time>2018-02-14T09:41:57Z</time>
      </trkpt>
      <trkpt lat="51.689638998359442" lon="0.331510975956917">
        <ele>80</ele>
        <time>2018-02-14T09:41:58Z</time>
      </trkpt>
      <trkpt lat="51.689631035551429" lon="0.331546012312174">
        <ele>80</ele>
        <time>2018-02-14T09:41:59Z</time>
      </trkpt>
      <trkpt lat="51.689622988924384" lon="0.331578031182289">
        <ele>80</ele>
        <time>2018-02-14T09:42:00Z</time>
      </trkpt>
      <trkpt lat="51.689616031944752" lon="0.331613989546895">
        <ele>79.814161597625798</ele>
        <time>2018-02-14T09:42:01Z</time>
      </trkpt>
      <trkpt lat="51.689609996974468" lon="0.331647014245391">
        <ele>79</ele>
        <time>2018-02-14T09:42:02Z</time>
      </trkpt>
      <trkpt lat="51.689603039994836" lon="0.331680038943887">
        <ele>79</ele>
        <time>2018-02-14T09:42:03Z</time>
      </trkpt>
      <trkpt lat="51.689595999196172" lon="0.331714991480112">
        <ele>79</ele>
        <time>2018-02-14T09:42:04Z</time>
      </trkpt>
      <trkpt lat="51.689588958397508" lon="0.331746004521847">
        <ele>79</ele>
        <time>2018-02-14T09:42:05Z</time>
      </trkpt>
      <trkpt lat="51.689580995589495" lon="0.331779029220343">
        <ele>79</ele>
        <time>2018-02-14T09:42:06Z</time>
      </trkpt>
      <trkpt lat="51.689572026953101" lon="0.331809958443046">
        <ele>79.079999999999998</ele>
        <time>2018-02-14T09:42:07Z</time>
      </trkpt>
      <trkpt lat="51.689562974497676" lon="0.331841977313161">
        <ele>80</ele>
        <time>2018-02-14T09:42:08Z</time>
      </trkpt>
      <trkpt lat="51.689553000032902" lon="0.331873996183276">
        <ele>80</ele>
        <time>2018-02-14T09:42:09Z</time>
      </trkpt>
      <trkpt lat="51.689545037224889" lon="0.331900985911489">
        <ele>80</ele>
        <time>2018-02-14T09:42:10Z</time>
      </trkpt>
      <trkpt lat="51.689536990597844" lon="0.331930993124843">
        <ele>80</ele>
        <time>2018-02-14T09:42:11Z</time>
      </trkpt>
      <trkpt lat="51.689526010304689" lon="0.331962006166577">
        <ele>80</ele>
        <time>2018-02-14T09:42:12Z</time>
      </trkpt>
      <trkpt lat="51.689517041668296" lon="0.33199000172317">
        <ele>81</ele>
        <time>2018-02-14T09:42:13Z</time>
      </trkpt>
      <trkpt lat="51.689508995041251" lon="0.332017997279763">
        <ele>81</ele>
        <time>2018-02-14T09:42:14Z</time>
      </trkpt>
      <trkpt lat="51.689502960070968" lon="0.332050016149879">
        <ele>81</ele>
        <time>2018-02-14T09:42:15Z</time>
      </trkpt>
      <trkpt lat="51.689499020576477" lon="0.332083040848374">
        <ele>81</ele>
        <time>2018-02-14T09:42:16Z</time>
      </trkpt>
      <trkpt lat="51.689502960070968" lon="0.332110030576587">
        <ele>80</ele>
        <time>2018-02-14T09:42:21Z</time>
      </trkpt>
      <trkpt lat="51.689517041668296" lon="0.332134002819657">
        <ele>80</ele>
        <time>2018-02-14T09:42:25Z</time>
      </trkpt>
      <trkpt lat="51.689517041668296" lon="0.332136014476419">
        <ele>85</ele>
        <time>2018-02-14T09:42:31Z</time>
      </trkpt>
      <trkpt lat="51.689517963677645" lon="0.332171972841024">
        <ele>81</ele>
        <time>2018-02-14T09:42:38Z</time>
      </trkpt>
      <trkpt lat="51.689530033618212" lon="0.332206003367901">
        <ele>80</ele>
        <time>2018-02-14T09:42:41Z</time>
      </trkpt>
      <trkpt lat="51.689534978941083" lon="0.332240033894777">
        <ele>80</ele>
        <time>2018-02-14T09:42:43Z</time>
      </trkpt>
      <trkpt lat="51.689540008082986" lon="0.33226802945137">
        <ele>80</ele>
        <time>2018-02-14T09:42:45Z</time>
      </trkpt>
      <trkpt lat="51.689554005861282" lon="0.332293007522821">
        <ele>80</ele>
        <time>2018-02-14T09:42:47Z</time>
      </trkpt>
      <trkpt lat="51.689564986154437" lon="0.332327038049698">
        <ele>80</ele>
        <time>2018-02-14T09:42:49Z</time>
      </trkpt>
      <trkpt lat="51.689572026953101" lon="0.332360984757543">
        <ele>80</ele>
        <time>2018-02-14T09:42:51Z</time>
      </trkpt>
      <trkpt lat="51.689578983932734" lon="0.332387974485755">
        <ele>80.180004095947595</ele>
        <time>2018-02-14T09:42:53Z</time>
      </trkpt>
      <trkpt lat="51.689587030559778" lon="0.33241999335587">
        <ele>81</ele>
        <time>2018-02-14T09:42:55Z</time>
      </trkpt>
      <trkpt lat="51.689591975882649" lon="0.332457041367888">
        <ele>81</ele>
        <time>2018-02-14T09:42:58Z</time>
      </trkpt>
      <trkpt lat="51.689603962004185" lon="0.332489982247353">
        <ele>81</ele>
        <time>2018-02-14T09:43:01Z</time>
      </trkpt>
      <trkpt lat="51.689607985317707" lon="0.33252501860261">
        <ele>81</ele>
        <time>2018-02-14T09:43:04Z</time>
      </trkpt>
      <trkpt lat="51.689609996974468" lon="0.332561982795596">
        <ele>81</ele>
        <time>2018-02-14T09:43:07Z</time>
      </trkpt>
      <trkpt lat="51.689626006409526" lon="0.332581009715796">
        <ele>80</ele>
        <time>2018-02-14T09:43:14Z</time>
      </trkpt>
      <trkpt lat="51.689647966995835" lon="0.332604981958866">
        <ele>80</ele>
        <time>2018-02-14T09:43:16Z</time>
      </trkpt>
      <trkpt lat="51.689674034714699" lon="0.332649992778897">
        <ele>80</ele>
        <time>2018-02-14T09:43:18Z</time>
      </trkpt>
      <trkpt lat="51.689686020836234" lon="0.33267698250711">
        <ele>79.910003200000006</ele>
        <time>2018-02-14T09:43:19Z</time>
      </trkpt>
      <trkpt lat="51.689698006957769" lon="0.332706989720464">
        <ele>79</ele>
        <time>2018-02-14T09:43:20Z</time>
      </trkpt>
      <trkpt lat="51.689709993079305" lon="0.332734985277057">
        <ele>79.113643636363605</ele>
        <time>2018-02-14T09:43:21Z</time>
      </trkpt>
      <trkpt lat="51.68972197920084" lon="0.33276398666203">
        <ele>80</ele>
        <time>2018-02-14T09:43:22Z</time>
      </trkpt>
      <trkpt lat="51.689733965322375" lon="0.332798017188907">
        <ele>80</ele>
        <time>2018-02-14T09:43:23Z</time>
      </trkpt>
      <trkpt lat="51.689746035262942" lon="0.332829030230641">
        <ele>80</ele>
        <time>2018-02-14T09:43:24Z</time>
      </trkpt>
      <trkpt lat="51.689756009727716" lon="0.332859037443995">
        <ele>80</ele>
        <time>2018-02-14T09:43:25Z</time>
      </trkpt>
      <trkpt lat="51.689763972535729" lon="0.332890972495079">
        <ele>80</ele>
        <time>2018-02-14T09:43:26Z</time>
      </trkpt>
      <trkpt lat="51.689774030819535" lon="0.332921985536814">
        <ele>80.142858517712995</ele>
        <time>2018-02-14T09:43:27Z</time>
      </trkpt>
      <trkpt lat="51.689784005284309" lon="0.332954004406929">
        <ele>80.894732789898697</ele>
        <time>2018-02-14T09:43:28Z</time>
      </trkpt>
      <trkpt lat="51.689793979749084" lon="0.332988034933805">
        <ele>81</ele>
        <time>2018-02-14T09:43:29Z</time>
      </trkpt>
      <trkpt lat="51.689805965870619" lon="0.333018964156508">
        <ele>81</ele>
        <time>2018-02-14T09:43:30Z</time>
      </trkpt>
      <trkpt lat="51.689815018326044" lon="0.333046959713101">
        <ele>81</ele>
        <time>2018-02-14T09:43:31Z</time>
      </trkpt>
      <trkpt lat="51.68982801027596" lon="0.333077972754836">
        <ele>81</ele>
        <time>2018-02-14T09:43:32Z</time>
      </trkpt>
      <trkpt lat="51.689839996397495" lon="0.33310697413981">
        <ele>81</ele>
        <time>2018-02-14T09:43:33Z</time>
      </trkpt>
      <trkpt lat="51.68985097669065" lon="0.333133041858673">
        <ele>81</ele>
        <time>2018-02-14T09:43:34Z</time>
      </trkpt>
      <trkpt lat="51.689862040802836" lon="0.333162965252995">
        <ele>81</ele>
        <time>2018-02-14T09:43:35Z</time>
      </trkpt>
      <trkpt lat="51.68987100943923" lon="0.333191966637969">
        <ele>81</ele>
        <time>2018-02-14T09:43:36Z</time>
      </trkpt>
      <trkpt lat="51.689879978075624" lon="0.333219040185213">
        <ele>81</ele>
        <time>2018-02-14T09:43:37Z</time>
      </trkpt>
      <trkpt lat="51.689890036359429" lon="0.333250975236297">
        <ele>81</ele>
        <time>2018-02-14T09:43:38Z</time>
      </trkpt>
      <trkpt lat="51.689897999167442" lon="0.33327997662127">
        <ele>81</ele>
        <time>2018-02-14T09:43:39Z</time>
      </trkpt>
      <trkpt lat="51.689905961975455" lon="0.333305960521102">
        <ele>81</ele>
        <time>2018-02-14T09:43:40Z</time>
      </trkpt>
      <trkpt lat="51.689916020259261" lon="0.333333034068346">
        <ele>81</ele>
        <time>2018-02-14T09:43:41Z</time>
      </trkpt>
      <trkpt lat="51.689933035522699" lon="0.333381984382868">
        <ele>81</ele>
        <time>2018-02-14T09:43:43Z</time>
      </trkpt>
      <trkpt lat="51.689946027472615" lon="0.33340897411108">
        <ele>81</ele>
        <time>2018-02-14T09:43:44Z</time>
      </trkpt>
      <trkpt lat="51.689956001937389" lon="0.333435963839293">
        <ele>81</ele>
        <time>2018-02-14T09:43:45Z</time>
      </trkpt>
      <trkpt lat="51.689964970573783" lon="0.33349203877151">
        <ele>81</ele>
        <time>2018-02-14T09:43:47Z</time>
      </trkpt>
      <trkpt lat="51.689972011372447" lon="0.333520034328103">
        <ele>81</ele>
        <time>2018-02-14T09:43:48Z</time>
      </trkpt>
      <trkpt lat="51.689993971958756" lon="0.333565967157483">
        <ele>81</ele>
        <time>2018-02-14T09:43:50Z</time>
      </trkpt>
      <trkpt lat="51.690003024414182" lon="0.333592034876347">
        <ele>81</ele>
        <time>2018-02-14T09:43:51Z</time>
      </trkpt>
      <trkpt lat="51.690011993050575" lon="0.333618018776178">
        <ele>81</ele>
        <time>2018-02-14T09:43:52Z</time>
      </trkpt>
      <trkpt lat="51.690021967515349" lon="0.333645008504391">
        <ele>81</ele>
        <time>2018-02-14T09:43:53Z</time>
      </trkpt>
      <trkpt lat="51.690030014142394" lon="0.333676021546125">
        <ele>81</ele>
        <time>2018-02-14T09:43:54Z</time>
      </trkpt>
      <trkpt lat="51.690036971122026" lon="0.33370703458786">
        <ele>81</ele>
        <time>2018-02-14T09:43:55Z</time>
      </trkpt>
      <trkpt lat="51.690049963071942" lon="0.333761014044285">
        <ele>81.484846917666502</ele>
        <time>2018-02-14T09:43:57Z</time>
      </trkpt>
      <trkpt lat="51.690062033012509" lon="0.333788003772497">
        <ele>85</ele>
        <time>2018-02-14T09:43:58Z</time>
      </trkpt>
      <trkpt lat="51.690071001648903" lon="0.333812981843948">
        <ele>85</ele>
        <time>2018-02-14T09:43:59Z</time>
      </trkpt>
      <trkpt lat="51.690091034397483" lon="0.333865033462644">
        <ele>85.070003200000002</ele>
        <time>2018-02-14T09:44:01Z</time>
      </trkpt>
      <trkpt lat="51.690103020519018" lon="0.333889005705714">
        <ele>86</ele>
        <time>2018-02-14T09:44:02Z</time>
      </trkpt>
      <trkpt lat="51.690126992762089" lon="0.333928987383842">
        <ele>86</ele>
        <time>2018-02-14T09:44:04Z</time>
      </trkpt>
      <trkpt lat="51.690140990540385" lon="0.333953965455294">
        <ele>85.921255001562201</ele>
        <time>2018-02-14T09:44:05Z</time>
      </trkpt>
      <trkpt lat="51.690165968611836" lon="0.333995958790183">
        <ele>85</ele>
        <time>2018-02-14T09:44:07Z</time>
      </trkpt>
      <trkpt lat="51.690178960561752" lon="0.334021020680666">
        <ele>84.404232141398197</ele>
        <time>2018-02-14T09:44:08Z</time>
      </trkpt>
      <trkpt lat="51.690187007188797" lon="0.334047004580498">
        <ele>81</ele>
        <time>2018-02-14T09:44:09Z</time>
      </trkpt>
      <trkpt lat="51.690193964168429" lon="0.334078017622232">
        <ele>81.752490304919803</ele>
        <time>2018-02-14T09:44:10Z</time>
      </trkpt>
      <trkpt lat="51.690202010795474" lon="0.334108024835587">
        <ele>85</ele>
        <time>2018-02-14T09:44:11Z</time>
      </trkpt>
      <trkpt lat="51.690208967775106" lon="0.334130991250277">
        <ele>85</ele>
        <time>2018-02-14T09:44:12Z</time>
      </trkpt>
      <trkpt lat="51.690217014402151" lon="0.33415898680687">
        <ele>85</ele>
        <time>2018-02-14T09:44:13Z</time>
      </trkpt>
      <trkpt lat="51.690224977210164" lon="0.334186982363462">
        <ele>85</ele>
        <time>2018-02-14T09:44:14Z</time>
      </trkpt>
      <trkpt lat="51.690238974988461" lon="0.334240961819887">
        <ele>85</ele>
        <time>2018-02-14T09:44:16Z</time>
      </trkpt>
      <trkpt lat="51.690248027443886" lon="0.334269963204861">
        <ele>85</ele>
        <time>2018-02-14T09:44:17Z</time>
      </trkpt>
      <trkpt lat="51.690256996080279" lon="0.334296030923724">
        <ele>85</ele>
        <time>2018-02-14T09:44:18Z</time>
      </trkpt>
      <trkpt lat="51.690273005515337" lon="0.334349004551768">
        <ele>85</ele>
        <time>2018-02-14T09:44:20Z</time>
      </trkpt>
      <trkpt lat="51.690284991636872" lon="0.334400972351432">
        <ele>85</ele>
        <time>2018-02-14T09:44:22Z</time>
      </trkpt>
      <trkpt lat="51.690288009122014" lon="0.334429973736405">
        <ele>85</ele>
        <time>2018-02-14T09:44:23Z</time>
      </trkpt>
      <trkpt lat="51.690299995243549" lon="0.33448101952672">
        <ele>85</ele>
        <time>2018-02-14T09:44:25Z</time>
      </trkpt>
      <trkpt lat="51.690312987193465" lon="0.334536004811525">
        <ele>85</ele>
        <time>2018-02-14T09:44:27Z</time>
      </trkpt>
      <trkpt lat="51.690324973315001" lon="0.334584033116698">
        <ele>85</ele>
        <time>2018-02-14T09:44:29Z</time>
      </trkpt>
      <trkpt lat="51.690335031598806" lon="0.334636000916362">
        <ele>84.821777535579898</ele>
        <time>2018-02-14T09:44:31Z</time>
      </trkpt>
      <trkpt lat="51.690352968871593" lon="0.334677994251251">
        <ele>84</ele>
        <time>2018-02-14T09:44:33Z</time>
      </trkpt>
      <trkpt lat="51.690370989963412" lon="0.334720993414521">
        <ele>84</ele>
        <time>2018-02-14T09:44:35Z</time>
      </trkpt>
      <trkpt lat="51.690384987741709" lon="0.334762986749411">
        <ele>85</ele>
        <time>2018-02-14T09:44:37Z</time>
      </trkpt>
      <trkpt lat="51.690392028540373" lon="0.334786958992481">
        <ele>85</ele>
        <time>2018-02-14T09:44:38Z</time>
      </trkpt>
      <trkpt lat="51.690399991348386" lon="0.334840016439557">
        <ele>85</ele>
        <time>2018-02-14T09:44:40Z</time>
      </trkpt>
      <trkpt lat="51.69040803797543" lon="0.334887038916349">
        <ele>85</ele>
        <time>2018-02-14T09:44:42Z</time>
      </trkpt>
      <trkpt lat="51.690416000783443" lon="0.334914028644562">
        <ele>85.139538806532897</ele>
        <time>2018-02-14T09:44:43Z</time>
      </trkpt>
      <trkpt lat="51.690423963591456" lon="0.334942024201155">
        <ele>85.914726836141398</ele>
        <time>2018-02-14T09:44:44Z</time>
      </trkpt>
      <trkpt lat="51.690443996340036" lon="0.334981000050902">
        <ele>85.928568629755901</ele>
        <time>2018-02-14T09:44:46Z</time>
      </trkpt>
      <trkpt lat="51.690462017431855" lon="0.335030034184456">
        <ele>85</ele>
        <time>2018-02-14T09:44:48Z</time>
      </trkpt>
      <trkpt lat="51.690476015210152" lon="0.335074961185455">
        <ele>84</ele>
        <time>2018-02-14T09:44:50Z</time>
      </trkpt>
      <trkpt lat="51.690480038523674" lon="0.335101028904319">
        <ele>84</ele>
        <time>2018-02-14T09:44:51Z</time>
      </trkpt>
      <trkpt lat="51.690489007160068" lon="0.335152996703982">
        <ele>84</ele>
        <time>2018-02-14T09:44:53Z</time>
      </trkpt>
      <trkpt lat="51.690497975796461" lon="0.335197001695633">
        <ele>85</ele>
        <time>2018-02-14T09:44:55Z</time>
      </trkpt>
      <trkpt lat="51.69051599688828" lon="0.335236983373761">
        <ele>85</ele>
        <time>2018-02-14T09:44:57Z</time>
      </trkpt>
      <trkpt lat="51.690538041293621" lon="0.335274031385779">
        <ele>85</ele>
        <time>2018-02-14T09:44:59Z</time>
      </trkpt>
      <trkpt lat="51.690556984394789" lon="0.335308983922005">
        <ele>85</ele>
        <time>2018-02-14T09:45:01Z</time>
      </trkpt>
      <trkpt lat="51.690575005486608" lon="0.335349971428514">
        <ele>85</ele>
        <time>2018-02-14T09:45:03Z</time>
      </trkpt>
      <trkpt lat="51.690594032406807" lon="0.335392970591784">
        <ele>85</ele>
        <time>2018-02-14T09:45:05Z</time>
      </trkpt>
      <trkpt lat="51.690608030185103" lon="0.335440998896956">
        <ele>84.910893975109602</ele>
        <time>2018-02-14T09:45:07Z</time>
      </trkpt>
      <trkpt lat="51.690624039620161" lon="0.335485003888607">
        <ele>84</ele>
        <time>2018-02-14T09:45:09Z</time>
      </trkpt>
      <trkpt lat="51.690637031570077" lon="0.335529008880258">
        <ele>84</ele>
        <time>2018-02-14T09:45:11Z</time>
      </trkpt>
      <trkpt lat="51.690654968842864" lon="0.33557896502316">
        <ele>85</ele>
        <time>2018-02-14T09:45:13Z</time>
      </trkpt>
      <trkpt lat="51.690668966621161" lon="0.33562196418643">
        <ele>85</ele>
        <time>2018-02-14T09:45:15Z</time>
      </trkpt>
      <trkpt lat="51.690685981884599" lon="0.335674015805125">
        <ele>85</ele>
        <time>2018-02-14T09:45:17Z</time>
      </trkpt>
      <trkpt lat="51.690704002976418" lon="0.335721960291266">
        <ele>85.188120192124899</ele>
        <time>2018-02-14T09:45:19Z</time>
      </trkpt>
      <trkpt lat="51.690711965784431" lon="0.335750039666891">
        <ele>86</ele>
        <time>2018-02-14T09:45:20Z</time>
      </trkpt>
      <trkpt lat="51.690721018239856" lon="0.335775017738342">
        <ele>86</ele>
        <time>2018-02-14T09:45:21Z</time>
      </trkpt>
      <trkpt lat="51.690733004361391" lon="0.335831008851528">
        <ele>86</ele>
        <time>2018-02-14T09:45:23Z</time>
      </trkpt>
      <trkpt lat="51.690739039331675" lon="0.335859004408121">
        <ele>85.928568629755901</ele>
        <time>2018-02-14T09:45:24Z</time>
      </trkpt>
      <trkpt lat="51.69075102545321" lon="0.335914995521307">
        <ele>85</ele>
        <time>2018-02-14T09:45:26Z</time>
      </trkpt>
      <trkpt lat="51.690764017403126" lon="0.335964029654861">
        <ele>85</ele>
        <time>2018-02-14T09:45:28Z</time>
      </trkpt>
      <trkpt lat="51.690780026838183" lon="0.336018009111285">
        <ele>85</ele>
        <time>2018-02-14T09:45:30Z</time>
      </trkpt>
      <trkpt lat="51.690793018788099" lon="0.33607198856771">
        <ele>85</ele>
        <time>2018-02-14T09:45:32Z</time>
      </trkpt>
      <trkpt lat="51.690799975767732" lon="0.336099984124303">
        <ele>85</ele>
        <time>2018-02-14T09:45:33Z</time>
      </trkpt>
      <trkpt lat="51.690811961889267" lon="0.336152035742998">
        <ele>85</ele>
        <time>2018-02-14T09:45:35Z</time>
      </trkpt>
      <trkpt lat="51.690819002687931" lon="0.336180031299591">
        <ele>85</ele>
        <time>2018-02-14T09:45:36Z</time>
      </trkpt>
      <trkpt lat="51.690826965495944" lon="0.336206015199423">
        <ele>85</ele>
        <time>2018-02-14T09:45:37Z</time>
      </trkpt>
      <trkpt lat="51.690836017951369" lon="0.336236022412777">
        <ele>85</ele>
        <time>2018-02-14T09:45:38Z</time>
      </trkpt>
      <trkpt lat="51.690843980759382" lon="0.336266029626131">
        <ele>85</ele>
        <time>2018-02-14T09:45:39Z</time>
      </trkpt>
      <trkpt lat="51.690853033214808" lon="0.336292013525963">
        <ele>85</ele>
        <time>2018-02-14T09:45:40Z</time>
      </trkpt>
      <trkpt lat="51.69085999019444" lon="0.336320009082556">
        <ele>85</ele>
        <time>2018-02-14T09:45:41Z</time>
      </trkpt>
      <trkpt lat="51.690868036821485" lon="0.336348004639149">
        <ele>85</ele>
        <time>2018-02-14T09:45:42Z</time>
      </trkpt>
      <trkpt lat="51.690885974094272" lon="0.33639402128756">
        <ele>85</ele>
        <time>2018-02-14T09:45:44Z</time>
      </trkpt>
      <trkpt lat="51.690895026549697" lon="0.336421011015773">
        <ele>85</ele>
        <time>2018-02-14T09:45:45Z</time>
      </trkpt>
      <trkpt lat="51.690912041813135" lon="0.336470967158675">
        <ele>85</ele>
        <time>2018-02-14T09:45:47Z</time>
      </trkpt>
      <trkpt lat="51.690921010449529" lon="0.336498962715268">
        <ele>85</ele>
        <time>2018-02-14T09:45:48Z</time>
      </trkpt>
      <trkpt lat="51.690928973257542" lon="0.336526036262512">
        <ele>85</ele>
        <time>2018-02-14T09:45:49Z</time>
      </trkpt>
      <trkpt lat="51.690944982692599" lon="0.336579009890556">
        <ele>85</ele>
        <time>2018-02-14T09:45:51Z</time>
      </trkpt>
      <trkpt lat="51.690960992127657" lon="0.336627038195729">
        <ele>85</ele>
        <time>2018-02-14T09:45:53Z</time>
      </trkpt>
      <trkpt lat="51.69096702709794" lon="0.336656961590052">
        <ele>85</ele>
        <time>2018-02-14T09:45:54Z</time>
      </trkpt>
      <trkpt lat="51.690973984077573" lon="0.336685040965676">
        <ele>85</ele>
        <time>2018-02-14T09:45:55Z</time>
      </trkpt>
      <trkpt lat="51.690986976027489" lon="0.33673801459372">
        <ele>85</ele>
        <time>2018-02-14T09:45:57Z</time>
      </trkpt>
      <trkpt lat="51.691002985462546" lon="0.336785959079862">
        <ele>85</ele>
        <time>2018-02-14T09:45:59Z</time>
      </trkpt>
      <trkpt lat="51.691012037917972" lon="0.336810015141964">
        <ele>85</ele>
        <time>2018-02-14T09:46:00Z</time>
      </trkpt>
      <trkpt lat="51.691022012382746" lon="0.336838010698557">
        <ele>85</ele>
        <time>2018-02-14T09:46:01Z</time>
      </trkpt>
      <trkpt lat="51.691030981019139" lon="0.336862988770008">
        <ele>85</ele>
        <time>2018-02-14T09:46:02Z</time>
      </trkpt>
      <trkpt lat="51.691040033474565" lon="0.336890984326601">
        <ele>85</ele>
        <time>2018-02-14T09:46:03Z</time>
      </trkpt>
      <trkpt lat="51.691045984625816" lon="0.336918979883194">
        <ele>85</ele>
        <time>2018-02-14T09:46:04Z</time>
      </trkpt>
      <trkpt lat="51.691057970747352" lon="0.336966002359986">
        <ele>85</ele>
        <time>2018-02-14T09:46:06Z</time>
      </trkpt>
      <trkpt lat="51.691071968525648" lon="0.33701503649354">
        <ele>85</ele>
        <time>2018-02-14T09:46:08Z</time>
      </trkpt>
      <trkpt lat="51.691082026809454" lon="0.337064992636442">
        <ele>85</ele>
        <time>2018-02-14T09:46:10Z</time>
      </trkpt>
      <trkpt lat="51.691094012930989" lon="0.337116960436106">
        <ele>85</ele>
        <time>2018-02-14T09:46:12Z</time>
      </trkpt>
      <trkpt lat="51.691105999052525" lon="0.337170017883182">
        <ele>85</ele>
        <time>2018-02-14T09:46:14Z</time>
      </trkpt>
      <trkpt lat="51.691121002659202" lon="0.337217040359974">
        <ele>85</ele>
        <time>2018-02-14T09:46:16Z</time>
      </trkpt>
      <trkpt lat="51.691131982952356" lon="0.337268002331257">
        <ele>85</ele>
        <time>2018-02-14T09:46:18Z</time>
      </trkpt>
      <trkpt lat="51.691147992387414" lon="0.33731703646481">
        <ele>85</ele>
        <time>2018-02-14T09:46:20Z</time>
      </trkpt>
      <trkpt lat="51.691166013479233" lon="0.337358023971319">
        <ele>85</ele>
        <time>2018-02-14T09:46:22Z</time>
      </trkpt>
      <trkpt lat="51.691173976287246" lon="0.337395993992686">
        <ele>85</ele>
        <time>2018-02-14T09:46:24Z</time>
      </trkpt>
      <trkpt lat="51.691180011257529" lon="0.337427007034421">
        <ele>84.8712898892353</ele>
        <time>2018-02-14T09:46:26Z</time>
      </trkpt>
      <trkpt lat="51.691187974065542" lon="0.337458020076156">
        <ele>84</ele>
        <time>2018-02-14T09:46:28Z</time>
      </trkpt>
      <trkpt lat="51.691194009035826" lon="0.337492972612381">
        <ele>84.110003199999994</ele>
        <time>2018-02-14T09:46:30Z</time>
      </trkpt>
      <trkpt lat="51.691199038177729" lon="0.337535971775651">
        <ele>85</ele>
        <time>2018-02-14T09:46:32Z</time>
      </trkpt>
      <trkpt lat="51.691189985722303" lon="0.337578970938921">
        <ele>85</ele>
        <time>2018-02-14T09:46:34Z</time>
      </trkpt>
      <trkpt lat="51.691176993772388" lon="0.337634040042758">
        <ele>85</ele>
        <time>2018-02-14T09:46:36Z</time>
      </trkpt>
      <trkpt lat="51.691170036792755" lon="0.337662035599351">
        <ele>85</ele>
        <time>2018-02-14T09:46:37Z</time>
      </trkpt>
      <trkpt lat="51.691156039014459" lon="0.337714003399014">
        <ele>85</ele>
        <time>2018-02-14T09:46:39Z</time>
      </trkpt>
      <trkpt lat="51.691150004044175" lon="0.337750967592001">
        <ele>85</ele>
        <time>2018-02-14T09:46:40Z</time>
      </trkpt>
      <trkpt lat="51.691140029579401" lon="0.337788015604019">
        <ele>85</ele>
        <time>2018-02-14T09:46:41Z</time>
      </trkpt>
      <trkpt lat="51.691126031801105" lon="0.337821040302515">
        <ele>85</ele>
        <time>2018-02-14T09:46:42Z</time>
      </trkpt>
      <trkpt lat="51.691114967688918" lon="0.337851969525218">
        <ele>85</ele>
        <time>2018-02-14T09:46:43Z</time>
      </trkpt>
      <trkpt lat="51.691100969910622" lon="0.337886000052094">
        <ele>85</ele>
        <time>2018-02-14T09:46:44Z</time>
      </trkpt>
      <trkpt lat="51.691089989617467" lon="0.337916007265449">
        <ele>85</ele>
        <time>2018-02-14T09:46:45Z</time>
      </trkpt>
      <trkpt lat="51.691080015152693" lon="0.337947020307183">
        <ele>85</ele>
        <time>2018-02-14T09:46:46Z</time>
      </trkpt>
      <trkpt lat="51.691066017374396" lon="0.337974010035396">
        <ele>85.079999999999998</ele>
        <time>2018-02-14T09:46:47Z</time>
      </trkpt>
      <trkpt lat="51.6910520195961" lon="0.338000999763608">
        <ele>86</ele>
        <time>2018-02-14T09:46:48Z</time>
      </trkpt>
      <trkpt lat="51.691038021817803" lon="0.338028995320201">
        <ele>86</ele>
        <time>2018-02-14T09:46:49Z</time>
      </trkpt>
      <trkpt lat="51.691023018211126" lon="0.338054979220033">
        <ele>86</ele>
        <time>2018-02-14T09:46:50Z</time>
      </trkpt>
      <trkpt lat="51.691011032089591" lon="0.338080041110516">
        <ele>86</ele>
        <time>2018-02-14T09:46:51Z</time>
      </trkpt>
      <trkpt lat="51.690997034311295" lon="0.338106025010347">
        <ele>86</ele>
        <time>2018-02-14T09:46:52Z</time>
      </trkpt>
      <trkpt lat="51.690986976027489" lon="0.33813301473856">
        <ele>86</ele>
        <time>2018-02-14T09:46:53Z</time>
      </trkpt>
      <trkpt lat="51.690978007391095" lon="0.338162016123533">
        <ele>86</ele>
        <time>2018-02-14T09:46:54Z</time>
      </trkpt>
      <trkpt lat="51.690963003784418" lon="0.338188000023365">
        <ele>86</ele>
        <time>2018-02-14T09:46:55Z</time>
      </trkpt>
      <trkpt lat="51.690951017662883" lon="0.338215995579958">
        <ele>86</ele>
        <time>2018-02-14T09:46:56Z</time>
      </trkpt>
      <trkpt lat="51.690938025712967" lon="0.338244996964931">
        <ele>86</ele>
        <time>2018-02-14T09:46:57Z</time>
      </trkpt>
      <trkpt lat="51.690922016277909" lon="0.338268969208002">
        <ele>86</ele>
        <time>2018-02-14T09:46:58Z</time>
      </trkpt>
      <trkpt lat="51.690910030156374" lon="0.338292019441724">
        <ele>86</ele>
        <time>2018-02-14T09:46:59Z</time>
      </trkpt>
      <trkpt lat="51.690896032378078" lon="0.338314985856414">
        <ele>86.200000000000003</ele>
        <time>2018-02-14T09:47:00Z</time>
      </trkpt>
      <trkpt lat="51.69088396243751" lon="0.338338036090136">
        <ele>87</ele>
        <time>2018-02-14T09:47:01Z</time>
      </trkpt>
      <trkpt lat="51.690869964659214" lon="0.338363014161587">
        <ele>87</ele>
        <time>2018-02-14T09:47:02Z</time>
      </trkpt>
      <trkpt lat="51.690854961052537" lon="0.338386986404657">
        <ele>87</ele>
        <time>2018-02-14T09:47:03Z</time>
      </trkpt>
      <trkpt lat="51.690841969102621" lon="0.338412970304489">
        <ele>87</ele>
        <time>2018-02-14T09:47:04Z</time>
      </trkpt>
      <trkpt lat="51.690825959667563" lon="0.338437026366591">
        <ele>87</ele>
        <time>2018-02-14T09:47:05Z</time>
      </trkpt>
      <trkpt lat="51.690813973546028" lon="0.338460998609662">
        <ele>87</ele>
        <time>2018-02-14T09:47:06Z</time>
      </trkpt>
      <trkpt lat="51.690801987424493" lon="0.338483965024352">
        <ele>87</ele>
        <time>2018-02-14T09:47:07Z</time>
      </trkpt>
      <trkpt lat="51.690780026838183" lon="0.338528975844383">
        <ele>88</ele>
        <time>2018-02-14T09:47:09Z</time>
      </trkpt>
      <trkpt lat="51.690768040716648" lon="0.338552026078105">
        <ele>88</ele>
        <time>2018-02-14T09:47:10Z</time>
      </trkpt>
      <trkpt lat="51.690743984654546" lon="0.338595025241375">
        <ele>88</ele>
        <time>2018-02-14T09:47:12Z</time>
      </trkpt>
      <trkpt lat="51.690729986876249" lon="0.338620003312826">
        <ele>88</ele>
        <time>2018-02-14T09:47:13Z</time>
      </trkpt>
      <trkpt lat="51.690718000754714" lon="0.338641041889787">
        <ele>88</ele>
        <time>2018-02-14T09:47:14Z</time>
      </trkpt>
      <trkpt lat="51.690706014633179" lon="0.338665014132857">
        <ele>88</ele>
        <time>2018-02-14T09:47:15Z</time>
      </trkpt>
      <trkpt lat="51.690680030733347" lon="0.338703989982605">
        <ele>88</ele>
        <time>2018-02-14T09:47:17Z</time>
      </trkpt>
      <trkpt lat="51.690664021298289" lon="0.338729973882437">
        <ele>88</ele>
        <time>2018-02-14T09:47:18Z</time>
      </trkpt>
      <trkpt lat="51.690650023519993" lon="0.33875796943903">
        <ele>88</ele>
        <time>2018-02-14T09:47:19Z</time>
      </trkpt>
      <trkpt lat="51.690636025741696" lon="0.338782025501132">
        <ele>88</ele>
        <time>2018-02-14T09:47:20Z</time>
      </trkpt>
      <trkpt lat="51.690620016306639" lon="0.338807003572583">
        <ele>88</ele>
        <time>2018-02-14T09:47:21Z</time>
      </trkpt>
      <trkpt lat="51.690608030185103" lon="0.338832987472415">
        <ele>88</ele>
        <time>2018-02-14T09:47:22Z</time>
      </trkpt>
      <trkpt lat="51.690595960244536" lon="0.338858971372247">
        <ele>88</ele>
        <time>2018-02-14T09:47:23Z</time>
      </trkpt>
      <trkpt lat="51.690578022971749" lon="0.338905993849039">
        <ele>88</ele>
        <time>2018-02-14T09:47:25Z</time>
      </trkpt>
      <trkpt lat="51.690566958859563" lon="0.33892996609211">
        <ele>88</ele>
        <time>2018-02-14T09:47:26Z</time>
      </trkpt>
      <trkpt lat="51.690553966909647" lon="0.338955027982593">
        <ele>88</ele>
        <time>2018-02-14T09:47:27Z</time>
      </trkpt>
      <trkpt lat="51.690541980788112" lon="0.338981011882424">
        <ele>88</ele>
        <time>2018-02-14T09:47:28Z</time>
      </trkpt>
      <trkpt lat="51.690529994666576" lon="0.339006995782256">
        <ele>88</ele>
        <time>2018-02-14T09:47:29Z</time>
      </trkpt>
      <trkpt lat="51.690518008545041" lon="0.339031973853707">
        <ele>88</ele>
        <time>2018-02-14T09:47:30Z</time>
      </trkpt>
      <trkpt lat="51.69049303047359" lon="0.3390789963305">
        <ele>89</ele>
        <time>2018-02-14T09:47:32Z</time>
      </trkpt>
      <trkpt lat="51.690476015210152" lon="0.33910296857357">
        <ele>89</ele>
        <time>2018-02-14T09:47:33Z</time>
      </trkpt>
      <trkpt lat="51.690458999946713" lon="0.339128030464053">
        <ele>89</ele>
        <time>2018-02-14T09:47:34Z</time>
      </trkpt>
      <trkpt lat="51.690441984683275" lon="0.339150996878743">
        <ele>89</ele>
        <time>2018-02-14T09:47:35Z</time>
      </trkpt>
      <trkpt lat="51.690425975248218" lon="0.339172035455704">
        <ele>89</ele>
        <time>2018-02-14T09:47:36Z</time>
      </trkpt>
      <trkpt lat="51.690406026318669" lon="0.339190978556871">
        <ele>89</ele>
        <time>2018-02-14T09:47:37Z</time>
      </trkpt>
      <trkpt lat="51.690374007448554" lon="0.339226014912128">
        <ele>89</ele>
        <time>2018-02-14T09:47:39Z</time>
      </trkpt>
      <trkpt lat="51.690339976921678" lon="0.339259961619973">
        <ele>89.179247219639393</ele>
        <time>2018-02-14T09:47:41Z</time>
      </trkpt>
      <trkpt lat="51.690320027992129" lon="0.339279994368553">
        <ele>90</ele>
        <time>2018-02-14T09:47:42Z</time>
      </trkpt>
      <trkpt lat="51.690299995243549" lon="0.339299021288753">
        <ele>90</ele>
        <time>2018-02-14T09:47:43Z</time>
      </trkpt>
      <trkpt lat="51.690276023000479" lon="0.33931695856154">
        <ele>90</ele>
        <time>2018-02-14T09:47:44Z</time>
      </trkpt>
      <trkpt lat="51.690250961109996" lon="0.339332967996597">
        <ele>90</ele>
        <time>2018-02-14T09:47:45Z</time>
      </trkpt>
      <trkpt lat="51.690227994695306" lon="0.339347971603274">
        <ele>90</ele>
        <time>2018-02-14T09:47:46Z</time>
      </trkpt>
      <trkpt lat="51.690206034108996" lon="0.339363981038332">
        <ele>90</ele>
        <time>2018-02-14T09:47:47Z</time>
      </trkpt>
      <trkpt lat="51.690183989703655" lon="0.339377978816628">
        <ele>90</ele>
        <time>2018-02-14T09:47:48Z</time>
      </trkpt>
      <trkpt lat="51.690165968611836" lon="0.339389964938164">
        <ele>90</ele>
        <time>2018-02-14T09:47:49Z</time>
      </trkpt>
      <trkpt lat="51.690147025510669" lon="0.33940396271646">
        <ele>90</ele>
        <time>2018-02-14T09:47:50Z</time>
      </trkpt>
      <trkpt lat="51.690132021903992" lon="0.339421983808279">
        <ele>90</ele>
        <time>2018-02-14T09:47:51Z</time>
      </trkpt>
      <trkpt lat="51.690116012468934" lon="0.33944302238524">
        <ele>90</ele>
        <time>2018-02-14T09:47:52Z</time>
      </trkpt>
      <trkpt lat="51.690083993598819" lon="0.339475963264704">
        <ele>90</ele>
        <time>2018-02-14T09:47:54Z</time>
      </trkpt>
      <trkpt lat="51.690064966678619" lon="0.339497001841664">
        <ele>90</ele>
        <time>2018-02-14T09:47:55Z</time>
      </trkpt>
      <trkpt lat="51.690049963071942" lon="0.339519968256354">
        <ele>90</ele>
        <time>2018-02-14T09:47:56Z</time>
      </trkpt>
      <trkpt lat="51.690034037455916" lon="0.339544024318457">
        <ele>90</ele>
        <time>2018-02-14T09:47:57Z</time>
      </trkpt>
      <trkpt lat="51.69002003967762" lon="0.33957201987505">
        <ele>90</ele>
        <time>2018-02-14T09:47:58Z</time>
      </trkpt>
      <trkpt lat="51.690006041899323" lon="0.339598003774881">
        <ele>90</ele>
        <time>2018-02-14T09:47:59Z</time>
      </trkpt>
      <trkpt lat="51.689993971958756" lon="0.339632034301758">
        <ele>90</ele>
        <time>2018-02-14T09:48:00Z</time>
      </trkpt>
      <trkpt lat="51.689983997493982" lon="0.339663969352841">
        <ele>90</ele>
        <time>2018-02-14T09:48:01Z</time>
      </trkpt>
      <trkpt lat="51.689974023029208" lon="0.339691964909434">
        <ele>90</ele>
        <time>2018-02-14T09:48:02Z</time>
      </trkpt>
      <trkpt lat="51.689962036907673" lon="0.339719960466027">
        <ele>90</ele>
        <time>2018-02-14T09:48:03Z</time>
      </trkpt>
      <trkpt lat="51.689952984452248" lon="0.339746028184891">
        <ele>90</ele>
        <time>2018-02-14T09:48:04Z</time>
      </trkpt>
      <trkpt lat="51.689942004159093" lon="0.339777963235974">
        <ele>90</ele>
        <time>2018-02-14T09:48:05Z</time>
      </trkpt>
      <trkpt lat="51.689932029694319" lon="0.33980998210609">
        <ele>90</ele>
        <time>2018-02-14T09:48:06Z</time>
      </trkpt>
      <trkpt lat="51.689920965582132" lon="0.339837977662683">
        <ele>90.079999999999998</ele>
        <time>2018-02-14T09:48:07Z</time>
      </trkpt>
      <trkpt lat="51.689913002774119" lon="0.339869996532798">
        <ele>91</ele>
        <time>2018-02-14T09:48:08Z</time>
      </trkpt>
      <trkpt lat="51.689905961975455" lon="0.33989698626101">
        <ele>91</ele>
        <time>2018-02-14T09:48:09Z</time>
      </trkpt>
      <trkpt lat="51.689888024702668" lon="0.339949959889054">
        <ele>91</ele>
        <time>2018-02-14T09:48:11Z</time>
      </trkpt>
      <trkpt lat="51.689876960590482" lon="0.339979967102408">
        <ele>91</ele>
        <time>2018-02-14T09:48:12Z</time>
      </trkpt>
      <trkpt lat="51.689864974468946" lon="0.340011985972524">
        <ele>91</ele>
        <time>2018-02-14T09:48:13Z</time>
      </trkpt>
      <trkpt lat="51.689855000004172" lon="0.340041993185878">
        <ele>90.911767289520199</ele>
        <time>2018-02-14T09:48:14Z</time>
      </trkpt>
      <trkpt lat="51.689846031367779" lon="0.340069988742471">
        <ele>90</ele>
        <time>2018-02-14T09:48:15Z</time>
      </trkpt>
      <trkpt lat="51.689835973083973" lon="0.340099995955825">
        <ele>90</ele>
        <time>2018-02-14T09:48:16Z</time>
      </trkpt>
      <trkpt lat="51.689819041639566" lon="0.340151963755488">
        <ele>90</ele>
        <time>2018-02-14T09:48:18Z</time>
      </trkpt>
      <trkpt lat="51.689799008890986" lon="0.340206027030945">
        <ele>90</ele>
        <time>2018-02-14T09:48:20Z</time>
      </trkpt>
      <trkpt lat="51.689790040254593" lon="0.340233016759157">
        <ele>90</ele>
        <time>2018-02-14T09:48:21Z</time>
      </trkpt>
      <trkpt lat="51.689777970314026" lon="0.34028397873044">
        <ele>90.072167533187297</ele>
        <time>2018-02-14T09:48:23Z</time>
      </trkpt>
      <trkpt lat="51.689770007506013" lon="0.340309962630272">
        <ele>91</ele>
        <time>2018-02-14T09:48:24Z</time>
      </trkpt>
      <trkpt lat="51.689763972535729" lon="0.340337036177516">
        <ele>91</ele>
        <time>2018-02-14T09:48:25Z</time>
      </trkpt>
      <trkpt lat="51.689757015556097" lon="0.340367965400219">
        <ele>91</ele>
        <time>2018-02-14T09:48:26Z</time>
      </trkpt>
      <trkpt lat="51.689749974757433" lon="0.340396966785192">
        <ele>91</ele>
        <time>2018-02-14T09:48:27Z</time>
      </trkpt>
      <trkpt lat="51.689743017777801" lon="0.340425968170166">
        <ele>91</ele>
        <time>2018-02-14T09:48:28Z</time>
      </trkpt>
      <trkpt lat="51.689733965322375" lon="0.34045304171741">
        <ele>91</ele>
        <time>2018-02-14T09:48:29Z</time>
      </trkpt>
      <trkpt lat="51.689723990857601" lon="0.340481959283352">
        <ele>91.1287101107647</ele>
        <time>2018-02-14T09:48:30Z</time>
      </trkpt>
      <trkpt lat="51.689713010564446" lon="0.34051800146699">
        <ele>92</ele>
        <time>2018-02-14T09:48:31Z</time>
      </trkpt>
      <trkpt lat="51.689703036099672" lon="0.340550020337105">
        <ele>92</ele>
        <time>2018-02-14T09:48:32Z</time>
      </trkpt>
      <trkpt lat="51.689691971987486" lon="0.34058203920722">
        <ele>92</ele>
        <time>2018-02-14T09:48:33Z</time>
      </trkpt>
      <trkpt lat="51.689680991694331" lon="0.340611962601542">
        <ele>92</ele>
        <time>2018-02-14T09:48:34Z</time>
      </trkpt>
      <trkpt lat="51.689672023057938" lon="0.340643981471658">
        <ele>92</ele>
        <time>2018-02-14T09:48:35Z</time>
      </trkpt>
      <trkpt lat="51.689660958945751" lon="0.340676000341773">
        <ele>92</ele>
        <time>2018-02-14T09:48:36Z</time>
      </trkpt>
      <trkpt lat="51.689651990309358" lon="0.340708019211888">
        <ele>92</ele>
        <time>2018-02-14T09:48:37Z</time>
      </trkpt>
      <trkpt lat="51.689644027501345" lon="0.340740038082004">
        <ele>92</ele>
        <time>2018-02-14T09:48:38Z</time>
      </trkpt>
      <trkpt lat="51.689633969217539" lon="0.340773984789848">
        <ele>92</ele>
        <time>2018-02-14T09:48:39Z</time>
      </trkpt>
      <trkpt lat="51.689622988924384" lon="0.340808015316725">
        <ele>92</ele>
        <time>2018-02-14T09:48:40Z</time>
      </trkpt>
      <trkpt lat="51.689611002802849" lon="0.34084196202457">
        <ele>92.138465779860795</ele>
        <time>2018-02-14T09:48:41Z</time>
      </trkpt>
      <trkpt lat="51.689599016681314" lon="0.340875992551446">
        <ele>92.907692762127894</ele>
        <time>2018-02-14T09:48:42Z</time>
      </trkpt>
      <trkpt lat="51.689590970054269" lon="0.340903988108039">
        <ele>93</ele>
        <time>2018-02-14T09:48:43Z</time>
      </trkpt>
      <trkpt lat="51.689584013074636" lon="0.340933995321393">
        <ele>93</ele>
        <time>2018-02-14T09:48:44Z</time>
      </trkpt>
      <trkpt lat="51.689574038609862" lon="0.340959979221225">
        <ele>93</ele>
        <time>2018-02-14T09:48:45Z</time>
      </trkpt>
      <trkpt lat="51.689563980326056" lon="0.340994009748101">
        <ele>93</ele>
        <time>2018-02-14T09:48:46Z</time>
      </trkpt>
      <trkpt lat="51.689556017518044" lon="0.341024016961455">
        <ele>93</ele>
        <time>2018-02-14T09:48:47Z</time>
      </trkpt>
      <trkpt lat="51.689542019739747" lon="0.341080008074641">
        <ele>93</ele>
        <time>2018-02-14T09:48:49Z</time>
      </trkpt>
      <trkpt lat="51.689532967284322" lon="0.341113032773137">
        <ele>93.03125</ele>
        <time>2018-02-14T09:48:50Z</time>
      </trkpt>
      <trkpt lat="51.689520981162786" lon="0.341144967824221">
        <ele>93.8125</ele>
        <time>2018-02-14T09:48:51Z</time>
      </trkpt>
      <trkpt lat="51.689512012526393" lon="0.341170029714704">
        <ele>94</ele>
        <time>2018-02-14T09:48:52Z</time>
      </trkpt>
      <trkpt lat="51.689492985606194" lon="0.341224009171128">
        <ele>94</ele>
        <time>2018-02-14T09:48:54Z</time>
      </trkpt>
      <trkpt lat="51.6894840169698" lon="0.341254016384482">
        <ele>94</ele>
        <time>2018-02-14T09:48:55Z</time>
      </trkpt>
      <trkpt lat="51.689472030848265" lon="0.341282011941075">
        <ele>94</ele>
        <time>2018-02-14T09:48:56Z</time>
      </trkpt>
      <trkpt lat="51.689460966736078" lon="0.341312019154429">
        <ele>94.089996799999994</ele>
        <time>2018-02-14T09:48:57Z</time>
      </trkpt>
      <trkpt lat="51.689447974786162" lon="0.341341020539403">
        <ele>95</ele>
        <time>2018-02-14T09:48:58Z</time>
      </trkpt>
      <trkpt lat="51.689434982836246" lon="0.341373961418867">
        <ele>94.896554260828594</ele>
        <time>2018-02-14T09:48:59Z</time>
      </trkpt>
      <trkpt lat="51.689422996714711" lon="0.341405980288982">
        <ele>94</ele>
        <time>2018-02-14T09:49:00Z</time>
      </trkpt>
      <trkpt lat="51.689404975622892" lon="0.341433975845575">
        <ele>94</ele>
        <time>2018-02-14T09:49:01Z</time>
      </trkpt>
      <trkpt lat="51.689387960359454" lon="0.341459959745407">
        <ele>94</ele>
        <time>2018-02-14T09:49:02Z</time>
      </trkpt>
      <trkpt lat="51.689373962581158" lon="0.341488039121032">
        <ele>94</ele>
        <time>2018-02-14T09:49:03Z</time>
      </trkpt>
      <trkpt lat="51.689356025308371" lon="0.341519974172115">
        <ele>94.220003583954096</ele>
        <time>2018-02-14T09:49:04Z</time>
      </trkpt>
      <trkpt lat="51.689342027530074" lon="0.34155098721385">
        <ele>95</ele>
        <time>2018-02-14T09:49:05Z</time>
      </trkpt>
      <trkpt lat="51.689327023923397" lon="0.341583006083965">
        <ele>95</ele>
        <time>2018-02-14T09:49:06Z</time>
      </trkpt>
      <trkpt lat="51.689314031973481" lon="0.341612007468939">
        <ele>95</ele>
        <time>2018-02-14T09:49:07Z</time>
      </trkpt>
      <trkpt lat="51.689300034195185" lon="0.341645032167435">
        <ele>95</ele>
        <time>2018-02-14T09:49:08Z</time>
      </trkpt>
      <trkpt lat="51.689282013103366" lon="0.341675961390138">
        <ele>95</ele>
        <time>2018-02-14T09:49:09Z</time>
      </trkpt>
      <trkpt lat="51.689261980354786" lon="0.341702029109001">
        <ele>95</ele>
        <time>2018-02-14T09:49:10Z</time>
      </trkpt>
      <trkpt lat="51.689245970919728" lon="0.341731030493975">
        <ele>95</ele>
        <time>2018-02-14T09:49:11Z</time>
      </trkpt>
      <trkpt lat="51.689233984798193" lon="0.341758020222187">
        <ele>95.204080299883799</ele>
        <time>2018-02-14T09:49:12Z</time>
      </trkpt>
      <trkpt lat="51.689218981191516" lon="0.341785009950399">
        <ele>96</ele>
        <time>2018-02-14T09:49:13Z</time>
      </trkpt>
      <trkpt lat="51.689202971756458" lon="0.341810993850231">
        <ele>96</ele>
        <time>2018-02-14T09:49:14Z</time>
      </trkpt>
      <trkpt lat="51.689187968149781" lon="0.341834966093302">
        <ele>96</ele>
        <time>2018-02-14T09:49:15Z</time>
      </trkpt>
      <trkpt lat="51.689174976199865" lon="0.341862039640546">
        <ele>96</ele>
        <time>2018-02-14T09:49:16Z</time>
      </trkpt>
      <trkpt lat="51.689161984249949" lon="0.341889029368758">
        <ele>96</ele>
        <time>2018-02-14T09:49:17Z</time>
      </trkpt>
      <trkpt lat="51.689145974814892" lon="0.341919958591461">
        <ele>96</ele>
        <time>2018-02-14T09:49:18Z</time>
      </trkpt>
      <trkpt lat="51.689132982864976" lon="0.341950971633196">
        <ele>96</ele>
        <time>2018-02-14T09:49:19Z</time>
      </trkpt>
      <trkpt lat="51.68911999091506" lon="0.341976033523679">
        <ele>96</ele>
        <time>2018-02-14T09:49:20Z</time>
      </trkpt>
      <trkpt lat="51.689109010621905" lon="0.342002017423511">
        <ele>96</ele>
        <time>2018-02-14T09:49:21Z</time>
      </trkpt>
      <trkpt lat="51.68909995816648" lon="0.342030012980103">
        <ele>96</ele>
        <time>2018-02-14T09:49:22Z</time>
      </trkpt>
      <trkpt lat="51.689088977873325" lon="0.342058008536696">
        <ele>96</ele>
        <time>2018-02-14T09:49:23Z</time>
      </trkpt>
      <trkpt lat="51.689079003408551" lon="0.34208700992167">
        <ele>96</ele>
        <time>2018-02-14T09:49:24Z</time>
      </trkpt>
      <trkpt lat="51.689068023115396" lon="0.342117017135024">
        <ele>96</ele>
        <time>2018-02-14T09:49:25Z</time>
      </trkpt>
      <trkpt lat="51.689055031165481" lon="0.342146018519998">
        <ele>96</ele>
        <time>2018-02-14T09:49:26Z</time>
      </trkpt>
      <trkpt lat="51.689043967053294" lon="0.342174014076591">
        <ele>96</ele>
        <time>2018-02-14T09:49:27Z</time>
      </trkpt>
      <trkpt lat="51.689032986760139" lon="0.342202009633183">
        <ele>96</ele>
        <time>2018-02-14T09:49:28Z</time>
      </trkpt>
      <trkpt lat="51.689022006466985" lon="0.342230005189776">
        <ele>96</ele>
        <time>2018-02-14T09:49:29Z</time>
      </trkpt>
      <trkpt lat="51.68901102617383" lon="0.342255989089608">
        <ele>96</ele>
        <time>2018-02-14T09:49:30Z</time>
      </trkpt>
      <trkpt lat="51.688999040052295" lon="0.342287002131343">
        <ele>96</ele>
        <time>2018-02-14T09:49:31Z</time>
      </trkpt>
      <trkpt lat="51.688987975940108" lon="0.342319021001458">
        <ele>96</ele>
        <time>2018-02-14T09:49:32Z</time>
      </trkpt>
      <trkpt lat="51.688982024788857" lon="0.342350034043193">
        <ele>96</ele>
        <time>2018-02-14T09:49:33Z</time>
      </trkpt>
      <trkpt lat="51.688970038667321" lon="0.342380041256547">
        <ele>96</ele>
        <time>2018-02-14T09:49:34Z</time>
      </trkpt>
      <trkpt lat="51.688954029232264" lon="0.342408958822489">
        <ele>96</ele>
        <time>2018-02-14T09:49:35Z</time>
      </trkpt>
      <trkpt lat="51.688942965120077" lon="0.342438966035843">
        <ele>96</ele>
        <time>2018-02-14T09:49:36Z</time>
      </trkpt>
      <trkpt lat="51.6889279615134" lon="0.342468973249197">
        <ele>96.133334281488203</ele>
        <time>2018-02-14T09:49:37Z</time>
      </trkpt>
      <trkpt lat="51.688911030068994" lon="0.342499986290932">
        <ele>97</ele>
        <time>2018-02-14T09:49:38Z</time>
      </trkpt>
      <trkpt lat="51.688898038119078" lon="0.342529993504286">
        <ele>97</ele>
        <time>2018-02-14T09:49:39Z</time>
      </trkpt>
      <trkpt lat="51.688887979835272" lon="0.34256000071764">
        <ele>97</ele>
        <time>2018-02-14T09:49:40Z</time>
      </trkpt>
      <trkpt lat="51.688879011198878" lon="0.342589002102613">
        <ele>97</ele>
        <time>2018-02-14T09:49:41Z</time>
      </trkpt>
      <trkpt lat="51.688869036734104" lon="0.342620015144348">
        <ele>97</ele>
        <time>2018-02-14T09:49:42Z</time>
      </trkpt>
      <trkpt lat="51.688856966793537" lon="0.342649016529322">
        <ele>97</ele>
        <time>2018-02-14T09:49:43Z</time>
      </trkpt>
      <trkpt lat="51.688846992328763" lon="0.342676006257534">
        <ele>97</ele>
        <time>2018-02-14T09:49:44Z</time>
      </trkpt>
      <trkpt lat="51.68883902952075" lon="0.342704001814127">
        <ele>97</ele>
        <time>2018-02-14T09:49:45Z</time>
      </trkpt>
      <trkpt lat="51.688829977065325" lon="0.3427330031991">
        <ele>97</ele>
        <time>2018-02-14T09:49:46Z</time>
      </trkpt>
      <trkpt lat="51.688821008428931" lon="0.342759992927313">
        <ele>97</ele>
        <time>2018-02-14T09:49:47Z</time>
      </trkpt>
      <trkpt lat="51.688813967630267" lon="0.342791005969048">
        <ele>97</ele>
        <time>2018-02-14T09:49:48Z</time>
      </trkpt>
      <trkpt lat="51.688809022307396" lon="0.342824030667543">
        <ele>97</ele>
        <time>2018-02-14T09:49:49Z</time>
      </trkpt>
      <trkpt lat="51.688806004822254" lon="0.342856971547008">
        <ele>97</ele>
        <time>2018-02-14T09:49:50Z</time>
      </trkpt>
      <trkpt lat="51.688801981508732" lon="0.342892007902265">
        <ele>97</ele>
        <time>2018-02-14T09:49:51Z</time>
      </trkpt>
      <trkpt lat="51.68879896402359" lon="0.342926038429141">
        <ele>97</ele>
        <time>2018-02-14T09:49:52Z</time>
      </trkpt>
      <trkpt lat="51.688797036185861" lon="0.342958979308605">
        <ele>97</ele>
        <time>2018-02-14T09:49:53Z</time>
      </trkpt>
      <trkpt lat="51.688789995387197" lon="0.342993009835482">
        <ele>97</ele>
        <time>2018-02-14T09:49:54Z</time>
      </trkpt>
      <trkpt lat="51.688781026750803" lon="0.343022011220455">
        <ele>97</ele>
        <time>2018-02-14T09:49:55Z</time>
      </trkpt>
      <trkpt lat="51.688773985952139" lon="0.343051012605429">
        <ele>97</ele>
        <time>2018-02-14T09:49:56Z</time>
      </trkpt>
      <trkpt lat="51.688765017315745" lon="0.343079008162022">
        <ele>97</ele>
        <time>2018-02-14T09:49:57Z</time>
      </trkpt>
      <trkpt lat="51.688749007880688" lon="0.343133993446827">
        <ele>97</ele>
        <time>2018-02-14T09:49:59Z</time>
      </trkpt>
      <trkpt lat="51.688743978738785" lon="0.343167018145323">
        <ele>97</ele>
        <time>2018-02-14T09:50:00Z</time>
      </trkpt>
      <trkpt lat="51.688740961253643" lon="0.343200964853168">
        <ele>97.215681353294798</ele>
        <time>2018-02-14T09:50:01Z</time>
      </trkpt>
      <trkpt lat="51.688735010102391" lon="0.343236001208425">
        <ele>98</ele>
        <time>2018-02-14T09:50:02Z</time>
      </trkpt>
      <trkpt lat="51.688730986788869" lon="0.343272965401411">
        <ele>98</ele>
        <time>2018-02-14T09:50:03Z</time>
      </trkpt>
      <trkpt lat="51.688726041465998" lon="0.343309007585049">
        <ele>98</ele>
        <time>2018-02-14T09:50:04Z</time>
      </trkpt>
      <trkpt lat="51.688721012324095" lon="0.343343038111925">
        <ele>98</ele>
        <time>2018-02-14T09:50:05Z</time>
      </trkpt>
      <trkpt lat="51.688713971525431" lon="0.343372961506248">
        <ele>98</ele>
        <time>2018-02-14T09:50:06Z</time>
      </trkpt>
      <trkpt lat="51.688708020374179" lon="0.343404980376363">
        <ele>98</ele>
        <time>2018-02-14T09:50:07Z</time>
      </trkpt>
      <trkpt lat="51.688698967918754" lon="0.343438005074859">
        <ele>98</ele>
        <time>2018-02-14T09:50:08Z</time>
      </trkpt>
      <trkpt lat="51.688693016767502" lon="0.343473963439465">
        <ele>98</ele>
        <time>2018-02-14T09:50:09Z</time>
      </trkpt>
      <trkpt lat="51.688692010939121" lon="0.34350698813796">
        <ele>98</ele>
        <time>2018-02-14T09:50:10Z</time>
      </trkpt>
      <trkpt lat="51.688685975968838" lon="0.343542024493217">
        <ele>98</ele>
        <time>2018-02-14T09:50:11Z</time>
      </trkpt>
      <trkpt lat="51.688681030645967" lon="0.343576977029443">
        <ele>98</ele>
        <time>2018-02-14T09:50:12Z</time>
      </trkpt>
      <trkpt lat="51.688674995675683" lon="0.343607990071177">
        <ele>98</ele>
        <time>2018-02-14T09:50:13Z</time>
      </trkpt>
      <trkpt lat="51.6886689607054" lon="0.343641014769673">
        <ele>98</ele>
        <time>2018-02-14T09:50:14Z</time>
      </trkpt>
      <trkpt lat="51.688662003725767" lon="0.343676973134279">
        <ele>98</ele>
        <time>2018-02-14T09:50:15Z</time>
      </trkpt>
      <trkpt lat="51.688654962927103" lon="0.343712009489536">
        <ele>98</ele>
        <time>2018-02-14T09:50:16Z</time>
      </trkpt>
      <trkpt lat="51.688651023432612" lon="0.343745034188032">
        <ele>98</ele>
        <time>2018-02-14T09:50:17Z</time>
      </trkpt>
      <trkpt lat="51.688648005947471" lon="0.343775041401386">
        <ele>98</ele>
        <time>2018-02-14T09:50:18Z</time>
      </trkpt>
      <trkpt lat="51.688639959320426" lon="0.343833966180682">
        <ele>98</ele>
        <time>2018-02-14T09:50:20Z</time>
      </trkpt>
      <trkpt lat="51.688637025654316" lon="0.343866990879178">
        <ele>98</ele>
        <time>2018-02-14T09:50:21Z</time>
      </trkpt>
      <trkpt lat="51.688635013997555" lon="0.343899009749293">
        <ele>98</ele>
        <time>2018-02-14T09:50:22Z</time>
      </trkpt>
      <trkpt lat="51.688627973198891" lon="0.34393697977066">
        <ele>98</ele>
        <time>2018-02-14T09:50:23Z</time>
      </trkpt>
      <trkpt lat="51.688620010390878" lon="0.343970004469156">
        <ele>98</ele>
        <time>2018-02-14T09:50:24Z</time>
      </trkpt>
      <trkpt lat="51.688614981248975" lon="0.344003029167652">
        <ele>98</ele>
        <time>2018-02-14T09:50:25Z</time>
      </trkpt>
      <trkpt lat="51.688615987077355" lon="0.344032030552626">
        <ele>98</ele>
        <time>2018-02-14T09:50:26Z</time>
      </trkpt>
      <trkpt lat="51.688614981248975" lon="0.34406597726047">
        <ele>98</ele>
        <time>2018-02-14T09:50:27Z</time>
      </trkpt>
      <trkpt lat="51.688614981248975" lon="0.344101013615727">
        <ele>98</ele>
        <time>2018-02-14T09:50:28Z</time>
      </trkpt>
      <trkpt lat="51.688616992905736" lon="0.344131020829082">
        <ele>98</ele>
        <time>2018-02-14T09:50:29Z</time>
      </trkpt>
      <trkpt lat="51.688621016219258" lon="0.344163039699197">
        <ele>98</ele>
        <time>2018-02-14T09:50:30Z</time>
      </trkpt>
      <trkpt lat="51.6886240337044" lon="0.344196986407042">
        <ele>98</ele>
        <time>2018-02-14T09:50:31Z</time>
      </trkpt>
      <trkpt lat="51.688625039532781" lon="0.344226993620396">
        <ele>98</ele>
        <time>2018-02-14T09:50:32Z</time>
      </trkpt>
      <trkpt lat="51.688628979027271" lon="0.344274016097188">
        <ele>99</ele>
        <time>2018-02-14T09:50:34Z</time>
      </trkpt>
      <trkpt lat="51.688627973198891" lon="0.344311986118555">
        <ele>99</ele>
        <time>2018-02-14T09:50:36Z</time>
      </trkpt>
      <trkpt lat="51.688630990684032" lon="0.34434400498867">
        <ele>99</ele>
        <time>2018-02-14T09:50:38Z</time>
      </trkpt>
      <trkpt lat="51.688640965148807" lon="0.344379041343927">
        <ele>98</ele>
        <time>2018-02-14T09:50:40Z</time>
      </trkpt>
      <trkpt lat="51.688640965148807" lon="0.34440703690052">
        <ele>98</ele>
        <time>2018-02-14T09:50:42Z</time>
      </trkpt>
      <trkpt lat="51.688641970977187" lon="0.344440983608365">
        <ele>98</ele>
        <time>2018-02-14T09:50:44Z</time>
      </trkpt>
      <trkpt lat="51.68864700011909" lon="0.344490017741919">
        <ele>98.209527989077401</ele>
        <time>2018-02-14T09:50:46Z</time>
      </trkpt>
      <trkpt lat="51.688651023432612" lon="0.344519019126892">
        <ele>99</ele>
        <time>2018-02-14T09:50:47Z</time>
      </trkpt>
      <trkpt lat="51.688654962927103" lon="0.344548020511866">
        <ele>99</ele>
        <time>2018-02-14T09:50:48Z</time>
      </trkpt>
      <trkpt lat="51.688658986240625" lon="0.344593031331897">
        <ele>99</ele>
        <time>2018-02-14T09:50:50Z</time>
      </trkpt>
      <trkpt lat="51.688665021210909" lon="0.344652961939573">
        <ele>98</ele>
        <time>2018-02-14T09:50:52Z</time>
      </trkpt>
      <trkpt lat="51.688666027039289" lon="0.344683974981308">
        <ele>98</ele>
        <time>2018-02-14T09:50:53Z</time>
      </trkpt>
      <trkpt lat="51.688668038696051" lon="0.344714988023043">
        <ele>98</ele>
        <time>2018-02-14T09:50:54Z</time>
      </trkpt>
      <trkpt lat="51.68866996653378" lon="0.344748012721539">
        <ele>98</ele>
        <time>2018-02-14T09:50:55Z</time>
      </trkpt>
      <trkpt lat="51.68866996653378" lon="0.344781037420034">
        <ele>98</ele>
        <time>2018-02-14T09:50:56Z</time>
      </trkpt>
      <trkpt lat="51.6886689607054" lon="0.344834011048079">
        <ele>98</ele>
        <time>2018-02-14T09:50:58Z</time>
      </trkpt>
      <trkpt lat="51.688668038696051" lon="0.344866029918194">
        <ele>98</ele>
        <time>2018-02-14T09:50:59Z</time>
      </trkpt>
      <trkpt lat="51.688668038696051" lon="0.344897964969277">
        <ele>98</ele>
        <time>2018-02-14T09:51:00Z</time>
      </trkpt>
      <trkpt lat="51.6886689607054" lon="0.344934007152915">
        <ele>98</ele>
        <time>2018-02-14T09:51:01Z</time>
      </trkpt>
      <trkpt lat="51.688671978190541" lon="0.344968037679791">
        <ele>98</ele>
        <time>2018-02-14T09:51:02Z</time>
      </trkpt>
      <trkpt lat="51.688672984018922" lon="0.345003996044397">
        <ele>98</ele>
        <time>2018-02-14T09:51:03Z</time>
      </trkpt>
      <trkpt lat="51.688676001504064" lon="0.345039032399654">
        <ele>98</ele>
        <time>2018-02-14T09:51:04Z</time>
      </trkpt>
      <trkpt lat="51.688677007332444" lon="0.345071973279119">
        <ele>98</ele>
        <time>2018-02-14T09:51:05Z</time>
      </trkpt>
      <trkpt lat="51.688680024817586" lon="0.345106003805995">
        <ele>98</ele>
        <time>2018-02-14T09:51:06Z</time>
      </trkpt>
      <trkpt lat="51.688682958483696" lon="0.345140034332871">
        <ele>98</ele>
        <time>2018-02-14T09:51:07Z</time>
      </trkpt>
      <trkpt lat="51.688685975968838" lon="0.345172975212336">
        <ele>98.220003583954096</ele>
        <time>2018-02-14T09:51:08Z</time>
      </trkpt>
      <trkpt lat="51.688686981797218" lon="0.345208011567593">
        <ele>99</ele>
        <time>2018-02-14T09:51:09Z</time>
      </trkpt>
      <trkpt lat="51.688687987625599" lon="0.345241036266088">
        <ele>99</ele>
        <time>2018-02-14T09:51:10Z</time>
      </trkpt>
      <trkpt lat="51.688691005110741" lon="0.345274982973933">
        <ele>99</ele>
        <time>2018-02-14T09:51:11Z</time>
      </trkpt>
      <trkpt lat="51.688695028424263" lon="0.345312030985951">
        <ele>99</ele>
        <time>2018-02-14T09:51:12Z</time>
      </trkpt>
      <trkpt lat="51.688698967918754" lon="0.345346983522177">
        <ele>99</ele>
        <time>2018-02-14T09:51:13Z</time>
      </trkpt>
      <trkpt lat="51.688701985403895" lon="0.345382019877434">
        <ele>99</ele>
        <time>2018-02-14T09:51:14Z</time>
      </trkpt>
      <trkpt lat="51.688706008717418" lon="0.345415966585279">
        <ele>98.7800035840459</ele>
        <time>2018-02-14T09:51:15Z</time>
      </trkpt>
      <trkpt lat="51.688708020374179" lon="0.345448991283774">
        <ele>98.201838956280795</ele>
        <time>2018-02-14T09:51:16Z</time>
      </trkpt>
      <trkpt lat="51.688707014545798" lon="0.345484027639031">
        <ele>99</ele>
        <time>2018-02-14T09:51:17Z</time>
      </trkpt>
      <trkpt lat="51.688706008717418" lon="0.345517974346876">
        <ele>99</ele>
        <time>2018-02-14T09:51:18Z</time>
      </trkpt>
      <trkpt lat="51.688708020374179" lon="0.345554016530514">
        <ele>99</ele>
        <time>2018-02-14T09:51:19Z</time>
      </trkpt>
      <trkpt lat="51.688707014545798" lon="0.34558997489512">
        <ele>99</ele>
        <time>2018-02-14T09:51:20Z</time>
      </trkpt>
      <trkpt lat="51.688709026202559" lon="0.345622999593616">
        <ele>99</ele>
        <time>2018-02-14T09:51:21Z</time>
      </trkpt>
      <trkpt lat="51.688714977353811" lon="0.345656024292111">
        <ele>99</ele>
        <time>2018-02-14T09:51:22Z</time>
      </trkpt>
      <trkpt lat="51.688717994838953" lon="0.345687959343195">
        <ele>99</ele>
        <time>2018-02-14T09:51:23Z</time>
      </trkpt>
      <trkpt lat="51.688722018152475" lon="0.345720984041691">
        <ele>99</ele>
        <time>2018-02-14T09:51:24Z</time>
      </trkpt>
      <trkpt lat="51.688723023980856" lon="0.345756020396948">
        <ele>99</ele>
        <time>2018-02-14T09:51:25Z</time>
      </trkpt>
      <trkpt lat="51.688726041465998" lon="0.345788961276412">
        <ele>99</ele>
        <time>2018-02-14T09:51:26Z</time>
      </trkpt>
      <trkpt lat="51.688730986788869" lon="0.345821985974908">
        <ele>99</ele>
        <time>2018-02-14T09:51:27Z</time>
      </trkpt>
      <trkpt lat="51.68873299844563" lon="0.345850987359881">
        <ele>99</ele>
        <time>2018-02-14T09:51:28Z</time>
      </trkpt>
      <trkpt lat="51.688729980960488" lon="0.345907984301448">
        <ele>99</ele>
        <time>2018-02-14T09:51:30Z</time>
      </trkpt>
      <trkpt lat="51.688728975132108" lon="0.345938997343183">
        <ele>99</ele>
        <time>2018-02-14T09:51:31Z</time>
      </trkpt>
      <trkpt lat="51.68873299844563" lon="0.345973027870059">
        <ele>99</ele>
        <time>2018-02-14T09:51:32Z</time>
      </trkpt>
      <trkpt lat="51.688734004274011" lon="0.346004962921143">
        <ele>99</ele>
        <time>2018-02-14T09:51:33Z</time>
      </trkpt>
      <trkpt lat="51.688734004274011" lon="0.346035975962877">
        <ele>99</ele>
        <time>2018-02-14T09:51:34Z</time>
      </trkpt>
      <trkpt lat="51.68873299844563" lon="0.346067994832993">
        <ele>99</ele>
        <time>2018-02-14T09:51:35Z</time>
      </trkpt>
      <trkpt lat="51.688739033415914" lon="0.346102025359869">
        <ele>99</ele>
        <time>2018-02-14T09:51:36Z</time>
      </trkpt>
      <trkpt lat="51.688740961253643" lon="0.346136977896094">
        <ele>99.2199964159541</ele>
        <time>2018-02-14T09:51:37Z</time>
      </trkpt>
      <trkpt lat="51.688740961253643" lon="0.346174025908113">
        <ele>100</ele>
        <time>2018-02-14T09:51:38Z</time>
      </trkpt>
      <trkpt lat="51.688743978738785" lon="0.346206966787577">
        <ele>100</ele>
        <time>2018-02-14T09:51:39Z</time>
      </trkpt>
      <trkpt lat="51.688745990395546" lon="0.346243008971214">
        <ele>100</ele>
        <time>2018-02-14T09:51:40Z</time>
      </trkpt>
      <trkpt lat="51.688742972910404" lon="0.346277039498091">
        <ele>100</ele>
        <time>2018-02-14T09:51:41Z</time>
      </trkpt>
      <trkpt lat="51.688748002052307" lon="0.346305035054684">
        <ele>100</ele>
        <time>2018-02-14T09:51:42Z</time>
      </trkpt>
      <trkpt lat="51.68875303119421" lon="0.346365971490741">
        <ele>99.812506666666707</ele>
        <time>2018-02-14T09:51:44Z</time>
      </trkpt>
      <trkpt lat="51.688765017315745" lon="0.346418023109436">
        <ele>99</ele>
        <time>2018-02-14T09:51:46Z</time>
      </trkpt>
      <trkpt lat="51.688771974295378" lon="0.34644702449441">
        <ele>98.7800035840459</ele>
        <time>2018-02-14T09:51:47Z</time>
      </trkpt>
      <trkpt lat="51.688778009265661" lon="0.346479965373874">
        <ele>98</ele>
        <time>2018-02-14T09:51:48Z</time>
      </trkpt>
      <trkpt lat="51.688779015094042" lon="0.34651399590075">
        <ele>98</ele>
        <time>2018-02-14T09:51:49Z</time>
      </trkpt>
      <trkpt lat="51.688780020922422" lon="0.346545008942485">
        <ele>98</ele>
        <time>2018-02-14T09:51:50Z</time>
      </trkpt>
      <trkpt lat="51.688785972073674" lon="0.3465770278126">
        <ele>98</ele>
        <time>2018-02-14T09:51:51Z</time>
      </trkpt>
      <trkpt lat="51.688793012872338" lon="0.346613992005587">
        <ele>98</ele>
        <time>2018-02-14T09:51:52Z</time>
      </trkpt>
      <trkpt lat="51.688800975680351" lon="0.346647016704082">
        <ele>98</ele>
        <time>2018-02-14T09:51:53Z</time>
      </trkpt>
      <trkpt lat="51.688801981508732" lon="0.346678029745817">
        <ele>98.213597782997198</ele>
        <time>2018-02-14T09:51:54Z</time>
      </trkpt>
      <trkpt lat="51.688797036185861" lon="0.34670895896852">
        <ele>99</ele>
        <time>2018-02-14T09:51:55Z</time>
      </trkpt>
      <trkpt lat="51.68879795819521" lon="0.346752963960171">
        <ele>99</ele>
        <time>2018-02-14T09:51:57Z</time>
      </trkpt>
      <trkpt lat="51.688806004822254" lon="0.34679202362895">
        <ele>99</ele>
        <time>2018-02-14T09:51:59Z</time>
      </trkpt>
      <trkpt lat="51.688812039792538" lon="0.346826976165175">
        <ele>99</ele>
        <time>2018-02-14T09:52:01Z</time>
      </trkpt>
      <trkpt lat="51.688813967630267" lon="0.34685798920691">
        <ele>99</ele>
        <time>2018-02-14T09:52:03Z</time>
      </trkpt>
      <trkpt lat="51.688812961801887" lon="0.346893025562167">
        <ele>99</ele>
        <time>2018-02-14T09:52:05Z</time>
      </trkpt>
      <trkpt lat="51.688814973458648" lon="0.346930995583534">
        <ele>99</ele>
        <time>2018-02-14T09:52:07Z</time>
      </trkpt>
      <trkpt lat="51.688811033964157" lon="0.346967037767172">
        <ele>99</ele>
        <time>2018-02-14T09:52:09Z</time>
      </trkpt>
      <trkpt lat="51.688808016479015" lon="0.3470070194453">
        <ele>99</ele>
        <time>2018-02-14T09:52:11Z</time>
      </trkpt>
      <trkpt lat="51.688812039792538" lon="0.34704901278019">
        <ele>98.800004654572504</ele>
        <time>2018-02-14T09:52:13Z</time>
      </trkpt>
      <trkpt lat="51.688823020085692" lon="0.347113972529769">
        <ele>98</ele>
        <time>2018-02-14T09:52:15Z</time>
      </trkpt>
      <trkpt lat="51.688829977065325" lon="0.347150014713407">
        <ele>98</ele>
        <time>2018-02-14T09:52:16Z</time>
      </trkpt>
      <trkpt lat="51.688837017863989" lon="0.347183961421251">
        <ele>98</ele>
        <time>2018-02-14T09:52:17Z</time>
      </trkpt>
      <trkpt lat="51.68884196318686" lon="0.347220003604889">
        <ele>98</ele>
        <time>2018-02-14T09:52:18Z</time>
      </trkpt>
      <trkpt lat="51.688846992328763" lon="0.347255961969495">
        <ele>98</ele>
        <time>2018-02-14T09:52:19Z</time>
      </trkpt>
      <trkpt lat="51.688851015642285" lon="0.347290998324752">
        <ele>98</ele>
        <time>2018-02-14T09:52:20Z</time>
      </trkpt>
      <trkpt lat="51.688856966793537" lon="0.347324023023248">
        <ele>98</ele>
        <time>2018-02-14T09:52:21Z</time>
      </trkpt>
      <trkpt lat="51.688857972621918" lon="0.347359981387854">
        <ele>98</ele>
        <time>2018-02-14T09:52:22Z</time>
      </trkpt>
      <trkpt lat="51.688864007592201" lon="0.347396023571491">
        <ele>98</ele>
        <time>2018-02-14T09:52:23Z</time>
      </trkpt>
      <trkpt lat="51.68886199593544" lon="0.347433993592858">
        <ele>98</ele>
        <time>2018-02-14T09:52:24Z</time>
      </trkpt>
      <trkpt lat="51.688868030905724" lon="0.347470035776496">
        <ele>98</ele>
        <time>2018-02-14T09:52:25Z</time>
      </trkpt>
      <trkpt lat="51.688876999542117" lon="0.34750197082758">
        <ele>98</ele>
        <time>2018-02-14T09:52:26Z</time>
      </trkpt>
      <trkpt lat="51.688879011198878" lon="0.347533989697695">
        <ele>98</ele>
        <time>2018-02-14T09:52:27Z</time>
      </trkpt>
      <trkpt lat="51.688881022855639" lon="0.347571959719062">
        <ele>98</ele>
        <time>2018-02-14T09:52:28Z</time>
      </trkpt>
      <trkpt lat="51.68888202868402" lon="0.347615964710712">
        <ele>98</ele>
        <time>2018-02-14T09:52:29Z</time>
      </trkpt>
      <trkpt lat="51.688885968178511" lon="0.347657036036253">
        <ele>98</ele>
        <time>2018-02-14T09:52:30Z</time>
      </trkpt>
      <trkpt lat="51.688889991492033" lon="0.347700035199523">
        <ele>98</ele>
        <time>2018-02-14T09:52:31Z</time>
      </trkpt>
      <trkpt lat="51.688894014805555" lon="0.347736999392509">
        <ele>98</ele>
        <time>2018-02-14T09:52:32Z</time>
      </trkpt>
      <trkpt lat="51.688901977613568" lon="0.347775975242257">
        <ele>98</ele>
        <time>2018-02-14T09:52:33Z</time>
      </trkpt>
      <trkpt lat="51.688906000927091" lon="0.347814029082656">
        <ele>98</ele>
        <time>2018-02-14T09:52:34Z</time>
      </trkpt>
      <trkpt lat="51.688907006755471" lon="0.347849987447262">
        <ele>98.2199964159541</ele>
        <time>2018-02-14T09:52:35Z</time>
      </trkpt>
      <trkpt lat="51.688911030068994" lon="0.347886029630899">
        <ele>99</ele>
        <time>2018-02-14T09:52:36Z</time>
      </trkpt>
      <trkpt lat="51.688915975391865" lon="0.347921987995505">
        <ele>99</ele>
        <time>2018-02-14T09:52:37Z</time>
      </trkpt>
      <trkpt lat="51.688924022018909" lon="0.347955012694001">
        <ele>99</ele>
        <time>2018-02-14T09:52:38Z</time>
      </trkpt>
      <trkpt lat="51.6889279615134" lon="0.347991976886988">
        <ele>99</ele>
        <time>2018-02-14T09:52:39Z</time>
      </trkpt>
      <trkpt lat="51.6889279615134" lon="0.348028019070625">
        <ele>99</ele>
        <time>2018-02-14T09:52:40Z</time>
      </trkpt>
      <trkpt lat="51.6889279615134" lon="0.348065989091992">
        <ele>99</ele>
        <time>2018-02-14T09:52:41Z</time>
      </trkpt>
      <trkpt lat="51.688932990655303" lon="0.34810496494174">
        <ele>99</ele>
        <time>2018-02-14T09:52:42Z</time>
      </trkpt>
      <trkpt lat="51.688936008140445" lon="0.348144024610519">
        <ele>99</ele>
        <time>2018-02-14T09:52:43Z</time>
      </trkpt>
      <trkpt lat="51.688938019797206" lon="0.348183000460267">
        <ele>99</ele>
        <time>2018-02-14T09:52:44Z</time>
      </trkpt>
      <trkpt lat="51.688941037282348" lon="0.348220970481634">
        <ele>99.2199964159541</ele>
        <time>2018-02-14T09:52:45Z</time>
      </trkpt>
      <trkpt lat="51.688943970948458" lon="0.348256006836891">
        <ele>100</ele>
        <time>2018-02-14T09:52:46Z</time>
      </trkpt>
      <trkpt lat="51.688943970948458" lon="0.348294982686639">
        <ele>100</ele>
        <time>2018-02-14T09:52:47Z</time>
      </trkpt>
      <trkpt lat="51.688943970948458" lon="0.348333958536386">
        <ele>100</ele>
        <time>2018-02-14T09:52:48Z</time>
      </trkpt>
      <trkpt lat="51.688943970948458" lon="0.348378969356418">
        <ele>100</ele>
        <time>2018-02-14T09:52:49Z</time>
      </trkpt>
      <trkpt lat="51.688942965120077" lon="0.348423980176449">
        <ele>100</ele>
        <time>2018-02-14T09:52:50Z</time>
      </trkpt>
      <trkpt lat="51.688941037282348" lon="0.348463961854577">
        <ele>100</ele>
        <time>2018-02-14T09:52:51Z</time>
      </trkpt>
      <trkpt lat="51.688936008140445" lon="0.348506039008498">
        <ele>100.213597782997</ele>
        <time>2018-02-14T09:52:52Z</time>
      </trkpt>
      <trkpt lat="51.6889279615134" lon="0.348543003201485">
        <ele>101</ele>
        <time>2018-02-14T09:52:53Z</time>
      </trkpt>
      <trkpt lat="51.688915975391865" lon="0.348580973222852">
        <ele>101</ele>
        <time>2018-02-14T09:52:54Z</time>
      </trkpt>
      <trkpt lat="51.688902983441949" lon="0.348621960729361">
        <ele>101</ele>
        <time>2018-02-14T09:52:55Z</time>
      </trkpt>
      <trkpt lat="51.688889991492033" lon="0.34866102039814">
        <ele>101</ele>
        <time>2018-02-14T09:52:56Z</time>
      </trkpt>
      <trkpt lat="51.688875993713737" lon="0.348697984591126">
        <ele>101.17187</ele>
        <time>2018-02-14T09:52:57Z</time>
      </trkpt>
      <trkpt lat="51.688867025077343" lon="0.348730003461242">
        <ele>101.95312</ele>
        <time>2018-02-14T09:52:58Z</time>
      </trkpt>
      <trkpt lat="51.688854033127427" lon="0.348765961825848">
        <ele>103</ele>
        <time>2018-02-14T09:52:59Z</time>
      </trkpt>
      <trkpt lat="51.688842969015241" lon="0.348803009837866">
        <ele>103</ele>
        <time>2018-02-14T09:53:00Z</time>
      </trkpt>
      <trkpt lat="51.688836012035608" lon="0.348837962374091">
        <ele>103</ele>
        <time>2018-02-14T09:53:01Z</time>
      </trkpt>
      <trkpt lat="51.688824025914073" lon="0.348872998729348">
        <ele>103</ele>
        <time>2018-02-14T09:53:02Z</time>
      </trkpt>
      <trkpt lat="51.688811033964157" lon="0.348906023427844">
        <ele>103</ele>
        <time>2018-02-14T09:53:03Z</time>
      </trkpt>
      <trkpt lat="51.68879896402359" lon="0.348940975964069">
        <ele>103</ele>
        <time>2018-02-14T09:53:04Z</time>
      </trkpt>
      <trkpt lat="51.688787983730435" lon="0.348977018147707">
        <ele>102.79591703456001</ele>
        <time>2018-02-14T09:53:05Z</time>
      </trkpt>
      <trkpt lat="51.688777003437281" lon="0.349012976512313">
        <ele>102</ele>
        <time>2018-02-14T09:53:06Z</time>
      </trkpt>
      <trkpt lat="51.688765017315745" lon="0.349044995382428">
        <ele>102</ele>
        <time>2018-02-14T09:53:07Z</time>
      </trkpt>
      <trkpt lat="51.68875495903194" lon="0.349073996767402">
        <ele>102</ele>
        <time>2018-02-14T09:53:08Z</time>
      </trkpt>
      <trkpt lat="51.688743978738785" lon="0.349105009809136">
        <ele>102</ele>
        <time>2018-02-14T09:53:09Z</time>
      </trkpt>
      <trkpt lat="51.688734004274011" lon="0.349139040336013">
        <ele>102</ele>
        <time>2018-02-14T09:53:10Z</time>
      </trkpt>
      <trkpt lat="51.688724029809237" lon="0.349174998700619">
        <ele>102</ele>
        <time>2018-02-14T09:53:11Z</time>
      </trkpt>
      <trkpt lat="51.68871296569705" lon="0.349210035055876">
        <ele>102</ele>
        <time>2018-02-14T09:53:12Z</time>
      </trkpt>
      <trkpt lat="51.688702991232276" lon="0.349248005077243">
        <ele>102</ele>
        <time>2018-02-14T09:53:13Z</time>
      </trkpt>
      <trkpt lat="51.688693016767502" lon="0.349288992583752">
        <ele>102</ele>
        <time>2018-02-14T09:53:14Z</time>
      </trkpt>
      <trkpt lat="51.688684970140457" lon="0.349324028939009">
        <ele>102</ele>
        <time>2018-02-14T09:53:15Z</time>
      </trkpt>
      <trkpt lat="51.688676001504064" lon="0.349359987303615">
        <ele>102</ele>
        <time>2018-02-14T09:53:16Z</time>
      </trkpt>
      <trkpt lat="51.6886689607054" lon="0.349394017830491">
        <ele>102</ele>
        <time>2018-02-14T09:53:17Z</time>
      </trkpt>
      <trkpt lat="51.688653035089374" lon="0.349458977580071">
        <ele>102</ele>
        <time>2018-02-14T09:53:19Z</time>
      </trkpt>
      <trkpt lat="51.688644988462329" lon="0.349487978965044">
        <ele>102</ele>
        <time>2018-02-14T09:53:20Z</time>
      </trkpt>
      <trkpt lat="51.688637025654316" lon="0.349518992006779">
        <ele>102</ele>
        <time>2018-02-14T09:53:21Z</time>
      </trkpt>
      <trkpt lat="51.688630990684032" lon="0.349548999220133">
        <ele>102</ele>
        <time>2018-02-14T09:53:22Z</time>
      </trkpt>
      <trkpt lat="51.688611041754484" lon="0.349619993939996">
        <ele>102</ele>
        <time>2018-02-14T09:53:24Z</time>
      </trkpt>
      <trkpt lat="51.688599977642298" lon="0.34965100698173">
        <ele>102</ele>
        <time>2018-02-14T09:53:25Z</time>
      </trkpt>
      <trkpt lat="51.688590003177524" lon="0.349683025851846">
        <ele>102</ele>
        <time>2018-02-14T09:53:26Z</time>
      </trkpt>
      <trkpt lat="51.688580028712749" lon="0.34971403889358">
        <ele>102</ele>
        <time>2018-02-14T09:53:27Z</time>
      </trkpt>
      <trkpt lat="51.688568964600563" lon="0.349742034450173">
        <ele>102</ele>
        <time>2018-02-14T09:53:28Z</time>
      </trkpt>
      <trkpt lat="51.688555972650647" lon="0.349771035835147">
        <ele>102</ele>
        <time>2018-02-14T09:53:29Z</time>
      </trkpt>
      <trkpt lat="51.688542980700731" lon="0.349797019734979">
        <ele>102</ele>
        <time>2018-02-14T09:53:30Z</time>
      </trkpt>
      <trkpt lat="51.688526971265674" lon="0.349826021119952">
        <ele>102</ele>
        <time>2018-02-14T09:53:31Z</time>
      </trkpt>
      <trkpt lat="51.688512973487377" lon="0.349857034161687">
        <ele>102</ele>
        <time>2018-02-14T09:53:32Z</time>
      </trkpt>
      <trkpt lat="51.6884979698807" lon="0.34988896921277">
        <ele>102</ele>
        <time>2018-02-14T09:53:33Z</time>
      </trkpt>
      <trkpt lat="51.688483972102404" lon="0.349917970597744">
        <ele>102</ele>
        <time>2018-02-14T09:53:34Z</time>
      </trkpt>
      <trkpt lat="51.688470980152488" lon="0.349949989467859">
        <ele>102</ele>
        <time>2018-02-14T09:53:35Z</time>
      </trkpt>
      <trkpt lat="51.688455976545811" lon="0.349976979196072">
        <ele>102</ele>
        <time>2018-02-14T09:53:36Z</time>
      </trkpt>
      <trkpt lat="51.688441978767514" lon="0.350006986409426">
        <ele>102</ele>
        <time>2018-02-14T09:53:37Z</time>
      </trkpt>
      <trkpt lat="51.688426975160837" lon="0.350044034421444">
        <ele>102</ele>
        <time>2018-02-14T09:53:38Z</time>
      </trkpt>
      <trkpt lat="51.68841197155416" lon="0.350077981129289">
        <ele>101.780003584046</ele>
        <time>2018-02-14T09:53:39Z</time>
      </trkpt>
      <trkpt lat="51.688377019017935" lon="0.350220976397395">
        <ele>101</ele>
        <time>2018-02-14T09:53:44Z</time>
      </trkpt>
      <trkpt lat="51.688342988491058" lon="0.350376041606069">
        <ele>101</ele>
        <time>2018-02-14T09:53:49Z</time>
      </trkpt>
      <trkpt lat="51.68832203373313" lon="0.350539991632104">
        <ele>101</ele>
        <time>2018-02-14T09:53:54Z</time>
      </trkpt>
      <trkpt lat="51.688286997377872" lon="0.350636970251799">
        <ele>101</ele>
        <time>2018-02-14T09:53:57Z</time>
      </trkpt>
      <trkpt lat="51.68826000764966" lon="0.350747024640441">
        <ele>101</ele>
        <time>2018-02-14T09:54:00Z</time>
      </trkpt>
      <trkpt lat="51.688249027356505" lon="0.350781977176666">
        <ele>101</ele>
        <time>2018-02-14T09:54:01Z</time>
      </trkpt>
      <trkpt lat="51.6882389690727" lon="0.35081198439002">
        <ele>101</ele>
        <time>2018-02-14T09:54:02Z</time>
      </trkpt>
      <trkpt lat="51.688232012093067" lon="0.350838974118233">
        <ele>101</ele>
        <time>2018-02-14T09:54:03Z</time>
      </trkpt>
      <trkpt lat="51.688224971294403" lon="0.35087401047349">
        <ele>101</ele>
        <time>2018-02-14T09:54:04Z</time>
      </trkpt>
      <trkpt lat="51.688221031799912" lon="0.350908963009715">
        <ele>101</ele>
        <time>2018-02-14T09:54:05Z</time>
      </trkpt>
      <trkpt lat="51.688218014314771" lon="0.350951040163636">
        <ele>101</ele>
        <time>2018-02-14T09:54:06Z</time>
      </trkpt>
      <trkpt lat="51.688214996829629" lon="0.35098297521472">
        <ele>101</ele>
        <time>2018-02-14T09:54:07Z</time>
      </trkpt>
      <trkpt lat="51.688213991001248" lon="0.351012982428074">
        <ele>101</ele>
        <time>2018-02-14T09:54:08Z</time>
      </trkpt>
      <trkpt lat="51.688207034021616" lon="0.351042989641428">
        <ele>101</ele>
        <time>2018-02-14T09:54:09Z</time>
      </trkpt>
      <trkpt lat="51.688199993222952" lon="0.351080959662795">
        <ele>101</ele>
        <time>2018-02-14T09:54:10Z</time>
      </trkpt>
      <trkpt lat="51.688191024586558" lon="0.351114990189672">
        <ele>101</ele>
        <time>2018-02-14T09:54:11Z</time>
      </trkpt>
      <trkpt lat="51.688182977959514" lon="0.351144997403026">
        <ele>101</ele>
        <time>2018-02-14T09:54:12Z</time>
      </trkpt>
      <trkpt lat="51.688170991837978" lon="0.351181039586663">
        <ele>101</ele>
        <time>2018-02-14T09:54:13Z</time>
      </trkpt>
      <trkpt lat="51.68815297074616" lon="0.35121800377965">
        <ele>101</ele>
        <time>2018-02-14T09:54:14Z</time>
      </trkpt>
      <trkpt lat="51.688138972967863" lon="0.351252034306526">
        <ele>101</ele>
        <time>2018-02-14T09:54:15Z</time>
      </trkpt>
      <trkpt lat="51.688126986846328" lon="0.351293021813035">
        <ele>101</ele>
        <time>2018-02-14T09:54:16Z</time>
      </trkpt>
      <trkpt lat="51.68811097741127" lon="0.351331997662783">
        <ele>101</ele>
        <time>2018-02-14T09:54:17Z</time>
      </trkpt>
      <trkpt lat="51.688098991289735" lon="0.35136803984642">
        <ele>100.779996416046</ele>
        <time>2018-02-14T09:54:18Z</time>
      </trkpt>
      <trkpt lat="51.688085999339819" lon="0.351397963240743">
        <ele>100</ele>
        <time>2018-02-14T09:54:19Z</time>
      </trkpt>
      <trkpt lat="51.688070995733142" lon="0.351428976282477">
        <ele>100</ele>
        <time>2018-02-14T09:54:20Z</time>
      </trkpt>
      <trkpt lat="51.688059009611607" lon="0.351465018466115">
        <ele>100</ele>
        <time>2018-02-14T09:54:21Z</time>
      </trkpt>
      <trkpt lat="51.68804400600493" lon="0.351505000144243">
        <ele>100</ele>
        <time>2018-02-14T09:54:22Z</time>
      </trkpt>
      <trkpt lat="51.688032019883394" lon="0.351545987650752">
        <ele>100</ele>
        <time>2018-02-14T09:54:23Z</time>
      </trkpt>
      <trkpt lat="51.68802103959024" lon="0.35158596932888">
        <ele>100</ele>
        <time>2018-02-14T09:54:24Z</time>
      </trkpt>
      <trkpt lat="51.688010981306434" lon="0.351621005684137">
        <ele>100</ele>
        <time>2018-02-14T09:54:25Z</time>
      </trkpt>
      <trkpt lat="51.688000001013279" lon="0.351660987362266">
        <ele>100</ele>
        <time>2018-02-14T09:54:26Z</time>
      </trkpt>
      <trkpt lat="51.687992038205266" lon="0.351698035374284">
        <ele>100</ele>
        <time>2018-02-14T09:54:27Z</time>
      </trkpt>
      <trkpt lat="51.68798097409308" lon="0.35173499956727">
        <ele>100</ele>
        <time>2018-02-14T09:54:28Z</time>
      </trkpt>
      <trkpt lat="51.687967982143164" lon="0.351771041750908">
        <ele>100</ele>
        <time>2018-02-14T09:54:29Z</time>
      </trkpt>
      <trkpt lat="51.68795901350677" lon="0.351805994287133">
        <ele>100</ele>
        <time>2018-02-14T09:54:30Z</time>
      </trkpt>
      <trkpt lat="51.687949961051345" lon="0.351838013157249">
        <ele>100</ele>
        <time>2018-02-14T09:54:31Z</time>
      </trkpt>
      <trkpt lat="51.687939986586571" lon="0.351870032027364">
        <ele>100</ele>
        <time>2018-02-14T09:54:32Z</time>
      </trkpt>
      <trkpt lat="51.687932023778558" lon="0.35190599039197">
        <ele>100</ele>
        <time>2018-02-14T09:54:33Z</time>
      </trkpt>
      <trkpt lat="51.687925988808274" lon="0.351937003433704">
        <ele>99</ele>
        <time>2018-02-14T09:54:34Z</time>
      </trkpt>
      <trkpt lat="51.687919031828642" lon="0.351971033960581">
        <ele>99</ele>
        <time>2018-02-14T09:54:35Z</time>
      </trkpt>
      <trkpt lat="51.687908973544836" lon="0.352007998153567">
        <ele>99</ele>
        <time>2018-02-14T09:54:36Z</time>
      </trkpt>
      <trkpt lat="51.687900004908442" lon="0.352044040337205">
        <ele>99</ele>
        <time>2018-02-14T09:54:37Z</time>
      </trkpt>
      <trkpt lat="51.687890030443668" lon="0.352075975388289">
        <ele>99</ele>
        <time>2018-02-14T09:54:38Z</time>
      </trkpt>
      <trkpt lat="51.687880977988243" lon="0.352103970944881">
        <ele>99</ele>
        <time>2018-02-14T09:54:39Z</time>
      </trkpt>
      <trkpt lat="51.68787200935185" lon="0.352133978158236">
        <ele>99.213597782997198</ele>
        <time>2018-02-14T09:54:40Z</time>
      </trkpt>
      <trkpt lat="51.687864968553185" lon="0.352165997028351">
        <ele>100</ele>
        <time>2018-02-14T09:54:41Z</time>
      </trkpt>
      <trkpt lat="51.687854994088411" lon="0.352193992584944">
        <ele>100</ele>
        <time>2018-02-14T09:54:42Z</time>
      </trkpt>
      <trkpt lat="51.687845019623637" lon="0.352220982313156">
        <ele>100</ele>
        <time>2018-02-14T09:54:43Z</time>
      </trkpt>
      <trkpt lat="51.687834961339831" lon="0.35225098952651">
        <ele>100</ele>
        <time>2018-02-14T09:54:44Z</time>
      </trkpt>
      <trkpt lat="51.687824986875057" lon="0.352282002568245">
        <ele>100</ele>
        <time>2018-02-14T09:54:45Z</time>
      </trkpt>
      <trkpt lat="51.687814006581903" lon="0.352316033095121">
        <ele>100</ele>
        <time>2018-02-14T09:54:46Z</time>
      </trkpt>
      <trkpt lat="51.687803026288748" lon="0.352351991459727">
        <ele>100</ele>
        <time>2018-02-14T09:54:47Z</time>
      </trkpt>
      <trkpt lat="51.687794979661703" lon="0.352384010329843">
        <ele>100</ele>
        <time>2018-02-14T09:54:48Z</time>
      </trkpt>
      <trkpt lat="51.687785005196929" lon="0.352418040856719">
        <ele>99.7800035840459</ele>
        <time>2018-02-14T09:54:49Z</time>
      </trkpt>
      <trkpt lat="51.687777964398265" lon="0.352451987564564">
        <ele>99</ele>
        <time>2018-02-14T09:54:50Z</time>
      </trkpt>
      <trkpt lat="51.687767989933491" lon="0.352487023919821">
        <ele>99</ele>
        <time>2018-02-14T09:54:51Z</time>
      </trkpt>
      <trkpt lat="51.687758015468717" lon="0.352523988112807">
        <ele>99</ele>
        <time>2018-02-14T09:54:52Z</time>
      </trkpt>
      <trkpt lat="51.687747035175562" lon="0.352557012811303">
        <ele>99</ele>
        <time>2018-02-14T09:54:53Z</time>
      </trkpt>
      <trkpt lat="51.687735971063375" lon="0.352591965347528">
        <ele>99</ele>
        <time>2018-02-14T09:54:54Z</time>
      </trkpt>
      <trkpt lat="51.687725996598601" lon="0.352621972560883">
        <ele>99</ele>
        <time>2018-02-14T09:54:55Z</time>
      </trkpt>
      <trkpt lat="51.687718033790588" lon="0.352651979774237">
        <ele>99</ele>
        <time>2018-02-14T09:54:56Z</time>
      </trkpt>
      <trkpt lat="51.687706969678402" lon="0.352682992815971">
        <ele>99</ele>
        <time>2018-02-14T09:54:57Z</time>
      </trkpt>
      <trkpt lat="51.687694983556867" lon="0.352717023342848">
        <ele>99</ele>
        <time>2018-02-14T09:54:58Z</time>
      </trkpt>
      <trkpt lat="51.687682997435331" lon="0.352751975879073">
        <ele>99</ele>
        <time>2018-02-14T09:54:59Z</time>
      </trkpt>
      <trkpt lat="51.687673022970557" lon="0.35278701223433">
        <ele>99</ele>
        <time>2018-02-14T09:55:00Z</time>
      </trkpt>
      <trkpt lat="51.687663970515132" lon="0.352816013619304">
        <ele>98.7800035840459</ele>
        <time>2018-02-14T09:55:01Z</time>
      </trkpt>
      <trkpt lat="51.687653996050358" lon="0.352847026661038">
        <ele>98</ele>
        <time>2018-02-14T09:55:02Z</time>
      </trkpt>
      <trkpt lat="51.687644021585584" lon="0.352878039702773">
        <ele>98</ele>
        <time>2018-02-14T09:55:03Z</time>
      </trkpt>
      <trkpt lat="51.687632035464048" lon="0.352911986410618">
        <ele>98</ele>
        <time>2018-02-14T09:55:04Z</time>
      </trkpt>
      <trkpt lat="51.687621977180243" lon="0.352948028594255">
        <ele>98</ele>
        <time>2018-02-14T09:55:05Z</time>
      </trkpt>
      <trkpt lat="51.687609991058707" lon="0.352982981130481">
        <ele>98</ele>
        <time>2018-02-14T09:55:06Z</time>
      </trkpt>
      <trkpt lat="51.687598004937172" lon="0.353012988343835">
        <ele>98</ele>
        <time>2018-02-14T09:55:07Z</time>
      </trkpt>
      <trkpt lat="51.687588030472398" lon="0.353050036355853">
        <ele>98</ele>
        <time>2018-02-14T09:55:08Z</time>
      </trkpt>
      <trkpt lat="51.687581995502114" lon="0.353091023862362">
        <ele>98</ele>
        <time>2018-02-14T09:55:09Z</time>
      </trkpt>
      <trkpt lat="51.68757202103734" lon="0.353134023025632">
        <ele>98</ele>
        <time>2018-02-14T09:55:10Z</time>
      </trkpt>
      <trkpt lat="51.687565986067057" lon="0.353175010532141">
        <ele>98</ele>
        <time>2018-02-14T09:55:11Z</time>
      </trkpt>
      <trkpt lat="51.687558023259044" lon="0.35321700386703">
        <ele>99</ele>
        <time>2018-02-14T09:55:12Z</time>
      </trkpt>
      <trkpt lat="51.687549976631999" lon="0.353253968060017">
        <ele>99</ele>
        <time>2018-02-14T09:55:13Z</time>
      </trkpt>
      <trkpt lat="51.687540002167225" lon="0.353293027728796">
        <ele>99</ele>
        <time>2018-02-14T09:55:14Z</time>
      </trkpt>
      <trkpt lat="51.687532039359212" lon="0.353330997750163">
        <ele>98.798170416647096</ele>
        <time>2018-02-14T09:55:15Z</time>
      </trkpt>
      <trkpt lat="51.687527010217309" lon="0.353363016620278">
        <ele>98</ele>
        <time>2018-02-14T09:55:16Z</time>
      </trkpt>
      <trkpt lat="51.687518041580915" lon="0.353396041318774">
        <ele>98</ele>
        <time>2018-02-14T09:55:17Z</time>
      </trkpt>
      <trkpt lat="51.687509994953871" lon="0.353427976369858">
        <ele>98</ele>
        <time>2018-02-14T09:55:18Z</time>
      </trkpt>
      <trkpt lat="51.687502032145858" lon="0.353458989411592">
        <ele>98</ele>
        <time>2018-02-14T09:55:19Z</time>
      </trkpt>
      <trkpt lat="51.687491973862052" lon="0.353493019938469">
        <ele>98</ele>
        <time>2018-02-14T09:55:20Z</time>
      </trkpt>
      <trkpt lat="51.687479987740517" lon="0.353527972474694">
        <ele>98</ele>
        <time>2018-02-14T09:55:21Z</time>
      </trkpt>
      <trkpt lat="51.687468001618981" lon="0.353565020486712">
        <ele>98</ele>
        <time>2018-02-14T09:55:22Z</time>
      </trkpt>
      <trkpt lat="51.687457021325827" lon="0.353598967194557">
        <ele>98</ele>
        <time>2018-02-14T09:55:23Z</time>
      </trkpt>
      <trkpt lat="51.687447968870401" lon="0.353629980236292">
        <ele>98</ele>
        <time>2018-02-14T09:55:24Z</time>
      </trkpt>
      <trkpt lat="51.687436988577247" lon="0.353665016591549">
        <ele>98</ele>
        <time>2018-02-14T09:55:25Z</time>
      </trkpt>
      <trkpt lat="51.687430031597614" lon="0.353695023804903">
        <ele>98</ele>
        <time>2018-02-14T09:55:26Z</time>
      </trkpt>
      <trkpt lat="51.687419973313808" lon="0.353724025189877">
        <ele>98</ele>
        <time>2018-02-14T09:55:27Z</time>
      </trkpt>
      <trkpt lat="51.687414022162557" lon="0.353755038231611">
        <ele>98</ele>
        <time>2018-02-14T09:55:28Z</time>
      </trkpt>
      <trkpt lat="51.687403041869402" lon="0.353784961625934">
        <ele>98</ele>
        <time>2018-02-14T09:55:29Z</time>
      </trkpt>
      <trkpt lat="51.687393989413977" lon="0.353816980496049">
        <ele>98</ele>
        <time>2018-02-14T09:55:30Z</time>
      </trkpt>
      <trkpt lat="51.687382003292441" lon="0.353846987709403">
        <ele>98</ele>
        <time>2018-02-14T09:55:31Z</time>
      </trkpt>
      <trkpt lat="51.687368005514145" lon="0.353878000751138">
        <ele>98</ele>
        <time>2018-02-14T09:55:32Z</time>
      </trkpt>
      <trkpt lat="51.687354007735848" lon="0.353911025449634">
        <ele>98</ele>
        <time>2018-02-14T09:55:33Z</time>
      </trkpt>
      <trkpt lat="51.687339004129171" lon="0.353944972157478">
        <ele>98</ele>
        <time>2018-02-14T09:55:34Z</time>
      </trkpt>
      <trkpt lat="51.687330035492778" lon="0.353976991027594">
        <ele>98</ele>
        <time>2018-02-14T09:55:35Z</time>
      </trkpt>
      <trkpt lat="51.687320983037353" lon="0.354005992412567">
        <ele>98</ele>
        <time>2018-02-14T09:55:36Z</time>
      </trkpt>
      <trkpt lat="51.687307991087437" lon="0.354035999625921">
        <ele>98</ele>
        <time>2018-02-14T09:55:37Z</time>
      </trkpt>
      <trkpt lat="51.687299022451043" lon="0.354063995182514">
        <ele>98</ele>
        <time>2018-02-14T09:55:38Z</time>
      </trkpt>
      <trkpt lat="51.687287958338857" lon="0.354087967425585">
        <ele>98</ele>
        <time>2018-02-14T09:55:39Z</time>
      </trkpt>
      <trkpt lat="51.687259962782264" lon="0.354125015437603">
        <ele>98</ele>
        <time>2018-02-14T09:55:41Z</time>
      </trkpt>
      <trkpt lat="51.687240013852715" lon="0.354158040136099">
        <ele>98</ele>
        <time>2018-02-14T09:55:43Z</time>
      </trkpt>
      <trkpt lat="51.68722802773118" lon="0.354187041521072">
        <ele>98</ele>
        <time>2018-02-14T09:55:45Z</time>
      </trkpt>
      <trkpt lat="51.687212018296123" lon="0.354220988228917">
        <ele>97</ele>
        <time>2018-02-14T09:55:47Z</time>
      </trkpt>
      <trkpt lat="51.687188968062401" lon="0.354233980178833">
        <ele>97.952760587796604</ele>
        <time>2018-02-14T09:55:49Z</time>
      </trkpt>
      <trkpt lat="51.687166001647711" lon="0.354250995442271">
        <ele>99</ele>
        <time>2018-02-14T09:55:53Z</time>
      </trkpt>
      <trkpt lat="51.687145968899131" lon="0.354273961856961">
        <ele>99</ele>
        <time>2018-02-14T09:55:55Z</time>
      </trkpt>
      <trkpt lat="51.687127025797963" lon="0.354295000433922">
        <ele>97.7800035840459</ele>
        <time>2018-02-14T09:55:57Z</time>
      </trkpt>
      <trkpt lat="51.687106993049383" lon="0.354322995990515">
        <ele>97</ele>
        <time>2018-02-14T09:55:59Z</time>
      </trkpt>
      <trkpt lat="51.687090983614326" lon="0.354345962405205">
        <ele>97</ele>
        <time>2018-02-14T09:56:01Z</time>
      </trkpt>
      <trkpt lat="51.687074974179268" lon="0.354360966011882">
        <ele>97</ele>
        <time>2018-02-14T09:56:02Z</time>
      </trkpt>
      <trkpt lat="51.687057036906481" lon="0.354388961568475">
        <ele>98</ele>
        <time>2018-02-14T09:56:04Z</time>
      </trkpt>
      <trkpt lat="51.687044966965914" lon="0.354408994317055">
        <ele>98</ele>
        <time>2018-02-14T09:56:05Z</time>
      </trkpt>
      <trkpt lat="51.687028035521507" lon="0.354434978216887">
        <ele>97.805305724836302</ele>
        <time>2018-02-14T09:56:06Z</time>
      </trkpt>
      <trkpt lat="51.687008002772927" lon="0.354460040107369">
        <ele>97</ele>
        <time>2018-02-14T09:56:07Z</time>
      </trkpt>
      <trkpt lat="51.686985036358237" lon="0.354493986815214">
        <ele>97</ele>
        <time>2018-02-14T09:56:08Z</time>
      </trkpt>
      <trkpt lat="51.68697196058929" lon="0.354518964886665">
        <ele>97</ele>
        <time>2018-02-14T09:56:09Z</time>
      </trkpt>
      <trkpt lat="51.686957040801644" lon="0.354542015120387">
        <ele>97</ele>
        <time>2018-02-14T09:56:10Z</time>
      </trkpt>
      <trkpt lat="51.686937008053064" lon="0.354562969878316">
        <ele>97</ele>
        <time>2018-02-14T09:56:11Z</time>
      </trkpt>
      <trkpt lat="51.686922004446387" lon="0.354580990970135">
        <ele>97</ele>
        <time>2018-02-14T09:56:12Z</time>
      </trkpt>
      <trkpt lat="51.686909012496471" lon="0.354602029547095">
        <ele>97</ele>
        <time>2018-02-14T09:56:13Z</time>
      </trkpt>
      <trkpt lat="51.686880011111498" lon="0.354646034538746">
        <ele>97</ele>
        <time>2018-02-14T09:56:15Z</time>
      </trkpt>
      <trkpt lat="51.68686299584806" lon="0.354673024266958">
        <ele>97</ele>
        <time>2018-02-14T09:56:16Z</time>
      </trkpt>
      <trkpt lat="51.686846986413002" lon="0.354698002338409">
        <ele>97</ele>
        <time>2018-02-14T09:56:17Z</time>
      </trkpt>
      <trkpt lat="51.686836006119847" lon="0.354723986238241">
        <ele>97</ele>
        <time>2018-02-14T09:56:18Z</time>
      </trkpt>
      <trkpt lat="51.686798958107829" lon="0.354782994836569">
        <ele>97</ele>
        <time>2018-02-14T09:56:20Z</time>
      </trkpt>
      <trkpt lat="51.686779009178281" lon="0.354813002049923">
        <ele>97</ele>
        <time>2018-02-14T09:56:21Z</time>
      </trkpt>
      <trkpt lat="51.686766017228365" lon="0.354840997606516">
        <ele>97</ele>
        <time>2018-02-14T09:56:22Z</time>
      </trkpt>
      <trkpt lat="51.686750007793307" lon="0.354869998991489">
        <ele>96.794396660007394</ele>
        <time>2018-02-14T09:56:23Z</time>
      </trkpt>
      <trkpt lat="51.686732992529869" lon="0.354901012033224">
        <ele>96</ele>
        <time>2018-02-14T09:56:24Z</time>
      </trkpt>
      <trkpt lat="51.686717988923192" lon="0.35493403673172">
        <ele>96</ele>
        <time>2018-02-14T09:56:25Z</time>
      </trkpt>
      <trkpt lat="51.686698962002993" lon="0.354963960126042">
        <ele>96</ele>
        <time>2018-02-14T09:56:26Z</time>
      </trkpt>
      <trkpt lat="51.686683036386967" lon="0.354990027844906">
        <ele>96</ele>
        <time>2018-02-14T09:56:27Z</time>
      </trkpt>
      <trkpt lat="51.68666803278029" lon="0.355014000087976">
        <ele>96</ele>
        <time>2018-02-14T09:56:28Z</time>
      </trkpt>
      <trkpt lat="51.686651017516851" lon="0.35504300147295">
        <ele>96</ele>
        <time>2018-02-14T09:56:29Z</time>
      </trkpt>
      <trkpt lat="51.686634002253413" lon="0.355069991201162">
        <ele>96</ele>
        <time>2018-02-14T09:56:30Z</time>
      </trkpt>
      <trkpt lat="51.686617992818356" lon="0.355094969272614">
        <ele>96</ele>
        <time>2018-02-14T09:56:31Z</time>
      </trkpt>
      <trkpt lat="51.686600977554917" lon="0.355119025334716">
        <ele>96</ele>
        <time>2018-02-14T09:56:32Z</time>
      </trkpt>
      <trkpt lat="51.68658304028213" lon="0.355147020891309">
        <ele>96</ele>
        <time>2018-02-14T09:56:33Z</time>
      </trkpt>
      <trkpt lat="51.686571976169944" lon="0.355178033933043">
        <ele>95.786402217002802</ele>
        <time>2018-02-14T09:56:34Z</time>
      </trkpt>
      <trkpt lat="51.68656200170517" lon="0.355210974812508">
        <ele>95</ele>
        <time>2018-02-14T09:56:35Z</time>
      </trkpt>
      <trkpt lat="51.686550015583634" lon="0.355240982025862">
        <ele>95</ele>
        <time>2018-02-14T09:56:36Z</time>
      </trkpt>
      <trkpt lat="51.686537023633718" lon="0.355262020602822">
        <ele>95</ele>
        <time>2018-02-14T09:56:37Z</time>
      </trkpt>
      <trkpt lat="51.686516990885139" lon="0.355289010331035">
        <ele>95</ele>
        <time>2018-02-14T09:56:39Z</time>
      </trkpt>
      <trkpt lat="51.686497963964939" lon="0.355310970917344">
        <ele>96</ele>
        <time>2018-02-14T09:56:49Z</time>
      </trkpt>
      <trkpt lat="51.686486983671784" lon="0.355334021151066">
        <ele>95.7800035840459</ele>
        <time>2018-02-14T09:56:51Z</time>
      </trkpt>
      <trkpt lat="51.68647700920701" lon="0.355358999222517">
        <ele>95</ele>
        <time>2018-02-14T09:56:53Z</time>
      </trkpt>
      <trkpt lat="51.686464017257094" lon="0.355380959808826">
        <ele>95</ele>
        <time>2018-02-14T09:56:55Z</time>
      </trkpt>
      <trkpt lat="51.686457982286811" lon="0.355419013649225">
        <ele>94</ele>
        <time>2018-02-14T09:56:58Z</time>
      </trkpt>
      <trkpt lat="51.686460999771953" lon="0.355449020862579">
        <ele>94</ele>
        <time>2018-02-14T09:57:00Z</time>
      </trkpt>
      <trkpt lat="51.686468962579966" lon="0.355483973398805">
        <ele>94.209518352817796</ele>
        <time>2018-02-14T09:57:03Z</time>
      </trkpt>
      <trkpt lat="51.686465023085475" lon="0.355508029460907">
        <ele>96</ele>
        <time>2018-02-14T09:57:12Z</time>
      </trkpt>
      <trkpt lat="51.686468962579966" lon="0.35553895868361">
        <ele>95</ele>
        <time>2018-02-14T09:57:18Z</time>
      </trkpt>
      <trkpt lat="51.686474997550249" lon="0.355569971725345">
        <ele>95</ele>
        <time>2018-02-14T09:57:20Z</time>
      </trkpt>
      <trkpt lat="51.686485977843404" lon="0.355595033615828">
        <ele>95</ele>
        <time>2018-02-14T09:57:22Z</time>
      </trkpt>
      <trkpt lat="51.686508022248745" lon="0.355624035000801">
        <ele>95</ele>
        <time>2018-02-14T09:57:24Z</time>
      </trkpt>
      <trkpt lat="51.6865190025419" lon="0.355652030557394">
        <ele>96</ele>
        <time>2018-02-14T09:57:26Z</time>
      </trkpt>
      <trkpt lat="51.686528977006674" lon="0.355681031942368">
        <ele>96</ele>
        <time>2018-02-14T09:57:28Z</time>
      </trkpt>
      <trkpt lat="51.68654297478497" lon="0.355713972821832">
        <ele>96</ele>
        <time>2018-02-14T09:57:30Z</time>
      </trkpt>
      <trkpt lat="51.686559990048409" lon="0.35575202666223">
        <ele>96</ele>
        <time>2018-02-14T09:57:32Z</time>
      </trkpt>
      <trkpt lat="51.686581028625369" lon="0.355796031653881">
        <ele>96</ele>
        <time>2018-02-14T09:57:34Z</time>
      </trkpt>
      <trkpt lat="51.686597038060427" lon="0.355844981968403">
        <ele>96</ele>
        <time>2018-02-14T09:57:36Z</time>
      </trkpt>
      <trkpt lat="51.686609024181962" lon="0.355896027758718">
        <ele>96</ele>
        <time>2018-02-14T09:57:38Z</time>
      </trkpt>
      <trkpt lat="51.686632996425033" lon="0.355942966416478">
        <ele>96</ele>
        <time>2018-02-14T09:57:40Z</time>
      </trkpt>
      <trkpt lat="51.686643976718187" lon="0.3559660166502">
        <ele>96</ele>
        <time>2018-02-14T09:57:41Z</time>
      </trkpt>
      <trkpt lat="51.686657974496484" lon="0.355984959751368">
        <ele>96</ele>
        <time>2018-02-14T09:57:42Z</time>
      </trkpt>
      <trkpt lat="51.686675995588303" lon="0.356004992499948">
        <ele>96</ele>
        <time>2018-02-14T09:57:43Z</time>
      </trkpt>
      <trkpt lat="51.686689993366599" lon="0.356023013591766">
        <ele>96</ele>
        <time>2018-02-14T09:57:44Z</time>
      </trkpt>
      <trkpt lat="51.68671396560967" lon="0.356059977784753">
        <ele>96</ele>
        <time>2018-02-14T09:57:46Z</time>
      </trkpt>
      <trkpt lat="51.68673399835825" lon="0.356098031625152">
        <ele>96</ele>
        <time>2018-02-14T09:57:48Z</time>
      </trkpt>
      <trkpt lat="51.686752019450068" lon="0.356128960847855">
        <ele>96</ele>
        <time>2018-02-14T09:57:50Z</time>
      </trkpt>
      <trkpt lat="51.68677699752152" lon="0.35616198554635">
        <ele>96</ele>
        <time>2018-02-14T09:57:52Z</time>
      </trkpt>
      <trkpt lat="51.686794012784958" lon="0.356176989153028">
        <ele>96</ele>
        <time>2018-02-14T09:57:53Z</time>
      </trkpt>
      <trkpt lat="51.686823014169931" lon="0.356209008023143">
        <ele>96</ele>
        <time>2018-02-14T09:57:55Z</time>
      </trkpt>
      <trkpt lat="51.686855033040047" lon="0.356243038550019">
        <ele>96</ele>
        <time>2018-02-14T09:57:57Z</time>
      </trkpt>
      <trkpt lat="51.686874981969595" lon="0.356253013014793">
        <ele>96</ele>
        <time>2018-02-14T09:57:58Z</time>
      </trkpt>
      <trkpt lat="51.686893003061414" lon="0.356264999136329">
        <ele>96</ele>
        <time>2018-02-14T09:57:59Z</time>
      </trkpt>
      <trkpt lat="51.686910018324852" lon="0.356280002743006">
        <ele>96</ele>
        <time>2018-02-14T09:58:00Z</time>
      </trkpt>
      <trkpt lat="51.68692602775991" lon="0.356294000521302">
        <ele>96</ele>
        <time>2018-02-14T09:58:01Z</time>
      </trkpt>
      <trkpt lat="51.686943965032697" lon="0.356307998299599">
        <ele>96</ele>
        <time>2018-02-14T09:58:02Z</time>
      </trkpt>
      <trkpt lat="51.686965003609657" lon="0.356323001906276">
        <ele>96</ele>
        <time>2018-02-14T09:58:03Z</time>
      </trkpt>
      <trkpt lat="51.686986964195967" lon="0.356335993856192">
        <ele>96</ele>
        <time>2018-02-14T09:58:04Z</time>
      </trkpt>
      <trkpt lat="51.687006996944547" lon="0.356348985806108">
        <ele>96</ele>
        <time>2018-02-14T09:58:05Z</time>
      </trkpt>
      <trkpt lat="51.687024012207985" lon="0.356360971927643">
        <ele>96</ele>
        <time>2018-02-14T09:58:06Z</time>
      </trkpt>
      <trkpt lat="51.687039015814662" lon="0.356379998847842">
        <ele>96</ele>
        <time>2018-02-14T09:58:08Z</time>
      </trkpt>
      <trkpt lat="51.687060976400971" lon="0.356401037424803">
        <ele>96.220003583954096</ele>
        <time>2018-02-14T09:58:10Z</time>
      </trkpt>
      <trkpt lat="51.687067011371255" lon="0.356434984132648">
        <ele>97</ele>
        <time>2018-02-14T09:58:15Z</time>
      </trkpt>
      <trkpt lat="51.687088971957564" lon="0.356467003002763">
        <ele>96.779996416045904</ele>
        <time>2018-02-14T09:58:18Z</time>
      </trkpt>
      <trkpt lat="51.687111016362906" lon="0.356501033529639">
        <ele>96</ele>
        <time>2018-02-14T09:58:20Z</time>
      </trkpt>
      <trkpt lat="51.687129037454724" lon="0.356528023257852">
        <ele>96</ele>
        <time>2018-02-14T09:58:22Z</time>
      </trkpt>
      <trkpt lat="51.687145968899131" lon="0.356559958308935">
        <ele>96.171880000000002</ele>
        <time>2018-02-14T09:58:24Z</time>
      </trkpt>
      <trkpt lat="51.687162984162569" lon="0.356583008542657">
        <ele>98</ele>
        <time>2018-02-14T09:58:26Z</time>
      </trkpt>
      <trkpt lat="51.687176981940866" lon="0.356598012149334">
        <ele>98</ele>
        <time>2018-02-14T09:58:28Z</time>
      </trkpt>
      <trkpt lat="51.687200032174587" lon="0.356623996049166">
        <ele>98</ele>
        <time>2018-02-14T09:58:31Z</time>
      </trkpt>
      <trkpt lat="51.687214029952884" lon="0.356647968292236">
        <ele>97</ele>
        <time>2018-02-14T09:58:33Z</time>
      </trkpt>
      <trkpt lat="51.68723096139729" lon="0.356664983555675">
        <ele>97</ele>
        <time>2018-02-14T09:58:35Z</time>
      </trkpt>
      <trkpt lat="51.687248982489109" lon="0.356679987162352">
        <ele>97</ele>
        <time>2018-02-14T09:58:37Z</time>
      </trkpt>
      <trkpt lat="51.687264991924167" lon="0.356694990769029">
        <ele>97</ele>
        <time>2018-02-14T09:58:39Z</time>
      </trkpt>
      <trkpt lat="51.687279995530844" lon="0.356712006032467">
        <ele>97</ele>
        <time>2018-02-14T09:58:41Z</time>
      </trkpt>
      <trkpt lat="51.687296004965901" lon="0.356726003810763">
        <ele>97</ele>
        <time>2018-02-14T09:58:43Z</time>
      </trkpt>
      <trkpt lat="51.687311008572578" lon="0.356742013245821">
        <ele>97</ele>
        <time>2018-02-14T09:58:45Z</time>
      </trkpt>
      <trkpt lat="51.687329029664397" lon="0.35676296800375">
        <ele>97</ele>
        <time>2018-02-14T09:58:55Z</time>
      </trkpt>
      <trkpt lat="51.687345039099455" lon="0.356779983267188">
        <ele>97</ele>
        <time>2018-02-14T09:58:57Z</time>
      </trkpt>
      <trkpt lat="51.687361970543861" lon="0.356795992702246">
        <ele>97</ele>
        <time>2018-02-14T09:58:59Z</time>
      </trkpt>
      <trkpt lat="51.687382003292441" lon="0.356818037107587">
        <ele>96</ele>
        <time>2018-02-14T09:59:02Z</time>
      </trkpt>
      <trkpt lat="51.687358031049371" lon="0.356818959116936">
        <ele>97</ele>
        <time>2018-02-14T09:59:14Z</time>
      </trkpt>
      <trkpt lat="51.687337998300791" lon="0.35680596716702">
        <ele>97</ele>
        <time>2018-02-14T09:59:16Z</time>
      </trkpt>
      <trkpt lat="51.687355013564229" lon="0.356818037107587">
        <ele>97</ele>
        <time>2018-02-14T09:59:25Z</time>
      </trkpt>
      <trkpt lat="51.687374040484428" lon="0.356831029057503">
        <ele>97</ele>
        <time>2018-02-14T09:59:27Z</time>
      </trkpt>
      <trkpt lat="51.687393989413977" lon="0.356837986037135">
        <ele>97</ele>
        <time>2018-02-14T09:59:29Z</time>
      </trkpt>
      <trkpt lat="51.687409998849034" lon="0.356851983815432">
        <ele>97</ele>
        <time>2018-02-14T09:59:34Z</time>
      </trkpt>
      <trkpt lat="51.687417961657047" lon="0.356879979372025">
        <ele>97</ele>
        <time>2018-02-14T09:59:38Z</time>
      </trkpt>
      <trkpt lat="51.687431037425995" lon="0.356909986585379">
        <ele>97</ele>
        <time>2018-02-14T09:59:40Z</time>
      </trkpt>
      <trkpt lat="51.68744201771915" lon="0.356936976313591">
        <ele>97</ele>
        <time>2018-02-14T09:59:42Z</time>
      </trkpt>
      <trkpt lat="51.687447968870401" lon="0.356965977698565">
        <ele>97</ele>
        <time>2018-02-14T09:59:44Z</time>
      </trkpt>
      <trkpt lat="51.687447968870401" lon="0.35699900239706">
        <ele>96.794387156973002</ele>
        <time>2018-02-14T09:59:46Z</time>
      </trkpt>
      <trkpt lat="51.687460038810968" lon="0.35701802931726">
        <ele>96.198194146543997</ele>
        <time>2018-02-14T09:59:59Z</time>
      </trkpt>
      <trkpt lat="51.687475964426994" lon="0.357035966590047">
        <ele>96</ele>
        <time>2018-02-14T10:00:05Z</time>
      </trkpt>
      <trkpt lat="51.687491973862052" lon="0.357051976025105">
        <ele>96</ele>
        <time>2018-02-14T10:00:07Z</time>
      </trkpt>
      <trkpt lat="51.687506977468729" lon="0.35708399489522">
        <ele>96</ele>
        <time>2018-02-14T10:00:09Z</time>
      </trkpt>
      <trkpt lat="51.687526004388928" lon="0.35710696130991">
        <ele>96</ele>
        <time>2018-02-14T10:00:11Z</time>
      </trkpt>
      <trkpt lat="51.687548970803618" lon="0.357118025422096">
        <ele>96</ele>
        <time>2018-02-14T10:00:13Z</time>
      </trkpt>
      <trkpt lat="51.687567997723818" lon="0.357137974351645">
        <ele>96</ele>
        <time>2018-02-14T10:00:15Z</time>
      </trkpt>
      <trkpt lat="51.687587024644017" lon="0.357163036242127">
        <ele>96</ele>
        <time>2018-02-14T10:00:17Z</time>
      </trkpt>
      <trkpt lat="51.687609991058707" lon="0.357192037627101">
        <ele>96</ele>
        <time>2018-02-14T10:00:19Z</time>
      </trkpt>
      <trkpt lat="51.687624994665384" lon="0.357221961021423">
        <ele>96</ele>
        <time>2018-02-14T10:00:21Z</time>
      </trkpt>
      <trkpt lat="51.687641004100442" lon="0.357246017083526">
        <ele>95.815531446892606</ele>
        <time>2018-02-14T10:00:23Z</time>
      </trkpt>
      <trkpt lat="51.687659025192261" lon="0.357265966013074">
        <ele>95</ele>
        <time>2018-02-14T10:00:25Z</time>
      </trkpt>
      <trkpt lat="51.687676962465048" lon="0.357293961569667">
        <ele>96</ele>
        <time>2018-02-14T10:00:27Z</time>
      </trkpt>
      <trkpt lat="51.687690038233995" lon="0.357323968783021">
        <ele>96</ele>
        <time>2018-02-14T10:00:29Z</time>
      </trkpt>
      <trkpt lat="51.687705963850021" lon="0.357355987653136">
        <ele>96</ele>
        <time>2018-02-14T10:00:31Z</time>
      </trkpt>
      <trkpt lat="51.687728008255363" lon="0.35738498903811">
        <ele>96</ele>
        <time>2018-02-14T10:00:33Z</time>
      </trkpt>
      <trkpt lat="51.687745023518801" lon="0.357412984594703">
        <ele>96</ele>
        <time>2018-02-14T10:00:35Z</time>
      </trkpt>
      <trkpt lat="51.687767989933491" lon="0.357435029000044">
        <ele>96</ele>
        <time>2018-02-14T10:00:37Z</time>
      </trkpt>
      <trkpt lat="51.687791040167212" lon="0.357453972101212">
        <ele>96</ele>
        <time>2018-02-14T10:00:39Z</time>
      </trkpt>
      <trkpt lat="51.687814006581903" lon="0.357469981536269">
        <ele>95</ele>
        <time>2018-02-14T10:00:41Z</time>
      </trkpt>
      <trkpt lat="51.687840996310115" lon="0.357480961829424">
        <ele>95</ele>
        <time>2018-02-14T10:00:43Z</time>
      </trkpt>
      <trkpt lat="51.687867986038327" lon="0.357489008456469">
        <ele>95</ele>
        <time>2018-02-14T10:00:45Z</time>
      </trkpt>
      <trkpt lat="51.68789497576654" lon="0.357493031769991">
        <ele>95.161615639222205</ele>
        <time>2018-02-14T10:00:47Z</time>
      </trkpt>
      <trkpt lat="51.687920959666371" lon="0.357500994578004">
        <ele>96</ele>
        <time>2018-02-14T10:00:49Z</time>
      </trkpt>
      <trkpt lat="51.687944009900093" lon="0.357523960992694">
        <ele>96</ele>
        <time>2018-02-14T10:00:51Z</time>
      </trkpt>
      <trkpt lat="51.687964964658022" lon="0.357543993741274">
        <ele>96</ele>
        <time>2018-02-14T10:00:53Z</time>
      </trkpt>
      <trkpt lat="51.687984997406602" lon="0.357566038146615">
        <ele>95</ele>
        <time>2018-02-14T10:00:55Z</time>
      </trkpt>
      <trkpt lat="51.688003018498421" lon="0.357582969591022">
        <ele>95</ele>
        <time>2018-02-14T10:00:57Z</time>
      </trkpt>
      <trkpt lat="51.688027996569872" lon="0.35760099068284">
        <ele>95</ele>
        <time>2018-02-14T10:00:59Z</time>
      </trkpt>
      <trkpt lat="51.688053980469704" lon="0.357615994289517">
        <ele>95</ele>
        <time>2018-02-14T10:01:01Z</time>
      </trkpt>
      <trkpt lat="51.688075019046664" lon="0.357636027038097">
        <ele>95.161615639222205</ele>
        <time>2018-02-14T10:01:03Z</time>
      </trkpt>
      <trkpt lat="51.688093040138483" lon="0.35766301676631">
        <ele>96</ele>
        <time>2018-02-14T10:01:05Z</time>
      </trkpt>
      <trkpt lat="51.688111983239651" lon="0.357684977352619">
        <ele>96</ele>
        <time>2018-02-14T10:01:07Z</time>
      </trkpt>
      <trkpt lat="51.688134027644992" lon="0.35770702175796">
        <ele>95</ele>
        <time>2018-02-14T10:01:09Z</time>
      </trkpt>
      <trkpt lat="51.68815003708005" lon="0.357731999829412">
        <ele>95</ele>
        <time>2018-02-14T10:01:11Z</time>
      </trkpt>
      <trkpt lat="51.68817300349474" lon="0.357761001214385">
        <ele>95</ele>
        <time>2018-02-14T10:01:13Z</time>
      </trkpt>
      <trkpt lat="51.688194964081049" lon="0.357780028134584">
        <ele>95</ele>
        <time>2018-02-14T10:01:15Z</time>
      </trkpt>
      <trkpt lat="51.688221031799912" lon="0.357801988720894">
        <ele>95</ele>
        <time>2018-02-14T10:01:17Z</time>
      </trkpt>
      <trkpt lat="51.688245004042983" lon="0.357827972620726">
        <ele>95</ele>
        <time>2018-02-14T10:01:19Z</time>
      </trkpt>
      <trkpt lat="51.688269982114434" lon="0.357854962348938">
        <ele>95</ele>
        <time>2018-02-14T10:01:21Z</time>
      </trkpt>
      <trkpt lat="51.688291020691395" lon="0.35787901841104">
        <ele>95</ele>
        <time>2018-02-14T10:01:23Z</time>
      </trkpt>
      <trkpt lat="51.688311975449324" lon="0.357907013967633">
        <ele>95</ele>
        <time>2018-02-14T10:01:25Z</time>
      </trkpt>
      <trkpt lat="51.688327984884381" lon="0.357936015352607">
        <ele>95</ele>
        <time>2018-02-14T10:01:27Z</time>
      </trkpt>
      <trkpt lat="51.68834500014782" lon="0.357963005080819">
        <ele>95</ele>
        <time>2018-02-14T10:01:29Z</time>
      </trkpt>
      <trkpt lat="51.68836603872478" lon="0.357988988980651">
        <ele>95</ele>
        <time>2018-02-14T10:01:31Z</time>
      </trkpt>
      <trkpt lat="51.68838900513947" lon="0.358012039214373">
        <ele>95</ele>
        <time>2018-02-14T10:01:33Z</time>
      </trkpt>
      <trkpt lat="51.68841197155416" lon="0.358038023114204">
        <ele>95</ele>
        <time>2018-02-14T10:01:35Z</time>
      </trkpt>
      <trkpt lat="51.688436027616262" lon="0.358065012842417">
        <ele>95</ele>
        <time>2018-02-14T10:01:37Z</time>
      </trkpt>
      <trkpt lat="51.688457988202572" lon="0.358087979257107">
        <ele>95</ele>
        <time>2018-02-14T10:01:39Z</time>
      </trkpt>
      <trkpt lat="51.688479026779532" lon="0.358111029490829">
        <ele>95</ele>
        <time>2018-02-14T10:01:41Z</time>
      </trkpt>
      <trkpt lat="51.688499981537461" lon="0.35813701339066">
        <ele>95</ele>
        <time>2018-02-14T10:01:43Z</time>
      </trkpt>
      <trkpt lat="51.688520014286041" lon="0.358160985633731">
        <ele>95</ele>
        <time>2018-02-14T10:01:45Z</time>
      </trkpt>
      <trkpt lat="51.68853803537786" lon="0.358184035867453">
        <ele>95</ele>
        <time>2018-02-14T10:01:47Z</time>
      </trkpt>
      <trkpt lat="51.688558990135789" lon="0.358203984797001">
        <ele>95</ele>
        <time>2018-02-14T10:01:49Z</time>
      </trkpt>
      <trkpt lat="51.688580028712749" lon="0.35822200588882">
        <ele>95</ele>
        <time>2018-02-14T10:01:51Z</time>
      </trkpt>
      <trkpt lat="51.688599977642298" lon="0.358250001445413">
        <ele>95</ele>
        <time>2018-02-14T10:01:53Z</time>
      </trkpt>
      <trkpt lat="51.688619004562497" lon="0.358275985345244">
        <ele>95</ele>
        <time>2018-02-14T10:01:55Z</time>
      </trkpt>
      <trkpt lat="51.688641970977187" lon="0.358295012265444">
        <ele>95</ele>
        <time>2018-02-14T10:01:57Z</time>
      </trkpt>
      <trkpt lat="51.688660997897387" lon="0.358315967023373">
        <ele>95</ele>
        <time>2018-02-14T10:01:59Z</time>
      </trkpt>
      <trkpt lat="51.688679018989205" lon="0.358341028913856">
        <ele>95</ele>
        <time>2018-02-14T10:02:01Z</time>
      </trkpt>
      <trkpt lat="51.688696034252644" lon="0.358360977843404">
        <ele>95</ele>
        <time>2018-02-14T10:02:03Z</time>
      </trkpt>
      <trkpt lat="51.688713971525431" lon="0.3583749756217">
        <ele>95</ele>
        <time>2018-02-14T10:02:05Z</time>
      </trkpt>
      <trkpt lat="51.688731992617249" lon="0.358391990885139">
        <ele>95</ele>
        <time>2018-02-14T10:02:07Z</time>
      </trkpt>
      <trkpt lat="51.68875303119421" lon="0.358405988663435">
        <ele>95</ele>
        <time>2018-02-14T10:02:09Z</time>
      </trkpt>
      <trkpt lat="51.688770968466997" lon="0.358424009755254">
        <ele>95</ele>
        <time>2018-02-14T10:02:11Z</time>
      </trkpt>
      <trkpt lat="51.688789995387197" lon="0.358446976169944">
        <ele>95</ele>
        <time>2018-02-14T10:02:13Z</time>
      </trkpt>
      <trkpt lat="51.688799969851971" lon="0.358471032232046">
        <ele>95</ele>
        <time>2018-02-14T10:02:21Z</time>
      </trkpt>
      <trkpt lat="51.688820002600551" lon="0.358504978939891">
        <ele>94.850391558068495</ele>
        <time>2018-02-14T10:02:27Z</time>
      </trkpt>
      <trkpt lat="51.688836012035608" lon="0.358525011688471">
        <ele>94</ele>
        <time>2018-02-14T10:02:30Z</time>
      </trkpt>
      <trkpt lat="51.688853027299047" lon="0.358529035001993">
        <ele>95</ele>
        <time>2018-02-14T10:02:35Z</time>
      </trkpt>
      <trkpt lat="51.688869958743453" lon="0.358527023345232">
        <ele>95</ele>
        <time>2018-02-14T10:02:39Z</time>
      </trkpt>
      <trkpt lat="51.688890997320414" lon="0.358526017516851">
        <ele>95</ele>
        <time>2018-02-14T10:02:42Z</time>
      </trkpt>
      <trkpt lat="51.688917987048626" lon="0.35852300003171">
        <ele>95</ele>
        <time>2018-02-14T10:02:44Z</time>
      </trkpt>
      <trkpt lat="51.688941037282348" lon="0.358525011688471">
        <ele>95</ele>
        <time>2018-02-14T10:02:46Z</time>
      </trkpt>
      <trkpt lat="51.688959980383515" lon="0.35852300003171">
        <ele>95</ele>
        <time>2018-02-14T10:02:48Z</time>
      </trkpt>
      <trkpt lat="51.688976995646954" lon="0.358514031395316">
        <ele>94</ele>
        <time>2018-02-14T10:02:50Z</time>
      </trkpt>
      <trkpt lat="51.689002979546785" lon="0.35850296728313">
        <ele>94</ele>
        <time>2018-02-14T10:02:53Z</time>
      </trkpt>
      <trkpt lat="51.689023012295365" lon="0.358516965061426">
        <ele>95</ele>
        <time>2018-02-14T10:02:58Z</time>
      </trkpt>
      <trkpt lat="51.689041033387184" lon="0.358526017516851">
        <ele>95</ele>
        <time>2018-02-14T10:03:03Z</time>
      </trkpt>
      <trkpt lat="51.689062993973494" lon="0.358534986153245">
        <ele>95</ele>
        <time>2018-02-14T10:03:08Z</time>
      </trkpt>
      <trkpt lat="51.689086966216564" lon="0.35854697227478">
        <ele>95</ele>
        <time>2018-02-14T10:03:11Z</time>
      </trkpt>
      <trkpt lat="51.689109010621905" lon="0.358555018901825">
        <ele>95</ele>
        <time>2018-02-14T10:03:13Z</time>
      </trkpt>
      <trkpt lat="51.689129965379834" lon="0.358571028336883">
        <ele>95</ele>
        <time>2018-02-14T10:03:15Z</time>
      </trkpt>
      <trkpt lat="51.689147986471653" lon="0.35858703777194">
        <ele>95</ele>
        <time>2018-02-14T10:03:17Z</time>
      </trkpt>
      <trkpt lat="51.689167013391852" lon="0.358599023893476">
        <ele>95</ele>
        <time>2018-02-14T10:03:19Z</time>
      </trkpt>
      <trkpt lat="51.689185034483671" lon="0.358613021671772">
        <ele>95</ele>
        <time>2018-02-14T10:03:21Z</time>
      </trkpt>
      <trkpt lat="51.689202971756458" lon="0.35862903110683">
        <ele>95</ele>
        <time>2018-02-14T10:03:23Z</time>
      </trkpt>
      <trkpt lat="51.689221998676658" lon="0.358639005571604">
        <ele>95</ele>
        <time>2018-02-14T10:03:25Z</time>
      </trkpt>
      <trkpt lat="51.689240019768476" lon="0.358650991693139">
        <ele>95</ele>
        <time>2018-02-14T10:03:27Z</time>
      </trkpt>
      <trkpt lat="51.689258962869644" lon="0.358667001128197">
        <ele>94.917525501115094</ele>
        <time>2018-02-14T10:03:29Z</time>
      </trkpt>
      <trkpt lat="51.689280001446605" lon="0.358673958107829">
        <ele>94</ele>
        <time>2018-02-14T10:03:31Z</time>
      </trkpt>
      <trkpt lat="51.689301962032914" lon="0.358682004734874">
        <ele>94</ele>
        <time>2018-02-14T10:03:33Z</time>
      </trkpt>
      <trkpt lat="51.689323000609875" lon="0.358698014169931">
        <ele>94</ele>
        <time>2018-02-14T10:03:35Z</time>
      </trkpt>
      <trkpt lat="51.689344961196184" lon="0.358723998069763">
        <ele>94</ele>
        <time>2018-02-14T10:03:37Z</time>
      </trkpt>
      <trkpt lat="51.689362982288003" lon="0.358745958656073">
        <ele>94</ele>
        <time>2018-02-14T10:03:39Z</time>
      </trkpt>
      <trkpt lat="51.689382009208202" lon="0.358757022768259">
        <ele>94</ele>
        <time>2018-02-14T10:03:41Z</time>
      </trkpt>
      <trkpt lat="51.689401958137751" lon="0.358774038031697">
        <ele>94</ele>
        <time>2018-02-14T10:03:43Z</time>
      </trkpt>
      <trkpt lat="51.68942098505795" lon="0.358789041638374">
        <ele>94</ele>
        <time>2018-02-14T10:03:45Z</time>
      </trkpt>
      <trkpt lat="51.689440011978149" lon="0.358799016103148">
        <ele>95</ele>
        <time>2018-02-14T10:03:47Z</time>
      </trkpt>
      <trkpt lat="51.689461972564459" lon="0.358814019709826">
        <ele>95</ele>
        <time>2018-02-14T10:03:49Z</time>
      </trkpt>
      <trkpt lat="51.689485022798181" lon="0.35882500000298">
        <ele>94</ele>
        <time>2018-02-14T10:03:51Z</time>
      </trkpt>
      <trkpt lat="51.689508995041251" lon="0.358837991952896">
        <ele>94</ele>
        <time>2018-02-14T10:03:53Z</time>
      </trkpt>
      <trkpt lat="51.689530033618212" lon="0.358843021094799">
        <ele>94</ele>
        <time>2018-02-14T10:03:55Z</time>
      </trkpt>
      <trkpt lat="51.689553000032902" lon="0.358842015266418">
        <ele>94</ele>
        <time>2018-02-14T10:03:57Z</time>
      </trkpt>
      <trkpt lat="51.689573032781482" lon="0.358835980296135">
        <ele>94</ele>
        <time>2018-02-14T10:03:59Z</time>
      </trkpt>
      <trkpt lat="51.689591975882649" lon="0.358822988346219">
        <ele>94</ele>
        <time>2018-02-14T10:04:01Z</time>
      </trkpt>
      <trkpt lat="51.689608991146088" lon="0.358795998618007">
        <ele>94</ele>
        <time>2018-02-14T10:04:03Z</time>
      </trkpt>
      <trkpt lat="51.689626006409526" lon="0.358763979747891">
        <ele>94</ele>
        <time>2018-02-14T10:04:05Z</time>
      </trkpt>
      <trkpt lat="51.689646039158106" lon="0.358740007504821">
        <ele>94</ele>
        <time>2018-02-14T10:04:07Z</time>
      </trkpt>
      <trkpt lat="51.689667999744415" lon="0.358722992241383">
        <ele>94</ele>
        <time>2018-02-14T10:04:09Z</time>
      </trkpt>
      <trkpt lat="51.689691971987486" lon="0.358722992241383">
        <ele>94</ele>
        <time>2018-02-14T10:04:11Z</time>
      </trkpt>
      <trkpt lat="51.689705969765782" lon="0.358744030818343">
        <ele>94</ele>
        <time>2018-02-14T10:04:28Z</time>
      </trkpt>
      <trkpt lat="51.689726002514362" lon="0.358763979747891">
        <ele>95</ele>
        <time>2018-02-14T10:04:37Z</time>
      </trkpt>
      <trkpt lat="51.689752992242575" lon="0.358789963647723">
        <ele>95</ele>
        <time>2018-02-14T10:04:39Z</time>
      </trkpt>
      <trkpt lat="51.689779981970787" lon="0.358814019709826">
        <ele>95</ele>
        <time>2018-02-14T10:04:41Z</time>
      </trkpt>
      <trkpt lat="51.689798003062606" lon="0.358846038579941">
        <ele>94</ele>
        <time>2018-02-14T10:04:43Z</time>
      </trkpt>
      <trkpt lat="51.689818035811186" lon="0.358873028308153">
        <ele>94</ele>
        <time>2018-02-14T10:04:45Z</time>
      </trkpt>
      <trkpt lat="51.689839996397495" lon="0.358902029693127">
        <ele>94</ele>
        <time>2018-02-14T10:04:47Z</time>
      </trkpt>
      <trkpt lat="51.689856005832553" lon="0.358918039128184">
        <ele>94</ele>
        <time>2018-02-14T10:04:48Z</time>
      </trkpt>
      <trkpt lat="51.689881989732385" lon="0.358951985836029">
        <ele>94</ele>
        <time>2018-02-14T10:04:50Z</time>
      </trkpt>
      <trkpt lat="51.689900010824203" lon="0.358976041898131">
        <ele>94</ele>
        <time>2018-02-14T10:04:52Z</time>
      </trkpt>
      <trkpt lat="51.689918031916022" lon="0.359004037454724">
        <ele>94</ele>
        <time>2018-02-14T10:04:54Z</time>
      </trkpt>
      <trkpt lat="51.689938986673951" lon="0.359033960849047">
        <ele>94</ele>
        <time>2018-02-14T10:04:56Z</time>
      </trkpt>
      <trkpt lat="51.689958013594151" lon="0.359062040224671">
        <ele>94</ele>
        <time>2018-02-14T10:04:58Z</time>
      </trkpt>
      <trkpt lat="51.689975028857589" lon="0.359090035781264">
        <ele>94</ele>
        <time>2018-02-14T10:05:00Z</time>
      </trkpt>
      <trkpt lat="51.689993971958756" lon="0.359120965003967">
        <ele>94</ele>
        <time>2018-02-14T10:05:02Z</time>
      </trkpt>
      <trkpt lat="51.690014004707336" lon="0.35914896056056">
        <ele>94</ele>
        <time>2018-02-14T10:05:04Z</time>
      </trkpt>
      <trkpt lat="51.690028002485633" lon="0.359173016622663">
        <ele>94</ele>
        <time>2018-02-14T10:05:06Z</time>
      </trkpt>
      <trkpt lat="51.690048035234213" lon="0.359204029664397">
        <ele>94</ele>
        <time>2018-02-14T10:05:08Z</time>
      </trkpt>
      <trkpt lat="51.690065972507" lon="0.359235964715481">
        <ele>94</ele>
        <time>2018-02-14T10:05:10Z</time>
      </trkpt>
      <trkpt lat="51.690083993598819" lon="0.359267983585596">
        <ele>94</ele>
        <time>2018-02-14T10:05:12Z</time>
      </trkpt>
      <trkpt lat="51.690098997205496" lon="0.359301008284092">
        <ele>93</ele>
        <time>2018-02-14T10:05:14Z</time>
      </trkpt>
      <trkpt lat="51.690115006640553" lon="0.359325986355543">
        <ele>93</ele>
        <time>2018-02-14T10:05:16Z</time>
      </trkpt>
      <trkpt lat="51.690127998590469" lon="0.359352976083755">
        <ele>93</ele>
        <time>2018-02-14T10:05:18Z</time>
      </trkpt>
      <trkpt lat="51.690144008025527" lon="0.359376026317477">
        <ele>93</ele>
        <time>2018-02-14T10:05:20Z</time>
      </trkpt>
      <trkpt lat="51.690160017460585" lon="0.359402010217309">
        <ele>93</ele>
        <time>2018-02-14T10:05:22Z</time>
      </trkpt>
      <trkpt lat="51.690176026895642" lon="0.359424976631999">
        <ele>93</ele>
        <time>2018-02-14T10:05:24Z</time>
      </trkpt>
      <trkpt lat="51.690192958340049" lon="0.35944702103734">
        <ele>93</ele>
        <time>2018-02-14T10:05:26Z</time>
      </trkpt>
      <trkpt lat="51.690206034108996" lon="0.359471999108791">
        <ele>93</ele>
        <time>2018-02-14T10:05:28Z</time>
      </trkpt>
      <trkpt lat="51.690220031887293" lon="0.359494965523481">
        <ele>93</ele>
        <time>2018-02-14T10:05:30Z</time>
      </trkpt>
      <trkpt lat="51.690236041322351" lon="0.359521033242345">
        <ele>93</ele>
        <time>2018-02-14T10:05:32Z</time>
      </trkpt>
      <trkpt lat="51.690251966938376" lon="0.359551040455699">
        <ele>93</ele>
        <time>2018-02-14T10:05:35Z</time>
      </trkpt>
      <trkpt lat="51.690266970545053" lon="0.35957501269877">
        <ele>93</ele>
        <time>2018-02-14T10:05:37Z</time>
      </trkpt>
      <trkpt lat="51.690284991636872" lon="0.359599990770221">
        <ele>93</ele>
        <time>2018-02-14T10:05:39Z</time>
      </trkpt>
      <trkpt lat="51.690293960273266" lon="0.359634021297097">
        <ele>93</ele>
        <time>2018-02-14T10:05:41Z</time>
      </trkpt>
      <trkpt lat="51.690299995243549" lon="0.35966201685369">
        <ele>93</ele>
        <time>2018-02-14T10:05:52Z</time>
      </trkpt>
      <trkpt lat="51.690316004678607" lon="0.359681965783238">
        <ele>93</ele>
        <time>2018-02-14T10:05:55Z</time>
      </trkpt>
      <trkpt lat="51.690335031598806" lon="0.359706021845341">
        <ele>93</ele>
        <time>2018-02-14T10:05:57Z</time>
      </trkpt>
      <trkpt lat="51.690357998013496" lon="0.359733011573553">
        <ele>93</ele>
        <time>2018-02-14T10:05:59Z</time>
      </trkpt>
      <trkpt lat="51.690378030762076" lon="0.359752038493752">
        <ele>93</ele>
        <time>2018-02-14T10:06:01Z</time>
      </trkpt>
      <trkpt lat="51.690396973863244" lon="0.359780034050345">
        <ele>93</ele>
        <time>2018-02-14T10:06:03Z</time>
      </trkpt>
      <trkpt lat="51.690413989126682" lon="0.359804006293416">
        <ele>94</ele>
        <time>2018-02-14T10:06:05Z</time>
      </trkpt>
      <trkpt lat="51.690433016046882" lon="0.359822027385235">
        <ele>94</ele>
        <time>2018-02-14T10:06:07Z</time>
      </trkpt>
      <trkpt lat="51.69045296497643" lon="0.359841976314783">
        <ele>93</ele>
        <time>2018-02-14T10:06:09Z</time>
      </trkpt>
      <trkpt lat="51.690471991896629" lon="0.359868966042995">
        <ele>93</ele>
        <time>2018-02-14T10:06:11Z</time>
      </trkpt>
      <trkpt lat="51.69049403630197" lon="0.359894027933478">
        <ele>93</ele>
        <time>2018-02-14T10:06:13Z</time>
      </trkpt>
      <trkpt lat="51.690513985231519" lon="0.35992001183331">
        <ele>94</ele>
        <time>2018-02-14T10:06:15Z</time>
      </trkpt>
      <trkpt lat="51.690535023808479" lon="0.359942978248">
        <ele>94</ele>
        <time>2018-02-14T10:06:17Z</time>
      </trkpt>
      <trkpt lat="51.690553966909647" lon="0.359964016824961">
        <ele>93.7800035840459</ele>
        <time>2018-02-14T10:06:19Z</time>
      </trkpt>
      <trkpt lat="51.690571988001466" lon="0.359982959926128">
        <ele>93</ele>
        <time>2018-02-14T10:06:21Z</time>
      </trkpt>
      <trkpt lat="51.690589003264904" lon="0.359999975189567">
        <ele>93.190003200000007</ele>
        <time>2018-02-14T10:06:23Z</time>
      </trkpt>
      <trkpt lat="51.690604006871581" lon="0.360015984624624">
        <ele>94</ele>
        <time>2018-02-14T10:06:25Z</time>
      </trkpt>
      <trkpt lat="51.690618004649878" lon="0.360036017373204">
        <ele>94</ele>
        <time>2018-02-14T10:06:29Z</time>
      </trkpt>
      <trkpt lat="51.690634014084935" lon="0.36007197573781">
        <ele>94</ele>
        <time>2018-02-14T10:06:31Z</time>
      </trkpt>
      <trkpt lat="51.690638037398458" lon="0.36011204123497">
        <ele>94</ele>
        <time>2018-02-14T10:06:33Z</time>
      </trkpt>
      <trkpt lat="51.690638037398458" lon="0.360150011256337">
        <ele>94</ele>
        <time>2018-02-14T10:06:35Z</time>
      </trkpt>
      <trkpt lat="51.690632002428174" lon="0.360185969620943">
        <ele>94</ele>
        <time>2018-02-14T10:06:37Z</time>
      </trkpt>
      <trkpt lat="51.690628984943032" lon="0.360218994319439">
        <ele>94</ele>
        <time>2018-02-14T10:06:39Z</time>
      </trkpt>
      <trkpt lat="51.69062496162951" lon="0.360260987654328">
        <ele>95</ele>
        <time>2018-02-14T10:06:41Z</time>
      </trkpt>
      <trkpt lat="51.6906220279634" lon="0.360303986817598">
        <ele>95</ele>
        <time>2018-02-14T10:06:43Z</time>
      </trkpt>
      <trkpt lat="51.690616998821497" lon="0.360354026779532">
        <ele>95</ele>
        <time>2018-02-14T10:06:45Z</time>
      </trkpt>
      <trkpt lat="51.690610041841865" lon="0.360384033992887">
        <ele>95</ele>
        <time>2018-02-14T10:06:46Z</time>
      </trkpt>
      <trkpt lat="51.690606018528342" lon="0.360417980700731">
        <ele>95</ele>
        <time>2018-02-14T10:06:47Z</time>
      </trkpt>
      <trkpt lat="51.690599983558059" lon="0.360452011227608">
        <ele>95</ele>
        <time>2018-02-14T10:06:48Z</time>
      </trkpt>
      <trkpt lat="51.690598977729678" lon="0.360490987077355">
        <ele>95</ele>
        <time>2018-02-14T10:06:49Z</time>
      </trkpt>
      <trkpt lat="51.690597971901298" lon="0.360528035089374">
        <ele>95</ele>
        <time>2018-02-14T10:06:50Z</time>
      </trkpt>
      <trkpt lat="51.690598977729678" lon="0.360561981797218">
        <ele>95</ele>
        <time>2018-02-14T10:06:51Z</time>
      </trkpt>
      <trkpt lat="51.690596966072917" lon="0.360601041465998">
        <ele>94.784308804336902</ele>
        <time>2018-02-14T10:06:52Z</time>
      </trkpt>
      <trkpt lat="51.690572993829846" lon="0.360735990107059">
        <ele>94</ele>
        <time>2018-02-14T10:06:55Z</time>
      </trkpt>
      <trkpt lat="51.690550027415156" lon="0.360765997320414">
        <ele>94</ele>
        <time>2018-02-14T10:06:56Z</time>
      </trkpt>
      <trkpt lat="51.690519014373422" lon="0.360830035060644">
        <ele>94.188122576229901</ele>
        <time>2018-02-14T10:06:58Z</time>
      </trkpt>
      <trkpt lat="51.690506022423506" lon="0.360858030617237">
        <ele>95</ele>
        <time>2018-02-14T10:06:59Z</time>
      </trkpt>
      <trkpt lat="51.69045003131032" lon="0.360971018671989">
        <ele>95</ele>
        <time>2018-02-14T10:07:03Z</time>
      </trkpt>
      <trkpt lat="51.690382976084948" lon="0.361078977584839">
        <ele>95</ele>
        <time>2018-02-14T10:07:07Z</time>
      </trkpt>
      <trkpt lat="51.690327990800142" lon="0.361203029751778">
        <ele>95</ele>
        <time>2018-02-14T10:07:12Z</time>
      </trkpt>
      <trkpt lat="51.690318016335368" lon="0.361228007823229">
        <ele>95</ele>
        <time>2018-02-14T10:07:13Z</time>
      </trkpt>
      <trkpt lat="51.690268982201815" lon="0.361321968957782">
        <ele>94.2199964159541</ele>
        <time>2018-02-14T10:07:17Z</time>
      </trkpt>
      <trkpt lat="51.690256996080279" lon="0.361347030848265">
        <ele>95</ele>
        <time>2018-02-14T10:07:18Z</time>
      </trkpt>
      <trkpt lat="51.690239980816841" lon="0.361367985606194">
        <ele>95</ele>
        <time>2018-02-14T10:07:19Z</time>
      </trkpt>
      <trkpt lat="51.690218020230532" lon="0.361418025568128">
        <ele>95</ele>
        <time>2018-02-14T10:07:21Z</time>
      </trkpt>
      <trkpt lat="51.690205028280616" lon="0.361439986154437">
        <ele>95</ele>
        <time>2018-02-14T10:07:22Z</time>
      </trkpt>
      <trkpt lat="51.690136967226863" lon="0.361552974209189">
        <ele>95</ele>
        <time>2018-02-14T10:07:27Z</time>
      </trkpt>
      <trkpt lat="51.690120035782456" lon="0.361575018614531">
        <ele>95</ele>
        <time>2018-02-14T10:07:28Z</time>
      </trkpt>
      <trkpt lat="51.690040994435549" lon="0.361674008890986">
        <ele>95</ele>
        <time>2018-02-14T10:07:32Z</time>
      </trkpt>
      <trkpt lat="51.690012998878956" lon="0.361699992790818">
        <ele>95</ele>
        <time>2018-02-14T10:07:33Z</time>
      </trkpt>
      <trkpt lat="51.689989026635885" lon="0.361732011660933">
        <ele>95</ele>
        <time>2018-02-14T10:07:34Z</time>
      </trkpt>
      <trkpt lat="51.689977962523699" lon="0.361759001389146">
        <ele>95</ele>
        <time>2018-02-14T10:07:35Z</time>
      </trkpt>
      <trkpt lat="51.689963964745402" lon="0.361780961975455">
        <ele>95</ele>
        <time>2018-02-14T10:07:36Z</time>
      </trkpt>
      <trkpt lat="51.689951978623867" lon="0.361807029694319">
        <ele>95</ele>
        <time>2018-02-14T10:07:37Z</time>
      </trkpt>
      <trkpt lat="51.689934963360429" lon="0.361834019422531">
        <ele>95</ele>
        <time>2018-02-14T10:07:38Z</time>
      </trkpt>
      <trkpt lat="51.689918031916022" lon="0.361866960301995">
        <ele>95</ele>
        <time>2018-02-14T10:07:39Z</time>
      </trkpt>
      <trkpt lat="51.689897999167442" lon="0.361899985000491">
        <ele>95</ele>
        <time>2018-02-14T10:07:40Z</time>
      </trkpt>
      <trkpt lat="51.689875032752752" lon="0.361932003870606">
        <ele>95</ele>
        <time>2018-02-14T10:07:41Z</time>
      </trkpt>
      <trkpt lat="51.689857011660933" lon="0.361959999427199">
        <ele>95</ele>
        <time>2018-02-14T10:07:42Z</time>
      </trkpt>
      <trkpt lat="51.689838990569115" lon="0.361987994983792">
        <ele>95</ele>
        <time>2018-02-14T10:07:43Z</time>
      </trkpt>
      <trkpt lat="51.689820969477296" lon="0.362015990540385">
        <ele>95</ele>
        <time>2018-02-14T10:07:44Z</time>
      </trkpt>
      <trkpt lat="51.689802026376128" lon="0.362039962783456">
        <ele>95</ele>
        <time>2018-02-14T10:07:45Z</time>
      </trkpt>
      <trkpt lat="51.689780987799168" lon="0.362065024673939">
        <ele>95</ele>
        <time>2018-02-14T10:07:46Z</time>
      </trkpt>
      <trkpt lat="51.689769001677632" lon="0.362092014402151">
        <ele>95</ele>
        <time>2018-02-14T10:07:47Z</time>
      </trkpt>
      <trkpt lat="51.689756009727716" lon="0.362115986645222">
        <ele>95</ele>
        <time>2018-02-14T10:07:48Z</time>
      </trkpt>
      <trkpt lat="51.689740000292659" lon="0.362137025222182">
        <ele>95</ele>
        <time>2018-02-14T10:07:49Z</time>
      </trkpt>
      <trkpt lat="51.689724996685982" lon="0.362154040485621">
        <ele>95</ele>
        <time>2018-02-14T10:07:50Z</time>
      </trkpt>
      <trkpt lat="51.689709993079305" lon="0.362182036042213">
        <ele>95</ele>
        <time>2018-02-14T10:07:51Z</time>
      </trkpt>
      <trkpt lat="51.689695995301008" lon="0.362211037427187">
        <ele>95</ele>
        <time>2018-02-14T10:07:52Z</time>
      </trkpt>
      <trkpt lat="51.689684009179473" lon="0.362240960821509">
        <ele>95.207918282513404</ele>
        <time>2018-02-14T10:07:53Z</time>
      </trkpt>
      <trkpt lat="51.689671017229557" lon="0.362267028540373">
        <ele>96</ele>
        <time>2018-02-14T10:07:54Z</time>
      </trkpt>
      <trkpt lat="51.689660036936402" lon="0.362289994955063">
        <ele>96</ele>
        <time>2018-02-14T10:07:55Z</time>
      </trkpt>
      <trkpt lat="51.689646039158106" lon="0.362321007996798">
        <ele>96</ele>
        <time>2018-02-14T10:07:56Z</time>
      </trkpt>
      <trkpt lat="51.689632041379809" lon="0.362349003553391">
        <ele>96</ele>
        <time>2018-02-14T10:07:57Z</time>
      </trkpt>
      <trkpt lat="51.68961301445961" lon="0.362373981624842">
        <ele>96</ele>
        <time>2018-02-14T10:07:58Z</time>
      </trkpt>
      <trkpt lat="51.68959298171103" lon="0.362392002716661">
        <ele>95.898983760860602</ele>
        <time>2018-02-14T10:07:59Z</time>
      </trkpt>
      <trkpt lat="51.689574960619211" lon="0.362409017980099">
        <ele>95</ele>
        <time>2018-02-14T10:08:00Z</time>
      </trkpt>
      <trkpt lat="51.689557023346424" lon="0.362429972738028">
        <ele>95</ele>
        <time>2018-02-14T10:08:01Z</time>
      </trkpt>
      <trkpt lat="51.689541013911366" lon="0.362451011314988">
        <ele>95</ele>
        <time>2018-02-14T10:08:02Z</time>
      </trkpt>
      <trkpt lat="51.689526010304689" lon="0.362471966072917">
        <ele>95.110003199999994</ele>
        <time>2018-02-14T10:08:03Z</time>
      </trkpt>
      <trkpt lat="51.689515030011535" lon="0.36249803379178">
        <ele>96</ele>
        <time>2018-02-14T10:08:04Z</time>
      </trkpt>
      <trkpt lat="51.689490973949432" lon="0.362528041005135">
        <ele>96</ele>
        <time>2018-02-14T10:08:05Z</time>
      </trkpt>
      <trkpt lat="51.689469013363123" lon="0.362553019076586">
        <ele>96</ele>
        <time>2018-02-14T10:08:06Z</time>
      </trkpt>
      <trkpt lat="51.689449986442924" lon="0.36258595995605">
        <ele>96</ele>
        <time>2018-02-14T10:08:07Z</time>
      </trkpt>
      <trkpt lat="51.689429031684995" lon="0.362620996311307">
        <ele>96</ele>
        <time>2018-02-14T10:08:08Z</time>
      </trkpt>
      <trkpt lat="51.689407993108034" lon="0.362647986039519">
        <ele>96</ele>
        <time>2018-02-14T10:08:09Z</time>
      </trkpt>
      <trkpt lat="51.689387038350105" lon="0.36267195828259">
        <ele>96</ele>
        <time>2018-02-14T10:08:10Z</time>
      </trkpt>
      <trkpt lat="51.689364993944764" lon="0.362695008516312">
        <ele>95</ele>
        <time>2018-02-14T10:08:11Z</time>
      </trkpt>
      <trkpt lat="51.689340015873313" lon="0.362719986587763">
        <ele>95</ele>
        <time>2018-02-14T10:08:12Z</time>
      </trkpt>
      <trkpt lat="51.689323000609875" lon="0.362744964659214">
        <ele>95.070003200000002</ele>
        <time>2018-02-14T10:08:13Z</time>
      </trkpt>
      <trkpt lat="51.689306991174817" lon="0.362772960215807">
        <ele>96</ele>
        <time>2018-02-14T10:08:14Z</time>
      </trkpt>
      <trkpt lat="51.689295005053282" lon="0.362806990742683">
        <ele>96</ele>
        <time>2018-02-14T10:08:15Z</time>
      </trkpt>
      <trkpt lat="51.68926902115345" lon="0.362846972420812">
        <ele>96</ele>
        <time>2018-02-14T10:08:17Z</time>
      </trkpt>
      <trkpt lat="51.689253011718392" lon="0.362870022654533">
        <ele>96</ele>
        <time>2018-02-14T10:08:18Z</time>
      </trkpt>
      <trkpt lat="51.689240019768476" lon="0.362899024039507">
        <ele>96</ele>
        <time>2018-02-14T10:08:19Z</time>
      </trkpt>
      <trkpt lat="51.689219987019897" lon="0.36292802542448">
        <ele>96</ele>
        <time>2018-02-14T10:08:20Z</time>
      </trkpt>
      <trkpt lat="51.689200960099697" lon="0.362953003495932">
        <ele>96</ele>
        <time>2018-02-14T10:08:21Z</time>
      </trkpt>
      <trkpt lat="51.689158966764808" lon="0.363012012094259">
        <ele>96</ele>
        <time>2018-02-14T10:08:23Z</time>
      </trkpt>
      <trkpt lat="51.689100963994861" lon="0.363087030127645">
        <ele>96</ele>
        <time>2018-02-14T10:08:26Z</time>
      </trkpt>
      <trkpt lat="51.689039021730423" lon="0.363156013190746">
        <ele>96</ele>
        <time>2018-02-14T10:08:29Z</time>
      </trkpt>
      <trkpt lat="51.689026029780507" lon="0.363183002918959">
        <ele>96</ele>
        <time>2018-02-14T10:08:30Z</time>
      </trkpt>
      <trkpt lat="51.68901102617383" lon="0.363204963505268">
        <ele>96.070003200000002</ele>
        <time>2018-02-14T10:08:31Z</time>
      </trkpt>
      <trkpt lat="51.688998034223914" lon="0.36322901956737">
        <ele>97</ele>
        <time>2018-02-14T10:08:32Z</time>
      </trkpt>
      <trkpt lat="51.688982024788857" lon="0.363255003467202">
        <ele>97</ele>
        <time>2018-02-14T10:08:33Z</time>
      </trkpt>
      <trkpt lat="51.688961992040277" lon="0.363281993195415">
        <ele>97</ele>
        <time>2018-02-14T10:08:34Z</time>
      </trkpt>
      <trkpt lat="51.688945982605219" lon="0.363307977095246">
        <ele>97</ele>
        <time>2018-02-14T10:08:35Z</time>
      </trkpt>
      <trkpt lat="51.6889279615134" lon="0.363334966823459">
        <ele>96.900005120065501</ele>
        <time>2018-02-14T10:08:36Z</time>
      </trkpt>
      <trkpt lat="51.688880017027259" lon="0.363408979028463">
        <ele>96</ele>
        <time>2018-02-14T10:08:38Z</time>
      </trkpt>
      <trkpt lat="51.688857972621918" lon="0.363440997898579">
        <ele>96</ele>
        <time>2018-02-14T10:08:39Z</time>
      </trkpt>
      <trkpt lat="51.688829977065325" lon="0.363473016768694">
        <ele>96</ele>
        <time>2018-02-14T10:08:40Z</time>
      </trkpt>
      <trkpt lat="51.688807010650635" lon="0.363506963476539">
        <ele>96</ele>
        <time>2018-02-14T10:08:41Z</time>
      </trkpt>
      <trkpt lat="51.688792007043958" lon="0.363534959033132">
        <ele>96</ele>
        <time>2018-02-14T10:08:42Z</time>
      </trkpt>
      <trkpt lat="51.688778009265661" lon="0.363560020923615">
        <ele>96</ele>
        <time>2018-02-14T10:08:43Z</time>
      </trkpt>
      <trkpt lat="51.688764011487365" lon="0.363583993166685">
        <ele>96</ele>
        <time>2018-02-14T10:08:44Z</time>
      </trkpt>
      <trkpt lat="51.688752025365829" lon="0.363609977066517">
        <ele>96</ele>
        <time>2018-02-14T10:08:45Z</time>
      </trkpt>
      <trkpt lat="51.688738027587533" lon="0.363639984279871">
        <ele>96</ele>
        <time>2018-02-14T10:08:46Z</time>
      </trkpt>
      <trkpt lat="51.688726963475347" lon="0.363673008978367">
        <ele>96</ele>
        <time>2018-02-14T10:08:47Z</time>
      </trkpt>
      <trkpt lat="51.688713971525431" lon="0.36370201036334">
        <ele>96</ele>
        <time>2018-02-14T10:08:48Z</time>
      </trkpt>
      <trkpt lat="51.688696034252644" lon="0.363731011748314">
        <ele>97</ele>
        <time>2018-02-14T10:08:49Z</time>
      </trkpt>
      <trkpt lat="51.688673989847302" lon="0.363758001476526">
        <ele>97</ele>
        <time>2018-02-14T10:08:50Z</time>
      </trkpt>
      <trkpt lat="51.688654962927103" lon="0.363794965669513">
        <ele>97</ele>
        <time>2018-02-14T10:08:51Z</time>
      </trkpt>
      <trkpt lat="51.688643982633948" lon="0.363825978711247">
        <ele>97</ele>
        <time>2018-02-14T10:08:52Z</time>
      </trkpt>
      <trkpt lat="51.688627973198891" lon="0.363848023116589">
        <ele>97</ele>
        <time>2018-02-14T10:08:53Z</time>
      </trkpt>
      <trkpt lat="51.688613975420594" lon="0.363877024501562">
        <ele>97.089996799999994</ele>
        <time>2018-02-14T10:08:54Z</time>
      </trkpt>
      <trkpt lat="51.68860400095582" lon="0.363906025886536">
        <ele>98</ele>
        <time>2018-02-14T10:08:55Z</time>
      </trkpt>
      <trkpt lat="51.688587991520762" lon="0.363933015614748">
        <ele>98</ele>
        <time>2018-02-14T10:08:56Z</time>
      </trkpt>
      <trkpt lat="51.688574999570847" lon="0.363962016999722">
        <ele>98</ele>
        <time>2018-02-14T10:08:57Z</time>
      </trkpt>
      <trkpt lat="51.688564019277692" lon="0.363990012556314">
        <ele>98</ele>
        <time>2018-02-14T10:08:58Z</time>
      </trkpt>
      <trkpt lat="51.688548009842634" lon="0.364012978971004">
        <ele>98</ele>
        <time>2018-02-14T10:08:59Z</time>
      </trkpt>
      <trkpt lat="51.688529988750815" lon="0.364033011719584">
        <ele>98</ele>
        <time>2018-02-14T10:09:00Z</time>
      </trkpt>
      <trkpt lat="51.68851800262928" lon="0.364057989791036">
        <ele>98</ele>
        <time>2018-02-14T10:09:01Z</time>
      </trkpt>
      <trkpt lat="51.688502999022603" lon="0.364082967862487">
        <ele>97.910003200000006</ele>
        <time>2018-02-14T10:09:02Z</time>
      </trkpt>
      <trkpt lat="51.688486989587545" lon="0.364107023924589">
        <ele>97</ele>
        <time>2018-02-14T10:09:03Z</time>
      </trkpt>
      <trkpt lat="51.688466034829617" lon="0.36413200199604">
        <ele>97</ele>
        <time>2018-02-14T10:09:04Z</time>
      </trkpt>
      <trkpt lat="51.688394034281373" lon="0.364253036677837">
        <ele>97</ele>
        <time>2018-02-14T10:09:09Z</time>
      </trkpt>
      <trkpt lat="51.688358997926116" lon="0.36430299282074">
        <ele>97</ele>
        <time>2018-02-14T10:09:11Z</time>
      </trkpt>
      <trkpt lat="51.688332008197904" lon="0.364325037226081">
        <ele>97</ele>
        <time>2018-02-14T10:09:12Z</time>
      </trkpt>
      <trkpt lat="51.688284985721111" lon="0.36436996422708">
        <ele>97</ele>
        <time>2018-02-14T10:09:14Z</time>
      </trkpt>
      <trkpt lat="51.68825900182128" lon="0.364394020289183">
        <ele>97</ele>
        <time>2018-02-14T10:09:15Z</time>
      </trkpt>
      <trkpt lat="51.688231006264687" lon="0.364420004189014">
        <ele>97.163266372351799</ele>
        <time>2018-02-14T10:09:16Z</time>
      </trkpt>
      <trkpt lat="51.688204016536474" lon="0.364451017230749">
        <ele>98</ele>
        <time>2018-02-14T10:09:17Z</time>
      </trkpt>
      <trkpt lat="51.688180966302752" lon="0.364477001130581">
        <ele>98</ele>
        <time>2018-02-14T10:09:18Z</time>
      </trkpt>
      <trkpt lat="51.688161017373204" lon="0.364501979202032">
        <ele>98</ele>
        <time>2018-02-14T10:09:19Z</time>
      </trkpt>
      <trkpt lat="51.688141990453005" lon="0.364531986415386">
        <ele>98</ele>
        <time>2018-02-14T10:09:20Z</time>
      </trkpt>
      <trkpt lat="51.688127992674708" lon="0.364557970315218">
        <ele>98</ele>
        <time>2018-02-14T10:09:21Z</time>
      </trkpt>
      <trkpt lat="51.68810997158289" lon="0.364588983356953">
        <ele>97.831685803360998</ele>
        <time>2018-02-14T10:09:22Z</time>
      </trkpt>
      <trkpt lat="51.688094967976213" lon="0.364615973085165">
        <ele>97</ele>
        <time>2018-02-14T10:09:23Z</time>
      </trkpt>
      <trkpt lat="51.688078036531806" lon="0.364644974470139">
        <ele>97</ele>
        <time>2018-02-14T10:09:24Z</time>
      </trkpt>
      <trkpt lat="51.688060015439987" lon="0.364672970026731">
        <ele>97.139538806532897</ele>
        <time>2018-02-14T10:09:25Z</time>
      </trkpt>
      <trkpt lat="51.688010981306434" lon="0.364743964746594">
        <ele>98</ele>
        <time>2018-02-14T10:09:28Z</time>
      </trkpt>
      <trkpt lat="51.687991032376885" lon="0.364770032465458">
        <ele>98</ele>
        <time>2018-02-14T10:09:29Z</time>
      </trkpt>
      <trkpt lat="51.687968987971544" lon="0.364800039678812">
        <ele>98</ele>
        <time>2018-02-14T10:09:30Z</time>
      </trkpt>
      <trkpt lat="51.687947027385235" lon="0.364831974729896">
        <ele>98</ele>
        <time>2018-02-14T10:09:31Z</time>
      </trkpt>
      <trkpt lat="51.687929006293416" lon="0.364864999428391">
        <ele>98</ele>
        <time>2018-02-14T10:09:32Z</time>
      </trkpt>
      <trkpt lat="51.687911991029978" lon="0.364890983328223">
        <ele>98</ele>
        <time>2018-02-14T10:09:33Z</time>
      </trkpt>
      <trkpt lat="51.687897993251681" lon="0.364918978884816">
        <ele>98</ele>
        <time>2018-02-14T10:09:34Z</time>
      </trkpt>
      <trkpt lat="51.687876032665372" lon="0.36494798026979">
        <ele>98</ele>
        <time>2018-02-14T10:09:35Z</time>
      </trkpt>
      <trkpt lat="51.687853988260031" lon="0.364975975826383">
        <ele>98</ele>
        <time>2018-02-14T10:09:36Z</time>
      </trkpt>
      <trkpt lat="51.68783001601696" lon="0.365006988868117">
        <ele>98</ele>
        <time>2018-02-14T10:09:37Z</time>
      </trkpt>
      <trkpt lat="51.687807971611619" lon="0.365036996081471">
        <ele>98</ele>
        <time>2018-02-14T10:09:38Z</time>
      </trkpt>
      <trkpt lat="51.687790034338832" lon="0.365071026608348">
        <ele>98.188120192124899</ele>
        <time>2018-02-14T10:09:39Z</time>
      </trkpt>
      <trkpt lat="51.687775030732155" lon="0.365103967487812">
        <ele>99</ele>
        <time>2018-02-14T10:09:40Z</time>
      </trkpt>
      <trkpt lat="51.687760027125478" lon="0.365133974701166">
        <ele>99</ele>
        <time>2018-02-14T10:09:41Z</time>
      </trkpt>
      <trkpt lat="51.687747035175562" lon="0.365165993571281">
        <ele>99</ele>
        <time>2018-02-14T10:09:42Z</time>
      </trkpt>
      <trkpt lat="51.687736976891756" lon="0.365192983299494">
        <ele>99</ele>
        <time>2018-02-14T10:09:43Z</time>
      </trkpt>
      <trkpt lat="51.687721973285079" lon="0.365219973027706">
        <ele>99</ele>
        <time>2018-02-14T10:09:44Z</time>
      </trkpt>
      <trkpt lat="51.687705963850021" lon="0.365246962755919">
        <ele>99</ele>
        <time>2018-02-14T10:09:45Z</time>
      </trkpt>
      <trkpt lat="51.687688026577234" lon="0.365284010767937">
        <ele>98</ele>
        <time>2018-02-14T10:09:46Z</time>
      </trkpt>
      <trkpt lat="51.687675034627318" lon="0.365316029638052">
        <ele>98</ele>
        <time>2018-02-14T10:09:47Z</time>
      </trkpt>
      <trkpt lat="51.6876570135355" lon="0.365343019366264">
        <ele>98</ele>
        <time>2018-02-14T10:09:48Z</time>
      </trkpt>
      <trkpt lat="51.687643015757203" lon="0.365375960245728">
        <ele>98</ele>
        <time>2018-02-14T10:09:49Z</time>
      </trkpt>
      <trkpt lat="51.687632035464048" lon="0.365402027964592">
        <ele>98</ele>
        <time>2018-02-14T10:09:50Z</time>
      </trkpt>
      <trkpt lat="51.687622983008623" lon="0.365428011864424">
        <ele>98</ele>
        <time>2018-02-14T10:09:51Z</time>
      </trkpt>
      <trkpt lat="51.68761401437223" lon="0.365460030734539">
        <ele>98.099994879934499</ele>
        <time>2018-02-14T10:09:52Z</time>
      </trkpt>
      <trkpt lat="51.687604039907455" lon="0.365487020462751">
        <ele>99</ele>
        <time>2018-02-14T10:09:53Z</time>
      </trkpt>
      <trkpt lat="51.687589958310127" lon="0.365517027676106">
        <ele>99</ele>
        <time>2018-02-14T10:09:54Z</time>
      </trkpt>
      <trkpt lat="51.687575960531831" lon="0.365545023232698">
        <ele>99</ele>
        <time>2018-02-14T10:09:55Z</time>
      </trkpt>
      <trkpt lat="51.687563974410295" lon="0.365566983819008">
        <ele>99</ele>
        <time>2018-02-14T10:09:56Z</time>
      </trkpt>
      <trkpt lat="51.687549976631999" lon="0.36559103988111">
        <ele>99</ele>
        <time>2018-02-14T10:09:57Z</time>
      </trkpt>
      <trkpt lat="51.687494991347194" lon="0.365668991580606">
        <ele>99.101004615802296</ele>
        <time>2018-02-14T10:10:00Z</time>
      </trkpt>
      <trkpt lat="51.687474958598614" lon="0.365695981308818">
        <ele>100</ele>
        <time>2018-02-14T10:10:01Z</time>
      </trkpt>
      <trkpt lat="51.687446963042021" lon="0.365730011835694">
        <ele>100</ele>
        <time>2018-02-14T10:10:02Z</time>
      </trkpt>
      <trkpt lat="51.687430031597614" lon="0.365761024877429">
        <ele>100</ele>
        <time>2018-02-14T10:10:03Z</time>
      </trkpt>
      <trkpt lat="51.687415027990937" lon="0.365792037919164">
        <ele>100</ele>
        <time>2018-02-14T10:10:04Z</time>
      </trkpt>
      <trkpt lat="51.68739901855588" lon="0.365821039304137">
        <ele>100</ele>
        <time>2018-02-14T10:10:05Z</time>
      </trkpt>
      <trkpt lat="51.687382003292441" lon="0.36585196852684">
        <ele>100</ele>
        <time>2018-02-14T10:10:06Z</time>
      </trkpt>
      <trkpt lat="51.687362976372242" lon="0.365879964083433">
        <ele>100</ele>
        <time>2018-02-14T10:10:07Z</time>
      </trkpt>
      <trkpt lat="51.687345039099455" lon="0.365905025973916">
        <ele>100</ele>
        <time>2018-02-14T10:10:08Z</time>
      </trkpt>
      <trkpt lat="51.687326012179255" lon="0.365931009873748">
        <ele>100</ele>
        <time>2018-02-14T10:10:09Z</time>
      </trkpt>
      <trkpt lat="51.687307991087437" lon="0.365954982116818">
        <ele>100</ele>
        <time>2018-02-14T10:10:10Z</time>
      </trkpt>
      <trkpt lat="51.687290975823998" lon="0.365976020693779">
        <ele>100</ele>
        <time>2018-02-14T10:10:11Z</time>
      </trkpt>
      <trkpt lat="51.687273038551211" lon="0.366004016250372">
        <ele>100</ele>
        <time>2018-02-14T10:10:12Z</time>
      </trkpt>
      <trkpt lat="51.687259040772915" lon="0.366025976836681">
        <ele>100</ele>
        <time>2018-02-14T10:10:13Z</time>
      </trkpt>
      <trkpt lat="51.687247976660728" lon="0.366057995706797">
        <ele>100</ele>
        <time>2018-02-14T10:10:14Z</time>
      </trkpt>
      <trkpt lat="51.687233978882432" lon="0.366094959899783">
        <ele>100</ele>
        <time>2018-02-14T10:10:15Z</time>
      </trkpt>
      <trkpt lat="51.687222998589277" lon="0.366123039275408">
        <ele>99.900005120065501</ele>
        <time>2018-02-14T10:10:16Z</time>
      </trkpt>
      <trkpt lat="51.687205983325839" lon="0.366166038438678">
        <ele>99</ele>
        <time>2018-02-14T10:10:18Z</time>
      </trkpt>
      <trkpt lat="51.687201960012317" lon="0.366205014288425">
        <ele>99</ele>
        <time>2018-02-14T10:10:20Z</time>
      </trkpt>
      <trkpt lat="51.687186034396291" lon="0.366249019280076">
        <ele>100</ele>
        <time>2018-02-14T10:10:22Z</time>
      </trkpt>
      <trkpt lat="51.687174970284104" lon="0.366272991523147">
        <ele>100</ele>
        <time>2018-02-14T10:10:23Z</time>
      </trkpt>
      <trkpt lat="51.687159966677427" lon="0.366312973201275">
        <ele>100</ele>
        <time>2018-02-14T10:10:25Z</time>
      </trkpt>
      <trkpt lat="51.687160972505808" lon="0.366349015384912">
        <ele>100</ele>
        <time>2018-02-14T10:10:27Z</time>
      </trkpt>
      <trkpt lat="51.687155021354556" lon="0.366406012326479">
        <ele>100</ele>
        <time>2018-02-14T10:10:29Z</time>
      </trkpt>
      <trkpt lat="51.687154015526175" lon="0.366437025368214">
        <ele>100</ele>
        <time>2018-02-14T10:10:30Z</time>
      </trkpt>
      <trkpt lat="51.687150998041034" lon="0.366467032581568">
        <ele>100</ele>
        <time>2018-02-14T10:10:31Z</time>
      </trkpt>
      <trkpt lat="51.687162984162569" lon="0.366525035351515">
        <ele>100</ele>
        <time>2018-02-14T10:10:33Z</time>
      </trkpt>
      <trkpt lat="51.687167007476091" lon="0.36655898205936">
        <ele>100</ele>
        <time>2018-02-14T10:10:34Z</time>
      </trkpt>
      <trkpt lat="51.687182011082768" lon="0.366710023954511">
        <ele>100</ele>
        <time>2018-02-14T10:10:40Z</time>
      </trkpt>
      <trkpt lat="51.687211012467742" lon="0.366875985637307">
        <ele>100</ele>
        <time>2018-02-14T10:10:45Z</time>
      </trkpt>
      <trkpt lat="51.68725099414587" lon="0.367006994783878">
        <ele>100</ele>
        <time>2018-02-14T10:10:50Z</time>
      </trkpt>
      <trkpt lat="51.687300028279424" lon="0.367155019193888">
        <ele>100.219996415954</ele>
        <time>2018-02-14T10:10:55Z</time>
      </trkpt>
      <trkpt lat="51.687350990250707" lon="0.367280999198556">
        <ele>101</ele>
        <time>2018-02-14T10:10:59Z</time>
      </trkpt>
      <trkpt lat="51.687418967485428" lon="0.367416031658649">
        <ele>100</ele>
        <time>2018-02-14T10:11:03Z</time>
      </trkpt>
      <trkpt lat="51.687445035204291" lon="0.367598002776504">
        <ele>100.08999679999999</ele>
        <time>2018-02-14T10:11:08Z</time>
      </trkpt>
      <trkpt lat="51.687474958598614" lon="0.367764970287681">
        <ele>100.90909325989399</ele>
        <time>2018-02-14T10:11:12Z</time>
      </trkpt>
      <trkpt lat="51.687503959983587" lon="0.367914000526071">
        <ele>100</ele>
        <time>2018-02-14T10:11:15Z</time>
      </trkpt>
      <trkpt lat="51.687489962205291" lon="0.368076022714376">
        <ele>100</ele>
        <time>2018-02-14T10:11:19Z</time>
      </trkpt>
      <trkpt lat="51.687469007447362" lon="0.368238966912031">
        <ele>100</ele>
        <time>2018-02-14T10:11:23Z</time>
      </trkpt>
      <trkpt lat="51.687457021325827" lon="0.368279032409191">
        <ele>100</ele>
        <time>2018-02-14T10:11:24Z</time>
      </trkpt>
      <trkpt lat="51.687452998012304" lon="0.368312979117036">
        <ele>100</ele>
        <time>2018-02-14T10:11:25Z</time>
      </trkpt>
      <trkpt lat="51.687449980527163" lon="0.368348015472293">
        <ele>100</ele>
        <time>2018-02-14T10:11:26Z</time>
      </trkpt>
      <trkpt lat="51.687449980527163" lon="0.368381962180138">
        <ele>100</ele>
        <time>2018-02-14T10:11:27Z</time>
      </trkpt>
      <trkpt lat="51.687447968870401" lon="0.368414986878634">
        <ele>100</ele>
        <time>2018-02-14T10:11:28Z</time>
      </trkpt>
      <trkpt lat="51.687449980527163" lon="0.368451029062271">
        <ele>100</ele>
        <time>2018-02-14T10:11:29Z</time>
      </trkpt>
      <trkpt lat="51.687447968870401" lon="0.368487993255258">
        <ele>100</ele>
        <time>2018-02-14T10:11:30Z</time>
      </trkpt>
      <trkpt lat="51.687444029375911" lon="0.368525041267276">
        <ele>100</ele>
        <time>2018-02-14T10:11:31Z</time>
      </trkpt>
      <trkpt lat="51.687435982748866" lon="0.368559993803501">
        <ele>100</ele>
        <time>2018-02-14T10:11:32Z</time>
      </trkpt>
      <trkpt lat="51.687431959435344" lon="0.368592012673616">
        <ele>100</ele>
        <time>2018-02-14T10:11:33Z</time>
      </trkpt>
      <trkpt lat="51.687429025769234" lon="0.368627971038222">
        <ele>100</ele>
        <time>2018-02-14T10:11:34Z</time>
      </trkpt>
      <trkpt lat="51.687420979142189" lon="0.368666024878621">
        <ele>99.826532744703599</ele>
        <time>2018-02-14T10:11:35Z</time>
      </trkpt>
      <trkpt lat="51.687403963878751" lon="0.368732996284962">
        <ele>99</ele>
        <time>2018-02-14T10:11:37Z</time>
      </trkpt>
      <trkpt lat="51.687389966100454" lon="0.368773983791471">
        <ele>98.075761689583601</ele>
        <time>2018-02-14T10:11:39Z</time>
      </trkpt>
      <trkpt lat="51.687405975535512" lon="0.368811031803489">
        <ele>98</ele>
        <time>2018-02-14T10:11:41Z</time>
      </trkpt>
      <trkpt lat="51.687439000234008" lon="0.368840033188462">
        <ele>98.2199964159541</ele>
        <time>2018-02-14T10:11:43Z</time>
      </trkpt>
      <trkpt lat="51.687471019104123" lon="0.36885897628963">
        <ele>99</ele>
        <time>2018-02-14T10:11:45Z</time>
      </trkpt>
      <trkpt lat="51.687488034367561" lon="0.368866017088294">
        <ele>99</ele>
        <time>2018-02-14T10:11:46Z</time>
      </trkpt>
      <trkpt lat="51.687523992732167" lon="0.368881020694971">
        <ele>99</ele>
        <time>2018-02-14T10:11:48Z</time>
      </trkpt>
      <trkpt lat="51.687543019652367" lon="0.368889989331365">
        <ele>99</ele>
        <time>2018-02-14T10:11:49Z</time>
      </trkpt>
      <trkpt lat="51.687561962753534" lon="0.368897030130029">
        <ele>99</ele>
        <time>2018-02-14T10:11:50Z</time>
      </trkpt>
      <trkpt lat="51.68759498745203" lon="0.368898035958409">
        <ele>99</ele>
        <time>2018-02-14T10:11:52Z</time>
      </trkpt>
      <trkpt lat="51.68761502020061" lon="0.368898035958409">
        <ele>99</ele>
        <time>2018-02-14T10:11:53Z</time>
      </trkpt>
      <trkpt lat="51.687695989385247" lon="0.368915973231196">
        <ele>98</ele>
        <time>2018-02-14T10:11:57Z</time>
      </trkpt>
      <trkpt lat="51.68772297911346" lon="0.36892200820148">
        <ele>98</ele>
        <time>2018-02-14T10:11:58Z</time>
      </trkpt>
      <trkpt lat="51.687746029347181" lon="0.368924019858241">
        <ele>98</ele>
        <time>2018-02-14T10:11:59Z</time>
      </trkpt>
      <trkpt lat="51.687775030732155" lon="0.368925025686622">
        <ele>98.188122576229901</ele>
        <time>2018-02-14T10:12:00Z</time>
      </trkpt>
      <trkpt lat="51.687801014631987" lon="0.368930976837873">
        <ele>99</ele>
        <time>2018-02-14T10:12:01Z</time>
      </trkpt>
      <trkpt lat="51.687823981046677" lon="0.368932988494635">
        <ele>99</ele>
        <time>2018-02-14T10:12:02Z</time>
      </trkpt>
      <trkpt lat="51.687847031280398" lon="0.368930976837873">
        <ele>99</ele>
        <time>2018-02-14T10:12:03Z</time>
      </trkpt>
      <trkpt lat="51.687868991866708" lon="0.368936005979776">
        <ele>99</ele>
        <time>2018-02-14T10:12:04Z</time>
      </trkpt>
      <trkpt lat="51.687888018786907" lon="0.368937011808157">
        <ele>99</ele>
        <time>2018-02-14T10:12:05Z</time>
      </trkpt>
      <trkpt lat="51.687908973544836" lon="0.368940029293299">
        <ele>99</ele>
        <time>2018-02-14T10:12:06Z</time>
      </trkpt>
      <trkpt lat="51.687933029606938" lon="0.368954027071595">
        <ele>99.188120192124899</ele>
        <time>2018-02-14T10:12:07Z</time>
      </trkpt>
      <trkpt lat="51.687953984364867" lon="0.368960984051228">
        <ele>100</ele>
        <time>2018-02-14T10:12:08Z</time>
      </trkpt>
      <trkpt lat="51.68797804042697" lon="0.368968024849892">
        <ele>100</ele>
        <time>2018-02-14T10:12:09Z</time>
      </trkpt>
      <trkpt lat="51.68800201267004" lon="0.368970958516002">
        <ele>100</ele>
        <time>2018-02-14T10:12:10Z</time>
      </trkpt>
      <trkpt lat="51.688026990741491" lon="0.368973976001143">
        <ele>100</ele>
        <time>2018-02-14T10:12:11Z</time>
      </trkpt>
      <trkpt lat="51.688051968812943" lon="0.368976993486285">
        <ele>100</ele>
        <time>2018-02-14T10:12:12Z</time>
      </trkpt>
      <trkpt lat="51.688070995733142" lon="0.368979005143046">
        <ele>100</ele>
        <time>2018-02-14T10:12:13Z</time>
      </trkpt>
      <trkpt lat="51.688098991289735" lon="0.368979005143046">
        <ele>100</ele>
        <time>2018-02-14T10:12:14Z</time>
      </trkpt>
      <trkpt lat="51.688122963532805" lon="0.368977999314666">
        <ele>100</ele>
        <time>2018-02-14T10:12:15Z</time>
      </trkpt>
      <trkpt lat="51.688151964917779" lon="0.368973976001143">
        <ele>100</ele>
        <time>2018-02-14T10:12:16Z</time>
      </trkpt>
      <trkpt lat="51.688175015151501" lon="0.368971964344382">
        <ele>100</ele>
        <time>2018-02-14T10:12:17Z</time>
      </trkpt>
      <trkpt lat="51.688197981566191" lon="0.368970958516002">
        <ele>100</ele>
        <time>2018-02-14T10:12:18Z</time>
      </trkpt>
      <trkpt lat="51.688220025971532" lon="0.36896601319313">
        <ele>100</ele>
        <time>2018-02-14T10:12:19Z</time>
      </trkpt>
      <trkpt lat="51.688255984336138" lon="0.368960984051228">
        <ele>100</ele>
        <time>2018-02-14T10:12:21Z</time>
      </trkpt>
      <trkpt lat="51.688277022913098" lon="0.36896500736475">
        <ele>100</ele>
        <time>2018-02-14T10:12:22Z</time>
      </trkpt>
      <trkpt lat="51.688298983499408" lon="0.368968024849892">
        <ele>100</ele>
        <time>2018-02-14T10:12:23Z</time>
      </trkpt>
      <trkpt lat="51.688342988491058" lon="0.368972970172763">
        <ele>100</ele>
        <time>2018-02-14T10:12:25Z</time>
      </trkpt>
      <trkpt lat="51.688366960734129" lon="0.368976993486285">
        <ele>100</ele>
        <time>2018-02-14T10:12:26Z</time>
      </trkpt>
      <trkpt lat="51.688385987654328" lon="0.368974981829524">
        <ele>100</ele>
        <time>2018-02-14T10:12:27Z</time>
      </trkpt>
      <trkpt lat="51.688492018729448" lon="0.368996020406485">
        <ele>100</ele>
        <time>2018-02-14T10:12:32Z</time>
      </trkpt>
      <trkpt lat="51.688528982922435" lon="0.369015969336033">
        <ele>100</ele>
        <time>2018-02-14T10:12:34Z</time>
      </trkpt>
      <trkpt lat="51.688548009842634" lon="0.369018986821175">
        <ele>100</ele>
        <time>2018-02-14T10:12:35Z</time>
      </trkpt>
      <trkpt lat="51.688641970977187" lon="0.369069026783109">
        <ele>100.100005119934</ele>
        <time>2018-02-14T10:12:41Z</time>
      </trkpt>
      <trkpt lat="51.688741967082024" lon="0.369134992361069">
        <ele>101</ele>
        <time>2018-02-14T10:12:46Z</time>
      </trkpt>
      <trkpt lat="51.688835006207228" lon="0.36918100900948">
        <ele>101</ele>
        <time>2018-02-14T10:12:50Z</time>
      </trkpt>
      <trkpt lat="51.688931984826922" lon="0.369271030649543">
        <ele>101</ele>
        <time>2018-02-14T10:12:55Z</time>
      </trkpt>
      <trkpt lat="51.689016977325082" lon="0.369383012875915">
        <ele>100</ele>
        <time>2018-02-14T10:13:00Z</time>
      </trkpt>
      <trkpt lat="51.689096018671989" lon="0.369468005374074">
        <ele>101</ele>
        <time>2018-02-14T10:13:04Z</time>
      </trkpt>
      <trkpt lat="51.689172964543104" lon="0.369551992043853">
        <ele>100</ele>
        <time>2018-02-14T10:13:08Z</time>
      </trkpt>
      <trkpt lat="51.689262986183167" lon="0.369628015905619">
        <ele>100</ele>
        <time>2018-02-14T10:13:12Z</time>
      </trkpt>
      <trkpt lat="51.689340015873313" lon="0.369721977040172">
        <ele>100</ele>
        <time>2018-02-14T10:13:15Z</time>
      </trkpt>
      <trkpt lat="51.689417967572808" lon="0.369833959266543">
        <ele>100</ele>
        <time>2018-02-14T10:13:19Z</time>
      </trkpt>
      <trkpt lat="51.689491979777813" lon="0.369924986734986">
        <ele>100</ele>
        <time>2018-02-14T10:13:23Z</time>
      </trkpt>
      <trkpt lat="51.689591975882649" lon="0.370019031688571">
        <ele>100</ele>
        <time>2018-02-14T10:13:26Z</time>
      </trkpt>
      <trkpt lat="51.689686020836234" lon="0.370135037228465">
        <ele>100</ele>
        <time>2018-02-14T10:13:30Z</time>
      </trkpt>
      <trkpt lat="51.68974201194942" lon="0.370248025283217">
        <ele>100</ele>
        <time>2018-02-14T10:13:34Z</time>
      </trkpt>
      <trkpt lat="51.689816024154425" lon="0.370377022773027">
        <ele>100</ele>
        <time>2018-02-14T10:13:38Z</time>
      </trkpt>
      <trkpt lat="51.689887018874288" lon="0.370504008606076">
        <ele>100</ele>
        <time>2018-02-14T10:13:42Z</time>
      </trkpt>
      <trkpt lat="51.689977962523699" lon="0.37059998139739">
        <ele>99</ele>
        <time>2018-02-14T10:13:47Z</time>
      </trkpt>
      <trkpt lat="51.690060021355748" lon="0.370683968067169">
        <ele>99</ele>
        <time>2018-02-14T10:13:51Z</time>
      </trkpt>
      <trkpt lat="51.690135039389133" lon="0.370797039940953">
        <ele>99</ele>
        <time>2018-02-14T10:13:55Z</time>
      </trkpt>
      <trkpt lat="51.690203016623855" lon="0.370928971096873">
        <ele>99</ele>
        <time>2018-02-14T10:13:59Z</time>
      </trkpt>
      <trkpt lat="51.690275017172098" lon="0.371031984686852">
        <ele>99</ele>
        <time>2018-02-14T10:14:04Z</time>
      </trkpt>
      <trkpt lat="51.690362021327019" lon="0.371090993285179">
        <ele>98</ele>
        <time>2018-02-14T10:14:08Z</time>
      </trkpt>
      <trkpt lat="51.690462017431855" lon="0.371125023812056">
        <ele>98</ele>
        <time>2018-02-14T10:14:13Z</time>
      </trkpt>
      <trkpt lat="51.690550027415156" lon="0.3711589705199">
        <ele>97.7800035840459</ele>
        <time>2018-02-14T10:14:17Z</time>
      </trkpt>
      <trkpt lat="51.690637031570077" lon="0.371228037402034">
        <ele>95</ele>
        <time>2018-02-14T10:14:21Z</time>
      </trkpt>
      <trkpt lat="51.690724035724998" lon="0.371316969394684">
        <ele>95</ele>
        <time>2018-02-14T10:14:25Z</time>
      </trkpt>
      <trkpt lat="51.690787989646196" lon="0.371429035440087">
        <ele>95</ele>
        <time>2018-02-14T10:14:29Z</time>
      </trkpt>
      <trkpt lat="51.690862001851201" lon="0.37154202349484">
        <ele>94</ele>
        <time>2018-02-14T10:14:33Z</time>
      </trkpt>
      <trkpt lat="51.690944982692599" lon="0.371663980185986">
        <ele>94</ele>
        <time>2018-02-14T10:14:37Z</time>
      </trkpt>
      <trkpt lat="51.691002985462546" lon="0.371787026524544">
        <ele>94</ele>
        <time>2018-02-14T10:14:41Z</time>
      </trkpt>
      <trkpt lat="51.691104993224144" lon="0.371882999315858">
        <ele>94</ele>
        <time>2018-02-14T10:14:46Z</time>
      </trkpt>
      <trkpt lat="51.691194009035826" lon="0.372005961835384">
        <ele>93</ele>
        <time>2018-02-14T10:14:50Z</time>
      </trkpt>
      <trkpt lat="51.691232984885573" lon="0.372175024822354">
        <ele>93.205612843026998</ele>
        <time>2018-02-14T10:14:54Z</time>
      </trkpt>
      <trkpt lat="51.691232984885573" lon="0.372247025370598">
        <ele>95</ele>
        <time>2018-02-14T10:14:56Z</time>
      </trkpt>
      <trkpt lat="51.690995022654533" lon="0.372691014781594">
        <ele>91.800003051757798</ele>
        <time>2018-02-19T08:57:06Z</time>
      </trkpt>
      <trkpt lat="51.691012037917972" lon="0.372676011174917">
        <ele>93</ele>
        <time>2018-02-19T08:57:08Z</time>
      </trkpt>
      <trkpt lat="51.691029975190759" lon="0.372652038931847">
        <ele>93</ele>
        <time>2018-02-19T08:57:09Z</time>
      </trkpt>
      <trkpt lat="51.691070962697268" lon="0.372586995363235">
        <ele>93</ele>
        <time>2018-02-19T08:57:11Z</time>
      </trkpt>
      <trkpt lat="51.691086972132325" lon="0.372570985928178">
        <ele>93</ele>
        <time>2018-02-19T08:57:12Z</time>
      </trkpt>
      <trkpt lat="51.691107004880905" lon="0.372552964836359">
        <ele>93</ele>
        <time>2018-02-19T08:57:14Z</time>
      </trkpt>
      <trkpt lat="51.691127037629485" lon="0.372571991756558">
        <ele>93</ele>
        <time>2018-02-19T08:57:17Z</time>
      </trkpt>
      <trkpt lat="51.691128965467215" lon="0.372621025890112">
        <ele>93</ele>
        <time>2018-02-19T08:57:19Z</time>
      </trkpt>
      <trkpt lat="51.691127037629485" lon="0.372666958719492">
        <ele>93</ele>
        <time>2018-02-19T08:57:21Z</time>
      </trkpt>
      <trkpt lat="51.691123014315963" lon="0.372708030045033">
        <ele>93</ele>
        <time>2018-02-19T08:57:23Z</time>
      </trkpt>
      <trkpt lat="51.691119996830821" lon="0.372737031430006">
        <ele>93</ele>
        <time>2018-02-19T08:57:25Z</time>
      </trkpt>
      <trkpt lat="51.691111028194427" lon="0.372771983966231">
        <ele>93</ele>
        <time>2018-02-19T08:57:28Z</time>
      </trkpt>
      <trkpt lat="51.691097030416131" lon="0.372804002836347">
        <ele>93</ele>
        <time>2018-02-19T08:57:30Z</time>
      </trkpt>
      <trkpt lat="51.691087977960706" lon="0.372829986736178">
        <ele>93</ele>
        <time>2018-02-19T08:57:31Z</time>
      </trkpt>
      <trkpt lat="51.691071968525648" lon="0.372868040576577">
        <ele>93</ele>
        <time>2018-02-19T08:57:33Z</time>
      </trkpt>
      <trkpt lat="51.691057970747352" lon="0.372905004769564">
        <ele>93</ele>
        <time>2018-02-19T08:57:35Z</time>
      </trkpt>
      <trkpt lat="51.691043972969055" lon="0.37293903529644">
        <ele>93</ele>
        <time>2018-02-19T08:57:37Z</time>
      </trkpt>
      <trkpt lat="51.691038021817803" lon="0.372974993661046">
        <ele>93</ele>
        <time>2018-02-19T08:57:39Z</time>
      </trkpt>
      <trkpt lat="51.691026035696268" lon="0.373013969510794">
        <ele>93</ele>
        <time>2018-02-19T08:57:41Z</time>
      </trkpt>
      <trkpt lat="51.691018994897604" lon="0.373050011694431">
        <ele>93</ele>
        <time>2018-02-19T08:57:43Z</time>
      </trkpt>
      <trkpt lat="51.69100902043283" lon="0.373097034171224">
        <ele>93</ele>
        <time>2018-02-19T08:57:45Z</time>
      </trkpt>
      <trkpt lat="51.690998040139675" lon="0.373149001970887">
        <ele>93</ele>
        <time>2018-02-19T08:57:47Z</time>
      </trkpt>
      <trkpt lat="51.690980019047856" lon="0.373202981427312">
        <ele>93</ele>
        <time>2018-02-19T08:57:49Z</time>
      </trkpt>
      <trkpt lat="51.690973984077573" lon="0.373244974762201">
        <ele>93</ele>
        <time>2018-02-19T08:57:51Z</time>
      </trkpt>
      <trkpt lat="51.69096602126956" lon="0.373284034430981">
        <ele>93</ele>
        <time>2018-02-19T08:57:53Z</time>
      </trkpt>
      <trkpt lat="51.690948000177741" lon="0.373331978917122">
        <ele>93</ele>
        <time>2018-02-19T08:57:55Z</time>
      </trkpt>
      <trkpt lat="51.690940959379077" lon="0.373360980302095">
        <ele>93</ele>
        <time>2018-02-19T08:57:56Z</time>
      </trkpt>
      <trkpt lat="51.690932996571064" lon="0.373403979465365">
        <ele>93</ele>
        <time>2018-02-19T08:57:58Z</time>
      </trkpt>
      <trkpt lat="51.690926039591432" lon="0.373452007770538">
        <ele>93</ele>
        <time>2018-02-19T08:58:00Z</time>
      </trkpt>
      <trkpt lat="51.69092402793467" lon="0.373483020812273">
        <ele>93</ele>
        <time>2018-02-19T08:58:02Z</time>
      </trkpt>
      <trkpt lat="51.690907012671232" lon="0.37345795892179">
        <ele>93</ele>
        <time>2018-02-19T08:58:44Z</time>
      </trkpt>
      <trkpt lat="51.690898966044188" lon="0.373488971963525">
        <ele>93</ele>
        <time>2018-02-19T08:58:48Z</time>
      </trkpt>
      <trkpt lat="51.690893014892936" lon="0.373529037460685">
        <ele>93</ele>
        <time>2018-02-19T08:58:49Z</time>
      </trkpt>
      <trkpt lat="51.690886979922652" lon="0.373566001653671">
        <ele>93</ele>
        <time>2018-02-19T08:58:50Z</time>
      </trkpt>
      <trkpt lat="51.690882034599781" lon="0.373599026352167">
        <ele>93</ele>
        <time>2018-02-19T08:58:51Z</time>
      </trkpt>
      <trkpt lat="51.690872982144356" lon="0.37362702190876">
        <ele>93</ele>
        <time>2018-02-19T08:58:52Z</time>
      </trkpt>
      <trkpt lat="51.690856972709298" lon="0.373654011636972">
        <ele>93</ele>
        <time>2018-02-19T08:58:53Z</time>
      </trkpt>
      <trkpt lat="51.69083702377975" lon="0.373672032728791">
        <ele>93</ele>
        <time>2018-02-19T08:58:54Z</time>
      </trkpt>
      <trkpt lat="51.690812967717648" lon="0.373687958344817">
        <ele>93</ele>
        <time>2018-02-19T08:58:55Z</time>
      </trkpt>
      <trkpt lat="51.690793018788099" lon="0.373696004971862">
        <ele>93</ele>
        <time>2018-02-19T08:58:56Z</time>
      </trkpt>
      <trkpt lat="51.690768962725997" lon="0.373702961951494">
        <ele>93</ele>
        <time>2018-02-19T08:58:57Z</time>
      </trkpt>
      <trkpt lat="51.690744990482926" lon="0.373703967779875">
        <ele>93</ele>
        <time>2018-02-19T08:58:58Z</time>
      </trkpt>
      <trkpt lat="51.690725041553378" lon="0.373703967779875">
        <ele>93</ele>
        <time>2018-02-19T08:58:59Z</time>
      </trkpt>
      <trkpt lat="51.69068799354136" lon="0.373701034113765">
        <ele>93</ele>
        <time>2018-02-19T08:59:01Z</time>
      </trkpt>
      <trkpt lat="51.690668966621161" lon="0.373701034113765">
        <ele>93</ele>
        <time>2018-02-19T08:59:02Z</time>
      </trkpt>
      <trkpt lat="51.690649017691612" lon="0.373701034113765">
        <ele>93</ele>
        <time>2018-02-19T08:59:03Z</time>
      </trkpt>
      <trkpt lat="51.690629990771413" lon="0.373701034113765">
        <ele>93</ele>
        <time>2018-02-19T08:59:04Z</time>
      </trkpt>
      <trkpt lat="51.690606018528342" lon="0.373703967779875">
        <ele>93</ele>
        <time>2018-02-19T08:59:05Z</time>
      </trkpt>
      <trkpt lat="51.690584979951382" lon="0.373705979436636">
        <ele>93</ele>
        <time>2018-02-19T08:59:06Z</time>
      </trkpt>
      <trkpt lat="51.690562013536692" lon="0.373708996921778">
        <ele>93</ele>
        <time>2018-02-19T08:59:07Z</time>
      </trkpt>
      <trkpt lat="51.69053602963686" lon="0.373710002750158">
        <ele>93</ele>
        <time>2018-02-19T08:59:08Z</time>
      </trkpt>
      <trkpt lat="51.690509961917996" lon="0.3737130202353">
        <ele>93</ele>
        <time>2018-02-19T08:59:09Z</time>
      </trkpt>
      <trkpt lat="51.690488001331687" lon="0.373716959729791">
        <ele>93</ele>
        <time>2018-02-19T08:59:10Z</time>
      </trkpt>
      <trkpt lat="51.690467968583107" lon="0.373722994700074">
        <ele>93</ele>
        <time>2018-02-19T08:59:11Z</time>
      </trkpt>
      <trkpt lat="51.69045003131032" lon="0.37373598664999">
        <ele>93</ele>
        <time>2018-02-19T08:59:12Z</time>
      </trkpt>
      <trkpt lat="51.690436033532023" lon="0.37375601939857">
        <ele>93</ele>
        <time>2018-02-19T08:59:13Z</time>
      </trkpt>
      <trkpt lat="51.690419018268585" lon="0.373779991641641">
        <ele>93</ele>
        <time>2018-02-19T08:59:14Z</time>
      </trkpt>
      <trkpt lat="51.690406026318669" lon="0.373812010511756">
        <ele>93</ele>
        <time>2018-02-19T08:59:15Z</time>
      </trkpt>
      <trkpt lat="51.690398985520005" lon="0.373845035210252">
        <ele>93</ele>
        <time>2018-02-19T08:59:16Z</time>
      </trkpt>
      <trkpt lat="51.690394962206483" lon="0.373884011059999">
        <ele>93</ele>
        <time>2018-02-19T08:59:17Z</time>
      </trkpt>
      <trkpt lat="51.690394040197134" lon="0.373918963596225">
        <ele>93</ele>
        <time>2018-02-19T08:59:18Z</time>
      </trkpt>
      <trkpt lat="51.690395968034863" lon="0.373951988294721">
        <ele>93</ele>
        <time>2018-02-19T08:59:19Z</time>
      </trkpt>
      <trkpt lat="51.690397979691625" lon="0.373986018821597">
        <ele>93</ele>
        <time>2018-02-19T08:59:20Z</time>
      </trkpt>
      <trkpt lat="51.690393034368753" lon="0.374023988842964">
        <ele>93</ele>
        <time>2018-02-19T08:59:21Z</time>
      </trkpt>
      <trkpt lat="51.690390016883612" lon="0.374061958864331">
        <ele>93</ele>
        <time>2018-02-19T08:59:22Z</time>
      </trkpt>
      <trkpt lat="51.690390016883612" lon="0.374093977734447">
        <ele>93</ele>
        <time>2018-02-19T08:59:23Z</time>
      </trkpt>
      <trkpt lat="51.690408959984779" lon="0.374145023524761">
        <ele>93</ele>
        <time>2018-02-19T08:59:25Z</time>
      </trkpt>
      <trkpt lat="51.690423041582108" lon="0.374181987717748">
        <ele>93</ele>
        <time>2018-02-19T08:59:27Z</time>
      </trkpt>
      <trkpt lat="51.690448019653559" lon="0.374205959960818">
        <ele>93</ele>
        <time>2018-02-19T08:59:29Z</time>
      </trkpt>
      <trkpt lat="51.690462017431855" lon="0.374223981052637">
        <ele>93</ele>
        <time>2018-02-19T08:59:30Z</time>
      </trkpt>
      <trkpt lat="51.690477021038532" lon="0.374242002144456">
        <ele>93</ele>
        <time>2018-02-19T08:59:31Z</time>
      </trkpt>
      <trkpt lat="51.690486995503306" lon="0.37427200935781">
        <ele>93</ele>
        <time>2018-02-19T08:59:32Z</time>
      </trkpt>
      <trkpt lat="51.690494958311319" lon="0.374304028227925">
        <ele>93</ele>
        <time>2018-02-19T08:59:33Z</time>
      </trkpt>
      <trkpt lat="51.690501999109983" lon="0.374335963279009">
        <ele>93</ele>
        <time>2018-02-19T08:59:34Z</time>
      </trkpt>
      <trkpt lat="51.690508034080267" lon="0.374365970492363">
        <ele>93</ele>
        <time>2018-02-19T08:59:35Z</time>
      </trkpt>
      <trkpt lat="51.690514991059899" lon="0.374410981312394">
        <ele>93</ele>
        <time>2018-02-19T08:59:37Z</time>
      </trkpt>
      <trkpt lat="51.690525971353054" lon="0.374456997960806">
        <ele>93</ele>
        <time>2018-02-19T08:59:39Z</time>
      </trkpt>
      <trkpt lat="51.690534017980099" lon="0.374497985467315">
        <ele>93</ele>
        <time>2018-02-19T08:59:41Z</time>
      </trkpt>
      <trkpt lat="51.690541980788112" lon="0.374538972973824">
        <ele>93</ele>
        <time>2018-02-19T08:59:43Z</time>
      </trkpt>
      <trkpt lat="51.690550027415156" lon="0.374589012935758">
        <ele>93</ele>
        <time>2018-02-19T08:59:45Z</time>
      </trkpt>
      <trkpt lat="51.690555978566408" lon="0.374635029584169">
        <ele>93</ele>
        <time>2018-02-19T08:59:47Z</time>
      </trkpt>
      <trkpt lat="51.690566958859563" lon="0.374661013484001">
        <ele>93</ele>
        <time>2018-02-19T08:59:50Z</time>
      </trkpt>
      <trkpt lat="51.690569976344705" lon="0.374697977676988">
        <ele>93</ele>
        <time>2018-02-19T08:59:52Z</time>
      </trkpt>
      <trkpt lat="51.690570982173085" lon="0.374732008203864">
        <ele>93</ele>
        <time>2018-02-19T08:59:53Z</time>
      </trkpt>
      <trkpt lat="51.690568970516324" lon="0.374781964346766">
        <ele>93</ele>
        <time>2018-02-19T08:59:55Z</time>
      </trkpt>
      <trkpt lat="51.690572993829846" lon="0.374834015965462">
        <ele>93</ele>
        <time>2018-02-19T08:59:57Z</time>
      </trkpt>
      <trkpt lat="51.690575005486608" lon="0.374881038442254">
        <ele>93</ele>
        <time>2018-02-19T08:59:59Z</time>
      </trkpt>
      <trkpt lat="51.690570982173085" lon="0.374913979321718">
        <ele>93</ele>
        <time>2018-02-19T09:00:01Z</time>
      </trkpt>
      <trkpt lat="51.690562013536692" lon="0.374953960999846">
        <ele>93</ele>
        <time>2018-02-19T09:00:04Z</time>
      </trkpt>
      <trkpt lat="51.690549021586776" lon="0.374993020668626">
        <ele>93</ele>
        <time>2018-02-19T09:00:06Z</time>
      </trkpt>
      <trkpt lat="51.690544998273253" lon="0.375022022053599">
        <ele>93</ele>
        <time>2018-02-19T09:00:08Z</time>
      </trkpt>
      <trkpt lat="51.690552039071918" lon="0.375060997903347">
        <ele>93</ele>
        <time>2018-02-19T09:00:10Z</time>
      </trkpt>
      <trkpt lat="51.690547009930015" lon="0.375093016773462">
        <ele>93</ele>
        <time>2018-02-19T09:00:12Z</time>
      </trkpt>
      <trkpt lat="51.690539969131351" lon="0.375134004279971">
        <ele>93</ele>
        <time>2018-02-19T09:00:15Z</time>
      </trkpt>
      <trkpt lat="51.690531000494957" lon="0.375163005664945">
        <ele>93</ele>
        <time>2018-02-19T09:00:17Z</time>
      </trkpt>
      <trkpt lat="51.690533012151718" lon="0.375208016484976">
        <ele>93</ele>
        <time>2018-02-19T09:00:19Z</time>
      </trkpt>
      <trkpt lat="51.690528988838196" lon="0.375253027305007">
        <ele>93</ele>
        <time>2018-02-19T09:00:21Z</time>
      </trkpt>
      <trkpt lat="51.690526977181435" lon="0.375284962356091">
        <ele>93</ele>
        <time>2018-02-19T09:00:22Z</time>
      </trkpt>
      <trkpt lat="51.690524965524673" lon="0.375314969569445">
        <ele>93</ele>
        <time>2018-02-19T09:00:23Z</time>
      </trkpt>
      <trkpt lat="51.690531000494957" lon="0.375345982611179">
        <ele>93</ele>
        <time>2018-02-19T09:00:24Z</time>
      </trkpt>
      <trkpt lat="51.690546004101634" lon="0.375398034229875">
        <ele>93</ele>
        <time>2018-02-19T09:00:26Z</time>
      </trkpt>
      <trkpt lat="51.690551033243537" lon="0.375433992594481">
        <ele>93</ele>
        <time>2018-02-19T09:00:27Z</time>
      </trkpt>
      <trkpt lat="51.690557990223169" lon="0.375474980100989">
        <ele>93</ele>
        <time>2018-02-19T09:00:28Z</time>
      </trkpt>
      <trkpt lat="51.690564025193453" lon="0.375502975657582">
        <ele>93</ele>
        <time>2018-02-19T09:00:29Z</time>
      </trkpt>
      <trkpt lat="51.690567964687943" lon="0.375531977042556">
        <ele>93</ele>
        <time>2018-02-19T09:00:33Z</time>
      </trkpt>
      <trkpt lat="51.690578022971749" lon="0.375567013397813">
        <ele>93</ele>
        <time>2018-02-19T09:00:36Z</time>
      </trkpt>
      <trkpt lat="51.690589003264904" lon="0.375591991469264">
        <ele>93</ele>
        <time>2018-02-19T09:00:38Z</time>
      </trkpt>
      <trkpt lat="51.690598977729678" lon="0.375619987025857">
        <ele>93</ele>
        <time>2018-02-19T09:00:40Z</time>
      </trkpt>
      <trkpt lat="51.690589003264904" lon="0.375652005895972">
        <ele>93</ele>
        <time>2018-02-19T09:01:04Z</time>
      </trkpt>
      <trkpt lat="51.690600989386439" lon="0.375706991180778">
        <ele>93</ele>
        <time>2018-02-19T09:01:06Z</time>
      </trkpt>
      <trkpt lat="51.690620016306639" lon="0.375758958980441">
        <ele>93</ele>
        <time>2018-02-19T09:01:08Z</time>
      </trkpt>
      <trkpt lat="51.690626973286271" lon="0.375788966193795">
        <ele>93</ele>
        <time>2018-02-19T09:01:09Z</time>
      </trkpt>
      <trkpt lat="51.690637031570077" lon="0.375828025862575">
        <ele>93</ele>
        <time>2018-02-19T09:01:10Z</time>
      </trkpt>
      <trkpt lat="51.690641976892948" lon="0.375871025025845">
        <ele>93</ele>
        <time>2018-02-19T09:01:11Z</time>
      </trkpt>
      <trkpt lat="51.69064499437809" lon="0.37590698339045">
        <ele>93</ele>
        <time>2018-02-19T09:01:12Z</time>
      </trkpt>
      <trkpt lat="51.690652035176754" lon="0.375946965068579">
        <ele>93</ele>
        <time>2018-02-19T09:01:13Z</time>
      </trkpt>
      <trkpt lat="51.690654968842864" lon="0.375987030565739">
        <ele>93</ele>
        <time>2018-02-19T09:01:14Z</time>
      </trkpt>
      <trkpt lat="51.690658992156386" lon="0.376025000587106">
        <ele>93</ele>
        <time>2018-02-19T09:01:15Z</time>
      </trkpt>
      <trkpt lat="51.690667038783431" lon="0.376058025285602">
        <ele>93</ele>
        <time>2018-02-19T09:01:16Z</time>
      </trkpt>
      <trkpt lat="51.690671984106302" lon="0.376093983650208">
        <ele>93</ele>
        <time>2018-02-19T09:01:17Z</time>
      </trkpt>
      <trkpt lat="51.690677013248205" lon="0.376133965328336">
        <ele>93</ele>
        <time>2018-02-19T09:01:18Z</time>
      </trkpt>
      <trkpt lat="51.690679024904966" lon="0.37618501111865">
        <ele>93</ele>
        <time>2018-02-19T09:01:20Z</time>
      </trkpt>
      <trkpt lat="51.690696962177753" lon="0.37622700445354">
        <ele>93</ele>
        <time>2018-02-19T09:01:22Z</time>
      </trkpt>
      <trkpt lat="51.690704002976418" lon="0.376286013051867">
        <ele>93</ele>
        <time>2018-02-19T09:01:24Z</time>
      </trkpt>
      <trkpt lat="51.690698973834515" lon="0.376337980851531">
        <ele>93</ele>
        <time>2018-02-19T09:01:26Z</time>
      </trkpt>
      <trkpt lat="51.690702997148037" lon="0.37639900110662">
        <ele>93</ele>
        <time>2018-02-19T09:01:28Z</time>
      </trkpt>
      <trkpt lat="51.690701991319656" lon="0.376434037461877">
        <ele>93</ele>
        <time>2018-02-19T09:01:29Z</time>
      </trkpt>
      <trkpt lat="51.690699979662895" lon="0.376472007483244">
        <ele>93</ele>
        <time>2018-02-19T09:01:30Z</time>
      </trkpt>
      <trkpt lat="51.690701991319656" lon="0.376530010253191">
        <ele>93</ele>
        <time>2018-02-19T09:01:32Z</time>
      </trkpt>
      <trkpt lat="51.690701991319656" lon="0.376562029123306">
        <ele>93</ele>
        <time>2018-02-19T09:01:33Z</time>
      </trkpt>
      <trkpt lat="51.690700985491276" lon="0.376598993316293">
        <ele>93</ele>
        <time>2018-02-19T09:01:34Z</time>
      </trkpt>
      <trkpt lat="51.690705008804798" lon="0.37663503549993">
        <ele>93</ele>
        <time>2018-02-19T09:01:35Z</time>
      </trkpt>
      <trkpt lat="51.69070802628994" lon="0.376673005521297">
        <ele>93</ele>
        <time>2018-02-19T09:01:36Z</time>
      </trkpt>
      <trkpt lat="51.690706014633179" lon="0.376716004684567">
        <ele>93</ele>
        <time>2018-02-19T09:01:37Z</time>
      </trkpt>
      <trkpt lat="51.690705008804798" lon="0.376753974705935">
        <ele>93</ele>
        <time>2018-02-19T09:01:38Z</time>
      </trkpt>
      <trkpt lat="51.69070802628994" lon="0.376791022717953">
        <ele>93</ele>
        <time>2018-02-19T09:01:39Z</time>
      </trkpt>
      <trkpt lat="51.690714983269572" lon="0.376823041588068">
        <ele>93</ele>
        <time>2018-02-19T09:01:40Z</time>
      </trkpt>
      <trkpt lat="51.690724035724998" lon="0.37689202465117">
        <ele>93</ele>
        <time>2018-02-19T09:01:42Z</time>
      </trkpt>
      <trkpt lat="51.690727975219488" lon="0.376968970522285">
        <ele>93</ele>
        <time>2018-02-19T09:01:44Z</time>
      </trkpt>
      <trkpt lat="51.690729986876249" lon="0.377010041847825">
        <ele>93</ele>
        <time>2018-02-19T09:01:45Z</time>
      </trkpt>
      <trkpt lat="51.690726969391108" lon="0.377046000212431">
        <ele>93</ele>
        <time>2018-02-19T09:01:46Z</time>
      </trkpt>
      <trkpt lat="51.690727975219488" lon="0.377104002982378">
        <ele>93</ele>
        <time>2018-02-19T09:01:48Z</time>
      </trkpt>
      <trkpt lat="51.69073099270463" lon="0.377140967175364">
        <ele>93</ele>
        <time>2018-02-19T09:01:49Z</time>
      </trkpt>
      <trkpt lat="51.69073099270463" lon="0.377176003530622">
        <ele>93</ele>
        <time>2018-02-19T09:01:50Z</time>
      </trkpt>
      <trkpt lat="51.690735016018152" lon="0.377208022400737">
        <ele>93</ele>
        <time>2018-02-19T09:01:51Z</time>
      </trkpt>
      <trkpt lat="51.690738033503294" lon="0.377239035442472">
        <ele>93</ele>
        <time>2018-02-19T09:01:52Z</time>
      </trkpt>
      <trkpt lat="51.690742978826165" lon="0.377288991585374">
        <ele>93</ele>
        <time>2018-02-19T09:01:54Z</time>
      </trkpt>
      <trkpt lat="51.690747002139688" lon="0.37734498269856">
        <ele>93</ele>
        <time>2018-02-19T09:01:56Z</time>
      </trkpt>
      <trkpt lat="51.690747002139688" lon="0.377378007397056">
        <ele>93</ele>
        <time>2018-02-19T09:01:57Z</time>
      </trkpt>
      <trkpt lat="51.690757982432842" lon="0.377414971590042">
        <ele>93</ele>
        <time>2018-02-19T09:01:58Z</time>
      </trkpt>
      <trkpt lat="51.690764017403126" lon="0.377443972975016">
        <ele>93</ele>
        <time>2018-02-19T09:01:59Z</time>
      </trkpt>
      <trkpt lat="51.690767034888268" lon="0.37747398018837">
        <ele>93</ele>
        <time>2018-02-19T09:02:00Z</time>
      </trkpt>
      <trkpt lat="51.690770974382758" lon="0.377531982958317">
        <ele>93</ele>
        <time>2018-02-19T09:02:02Z</time>
      </trkpt>
      <trkpt lat="51.690777009353042" lon="0.377567019313574">
        <ele>93</ele>
        <time>2018-02-19T09:02:03Z</time>
      </trkpt>
      <trkpt lat="51.690779021009803" lon="0.377608006820083">
        <ele>93</ele>
        <time>2018-02-19T09:02:04Z</time>
      </trkpt>
      <trkpt lat="51.690782960504293" lon="0.377647988498211">
        <ele>93</ele>
        <time>2018-02-19T09:02:05Z</time>
      </trkpt>
      <trkpt lat="51.690785977989435" lon="0.377695010975003">
        <ele>93</ele>
        <time>2018-02-19T09:02:06Z</time>
      </trkpt>
      <trkpt lat="51.690786983817816" lon="0.377741027623415">
        <ele>93</ele>
        <time>2018-02-19T09:02:07Z</time>
      </trkpt>
      <trkpt lat="51.690785977989435" lon="0.377785032615066">
        <ele>93</ele>
        <time>2018-02-19T09:02:08Z</time>
      </trkpt>
      <trkpt lat="51.690784972161055" lon="0.37781897932291">
        <ele>93</ele>
        <time>2018-02-19T09:02:09Z</time>
      </trkpt>
      <trkpt lat="51.690786983817816" lon="0.377856027334929">
        <ele>93</ele>
        <time>2018-02-19T09:02:10Z</time>
      </trkpt>
      <trkpt lat="51.690782960504293" lon="0.377922998741269">
        <ele>93</ele>
        <time>2018-02-19T09:02:12Z</time>
      </trkpt>
      <trkpt lat="51.690781032666564" lon="0.377960968762636">
        <ele>93</ele>
        <time>2018-02-19T09:02:13Z</time>
      </trkpt>
      <trkpt lat="51.6907739918679" lon="0.378020983189344">
        <ele>93</ele>
        <time>2018-02-19T09:02:15Z</time>
      </trkpt>
      <trkpt lat="51.690772986039519" lon="0.378050990402699">
        <ele>93</ele>
        <time>2018-02-19T09:02:16Z</time>
      </trkpt>
      <trkpt lat="51.690771980211139" lon="0.378083009272814">
        <ele>93</ele>
        <time>2018-02-19T09:02:17Z</time>
      </trkpt>
      <trkpt lat="51.690771980211139" lon="0.378113016486168">
        <ele>93</ele>
        <time>2018-02-19T09:02:18Z</time>
      </trkpt>
      <trkpt lat="51.690766029059887" lon="0.378146963194013">
        <ele>93</ele>
        <time>2018-02-19T09:02:19Z</time>
      </trkpt>
      <trkpt lat="51.690765023231506" lon="0.378176970407367">
        <ele>93</ele>
        <time>2018-02-19T09:02:20Z</time>
      </trkpt>
      <trkpt lat="51.690759994089603" lon="0.378206977620721">
        <ele>93</ele>
        <time>2018-02-19T09:02:21Z</time>
      </trkpt>
      <trkpt lat="51.690756976604462" lon="0.378246959298849">
        <ele>93</ele>
        <time>2018-02-19T09:02:23Z</time>
      </trkpt>
      <trkpt lat="51.690743984654546" lon="0.378272021189332">
        <ele>93</ele>
        <time>2018-02-19T09:02:27Z</time>
      </trkpt>
      <trkpt lat="51.690735016018152" lon="0.378307979553938">
        <ele>93</ele>
        <time>2018-02-19T09:02:30Z</time>
      </trkpt>
      <trkpt lat="51.69073199853301" lon="0.378351984545588">
        <ele>93</ele>
        <time>2018-02-19T09:02:32Z</time>
      </trkpt>
      <trkpt lat="51.69073199853301" lon="0.378392972052097">
        <ele>93</ele>
        <time>2018-02-19T09:02:34Z</time>
      </trkpt>
      <trkpt lat="51.690725963562727" lon="0.378438988700509">
        <ele>93</ele>
        <time>2018-02-19T09:02:36Z</time>
      </trkpt>
      <trkpt lat="51.690719006583095" lon="0.378476958721876">
        <ele>93</ele>
        <time>2018-02-19T09:02:38Z</time>
      </trkpt>
      <trkpt lat="51.690713977441192" lon="0.378516018390656">
        <ele>93</ele>
        <time>2018-02-19T09:02:40Z</time>
      </trkpt>
      <trkpt lat="51.690706014633179" lon="0.378550970926881">
        <ele>93</ele>
        <time>2018-02-19T09:02:42Z</time>
      </trkpt>
      <trkpt lat="51.690694028511643" lon="0.378603022545576">
        <ele>93</ele>
        <time>2018-02-19T09:02:44Z</time>
      </trkpt>
      <trkpt lat="51.690690005198121" lon="0.378634035587311">
        <ele>93</ele>
        <time>2018-02-19T09:02:45Z</time>
      </trkpt>
      <trkpt lat="51.690681958571076" lon="0.378668988123536">
        <ele>93</ele>
        <time>2018-02-19T09:02:46Z</time>
      </trkpt>
      <trkpt lat="51.690675001591444" lon="0.378704024478793">
        <ele>93</ele>
        <time>2018-02-19T09:02:47Z</time>
      </trkpt>
      <trkpt lat="51.690669972449541" lon="0.37874199450016">
        <ele>93</ele>
        <time>2018-02-19T09:02:48Z</time>
      </trkpt>
      <trkpt lat="51.690664021298289" lon="0.378778958693147">
        <ele>93</ele>
        <time>2018-02-19T09:02:49Z</time>
      </trkpt>
      <trkpt lat="51.690659997984767" lon="0.378815000876784">
        <ele>93</ele>
        <time>2018-02-19T09:02:50Z</time>
      </trkpt>
      <trkpt lat="51.690653963014483" lon="0.378850037232041">
        <ele>93</ele>
        <time>2018-02-19T09:02:51Z</time>
      </trkpt>
      <trkpt lat="51.690648011863232" lon="0.378879960626364">
        <ele>93</ele>
        <time>2018-02-19T09:02:52Z</time>
      </trkpt>
      <trkpt lat="51.690643988549709" lon="0.378911979496479">
        <ele>86</ele>
        <time>2018-02-19T09:02:53Z</time>
      </trkpt>
      <trkpt lat="51.690637031570077" lon="0.378945004194975">
        <ele>86</ele>
        <time>2018-02-19T09:02:54Z</time>
      </trkpt>
      <trkpt lat="51.690628984943032" lon="0.378978028893471">
        <ele>86</ele>
        <time>2018-02-19T09:02:55Z</time>
      </trkpt>
      <trkpt lat="51.6906220279634" lon="0.379013987258077">
        <ele>86</ele>
        <time>2018-02-19T09:02:56Z</time>
      </trkpt>
      <trkpt lat="51.690614987164736" lon="0.379049023613334">
        <ele>85</ele>
        <time>2018-02-19T09:02:57Z</time>
      </trkpt>
      <trkpt lat="51.690609036013484" lon="0.379079030826688">
        <ele>85</ele>
        <time>2018-02-19T09:02:58Z</time>
      </trkpt>
      <trkpt lat="51.690606018528342" lon="0.379124041646719">
        <ele>85</ele>
        <time>2018-02-19T09:03:00Z</time>
      </trkpt>
      <trkpt lat="51.690605012699962" lon="0.379163017496467">
        <ele>85</ele>
        <time>2018-02-19T09:03:02Z</time>
      </trkpt>
      <trkpt lat="51.690583974123001" lon="0.379193024709821">
        <ele>85</ele>
        <time>2018-02-19T09:03:13Z</time>
      </trkpt>
      <trkpt lat="51.690575005486608" lon="0.379226971417665">
        <ele>85</ele>
        <time>2018-02-19T09:03:14Z</time>
      </trkpt>
      <trkpt lat="51.690565031021833" lon="0.379263013601303">
        <ele>85</ele>
        <time>2018-02-19T09:03:15Z</time>
      </trkpt>
      <trkpt lat="51.690553966909647" lon="0.379304001107812">
        <ele>84.887850802689201</ele>
        <time>2018-02-19T09:03:16Z</time>
      </trkpt>
      <trkpt lat="51.690546004101634" lon="0.37934297695756">
        <ele>84</ele>
        <time>2018-02-19T09:03:17Z</time>
      </trkpt>
      <trkpt lat="51.69053896330297" lon="0.379382036626339">
        <ele>84</ele>
        <time>2018-02-19T09:03:18Z</time>
      </trkpt>
      <trkpt lat="51.690534017980099" lon="0.379419000819325">
        <ele>84</ele>
        <time>2018-02-19T09:03:19Z</time>
      </trkpt>
      <trkpt lat="51.690528988838196" lon="0.379454959183931">
        <ele>83.9166666666667</ele>
        <time>2018-02-19T09:03:20Z</time>
      </trkpt>
      <trkpt lat="51.690524965524673" lon="0.379489995539188">
        <ele>83</ele>
        <time>2018-02-19T09:03:21Z</time>
      </trkpt>
      <trkpt lat="51.690520020201802" lon="0.379523020237684">
        <ele>83</ele>
        <time>2018-02-19T09:03:22Z</time>
      </trkpt>
      <trkpt lat="51.690513985231519" lon="0.379556966945529">
        <ele>83</ele>
        <time>2018-02-19T09:03:23Z</time>
      </trkpt>
      <trkpt lat="51.690505016595125" lon="0.379590997472405">
        <ele>83</ele>
        <time>2018-02-19T09:03:24Z</time>
      </trkpt>
      <trkpt lat="51.690496969968081" lon="0.379624022170901">
        <ele>83</ele>
        <time>2018-02-19T09:03:25Z</time>
      </trkpt>
      <trkpt lat="51.690489007160068" lon="0.379659980535507">
        <ele>83</ele>
        <time>2018-02-19T09:03:26Z</time>
      </trkpt>
      <trkpt lat="51.690480038523674" lon="0.379694011062384">
        <ele>83</ele>
        <time>2018-02-19T09:03:27Z</time>
      </trkpt>
      <trkpt lat="51.690471991896629" lon="0.37972703576088">
        <ele>83</ele>
        <time>2018-02-19T09:03:28Z</time>
      </trkpt>
      <trkpt lat="51.690464029088616" lon="0.379763999953866">
        <ele>83</ele>
        <time>2018-02-19T09:03:29Z</time>
      </trkpt>
      <trkpt lat="51.690455982461572" lon="0.379799958318472">
        <ele>83</ele>
        <time>2018-02-19T09:03:30Z</time>
      </trkpt>
      <trkpt lat="51.69045003131032" lon="0.37983600050211">
        <ele>83</ele>
        <time>2018-02-19T09:03:31Z</time>
      </trkpt>
      <trkpt lat="51.690441984683275" lon="0.379875982180238">
        <ele>83</ele>
        <time>2018-02-19T09:03:32Z</time>
      </trkpt>
      <trkpt lat="51.690436033532023" lon="0.379911018535495">
        <ele>83</ele>
        <time>2018-02-19T09:03:33Z</time>
      </trkpt>
      <trkpt lat="51.690428992733359" lon="0.379946976900101">
        <ele>83</ele>
        <time>2018-02-19T09:03:34Z</time>
      </trkpt>
      <trkpt lat="51.690422035753727" lon="0.379982013255358">
        <ele>83</ele>
        <time>2018-02-19T09:03:35Z</time>
      </trkpt>
      <trkpt lat="51.690414994955063" lon="0.380013026297092">
        <ele>82.9462398150187</ele>
        <time>2018-02-19T09:03:36Z</time>
      </trkpt>
      <trkpt lat="51.69040703214705" lon="0.380047978833318">
        <ele>82</ele>
        <time>2018-02-19T09:03:37Z</time>
      </trkpt>
      <trkpt lat="51.690398985520005" lon="0.380083015188575">
        <ele>82</ele>
        <time>2018-02-19T09:03:38Z</time>
      </trkpt>
      <trkpt lat="51.690392028540373" lon="0.380119979381561">
        <ele>82</ele>
        <time>2018-02-19T09:03:39Z</time>
      </trkpt>
      <trkpt lat="51.690383981913328" lon="0.380157027393579">
        <ele>82</ele>
        <time>2018-02-19T09:03:40Z</time>
      </trkpt>
      <trkpt lat="51.690376019105315" lon="0.380189968273044">
        <ele>82</ele>
        <time>2018-02-19T09:03:41Z</time>
      </trkpt>
      <trkpt lat="51.690368978306651" lon="0.380221987143159">
        <ele>82</ele>
        <time>2018-02-19T09:03:42Z</time>
      </trkpt>
      <trkpt lat="51.690361015498638" lon="0.380251994356513">
        <ele>82</ele>
        <time>2018-02-19T09:03:43Z</time>
      </trkpt>
      <trkpt lat="51.690351041033864" lon="0.380279989913106">
        <ele>82</ele>
        <time>2018-02-19T09:03:44Z</time>
      </trkpt>
      <trkpt lat="51.690337965264916" lon="0.380304967984557">
        <ele>82</ele>
        <time>2018-02-19T09:03:45Z</time>
      </trkpt>
      <trkpt lat="51.690325979143381" lon="0.380329024046659">
        <ele>82</ele>
        <time>2018-02-19T09:03:46Z</time>
      </trkpt>
      <trkpt lat="51.690312987193465" lon="0.38035299628973">
        <ele>81.907219487734395</ele>
        <time>2018-02-19T09:03:47Z</time>
      </trkpt>
      <trkpt lat="51.690295971930027" lon="0.380376968532801">
        <ele>81</ele>
        <time>2018-02-19T09:03:48Z</time>
      </trkpt>
      <trkpt lat="51.690279962494969" lon="0.380399012938142">
        <ele>81</ele>
        <time>2018-02-19T09:03:49Z</time>
      </trkpt>
      <trkpt lat="51.690263031050563" lon="0.380421979352832">
        <ele>81</ele>
        <time>2018-02-19T09:03:50Z</time>
      </trkpt>
      <trkpt lat="51.690247021615505" lon="0.380441006273031">
        <ele>80.879999999999995</ele>
        <time>2018-02-19T09:03:51Z</time>
      </trkpt>
      <trkpt lat="51.690231012180448" lon="0.38046196103096">
        <ele>80</ele>
        <time>2018-02-19T09:03:52Z</time>
      </trkpt>
      <trkpt lat="51.690211985260248" lon="0.38048199377954">
        <ele>80</ele>
        <time>2018-02-19T09:03:53Z</time>
      </trkpt>
      <trkpt lat="51.69019496999681" lon="0.380503032356501">
        <ele>80</ele>
        <time>2018-02-19T09:03:54Z</time>
      </trkpt>
      <trkpt lat="51.690175021067262" lon="0.38052499294281">
        <ele>80</ele>
        <time>2018-02-19T09:03:55Z</time>
      </trkpt>
      <trkpt lat="51.690158005803823" lon="0.380544019863009">
        <ele>80</ele>
        <time>2018-02-19T09:03:56Z</time>
      </trkpt>
      <trkpt lat="51.690141996368766" lon="0.380559023469687">
        <ele>80</ele>
        <time>2018-02-19T09:03:57Z</time>
      </trkpt>
      <trkpt lat="51.690124981105328" lon="0.380576038733125">
        <ele>80</ele>
        <time>2018-02-19T09:03:58Z</time>
      </trkpt>
      <trkpt lat="51.690105032175779" lon="0.380596993491054">
        <ele>80</ele>
        <time>2018-02-19T09:03:59Z</time>
      </trkpt>
      <trkpt lat="51.690089022740722" lon="0.380613002926111">
        <ele>80</ele>
        <time>2018-02-19T09:04:00Z</time>
      </trkpt>
      <trkpt lat="51.690069995820522" lon="0.38063102401793">
        <ele>79.956521739130395</ele>
        <time>2018-02-19T09:04:01Z</time>
      </trkpt>
      <trkpt lat="51.690050968900323" lon="0.380645021796227">
        <ele>79</ele>
        <time>2018-02-19T09:04:02Z</time>
      </trkpt>
      <trkpt lat="51.690032025799155" lon="0.380659019574523">
        <ele>79</ele>
        <time>2018-02-19T09:04:03Z</time>
      </trkpt>
      <trkpt lat="51.690012998878956" lon="0.380677040666342">
        <ele>79</ele>
        <time>2018-02-19T09:04:04Z</time>
      </trkpt>
      <trkpt lat="51.689993971958756" lon="0.380694977939129">
        <ele>79</ele>
        <time>2018-02-19T09:04:05Z</time>
      </trkpt>
      <trkpt lat="51.689975028857589" lon="0.380707969889045">
        <ele>79</ele>
        <time>2018-02-19T09:04:06Z</time>
      </trkpt>
      <trkpt lat="51.689954996109009" lon="0.380720039829612">
        <ele>79</ele>
        <time>2018-02-19T09:04:07Z</time>
      </trkpt>
      <trkpt lat="51.68993697501719" lon="0.380734037607908">
        <ele>79</ele>
        <time>2018-02-19T09:04:08Z</time>
      </trkpt>
      <trkpt lat="51.689920965582132" lon="0.380750969052315">
        <ele>79</ele>
        <time>2018-02-19T09:04:09Z</time>
      </trkpt>
      <trkpt lat="51.689890036359429" lon="0.380778964608908">
        <ele>79</ele>
        <time>2018-02-19T09:04:11Z</time>
      </trkpt>
      <trkpt lat="51.689874026924372" lon="0.380792040377855">
        <ele>79</ele>
        <time>2018-02-19T09:04:12Z</time>
      </trkpt>
      <trkpt lat="51.689851982519031" lon="0.380810983479023">
        <ele>79</ele>
        <time>2018-02-19T09:04:13Z</time>
      </trkpt>
      <trkpt lat="51.689835973083973" lon="0.380824981257319">
        <ele>79</ele>
        <time>2018-02-19T09:04:14Z</time>
      </trkpt>
      <trkpt lat="51.689819041639566" lon="0.380847025662661">
        <ele>78</ele>
        <time>2018-02-19T09:04:15Z</time>
      </trkpt>
      <trkpt lat="51.689800014719367" lon="0.380866974592209">
        <ele>78</ele>
        <time>2018-02-19T09:04:16Z</time>
      </trkpt>
      <trkpt lat="51.68978501111269" lon="0.380882984027267">
        <ele>78</ele>
        <time>2018-02-19T09:04:17Z</time>
      </trkpt>
      <trkpt lat="51.689765984192491" lon="0.380903016775846">
        <ele>78</ele>
        <time>2018-02-19T09:04:18Z</time>
      </trkpt>
      <trkpt lat="51.689747963100672" lon="0.380921959877014">
        <ele>78</ele>
        <time>2018-02-19T09:04:19Z</time>
      </trkpt>
      <trkpt lat="51.689729019999504" lon="0.380942998453975">
        <ele>78</ele>
        <time>2018-02-19T09:04:20Z</time>
      </trkpt>
      <trkpt lat="51.689709993079305" lon="0.380967976525426">
        <ele>78</ele>
        <time>2018-02-19T09:04:21Z</time>
      </trkpt>
      <trkpt lat="51.689691971987486" lon="0.380990020930767">
        <ele>77.906976513430095</ele>
        <time>2018-02-19T09:04:22Z</time>
      </trkpt>
      <trkpt lat="51.689675040543079" lon="0.381012987345457">
        <ele>77.131780792014396</ele>
        <time>2018-02-19T09:04:23Z</time>
      </trkpt>
      <trkpt lat="51.689646039158106" lon="0.381048023700714">
        <ele>76.907219487734395</ele>
        <time>2018-02-19T09:04:25Z</time>
      </trkpt>
      <trkpt lat="51.689630029723048" lon="0.381065960973501">
        <ele>76</ele>
        <time>2018-02-19T09:04:26Z</time>
      </trkpt>
      <trkpt lat="51.689614020287991" lon="0.381085993722081">
        <ele>76</ele>
        <time>2018-02-19T09:04:27Z</time>
      </trkpt>
      <trkpt lat="51.689600022509694" lon="0.381105020642281">
        <ele>76</ele>
        <time>2018-02-19T09:04:28Z</time>
      </trkpt>
      <trkpt lat="51.689584013074636" lon="0.381124969571829">
        <ele>76</ele>
        <time>2018-02-19T09:04:29Z</time>
      </trkpt>
      <trkpt lat="51.689569009467959" lon="0.381141984835267">
        <ele>76</ele>
        <time>2018-02-19T09:04:30Z</time>
      </trkpt>
      <trkpt lat="51.689553000032902" lon="0.381160005927086">
        <ele>76</ele>
        <time>2018-02-19T09:04:31Z</time>
      </trkpt>
      <trkpt lat="51.689534978941083" lon="0.381176015362144">
        <ele>76</ele>
        <time>2018-02-19T09:04:32Z</time>
      </trkpt>
      <trkpt lat="51.689518969506025" lon="0.381193030625582">
        <ele>76</ele>
        <time>2018-02-19T09:04:33Z</time>
      </trkpt>
      <trkpt lat="51.689501032233238" lon="0.381209962069988">
        <ele>76</ele>
        <time>2018-02-19T09:04:34Z</time>
      </trkpt>
      <trkpt lat="51.689483011141419" lon="0.381226977333426">
        <ele>76</ele>
        <time>2018-02-19T09:04:35Z</time>
      </trkpt>
      <trkpt lat="51.689464990049601" lon="0.381243992596865">
        <ele>76</ele>
        <time>2018-02-19T09:04:36Z</time>
      </trkpt>
      <trkpt lat="51.689445041120052" lon="0.381263019517064">
        <ele>75.879999999999995</ele>
        <time>2018-02-19T09:04:37Z</time>
      </trkpt>
      <trkpt lat="51.689426014199853" lon="0.381279028952122">
        <ele>75</ele>
        <time>2018-02-19T09:04:38Z</time>
      </trkpt>
      <trkpt lat="51.689405981451273" lon="0.381294032558799">
        <ele>75</ele>
        <time>2018-02-19T09:04:39Z</time>
      </trkpt>
      <trkpt lat="51.689387960359454" lon="0.381308030337095">
        <ele>75</ele>
        <time>2018-02-19T09:04:40Z</time>
      </trkpt>
      <trkpt lat="51.689357031136751" lon="0.381333008408546">
        <ele>75</ele>
        <time>2018-02-19T09:04:42Z</time>
      </trkpt>
      <trkpt lat="51.689339010044932" lon="0.381349017843604">
        <ele>75</ele>
        <time>2018-02-19T09:04:43Z</time>
      </trkpt>
      <trkpt lat="51.689320988953114" lon="0.381364021450281">
        <ele>75</ele>
        <time>2018-02-19T09:04:44Z</time>
      </trkpt>
      <trkpt lat="51.689302967861295" lon="0.381380030885339">
        <ele>75</ele>
        <time>2018-02-19T09:04:45Z</time>
      </trkpt>
      <trkpt lat="51.689283018931746" lon="0.381396040320396">
        <ele>75</ele>
        <time>2018-02-19T09:04:46Z</time>
      </trkpt>
      <trkpt lat="51.689266003668308" lon="0.381410038098693">
        <ele>75</ele>
        <time>2018-02-19T09:04:47Z</time>
      </trkpt>
      <trkpt lat="51.689249994233251" lon="0.38142504170537">
        <ele>75</ele>
        <time>2018-02-19T09:04:48Z</time>
      </trkpt>
      <trkpt lat="51.689233984798193" lon="0.381439039483666">
        <ele>75</ele>
        <time>2018-02-19T09:04:49Z</time>
      </trkpt>
      <trkpt lat="51.689217975363135" lon="0.381454965099692">
        <ele>75</ele>
        <time>2018-02-19T09:04:50Z</time>
      </trkpt>
      <trkpt lat="51.689200038090348" lon="0.381469968706369">
        <ele>75</ele>
        <time>2018-02-19T09:04:51Z</time>
      </trkpt>
      <trkpt lat="51.689181011170149" lon="0.381484972313046">
        <ele>75</ele>
        <time>2018-02-19T09:04:52Z</time>
      </trkpt>
      <trkpt lat="51.689161984249949" lon="0.381497964262962">
        <ele>75</ele>
        <time>2018-02-19T09:04:53Z</time>
      </trkpt>
      <trkpt lat="51.689143041148782" lon="0.381516991183162">
        <ele>75</ele>
        <time>2018-02-19T09:04:54Z</time>
      </trkpt>
      <trkpt lat="51.689125020056963" lon="0.381533000618219">
        <ele>74.907219487734395</ele>
        <time>2018-02-19T09:04:55Z</time>
      </trkpt>
      <trkpt lat="51.689105993136764" lon="0.381548004224896">
        <ele>74</ele>
        <time>2018-02-19T09:04:56Z</time>
      </trkpt>
      <trkpt lat="51.689087972044945" lon="0.381560996174812">
        <ele>74</ele>
        <time>2018-02-19T09:04:57Z</time>
      </trkpt>
      <trkpt lat="51.689071040600538" lon="0.381572982296348">
        <ele>74</ele>
        <time>2018-02-19T09:04:58Z</time>
      </trkpt>
      <trkpt lat="51.689053019508719" lon="0.381584968417883">
        <ele>74</ele>
        <time>2018-02-19T09:04:59Z</time>
      </trkpt>
      <trkpt lat="51.68903399258852" lon="0.381598966196179">
        <ele>74</ele>
        <time>2018-02-19T09:05:00Z</time>
      </trkpt>
      <trkpt lat="51.689015971496701" lon="0.381613969802856">
        <ele>74</ele>
        <time>2018-02-19T09:05:01Z</time>
      </trkpt>
      <trkpt lat="51.688999040052295" lon="0.381626961752772">
        <ele>74</ele>
        <time>2018-02-19T09:05:02Z</time>
      </trkpt>
      <trkpt lat="51.688981018960476" lon="0.381640959531069">
        <ele>74</ele>
        <time>2018-02-19T09:05:03Z</time>
      </trkpt>
      <trkpt lat="51.688962997868657" lon="0.381654035300016">
        <ele>73.879999999999995</ele>
        <time>2018-02-19T09:05:04Z</time>
      </trkpt>
      <trkpt lat="51.688946988433599" lon="0.381668033078313">
        <ele>72.879999999999995</ele>
        <time>2018-02-19T09:05:05Z</time>
      </trkpt>
      <trkpt lat="51.688929973170161" lon="0.381680019199848">
        <ele>72</ele>
        <time>2018-02-19T09:05:06Z</time>
      </trkpt>
      <trkpt lat="51.688911030068994" lon="0.381695022806525">
        <ele>72</ele>
        <time>2018-02-19T09:05:07Z</time>
      </trkpt>
      <trkpt lat="51.688876999542117" lon="0.381723018363118">
        <ele>72</ele>
        <time>2018-02-19T09:05:09Z</time>
      </trkpt>
      <trkpt lat="51.688856966793537" lon="0.381741039454937">
        <ele>71.8867931363433</ele>
        <time>2018-02-19T09:05:10Z</time>
      </trkpt>
      <trkpt lat="51.688838023692369" lon="0.381752019748092">
        <ele>71</ele>
        <time>2018-02-19T09:05:11Z</time>
      </trkpt>
      <trkpt lat="51.688821008428931" lon="0.381764005869627">
        <ele>71</ele>
        <time>2018-02-19T09:05:12Z</time>
      </trkpt>
      <trkpt lat="51.688801981508732" lon="0.381780015304685">
        <ele>71</ele>
        <time>2018-02-19T09:05:13Z</time>
      </trkpt>
      <trkpt lat="51.688783960416913" lon="0.381794013082981">
        <ele>71</ele>
        <time>2018-02-19T09:05:14Z</time>
      </trkpt>
      <trkpt lat="51.688765017315745" lon="0.381811028346419">
        <ele>71</ele>
        <time>2018-02-19T09:05:15Z</time>
      </trkpt>
      <trkpt lat="51.688749007880688" lon="0.381824020296335">
        <ele>71</ele>
        <time>2018-02-19T09:05:16Z</time>
      </trkpt>
      <trkpt lat="51.688731992617249" lon="0.381840029731393">
        <ele>71</ele>
        <time>2018-02-19T09:05:17Z</time>
      </trkpt>
      <trkpt lat="51.68871296569705" lon="0.38185503333807">
        <ele>71</ele>
        <time>2018-02-19T09:05:18Z</time>
      </trkpt>
      <trkpt lat="51.688696034252644" lon="0.381870036944747">
        <ele>70.983328</ele>
        <time>2018-02-19T09:05:19Z</time>
      </trkpt>
      <trkpt lat="51.688680024817586" lon="0.381884034723043">
        <ele>70.1499946666667</ele>
        <time>2018-02-19T09:05:20Z</time>
      </trkpt>
      <trkpt lat="51.688659992069006" lon="0.381899038329721">
        <ele>70</ele>
        <time>2018-02-19T09:05:21Z</time>
      </trkpt>
      <trkpt lat="51.68862696737051" lon="0.381926028057933">
        <ele>70</ele>
        <time>2018-02-19T09:05:23Z</time>
      </trkpt>
      <trkpt lat="51.688610035926104" lon="0.381940025836229">
        <ele>70</ele>
        <time>2018-02-19T09:05:24Z</time>
      </trkpt>
      <trkpt lat="51.688592014834285" lon="0.381950000301003">
        <ele>70</ele>
        <time>2018-02-19T09:05:25Z</time>
      </trkpt>
      <trkpt lat="51.688573993742466" lon="0.3819639980793">
        <ele>70</ele>
        <time>2018-02-19T09:05:26Z</time>
      </trkpt>
      <trkpt lat="51.688556978479028" lon="0.381977995857596">
        <ele>70</ele>
        <time>2018-02-19T09:05:27Z</time>
      </trkpt>
      <trkpt lat="51.68853996321559" lon="0.381994005292654">
        <ele>70</ele>
        <time>2018-02-19T09:05:28Z</time>
      </trkpt>
      <trkpt lat="51.688522025942802" lon="0.382008003070951">
        <ele>70</ele>
        <time>2018-02-19T09:05:29Z</time>
      </trkpt>
      <trkpt lat="51.688504004850984" lon="0.382019989192486">
        <ele>70</ele>
        <time>2018-02-19T09:05:30Z</time>
      </trkpt>
      <trkpt lat="51.688469974324107" lon="0.382045973092318">
        <ele>70</ele>
        <time>2018-02-19T09:05:32Z</time>
      </trkpt>
      <trkpt lat="51.688452959060669" lon="0.382059970870614">
        <ele>70</ele>
        <time>2018-02-19T09:05:33Z</time>
      </trkpt>
      <trkpt lat="51.688437033444643" lon="0.382073968648911">
        <ele>70</ele>
        <time>2018-02-19T09:05:34Z</time>
      </trkpt>
      <trkpt lat="51.688421024009585" lon="0.382088972255588">
        <ele>70</ele>
        <time>2018-02-19T09:05:35Z</time>
      </trkpt>
      <trkpt lat="51.688393028452992" lon="0.38211403414607">
        <ele>69.889907933674706</ele>
        <time>2018-02-19T09:05:37Z</time>
      </trkpt>
      <trkpt lat="51.688374001532793" lon="0.382132977247238">
        <ele>69</ele>
        <time>2018-02-19T09:05:39Z</time>
      </trkpt>
      <trkpt lat="51.688362015411258" lon="0.38215602748096">
        <ele>69</ele>
        <time>2018-02-19T09:05:41Z</time>
      </trkpt>
      <trkpt lat="51.68834500014782" lon="0.382169019430876">
        <ele>68.882353679349507</ele>
        <time>2018-02-19T09:05:43Z</time>
      </trkpt>
      <trkpt lat="51.68832203373313" lon="0.382177988067269">
        <ele>68</ele>
        <time>2018-02-19T09:05:46Z</time>
      </trkpt>
      <trkpt lat="51.688300995156169" lon="0.382187962532043">
        <ele>68</ele>
        <time>2018-02-19T09:05:49Z</time>
      </trkpt>
      <trkpt lat="51.688309041783214" lon="0.382214030250907">
        <ele>69</ele>
        <time>2018-02-19T09:05:54Z</time>
      </trkpt>
      <trkpt lat="51.688309963792562" lon="0.382244037464261">
        <ele>68</ele>
        <time>2018-02-19T09:05:58Z</time>
      </trkpt>
      <trkpt lat="51.688309041783214" lon="0.382273960858583">
        <ele>68</ele>
        <time>2018-02-19T09:06:00Z</time>
      </trkpt>
      <trkpt lat="51.688309963792562" lon="0.382306985557079">
        <ele>67</ele>
        <time>2018-02-19T09:06:02Z</time>
      </trkpt>
      <trkpt lat="51.688309963792562" lon="0.382340010255575">
        <ele>67</ele>
        <time>2018-02-19T09:06:04Z</time>
      </trkpt>
      <trkpt lat="51.688304012641311" lon="0.382376974448562">
        <ele>67</ele>
        <time>2018-02-19T09:06:06Z</time>
      </trkpt>
      <trkpt lat="51.688304012641311" lon="0.382407987490296">
        <ele>67</ele>
        <time>2018-02-19T09:06:08Z</time>
      </trkpt>
      <trkpt lat="51.688304012641311" lon="0.382441012188792">
        <ele>67</ele>
        <time>2018-02-19T09:06:10Z</time>
      </trkpt>
      <trkpt lat="51.688299989327788" lon="0.382477976381779">
        <ele>67</ele>
        <time>2018-02-19T09:06:12Z</time>
      </trkpt>
      <trkpt lat="51.688297977671027" lon="0.382511001080275">
        <ele>67</ele>
        <time>2018-02-19T09:06:14Z</time>
      </trkpt>
      <trkpt lat="51.688297977671027" lon="0.38254695944488">
        <ele>67</ele>
        <time>2018-02-19T09:06:16Z</time>
      </trkpt>
      <trkpt lat="51.688299989327788" lon="0.382579984143376">
        <ele>67</ele>
        <time>2018-02-19T09:06:18Z</time>
      </trkpt>
      <trkpt lat="51.688291020691395" lon="0.382613008841872">
        <ele>67</ele>
        <time>2018-02-19T09:06:20Z</time>
      </trkpt>
      <trkpt lat="51.68828004039824" lon="0.382637986913323">
        <ele>67</ele>
        <time>2018-02-19T09:06:22Z</time>
      </trkpt>
      <trkpt lat="51.688262019306421" lon="0.382671011611819">
        <ele>67</ele>
        <time>2018-02-19T09:06:24Z</time>
      </trkpt>
      <trkpt lat="51.688243998214602" lon="0.382685009390116">
        <ele>67</ele>
        <time>2018-02-19T09:06:26Z</time>
      </trkpt>
      <trkpt lat="51.688219020143151" lon="0.382700012996793">
        <ele>67</ele>
        <time>2018-02-19T09:06:30Z</time>
      </trkpt>
      <trkpt lat="51.68819303624332" lon="0.382710993289948">
        <ele>67</ele>
        <time>2018-02-19T09:06:32Z</time>
      </trkpt>
      <trkpt lat="51.688167974352837" lon="0.382719039916992">
        <ele>67</ele>
        <time>2018-02-19T09:06:34Z</time>
      </trkpt>
      <trkpt lat="51.68815003708005" lon="0.382733037695289">
        <ele>67</ele>
        <time>2018-02-19T09:06:36Z</time>
      </trkpt>
      <trkpt lat="51.68813000433147" lon="0.382746029645205">
        <ele>67</ele>
        <time>2018-02-19T09:06:41Z</time>
      </trkpt>
      <trkpt lat="51.688106032088399" lon="0.382744017988443">
        <ele>67</ele>
        <time>2018-02-19T09:06:43Z</time>
      </trkpt>
      <trkpt lat="51.688080970197916" lon="0.382746029645205">
        <ele>67</ele>
        <time>2018-02-19T09:06:45Z</time>
      </trkpt>
      <trkpt lat="51.688059009611607" lon="0.382748041301966">
        <ele>67</ele>
        <time>2018-02-19T09:06:47Z</time>
      </trkpt>
      <trkpt lat="51.688037971034646" lon="0.382750974968076">
        <ele>68</ele>
        <time>2018-02-19T09:06:49Z</time>
      </trkpt>
      <trkpt lat="51.688018022105098" lon="0.382761033251882">
        <ele>68</ele>
        <time>2018-02-19T09:06:51Z</time>
      </trkpt>
      <trkpt lat="51.68800100684166" lon="0.382773019373417">
        <ele>68</ele>
        <time>2018-02-19T09:06:53Z</time>
      </trkpt>
      <trkpt lat="51.687982985749841" lon="0.382788022980094">
        <ele>68</ele>
        <time>2018-02-19T09:06:55Z</time>
      </trkpt>
      <trkpt lat="51.687968987971544" lon="0.382805038243532">
        <ele>68</ele>
        <time>2018-02-19T09:06:56Z</time>
      </trkpt>
      <trkpt lat="51.687946021556854" lon="0.382834039628506">
        <ele>68</ele>
        <time>2018-02-19T09:06:58Z</time>
      </trkpt>
      <trkpt lat="51.687925988808274" lon="0.382861029356718">
        <ele>68.120000000000005</ele>
        <time>2018-02-19T09:07:00Z</time>
      </trkpt>
      <trkpt lat="51.687909979373217" lon="0.382882989943028">
        <ele>69</ele>
        <time>2018-02-19T09:07:02Z</time>
      </trkpt>
      <trkpt lat="51.68789497576654" lon="0.382906962186098">
        <ele>69</ele>
        <time>2018-02-19T09:07:04Z</time>
      </trkpt>
      <trkpt lat="51.687877960503101" lon="0.382936969399452">
        <ele>69</ele>
        <time>2018-02-19T09:07:06Z</time>
      </trkpt>
      <trkpt lat="51.687864968553185" lon="0.382958007976413">
        <ele>69</ele>
        <time>2018-02-19T09:07:08Z</time>
      </trkpt>
      <trkpt lat="51.687848959118128" lon="0.382978040724993">
        <ele>70</ele>
        <time>2018-02-19T09:07:11Z</time>
      </trkpt>
      <trkpt lat="51.687831021845341" lon="0.382983991876245">
        <ele>70</ele>
        <time>2018-02-19T09:07:17Z</time>
      </trkpt>
      <trkpt lat="51.687807971611619" lon="0.383006958290935">
        <ele>70</ele>
        <time>2018-02-19T09:07:25Z</time>
      </trkpt>
      <trkpt lat="51.687782993540168" lon="0.383029002696276">
        <ele>70</ele>
        <time>2018-02-19T09:07:27Z</time>
      </trkpt>
      <trkpt lat="51.687764972448349" lon="0.383064961060882">
        <ele>69.879999999999995</ele>
        <time>2018-02-19T09:07:29Z</time>
      </trkpt>
      <trkpt lat="51.687746029347181" lon="0.383107038214803">
        <ele>69.109090274383902</ele>
        <time>2018-02-19T09:07:31Z</time>
      </trkpt>
      <trkpt lat="51.687719961628318" lon="0.383151965215802">
        <ele>70</ele>
        <time>2018-02-19T09:07:33Z</time>
      </trkpt>
      <trkpt lat="51.687702024355531" lon="0.383176021277905">
        <ele>70</ele>
        <time>2018-02-19T09:07:34Z</time>
      </trkpt>
      <trkpt lat="51.687685009092093" lon="0.383196976035833">
        <ele>70</ele>
        <time>2018-02-19T09:07:35Z</time>
      </trkpt>
      <trkpt lat="51.687668999657035" lon="0.383219020441175">
        <ele>70</ele>
        <time>2018-02-19T09:07:36Z</time>
      </trkpt>
      <trkpt lat="51.687653996050358" lon="0.383240981027484">
        <ele>70</ele>
        <time>2018-02-19T09:07:37Z</time>
      </trkpt>
      <trkpt lat="51.6876379866153" lon="0.383265959098935">
        <ele>70</ele>
        <time>2018-02-19T09:07:38Z</time>
      </trkpt>
      <trkpt lat="51.687624994665384" lon="0.383291020989418">
        <ele>70</ele>
        <time>2018-02-19T09:07:39Z</time>
      </trkpt>
      <trkpt lat="51.687604961916804" lon="0.383336031809449">
        <ele>70</ele>
        <time>2018-02-19T09:07:41Z</time>
      </trkpt>
      <trkpt lat="51.687586018815637" lon="0.383375007659197">
        <ele>70</ele>
        <time>2018-02-19T09:07:43Z</time>
      </trkpt>
      <trkpt lat="51.687567997723818" lon="0.383418006822467">
        <ele>70</ele>
        <time>2018-02-19T09:07:45Z</time>
      </trkpt>
      <trkpt lat="51.687556011602283" lon="0.38346603512764">
        <ele>70</ele>
        <time>2018-02-19T09:07:47Z</time>
      </trkpt>
      <trkpt lat="51.687548970803618" lon="0.383494030684233">
        <ele>70</ele>
        <time>2018-02-19T09:07:48Z</time>
      </trkpt>
      <trkpt lat="51.687540002167225" lon="0.383524037897587">
        <ele>70</ele>
        <time>2018-02-19T09:07:49Z</time>
      </trkpt>
      <trkpt lat="51.687532039359212" lon="0.38355203345418">
        <ele>70</ele>
        <time>2018-02-19T09:07:50Z</time>
      </trkpt>
      <trkpt lat="51.687522986903787" lon="0.383579023182392">
        <ele>70</ele>
        <time>2018-02-19T09:07:51Z</time>
      </trkpt>
      <trkpt lat="51.687505971640348" lon="0.383631996810436">
        <ele>70</ele>
        <time>2018-02-19T09:07:53Z</time>
      </trkpt>
      <trkpt lat="51.687494991347194" lon="0.383654963225126">
        <ele>70</ele>
        <time>2018-02-19T09:07:54Z</time>
      </trkpt>
      <trkpt lat="51.687474036589265" lon="0.383697040379047">
        <ele>70</ele>
        <time>2018-02-19T09:07:56Z</time>
      </trkpt>
      <trkpt lat="51.687463978305459" lon="0.383722018450499">
        <ele>70</ele>
        <time>2018-02-19T09:07:57Z</time>
      </trkpt>
      <trkpt lat="51.687449980527163" lon="0.38376702927053">
        <ele>70</ele>
        <time>2018-02-19T09:07:59Z</time>
      </trkpt>
      <trkpt lat="51.68744201771915" lon="0.383794018998742">
        <ele>70</ele>
        <time>2018-02-19T09:08:00Z</time>
      </trkpt>
      <trkpt lat="51.687432965263724" lon="0.383821008726954">
        <ele>70</ele>
        <time>2018-02-19T09:08:01Z</time>
      </trkpt>
      <trkpt lat="51.687425002455711" lon="0.383846992626786">
        <ele>70</ele>
        <time>2018-02-19T09:08:02Z</time>
      </trkpt>
      <trkpt lat="51.687408993020654" lon="0.38389996625483">
        <ele>70</ele>
        <time>2018-02-19T09:08:04Z</time>
      </trkpt>
      <trkpt lat="51.687396001070738" lon="0.383947994560003">
        <ele>70</ele>
        <time>2018-02-19T09:08:06Z</time>
      </trkpt>
      <trkpt lat="51.687380997464061" lon="0.384000968188047">
        <ele>70</ele>
        <time>2018-02-19T09:08:08Z</time>
      </trkpt>
      <trkpt lat="51.687371022999287" lon="0.384028041735291">
        <ele>70</ele>
        <time>2018-02-19T09:08:09Z</time>
      </trkpt>
      <trkpt lat="51.687361970543861" lon="0.384054025635123">
        <ele>70</ele>
        <time>2018-02-19T09:08:10Z</time>
      </trkpt>
      <trkpt lat="51.687345961108804" lon="0.384104987606406">
        <ele>70</ele>
        <time>2018-02-19T09:08:12Z</time>
      </trkpt>
      <trkpt lat="51.68733699247241" lon="0.38413398899138">
        <ele>70</ele>
        <time>2018-02-19T09:08:13Z</time>
      </trkpt>
      <trkpt lat="51.687330035492778" lon="0.384161984547973">
        <ele>70</ele>
        <time>2018-02-19T09:08:14Z</time>
      </trkpt>
      <trkpt lat="51.687324000522494" lon="0.384190985932946">
        <ele>70</ele>
        <time>2018-02-19T09:08:15Z</time>
      </trkpt>
      <trkpt lat="51.687317965552211" lon="0.384218981489539">
        <ele>70</ele>
        <time>2018-02-19T09:08:16Z</time>
      </trkpt>
      <trkpt lat="51.687310002744198" lon="0.384277990087867">
        <ele>70</ele>
        <time>2018-02-19T09:08:18Z</time>
      </trkpt>
      <trkpt lat="51.687303967773914" lon="0.384310008957982">
        <ele>70</ele>
        <time>2018-02-19T09:08:19Z</time>
      </trkpt>
      <trkpt lat="51.687298016622663" lon="0.384339010342956">
        <ele>70</ele>
        <time>2018-02-19T09:08:20Z</time>
      </trkpt>
      <trkpt lat="51.687289969995618" lon="0.384372035041451">
        <ele>70</ele>
        <time>2018-02-19T09:08:21Z</time>
      </trkpt>
      <trkpt lat="51.687282007187605" lon="0.384401036426425">
        <ele>70</ele>
        <time>2018-02-19T09:08:22Z</time>
      </trkpt>
      <trkpt lat="51.687276978045702" lon="0.384430037811399">
        <ele>70</ele>
        <time>2018-02-19T09:08:23Z</time>
      </trkpt>
      <trkpt lat="51.687269015237689" lon="0.38445602171123">
        <ele>70</ele>
        <time>2018-02-19T09:08:24Z</time>
      </trkpt>
      <trkpt lat="51.687262980267406" lon="0.384483011439443">
        <ele>70</ele>
        <time>2018-02-19T09:08:25Z</time>
      </trkpt>
      <trkpt lat="51.68725099414587" lon="0.384537996724248">
        <ele>70</ele>
        <time>2018-02-19T09:08:27Z</time>
      </trkpt>
      <trkpt lat="51.687242025509477" lon="0.384565992280841">
        <ele>70</ele>
        <time>2018-02-19T09:08:28Z</time>
      </trkpt>
      <trkpt lat="51.687236996367574" lon="0.384598011150956">
        <ele>70</ele>
        <time>2018-02-19T09:08:29Z</time>
      </trkpt>
      <trkpt lat="51.68723096139729" lon="0.384632041677833">
        <ele>70</ele>
        <time>2018-02-19T09:08:30Z</time>
      </trkpt>
      <trkpt lat="51.6872270219028" lon="0.384663976728916">
        <ele>70</ele>
        <time>2018-02-19T09:08:31Z</time>
      </trkpt>
      <trkpt lat="51.687219981104136" lon="0.384694989770651">
        <ele>70</ele>
        <time>2018-02-19T09:08:32Z</time>
      </trkpt>
      <trkpt lat="51.687212018296123" lon="0.384729020297527">
        <ele>70</ele>
        <time>2018-02-19T09:08:33Z</time>
      </trkpt>
      <trkpt lat="51.687204977497458" lon="0.384761961176991">
        <ele>70</ele>
        <time>2018-02-19T09:08:34Z</time>
      </trkpt>
      <trkpt lat="51.687198020517826" lon="0.384795991703868">
        <ele>70</ele>
        <time>2018-02-19T09:08:35Z</time>
      </trkpt>
      <trkpt lat="51.68718796223402" lon="0.384823987260461">
        <ele>70</ele>
        <time>2018-02-19T09:08:36Z</time>
      </trkpt>
      <trkpt lat="51.687176981940866" lon="0.384846031665802">
        <ele>70</ele>
        <time>2018-02-19T09:08:37Z</time>
      </trkpt>
      <trkpt lat="51.687160972505808" lon="0.384868998080492">
        <ele>70</ele>
        <time>2018-02-19T09:08:38Z</time>
      </trkpt>
      <trkpt lat="51.687144041061401" lon="0.384892970323563">
        <ele>70</ele>
        <time>2018-02-19T09:08:39Z</time>
      </trkpt>
      <trkpt lat="51.687132976949215" lon="0.384916020557284">
        <ele>70</ele>
        <time>2018-02-19T09:08:40Z</time>
      </trkpt>
      <trkpt lat="51.68712099082768" lon="0.384944016113877">
        <ele>70</ele>
        <time>2018-02-19T09:08:41Z</time>
      </trkpt>
      <trkpt lat="51.687106993049383" lon="0.38497100584209">
        <ele>70</ele>
        <time>2018-02-19T09:08:42Z</time>
      </trkpt>
      <trkpt lat="51.687092995271087" lon="0.38499397225678">
        <ele>70</ele>
        <time>2018-02-19T09:08:43Z</time>
      </trkpt>
      <trkpt lat="51.68707799166441" lon="0.385022973641753">
        <ele>70</ele>
        <time>2018-02-19T09:08:44Z</time>
      </trkpt>
      <trkpt lat="51.687063993886113" lon="0.385049963369966">
        <ele>70</ele>
        <time>2018-02-19T09:08:45Z</time>
      </trkpt>
      <trkpt lat="51.687051001936197" lon="0.385075025260448">
        <ele>70</ele>
        <time>2018-02-19T09:08:46Z</time>
      </trkpt>
      <trkpt lat="51.68703599832952" lon="0.385097991675138">
        <ele>70</ele>
        <time>2018-02-19T09:08:47Z</time>
      </trkpt>
      <trkpt lat="51.687023006379604" lon="0.385121963918209">
        <ele>70</ele>
        <time>2018-02-19T09:08:48Z</time>
      </trkpt>
      <trkpt lat="51.687009008601308" lon="0.38514400832355">
        <ele>70</ele>
        <time>2018-02-19T09:08:49Z</time>
      </trkpt>
      <trkpt lat="51.686994004994631" lon="0.38516596890986">
        <ele>70</ele>
        <time>2018-02-19T09:08:50Z</time>
      </trkpt>
      <trkpt lat="51.686980007216334" lon="0.38518700748682">
        <ele>70</ele>
        <time>2018-02-19T09:08:51Z</time>
      </trkpt>
      <trkpt lat="51.686967015266418" lon="0.38520997390151">
        <ele>70</ele>
        <time>2018-02-19T09:08:52Z</time>
      </trkpt>
      <trkpt lat="51.686953017488122" lon="0.385225983336568">
        <ele>70</ele>
        <time>2018-02-19T09:08:53Z</time>
      </trkpt>
      <trkpt lat="51.686938013881445" lon="0.385246016085148">
        <ele>70</ele>
        <time>2018-02-19T09:08:54Z</time>
      </trkpt>
      <trkpt lat="51.686924016103148" lon="0.385267976671457">
        <ele>70</ele>
        <time>2018-02-19T09:08:55Z</time>
      </trkpt>
      <trkpt lat="51.686900965869427" lon="0.385305024683475">
        <ele>70</ele>
        <time>2018-02-19T09:08:57Z</time>
      </trkpt>
      <trkpt lat="51.686876993626356" lon="0.385344000533223">
        <ele>70</ele>
        <time>2018-02-19T09:08:59Z</time>
      </trkpt>
      <trkpt lat="51.686852015554905" lon="0.385385993868113">
        <ele>70</ele>
        <time>2018-02-19T09:09:01Z</time>
      </trkpt>
      <trkpt lat="51.686827037483454" lon="0.385428993031383">
        <ele>70</ele>
        <time>2018-02-19T09:09:03Z</time>
      </trkpt>
      <trkpt lat="51.686813039705157" lon="0.385453971102834">
        <ele>70</ele>
        <time>2018-02-19T09:09:04Z</time>
      </trkpt>
      <trkpt lat="51.686783032491803" lon="0.385496970266104">
        <ele>70</ele>
        <time>2018-02-19T09:09:06Z</time>
      </trkpt>
      <trkpt lat="51.686767023056746" lon="0.385520020499825">
        <ele>70.008471910356107</ele>
        <time>2018-02-19T09:09:07Z</time>
      </trkpt>
      <trkpt lat="51.686746990308166" lon="0.385558996349573">
        <ele>71</ele>
        <time>2018-02-19T09:09:09Z</time>
      </trkpt>
      <trkpt lat="51.686728969216347" lon="0.385589003562927">
        <ele>71</ele>
        <time>2018-02-19T09:09:11Z</time>
      </trkpt>
      <trkpt lat="51.686709020286798" lon="0.38561699911952">
        <ele>71</ele>
        <time>2018-02-19T09:09:13Z</time>
      </trkpt>
      <trkpt lat="51.686688987538218" lon="0.385651029646397">
        <ele>71</ele>
        <time>2018-02-19T09:09:15Z</time>
      </trkpt>
      <trkpt lat="51.686673983931541" lon="0.38568296469748">
        <ele>71</ele>
        <time>2018-02-19T09:09:17Z</time>
      </trkpt>
      <trkpt lat="51.686658980324864" lon="0.385716995224357">
        <ele>71</ele>
        <time>2018-02-19T09:09:19Z</time>
      </trkpt>
      <trkpt lat="51.686645988374949" lon="0.385752031579614">
        <ele>70.888886015721994</ele>
        <time>2018-02-19T09:09:21Z</time>
      </trkpt>
      <trkpt lat="51.686643976718187" lon="0.385780027136207">
        <ele>72</ele>
        <time>2018-02-19T09:09:28Z</time>
      </trkpt>
      <trkpt lat="51.686643976718187" lon="0.385812968015671">
        <ele>71</ele>
        <time>2018-02-19T09:09:33Z</time>
      </trkpt>
      <trkpt lat="51.686646994203329" lon="0.385844986885786">
        <ele>71</ele>
        <time>2018-02-19T09:09:40Z</time>
      </trkpt>
      <trkpt lat="51.686659986153245" lon="0.385868959128857">
        <ele>71</ele>
        <time>2018-02-19T09:09:42Z</time>
      </trkpt>
      <trkpt lat="51.68669099919498" lon="0.385888991877437">
        <ele>70.890908456194694</ele>
        <time>2018-02-19T09:09:44Z</time>
      </trkpt>
      <trkpt lat="51.686710026115179" lon="0.385892009362578">
        <ele>70</ele>
        <time>2018-02-19T09:09:45Z</time>
      </trkpt>
      <trkpt lat="51.686727963387966" lon="0.385892009362578">
        <ele>70</ele>
        <time>2018-02-19T09:09:46Z</time>
      </trkpt>
      <trkpt lat="51.686760988086462" lon="0.385896032676101">
        <ele>70</ele>
        <time>2018-02-19T09:09:48Z</time>
      </trkpt>
      <trkpt lat="51.686779009178281" lon="0.385903995484114">
        <ele>70</ele>
        <time>2018-02-19T09:09:49Z</time>
      </trkpt>
      <trkpt lat="51.686808010563254" lon="0.385921010747552">
        <ele>70</ele>
        <time>2018-02-19T09:09:51Z</time>
      </trkpt>
      <trkpt lat="51.686832988634706" lon="0.385928973555565">
        <ele>70</ele>
        <time>2018-02-19T09:09:53Z</time>
      </trkpt>
      <trkpt lat="51.686855033040047" lon="0.385939031839371">
        <ele>70</ele>
        <time>2018-02-19T09:09:55Z</time>
      </trkpt>
      <trkpt lat="51.686879005283117" lon="0.385945988819003">
        <ele>70</ele>
        <time>2018-02-19T09:09:57Z</time>
      </trkpt>
      <trkpt lat="51.686902977526188" lon="0.385950012132525">
        <ele>70</ele>
        <time>2018-02-19T09:09:59Z</time>
      </trkpt>
      <trkpt lat="51.686931978911161" lon="0.385954035446048">
        <ele>70</ele>
        <time>2018-02-19T09:10:01Z</time>
      </trkpt>
      <trkpt lat="51.686957040801644" lon="0.385963004082441">
        <ele>70</ele>
        <time>2018-02-19T09:10:03Z</time>
      </trkpt>
      <trkpt lat="51.686975983902812" lon="0.385961998254061">
        <ele>70</ele>
        <time>2018-02-19T09:10:06Z</time>
      </trkpt>
      <trkpt lat="51.68699199333787" lon="0.385989993810654">
        <ele>70</ele>
        <time>2018-02-19T09:10:14Z</time>
      </trkpt>
      <trkpt lat="51.686997022479773" lon="0.386014971882105">
        <ele>70</ele>
        <time>2018-02-19T09:10:15Z</time>
      </trkpt>
      <trkpt lat="51.686996016651392" lon="0.386047996580601">
        <ele>70</ele>
        <time>2018-02-19T09:10:16Z</time>
      </trkpt>
      <trkpt lat="51.686990987509489" lon="0.386079009622335">
        <ele>70</ele>
        <time>2018-02-19T09:10:17Z</time>
      </trkpt>
      <trkpt lat="51.686985958367586" lon="0.386107005178928">
        <ele>70</ele>
        <time>2018-02-19T09:10:18Z</time>
      </trkpt>
      <trkpt lat="51.686975983902812" lon="0.386137012392282">
        <ele>70</ele>
        <time>2018-02-19T09:10:19Z</time>
      </trkpt>
      <trkpt lat="51.686968021094799" lon="0.386170037090778">
        <ele>70</ele>
        <time>2018-02-19T09:10:20Z</time>
      </trkpt>
      <trkpt lat="51.686956034973264" lon="0.386205995455384">
        <ele>70</ele>
        <time>2018-02-19T09:10:21Z</time>
      </trkpt>
      <trkpt lat="51.686945976689458" lon="0.386240025982261">
        <ele>70</ele>
        <time>2018-02-19T09:10:22Z</time>
      </trkpt>
      <trkpt lat="51.686937008053064" lon="0.386272966861725">
        <ele>70</ele>
        <time>2018-02-19T09:10:23Z</time>
      </trkpt>
      <trkpt lat="51.68692703358829" lon="0.38630397990346">
        <ele>70</ele>
        <time>2018-02-19T09:10:24Z</time>
      </trkpt>
      <trkpt lat="51.686917981132865" lon="0.386335998773575">
        <ele>70</ele>
        <time>2018-02-19T09:10:25Z</time>
      </trkpt>
      <trkpt lat="51.68690599501133" lon="0.38636701181531">
        <ele>70</ele>
        <time>2018-02-19T09:10:26Z</time>
      </trkpt>
      <trkpt lat="51.686897026374936" lon="0.386395007371902">
        <ele>70</ele>
        <time>2018-02-19T09:10:27Z</time>
      </trkpt>
      <trkpt lat="51.686887973919511" lon="0.386428032070398">
        <ele>70</ele>
        <time>2018-02-19T09:10:28Z</time>
      </trkpt>
      <trkpt lat="51.686880011111498" lon="0.386460972949862">
        <ele>70</ele>
        <time>2018-02-19T09:10:29Z</time>
      </trkpt>
      <trkpt lat="51.686869030818343" lon="0.386493997648358">
        <ele>70</ele>
        <time>2018-02-19T09:10:30Z</time>
      </trkpt>
      <trkpt lat="51.686858972534537" lon="0.386528028175235">
        <ele>70</ele>
        <time>2018-02-19T09:10:31Z</time>
      </trkpt>
      <trkpt lat="51.686847992241383" lon="0.386559041216969">
        <ele>70</ele>
        <time>2018-02-19T09:10:32Z</time>
      </trkpt>
      <trkpt lat="51.686836006119847" lon="0.386593993753195">
        <ele>70</ele>
        <time>2018-02-19T09:10:33Z</time>
      </trkpt>
      <trkpt lat="51.686826031655073" lon="0.386628024280071">
        <ele>70</ele>
        <time>2018-02-19T09:10:34Z</time>
      </trkpt>
      <trkpt lat="51.686813961714506" lon="0.386661970987916">
        <ele>70</ele>
        <time>2018-02-19T09:10:35Z</time>
      </trkpt>
      <trkpt lat="51.68680096976459" lon="0.386697007343173">
        <ele>70</ele>
        <time>2018-02-19T09:10:36Z</time>
      </trkpt>
      <trkpt lat="51.686790995299816" lon="0.386730032041669">
        <ele>70</ele>
        <time>2018-02-19T09:10:37Z</time>
      </trkpt>
      <trkpt lat="51.6867780033499" lon="0.386765990406275">
        <ele>70</ele>
        <time>2018-02-19T09:10:38Z</time>
      </trkpt>
      <trkpt lat="51.686768028885126" lon="0.386802032589912">
        <ele>70</ele>
        <time>2018-02-19T09:10:39Z</time>
      </trkpt>
      <trkpt lat="51.686755958944559" lon="0.386837990954518">
        <ele>70</ele>
        <time>2018-02-19T09:10:40Z</time>
      </trkpt>
      <trkpt lat="51.686744978651404" lon="0.386871015653014">
        <ele>70</ele>
        <time>2018-02-19T09:10:41Z</time>
      </trkpt>
      <trkpt lat="51.686732992529869" lon="0.38690697401762">
        <ele>70</ele>
        <time>2018-02-19T09:10:42Z</time>
      </trkpt>
      <trkpt lat="51.686723018065095" lon="0.386942010372877">
        <ele>70</ele>
        <time>2018-02-19T09:10:43Z</time>
      </trkpt>
      <trkpt lat="51.68671396560967" lon="0.386977968737483">
        <ele>70</ele>
        <time>2018-02-19T09:10:44Z</time>
      </trkpt>
      <trkpt lat="51.686706002801657" lon="0.387007975950837">
        <ele>70</ele>
        <time>2018-02-19T09:10:45Z</time>
      </trkpt>
      <trkpt lat="51.686696028336883" lon="0.387041000649333">
        <ele>70</ele>
        <time>2018-02-19T09:10:46Z</time>
      </trkpt>
      <trkpt lat="51.686684964224696" lon="0.387074025347829">
        <ele>70</ele>
        <time>2018-02-19T09:10:47Z</time>
      </trkpt>
      <trkpt lat="51.686672978103161" lon="0.387105960398912">
        <ele>70</ele>
        <time>2018-02-19T09:10:48Z</time>
      </trkpt>
      <trkpt lat="51.686664009466767" lon="0.387139990925789">
        <ele>70</ele>
        <time>2018-02-19T09:10:49Z</time>
      </trkpt>
      <trkpt lat="51.686655040830374" lon="0.387173015624285">
        <ele>70</ele>
        <time>2018-02-19T09:10:50Z</time>
      </trkpt>
      <trkpt lat="51.686645988374949" lon="0.38720796816051">
        <ele>70</ele>
        <time>2018-02-19T09:10:51Z</time>
      </trkpt>
      <trkpt lat="51.686634002253413" lon="0.387239987030625">
        <ele>70</ele>
        <time>2018-02-19T09:10:52Z</time>
      </trkpt>
      <trkpt lat="51.686624027788639" lon="0.387272005900741">
        <ele>69.956521739130395</ele>
        <time>2018-02-19T09:10:53Z</time>
      </trkpt>
      <trkpt lat="51.686612963676453" lon="0.387303018942475">
        <ele>69</ele>
        <time>2018-02-19T09:10:54Z</time>
      </trkpt>
      <trkpt lat="51.686601983383298" lon="0.387335037812591">
        <ele>69</ele>
        <time>2018-02-19T09:10:55Z</time>
      </trkpt>
      <trkpt lat="51.686589997261763" lon="0.387365967035294">
        <ele>69</ele>
        <time>2018-02-19T09:10:56Z</time>
      </trkpt>
      <trkpt lat="51.686578011140227" lon="0.387397985905409">
        <ele>69</ele>
        <time>2018-02-19T09:10:57Z</time>
      </trkpt>
      <trkpt lat="51.686567030847073" lon="0.387430004775524">
        <ele>69</ele>
        <time>2018-02-19T09:10:58Z</time>
      </trkpt>
      <trkpt lat="51.686555966734886" lon="0.38746302947402">
        <ele>68.888886015721994</ele>
        <time>2018-02-19T09:10:59Z</time>
      </trkpt>
      <trkpt lat="51.686545992270112" lon="0.387495970353484">
        <ele>68</ele>
        <time>2018-02-19T09:11:00Z</time>
      </trkpt>
      <trkpt lat="51.686534006148577" lon="0.387526983395219">
        <ele>68</ele>
        <time>2018-02-19T09:11:01Z</time>
      </trkpt>
      <trkpt lat="51.686523025855422" lon="0.387555984780192">
        <ele>68</ele>
        <time>2018-02-19T09:11:02Z</time>
      </trkpt>
      <trkpt lat="51.686511039733887" lon="0.387589009478688">
        <ele>68</ele>
        <time>2018-02-19T09:11:03Z</time>
      </trkpt>
      <trkpt lat="51.68649896979332" lon="0.387623040005565">
        <ele>68</ele>
        <time>2018-02-19T09:11:04Z</time>
      </trkpt>
      <trkpt lat="51.686488995328546" lon="0.387652963399887">
        <ele>68</ele>
        <time>2018-02-19T09:11:05Z</time>
      </trkpt>
      <trkpt lat="51.686479020863771" lon="0.387683976441622">
        <ele>68</ele>
        <time>2018-02-19T09:11:06Z</time>
      </trkpt>
      <trkpt lat="51.686468040570617" lon="0.387714989483356">
        <ele>68</ele>
        <time>2018-02-19T09:11:07Z</time>
      </trkpt>
      <trkpt lat="51.68645597063005" lon="0.387747008353472">
        <ele>68</ele>
        <time>2018-02-19T09:11:08Z</time>
      </trkpt>
      <trkpt lat="51.686445996165276" lon="0.387779027223587">
        <ele>68</ele>
        <time>2018-02-19T09:11:09Z</time>
      </trkpt>
      <trkpt lat="51.68643300421536" lon="0.387810962274671">
        <ele>68</ele>
        <time>2018-02-19T09:11:10Z</time>
      </trkpt>
      <trkpt lat="51.686421018093824" lon="0.387841975316405">
        <ele>68</ele>
        <time>2018-02-19T09:11:11Z</time>
      </trkpt>
      <trkpt lat="51.686411965638399" lon="0.387875000014901">
        <ele>68</ele>
        <time>2018-02-19T09:11:12Z</time>
      </trkpt>
      <trkpt lat="51.686402997002006" lon="0.387906013056636">
        <ele>68</ele>
        <time>2018-02-19T09:11:13Z</time>
      </trkpt>
      <trkpt lat="51.686393022537231" lon="0.387935014441609">
        <ele>68</ele>
        <time>2018-02-19T09:11:14Z</time>
      </trkpt>
      <trkpt lat="51.686382964253426" lon="0.387966027483344">
        <ele>68</ele>
        <time>2018-02-19T09:11:15Z</time>
      </trkpt>
      <trkpt lat="51.686372989788651" lon="0.387994023039937">
        <ele>67.909090909090907</ele>
        <time>2018-02-19T09:11:16Z</time>
      </trkpt>
      <trkpt lat="51.686358992010355" lon="0.388025958091021">
        <ele>67.151515151515198</ele>
        <time>2018-02-19T09:11:17Z</time>
      </trkpt>
      <trkpt lat="51.686350023373961" lon="0.388058982789516">
        <ele>67</ele>
        <time>2018-02-19T09:11:18Z</time>
      </trkpt>
      <trkpt lat="51.686339965090156" lon="0.388091001659632">
        <ele>67</ele>
        <time>2018-02-19T09:11:19Z</time>
      </trkpt>
      <trkpt lat="51.686314987018704" lon="0.388154033571482">
        <ele>67</ele>
        <time>2018-02-19T09:11:21Z</time>
      </trkpt>
      <trkpt lat="51.68630400672555" lon="0.388187980279326">
        <ele>67</ele>
        <time>2018-02-19T09:11:22Z</time>
      </trkpt>
      <trkpt lat="51.686293026432395" lon="0.388217987492681">
        <ele>67.0537601849813</ele>
        <time>2018-02-19T09:11:23Z</time>
      </trkpt>
      <trkpt lat="51.686281962320209" lon="0.388249000534415">
        <ele>68</ele>
        <time>2018-02-19T09:11:24Z</time>
      </trkpt>
      <trkpt lat="51.686273999512196" lon="0.388281019404531">
        <ele>68</ele>
        <time>2018-02-19T09:11:25Z</time>
      </trkpt>
      <trkpt lat="51.686264025047421" lon="0.388313038274646">
        <ele>68</ele>
        <time>2018-02-19T09:11:26Z</time>
      </trkpt>
      <trkpt lat="51.686252960935235" lon="0.38834597915411">
        <ele>68</ele>
        <time>2018-02-19T09:11:27Z</time>
      </trkpt>
      <trkpt lat="51.686242986470461" lon="0.388373974710703">
        <ele>68</ele>
        <time>2018-02-19T09:11:28Z</time>
      </trkpt>
      <trkpt lat="51.686233012005687" lon="0.388402976095676">
        <ele>68</ele>
        <time>2018-02-19T09:11:29Z</time>
      </trkpt>
      <trkpt lat="51.686224965378642" lon="0.388433989137411">
        <ele>68</ele>
        <time>2018-02-19T09:11:30Z</time>
      </trkpt>
      <trkpt lat="51.686215996742249" lon="0.388463996350765">
        <ele>68.022229175259199</ele>
        <time>2018-02-19T09:11:31Z</time>
      </trkpt>
      <trkpt lat="51.686201998963952" lon="0.388497021049261">
        <ele>69</ele>
        <time>2018-02-19T09:11:32Z</time>
      </trkpt>
      <trkpt lat="51.686189007014036" lon="0.388526022434235">
        <ele>69</ele>
        <time>2018-02-19T09:11:33Z</time>
      </trkpt>
      <trkpt lat="51.68617601506412" lon="0.388557035475969">
        <ele>69</ele>
        <time>2018-02-19T09:11:34Z</time>
      </trkpt>
      <trkpt lat="51.686164028942585" lon="0.388587964698672">
        <ele>68.879999999999995</ele>
        <time>2018-02-19T09:11:35Z</time>
      </trkpt>
      <trkpt lat="51.686151959002018" lon="0.388617971912026">
        <ele>68</ele>
        <time>2018-02-19T09:11:36Z</time>
      </trkpt>
      <trkpt lat="51.686142990365624" lon="0.388647979125381">
        <ele>68</ele>
        <time>2018-02-19T09:11:37Z</time>
      </trkpt>
      <trkpt lat="51.686134021729231" lon="0.388676980510354">
        <ele>68</ele>
        <time>2018-02-19T09:11:38Z</time>
      </trkpt>
      <trkpt lat="51.686122035607696" lon="0.388707993552089">
        <ele>68</ele>
        <time>2018-02-19T09:11:39Z</time>
      </trkpt>
      <trkpt lat="51.686110971495509" lon="0.388740012422204">
        <ele>68</ele>
        <time>2018-02-19T09:11:40Z</time>
      </trkpt>
      <trkpt lat="51.686102002859116" lon="0.388771025463939">
        <ele>68</ele>
        <time>2018-02-19T09:11:41Z</time>
      </trkpt>
      <trkpt lat="51.686094040051103" lon="0.388801032677293">
        <ele>67.9166666666667</ele>
        <time>2018-02-19T09:11:42Z</time>
      </trkpt>
      <trkpt lat="51.686080964282155" lon="0.388831039890647">
        <ele>67</ele>
        <time>2018-02-19T09:11:43Z</time>
      </trkpt>
      <trkpt lat="51.686073001474142" lon="0.388857023790479">
        <ele>67</ele>
        <time>2018-02-19T09:11:44Z</time>
      </trkpt>
      <trkpt lat="51.686052968725562" lon="0.388912009075284">
        <ele>67</ele>
        <time>2018-02-19T09:11:46Z</time>
      </trkpt>
      <trkpt lat="51.686042994260788" lon="0.388938998803496">
        <ele>67</ele>
        <time>2018-02-19T09:11:47Z</time>
      </trkpt>
      <trkpt lat="51.686033019796014" lon="0.388970011845231">
        <ele>67</ele>
        <time>2018-02-19T09:11:48Z</time>
      </trkpt>
      <trkpt lat="51.68602597899735" lon="0.388999013230205">
        <ele>67</ele>
        <time>2018-02-19T09:11:49Z</time>
      </trkpt>
      <trkpt lat="51.686013992875814" lon="0.389028014615178">
        <ele>66.977784730913598</ele>
        <time>2018-02-19T09:11:50Z</time>
      </trkpt>
      <trkpt lat="51.686006030067801" lon="0.389057016000152">
        <ele>66</ele>
        <time>2018-02-19T09:11:51Z</time>
      </trkpt>
      <trkpt lat="51.685998989269137" lon="0.389084005728364">
        <ele>66</ele>
        <time>2018-02-19T09:11:52Z</time>
      </trkpt>
      <trkpt lat="51.685991026461124" lon="0.38911703042686">
        <ele>66</ele>
        <time>2018-02-19T09:11:53Z</time>
      </trkpt>
      <trkpt lat="51.68598297983408" lon="0.389144020155072">
        <ele>66</ele>
        <time>2018-02-19T09:11:54Z</time>
      </trkpt>
      <trkpt lat="51.685969987884164" lon="0.389200011268258">
        <ele>66</ele>
        <time>2018-02-19T09:11:56Z</time>
      </trkpt>
      <trkpt lat="51.685958001762629" lon="0.38922700099647">
        <ele>66</ele>
        <time>2018-02-19T09:11:57Z</time>
      </trkpt>
      <trkpt lat="51.685948027297854" lon="0.389253990724683">
        <ele>66</ele>
        <time>2018-02-19T09:11:58Z</time>
      </trkpt>
      <trkpt lat="51.685937969014049" lon="0.389281986281276">
        <ele>66</ele>
        <time>2018-02-19T09:11:59Z</time>
      </trkpt>
      <trkpt lat="51.685931012034416" lon="0.38931299932301">
        <ele>66</ele>
        <time>2018-02-19T09:12:00Z</time>
      </trkpt>
      <trkpt lat="51.685923971235752" lon="0.389346024021506">
        <ele>65.769230769230802</ele>
        <time>2018-02-19T09:12:01Z</time>
      </trkpt>
      <trkpt lat="51.685912990942597" lon="0.38937502540648">
        <ele>64</ele>
        <time>2018-02-19T09:12:02Z</time>
      </trkpt>
      <trkpt lat="51.685901004821062" lon="0.389408972114325">
        <ele>64</ele>
        <time>2018-02-19T09:12:03Z</time>
      </trkpt>
      <trkpt lat="51.685891030356288" lon="0.389438979327679">
        <ele>64</ele>
        <time>2018-02-19T09:12:04Z</time>
      </trkpt>
      <trkpt lat="51.68587502092123" lon="0.389475021511316">
        <ele>64</ele>
        <time>2018-02-19T09:12:05Z</time>
      </trkpt>
      <trkpt lat="51.685864040628076" lon="0.389507040381432">
        <ele>64</ele>
        <time>2018-02-19T09:12:06Z</time>
      </trkpt>
      <trkpt lat="51.685851970687509" lon="0.389536963775754">
        <ele>64</ele>
        <time>2018-02-19T09:12:07Z</time>
      </trkpt>
      <trkpt lat="51.685844007879496" lon="0.389566970989108">
        <ele>64</ele>
        <time>2018-02-19T09:12:08Z</time>
      </trkpt>
      <trkpt lat="51.685835961252451" lon="0.389598989859223">
        <ele>64</ele>
        <time>2018-02-19T09:12:09Z</time>
      </trkpt>
      <trkpt lat="51.685826992616057" lon="0.389632014557719">
        <ele>64</ele>
        <time>2018-02-19T09:12:10Z</time>
      </trkpt>
      <trkpt lat="51.685817018151283" lon="0.389665039256215">
        <ele>63.880000000000003</ele>
        <time>2018-02-19T09:12:11Z</time>
      </trkpt>
      <trkpt lat="51.685806037858129" lon="0.389696974307299">
        <ele>63</ele>
        <time>2018-02-19T09:12:12Z</time>
      </trkpt>
      <trkpt lat="51.685796985402703" lon="0.389729999005795">
        <ele>62.9166666666667</ele>
        <time>2018-02-19T09:12:13Z</time>
      </trkpt>
      <trkpt lat="51.68578801676631" lon="0.389760006219149">
        <ele>62</ele>
        <time>2018-02-19T09:12:14Z</time>
      </trkpt>
      <trkpt lat="51.685778964310884" lon="0.389793030917645">
        <ele>62</ele>
        <time>2018-02-19T09:12:15Z</time>
      </trkpt>
      <trkpt lat="51.685769995674491" lon="0.389826977625489">
        <ele>62</ele>
        <time>2018-02-19T09:12:16Z</time>
      </trkpt>
      <trkpt lat="51.685763960704207" lon="0.389861008152366">
        <ele>62</ele>
        <time>2018-02-19T09:12:17Z</time>
      </trkpt>
      <trkpt lat="51.685758009552956" lon="0.38989101536572">
        <ele>62</ele>
        <time>2018-02-19T09:12:18Z</time>
      </trkpt>
      <trkpt lat="51.685748035088181" lon="0.389923034235835">
        <ele>62</ele>
        <time>2018-02-19T09:12:19Z</time>
      </trkpt>
      <trkpt lat="51.685735965147614" lon="0.389955975115299">
        <ele>62</ele>
        <time>2018-02-19T09:12:20Z</time>
      </trkpt>
      <trkpt lat="51.685723979026079" lon="0.389984976500273">
        <ele>62</ele>
        <time>2018-02-19T09:12:21Z</time>
      </trkpt>
      <trkpt lat="51.685712998732924" lon="0.390014983713627">
        <ele>62</ele>
        <time>2018-02-19T09:12:22Z</time>
      </trkpt>
      <trkpt lat="51.685701012611389" lon="0.39004297927022">
        <ele>62</ele>
        <time>2018-02-19T09:12:23Z</time>
      </trkpt>
      <trkpt lat="51.685691038146615" lon="0.390072986483574">
        <ele>62</ele>
        <time>2018-02-19T09:12:24Z</time>
      </trkpt>
      <trkpt lat="51.68568198569119" lon="0.390103999525309">
        <ele>62</ele>
        <time>2018-02-19T09:12:25Z</time>
      </trkpt>
      <trkpt lat="51.685673017054796" lon="0.390134006738663">
        <ele>61.9462398150187</ele>
        <time>2018-02-19T09:12:26Z</time>
      </trkpt>
      <trkpt lat="51.685662036761642" lon="0.390165019780397">
        <ele>61</ele>
        <time>2018-02-19T09:12:27Z</time>
      </trkpt>
      <trkpt lat="51.685652984306216" lon="0.390195026993752">
        <ele>61</ele>
        <time>2018-02-19T09:12:28Z</time>
      </trkpt>
      <trkpt lat="51.685642004013062" lon="0.390223022550344">
        <ele>60.907219487734402</ele>
        <time>2018-02-19T09:12:29Z</time>
      </trkpt>
      <trkpt lat="51.685632029548287" lon="0.390254035592079">
        <ele>60</ele>
        <time>2018-02-19T09:12:30Z</time>
      </trkpt>
      <trkpt lat="51.685620965436101" lon="0.390284964814782">
        <ele>60</ele>
        <time>2018-02-19T09:12:31Z</time>
      </trkpt>
      <trkpt lat="51.685609985142946" lon="0.390316983684897">
        <ele>60</ele>
        <time>2018-02-19T09:12:32Z</time>
      </trkpt>
      <trkpt lat="51.685594981536269" lon="0.390347996726632">
        <ele>59.936176586734199</ele>
        <time>2018-02-19T09:12:33Z</time>
      </trkpt>
      <trkpt lat="51.685584001243114" lon="0.390379009768367">
        <ele>59</ele>
        <time>2018-02-19T09:12:34Z</time>
      </trkpt>
      <trkpt lat="51.685576038435102" lon="0.390413040295243">
        <ele>59</ele>
        <time>2018-02-19T09:12:35Z</time>
      </trkpt>
      <trkpt lat="51.685565980151296" lon="0.390445981174707">
        <ele>59</ele>
        <time>2018-02-19T09:12:36Z</time>
      </trkpt>
      <trkpt lat="51.685557011514902" lon="0.390478000044823">
        <ele>59</ele>
        <time>2018-02-19T09:12:37Z</time>
      </trkpt>
      <trkpt lat="51.685546031221747" lon="0.390510018914938">
        <ele>59</ele>
        <time>2018-02-19T09:12:38Z</time>
      </trkpt>
      <trkpt lat="51.685535972937942" lon="0.390542037785053">
        <ele>59</ele>
        <time>2018-02-19T09:12:39Z</time>
      </trkpt>
      <trkpt lat="51.685523986816406" lon="0.390575984492898">
        <ele>59</ele>
        <time>2018-02-19T09:12:40Z</time>
      </trkpt>
      <trkpt lat="51.685512000694871" lon="0.390608003363013">
        <ele>59</ele>
        <time>2018-02-19T09:12:41Z</time>
      </trkpt>
      <trkpt lat="51.685503032058477" lon="0.39064203388989">
        <ele>59</ele>
        <time>2018-02-19T09:12:42Z</time>
      </trkpt>
      <trkpt lat="51.685491967946291" lon="0.390672963112593">
        <ele>59</ele>
        <time>2018-02-19T09:12:43Z</time>
      </trkpt>
      <trkpt lat="51.685478975996375" lon="0.390705987811089">
        <ele>59</ele>
        <time>2018-02-19T09:12:44Z</time>
      </trkpt>
      <trkpt lat="51.685464978218079" lon="0.390735995024443">
        <ele>59.043478260869598</ele>
        <time>2018-02-19T09:12:45Z</time>
      </trkpt>
      <trkpt lat="51.685448968783021" lon="0.39077396504581">
        <ele>60</ele>
        <time>2018-02-19T09:12:46Z</time>
      </trkpt>
      <trkpt lat="51.685432959347963" lon="0.390811013057828">
        <ele>60</ele>
        <time>2018-02-19T09:12:47Z</time>
      </trkpt>
      <trkpt lat="51.685419967398047" lon="0.390841020271182">
        <ele>60</ele>
        <time>2018-02-19T09:12:48Z</time>
      </trkpt>
      <trkpt lat="51.685406975448132" lon="0.390870021656156">
        <ele>60</ele>
        <time>2018-02-19T09:12:49Z</time>
      </trkpt>
      <trkpt lat="51.685391971841455" lon="0.390899023041129">
        <ele>60</ele>
        <time>2018-02-19T09:12:50Z</time>
      </trkpt>
      <trkpt lat="51.685377974063158" lon="0.390931963920593">
        <ele>60</ele>
        <time>2018-02-19T09:12:51Z</time>
      </trkpt>
      <trkpt lat="51.685369005426764" lon="0.390960965305567">
        <ele>60</ele>
        <time>2018-02-19T09:12:52Z</time>
      </trkpt>
      <trkpt lat="51.685355007648468" lon="0.391007987782359">
        <ele>60</ele>
        <time>2018-02-19T09:12:54Z</time>
      </trkpt>
      <trkpt lat="51.685346039012074" lon="0.391043024137616">
        <ele>60</ele>
        <time>2018-02-19T09:12:56Z</time>
      </trkpt>
      <trkpt lat="51.685355007648468" lon="0.391085017472506">
        <ele>59</ele>
        <time>2018-02-19T09:12:59Z</time>
      </trkpt>
      <trkpt lat="51.685369005426764" lon="0.391126004979014">
        <ele>59</ele>
        <time>2018-02-19T09:13:01Z</time>
      </trkpt>
      <trkpt lat="51.685378979891539" lon="0.391165986657143">
        <ele>59</ele>
        <time>2018-02-19T09:13:03Z</time>
      </trkpt>
      <trkpt lat="51.685393983498216" lon="0.391179984435439">
        <ele>59</ele>
        <time>2018-02-19T09:13:14Z</time>
      </trkpt>
      <trkpt lat="51.68540203012526" lon="0.391216026619077">
        <ele>59</ele>
        <time>2018-02-19T09:13:18Z</time>
      </trkpt>
      <trkpt lat="51.685404041782022" lon="0.391261959448457">
        <ele>59</ele>
        <time>2018-02-19T09:13:20Z</time>
      </trkpt>
      <trkpt lat="51.685407981276512" lon="0.391294984146953">
        <ele>59</ele>
        <time>2018-02-19T09:13:22Z</time>
      </trkpt>
      <trkpt lat="51.685414016246796" lon="0.391332032158971">
        <ele>59</ele>
        <time>2018-02-19T09:13:24Z</time>
      </trkpt>
      <trkpt lat="51.685415022075176" lon="0.391367990523577">
        <ele>59</ele>
        <time>2018-02-19T09:13:26Z</time>
      </trkpt>
      <trkpt lat="51.685418039560318" lon="0.391405960544944">
        <ele>59</ele>
        <time>2018-02-19T09:13:28Z</time>
      </trkpt>
      <trkpt lat="51.685421979054809" lon="0.391446026042104">
        <ele>59</ele>
        <time>2018-02-19T09:13:30Z</time>
      </trkpt>
      <trkpt lat="51.685421979054809" lon="0.391493970528245">
        <ele>59</ele>
        <time>2018-02-19T09:13:32Z</time>
      </trkpt>
      <trkpt lat="51.685421979054809" lon="0.391528001055121">
        <ele>59</ele>
        <time>2018-02-19T09:13:33Z</time>
      </trkpt>
      <trkpt lat="51.685420973226428" lon="0.391564965248108">
        <ele>59</ele>
        <time>2018-02-19T09:13:34Z</time>
      </trkpt>
      <trkpt lat="51.685418961569667" lon="0.391606036573648">
        <ele>59</ele>
        <time>2018-02-19T09:13:35Z</time>
      </trkpt>
      <trkpt lat="51.685415022075176" lon="0.391648029908538">
        <ele>59</ele>
        <time>2018-02-19T09:13:36Z</time>
      </trkpt>
      <trkpt lat="51.685409992933273" lon="0.391690023243427">
        <ele>58.880000000000003</ele>
        <time>2018-02-19T09:13:37Z</time>
      </trkpt>
      <trkpt lat="51.685405969619751" lon="0.391731010749936">
        <ele>58</ele>
        <time>2018-02-19T09:13:38Z</time>
      </trkpt>
      <trkpt lat="51.685399012640119" lon="0.391774009913206">
        <ele>58</ele>
        <time>2018-02-19T09:13:39Z</time>
      </trkpt>
      <trkpt lat="51.685394989326596" lon="0.391813991591334">
        <ele>58</ele>
        <time>2018-02-19T09:13:40Z</time>
      </trkpt>
      <trkpt lat="51.685389960184693" lon="0.391850033774972">
        <ele>58</ele>
        <time>2018-02-19T09:13:41Z</time>
      </trkpt>
      <trkpt lat="51.685385014861822" lon="0.391888003796339">
        <ele>58</ele>
        <time>2018-02-19T09:13:42Z</time>
      </trkpt>
      <trkpt lat="51.685383003205061" lon="0.391924967989326">
        <ele>58</ele>
        <time>2018-02-19T09:13:43Z</time>
      </trkpt>
      <trkpt lat="51.685378979891539" lon="0.391966039314866">
        <ele>58</ele>
        <time>2018-02-19T09:13:44Z</time>
      </trkpt>
      <trkpt lat="51.685374034568667" lon="0.392006020992994">
        <ele>58</ele>
        <time>2018-02-19T09:13:45Z</time>
      </trkpt>
      <trkpt lat="51.685372022911906" lon="0.39204097352922">
        <ele>58</ele>
        <time>2018-02-19T09:13:46Z</time>
      </trkpt>
      <trkpt lat="51.685370011255145" lon="0.392077015712857">
        <ele>58</ele>
        <time>2018-02-19T09:13:47Z</time>
      </trkpt>
      <trkpt lat="51.685370011255145" lon="0.392112974077463">
        <ele>58</ele>
        <time>2018-02-19T09:13:48Z</time>
      </trkpt>
      <trkpt lat="51.685370011255145" lon="0.39214801043272">
        <ele>58</ele>
        <time>2018-02-19T09:13:49Z</time>
      </trkpt>
      <trkpt lat="51.685370011255145" lon="0.392183968797326">
        <ele>58</ele>
        <time>2018-02-19T09:13:50Z</time>
      </trkpt>
      <trkpt lat="51.685366993770003" lon="0.392220010980964">
        <ele>58</ele>
        <time>2018-02-19T09:13:51Z</time>
      </trkpt>
      <trkpt lat="51.685365987941623" lon="0.39225596934557">
        <ele>58</ele>
        <time>2018-02-19T09:13:52Z</time>
      </trkpt>
      <trkpt lat="51.685367999598384" lon="0.392292011529207">
        <ele>58</ele>
        <time>2018-02-19T09:13:53Z</time>
      </trkpt>
      <trkpt lat="51.685371017083526" lon="0.392328975722194">
        <ele>58</ele>
        <time>2018-02-19T09:13:54Z</time>
      </trkpt>
      <trkpt lat="51.685373028740287" lon="0.392368035390973">
        <ele>58</ele>
        <time>2018-02-19T09:13:55Z</time>
      </trkpt>
      <trkpt lat="51.685375040397048" lon="0.392403993755579">
        <ele>58</ele>
        <time>2018-02-19T09:13:56Z</time>
      </trkpt>
      <trkpt lat="51.685378979891539" lon="0.392434000968933">
        <ele>58</ele>
        <time>2018-02-19T09:13:57Z</time>
      </trkpt>
      <trkpt lat="51.6853809915483" lon="0.392466019839048">
        <ele>57.907219487734402</ele>
        <time>2018-02-19T09:13:58Z</time>
      </trkpt>
      <trkpt lat="51.685384009033442" lon="0.392498038709164">
        <ele>57</ele>
        <time>2018-02-19T09:13:59Z</time>
      </trkpt>
      <trkpt lat="51.685387026518583" lon="0.392526034265757">
        <ele>57</ele>
        <time>2018-02-19T09:14:00Z</time>
      </trkpt>
      <trkpt lat="51.685391971841455" lon="0.392580013722181">
        <ele>57</ele>
        <time>2018-02-19T09:14:02Z</time>
      </trkpt>
      <trkpt lat="51.685391971841455" lon="0.392610020935535">
        <ele>57</ele>
        <time>2018-02-19T09:14:03Z</time>
      </trkpt>
      <trkpt lat="51.685395995154977" lon="0.39264103397727">
        <ele>57</ele>
        <time>2018-02-19T09:14:04Z</time>
      </trkpt>
      <trkpt lat="51.68540102429688" lon="0.392672969028354">
        <ele>57</ele>
        <time>2018-02-19T09:14:05Z</time>
      </trkpt>
      <trkpt lat="51.68540203012526" lon="0.39270599372685">
        <ele>57</ele>
        <time>2018-02-19T09:14:06Z</time>
      </trkpt>
      <trkpt lat="51.68540102429688" lon="0.392736000940204">
        <ele>57</ele>
        <time>2018-02-19T09:14:07Z</time>
      </trkpt>
      <trkpt lat="51.685398006811738" lon="0.392780005931854">
        <ele>57</ele>
        <time>2018-02-19T09:14:09Z</time>
      </trkpt>
      <trkpt lat="51.685395995154977" lon="0.39281202480197">
        <ele>57</ele>
        <time>2018-02-19T09:14:11Z</time>
      </trkpt>
      <trkpt lat="51.685391971841455" lon="0.392847983166575">
        <ele>57</ele>
        <time>2018-02-19T09:14:14Z</time>
      </trkpt>
      <trkpt lat="51.68540203012526" lon="0.392873967066407">
        <ele>56.988767600063298</ele>
        <time>2018-02-19T09:14:28Z</time>
      </trkpt>
      <trkpt lat="51.685418039560318" lon="0.392917972058058">
        <ele>56</ele>
        <time>2018-02-19T09:14:30Z</time>
      </trkpt>
      <trkpt lat="51.685433965176344" lon="0.392968012019992">
        <ele>56</ele>
        <time>2018-02-19T09:14:32Z</time>
      </trkpt>
      <trkpt lat="51.685440000146627" lon="0.392997013404965">
        <ele>56</ele>
        <time>2018-02-19T09:14:33Z</time>
      </trkpt>
      <trkpt lat="51.685451986268163" lon="0.393055016174912">
        <ele>56</ele>
        <time>2018-02-19T09:14:35Z</time>
      </trkpt>
      <trkpt lat="51.685461960732937" lon="0.393083011731505">
        <ele>56</ele>
        <time>2018-02-19T09:14:36Z</time>
      </trkpt>
      <trkpt lat="51.685474030673504" lon="0.393105978146195">
        <ele>56</ele>
        <time>2018-02-19T09:14:37Z</time>
      </trkpt>
      <trkpt lat="51.685493979603052" lon="0.393154006451368">
        <ele>55</ele>
        <time>2018-02-19T09:14:39Z</time>
      </trkpt>
      <trkpt lat="51.685503032058477" lon="0.393180996179581">
        <ele>55</ele>
        <time>2018-02-19T09:14:40Z</time>
      </trkpt>
      <trkpt lat="51.685512000694871" lon="0.393208991736174">
        <ele>55</ele>
        <time>2018-02-19T09:14:41Z</time>
      </trkpt>
      <trkpt lat="51.685521975159645" lon="0.393233969807625">
        <ele>55.119999999999997</ele>
        <time>2018-02-19T09:14:42Z</time>
      </trkpt>
      <trkpt lat="51.685537984594703" lon="0.393283003941178">
        <ele>56</ele>
        <time>2018-02-19T09:14:44Z</time>
      </trkpt>
      <trkpt lat="51.685546031221747" lon="0.393309993669391">
        <ele>56</ele>
        <time>2018-02-19T09:14:45Z</time>
      </trkpt>
      <trkpt lat="51.685556005686522" lon="0.393338995054364">
        <ele>56</ele>
        <time>2018-02-19T09:14:46Z</time>
      </trkpt>
      <trkpt lat="51.685564974322915" lon="0.393367996439338">
        <ele>56</ele>
        <time>2018-02-19T09:14:47Z</time>
      </trkpt>
      <trkpt lat="51.68557402677834" lon="0.393395991995931">
        <ele>56</ele>
        <time>2018-02-19T09:14:48Z</time>
      </trkpt>
      <trkpt lat="51.685584001243114" lon="0.393425999209285">
        <ele>56</ele>
        <time>2018-02-19T09:14:49Z</time>
      </trkpt>
      <trkpt lat="51.685591964051127" lon="0.393457012251019">
        <ele>56</ele>
        <time>2018-02-19T09:14:50Z</time>
      </trkpt>
      <trkpt lat="51.685599004849792" lon="0.393484001979232">
        <ele>56</ele>
        <time>2018-02-19T09:14:51Z</time>
      </trkpt>
      <trkpt lat="51.68561602011323" lon="0.393533958122134">
        <ele>55</ele>
        <time>2018-02-19T09:14:53Z</time>
      </trkpt>
      <trkpt lat="51.685629012063146" lon="0.393559020012617">
        <ele>55.116504492413199</ele>
        <time>2018-02-19T09:14:54Z</time>
      </trkpt>
      <trkpt lat="51.685637980699539" lon="0.393586009740829">
        <ele>56</ele>
        <time>2018-02-19T09:14:55Z</time>
      </trkpt>
      <trkpt lat="51.685647033154964" lon="0.393614005297422">
        <ele>56</ele>
        <time>2018-02-19T09:14:56Z</time>
      </trkpt>
      <trkpt lat="51.685656001791358" lon="0.393642000854015">
        <ele>56</ele>
        <time>2018-02-19T09:14:57Z</time>
      </trkpt>
      <trkpt lat="51.68566295877099" lon="0.393669996410608">
        <ele>55.888886015722001</ele>
        <time>2018-02-19T09:14:58Z</time>
      </trkpt>
      <trkpt lat="51.685669999569654" lon="0.393698997795582">
        <ele>55</ele>
        <time>2018-02-19T09:14:59Z</time>
      </trkpt>
      <trkpt lat="51.685677962377667" lon="0.393725987523794">
        <ele>55</ele>
        <time>2018-02-19T09:15:00Z</time>
      </trkpt>
      <trkpt lat="51.685686009004712" lon="0.393752977252007">
        <ele>55</ele>
        <time>2018-02-19T09:15:01Z</time>
      </trkpt>
      <trkpt lat="51.685694977641106" lon="0.393779966980219">
        <ele>55</ele>
        <time>2018-02-19T09:15:02Z</time>
      </trkpt>
      <trkpt lat="51.685711992904544" lon="0.393832018598914">
        <ele>55</ele>
        <time>2018-02-19T09:15:04Z</time>
      </trkpt>
      <trkpt lat="51.685720961540937" lon="0.393862025812268">
        <ele>55</ele>
        <time>2018-02-19T09:15:05Z</time>
      </trkpt>
      <trkpt lat="51.685731019824743" lon="0.3938880097121">
        <ele>55</ele>
        <time>2018-02-19T09:15:06Z</time>
      </trkpt>
      <trkpt lat="51.685751974582672" lon="0.393933020532131">
        <ele>55</ele>
        <time>2018-02-19T09:15:08Z</time>
      </trkpt>
      <trkpt lat="51.685774018988013" lon="0.393981970846653">
        <ele>55</ele>
        <time>2018-02-19T09:15:10Z</time>
      </trkpt>
      <trkpt lat="51.685784999281168" lon="0.394012983888388">
        <ele>55</ele>
        <time>2018-02-19T09:15:11Z</time>
      </trkpt>
      <trkpt lat="51.685795979574323" lon="0.394040979444981">
        <ele>55</ele>
        <time>2018-02-19T09:15:12Z</time>
      </trkpt>
      <trkpt lat="51.685807965695858" lon="0.394066963344812">
        <ele>55</ele>
        <time>2018-02-19T09:15:13Z</time>
      </trkpt>
      <trkpt lat="51.685821041464806" lon="0.394094958901405">
        <ele>55</ele>
        <time>2018-02-19T09:15:14Z</time>
      </trkpt>
      <trkpt lat="51.68583202175796" lon="0.394120020791888">
        <ele>55</ele>
        <time>2018-02-19T09:15:15Z</time>
      </trkpt>
      <trkpt lat="51.685843002051115" lon="0.394149022176862">
        <ele>55</ele>
        <time>2018-02-19T09:15:16Z</time>
      </trkpt>
      <trkpt lat="51.685851970687509" lon="0.394175006076694">
        <ele>55</ele>
        <time>2018-02-19T09:15:17Z</time>
      </trkpt>
      <trkpt lat="51.685865968465805" lon="0.394201995804906">
        <ele>55</ele>
        <time>2018-02-19T09:15:18Z</time>
      </trkpt>
      <trkpt lat="51.685878960415721" lon="0.394234014675021">
        <ele>55</ele>
        <time>2018-02-19T09:15:19Z</time>
      </trkpt>
      <trkpt lat="51.685888012871146" lon="0.394265027716756">
        <ele>55</ele>
        <time>2018-02-19T09:15:20Z</time>
      </trkpt>
      <trkpt lat="51.685895975679159" lon="0.394292017444968">
        <ele>55</ele>
        <time>2018-02-19T09:15:21Z</time>
      </trkpt>
      <trkpt lat="51.685904022306204" lon="0.394319007173181">
        <ele>55</ele>
        <time>2018-02-19T09:15:22Z</time>
      </trkpt>
      <trkpt lat="51.685912990942597" lon="0.394345996901393">
        <ele>55</ele>
        <time>2018-02-19T09:15:23Z</time>
      </trkpt>
      <trkpt lat="51.685921959578991" lon="0.394374998286366">
        <ele>55</ele>
        <time>2018-02-19T09:15:24Z</time>
      </trkpt>
      <trkpt lat="51.685930006206036" lon="0.39440399967134">
        <ele>55</ele>
        <time>2018-02-19T09:15:25Z</time>
      </trkpt>
      <trkpt lat="51.68593998067081" lon="0.394430989399552">
        <ele>55</ele>
        <time>2018-02-19T09:15:26Z</time>
      </trkpt>
      <trkpt lat="51.685949033126235" lon="0.394458984956145">
        <ele>55</ele>
        <time>2018-02-19T09:15:27Z</time>
      </trkpt>
      <trkpt lat="51.685958001762629" lon="0.394485974684358">
        <ele>55</ele>
        <time>2018-02-19T09:15:28Z</time>
      </trkpt>
      <trkpt lat="51.685967976227403" lon="0.39451003074646">
        <ele>55</ele>
        <time>2018-02-19T09:15:29Z</time>
      </trkpt>
      <trkpt lat="51.685979962348938" lon="0.394539032131433">
        <ele>55</ele>
        <time>2018-02-19T09:15:30Z</time>
      </trkpt>
      <trkpt lat="51.685990020632744" lon="0.394565016031265">
        <ele>55</ele>
        <time>2018-02-19T09:15:31Z</time>
      </trkpt>
      <trkpt lat="51.686011981219053" lon="0.394615978002548">
        <ele>55</ele>
        <time>2018-02-19T09:15:33Z</time>
      </trkpt>
      <trkpt lat="51.686023967340589" lon="0.394646991044283">
        <ele>55</ele>
        <time>2018-02-19T09:15:34Z</time>
      </trkpt>
      <trkpt lat="51.686034025624394" lon="0.394676998257637">
        <ele>55</ele>
        <time>2018-02-19T09:15:35Z</time>
      </trkpt>
      <trkpt lat="51.686040982604027" lon="0.394707005470991">
        <ele>55</ele>
        <time>2018-02-19T09:15:36Z</time>
      </trkpt>
      <trkpt lat="51.686050035059452" lon="0.394733995199203">
        <ele>55</ele>
        <time>2018-02-19T09:15:37Z</time>
      </trkpt>
      <trkpt lat="51.68606897816062" lon="0.394780011847615">
        <ele>55</ele>
        <time>2018-02-19T09:15:39Z</time>
      </trkpt>
      <trkpt lat="51.686081970110536" lon="0.394805995747447">
        <ele>55</ele>
        <time>2018-02-19T09:15:40Z</time>
      </trkpt>
      <trkpt lat="51.686104014515877" lon="0.39485402405262">
        <ele>55</ele>
        <time>2018-02-19T09:15:42Z</time>
      </trkpt>
      <trkpt lat="51.686116000637412" lon="0.394882019609213">
        <ele>55</ele>
        <time>2018-02-19T09:15:43Z</time>
      </trkpt>
      <trkpt lat="51.686127986758947" lon="0.394908003509045">
        <ele>55</ele>
        <time>2018-02-19T09:15:44Z</time>
      </trkpt>
      <trkpt lat="51.686137961223722" lon="0.394935999065638">
        <ele>55</ele>
        <time>2018-02-19T09:15:45Z</time>
      </trkpt>
      <trkpt lat="51.686148019507527" lon="0.394966006278992">
        <ele>55</ele>
        <time>2018-02-19T09:15:46Z</time>
      </trkpt>
      <trkpt lat="51.68615598231554" lon="0.394994001835585">
        <ele>55</ele>
        <time>2018-02-19T09:15:47Z</time>
      </trkpt>
      <trkpt lat="51.686164028942585" lon="0.395021997392178">
        <ele>55</ele>
        <time>2018-02-19T09:15:48Z</time>
      </trkpt>
      <trkpt lat="51.686171991750598" lon="0.395047981292009">
        <ele>55</ele>
        <time>2018-02-19T09:15:49Z</time>
      </trkpt>
      <trkpt lat="51.686180960386992" lon="0.395074971020222">
        <ele>54.880000000000003</ele>
        <time>2018-02-19T09:15:50Z</time>
      </trkpt>
      <trkpt lat="51.686192024499178" lon="0.395104978233576">
        <ele>54</ele>
        <time>2018-02-19T09:15:51Z</time>
      </trkpt>
      <trkpt lat="51.686203004792333" lon="0.395133979618549">
        <ele>54</ele>
        <time>2018-02-19T09:15:52Z</time>
      </trkpt>
      <trkpt lat="51.686211973428726" lon="0.395160969346762">
        <ele>54</ele>
        <time>2018-02-19T09:15:53Z</time>
      </trkpt>
      <trkpt lat="51.686223959550261" lon="0.395188964903355">
        <ele>54</ele>
        <time>2018-02-19T09:15:54Z</time>
      </trkpt>
      <trkpt lat="51.686232006177306" lon="0.395216038450599">
        <ele>54</ele>
        <time>2018-02-19T09:15:55Z</time>
      </trkpt>
      <trkpt lat="51.68624198064208" lon="0.395245039835572">
        <ele>54</ele>
        <time>2018-02-19T09:15:56Z</time>
      </trkpt>
      <trkpt lat="51.686250027269125" lon="0.395273035392165">
        <ele>54</ele>
        <time>2018-02-19T09:15:57Z</time>
      </trkpt>
      <trkpt lat="51.68626201339066" lon="0.395302036777139">
        <ele>54</ele>
        <time>2018-02-19T09:15:58Z</time>
      </trkpt>
      <trkpt lat="51.686273999512196" lon="0.395331038162112">
        <ele>54</ele>
        <time>2018-02-19T09:15:59Z</time>
      </trkpt>
      <trkpt lat="51.686281962320209" lon="0.395358027890325">
        <ele>54</ele>
        <time>2018-02-19T09:16:00Z</time>
      </trkpt>
      <trkpt lat="51.686290008947253" lon="0.395384011790156">
        <ele>54</ele>
        <time>2018-02-19T09:16:01Z</time>
      </trkpt>
      <trkpt lat="51.68630400672555" lon="0.39543597958982">
        <ele>54</ele>
        <time>2018-02-19T09:16:03Z</time>
      </trkpt>
      <trkpt lat="51.686313981190324" lon="0.395461041480303">
        <ele>54</ele>
        <time>2018-02-19T09:16:04Z</time>
      </trkpt>
      <trkpt lat="51.686333008110523" lon="0.395503034815192">
        <ele>54</ele>
        <time>2018-02-19T09:16:06Z</time>
      </trkpt>
      <trkpt lat="51.686349017545581" lon="0.395527007058263">
        <ele>54</ele>
        <time>2018-02-19T09:16:08Z</time>
      </trkpt>
      <trkpt lat="51.686359997838736" lon="0.395558020099998">
        <ele>54</ele>
        <time>2018-02-19T09:16:11Z</time>
      </trkpt>
      <trkpt lat="51.68636997230351" lon="0.395581992343068">
        <ele>54</ele>
        <time>2018-02-19T09:16:15Z</time>
      </trkpt>
      <trkpt lat="51.686384975910187" lon="0.395602025091648">
        <ele>54</ele>
        <time>2018-02-19T09:16:24Z</time>
      </trkpt>
      <trkpt lat="51.68639000505209" lon="0.395637983456254">
        <ele>54</ele>
        <time>2018-02-19T09:16:27Z</time>
      </trkpt>
      <trkpt lat="51.686382964253426" lon="0.39567201398313">
        <ele>54</ele>
        <time>2018-02-19T09:16:29Z</time>
      </trkpt>
      <trkpt lat="51.686385981738567" lon="0.395707972347736">
        <ele>54</ele>
        <time>2018-02-19T09:16:31Z</time>
      </trkpt>
      <trkpt lat="51.686386987566948" lon="0.395753988996148">
        <ele>54</ele>
        <time>2018-02-19T09:16:33Z</time>
      </trkpt>
      <trkpt lat="51.686394028365612" lon="0.395789025351405">
        <ele>54</ele>
        <time>2018-02-19T09:16:35Z</time>
      </trkpt>
      <trkpt lat="51.686404002830386" lon="0.395834036171436">
        <ele>54</ele>
        <time>2018-02-19T09:16:37Z</time>
      </trkpt>
      <trkpt lat="51.686420012265444" lon="0.3958860039711">
        <ele>54</ele>
        <time>2018-02-19T09:16:39Z</time>
      </trkpt>
      <trkpt lat="51.686430992558599" lon="0.39593000896275">
        <ele>53.880000000000003</ele>
        <time>2018-02-19T09:16:41Z</time>
      </trkpt>
      <trkpt lat="51.686431998386979" lon="0.395967978984118">
        <ele>53</ele>
        <time>2018-02-19T09:16:43Z</time>
      </trkpt>
      <trkpt lat="51.686440967023373" lon="0.395997986197472">
        <ele>53</ele>
        <time>2018-02-19T09:16:45Z</time>
      </trkpt>
      <trkpt lat="51.68645597063005" lon="0.396039979532361">
        <ele>53</ele>
        <time>2018-02-19T09:16:47Z</time>
      </trkpt>
      <trkpt lat="51.686466028913856" lon="0.396067975088954">
        <ele>53</ele>
        <time>2018-02-19T09:16:48Z</time>
      </trkpt>
      <trkpt lat="51.68647600337863" lon="0.39612203836441">
        <ele>53</ele>
        <time>2018-02-19T09:16:50Z</time>
      </trkpt>
      <trkpt lat="51.686495030298829" lon="0.396173000335693">
        <ele>53</ele>
        <time>2018-02-19T09:16:52Z</time>
      </trkpt>
      <trkpt lat="51.686503998935223" lon="0.396202001720667">
        <ele>53</ele>
        <time>2018-02-19T09:16:53Z</time>
      </trkpt>
      <trkpt lat="51.686517996713519" lon="0.396246006712317">
        <ele>53</ele>
        <time>2018-02-19T09:16:55Z</time>
      </trkpt>
      <trkpt lat="51.686566025018692" lon="0.396366035565734">
        <ele>53</ele>
        <time>2018-02-19T09:16:59Z</time>
      </trkpt>
      <trkpt lat="51.686587985605001" lon="0.396408028900623">
        <ele>53</ele>
        <time>2018-02-19T09:17:01Z</time>
      </trkpt>
      <trkpt lat="51.686596032232046" lon="0.396438036113977">
        <ele>53</ele>
        <time>2018-02-19T09:17:02Z</time>
      </trkpt>
      <trkpt lat="51.686599971726537" lon="0.396482041105628">
        <ele>53</ele>
        <time>2018-02-19T09:17:04Z</time>
      </trkpt>
      <trkpt lat="51.686613969504833" lon="0.396523028612137">
        <ele>53</ele>
        <time>2018-02-19T09:17:06Z</time>
      </trkpt>
      <trkpt lat="51.686623021960258" lon="0.396568961441517">
        <ele>53</ele>
        <time>2018-02-19T09:17:08Z</time>
      </trkpt>
      <trkpt lat="51.686663003638387" lon="0.39670399390161">
        <ele>53</ele>
        <time>2018-02-19T09:17:13Z</time>
      </trkpt>
      <trkpt lat="51.686669960618019" lon="0.396752022206783">
        <ele>53</ele>
        <time>2018-02-19T09:17:15Z</time>
      </trkpt>
      <trkpt lat="51.686675995588303" lon="0.396795021370053">
        <ele>53</ele>
        <time>2018-02-19T09:17:17Z</time>
      </trkpt>
      <trkpt lat="51.686681024730206" lon="0.396827040240169">
        <ele>53</ele>
        <time>2018-02-19T09:17:19Z</time>
      </trkpt>
      <trkpt lat="51.686686975881457" lon="0.396862998604774">
        <ele>53</ele>
        <time>2018-02-19T09:17:21Z</time>
      </trkpt>
      <trkpt lat="51.686697034165263" lon="0.396891999989748">
        <ele>53</ele>
        <time>2018-02-19T09:17:23Z</time>
      </trkpt>
      <trkpt lat="51.68671396560967" lon="0.396913038566709">
        <ele>53</ele>
        <time>2018-02-19T09:17:25Z</time>
      </trkpt>
      <trkpt lat="51.68673399835825" lon="0.396927958354354">
        <ele>53</ele>
        <time>2018-02-19T09:17:27Z</time>
      </trkpt>
      <trkpt lat="51.686761993914843" lon="0.396933993324637">
        <ele>53</ele>
        <time>2018-02-19T09:17:29Z</time>
      </trkpt>
      <trkpt lat="51.686790995299816" lon="0.396947991102934">
        <ele>53</ele>
        <time>2018-02-19T09:17:31Z</time>
      </trkpt>
      <trkpt lat="51.686815973371267" lon="0.39696198888123">
        <ele>53</ele>
        <time>2018-02-19T09:17:33Z</time>
      </trkpt>
      <trkpt lat="51.68684002943337" lon="0.396958971396089">
        <ele>53</ele>
        <time>2018-02-19T09:17:35Z</time>
      </trkpt>
      <trkpt lat="51.686860984191298" lon="0.396972969174385">
        <ele>53</ele>
        <time>2018-02-19T09:17:37Z</time>
      </trkpt>
      <trkpt lat="51.686881016939878" lon="0.396985039114952">
        <ele>53</ele>
        <time>2018-02-19T09:17:39Z</time>
      </trkpt>
      <trkpt lat="51.686913035809994" lon="0.397009011358023">
        <ele>53</ele>
        <time>2018-02-19T09:17:41Z</time>
      </trkpt>
      <trkpt lat="51.686930973082781" lon="0.3970240149647">
        <ele>52.178212049780797</ele>
        <time>2018-02-19T09:17:42Z</time>
      </trkpt>
      <trkpt lat="51.686953017488122" lon="0.397057961672544">
        <ele>52</ele>
        <time>2018-02-19T09:17:44Z</time>
      </trkpt>
      <trkpt lat="51.686960980296135" lon="0.397084029391408">
        <ele>52</ele>
        <time>2018-02-19T09:17:45Z</time>
      </trkpt>
      <trkpt lat="51.686967015266418" lon="0.397116970270872">
        <ele>52</ele>
        <time>2018-02-19T09:17:46Z</time>
      </trkpt>
      <trkpt lat="51.686975983902812" lon="0.397147983312607">
        <ele>52</ele>
        <time>2018-02-19T09:17:47Z</time>
      </trkpt>
      <trkpt lat="51.686977995559573" lon="0.397181008011103">
        <ele>52</ele>
        <time>2018-02-19T09:17:48Z</time>
      </trkpt>
      <trkpt lat="51.686979001387954" lon="0.397215960547328">
        <ele>52</ele>
        <time>2018-02-19T09:17:49Z</time>
      </trkpt>
      <trkpt lat="51.686980007216334" lon="0.397254014387727">
        <ele>52</ele>
        <time>2018-02-19T09:17:50Z</time>
      </trkpt>
      <trkpt lat="51.686979001387954" lon="0.397293996065855">
        <ele>52</ele>
        <time>2018-02-19T09:17:51Z</time>
      </trkpt>
      <trkpt lat="51.686976989731193" lon="0.39732601493597">
        <ele>52</ele>
        <time>2018-02-19T09:17:52Z</time>
      </trkpt>
      <trkpt lat="51.686975983902812" lon="0.397357027977705">
        <ele>52</ele>
        <time>2018-02-19T09:17:53Z</time>
      </trkpt>
      <trkpt lat="51.686979001387954" lon="0.39738804101944">
        <ele>52</ele>
        <time>2018-02-19T09:17:54Z</time>
      </trkpt>
      <trkpt lat="51.686971038579941" lon="0.397418970242143">
        <ele>52</ele>
        <time>2018-02-19T09:17:55Z</time>
      </trkpt>
      <trkpt lat="51.686959974467754" lon="0.397448977455497">
        <ele>52</ele>
        <time>2018-02-19T09:17:56Z</time>
      </trkpt>
      <trkpt lat="51.686956034973264" lon="0.397480996325612">
        <ele>52</ele>
        <time>2018-02-19T09:17:57Z</time>
      </trkpt>
      <trkpt lat="51.686953017488122" lon="0.397512009367347">
        <ele>52</ele>
        <time>2018-02-19T09:17:58Z</time>
      </trkpt>
      <trkpt lat="51.686951005831361" lon="0.397542016580701">
        <ele>52</ele>
        <time>2018-02-19T09:17:59Z</time>
      </trkpt>
      <trkpt lat="51.686954023316503" lon="0.397575041279197">
        <ele>52</ele>
        <time>2018-02-19T09:18:00Z</time>
      </trkpt>
      <trkpt lat="51.686956034973264" lon="0.397610999643803">
        <ele>52</ele>
        <time>2018-02-19T09:18:01Z</time>
      </trkpt>
      <trkpt lat="51.686956034973264" lon="0.397644024342299">
        <ele>52</ele>
        <time>2018-02-19T09:18:02Z</time>
      </trkpt>
      <trkpt lat="51.686958968639374" lon="0.397675959393382">
        <ele>52</ele>
        <time>2018-02-19T09:18:03Z</time>
      </trkpt>
      <trkpt lat="51.686965003609657" lon="0.397707978263497">
        <ele>52</ele>
        <time>2018-02-19T09:18:04Z</time>
      </trkpt>
      <trkpt lat="51.68696902692318" lon="0.397738991305232">
        <ele>52</ele>
        <time>2018-02-19T09:18:05Z</time>
      </trkpt>
      <trkpt lat="51.68697196058929" lon="0.397774027660489">
        <ele>52</ele>
        <time>2018-02-19T09:18:06Z</time>
      </trkpt>
      <trkpt lat="51.68697296641767" lon="0.397809986025095">
        <ele>52</ele>
        <time>2018-02-19T09:18:07Z</time>
      </trkpt>
      <trkpt lat="51.686974978074431" lon="0.397844016551971">
        <ele>52</ele>
        <time>2018-02-19T09:18:08Z</time>
      </trkpt>
      <trkpt lat="51.686977995559573" lon="0.397877041250467">
        <ele>52</ele>
        <time>2018-02-19T09:18:09Z</time>
      </trkpt>
      <trkpt lat="51.686981013044715" lon="0.397910987958312">
        <ele>52</ele>
        <time>2018-02-19T09:18:10Z</time>
      </trkpt>
      <trkpt lat="51.686985036358237" lon="0.397940995171666">
        <ele>52</ele>
        <time>2018-02-19T09:18:11Z</time>
      </trkpt>
      <trkpt lat="51.686988975852728" lon="0.397974019870162">
        <ele>52</ele>
        <time>2018-02-19T09:18:12Z</time>
      </trkpt>
      <trkpt lat="51.686994004994631" lon="0.398006960749626">
        <ele>51.956521739130402</ele>
        <time>2018-02-19T09:18:13Z</time>
      </trkpt>
      <trkpt lat="51.687000039964914" lon="0.398038979619741">
        <ele>51</ele>
        <time>2018-02-19T09:18:14Z</time>
      </trkpt>
      <trkpt lat="51.687002973631024" lon="0.398070998489857">
        <ele>51</ele>
        <time>2018-02-19T09:18:15Z</time>
      </trkpt>
      <trkpt lat="51.687004985287786" lon="0.398105029016733">
        <ele>51</ele>
        <time>2018-02-19T09:18:16Z</time>
      </trkpt>
      <trkpt lat="51.687009008601308" lon="0.398140987381339">
        <ele>51</ele>
        <time>2018-02-19T09:18:17Z</time>
      </trkpt>
      <trkpt lat="51.687014037743211" lon="0.398175017908216">
        <ele>51</ele>
        <time>2018-02-19T09:18:18Z</time>
      </trkpt>
      <trkpt lat="51.687018983066082" lon="0.39820603094995">
        <ele>51</ele>
        <time>2018-02-19T09:18:19Z</time>
      </trkpt>
      <trkpt lat="51.687020994722843" lon="0.398239977657795">
        <ele>51</ele>
        <time>2018-02-19T09:18:20Z</time>
      </trkpt>
      <trkpt lat="51.687025018036366" lon="0.39827199652791">
        <ele>51</ele>
        <time>2018-02-19T09:18:21Z</time>
      </trkpt>
      <trkpt lat="51.68703599832952" lon="0.398305021226406">
        <ele>51</ele>
        <time>2018-02-19T09:18:22Z</time>
      </trkpt>
      <trkpt lat="51.687047984451056" lon="0.398338967934251">
        <ele>51</ele>
        <time>2018-02-19T09:18:23Z</time>
      </trkpt>
      <trkpt lat="51.68705896474421" lon="0.398369980975986">
        <ele>51</ele>
        <time>2018-02-19T09:18:24Z</time>
      </trkpt>
      <trkpt lat="51.687069023028016" lon="0.398403005674481">
        <ele>51</ele>
        <time>2018-02-19T09:18:25Z</time>
      </trkpt>
      <trkpt lat="51.687075980007648" lon="0.398434018716216">
        <ele>51</ele>
        <time>2018-02-19T09:18:26Z</time>
      </trkpt>
      <trkpt lat="51.687086038291454" lon="0.398462014272809">
        <ele>51</ele>
        <time>2018-02-19T09:18:27Z</time>
      </trkpt>
      <trkpt lat="51.687097018584609" lon="0.398491015657783">
        <ele>51</ele>
        <time>2018-02-19T09:18:28Z</time>
      </trkpt>
      <trkpt lat="51.687110010534525" lon="0.398548012599349">
        <ele>51</ele>
        <time>2018-02-19T09:18:30Z</time>
      </trkpt>
      <trkpt lat="51.687116967514157" lon="0.398577013984323">
        <ele>51.112149197310799</ele>
        <time>2018-02-19T09:18:31Z</time>
      </trkpt>
      <trkpt lat="51.687124008312821" lon="0.398608027026057">
        <ele>52</ele>
        <time>2018-02-19T09:18:32Z</time>
      </trkpt>
      <trkpt lat="51.687134988605976" lon="0.398639040067792">
        <ele>52</ele>
        <time>2018-02-19T09:18:33Z</time>
      </trkpt>
      <trkpt lat="51.687145968899131" lon="0.398669969290495">
        <ele>52</ele>
        <time>2018-02-19T09:18:34Z</time>
      </trkpt>
      <trkpt lat="51.687154015526175" lon="0.398698970675468">
        <ele>52</ele>
        <time>2018-02-19T09:18:35Z</time>
      </trkpt>
      <trkpt lat="51.68716398999095" lon="0.398727972060442">
        <ele>52</ele>
        <time>2018-02-19T09:18:36Z</time>
      </trkpt>
      <trkpt lat="51.687174970284104" lon="0.398757979273796">
        <ele>52</ele>
        <time>2018-02-19T09:18:37Z</time>
      </trkpt>
      <trkpt lat="51.687190979719162" lon="0.398788992315531">
        <ele>52</ele>
        <time>2018-02-19T09:18:38Z</time>
      </trkpt>
      <trkpt lat="51.687205983325839" lon="0.398820005357265">
        <ele>52</ele>
        <time>2018-02-19T09:18:39Z</time>
      </trkpt>
      <trkpt lat="51.687216963618994" lon="0.398852024227381">
        <ele>52</ele>
        <time>2018-02-19T09:18:40Z</time>
      </trkpt>
      <trkpt lat="51.6872270219028" lon="0.398883959278464">
        <ele>52</ele>
        <time>2018-02-19T09:18:41Z</time>
      </trkpt>
      <trkpt lat="51.687234984710813" lon="0.398912038654089">
        <ele>51.892857142857103</ele>
        <time>2018-02-19T09:18:42Z</time>
      </trkpt>
      <trkpt lat="51.687246970832348" lon="0.398941040039063">
        <ele>51</ele>
        <time>2018-02-19T09:18:43Z</time>
      </trkpt>
      <trkpt lat="51.687251999974251" lon="0.398971969261765">
        <ele>51</ele>
        <time>2018-02-19T09:18:44Z</time>
      </trkpt>
      <trkpt lat="51.687263986095786" lon="0.399027960374951">
        <ele>51</ele>
        <time>2018-02-19T09:18:46Z</time>
      </trkpt>
      <trkpt lat="51.687272032722831" lon="0.399057967588305">
        <ele>51</ele>
        <time>2018-02-19T09:18:47Z</time>
      </trkpt>
      <trkpt lat="51.687277983874083" lon="0.39908504113555">
        <ele>51</ele>
        <time>2018-02-19T09:18:48Z</time>
      </trkpt>
      <trkpt lat="51.687285024672747" lon="0.399113036692142">
        <ele>51</ele>
        <time>2018-02-19T09:18:49Z</time>
      </trkpt>
      <trkpt lat="51.687290975823998" lon="0.399142038077116">
        <ele>51</ele>
        <time>2018-02-19T09:18:50Z</time>
      </trkpt>
      <trkpt lat="51.687297010794282" lon="0.399171961471438">
        <ele>51</ele>
        <time>2018-02-19T09:18:51Z</time>
      </trkpt>
      <trkpt lat="51.687302039936185" lon="0.399203980341554">
        <ele>51</ele>
        <time>2018-02-19T09:18:52Z</time>
      </trkpt>
      <trkpt lat="51.687311008572578" lon="0.39925703778863">
        <ele>51</ele>
        <time>2018-02-19T09:18:54Z</time>
      </trkpt>
      <trkpt lat="51.68731402605772" lon="0.399287967011333">
        <ele>51</ele>
        <time>2018-02-19T09:18:55Z</time>
      </trkpt>
      <trkpt lat="51.687316037714481" lon="0.399316968396306">
        <ele>51</ele>
        <time>2018-02-19T09:18:56Z</time>
      </trkpt>
      <trkpt lat="51.687317965552211" lon="0.39934596978128">
        <ele>51</ele>
        <time>2018-02-19T09:18:57Z</time>
      </trkpt>
      <trkpt lat="51.687325006350875" lon="0.399380000308156">
        <ele>51</ele>
        <time>2018-02-19T09:18:58Z</time>
      </trkpt>
      <trkpt lat="51.687330035492778" lon="0.39940900169313">
        <ele>51</ele>
        <time>2018-02-19T09:18:59Z</time>
      </trkpt>
      <trkpt lat="51.68733598664403" lon="0.399464992806315">
        <ele>51</ele>
        <time>2018-02-19T09:19:01Z</time>
      </trkpt>
      <trkpt lat="51.687349984422326" lon="0.399508997797966">
        <ele>51</ele>
        <time>2018-02-19T09:19:03Z</time>
      </trkpt>
      <trkpt lat="51.68735702522099" lon="0.399536993354559">
        <ele>51</ele>
        <time>2018-02-19T09:19:20Z</time>
      </trkpt>
      <trkpt lat="51.687340009957552" lon="0.399545961990952">
        <ele>51</ele>
        <time>2018-02-19T09:19:51Z</time>
      </trkpt>
      <trkpt lat="51.687337998300791" lon="0.399574963375926">
        <ele>51</ele>
        <time>2018-02-19T09:20:30Z</time>
      </trkpt>
      <trkpt lat="51.687340009957552" lon="0.399613017216325">
        <ele>51</ele>
        <time>2018-02-19T09:20:32Z</time>
      </trkpt>
      <trkpt lat="51.687345039099455" lon="0.39964403025806">
        <ele>51</ele>
        <time>2018-02-19T09:20:34Z</time>
      </trkpt>
      <trkpt lat="51.687348978593946" lon="0.399679988622665">
        <ele>51</ele>
        <time>2018-02-19T09:20:36Z</time>
      </trkpt>
      <trkpt lat="51.687353001907468" lon="0.399721981957555">
        <ele>51</ele>
        <time>2018-02-19T09:20:38Z</time>
      </trkpt>
      <trkpt lat="51.687347972765565" lon="0.399761041626334">
        <ele>51</ele>
        <time>2018-02-19T09:20:40Z</time>
      </trkpt>
      <trkpt lat="51.687339004129171" lon="0.399788031354547">
        <ele>51</ele>
        <time>2018-02-19T09:20:42Z</time>
      </trkpt>
      <trkpt lat="51.68733699247241" lon="0.399832958355546">
        <ele>51</ele>
        <time>2018-02-19T09:20:45Z</time>
      </trkpt>
      <trkpt lat="51.687337998300791" lon="0.399866988882422">
        <ele>51</ele>
        <time>2018-02-19T09:20:47Z</time>
      </trkpt>
      <trkpt lat="51.687340009957552" lon="0.39990495890379">
        <ele>51</ele>
        <time>2018-02-19T09:20:49Z</time>
      </trkpt>
      <trkpt lat="51.687342021614313" lon="0.399947036057711">
        <ele>51</ele>
        <time>2018-02-19T09:20:51Z</time>
      </trkpt>
      <trkpt lat="51.687343027442694" lon="0.399980982765555">
        <ele>50</ele>
        <time>2018-02-19T09:20:52Z</time>
      </trkpt>
      <trkpt lat="51.687343027442694" lon="0.400021970272064">
        <ele>50.116504492413199</ele>
        <time>2018-02-19T09:20:53Z</time>
      </trkpt>
      <trkpt lat="51.687342021614313" lon="0.400063041597605">
        <ele>51</ele>
        <time>2018-02-19T09:20:54Z</time>
      </trkpt>
      <trkpt lat="51.687345039099455" lon="0.400100005790591">
        <ele>51</ele>
        <time>2018-02-19T09:20:55Z</time>
      </trkpt>
      <trkpt lat="51.687345039099455" lon="0.400138981640339">
        <ele>51</ele>
        <time>2018-02-19T09:20:56Z</time>
      </trkpt>
      <trkpt lat="51.687344033271074" lon="0.400174017995596">
        <ele>51</ele>
        <time>2018-02-19T09:20:57Z</time>
      </trkpt>
      <trkpt lat="51.687345039099455" lon="0.400209976360202">
        <ele>51</ele>
        <time>2018-02-19T09:20:58Z</time>
      </trkpt>
      <trkpt lat="51.687345961108804" lon="0.400244006887078">
        <ele>51</ele>
        <time>2018-02-19T09:20:59Z</time>
      </trkpt>
      <trkpt lat="51.687347972765565" lon="0.400274014100432">
        <ele>51</ele>
        <time>2018-02-19T09:21:00Z</time>
      </trkpt>
      <trkpt lat="51.687348978593946" lon="0.400304021313787">
        <ele>51</ele>
        <time>2018-02-19T09:21:01Z</time>
      </trkpt>
      <trkpt lat="51.687349984422326" lon="0.400335034355521">
        <ele>51</ele>
        <time>2018-02-19T09:21:02Z</time>
      </trkpt>
      <trkpt lat="51.687347972765565" lon="0.400364035740495">
        <ele>51</ele>
        <time>2018-02-19T09:21:03Z</time>
      </trkpt>
      <trkpt lat="51.687347972765565" lon="0.400394964963198">
        <ele>51</ele>
        <time>2018-02-19T09:21:04Z</time>
      </trkpt>
      <trkpt lat="51.687346966937184" lon="0.400427989661694">
        <ele>51</ele>
        <time>2018-02-19T09:21:05Z</time>
      </trkpt>
      <trkpt lat="51.687344033271074" lon="0.400460008531809">
        <ele>51</ele>
        <time>2018-02-19T09:21:06Z</time>
      </trkpt>
      <trkpt lat="51.687344033271074" lon="0.400493033230305">
        <ele>51</ele>
        <time>2018-02-19T09:21:07Z</time>
      </trkpt>
      <trkpt lat="51.687345961108804" lon="0.400523962453008">
        <ele>51</ele>
        <time>2018-02-19T09:21:08Z</time>
      </trkpt>
      <trkpt lat="51.687349984422326" lon="0.400580959394574">
        <ele>51</ele>
        <time>2018-02-19T09:21:10Z</time>
      </trkpt>
      <trkpt lat="51.687350990250707" lon="0.400610966607928">
        <ele>51</ele>
        <time>2018-02-19T09:21:11Z</time>
      </trkpt>
      <trkpt lat="51.687349984422326" lon="0.400642985478044">
        <ele>51</ele>
        <time>2018-02-19T09:21:12Z</time>
      </trkpt>
      <trkpt lat="51.687347972765565" lon="0.400679027661681">
        <ele>51</ele>
        <time>2018-02-19T09:21:13Z</time>
      </trkpt>
      <trkpt lat="51.687348978593946" lon="0.400713980197906">
        <ele>51</ele>
        <time>2018-02-19T09:21:14Z</time>
      </trkpt>
      <trkpt lat="51.687350990250707" lon="0.400749016553164">
        <ele>51</ele>
        <time>2018-02-19T09:21:15Z</time>
      </trkpt>
      <trkpt lat="51.687350990250707" lon="0.400784974917769">
        <ele>51</ele>
        <time>2018-02-19T09:21:16Z</time>
      </trkpt>
      <trkpt lat="51.687350990250707" lon="0.400815987959504">
        <ele>51</ele>
        <time>2018-02-19T09:21:17Z</time>
      </trkpt>
      <trkpt lat="51.687351996079087" lon="0.400845995172858">
        <ele>51</ele>
        <time>2018-02-19T09:21:18Z</time>
      </trkpt>
      <trkpt lat="51.687351996079087" lon="0.400874996557832">
        <ele>51</ele>
        <time>2018-02-19T09:21:19Z</time>
      </trkpt>
      <trkpt lat="51.687351996079087" lon="0.40093501098454">
        <ele>51</ele>
        <time>2018-02-19T09:21:21Z</time>
      </trkpt>
      <trkpt lat="51.687350990250707" lon="0.400964012369514">
        <ele>51</ele>
        <time>2018-02-19T09:21:22Z</time>
      </trkpt>
      <trkpt lat="51.687349984422326" lon="0.401020003482699">
        <ele>51</ele>
        <time>2018-02-19T09:21:24Z</time>
      </trkpt>
      <trkpt lat="51.687345961108804" lon="0.401078006252646">
        <ele>50</ele>
        <time>2018-02-19T09:21:26Z</time>
      </trkpt>
      <trkpt lat="51.687345039099455" lon="0.401109019294381">
        <ele>50</ele>
        <time>2018-02-19T09:21:27Z</time>
      </trkpt>
      <trkpt lat="51.687345039099455" lon="0.401141960173845">
        <ele>50</ele>
        <time>2018-02-19T09:21:28Z</time>
      </trkpt>
      <trkpt lat="51.687344033271074" lon="0.401170961558819">
        <ele>50</ele>
        <time>2018-02-19T09:21:29Z</time>
      </trkpt>
      <trkpt lat="51.687343027442694" lon="0.401202980428934">
        <ele>50</ele>
        <time>2018-02-19T09:21:30Z</time>
      </trkpt>
      <trkpt lat="51.687345039099455" lon="0.40123600512743">
        <ele>50</ele>
        <time>2018-02-19T09:21:31Z</time>
      </trkpt>
      <trkpt lat="51.687345961108804" lon="0.401265006512403">
        <ele>50</ele>
        <time>2018-02-19T09:21:32Z</time>
      </trkpt>
      <trkpt lat="51.687345961108804" lon="0.401297025382519">
        <ele>50</ele>
        <time>2018-02-19T09:21:33Z</time>
      </trkpt>
      <trkpt lat="51.687345961108804" lon="0.401327032595873">
        <ele>50</ele>
        <time>2018-02-19T09:21:34Z</time>
      </trkpt>
      <trkpt lat="51.687348978593946" lon="0.401382017880678">
        <ele>50</ele>
        <time>2018-02-19T09:21:36Z</time>
      </trkpt>
      <trkpt lat="51.687350990250707" lon="0.401412025094032">
        <ele>50</ele>
        <time>2018-02-19T09:21:37Z</time>
      </trkpt>
      <trkpt lat="51.687353001907468" lon="0.401469022035599">
        <ele>50</ele>
        <time>2018-02-19T09:21:39Z</time>
      </trkpt>
      <trkpt lat="51.68735601939261" lon="0.401501040905714">
        <ele>50</ele>
        <time>2018-02-19T09:21:40Z</time>
      </trkpt>
      <trkpt lat="51.68735702522099" lon="0.401558959856629">
        <ele>50</ele>
        <time>2018-02-19T09:21:42Z</time>
      </trkpt>
      <trkpt lat="51.687359036877751" lon="0.401590978726745">
        <ele>50</ele>
        <time>2018-02-19T09:21:43Z</time>
      </trkpt>
      <trkpt lat="51.687360964715481" lon="0.401620985940099">
        <ele>50</ele>
        <time>2018-02-19T09:21:44Z</time>
      </trkpt>
      <trkpt lat="51.687360964715481" lon="0.401653004810214">
        <ele>50</ele>
        <time>2018-02-19T09:21:45Z</time>
      </trkpt>
      <trkpt lat="51.687362976372242" lon="0.401685023680329">
        <ele>50</ele>
        <time>2018-02-19T09:21:46Z</time>
      </trkpt>
      <trkpt lat="51.687364988029003" lon="0.401717964559793">
        <ele>50</ele>
        <time>2018-02-19T09:21:47Z</time>
      </trkpt>
      <trkpt lat="51.687364988029003" lon="0.401753000915051">
        <ele>50</ele>
        <time>2018-02-19T09:21:48Z</time>
      </trkpt>
      <trkpt lat="51.687364988029003" lon="0.401785019785166">
        <ele>50</ele>
        <time>2018-02-19T09:21:49Z</time>
      </trkpt>
      <trkpt lat="51.687366999685764" lon="0.4018160328269">
        <ele>50</ele>
        <time>2018-02-19T09:21:50Z</time>
      </trkpt>
      <trkpt lat="51.687370017170906" lon="0.401846962049603">
        <ele>50</ele>
        <time>2018-02-19T09:21:51Z</time>
      </trkpt>
      <trkpt lat="51.687374962493777" lon="0.40190395899117">
        <ele>50</ele>
        <time>2018-02-19T09:21:53Z</time>
      </trkpt>
      <trkpt lat="51.6873789858073" lon="0.401936983689666">
        <ele>50</ele>
        <time>2018-02-19T09:21:54Z</time>
      </trkpt>
      <trkpt lat="51.68737999163568" lon="0.4019679967314">
        <ele>50</ele>
        <time>2018-02-19T09:21:55Z</time>
      </trkpt>
      <trkpt lat="51.687380997464061" lon="0.402001021429896">
        <ele>50</ele>
        <time>2018-02-19T09:21:56Z</time>
      </trkpt>
      <trkpt lat="51.687383009120822" lon="0.402035973966122">
        <ele>50</ele>
        <time>2018-02-19T09:21:57Z</time>
      </trkpt>
      <trkpt lat="51.687385020777583" lon="0.402089031413198">
        <ele>50</ele>
        <time>2018-02-19T09:21:59Z</time>
      </trkpt>
      <trkpt lat="51.687388960272074" lon="0.402119038626552">
        <ele>50</ele>
        <time>2018-02-19T09:22:00Z</time>
      </trkpt>
      <trkpt lat="51.687390971928835" lon="0.402166983112693">
        <ele>50</ele>
        <time>2018-02-19T09:22:02Z</time>
      </trkpt>
      <trkpt lat="51.687387032434344" lon="0.402197996154428">
        <ele>50</ele>
        <time>2018-02-19T09:22:04Z</time>
      </trkpt>
      <trkpt lat="51.687384014949203" lon="0.402233032509685">
        <ele>50</ele>
        <time>2018-02-19T09:22:08Z</time>
      </trkpt>
      <trkpt lat="51.687374962493777" lon="0.402263961732388">
        <ele>50</ele>
        <time>2018-02-19T09:22:12Z</time>
      </trkpt>
      <trkpt lat="51.687363982200623" lon="0.40228801779449">
        <ele>49</ele>
        <time>2018-02-19T09:22:18Z</time>
      </trkpt>
      <trkpt lat="51.6873599588871" lon="0.402324981987476">
        <ele>49</ele>
        <time>2018-02-19T09:22:22Z</time>
      </trkpt>
      <trkpt lat="51.687342021614313" lon="0.402360018342733">
        <ele>49</ele>
        <time>2018-02-19T09:22:24Z</time>
      </trkpt>
      <trkpt lat="51.687324000522494" lon="0.402402011677623">
        <ele>49</ele>
        <time>2018-02-19T09:22:26Z</time>
      </trkpt>
      <trkpt lat="51.68731402605772" lon="0.402450039982796">
        <ele>49</ele>
        <time>2018-02-19T09:22:28Z</time>
      </trkpt>
      <trkpt lat="51.68731302022934" lon="0.402501001954079">
        <ele>49</ele>
        <time>2018-02-19T09:22:30Z</time>
      </trkpt>
      <trkpt lat="51.687318971380591" lon="0.402530003339052">
        <ele>49</ele>
        <time>2018-02-19T09:22:31Z</time>
      </trkpt>
      <trkpt lat="51.687332969158888" lon="0.402578031644225">
        <ele>48</ele>
        <time>2018-02-19T09:22:33Z</time>
      </trkpt>
      <trkpt lat="51.687343027442694" lon="0.402627987787127">
        <ele>48</ele>
        <time>2018-02-19T09:22:35Z</time>
      </trkpt>
      <trkpt lat="51.687353001907468" lon="0.402677021920681">
        <ele>48</ele>
        <time>2018-02-19T09:22:37Z</time>
      </trkpt>
      <trkpt lat="51.687362976372242" lon="0.402728989720345">
        <ele>48</ele>
        <time>2018-02-19T09:22:39Z</time>
      </trkpt>
      <trkpt lat="51.687372028827667" lon="0.40278104133904">
        <ele>48</ele>
        <time>2018-02-19T09:22:41Z</time>
      </trkpt>
      <trkpt lat="51.68737999163568" lon="0.402833009138703">
        <ele>48</ele>
        <time>2018-02-19T09:22:43Z</time>
      </trkpt>
      <trkpt lat="51.687386026605964" lon="0.402864022180438">
        <ele>48</ele>
        <time>2018-02-19T09:22:44Z</time>
      </trkpt>
      <trkpt lat="51.687390971928835" lon="0.402894029393792">
        <ele>48</ele>
        <time>2018-02-19T09:22:45Z</time>
      </trkpt>
      <trkpt lat="51.687396001070738" lon="0.402929987758398">
        <ele>48</ele>
        <time>2018-02-19T09:22:46Z</time>
      </trkpt>
      <trkpt lat="51.68739901855588" lon="0.402959994971752">
        <ele>48</ele>
        <time>2018-02-19T09:22:47Z</time>
      </trkpt>
      <trkpt lat="51.687404969707131" lon="0.403017997741699">
        <ele>48</ele>
        <time>2018-02-19T09:22:49Z</time>
      </trkpt>
      <trkpt lat="51.687408993020654" lon="0.403049010783434">
        <ele>48</ele>
        <time>2018-02-19T09:22:50Z</time>
      </trkpt>
      <trkpt lat="51.687412010505795" lon="0.403080023825169">
        <ele>48</ele>
        <time>2018-02-19T09:22:51Z</time>
      </trkpt>
      <trkpt lat="51.687412010505795" lon="0.403111036866903">
        <ele>48</ele>
        <time>2018-02-19T09:22:52Z</time>
      </trkpt>
      <trkpt lat="51.687411004677415" lon="0.403140038251877">
        <ele>48</ele>
        <time>2018-02-19T09:22:53Z</time>
      </trkpt>
      <trkpt lat="51.687411004677415" lon="0.403196029365063">
        <ele>48</ele>
        <time>2018-02-19T09:22:55Z</time>
      </trkpt>
      <trkpt lat="51.687411004677415" lon="0.403238022699952">
        <ele>48</ele>
        <time>2018-02-19T09:22:57Z</time>
      </trkpt>
      <trkpt lat="51.687414022162557" lon="0.403266018256545">
        <ele>48</ele>
        <time>2018-02-19T09:22:58Z</time>
      </trkpt>
      <trkpt lat="51.687417039647698" lon="0.40329803712666">
        <ele>48</ele>
        <time>2018-02-19T09:22:59Z</time>
      </trkpt>
      <trkpt lat="51.687428019940853" lon="0.403345981612802">
        <ele>48</ele>
        <time>2018-02-19T09:23:01Z</time>
      </trkpt>
      <trkpt lat="51.687434976920485" lon="0.403371965512633">
        <ele>48</ele>
        <time>2018-02-19T09:23:02Z</time>
      </trkpt>
      <trkpt lat="51.687444029375911" lon="0.403425022959709">
        <ele>48</ele>
        <time>2018-02-19T09:23:04Z</time>
      </trkpt>
      <trkpt lat="51.687454003840685" lon="0.403486965224147">
        <ele>48</ele>
        <time>2018-02-19T09:23:06Z</time>
      </trkpt>
      <trkpt lat="51.687456015497446" lon="0.403543040156364">
        <ele>47.063164418814601</ele>
        <time>2018-02-19T09:23:08Z</time>
      </trkpt>
      <trkpt lat="51.687460038810968" lon="0.403596013784409">
        <ele>47</ele>
        <time>2018-02-19T09:23:10Z</time>
      </trkpt>
      <trkpt lat="51.687463978305459" lon="0.403629038482904">
        <ele>47</ele>
        <time>2018-02-19T09:23:11Z</time>
      </trkpt>
      <trkpt lat="51.68746598996222" lon="0.403661979362369">
        <ele>47</ele>
        <time>2018-02-19T09:23:12Z</time>
      </trkpt>
      <trkpt lat="51.687472024932504" lon="0.403715036809444">
        <ele>47</ele>
        <time>2018-02-19T09:23:14Z</time>
      </trkpt>
      <trkpt lat="51.687477976083755" lon="0.403763987123966">
        <ele>47</ele>
        <time>2018-02-19T09:23:16Z</time>
      </trkpt>
      <trkpt lat="51.687484011054039" lon="0.403791982680559">
        <ele>47</ele>
        <time>2018-02-19T09:23:17Z</time>
      </trkpt>
      <trkpt lat="51.687487028539181" lon="0.403821989893913">
        <ele>47</ele>
        <time>2018-02-19T09:23:18Z</time>
      </trkpt>
      <trkpt lat="51.687489962205291" lon="0.40387898683548">
        <ele>47</ele>
        <time>2018-02-19T09:23:20Z</time>
      </trkpt>
      <trkpt lat="51.687492979690433" lon="0.403908994048834">
        <ele>47</ele>
        <time>2018-02-19T09:23:21Z</time>
      </trkpt>
      <trkpt lat="51.687503959983587" lon="0.403962973505259">
        <ele>47</ele>
        <time>2018-02-19T09:23:23Z</time>
      </trkpt>
      <trkpt lat="51.687506977468729" lon="0.403992980718613">
        <ele>47</ele>
        <time>2018-02-19T09:23:24Z</time>
      </trkpt>
      <trkpt lat="51.687506977468729" lon="0.404048971831799">
        <ele>47</ele>
        <time>2018-02-19T09:23:26Z</time>
      </trkpt>
      <trkpt lat="51.687502032145858" lon="0.40409498848021">
        <ele>47</ele>
        <time>2018-02-19T09:23:28Z</time>
      </trkpt>
      <trkpt lat="51.687516029924154" lon="0.404129019007087">
        <ele>47</ele>
        <time>2018-02-19T09:23:30Z</time>
      </trkpt>
      <trkpt lat="51.687527010217309" lon="0.40415701456368">
        <ele>47</ele>
        <time>2018-02-19T09:23:32Z</time>
      </trkpt>
      <trkpt lat="51.687542013823986" lon="0.40418098680675">
        <ele>47</ele>
        <time>2018-02-19T09:23:34Z</time>
      </trkpt>
      <trkpt lat="51.687553999945521" lon="0.404207976534963">
        <ele>47</ele>
        <time>2018-02-19T09:23:36Z</time>
      </trkpt>
      <trkpt lat="51.687560034915805" lon="0.404236977919936">
        <ele>47</ele>
        <time>2018-02-19T09:23:43Z</time>
      </trkpt>
      <trkpt lat="51.687556011602283" lon="0.404272014275193">
        <ele>48</ele>
        <time>2018-02-19T09:23:56Z</time>
      </trkpt>
      <trkpt lat="51.687564980238676" lon="0.404303027316928">
        <ele>47</ele>
        <time>2018-02-19T09:24:03Z</time>
      </trkpt>
      <trkpt lat="51.687566991895437" lon="0.404333034530282">
        <ele>47</ele>
        <time>2018-02-19T09:24:09Z</time>
      </trkpt>
      <trkpt lat="51.687560034915805" lon="0.404379973188043">
        <ele>47</ele>
        <time>2018-02-19T09:24:11Z</time>
      </trkpt>
      <trkpt lat="51.68755198828876" lon="0.404411992058158">
        <ele>47</ele>
        <time>2018-02-19T09:24:12Z</time>
      </trkpt>
      <trkpt lat="51.687544025480747" lon="0.404441999271512">
        <ele>47</ele>
        <time>2018-02-19T09:24:13Z</time>
      </trkpt>
      <trkpt lat="51.687526004388928" lon="0.404484998434782">
        <ele>47</ele>
        <time>2018-02-19T09:24:15Z</time>
      </trkpt>
      <trkpt lat="51.687489962205291" lon="0.404635034501553">
        <ele>47</ele>
        <time>2018-02-19T09:24:25Z</time>
      </trkpt>
      <trkpt lat="51.687532961368561" lon="0.404831003397703">
        <ele>47</ele>
        <time>2018-02-19T09:24:26Z</time>
      </trkpt>
      <trkpt lat="51.687534973025322" lon="0.40501800365746">
        <ele>47</ele>
        <time>2018-02-19T09:24:28Z</time>
      </trkpt>
      <trkpt lat="51.687532039359212" lon="0.40516896173358">
        <ele>47</ele>
        <time>2018-02-19T09:24:35Z</time>
      </trkpt>
      <trkpt lat="51.68752801604569" lon="0.405205003917217">
        <ele>47</ele>
        <time>2018-02-19T09:24:39Z</time>
      </trkpt>
      <trkpt lat="51.687512006610632" lon="0.405224030837417">
        <ele>47</ele>
        <time>2018-02-19T09:24:42Z</time>
      </trkpt>
      <trkpt lat="51.687506977468729" lon="0.405259989202023">
        <ele>47</ele>
        <time>2018-02-19T09:24:45Z</time>
      </trkpt>
      <trkpt lat="51.687505971640348" lon="0.405294019728899">
        <ele>47</ele>
        <time>2018-02-19T09:24:47Z</time>
      </trkpt>
      <trkpt lat="51.687509994953871" lon="0.405342970043421">
        <ele>47</ele>
        <time>2018-02-19T09:24:49Z</time>
      </trkpt>
      <trkpt lat="51.687518963590264" lon="0.405394015833735">
        <ele>47</ele>
        <time>2018-02-19T09:24:51Z</time>
      </trkpt>
      <trkpt lat="51.687521981075406" lon="0.405431985855103">
        <ele>47</ele>
        <time>2018-02-19T09:24:52Z</time>
      </trkpt>
      <trkpt lat="51.687524998560548" lon="0.405474985018373">
        <ele>47</ele>
        <time>2018-02-19T09:24:53Z</time>
      </trkpt>
      <trkpt lat="51.687520975247025" lon="0.40551396086812">
        <ele>47</ele>
        <time>2018-02-19T09:24:54Z</time>
      </trkpt>
      <trkpt lat="51.68750898912549" lon="0.405552014708519">
        <ele>47</ele>
        <time>2018-02-19T09:24:55Z</time>
      </trkpt>
      <trkpt lat="51.687495997175574" lon="0.405595013871789">
        <ele>47</ele>
        <time>2018-02-19T09:24:56Z</time>
      </trkpt>
      <trkpt lat="51.68748501688242" lon="0.40563901886344">
        <ele>47</ele>
        <time>2018-02-19T09:24:57Z</time>
      </trkpt>
      <trkpt lat="51.687489962205291" lon="0.405671959742904">
        <ele>47</ele>
        <time>2018-02-19T09:24:58Z</time>
      </trkpt>
      <trkpt lat="51.687489040195942" lon="0.405706996098161">
        <ele>47</ele>
        <time>2018-02-19T09:24:59Z</time>
      </trkpt>
      <trkpt lat="51.687483005225658" lon="0.405741026625037">
        <ele>47</ele>
        <time>2018-02-19T09:25:00Z</time>
      </trkpt>
      <trkpt lat="51.687477976083755" lon="0.405775979161263">
        <ele>46.884615384615401</ele>
        <time>2018-02-19T09:25:01Z</time>
      </trkpt>
      <trkpt lat="51.687474958598614" lon="0.405804980546236">
        <ele>46</ele>
        <time>2018-02-19T09:25:02Z</time>
      </trkpt>
      <trkpt lat="51.687469007447362" lon="0.405848985537887">
        <ele>46</ele>
        <time>2018-02-19T09:25:04Z</time>
      </trkpt>
      <trkpt lat="51.687462972477078" lon="0.405910005792975">
        <ele>46</ele>
        <time>2018-02-19T09:25:06Z</time>
      </trkpt>
      <trkpt lat="51.687455009669065" lon="0.405949987471104">
        <ele>46</ele>
        <time>2018-02-19T09:25:07Z</time>
      </trkpt>
      <trkpt lat="51.687446963042021" lon="0.405982006341219">
        <ele>46</ele>
        <time>2018-02-19T09:25:08Z</time>
      </trkpt>
      <trkpt lat="51.68744302354753" lon="0.406013019382954">
        <ele>46.112149197310799</ele>
        <time>2018-02-19T09:25:09Z</time>
      </trkpt>
      <trkpt lat="51.687439000234008" lon="0.406045038253069">
        <ele>47</ele>
        <time>2018-02-19T09:25:10Z</time>
      </trkpt>
      <trkpt lat="51.687437994405627" lon="0.406104968860745">
        <ele>47</ele>
        <time>2018-02-19T09:25:12Z</time>
      </trkpt>
      <trkpt lat="51.687434976920485" lon="0.406142016872764">
        <ele>47</ele>
        <time>2018-02-19T09:25:13Z</time>
      </trkpt>
      <trkpt lat="51.687431959435344" lon="0.406174035742879">
        <ele>47</ele>
        <time>2018-02-19T09:25:14Z</time>
      </trkpt>
      <trkpt lat="51.687428019940853" lon="0.406231032684445">
        <ele>47</ele>
        <time>2018-02-19T09:25:16Z</time>
      </trkpt>
      <trkpt lat="51.687427014112473" lon="0.406288029626012">
        <ele>47</ele>
        <time>2018-02-19T09:25:18Z</time>
      </trkpt>
      <trkpt lat="51.687423996627331" lon="0.406322982162237">
        <ele>46.880000000000003</ele>
        <time>2018-02-19T09:25:19Z</time>
      </trkpt>
      <trkpt lat="51.687416033819318" lon="0.406357012689114">
        <ele>46</ele>
        <time>2018-02-19T09:25:20Z</time>
      </trkpt>
      <trkpt lat="51.687409998849034" lon="0.406394982710481">
        <ele>46</ele>
        <time>2018-02-19T09:25:21Z</time>
      </trkpt>
      <trkpt lat="51.687405975535512" lon="0.406430019065738">
        <ele>46</ele>
        <time>2018-02-19T09:25:22Z</time>
      </trkpt>
      <trkpt lat="51.687402036041021" lon="0.406471006572247">
        <ele>46</ele>
        <time>2018-02-19T09:25:23Z</time>
      </trkpt>
      <trkpt lat="51.687398012727499" lon="0.406505037099123">
        <ele>46</ele>
        <time>2018-02-19T09:25:24Z</time>
      </trkpt>
      <trkpt lat="51.687394995242357" lon="0.406559016555548">
        <ele>46</ele>
        <time>2018-02-19T09:25:26Z</time>
      </trkpt>
      <trkpt lat="51.687394995242357" lon="0.406618025153875">
        <ele>46</ele>
        <time>2018-02-19T09:25:28Z</time>
      </trkpt>
      <trkpt lat="51.687393989413977" lon="0.40664903819561">
        <ele>46</ele>
        <time>2018-02-19T09:25:29Z</time>
      </trkpt>
      <trkpt lat="51.68739901855588" lon="0.40669497102499">
        <ele>46</ele>
        <time>2018-02-19T09:25:31Z</time>
      </trkpt>
      <trkpt lat="51.687393989413977" lon="0.406723972409964">
        <ele>46</ele>
        <time>2018-02-19T09:25:32Z</time>
      </trkpt>
      <trkpt lat="51.687386026605964" lon="0.406759008765221">
        <ele>46</ele>
        <time>2018-02-19T09:25:34Z</time>
      </trkpt>
      <trkpt lat="51.68737999163568" lon="0.406792033463717">
        <ele>46</ele>
        <time>2018-02-19T09:25:37Z</time>
      </trkpt>
      <trkpt lat="51.687374962493777" lon="0.406827991828322">
        <ele>46</ele>
        <time>2018-02-19T09:25:46Z</time>
      </trkpt>
      <trkpt lat="51.687361970543861" lon="0.406850958243012">
        <ele>46</ele>
        <time>2018-02-19T09:25:50Z</time>
      </trkpt>
      <trkpt lat="51.687343027442694" lon="0.406862022355199">
        <ele>46</ele>
        <time>2018-02-19T09:25:58Z</time>
      </trkpt>
      <trkpt lat="51.687326012179255" lon="0.406893035396934">
        <ele>46</ele>
        <time>2018-02-19T09:26:01Z</time>
      </trkpt>
      <trkpt lat="51.687300028279424" lon="0.406923964619637">
        <ele>46</ele>
        <time>2018-02-19T09:26:03Z</time>
      </trkpt>
      <trkpt lat="51.687268009409308" lon="0.406936034560204">
        <ele>46</ele>
        <time>2018-02-19T09:26:05Z</time>
      </trkpt>
      <trkpt lat="51.687233978882432" lon="0.406951038166881">
        <ele>46</ele>
        <time>2018-02-19T09:26:07Z</time>
      </trkpt>
      <trkpt lat="51.687213024124503" lon="0.406964030116796">
        <ele>46</ele>
        <time>2018-02-19T09:26:08Z</time>
      </trkpt>
      <trkpt lat="51.687190979719162" lon="0.406980039551854">
        <ele>46</ele>
        <time>2018-02-19T09:26:09Z</time>
      </trkpt>
      <trkpt lat="51.687158038839698" lon="0.406997976824641">
        <ele>46</ele>
        <time>2018-02-19T09:26:11Z</time>
      </trkpt>
      <trkpt lat="51.687139011919498" lon="0.407009962946177">
        <ele>46</ele>
        <time>2018-02-19T09:26:12Z</time>
      </trkpt>
      <trkpt lat="51.687115039676428" lon="0.407026978209615">
        <ele>46</ele>
        <time>2018-02-19T09:26:14Z</time>
      </trkpt>
      <trkpt lat="51.687096012756228" lon="0.407028989866376">
        <ele>46</ele>
        <time>2018-02-19T09:26:16Z</time>
      </trkpt>
      <trkpt lat="51.68707899749279" lon="0.407041981816292">
        <ele>46</ele>
        <time>2018-02-19T09:26:18Z</time>
      </trkpt>
      <trkpt lat="51.687059970572591" lon="0.407041981816292">
        <ele>46</ele>
        <time>2018-02-19T09:26:20Z</time>
      </trkpt>
      <trkpt lat="51.687039015814662" lon="0.407049022614956">
        <ele>46</ele>
        <time>2018-02-19T09:26:23Z</time>
      </trkpt>
      <trkpt lat="51.687022000551224" lon="0.407060002908111">
        <ele>46</ele>
        <time>2018-02-19T09:26:25Z</time>
      </trkpt>
      <trkpt lat="51.687003979459405" lon="0.407072994858027">
        <ele>46</ele>
        <time>2018-02-19T09:26:27Z</time>
      </trkpt>
      <trkpt lat="51.686976989731193" lon="0.407089004293084">
        <ele>46</ele>
        <time>2018-02-19T09:26:30Z</time>
      </trkpt>
      <trkpt lat="51.686958968639374" lon="0.407097972929478">
        <ele>46</ele>
        <time>2018-02-19T09:26:34Z</time>
      </trkpt>
      <trkpt lat="51.686939019709826" lon="0.407111970707774">
        <ele>46</ele>
        <time>2018-02-19T09:26:37Z</time>
      </trkpt>
      <trkpt lat="51.686923010274768" lon="0.407128985971212">
        <ele>46</ele>
        <time>2018-02-19T09:26:39Z</time>
      </trkpt>
      <trkpt lat="51.686909012496471" lon="0.407161004841328">
        <ele>46</ele>
        <time>2018-02-19T09:26:42Z</time>
      </trkpt>
      <trkpt lat="51.686911024153233" lon="0.407194029539824">
        <ele>46</ele>
        <time>2018-02-19T09:26:44Z</time>
      </trkpt>
      <trkpt lat="51.68692703358829" lon="0.407245997339487">
        <ele>45</ele>
        <time>2018-02-19T09:26:46Z</time>
      </trkpt>
      <trkpt lat="51.68692703358829" lon="0.407281033694744">
        <ele>45</ele>
        <time>2018-02-19T09:26:48Z</time>
      </trkpt>
      <trkpt lat="51.686930973082781" lon="0.407313974574208">
        <ele>45</ele>
        <time>2018-02-19T09:26:50Z</time>
      </trkpt>
      <trkpt lat="51.686942959204316" lon="0.407366026192904">
        <ele>45</ele>
        <time>2018-02-19T09:26:52Z</time>
      </trkpt>
      <trkpt lat="51.686951005831361" lon="0.407399972900748">
        <ele>45</ele>
        <time>2018-02-19T09:26:53Z</time>
      </trkpt>
      <trkpt lat="51.686961986124516" lon="0.407431991770864">
        <ele>45</ele>
        <time>2018-02-19T09:26:54Z</time>
      </trkpt>
      <trkpt lat="51.686976989731193" lon="0.407461998984218">
        <ele>45</ele>
        <time>2018-02-19T09:26:55Z</time>
      </trkpt>
      <trkpt lat="51.68699299916625" lon="0.407491000369191">
        <ele>45</ele>
        <time>2018-02-19T09:26:56Z</time>
      </trkpt>
      <trkpt lat="51.687004985287786" lon="0.407518995925784">
        <ele>45</ele>
        <time>2018-02-19T09:26:57Z</time>
      </trkpt>
      <trkpt lat="51.687017977237701" lon="0.407544979825616">
        <ele>45</ele>
        <time>2018-02-19T09:26:58Z</time>
      </trkpt>
      <trkpt lat="51.687032980844378" lon="0.407571969553828">
        <ele>45</ele>
        <time>2018-02-19T09:26:59Z</time>
      </trkpt>
      <trkpt lat="51.687044966965914" lon="0.407600970938802">
        <ele>45</ele>
        <time>2018-02-19T09:27:00Z</time>
      </trkpt>
      <trkpt lat="51.687057036906481" lon="0.407631983980536">
        <ele>44.911764705882398</ele>
        <time>2018-02-19T09:27:01Z</time>
      </trkpt>
      <trkpt lat="51.687068017199636" lon="0.407664002850652">
        <ele>44.176470588235297</ele>
        <time>2018-02-19T09:27:02Z</time>
      </trkpt>
      <trkpt lat="51.68707899749279" lon="0.407697027549148">
        <ele>44</ele>
        <time>2018-02-19T09:27:03Z</time>
      </trkpt>
      <trkpt lat="51.687089977785945" lon="0.40772401727736">
        <ele>44.1111111111111</ele>
        <time>2018-02-19T09:27:04Z</time>
      </trkpt>
      <trkpt lat="51.68710196390748" lon="0.407751007005572">
        <ele>45</ele>
        <time>2018-02-19T09:27:05Z</time>
      </trkpt>
      <trkpt lat="51.687114033848047" lon="0.407780008390546">
        <ele>45</ele>
        <time>2018-02-19T09:27:06Z</time>
      </trkpt>
      <trkpt lat="51.687119984999299" lon="0.407814038917422">
        <ele>45</ele>
        <time>2018-02-19T09:27:07Z</time>
      </trkpt>
      <trkpt lat="51.687128031626344" lon="0.407847985625267">
        <ele>45</ele>
        <time>2018-02-19T09:27:08Z</time>
      </trkpt>
      <trkpt lat="51.687139011919498" lon="0.407883021980524">
        <ele>45</ele>
        <time>2018-02-19T09:27:09Z</time>
      </trkpt>
      <trkpt lat="51.687148986384273" lon="0.407916968688369">
        <ele>45</ele>
        <time>2018-02-19T09:27:10Z</time>
      </trkpt>
      <trkpt lat="51.687157033011317" lon="0.407948987558484">
        <ele>45</ele>
        <time>2018-02-19T09:27:11Z</time>
      </trkpt>
      <trkpt lat="51.687168013304472" lon="0.407980000600219">
        <ele>45</ele>
        <time>2018-02-19T09:27:12Z</time>
      </trkpt>
      <trkpt lat="51.687178993597627" lon="0.408012019470334">
        <ele>45</ele>
        <time>2018-02-19T09:27:13Z</time>
      </trkpt>
      <trkpt lat="51.687188968062401" lon="0.408045966178179">
        <ele>44.880000000000003</ele>
        <time>2018-02-19T09:27:14Z</time>
      </trkpt>
      <trkpt lat="51.687200032174587" lon="0.408078990876675">
        <ele>44</ele>
        <time>2018-02-19T09:27:15Z</time>
      </trkpt>
      <trkpt lat="51.687203971669078" lon="0.408110003918409">
        <ele>44</ele>
        <time>2018-02-19T09:27:16Z</time>
      </trkpt>
      <trkpt lat="51.68720698915422" lon="0.40815400891006">
        <ele>44</ele>
        <time>2018-02-19T09:27:18Z</time>
      </trkpt>
      <trkpt lat="51.687205983325839" lon="0.408185021951795">
        <ele>44</ele>
        <time>2018-02-19T09:27:19Z</time>
      </trkpt>
      <trkpt lat="51.687205983325839" lon="0.408217962831259">
        <ele>44</ele>
        <time>2018-02-19T09:27:20Z</time>
      </trkpt>
      <trkpt lat="51.687202965840697" lon="0.408251993358135">
        <ele>44</ele>
        <time>2018-02-19T09:27:21Z</time>
      </trkpt>
      <trkpt lat="51.687201960012317" lon="0.408288035541773">
        <ele>44</ele>
        <time>2018-02-19T09:27:22Z</time>
      </trkpt>
      <trkpt lat="51.687201038002968" lon="0.408322988077998">
        <ele>44</ele>
        <time>2018-02-19T09:27:23Z</time>
      </trkpt>
      <trkpt lat="51.687201038002968" lon="0.408359030261636">
        <ele>44</ele>
        <time>2018-02-19T09:27:24Z</time>
      </trkpt>
      <trkpt lat="51.687201960012317" lon="0.408395994454622">
        <ele>44</ele>
        <time>2018-02-19T09:27:25Z</time>
      </trkpt>
      <trkpt lat="51.687200032174587" lon="0.408433964475989">
        <ele>44</ele>
        <time>2018-02-19T09:27:26Z</time>
      </trkpt>
      <trkpt lat="51.687201038002968" lon="0.408466989174485">
        <ele>44</ele>
        <time>2018-02-19T09:27:27Z</time>
      </trkpt>
      <trkpt lat="51.687205983325839" lon="0.408495990559459">
        <ele>44</ele>
        <time>2018-02-19T09:27:28Z</time>
      </trkpt>
      <trkpt lat="51.687219981104136" lon="0.408547958359122">
        <ele>44</ele>
        <time>2018-02-19T09:27:30Z</time>
      </trkpt>
      <trkpt lat="51.687230039387941" lon="0.408576959744096">
        <ele>44</ele>
        <time>2018-02-19T09:27:31Z</time>
      </trkpt>
      <trkpt lat="51.687239008024335" lon="0.408608978614211">
        <ele>44</ele>
        <time>2018-02-19T09:27:32Z</time>
      </trkpt>
      <trkpt lat="51.687254011631012" lon="0.408639991655946">
        <ele>44</ele>
        <time>2018-02-19T09:27:33Z</time>
      </trkpt>
      <trkpt lat="51.687268009409308" lon="0.408668993040919">
        <ele>44</ele>
        <time>2018-02-19T09:27:34Z</time>
      </trkpt>
      <trkpt lat="51.687282007187605" lon="0.408697994425893">
        <ele>44</ele>
        <time>2018-02-19T09:27:35Z</time>
      </trkpt>
      <trkpt lat="51.68729298748076" lon="0.408729007467628">
        <ele>44</ele>
        <time>2018-02-19T09:27:36Z</time>
      </trkpt>
      <trkpt lat="51.687302961945534" lon="0.408761026337743">
        <ele>44</ele>
        <time>2018-02-19T09:27:37Z</time>
      </trkpt>
      <trkpt lat="51.68731402605772" lon="0.408791033551097">
        <ele>44</ele>
        <time>2018-02-19T09:27:38Z</time>
      </trkpt>
      <trkpt lat="51.687324000522494" lon="0.40881902910769">
        <ele>44</ele>
        <time>2018-02-19T09:27:39Z</time>
      </trkpt>
      <trkpt lat="51.68733598664403" lon="0.408844007179141">
        <ele>44</ele>
        <time>2018-02-19T09:27:40Z</time>
      </trkpt>
      <trkpt lat="51.687346966937184" lon="0.408869991078973">
        <ele>44</ele>
        <time>2018-02-19T09:27:41Z</time>
      </trkpt>
      <trkpt lat="51.68735601939261" lon="0.408895974978805">
        <ele>44</ele>
        <time>2018-02-19T09:27:42Z</time>
      </trkpt>
      <trkpt lat="51.687366999685764" lon="0.408925982192159">
        <ele>44</ele>
        <time>2018-02-19T09:27:43Z</time>
      </trkpt>
      <trkpt lat="51.687374040484428" lon="0.408965041860938">
        <ele>44</ele>
        <time>2018-02-19T09:27:44Z</time>
      </trkpt>
      <trkpt lat="51.68737999163568" lon="0.408999994397163">
        <ele>44.114286062586103</ele>
        <time>2018-02-19T09:27:45Z</time>
      </trkpt>
      <trkpt lat="51.687388038262725" lon="0.409027989953756">
        <ele>45</ele>
        <time>2018-02-19T09:27:46Z</time>
      </trkpt>
      <trkpt lat="51.687396001070738" lon="0.409055985510349">
        <ele>45</ele>
        <time>2018-02-19T09:27:47Z</time>
      </trkpt>
      <trkpt lat="51.687407987192273" lon="0.409082975238562">
        <ele>45</ele>
        <time>2018-02-19T09:27:48Z</time>
      </trkpt>
      <trkpt lat="51.687417961657047" lon="0.409112982451916">
        <ele>45</ele>
        <time>2018-02-19T09:27:49Z</time>
      </trkpt>
      <trkpt lat="51.687430031597614" lon="0.409140978008509">
        <ele>45</ele>
        <time>2018-02-19T09:27:50Z</time>
      </trkpt>
      <trkpt lat="51.687439000234008" lon="0.409169979393482">
        <ele>45</ele>
        <time>2018-02-19T09:27:51Z</time>
      </trkpt>
      <trkpt lat="51.687446963042021" lon="0.409201998263597">
        <ele>45</ele>
        <time>2018-02-19T09:27:52Z</time>
      </trkpt>
      <trkpt lat="51.687454003840685" lon="0.40922898799181">
        <ele>45</ele>
        <time>2018-02-19T09:27:53Z</time>
      </trkpt>
      <trkpt lat="51.687460038810968" lon="0.409258995205164">
        <ele>45</ele>
        <time>2018-02-19T09:27:54Z</time>
      </trkpt>
      <trkpt lat="51.687471019104123" lon="0.409286990761757">
        <ele>45</ele>
        <time>2018-02-19T09:27:55Z</time>
      </trkpt>
      <trkpt lat="51.687481999397278" lon="0.40931498631835">
        <ele>45</ele>
        <time>2018-02-19T09:27:56Z</time>
      </trkpt>
      <trkpt lat="51.687489040195942" lon="0.409347005188465">
        <ele>45</ele>
        <time>2018-02-19T09:27:57Z</time>
      </trkpt>
      <trkpt lat="51.687494991347194" lon="0.409382041543722">
        <ele>45.109091543805299</ele>
        <time>2018-02-19T09:27:58Z</time>
      </trkpt>
      <trkpt lat="51.687501026317477" lon="0.409420011565089">
        <ele>46</ele>
        <time>2018-02-19T09:27:59Z</time>
      </trkpt>
      <trkpt lat="51.68750798329711" lon="0.409453958272934">
        <ele>46</ele>
        <time>2018-02-19T09:28:00Z</time>
      </trkpt>
      <trkpt lat="51.687515024095774" lon="0.409488994628191">
        <ele>46</ele>
        <time>2018-02-19T09:28:01Z</time>
      </trkpt>
      <trkpt lat="51.687520975247025" lon="0.409524030983448">
        <ele>46</ele>
        <time>2018-02-19T09:28:02Z</time>
      </trkpt>
      <trkpt lat="51.687531033530831" lon="0.409556971862912">
        <ele>46</ele>
        <time>2018-02-19T09:28:03Z</time>
      </trkpt>
      <trkpt lat="51.687534973025322" lon="0.409589996561408">
        <ele>46</ele>
        <time>2018-02-19T09:28:04Z</time>
      </trkpt>
      <trkpt lat="51.687546037137508" lon="0.409621009603143">
        <ele>46</ele>
        <time>2018-02-19T09:28:05Z</time>
      </trkpt>
      <trkpt lat="51.687555005773902" lon="0.409646993502975">
        <ele>46</ele>
        <time>2018-02-19T09:28:06Z</time>
      </trkpt>
      <trkpt lat="51.687581995502114" lon="0.409689992666245">
        <ele>46</ele>
        <time>2018-02-19T09:28:08Z</time>
      </trkpt>
      <trkpt lat="51.687595993280411" lon="0.409712959080935">
        <ele>45</ele>
        <time>2018-02-19T09:28:09Z</time>
      </trkpt>
      <trkpt lat="51.687604961916804" lon="0.409751012921333">
        <ele>45</ele>
        <time>2018-02-19T09:28:11Z</time>
      </trkpt>
      <trkpt lat="51.687598004937172" lon="0.409780014306307">
        <ele>45</ele>
        <time>2018-02-19T09:28:13Z</time>
      </trkpt>
      <trkpt lat="51.687587024644017" lon="0.4098080098629">
        <ele>45</ele>
        <time>2018-02-19T09:28:15Z</time>
      </trkpt>
      <trkpt lat="51.687573026865721" lon="0.409829970449209">
        <ele>45</ele>
        <time>2018-02-19T09:28:19Z</time>
      </trkpt>
      <trkpt lat="51.687536984682083" lon="0.409827036783099">
        <ele>45</ele>
        <time>2018-02-19T09:28:21Z</time>
      </trkpt>
      <trkpt lat="51.687515024095774" lon="0.409826030954719">
        <ele>45</ele>
        <time>2018-02-19T09:28:22Z</time>
      </trkpt>
      <trkpt lat="51.687493985518813" lon="0.409842962399125">
        <ele>45</ele>
        <time>2018-02-19T09:28:23Z</time>
      </trkpt>
      <trkpt lat="51.687474958598614" lon="0.409870035946369">
        <ele>45</ele>
        <time>2018-02-19T09:28:24Z</time>
      </trkpt>
      <trkpt lat="51.687454003840685" lon="0.409896019846201">
        <ele>45</ele>
        <time>2018-02-19T09:28:25Z</time>
      </trkpt>
      <trkpt lat="51.687430031597614" lon="0.409915968775749">
        <ele>45</ele>
        <time>2018-02-19T09:28:26Z</time>
      </trkpt>
      <trkpt lat="51.687409998849034" lon="0.409934995695949">
        <ele>45</ele>
        <time>2018-02-19T09:28:27Z</time>
      </trkpt>
      <trkpt lat="51.687394995242357" lon="0.409956034272909">
        <ele>45</ele>
        <time>2018-02-19T09:28:28Z</time>
      </trkpt>
      <trkpt lat="51.687373034656048" lon="0.409982018172741">
        <ele>45</ele>
        <time>2018-02-19T09:28:29Z</time>
      </trkpt>
      <trkpt lat="51.687350990250707" lon="0.410008002072573">
        <ele>45</ele>
        <time>2018-02-19T09:28:30Z</time>
      </trkpt>
      <trkpt lat="51.687328023836017" lon="0.410030968487263">
        <ele>45</ele>
        <time>2018-02-19T09:28:31Z</time>
      </trkpt>
      <trkpt lat="51.687308996915817" lon="0.410049995407462">
        <ele>45</ele>
        <time>2018-02-19T09:28:32Z</time>
      </trkpt>
      <trkpt lat="51.68729298748076" lon="0.410072039812803">
        <ele>45</ele>
        <time>2018-02-19T09:28:33Z</time>
      </trkpt>
      <trkpt lat="51.687272032722831" lon="0.410091988742352">
        <ele>45</ele>
        <time>2018-02-19T09:28:34Z</time>
      </trkpt>
      <trkpt lat="51.687253005802631" lon="0.41010900400579">
        <ele>45</ele>
        <time>2018-02-19T09:28:35Z</time>
      </trkpt>
      <trkpt lat="51.68723096139729" lon="0.410125013440847">
        <ele>45</ele>
        <time>2018-02-19T09:28:36Z</time>
      </trkpt>
      <trkpt lat="51.687211012467742" lon="0.410139011219144">
        <ele>45</ele>
        <time>2018-02-19T09:28:37Z</time>
      </trkpt>
      <trkpt lat="51.687191985547543" lon="0.41015200316906">
        <ele>45</ele>
        <time>2018-02-19T09:28:38Z</time>
      </trkpt>
      <trkpt lat="51.687173964455724" lon="0.410171030089259">
        <ele>45</ele>
        <time>2018-02-19T09:28:39Z</time>
      </trkpt>
      <trkpt lat="51.687157033011317" lon="0.410188967362046">
        <ele>45</ele>
        <time>2018-02-19T09:28:40Z</time>
      </trkpt>
      <trkpt lat="51.68714202940464" lon="0.410209000110626">
        <ele>45</ele>
        <time>2018-02-19T09:28:41Z</time>
      </trkpt>
      <trkpt lat="51.687119984999299" lon="0.410228027030826">
        <ele>45</ele>
        <time>2018-02-19T09:28:42Z</time>
      </trkpt>
      <trkpt lat="51.687103975564241" lon="0.410240013152361">
        <ele>45</ele>
        <time>2018-02-19T09:28:43Z</time>
      </trkpt>
      <trkpt lat="51.687087966129184" lon="0.410257028415799">
        <ele>45</ele>
        <time>2018-02-19T09:28:44Z</time>
      </trkpt>
      <trkpt lat="51.687071034684777" lon="0.410269014537334">
        <ele>45</ele>
        <time>2018-02-19T09:28:45Z</time>
      </trkpt>
      <trkpt lat="51.687053013592958" lon="0.41028200648725">
        <ele>45</ele>
        <time>2018-02-19T09:28:46Z</time>
      </trkpt>
      <trkpt lat="51.687032980844378" lon="0.410300027579069">
        <ele>45</ele>
        <time>2018-02-19T09:28:47Z</time>
      </trkpt>
      <trkpt lat="51.687003979459405" lon="0.410329028964043">
        <ele>45</ele>
        <time>2018-02-19T09:28:49Z</time>
      </trkpt>
      <trkpt lat="51.686986964195967" lon="0.41034797206521">
        <ele>45</ele>
        <time>2018-02-19T09:28:50Z</time>
      </trkpt>
      <trkpt lat="51.686971038579941" lon="0.410363981500268">
        <ele>45</ele>
        <time>2018-02-19T09:28:51Z</time>
      </trkpt>
      <trkpt lat="51.686956034973264" lon="0.410382002592087">
        <ele>45</ele>
        <time>2018-02-19T09:28:52Z</time>
      </trkpt>
      <trkpt lat="51.6869299672544" lon="0.410417960956693">
        <ele>45</ele>
        <time>2018-02-19T09:28:54Z</time>
      </trkpt>
      <trkpt lat="51.686914963647723" lon="0.410442017018795">
        <ele>45</ele>
        <time>2018-02-19T09:28:55Z</time>
      </trkpt>
      <trkpt lat="51.686899960041046" lon="0.410464983433485">
        <ele>45</ele>
        <time>2018-02-19T09:28:56Z</time>
      </trkpt>
      <trkpt lat="51.68688696809113" lon="0.410490967333317">
        <ele>45</ele>
        <time>2018-02-19T09:28:57Z</time>
      </trkpt>
      <trkpt lat="51.686877999454737" lon="0.4105160292238">
        <ele>45</ele>
        <time>2018-02-19T09:28:58Z</time>
      </trkpt>
      <trkpt lat="51.68686400167644" lon="0.410553999245167">
        <ele>45</ele>
        <time>2018-02-19T09:29:00Z</time>
      </trkpt>
      <trkpt lat="51.686838017776608" lon="0.410588029772043">
        <ele>45</ele>
        <time>2018-02-19T09:29:02Z</time>
      </trkpt>
      <trkpt lat="51.68682100251317" lon="0.410604039207101">
        <ele>45</ele>
        <time>2018-02-19T09:29:03Z</time>
      </trkpt>
      <trkpt lat="51.686805998906493" lon="0.410623988136649">
        <ele>45</ele>
        <time>2018-02-19T09:29:04Z</time>
      </trkpt>
      <trkpt lat="51.686789989471436" lon="0.410647038370371">
        <ele>45</ele>
        <time>2018-02-19T09:29:05Z</time>
      </trkpt>
      <trkpt lat="51.686767023056746" lon="0.410687020048499">
        <ele>45</ele>
        <time>2018-02-19T09:29:07Z</time>
      </trkpt>
      <trkpt lat="51.686752019450068" lon="0.410705963149667">
        <ele>45</ele>
        <time>2018-02-19T09:29:08Z</time>
      </trkpt>
      <trkpt lat="51.68673500418663" lon="0.410723984241486">
        <ele>45</ele>
        <time>2018-02-19T09:29:09Z</time>
      </trkpt>
      <trkpt lat="51.686717988923192" lon="0.410736976191401">
        <ele>45</ele>
        <time>2018-02-19T09:29:10Z</time>
      </trkpt>
      <trkpt lat="51.686698962002993" lon="0.410751979798079">
        <ele>45</ele>
        <time>2018-02-19T09:29:11Z</time>
      </trkpt>
      <trkpt lat="51.686677001416683" lon="0.410767989233136">
        <ele>45</ele>
        <time>2018-02-19T09:29:12Z</time>
      </trkpt>
      <trkpt lat="51.686646994203329" lon="0.410792967304587">
        <ele>45</ele>
        <time>2018-02-19T09:29:14Z</time>
      </trkpt>
      <trkpt lat="51.686617992818356" lon="0.410813000053167">
        <ele>45</ele>
        <time>2018-02-19T09:29:16Z</time>
      </trkpt>
      <trkpt lat="51.686600977554917" lon="0.410825992003083">
        <ele>45</ele>
        <time>2018-02-19T09:29:17Z</time>
      </trkpt>
      <trkpt lat="51.686573987826705" lon="0.410853987559676">
        <ele>45</ele>
        <time>2018-02-19T09:29:19Z</time>
      </trkpt>
      <trkpt lat="51.686555966734886" lon="0.410867985337973">
        <ele>45</ele>
        <time>2018-02-19T09:29:20Z</time>
      </trkpt>
      <trkpt lat="51.686536017805338" lon="0.410877959802747">
        <ele>45</ele>
        <time>2018-02-19T09:29:21Z</time>
      </trkpt>
      <trkpt lat="51.686515985056758" lon="0.410890029743314">
        <ele>45</ele>
        <time>2018-02-19T09:29:22Z</time>
      </trkpt>
      <trkpt lat="51.68649603612721" lon="0.410907967016101">
        <ele>45</ele>
        <time>2018-02-19T09:29:23Z</time>
      </trkpt>
      <trkpt lat="51.686467034742236" lon="0.410938980057836">
        <ele>45</ele>
        <time>2018-02-19T09:29:25Z</time>
      </trkpt>
      <trkpt lat="51.686452031135559" lon="0.410957001149654">
        <ele>45</ele>
        <time>2018-02-19T09:29:26Z</time>
      </trkpt>
      <trkpt lat="51.686437027528882" lon="0.410973010584712">
        <ele>45</ele>
        <time>2018-02-19T09:29:27Z</time>
      </trkpt>
      <trkpt lat="51.686422023922205" lon="0.410991031676531">
        <ele>45</ele>
        <time>2018-02-19T09:29:28Z</time>
      </trkpt>
      <trkpt lat="51.686394028365612" lon="0.411031013354659">
        <ele>45</ele>
        <time>2018-02-19T09:29:30Z</time>
      </trkpt>
      <trkpt lat="51.686353962868452" lon="0.411097984761">
        <ele>45</ele>
        <time>2018-02-19T09:29:34Z</time>
      </trkpt>
      <trkpt lat="51.686328984797001" lon="0.411134026944637">
        <ele>45</ele>
        <time>2018-02-19T09:29:36Z</time>
      </trkpt>
      <trkpt lat="51.686314987018704" lon="0.411153975874186">
        <ele>45</ele>
        <time>2018-02-19T09:29:37Z</time>
      </trkpt>
      <trkpt lat="51.686298977583647" lon="0.411171996966004">
        <ele>45</ele>
        <time>2018-02-19T09:29:38Z</time>
      </trkpt>
      <trkpt lat="51.686267964541912" lon="0.411200998350978">
        <ele>45</ele>
        <time>2018-02-19T09:29:40Z</time>
      </trkpt>
      <trkpt lat="51.686247009783983" lon="0.411214996129274">
        <ele>45</ele>
        <time>2018-02-19T09:29:41Z</time>
      </trkpt>
      <trkpt lat="51.686222031712532" lon="0.411242991685867">
        <ele>45</ele>
        <time>2018-02-19T09:29:43Z</time>
      </trkpt>
      <trkpt lat="51.686196969822049" lon="0.411274004727602">
        <ele>45</ele>
        <time>2018-02-19T09:29:45Z</time>
      </trkpt>
      <trkpt lat="51.686168974265456" lon="0.411305017769337">
        <ele>45</ele>
        <time>2018-02-19T09:29:47Z</time>
      </trkpt>
      <trkpt lat="51.686152964830399" lon="0.411323960870504">
        <ele>45</ele>
        <time>2018-02-19T09:29:48Z</time>
      </trkpt>
      <trkpt lat="51.686135027557611" lon="0.411342987790704">
        <ele>45</ele>
        <time>2018-02-19T09:29:49Z</time>
      </trkpt>
      <trkpt lat="51.686119018122554" lon="0.411358997225761">
        <ele>45</ele>
        <time>2018-02-19T09:29:50Z</time>
      </trkpt>
      <trkpt lat="51.686100997030735" lon="0.411379029974341">
        <ele>45</ele>
        <time>2018-02-19T09:29:51Z</time>
      </trkpt>
      <trkpt lat="51.686066966503859" lon="0.411410965025425">
        <ele>45</ele>
        <time>2018-02-19T09:29:53Z</time>
      </trkpt>
      <trkpt lat="51.68604701757431" lon="0.411428986117244">
        <ele>45</ele>
        <time>2018-02-19T09:29:54Z</time>
      </trkpt>
      <trkpt lat="51.686024973168969" lon="0.411444995552301">
        <ele>45</ele>
        <time>2018-02-19T09:29:55Z</time>
      </trkpt>
      <trkpt lat="51.68600301258266" lon="0.411464022472501">
        <ele>45</ele>
        <time>2018-02-19T09:29:56Z</time>
      </trkpt>
      <trkpt lat="51.685987003147602" lon="0.411481959745288">
        <ele>45</ele>
        <time>2018-02-19T09:29:57Z</time>
      </trkpt>
      <trkpt lat="51.685969987884164" lon="0.411497969180346">
        <ele>45</ele>
        <time>2018-02-19T09:29:58Z</time>
      </trkpt>
      <trkpt lat="51.685951966792345" lon="0.411511966958642">
        <ele>45</ele>
        <time>2018-02-19T09:29:59Z</time>
      </trkpt>
      <trkpt lat="51.685936041176319" lon="0.4115279763937">
        <ele>45</ele>
        <time>2018-02-19T09:30:00Z</time>
      </trkpt>
      <trkpt lat="51.6859180200845" lon="0.411542980000377">
        <ele>45</ele>
        <time>2018-02-19T09:30:01Z</time>
      </trkpt>
      <trkpt lat="51.685899998992682" lon="0.411561001092196">
        <ele>45</ele>
        <time>2018-02-19T09:30:02Z</time>
      </trkpt>
      <trkpt lat="51.685882983729243" lon="0.411578016355634">
        <ele>45</ele>
        <time>2018-02-19T09:30:03Z</time>
      </trkpt>
      <trkpt lat="51.685864040628076" lon="0.411594025790691">
        <ele>45</ele>
        <time>2018-02-19T09:30:04Z</time>
      </trkpt>
      <trkpt lat="51.685843002051115" lon="0.41161397472024">
        <ele>45</ele>
        <time>2018-02-19T09:30:05Z</time>
      </trkpt>
      <trkpt lat="51.685825986787677" lon="0.411628978326917">
        <ele>45</ele>
        <time>2018-02-19T09:30:06Z</time>
      </trkpt>
      <trkpt lat="51.685807965695858" lon="0.411645993590355">
        <ele>45</ele>
        <time>2018-02-19T09:30:07Z</time>
      </trkpt>
      <trkpt lat="51.68578902259469" lon="0.411663008853793">
        <ele>45</ele>
        <time>2018-02-19T09:30:08Z</time>
      </trkpt>
      <trkpt lat="51.685771001502872" lon="0.41167801246047">
        <ele>45</ele>
        <time>2018-02-19T09:30:09Z</time>
      </trkpt>
      <trkpt lat="51.685739988461137" lon="0.411712964996696">
        <ele>45</ele>
        <time>2018-02-19T09:30:11Z</time>
      </trkpt>
      <trkpt lat="51.685721967369318" lon="0.411726962774992">
        <ele>45</ele>
        <time>2018-02-19T09:30:12Z</time>
      </trkpt>
      <trkpt lat="51.685706963762641" lon="0.411744983866811">
        <ele>45</ele>
        <time>2018-02-19T09:30:13Z</time>
      </trkpt>
      <trkpt lat="51.685674022883177" lon="0.411774991080165">
        <ele>45</ele>
        <time>2018-02-19T09:30:15Z</time>
      </trkpt>
      <trkpt lat="51.685647033154964" lon="0.411791000515223">
        <ele>45</ele>
        <time>2018-02-19T09:30:16Z</time>
      </trkpt>
      <trkpt lat="51.68561602011323" lon="0.411810027435422">
        <ele>45</ele>
        <time>2018-02-19T09:30:18Z</time>
      </trkpt>
      <trkpt lat="51.68553396128118" lon="0.411884961649776">
        <ele>45</ele>
        <time>2018-02-19T09:30:23Z</time>
      </trkpt>
      <trkpt lat="51.685504959896207" lon="0.411913963034749">
        <ele>45</ele>
        <time>2018-02-19T09:30:25Z</time>
      </trkpt>
      <trkpt lat="51.685489034280181" lon="0.411927038803697">
        <ele>45</ele>
        <time>2018-02-19T09:30:26Z</time>
      </trkpt>
      <trkpt lat="51.685465984046459" lon="0.4119579680264">
        <ele>45</ele>
        <time>2018-02-19T09:30:28Z</time>
      </trkpt>
      <trkpt lat="51.685442011803389" lon="0.411988981068134">
        <ele>45</ele>
        <time>2018-02-19T09:30:30Z</time>
      </trkpt>
      <trkpt lat="51.685427008196712" lon="0.412007002159953">
        <ele>45</ele>
        <time>2018-02-19T09:30:31Z</time>
      </trkpt>
      <trkpt lat="51.685399012640119" lon="0.412038015201688">
        <ele>45</ele>
        <time>2018-02-19T09:30:33Z</time>
      </trkpt>
      <trkpt lat="51.6853809915483" lon="0.412056036293507">
        <ele>45</ele>
        <time>2018-02-19T09:30:34Z</time>
      </trkpt>
      <trkpt lat="51.685364982113242" lon="0.412073973566294">
        <ele>45</ele>
        <time>2018-02-19T09:30:35Z</time>
      </trkpt>
      <trkpt lat="51.685348972678185" lon="0.412093000486493">
        <ele>45</ele>
        <time>2018-02-19T09:30:36Z</time>
      </trkpt>
      <trkpt lat="51.685332963243127" lon="0.412113033235073">
        <ele>45</ele>
        <time>2018-02-19T09:30:37Z</time>
      </trkpt>
      <trkpt lat="51.685314020141959" lon="0.412131976336241">
        <ele>45</ele>
        <time>2018-02-19T09:30:38Z</time>
      </trkpt>
      <trkpt lat="51.68529599905014" lon="0.412154020741582">
        <ele>45</ele>
        <time>2018-02-19T09:30:39Z</time>
      </trkpt>
      <trkpt lat="51.685278983786702" lon="0.412172041833401">
        <ele>45</ele>
        <time>2018-02-19T09:30:40Z</time>
      </trkpt>
      <trkpt lat="51.68525199405849" lon="0.412200959399343">
        <ele>45</ele>
        <time>2018-02-19T09:30:42Z</time>
      </trkpt>
      <trkpt lat="51.6852290276438" lon="0.412232978269458">
        <ele>45</ele>
        <time>2018-02-19T09:30:44Z</time>
      </trkpt>
      <trkpt lat="51.685215029865503" lon="0.412254016846418">
        <ele>45</ele>
        <time>2018-02-19T09:30:45Z</time>
      </trkpt>
      <trkpt lat="51.685198014602065" lon="0.412269020453095">
        <ele>45</ele>
        <time>2018-02-19T09:30:46Z</time>
      </trkpt>
      <trkpt lat="51.685182005167007" lon="0.412286035716534">
        <ele>45</ele>
        <time>2018-02-19T09:30:47Z</time>
      </trkpt>
      <trkpt lat="51.685154009610415" lon="0.412320988252759">
        <ele>45</ele>
        <time>2018-02-19T09:30:49Z</time>
      </trkpt>
      <trkpt lat="51.68514403514564" lon="0.41234496049583">
        <ele>45</ele>
        <time>2018-02-19T09:30:50Z</time>
      </trkpt>
      <trkpt lat="51.685127019882202" lon="0.4123879596591">
        <ele>45</ele>
        <time>2018-02-19T09:30:52Z</time>
      </trkpt>
      <trkpt lat="51.685112016275525" lon="0.412405980750918">
        <ele>45</ele>
        <time>2018-02-19T09:30:53Z</time>
      </trkpt>
      <trkpt lat="51.685088966041803" lon="0.41242802515626">
        <ele>45</ele>
        <time>2018-02-19T09:30:55Z</time>
      </trkpt>
      <trkpt lat="51.685064993798733" lon="0.412445040419698">
        <ele>45</ele>
        <time>2018-02-19T09:30:57Z</time>
      </trkpt>
      <trkpt lat="51.685040015727282" lon="0.41247496381402">
        <ele>45</ele>
        <time>2018-02-19T09:30:59Z</time>
      </trkpt>
      <trkpt lat="51.685030041262507" lon="0.412502037361264">
        <ele>45</ele>
        <time>2018-02-19T09:31:01Z</time>
      </trkpt>
      <trkpt lat="51.685023000463843" lon="0.412535984069109">
        <ele>45</ele>
        <time>2018-02-19T09:31:03Z</time>
      </trkpt>
      <trkpt lat="51.685015959665179" lon="0.412564985454082">
        <ele>45</ele>
        <time>2018-02-19T09:31:05Z</time>
      </trkpt>
      <trkpt lat="51.685004979372025" lon="0.412590969353914">
        <ele>45</ele>
        <time>2018-02-19T09:31:07Z</time>
      </trkpt>
      <trkpt lat="51.684996010735631" lon="0.412629023194313">
        <ele>45</ele>
        <time>2018-02-19T09:31:10Z</time>
      </trkpt>
      <trkpt lat="51.684988969936967" lon="0.412657018750906">
        <ele>45</ele>
        <time>2018-02-19T09:31:12Z</time>
      </trkpt>
      <trkpt lat="51.684984024614096" lon="0.412688031792641">
        <ele>45</ele>
        <time>2018-02-19T09:31:14Z</time>
      </trkpt>
      <trkpt lat="51.684981007128954" lon="0.412718039005995">
        <ele>45</ele>
        <time>2018-02-19T09:31:16Z</time>
      </trkpt>
      <trkpt lat="51.68497396633029" lon="0.412747040390968">
        <ele>45</ele>
        <time>2018-02-19T09:31:18Z</time>
      </trkpt>
      <trkpt lat="51.684970026835799" lon="0.412782998755574">
        <ele>45</ele>
        <time>2018-02-19T09:31:20Z</time>
      </trkpt>
      <trkpt lat="51.684958962723613" lon="0.412829015403986">
        <ele>45</ele>
        <time>2018-02-19T09:31:22Z</time>
      </trkpt>
      <trkpt lat="51.684946976602077" lon="0.412879977375269">
        <ele>45</ele>
        <time>2018-02-19T09:31:24Z</time>
      </trkpt>
      <trkpt lat="51.684929961338639" lon="0.412932028993964">
        <ele>45</ele>
        <time>2018-02-19T09:31:26Z</time>
      </trkpt>
      <trkpt lat="51.684921998530626" lon="0.412959018722177">
        <ele>45</ele>
        <time>2018-02-19T09:31:27Z</time>
      </trkpt>
      <trkpt lat="51.684901965782046" lon="0.413011992350221">
        <ele>45</ele>
        <time>2018-02-19T09:31:29Z</time>
      </trkpt>
      <trkpt lat="51.684892997145653" lon="0.413040993735194">
        <ele>45</ele>
        <time>2018-02-19T09:31:30Z</time>
      </trkpt>
      <trkpt lat="51.68488503433764" lon="0.413073012605309">
        <ele>45</ele>
        <time>2018-02-19T09:31:31Z</time>
      </trkpt>
      <trkpt lat="51.684880005195737" lon="0.413103019818664">
        <ele>45</ele>
        <time>2018-02-19T09:31:32Z</time>
      </trkpt>
      <trkpt lat="51.684872964397073" lon="0.413131015375257">
        <ele>45</ele>
        <time>2018-02-19T09:31:33Z</time>
      </trkpt>
      <trkpt lat="51.684862989932299" lon="0.413162028416991">
        <ele>45</ele>
        <time>2018-02-19T09:31:34Z</time>
      </trkpt>
      <trkpt lat="51.684847986325622" lon="0.413197986781597">
        <ele>45</ele>
        <time>2018-02-19T09:31:35Z</time>
      </trkpt>
      <trkpt lat="51.684839017689228" lon="0.413236040621996">
        <ele>45</ele>
        <time>2018-02-19T09:31:36Z</time>
      </trkpt>
      <trkpt lat="51.684829965233803" lon="0.413270993158221">
        <ele>45</ele>
        <time>2018-02-19T09:31:37Z</time>
      </trkpt>
      <trkpt lat="51.68482300825417" lon="0.413308963179588">
        <ele>45</ele>
        <time>2018-02-19T09:31:38Z</time>
      </trkpt>
      <trkpt lat="51.684812027961016" lon="0.413343999534845">
        <ele>45</ele>
        <time>2018-02-19T09:31:39Z</time>
      </trkpt>
      <trkpt lat="51.68480297550559" lon="0.41337501257658">
        <ele>45</ele>
        <time>2018-02-19T09:31:40Z</time>
      </trkpt>
      <trkpt lat="51.684795012697577" lon="0.413405019789934">
        <ele>45</ele>
        <time>2018-02-19T09:31:41Z</time>
      </trkpt>
      <trkpt lat="51.684789983555675" lon="0.413434021174908">
        <ele>45</ele>
        <time>2018-02-19T09:31:42Z</time>
      </trkpt>
      <trkpt lat="51.6847800090909" lon="0.413464028388262">
        <ele>45</ele>
        <time>2018-02-19T09:31:43Z</time>
      </trkpt>
      <trkpt lat="51.684769028797746" lon="0.413494035601616">
        <ele>45</ele>
        <time>2018-02-19T09:31:44Z</time>
      </trkpt>
      <trkpt lat="51.68475603684783" lon="0.413522031158209">
        <ele>45</ele>
        <time>2018-02-19T09:31:45Z</time>
      </trkpt>
      <trkpt lat="51.684743966907263" lon="0.413551032543182">
        <ele>45</ele>
        <time>2018-02-19T09:31:46Z</time>
      </trkpt>
      <trkpt lat="51.68473600409925" lon="0.413579028099775">
        <ele>45</ele>
        <time>2018-02-19T09:31:47Z</time>
      </trkpt>
      <trkpt lat="51.684726029634476" lon="0.413608029484749">
        <ele>45</ele>
        <time>2018-02-19T09:31:48Z</time>
      </trkpt>
      <trkpt lat="51.68471303768456" lon="0.413636025041342">
        <ele>45</ele>
        <time>2018-02-19T09:31:49Z</time>
      </trkpt>
      <trkpt lat="51.684703985229135" lon="0.413664020597935">
        <ele>45</ele>
        <time>2018-02-19T09:31:50Z</time>
      </trkpt>
      <trkpt lat="51.684688981622458" lon="0.413718000054359">
        <ele>45</ele>
        <time>2018-02-19T09:31:52Z</time>
      </trkpt>
      <trkpt lat="51.684680012986064" lon="0.413747001439333">
        <ele>45</ele>
        <time>2018-02-19T09:31:53Z</time>
      </trkpt>
      <trkpt lat="51.684671966359019" lon="0.413772985339165">
        <ele>45</ele>
        <time>2018-02-19T09:31:54Z</time>
      </trkpt>
      <trkpt lat="51.684664003551006" lon="0.413800980895758">
        <ele>45</ele>
        <time>2018-02-19T09:31:55Z</time>
      </trkpt>
      <trkpt lat="51.68465101160109" lon="0.413831993937492">
        <ele>45</ele>
        <time>2018-02-19T09:31:56Z</time>
      </trkpt>
      <trkpt lat="51.684641959145665" lon="0.413859989494085">
        <ele>45</ele>
        <time>2018-02-19T09:31:57Z</time>
      </trkpt>
      <trkpt lat="51.684633996337652" lon="0.413888990879059">
        <ele>45</ele>
        <time>2018-02-19T09:31:58Z</time>
      </trkpt>
      <trkpt lat="51.684624021872878" lon="0.413918998092413">
        <ele>45</ele>
        <time>2018-02-19T09:31:59Z</time>
      </trkpt>
      <trkpt lat="51.684610024094582" lon="0.413974989205599">
        <ele>45</ele>
        <time>2018-02-19T09:32:01Z</time>
      </trkpt>
      <trkpt lat="51.684593008831143" lon="0.414025029167533">
        <ele>45</ele>
        <time>2018-02-19T09:32:03Z</time>
      </trkpt>
      <trkpt lat="51.684581022709608" lon="0.414081020280719">
        <ele>45</ele>
        <time>2018-02-19T09:32:05Z</time>
      </trkpt>
      <trkpt lat="51.68456400744617" lon="0.414131982252002">
        <ele>45</ele>
        <time>2018-02-19T09:32:07Z</time>
      </trkpt>
      <trkpt lat="51.684551015496254" lon="0.414156038314104">
        <ele>45</ele>
        <time>2018-02-19T09:32:08Z</time>
      </trkpt>
      <trkpt lat="51.684540035203099" lon="0.414179004728794">
        <ele>45</ele>
        <time>2018-02-19T09:32:09Z</time>
      </trkpt>
      <trkpt lat="51.68452201411128" lon="0.414228038862348">
        <ele>45</ele>
        <time>2018-02-19T09:32:11Z</time>
      </trkpt>
      <trkpt lat="51.684512039646506" lon="0.414282018318772">
        <ele>45</ele>
        <time>2018-02-19T09:32:13Z</time>
      </trkpt>
      <trkpt lat="51.684507010504603" lon="0.414312025532126">
        <ele>45</ele>
        <time>2018-02-19T09:32:14Z</time>
      </trkpt>
      <trkpt lat="51.684498963877559" lon="0.414342032745481">
        <ele>45</ele>
        <time>2018-02-19T09:32:15Z</time>
      </trkpt>
      <trkpt lat="51.684486977756023" lon="0.414371034130454">
        <ele>45</ele>
        <time>2018-02-19T09:32:16Z</time>
      </trkpt>
      <trkpt lat="51.68447800911963" lon="0.414398023858666">
        <ele>45</ele>
        <time>2018-02-19T09:32:17Z</time>
      </trkpt>
      <trkpt lat="51.684465017169714" lon="0.414429036900401">
        <ele>45</ele>
        <time>2018-02-19T09:32:18Z</time>
      </trkpt>
      <trkpt lat="51.684456970542669" lon="0.414461977779865">
        <ele>45</ele>
        <time>2018-02-19T09:32:19Z</time>
      </trkpt>
      <trkpt lat="51.684448001906276" lon="0.414490979164839">
        <ele>45</ele>
        <time>2018-02-19T09:32:20Z</time>
      </trkpt>
      <trkpt lat="51.684439033269882" lon="0.414545964449644">
        <ele>45</ele>
        <time>2018-02-19T09:32:22Z</time>
      </trkpt>
      <trkpt lat="51.684429980814457" lon="0.414573037996888">
        <ele>45</ele>
        <time>2018-02-19T09:32:23Z</time>
      </trkpt>
      <trkpt lat="51.684421012178063" lon="0.414598016068339">
        <ele>45</ele>
        <time>2018-02-19T09:32:24Z</time>
      </trkpt>
      <trkpt lat="51.684410031884909" lon="0.414627017453313">
        <ele>45</ele>
        <time>2018-02-19T09:32:25Z</time>
      </trkpt>
      <trkpt lat="51.684399973601103" lon="0.414653001353145">
        <ele>45</ele>
        <time>2018-02-19T09:32:26Z</time>
      </trkpt>
      <trkpt lat="51.684391004964709" lon="0.41468502022326">
        <ele>45</ele>
        <time>2018-02-19T09:32:27Z</time>
      </trkpt>
      <trkpt lat="51.684383964166045" lon="0.414714021608233">
        <ele>45</ele>
        <time>2018-02-19T09:32:28Z</time>
      </trkpt>
      <trkpt lat="51.684368038550019" lon="0.414763977751136">
        <ele>45</ele>
        <time>2018-02-19T09:32:30Z</time>
      </trkpt>
      <trkpt lat="51.684356974437833" lon="0.414789039641619">
        <ele>45</ele>
        <time>2018-02-19T09:32:31Z</time>
      </trkpt>
      <trkpt lat="51.684337025508285" lon="0.414833966642618">
        <ele>45</ele>
        <time>2018-02-19T09:32:33Z</time>
      </trkpt>
      <trkpt lat="51.684320010244846" lon="0.414885012432933">
        <ele>45</ele>
        <time>2018-02-19T09:32:35Z</time>
      </trkpt>
      <trkpt lat="51.684309029951692" lon="0.414935974404216">
        <ele>45</ele>
        <time>2018-02-19T09:32:37Z</time>
      </trkpt>
      <trkpt lat="51.684298971667886" lon="0.414962964132428">
        <ele>45</ele>
        <time>2018-02-19T09:32:38Z</time>
      </trkpt>
      <trkpt lat="51.684277011081576" lon="0.415040999650955">
        <ele>45</ele>
        <time>2018-02-19T09:32:41Z</time>
      </trkpt>
      <trkpt lat="51.684224959462881" lon="0.415193969383836">
        <ele>45</ele>
        <time>2018-02-19T09:32:46Z</time>
      </trkpt>
      <trkpt lat="51.684209033846855" lon="0.415237974375486">
        <ele>45</ele>
        <time>2018-02-19T09:32:48Z</time>
      </trkpt>
      <trkpt lat="51.684192018583417" lon="0.415290025994182">
        <ele>45</ele>
        <time>2018-02-19T09:32:50Z</time>
      </trkpt>
      <trkpt lat="51.684180032461882" lon="0.415341993793845">
        <ele>45</ele>
        <time>2018-02-19T09:32:52Z</time>
      </trkpt>
      <trkpt lat="51.684166034683585" lon="0.415393961593509">
        <ele>45</ele>
        <time>2018-02-19T09:32:54Z</time>
      </trkpt>
      <trkpt lat="51.684158993884921" lon="0.415422040969133">
        <ele>45</ele>
        <time>2018-02-19T09:32:55Z</time>
      </trkpt>
      <trkpt lat="51.684148013591766" lon="0.415450958535075">
        <ele>45</ele>
        <time>2018-02-19T09:32:56Z</time>
      </trkpt>
      <trkpt lat="51.684138961136341" lon="0.415479959920049">
        <ele>45</ele>
        <time>2018-02-19T09:32:57Z</time>
      </trkpt>
      <trkpt lat="51.684133009985089" lon="0.415508039295673">
        <ele>45</ele>
        <time>2018-02-19T09:32:58Z</time>
      </trkpt>
      <trkpt lat="51.684112977236509" lon="0.415560007095337">
        <ele>45</ele>
        <time>2018-02-19T09:33:00Z</time>
      </trkpt>
      <trkpt lat="51.684100991114974" lon="0.41560803540051">
        <ele>45</ele>
        <time>2018-02-19T09:33:02Z</time>
      </trkpt>
      <trkpt lat="51.684090010821819" lon="0.41563200764358">
        <ele>45</ele>
        <time>2018-02-19T09:33:03Z</time>
      </trkpt>
      <trkpt lat="51.684080036357045" lon="0.415656985715032">
        <ele>45</ele>
        <time>2018-02-19T09:33:04Z</time>
      </trkpt>
      <trkpt lat="51.684064026921988" lon="0.415707025676966">
        <ele>45</ele>
        <time>2018-02-19T09:33:06Z</time>
      </trkpt>
      <trkpt lat="51.684052962809801" lon="0.415732003748417">
        <ele>45</ele>
        <time>2018-02-19T09:33:07Z</time>
      </trkpt>
      <trkpt lat="51.684037959203124" lon="0.415781959891319">
        <ele>45</ele>
        <time>2018-02-19T09:33:09Z</time>
      </trkpt>
      <trkpt lat="51.684023039415479" lon="0.41582697071135">
        <ele>45</ele>
        <time>2018-02-19T09:33:11Z</time>
      </trkpt>
      <trkpt lat="51.684011975303292" lon="0.415851026773453">
        <ele>45</ele>
        <time>2018-02-19T09:33:12Z</time>
      </trkpt>
      <trkpt lat="51.684000995010138" lon="0.415896959602833">
        <ele>45</ele>
        <time>2018-02-19T09:33:14Z</time>
      </trkpt>
      <trkpt lat="51.683985991403461" lon="0.415943982079625">
        <ele>45</ele>
        <time>2018-02-19T09:33:16Z</time>
      </trkpt>
      <trkpt lat="51.683970987796783" lon="0.415992010384798">
        <ele>45</ele>
        <time>2018-02-19T09:33:18Z</time>
      </trkpt>
      <trkpt lat="51.683960007503629" lon="0.416021011769772">
        <ele>45</ele>
        <time>2018-02-19T09:33:19Z</time>
      </trkpt>
      <trkpt lat="51.683943998068571" lon="0.416070967912674">
        <ele>45</ele>
        <time>2018-02-19T09:33:21Z</time>
      </trkpt>
      <trkpt lat="51.683896975591779" lon="0.416192002594471">
        <ele>45</ele>
        <time>2018-02-19T09:33:26Z</time>
      </trkpt>
      <trkpt lat="51.683883983641863" lon="0.41621396318078">
        <ele>45</ele>
        <time>2018-02-19T09:33:27Z</time>
      </trkpt>
      <trkpt lat="51.683866968378425" lon="0.416248999536037">
        <ele>45</ele>
        <time>2018-02-19T09:33:29Z</time>
      </trkpt>
      <trkpt lat="51.683847019448876" lon="0.416294010356069">
        <ele>45</ele>
        <time>2018-02-19T09:33:31Z</time>
      </trkpt>
      <trkpt lat="51.683839978650212" lon="0.416323011741042">
        <ele>45</ele>
        <time>2018-02-19T09:33:32Z</time>
      </trkpt>
      <trkpt lat="51.683820029720664" lon="0.416367016732693">
        <ele>45</ele>
        <time>2018-02-19T09:33:34Z</time>
      </trkpt>
      <trkpt lat="51.683809971436858" lon="0.416416972875595">
        <ele>45</ele>
        <time>2018-02-19T09:33:36Z</time>
      </trkpt>
      <trkpt lat="51.683793962001801" lon="0.41644899174571">
        <ele>45</ele>
        <time>2018-02-19T09:33:38Z</time>
      </trkpt>
      <trkpt lat="51.683778036385775" lon="0.416470030322671">
        <ele>45</ele>
        <time>2018-02-19T09:33:40Z</time>
      </trkpt>
      <trkpt lat="51.683760015293956" lon="0.416497020050883">
        <ele>45</ele>
        <time>2018-02-19T09:33:42Z</time>
      </trkpt>
      <trkpt lat="51.683744005858898" lon="0.416526021435857">
        <ele>45</ele>
        <time>2018-02-19T09:33:44Z</time>
      </trkpt>
      <trkpt lat="51.68372699059546" lon="0.416547982022166">
        <ele>45</ele>
        <time>2018-02-19T09:33:46Z</time>
      </trkpt>
      <trkpt lat="51.683702012524009" lon="0.416570026427507">
        <ele>45</ele>
        <time>2018-02-19T09:33:48Z</time>
      </trkpt>
      <trkpt lat="51.683676028624177" lon="0.416580000892282">
        <ele>45</ele>
        <time>2018-02-19T09:33:50Z</time>
      </trkpt>
      <trkpt lat="51.683650966733694" lon="0.416581006720662">
        <ele>45</ele>
        <time>2018-02-19T09:33:52Z</time>
      </trkpt>
      <trkpt lat="51.683630011975765" lon="0.416601961478591">
        <ele>45</ele>
        <time>2018-02-19T09:33:58Z</time>
      </trkpt>
      <trkpt lat="51.683611990883946" lon="0.416610008105636">
        <ele>45</ele>
        <time>2018-02-19T09:34:02Z</time>
      </trkpt>
      <trkpt lat="51.683535967022181" lon="0.41711401194334">
        <ele>45</ele>
        <time>2018-02-19T09:34:40Z</time>
      </trkpt>
      <trkpt lat="51.683449968695641" lon="0.4171990044415">
        <ele>45</ele>
        <time>2018-02-19T09:34:41Z</time>
      </trkpt>
      <trkpt lat="51.683350978419185" lon="0.417258013039827">
        <ele>45</ele>
        <time>2018-02-19T09:34:43Z</time>
      </trkpt>
      <trkpt lat="51.68333999812603" lon="0.417189029976726">
        <ele>45</ele>
        <time>2018-02-19T09:34:52Z</time>
      </trkpt>
      <trkpt lat="51.683364976197481" lon="0.417191963642836">
        <ele>45</ele>
        <time>2018-02-19T09:34:55Z</time>
      </trkpt>
      <trkpt lat="51.683361958712339" lon="0.417234962806106">
        <ele>45</ele>
        <time>2018-02-19T09:35:08Z</time>
      </trkpt>
      <trkpt lat="51.683374028652906" lon="0.41726203635335">
        <ele>45</ele>
        <time>2018-02-19T09:35:13Z</time>
      </trkpt>
      <trkpt lat="51.683359025046229" lon="0.41730796918273">
        <ele>45</ele>
        <time>2018-02-19T09:35:21Z</time>
      </trkpt>
      <trkpt lat="51.683349972590804" lon="0.417337976396084">
        <ele>45</ele>
        <time>2018-02-19T09:35:22Z</time>
      </trkpt>
      <trkpt lat="51.68333999812603" lon="0.417362032458186">
        <ele>45</ele>
        <time>2018-02-19T09:35:23Z</time>
      </trkpt>
      <trkpt lat="51.683328012004495" lon="0.417398996651173">
        <ele>45</ele>
        <time>2018-02-19T09:35:25Z</time>
      </trkpt>
      <trkpt lat="51.683314014226198" lon="0.417440989986062">
        <ele>45</ele>
        <time>2018-02-19T09:35:27Z</time>
      </trkpt>
      <trkpt lat="51.683302028104663" lon="0.417464962229133">
        <ele>45</ele>
        <time>2018-02-19T09:35:28Z</time>
      </trkpt>
      <trkpt lat="51.683289958164096" lon="0.417493041604757">
        <ele>45</ele>
        <time>2018-02-19T09:35:29Z</time>
      </trkpt>
      <trkpt lat="51.68327696621418" lon="0.41752296499908">
        <ele>45</ele>
        <time>2018-02-19T09:35:30Z</time>
      </trkpt>
      <trkpt lat="51.683267997577786" lon="0.417551966384053">
        <ele>45</ele>
        <time>2018-02-19T09:35:31Z</time>
      </trkpt>
      <trkpt lat="51.683256011456251" lon="0.417575016617775">
        <ele>45</ele>
        <time>2018-02-19T09:35:32Z</time>
      </trkpt>
      <trkpt lat="51.683242013677955" lon="0.417593037709594">
        <ele>45</ele>
        <time>2018-02-19T09:35:33Z</time>
      </trkpt>
      <trkpt lat="51.683215023949742" lon="0.417626984417439">
        <ele>45</ele>
        <time>2018-02-19T09:35:35Z</time>
      </trkpt>
      <trkpt lat="51.683198008686304" lon="0.417647017166018">
        <ele>45</ele>
        <time>2018-02-19T09:35:36Z</time>
      </trkpt>
      <trkpt lat="51.683184010908008" lon="0.417667971923947">
        <ele>45</ele>
        <time>2018-02-19T09:35:37Z</time>
      </trkpt>
      <trkpt lat="51.683165989816189" lon="0.417690016329288">
        <ele>45</ele>
        <time>2018-02-19T09:35:38Z</time>
      </trkpt>
      <trkpt lat="51.68314796872437" lon="0.417707031592727">
        <ele>45</ele>
        <time>2018-02-19T09:35:39Z</time>
      </trkpt>
      <trkpt lat="51.683123996481299" lon="0.41773796081543">
        <ele>45</ele>
        <time>2018-02-19T09:35:41Z</time>
      </trkpt>
      <trkpt lat="51.683107987046242" lon="0.41775899939239">
        <ele>45</ele>
        <time>2018-02-19T09:35:42Z</time>
      </trkpt>
      <trkpt lat="51.683096000924706" lon="0.4177809599787">
        <ele>45</ele>
        <time>2018-02-19T09:35:43Z</time>
      </trkpt>
      <trkpt lat="51.683086026459932" lon="0.417805016040802">
        <ele>45</ele>
        <time>2018-02-19T09:35:44Z</time>
      </trkpt>
      <trkpt lat="51.683065993711352" lon="0.41784499771893">
        <ele>45</ele>
        <time>2018-02-19T09:35:46Z</time>
      </trkpt>
      <trkpt lat="51.683047972619534" lon="0.417882967740297">
        <ele>45</ele>
        <time>2018-02-19T09:35:48Z</time>
      </trkpt>
      <trkpt lat="51.683027017861605" lon="0.417919009923935">
        <ele>45</ele>
        <time>2018-02-19T09:35:50Z</time>
      </trkpt>
      <trkpt lat="51.683005979284644" lon="0.417961003258824">
        <ele>45</ele>
        <time>2018-02-19T09:35:52Z</time>
      </trkpt>
      <trkpt lat="51.682988964021206" lon="0.418004002422094">
        <ele>45</ele>
        <time>2018-02-19T09:35:54Z</time>
      </trkpt>
      <trkpt lat="51.682970020920038" lon="0.418044989928603">
        <ele>45</ele>
        <time>2018-02-19T09:35:56Z</time>
      </trkpt>
      <trkpt lat="51.682956023141742" lon="0.418081032112241">
        <ele>45</ele>
        <time>2018-02-19T09:35:58Z</time>
      </trkpt>
      <trkpt lat="51.682945964857936" lon="0.418126964941621">
        <ele>45</ele>
        <time>2018-02-19T09:36:00Z</time>
      </trkpt>
      <trkpt lat="51.682926015928388" lon="0.418172981590033">
        <ele>45</ele>
        <time>2018-02-19T09:36:02Z</time>
      </trkpt>
      <trkpt lat="51.682914029806852" lon="0.418196031823754">
        <ele>45</ele>
        <time>2018-02-19T09:36:03Z</time>
      </trkpt>
      <trkpt lat="51.682893997058272" lon="0.418234001845121">
        <ele>45</ele>
        <time>2018-02-19T09:36:05Z</time>
      </trkpt>
      <trkpt lat="51.682873964309692" lon="0.418267026543617">
        <ele>45</ele>
        <time>2018-02-19T09:36:07Z</time>
      </trkpt>
      <trkpt lat="51.682859966531396" lon="0.418296027928591">
        <ele>45</ele>
        <time>2018-02-19T09:36:09Z</time>
      </trkpt>
      <trkpt lat="51.682848986238241" lon="0.418323017656803">
        <ele>45</ele>
        <time>2018-02-19T09:36:11Z</time>
      </trkpt>
      <trkpt lat="51.682839011773467" lon="0.418356964364648">
        <ele>45</ele>
        <time>2018-02-19T09:36:13Z</time>
      </trkpt>
      <trkpt lat="51.682828031480312" lon="0.418401975184679">
        <ele>45</ele>
        <time>2018-02-19T09:36:15Z</time>
      </trkpt>
      <trkpt lat="51.682812022045255" lon="0.41844598017633">
        <ele>45</ele>
        <time>2018-02-19T09:36:17Z</time>
      </trkpt>
      <trkpt lat="51.682800035923719" lon="0.418487973511219">
        <ele>45</ele>
        <time>2018-02-19T09:36:19Z</time>
      </trkpt>
      <trkpt lat="51.682786960154772" lon="0.41853298433125">
        <ele>45</ele>
        <time>2018-02-19T09:36:21Z</time>
      </trkpt>
      <trkpt lat="51.682772040367126" lon="0.418565003201365">
        <ele>45</ele>
        <time>2018-02-19T09:36:23Z</time>
      </trkpt>
      <trkpt lat="51.682753013446927" lon="0.418600039556623">
        <ele>45</ele>
        <time>2018-02-19T09:36:25Z</time>
      </trkpt>
      <trkpt lat="51.68273800984025" lon="0.418633986264467">
        <ele>45</ele>
        <time>2018-02-19T09:36:27Z</time>
      </trkpt>
      <trkpt lat="51.682718982920051" lon="0.418669022619724">
        <ele>45</ele>
        <time>2018-02-19T09:36:29Z</time>
      </trkpt>
      <trkpt lat="51.682700039818883" lon="0.41870397515595">
        <ele>45</ele>
        <time>2018-02-19T09:36:31Z</time>
      </trkpt>
      <trkpt lat="51.682683024555445" lon="0.418740017339587">
        <ele>45</ele>
        <time>2018-02-19T09:36:33Z</time>
      </trkpt>
      <trkpt lat="51.682668020948768" lon="0.418778993189335">
        <ele>45</ele>
        <time>2018-02-19T09:36:35Z</time>
      </trkpt>
      <trkpt lat="51.682654023170471" lon="0.418816041201353">
        <ele>45</ele>
        <time>2018-02-19T09:36:37Z</time>
      </trkpt>
      <trkpt lat="51.682640025392175" lon="0.418856022879481">
        <ele>45</ele>
        <time>2018-02-19T09:36:39Z</time>
      </trkpt>
      <trkpt lat="51.682625021785498" lon="0.418901033699512">
        <ele>45</ele>
        <time>2018-02-19T09:36:41Z</time>
      </trkpt>
      <trkpt lat="51.682605994865298" lon="0.418945960700512">
        <ele>45</ele>
        <time>2018-02-19T09:36:43Z</time>
      </trkpt>
      <trkpt lat="51.682595014572144" lon="0.418970016762614">
        <ele>45</ele>
        <time>2018-02-19T09:36:44Z</time>
      </trkpt>
      <trkpt lat="51.682584034278989" lon="0.418992983177304">
        <ele>45</ele>
        <time>2018-02-19T09:36:45Z</time>
      </trkpt>
      <trkpt lat="51.682567019015551" lon="0.419031037017703">
        <ele>45</ele>
        <time>2018-02-19T09:36:47Z</time>
      </trkpt>
      <trkpt lat="51.682548997923732" lon="0.419077975675464">
        <ele>45</ele>
        <time>2018-02-19T09:36:49Z</time>
      </trkpt>
      <trkpt lat="51.682538017630577" lon="0.419104965403676">
        <ele>45</ele>
        <time>2018-02-19T09:36:50Z</time>
      </trkpt>
      <trkpt lat="51.682525025680661" lon="0.41913203895092">
        <ele>45</ele>
        <time>2018-02-19T09:36:51Z</time>
      </trkpt>
      <trkpt lat="51.682513039559126" lon="0.419156011193991">
        <ele>45</ele>
        <time>2018-02-19T09:36:52Z</time>
      </trkpt>
      <trkpt lat="51.682499963790178" lon="0.419183000922203">
        <ele>45</ele>
        <time>2018-02-19T09:36:53Z</time>
      </trkpt>
      <trkpt lat="51.682488983497024" lon="0.419206973165274">
        <ele>45</ele>
        <time>2018-02-19T09:36:54Z</time>
      </trkpt>
      <trkpt lat="51.68248001486063" lon="0.419233962893486">
        <ele>45</ele>
        <time>2018-02-19T09:36:55Z</time>
      </trkpt>
      <trkpt lat="51.682470040395856" lon="0.41926397010684">
        <ele>45</ele>
        <time>2018-02-19T09:36:56Z</time>
      </trkpt>
      <trkpt lat="51.682460987940431" lon="0.419292971491814">
        <ele>45</ele>
        <time>2018-02-19T09:36:57Z</time>
      </trkpt>
      <trkpt lat="51.682450007647276" lon="0.419322978705168">
        <ele>45</ele>
        <time>2018-02-19T09:36:58Z</time>
      </trkpt>
      <trkpt lat="51.682438021525741" lon="0.419350974261761">
        <ele>45</ele>
        <time>2018-02-19T09:36:59Z</time>
      </trkpt>
      <trkpt lat="51.682427963241935" lon="0.419380981475115">
        <ele>45</ele>
        <time>2018-02-19T09:37:00Z</time>
      </trkpt>
      <trkpt lat="51.682417988777161" lon="0.419408977031708">
        <ele>45</ele>
        <time>2018-02-19T09:37:01Z</time>
      </trkpt>
      <trkpt lat="51.682407008484006" lon="0.419436972588301">
        <ele>45</ele>
        <time>2018-02-19T09:37:02Z</time>
      </trkpt>
      <trkpt lat="51.682397034019232" lon="0.419462034478784">
        <ele>45</ele>
        <time>2018-02-19T09:37:03Z</time>
      </trkpt>
      <trkpt lat="51.682378007099032" lon="0.419509978964925">
        <ele>45</ele>
        <time>2018-02-19T09:37:05Z</time>
      </trkpt>
      <trkpt lat="51.682359986007214" lon="0.419561024755239">
        <ele>45</ele>
        <time>2018-02-19T09:37:07Z</time>
      </trkpt>
      <trkpt lat="51.682347999885678" lon="0.419587008655071">
        <ele>45</ele>
        <time>2018-02-19T09:37:08Z</time>
      </trkpt>
      <trkpt lat="51.682339031249285" lon="0.419611986726522">
        <ele>45</ele>
        <time>2018-02-19T09:37:09Z</time>
      </trkpt>
      <trkpt lat="51.682328972965479" lon="0.419642999768257">
        <ele>45</ele>
        <time>2018-02-19T09:37:10Z</time>
      </trkpt>
      <trkpt lat="51.682320004329085" lon="0.419675018638372">
        <ele>45</ele>
        <time>2018-02-19T09:37:11Z</time>
      </trkpt>
      <trkpt lat="51.682310029864311" lon="0.419701002538204">
        <ele>45</ele>
        <time>2018-02-19T09:37:12Z</time>
      </trkpt>
      <trkpt lat="51.682298965752125" lon="0.419726986438036">
        <ele>45</ele>
        <time>2018-02-19T09:37:13Z</time>
      </trkpt>
      <trkpt lat="51.682281028479338" lon="0.419775014743209">
        <ele>45</ele>
        <time>2018-02-19T09:37:15Z</time>
      </trkpt>
      <trkpt lat="51.682262001559138" lon="0.419821031391621">
        <ele>45</ele>
        <time>2018-02-19T09:37:17Z</time>
      </trkpt>
      <trkpt lat="51.682246997952461" lon="0.419869981706142">
        <ele>45</ele>
        <time>2018-02-19T09:37:19Z</time>
      </trkpt>
      <trkpt lat="51.682229982689023" lon="0.419917004182935">
        <ele>45</ele>
        <time>2018-02-19T09:37:21Z</time>
      </trkpt>
      <trkpt lat="51.682211961597204" lon="0.419964026659727">
        <ele>45</ele>
        <time>2018-02-19T09:37:23Z</time>
      </trkpt>
      <trkpt lat="51.682196035981178" lon="0.420015994459391">
        <ele>45</ele>
        <time>2018-02-19T09:37:25Z</time>
      </trkpt>
      <trkpt lat="51.682188995182514" lon="0.420044995844364">
        <ele>45</ele>
        <time>2018-02-19T09:37:26Z</time>
      </trkpt>
      <trkpt lat="51.682172985747457" lon="0.420099981129169">
        <ele>45</ele>
        <time>2018-02-19T09:37:28Z</time>
      </trkpt>
      <trkpt lat="51.682164017111063" lon="0.420128982514143">
        <ele>45</ele>
        <time>2018-02-19T09:37:29Z</time>
      </trkpt>
      <trkpt lat="51.682154964655638" lon="0.420154966413975">
        <ele>45</ele>
        <time>2018-02-19T09:37:30Z</time>
      </trkpt>
      <trkpt lat="51.682137027382851" lon="0.420206012204289">
        <ele>45</ele>
        <time>2018-02-19T09:37:32Z</time>
      </trkpt>
      <trkpt lat="51.682129986584187" lon="0.420234007760882">
        <ele>45</ele>
        <time>2018-02-19T09:37:33Z</time>
      </trkpt>
      <trkpt lat="51.682121017947793" lon="0.420264014974236">
        <ele>45</ele>
        <time>2018-02-19T09:37:34Z</time>
      </trkpt>
      <trkpt lat="51.682105008512735" lon="0.420314976945519">
        <ele>45</ele>
        <time>2018-02-19T09:37:36Z</time>
      </trkpt>
      <trkpt lat="51.682087993249297" lon="0.420361999422312">
        <ele>45</ele>
        <time>2018-02-19T09:37:38Z</time>
      </trkpt>
      <trkpt lat="51.68207198381424" lon="0.420412961393595">
        <ele>45</ele>
        <time>2018-02-19T09:37:40Z</time>
      </trkpt>
      <trkpt lat="51.682054968550801" lon="0.420461995527148">
        <ele>45</ele>
        <time>2018-02-19T09:37:42Z</time>
      </trkpt>
      <trkpt lat="51.682043988257647" lon="0.420492002740502">
        <ele>45</ele>
        <time>2018-02-19T09:37:43Z</time>
      </trkpt>
      <trkpt lat="51.682034013792872" lon="0.420517986640334">
        <ele>45</ele>
        <time>2018-02-19T09:37:44Z</time>
      </trkpt>
      <trkpt lat="51.682022027671337" lon="0.420544976368546">
        <ele>45</ele>
        <time>2018-02-19T09:37:45Z</time>
      </trkpt>
      <trkpt lat="51.682010963559151" lon="0.420569032430649">
        <ele>45</ele>
        <time>2018-02-19T09:37:46Z</time>
      </trkpt>
      <trkpt lat="51.681999983265996" lon="0.420593004673719">
        <ele>45</ele>
        <time>2018-02-19T09:37:47Z</time>
      </trkpt>
      <trkpt lat="51.681989002972841" lon="0.420624017715454">
        <ele>45</ele>
        <time>2018-02-19T09:37:48Z</time>
      </trkpt>
      <trkpt lat="51.681977016851306" lon="0.420652013272047">
        <ele>45</ele>
        <time>2018-02-19T09:37:49Z</time>
      </trkpt>
      <trkpt lat="51.6819669585675" lon="0.420677997171879">
        <ele>45</ele>
        <time>2018-02-19T09:37:50Z</time>
      </trkpt>
      <trkpt lat="51.681955978274345" lon="0.420703981071711">
        <ele>45</ele>
        <time>2018-02-19T09:37:51Z</time>
      </trkpt>
      <trkpt lat="51.681934017688036" lon="0.420749997720122">
        <ele>45</ele>
        <time>2018-02-19T09:37:53Z</time>
      </trkpt>
      <trkpt lat="51.681922031566501" lon="0.420776987448335">
        <ele>45</ele>
        <time>2018-02-19T09:37:54Z</time>
      </trkpt>
      <trkpt lat="51.681909961625934" lon="0.420800959691405">
        <ele>45</ele>
        <time>2018-02-19T09:37:55Z</time>
      </trkpt>
      <trkpt lat="51.681886995211244" lon="0.420840019360185">
        <ele>45</ele>
        <time>2018-02-19T09:37:57Z</time>
      </trkpt>
      <trkpt lat="51.681875009089708" lon="0.420861979946494">
        <ele>45</ele>
        <time>2018-02-19T09:37:58Z</time>
      </trkpt>
      <trkpt lat="51.681849025189877" lon="0.420905984938145">
        <ele>44.881187742377001</ele>
        <time>2018-02-19T09:38:00Z</time>
      </trkpt>
      <trkpt lat="51.681837039068341" lon="0.420927023515105">
        <ele>44</ele>
        <time>2018-02-19T09:38:01Z</time>
      </trkpt>
      <trkpt lat="51.681812983006239" lon="0.420963987708092">
        <ele>44</ele>
        <time>2018-02-19T09:38:03Z</time>
      </trkpt>
      <trkpt lat="51.681790016591549" lon="0.421002963557839">
        <ele>44</ele>
        <time>2018-02-19T09:38:05Z</time>
      </trkpt>
      <trkpt lat="51.681777024641633" lon="0.4210240021348">
        <ele>44</ele>
        <time>2018-02-19T09:38:06Z</time>
      </trkpt>
      <trkpt lat="51.681756991893053" lon="0.421061972156167">
        <ele>44</ele>
        <time>2018-02-19T09:38:08Z</time>
      </trkpt>
      <trkpt lat="51.681734025478363" lon="0.421102959662676">
        <ele>44</ele>
        <time>2018-02-19T09:38:10Z</time>
      </trkpt>
      <trkpt lat="51.68170896358788" lon="0.421139001846313">
        <ele>44</ele>
        <time>2018-02-19T09:38:12Z</time>
      </trkpt>
      <trkpt lat="51.681693037971854" lon="0.421156017109752">
        <ele>44</ele>
        <time>2018-02-19T09:38:13Z</time>
      </trkpt>
      <trkpt lat="51.681678034365177" lon="0.421174038201571">
        <ele>44</ele>
        <time>2018-02-19T09:38:14Z</time>
      </trkpt>
      <trkpt lat="51.681661019101739" lon="0.421192981302738">
        <ele>44</ele>
        <time>2018-02-19T09:38:15Z</time>
      </trkpt>
      <trkpt lat="51.681645009666681" lon="0.421213014051318">
        <ele>44</ele>
        <time>2018-02-19T09:38:16Z</time>
      </trkpt>
      <trkpt lat="51.681630006060004" lon="0.421232040971518">
        <ele>44</ele>
        <time>2018-02-19T09:38:17Z</time>
      </trkpt>
      <trkpt lat="51.681612990796566" lon="0.421249978244305">
        <ele>44</ele>
        <time>2018-02-19T09:38:18Z</time>
      </trkpt>
      <trkpt lat="51.681593963876367" lon="0.421262970194221">
        <ele>44</ele>
        <time>2018-02-19T09:38:19Z</time>
      </trkpt>
      <trkpt lat="51.681562028825283" lon="0.421290965750813">
        <ele>44</ele>
        <time>2018-02-19T09:38:21Z</time>
      </trkpt>
      <trkpt lat="51.681544007733464" lon="0.421303035691381">
        <ele>44</ele>
        <time>2018-02-19T09:38:22Z</time>
      </trkpt>
      <trkpt lat="51.681527998298407" lon="0.421318961307406">
        <ele>44</ele>
        <time>2018-02-19T09:38:23Z</time>
      </trkpt>
      <trkpt lat="51.681497991085052" lon="0.421348968520761">
        <ele>44</ele>
        <time>2018-02-19T09:38:25Z</time>
      </trkpt>
      <trkpt lat="51.681464966386557" lon="0.421377969905734">
        <ele>44</ele>
        <time>2018-02-19T09:38:27Z</time>
      </trkpt>
      <trkpt lat="51.68144702911377" lon="0.421391967684031">
        <ele>44</ele>
        <time>2018-02-19T09:38:28Z</time>
      </trkpt>
      <trkpt lat="51.681429008021951" lon="0.42141099460423">
        <ele>44</ele>
        <time>2018-02-19T09:38:29Z</time>
      </trkpt>
      <trkpt lat="51.681412998586893" lon="0.421427004039288">
        <ele>44</ele>
        <time>2018-02-19T09:38:30Z</time>
      </trkpt>
      <trkpt lat="51.681395983323455" lon="0.421441001817584">
        <ele>44</ele>
        <time>2018-02-19T09:38:31Z</time>
      </trkpt>
      <trkpt lat="51.681377962231636" lon="0.421454999595881">
        <ele>44</ele>
        <time>2018-02-19T09:38:32Z</time>
      </trkpt>
      <trkpt lat="51.681359019130468" lon="0.421470003202558">
        <ele>44</ele>
        <time>2018-02-19T09:38:33Z</time>
      </trkpt>
      <trkpt lat="51.681344015523791" lon="0.421484000980854">
        <ele>44</ele>
        <time>2018-02-19T09:38:34Z</time>
      </trkpt>
      <trkpt lat="51.681327000260353" lon="0.421501016244292">
        <ele>44</ele>
        <time>2018-02-19T09:38:35Z</time>
      </trkpt>
      <trkpt lat="51.681311996653676" lon="0.421519037336111">
        <ele>44</ele>
        <time>2018-02-19T09:38:36Z</time>
      </trkpt>
      <trkpt lat="51.681282995268703" lon="0.421557007357478">
        <ele>44</ele>
        <time>2018-02-19T09:38:38Z</time>
      </trkpt>
      <trkpt lat="51.681260028854012" lon="0.421597994863987">
        <ele>44</ele>
        <time>2018-02-19T09:38:40Z</time>
      </trkpt>
      <trkpt lat="51.681249970570207" lon="0.42162599042058">
        <ele>44</ele>
        <time>2018-02-19T09:38:41Z</time>
      </trkpt>
      <trkpt lat="51.681236978620291" lon="0.421677958220243">
        <ele>44</ele>
        <time>2018-02-19T09:38:43Z</time>
      </trkpt>
      <trkpt lat="51.68123203329742" lon="0.421706959605217">
        <ele>44</ele>
        <time>2018-02-19T09:38:44Z</time>
      </trkpt>
      <trkpt lat="51.681227004155517" lon="0.421763034537435">
        <ele>44</ele>
        <time>2018-02-19T09:38:46Z</time>
      </trkpt>
      <trkpt lat="51.681220969185233" lon="0.421816008165479">
        <ele>44</ele>
        <time>2018-02-19T09:38:48Z</time>
      </trkpt>
      <trkpt lat="51.681220969185233" lon="0.421865964308381">
        <ele>44</ele>
        <time>2018-02-19T09:38:50Z</time>
      </trkpt>
      <trkpt lat="51.681218035519123" lon="0.421894965693355">
        <ele>44</ele>
        <time>2018-02-19T09:38:51Z</time>
      </trkpt>
      <trkpt lat="51.681205965578556" lon="0.421949028968811">
        <ele>44</ele>
        <time>2018-02-19T09:38:53Z</time>
      </trkpt>
      <trkpt lat="51.681199008598924" lon="0.421979036182165">
        <ele>44</ele>
        <time>2018-02-19T09:38:54Z</time>
      </trkpt>
      <trkpt lat="51.681187022477388" lon="0.422023963183165">
        <ele>44</ele>
        <time>2018-02-19T09:38:56Z</time>
      </trkpt>
      <trkpt lat="51.681173024699092" lon="0.42205598205328">
        <ele>44</ele>
        <time>2018-02-19T09:38:58Z</time>
      </trkpt>
      <trkpt lat="51.681161038577557" lon="0.422091018408537">
        <ele>44</ele>
        <time>2018-02-19T09:39:07Z</time>
      </trkpt>
      <trkpt lat="51.68114603497088" lon="0.42211901396513">
        <ele>44</ele>
        <time>2018-02-19T09:39:09Z</time>
      </trkpt>
      <trkpt lat="51.681129019707441" lon="0.422147009521723">
        <ele>44</ele>
        <time>2018-02-19T09:39:11Z</time>
      </trkpt>
      <trkpt lat="51.681110998615623" lon="0.422166036441922">
        <ele>44</ele>
        <time>2018-02-19T09:39:13Z</time>
      </trkpt>
      <trkpt lat="51.681097000837326" lon="0.42218497954309">
        <ele>44</ele>
        <time>2018-02-19T09:39:15Z</time>
      </trkpt>
      <trkpt lat="51.681071016937494" lon="0.422208029776812">
        <ele>44</ele>
        <time>2018-02-19T09:39:18Z</time>
      </trkpt>
      <trkpt lat="51.681054001674056" lon="0.422221021726727">
        <ele>44</ele>
        <time>2018-02-19T09:39:20Z</time>
      </trkpt>
      <trkpt lat="51.681037992238998" lon="0.422243988141418">
        <ele>44</ele>
        <time>2018-02-19T09:39:22Z</time>
      </trkpt>
      <trkpt lat="51.681016031652689" lon="0.422262009233236">
        <ele>44</ele>
        <time>2018-02-19T09:39:24Z</time>
      </trkpt>
      <trkpt lat="51.681000022217631" lon="0.422280030325055">
        <ele>44</ele>
        <time>2018-02-19T09:39:26Z</time>
      </trkpt>
      <trkpt lat="51.680992981418967" lon="0.4223139770329">
        <ele>44</ele>
        <time>2018-02-19T09:39:30Z</time>
      </trkpt>
      <trkpt lat="51.681000022217631" lon="0.422347001731396">
        <ele>44</ele>
        <time>2018-02-19T09:39:32Z</time>
      </trkpt>
      <trkpt lat="51.681013014167547" lon="0.422371979802847">
        <ele>44</ele>
        <time>2018-02-19T09:39:34Z</time>
      </trkpt>
      <trkpt lat="51.681027011945844" lon="0.422402992844582">
        <ele>44</ele>
        <time>2018-02-19T09:39:37Z</time>
      </trkpt>
      <trkpt lat="51.68104000389576" lon="0.422425037249923">
        <ele>44</ele>
        <time>2018-02-19T09:39:39Z</time>
      </trkpt>
      <trkpt lat="51.681056013330817" lon="0.422446997836232">
        <ele>43</ele>
        <time>2018-02-19T09:39:41Z</time>
      </trkpt>
      <trkpt lat="51.681071016937494" lon="0.422468958422542">
        <ele>43</ele>
        <time>2018-02-19T09:39:43Z</time>
      </trkpt>
      <trkpt lat="51.681090965867043" lon="0.422488991171122">
        <ele>43</ele>
        <time>2018-02-19T09:39:45Z</time>
      </trkpt>
      <trkpt lat="51.681110998615623" lon="0.422500977292657">
        <ele>43</ele>
        <time>2018-02-19T09:39:47Z</time>
      </trkpt>
      <trkpt lat="51.681140000000596" lon="0.42252897284925">
        <ele>43</ele>
        <time>2018-02-19T09:39:49Z</time>
      </trkpt>
      <trkpt lat="51.681155003607273" lon="0.422546993941069">
        <ele>43</ele>
        <time>2018-02-19T09:39:50Z</time>
      </trkpt>
      <trkpt lat="51.68117000721395" lon="0.422565015032887">
        <ele>43</ele>
        <time>2018-02-19T09:39:51Z</time>
      </trkpt>
      <trkpt lat="51.681185010820627" lon="0.422584963962436">
        <ele>43</ele>
        <time>2018-02-19T09:39:52Z</time>
      </trkpt>
      <trkpt lat="51.68121300637722" lon="0.422618994489312">
        <ele>43</ele>
        <time>2018-02-19T09:39:54Z</time>
      </trkpt>
      <trkpt lat="51.681229015812278" lon="0.422640033066273">
        <ele>43</ele>
        <time>2018-02-19T09:39:55Z</time>
      </trkpt>
      <trkpt lat="51.681245025247335" lon="0.422660987824202">
        <ele>43</ele>
        <time>2018-02-19T09:39:56Z</time>
      </trkpt>
      <trkpt lat="51.681262962520123" lon="0.422683032229543">
        <ele>43</ele>
        <time>2018-02-19T09:39:57Z</time>
      </trkpt>
      <trkpt lat="51.681280983611941" lon="0.422707004472613">
        <ele>43</ele>
        <time>2018-02-19T09:39:58Z</time>
      </trkpt>
      <trkpt lat="51.681294981390238" lon="0.422727037221193">
        <ele>43</ele>
        <time>2018-02-19T09:39:59Z</time>
      </trkpt>
      <trkpt lat="51.681322976946831" lon="0.42276400141418">
        <ele>43</ele>
        <time>2018-02-19T09:40:01Z</time>
      </trkpt>
      <trkpt lat="51.681336974725127" lon="0.422785962000489">
        <ele>43</ele>
        <time>2018-02-19T09:40:02Z</time>
      </trkpt>
      <trkpt lat="51.681349966675043" lon="0.42280800640583">
        <ele>43</ele>
        <time>2018-02-19T09:40:03Z</time>
      </trkpt>
      <trkpt lat="51.681360024958849" lon="0.422832984477282">
        <ele>43</ele>
        <time>2018-02-19T09:40:04Z</time>
      </trkpt>
      <trkpt lat="51.681377962231636" lon="0.422882018610835">
        <ele>43</ele>
        <time>2018-02-19T09:40:06Z</time>
      </trkpt>
      <trkpt lat="51.681388020515442" lon="0.422910014167428">
        <ele>43</ele>
        <time>2018-02-19T09:40:07Z</time>
      </trkpt>
      <trkpt lat="51.6814040299505" lon="0.42295997031033">
        <ele>43</ele>
        <time>2018-02-19T09:40:09Z</time>
      </trkpt>
      <trkpt lat="51.681411992758512" lon="0.422988971695304">
        <ele>43</ele>
        <time>2018-02-19T09:40:10Z</time>
      </trkpt>
      <trkpt lat="51.681420039385557" lon="0.423015961423516">
        <ele>43</ele>
        <time>2018-02-19T09:40:11Z</time>
      </trkpt>
      <trkpt lat="51.681441999971867" lon="0.42306499555707">
        <ele>43</ele>
        <time>2018-02-19T09:40:13Z</time>
      </trkpt>
      <trkpt lat="51.681453986093402" lon="0.423095002770424">
        <ele>43</ele>
        <time>2018-02-19T09:40:14Z</time>
      </trkpt>
      <trkpt lat="51.681460021063685" lon="0.423124004155397">
        <ele>43</ele>
        <time>2018-02-19T09:40:15Z</time>
      </trkpt>
      <trkpt lat="51.681464966386557" lon="0.423156023025513">
        <ele>43</ele>
        <time>2018-02-19T09:40:16Z</time>
      </trkpt>
      <trkpt lat="51.68147100135684" lon="0.423187036067247">
        <ele>43</ele>
        <time>2018-02-19T09:40:17Z</time>
      </trkpt>
      <trkpt lat="51.681475024670362" lon="0.423216037452221">
        <ele>43</ele>
        <time>2018-02-19T09:40:18Z</time>
      </trkpt>
      <trkpt lat="51.681480975821614" lon="0.423245038837194">
        <ele>43</ele>
        <time>2018-02-19T09:40:19Z</time>
      </trkpt>
      <trkpt lat="51.681489022448659" lon="0.423296000808477">
        <ele>43</ele>
        <time>2018-02-19T09:40:21Z</time>
      </trkpt>
      <trkpt lat="51.681498996913433" lon="0.423337994143367">
        <ele>43</ele>
        <time>2018-02-19T09:40:23Z</time>
      </trkpt>
      <trkpt lat="51.68151400052011" lon="0.423379987478256">
        <ele>43</ele>
        <time>2018-02-19T09:40:25Z</time>
      </trkpt>
      <trkpt lat="51.681537972763181" lon="0.423423992469907">
        <ele>43</ele>
        <time>2018-02-19T09:40:27Z</time>
      </trkpt>
      <trkpt lat="51.681564962491393" lon="0.423469003289938">
        <ele>43</ele>
        <time>2018-02-19T09:40:29Z</time>
      </trkpt>
      <trkpt lat="51.68157602660358" lon="0.423492975533009">
        <ele>43</ele>
        <time>2018-02-19T09:40:30Z</time>
      </trkpt>
      <trkpt lat="51.681587006896734" lon="0.423517031595111">
        <ele>43</ele>
        <time>2018-02-19T09:40:31Z</time>
      </trkpt>
      <trkpt lat="51.68159899301827" lon="0.423543015494943">
        <ele>43</ele>
        <time>2018-02-19T09:40:32Z</time>
      </trkpt>
      <trkpt lat="51.681609973311424" lon="0.423571011051536">
        <ele>43</ele>
        <time>2018-02-19T09:40:33Z</time>
      </trkpt>
      <trkpt lat="51.68162003159523" lon="0.423594983294606">
        <ele>43</ele>
        <time>2018-02-19T09:40:34Z</time>
      </trkpt>
      <trkpt lat="51.681629000231624" lon="0.423620967194438">
        <ele>43</ele>
        <time>2018-02-19T09:40:35Z</time>
      </trkpt>
      <trkpt lat="51.681637968868017" lon="0.423651980236173">
        <ele>43</ele>
        <time>2018-02-19T09:40:36Z</time>
      </trkpt>
      <trkpt lat="51.681647021323442" lon="0.423679975792766">
        <ele>43</ele>
        <time>2018-02-19T09:40:37Z</time>
      </trkpt>
      <trkpt lat="51.681656995788217" lon="0.423711994662881">
        <ele>43</ele>
        <time>2018-02-19T09:40:38Z</time>
      </trkpt>
      <trkpt lat="51.681664036586881" lon="0.423743007704616">
        <ele>43</ele>
        <time>2018-02-19T09:40:39Z</time>
      </trkpt>
      <trkpt lat="51.681671999394894" lon="0.423797992989421">
        <ele>43</ele>
        <time>2018-02-19T09:40:41Z</time>
      </trkpt>
      <trkpt lat="51.681679962202907" lon="0.423847027122974">
        <ele>43</ele>
        <time>2018-02-19T09:40:43Z</time>
      </trkpt>
      <trkpt lat="51.68168599717319" lon="0.423906035721302">
        <ele>43</ele>
        <time>2018-02-19T09:40:45Z</time>
      </trkpt>
      <trkpt lat="51.681690020486712" lon="0.423935037106276">
        <ele>43</ele>
        <time>2018-02-19T09:40:46Z</time>
      </trkpt>
      <trkpt lat="51.681696977466345" lon="0.4239890165627">
        <ele>43</ele>
        <time>2018-02-19T09:40:48Z</time>
      </trkpt>
      <trkpt lat="51.68170602992177" lon="0.424036961048841">
        <ele>43</ele>
        <time>2018-02-19T09:40:50Z</time>
      </trkpt>
      <trkpt lat="51.681720027700067" lon="0.424079960212111">
        <ele>43</ele>
        <time>2018-02-19T09:40:52Z</time>
      </trkpt>
      <trkpt lat="51.681741988286376" lon="0.42411700822413">
        <ele>43</ele>
        <time>2018-02-19T09:40:54Z</time>
      </trkpt>
      <trkpt lat="51.681764032691717" lon="0.424147015437484">
        <ele>43</ele>
        <time>2018-02-19T09:40:56Z</time>
      </trkpt>
      <trkpt lat="51.681790016591549" lon="0.424170987680554">
        <ele>43</ele>
        <time>2018-02-19T09:40:58Z</time>
      </trkpt>
      <trkpt lat="51.681820023804903" lon="0.424193032085896">
        <ele>43</ele>
        <time>2018-02-19T09:41:00Z</time>
      </trkpt>
      <trkpt lat="51.681839972734451" lon="0.42422597296536">
        <ele>43</ele>
        <time>2018-02-19T09:41:02Z</time>
      </trkpt>
      <trkpt lat="51.681854976341128" lon="0.424249023199081">
        <ele>43</ele>
        <time>2018-02-19T09:41:15Z</time>
      </trkpt>
      <trkpt lat="51.681876014918089" lon="0.424283975735307">
        <ele>43</ele>
        <time>2018-02-19T09:41:18Z</time>
      </trkpt>
      <trkpt lat="51.681893030181527" lon="0.42430903762579">
        <ele>42.8867931363433</ele>
        <time>2018-02-19T09:41:20Z</time>
      </trkpt>
      <trkpt lat="51.681910967454314" lon="0.424346001818776">
        <ele>42</ele>
        <time>2018-02-19T09:41:22Z</time>
      </trkpt>
      <trkpt lat="51.681938041001558" lon="0.42437600903213">
        <ele>42</ele>
        <time>2018-02-19T09:41:24Z</time>
      </trkpt>
      <trkpt lat="51.681966036558151" lon="0.424405010417104">
        <ele>42</ele>
        <time>2018-02-19T09:41:26Z</time>
      </trkpt>
      <trkpt lat="51.681980034336448" lon="0.424422025680542">
        <ele>42</ele>
        <time>2018-02-19T09:41:27Z</time>
      </trkpt>
      <trkpt lat="51.68200702406466" lon="0.424447003751993">
        <ele>42</ele>
        <time>2018-02-19T09:41:29Z</time>
      </trkpt>
      <trkpt lat="51.682025967165828" lon="0.424453960731626">
        <ele>42</ele>
        <time>2018-02-19T09:41:30Z</time>
      </trkpt>
      <trkpt lat="51.682043988257647" lon="0.424463013187051">
        <ele>42</ele>
        <time>2018-02-19T09:41:31Z</time>
      </trkpt>
      <trkpt lat="51.682059997692704" lon="0.424476005136967">
        <ele>42</ele>
        <time>2018-02-19T09:41:32Z</time>
      </trkpt>
      <trkpt lat="51.682079024612904" lon="0.424496037885547">
        <ele>42</ele>
        <time>2018-02-19T09:41:33Z</time>
      </trkpt>
      <trkpt lat="51.682097967714071" lon="0.424519004300237">
        <ele>42</ele>
        <time>2018-02-19T09:41:34Z</time>
      </trkpt>
      <trkpt lat="51.682114982977509" lon="0.42454800568521">
        <ele>42</ele>
        <time>2018-02-19T09:41:35Z</time>
      </trkpt>
      <trkpt lat="51.682130992412567" lon="0.424582036212087">
        <ele>42</ele>
        <time>2018-02-19T09:41:36Z</time>
      </trkpt>
      <trkpt lat="51.682140966877341" lon="0.424615982919931">
        <ele>42</ele>
        <time>2018-02-19T09:41:37Z</time>
      </trkpt>
      <trkpt lat="51.682149013504386" lon="0.424654958769679">
        <ele>42</ele>
        <time>2018-02-19T09:41:38Z</time>
      </trkpt>
      <trkpt lat="51.682154964655638" lon="0.424695024266839">
        <ele>42</ele>
        <time>2018-02-19T09:41:39Z</time>
      </trkpt>
      <trkpt lat="51.682160999625921" lon="0.424734000116587">
        <ele>42</ele>
        <time>2018-02-19T09:41:40Z</time>
      </trkpt>
      <trkpt lat="51.682162005454302" lon="0.424770964309573">
        <ele>42</ele>
        <time>2018-02-19T09:41:41Z</time>
      </trkpt>
      <trkpt lat="51.682165022939444" lon="0.424810023978353">
        <ele>42</ele>
        <time>2018-02-19T09:41:42Z</time>
      </trkpt>
      <trkpt lat="51.682165022939444" lon="0.424845982342958">
        <ele>42</ele>
        <time>2018-02-19T09:41:43Z</time>
      </trkpt>
      <trkpt lat="51.682160999625921" lon="0.424879007041454">
        <ele>42</ele>
        <time>2018-02-19T09:41:44Z</time>
      </trkpt>
      <trkpt lat="51.68215898796916" lon="0.424913037568331">
        <ele>42</ele>
        <time>2018-02-19T09:41:45Z</time>
      </trkpt>
      <trkpt lat="51.682153958827257" lon="0.424945978447795">
        <ele>42</ele>
        <time>2018-02-19T09:41:46Z</time>
      </trkpt>
      <trkpt lat="51.682150019332767" lon="0.42497799731791">
        <ele>42</ele>
        <time>2018-02-19T09:41:47Z</time>
      </trkpt>
      <trkpt lat="51.682144990190864" lon="0.425013033673167">
        <ele>42</ele>
        <time>2018-02-19T09:41:48Z</time>
      </trkpt>
      <trkpt lat="51.682141972705722" lon="0.425044968724251">
        <ele>42</ele>
        <time>2018-02-19T09:41:49Z</time>
      </trkpt>
      <trkpt lat="51.682137027382851" lon="0.425077993422747">
        <ele>42</ele>
        <time>2018-02-19T09:41:50Z</time>
      </trkpt>
      <trkpt lat="51.682133004069328" lon="0.425112023949623">
        <ele>42</ele>
        <time>2018-02-19T09:41:51Z</time>
      </trkpt>
      <trkpt lat="51.682129986584187" lon="0.425144964829087">
        <ele>42</ele>
        <time>2018-02-19T09:41:52Z</time>
      </trkpt>
      <trkpt lat="51.682125041261315" lon="0.425176983699203">
        <ele>42</ele>
        <time>2018-02-19T09:41:53Z</time>
      </trkpt>
      <trkpt lat="51.682120012119412" lon="0.425205985084176">
        <ele>42</ele>
        <time>2018-02-19T09:41:54Z</time>
      </trkpt>
      <trkpt lat="51.68211598880589" lon="0.425236998125911">
        <ele>42</ele>
        <time>2018-02-19T09:41:55Z</time>
      </trkpt>
      <trkpt lat="51.682110959663987" lon="0.425267005339265">
        <ele>42</ele>
        <time>2018-02-19T09:41:56Z</time>
      </trkpt>
      <trkpt lat="51.682105008512735" lon="0.425295000895858">
        <ele>42</ele>
        <time>2018-02-19T09:41:57Z</time>
      </trkpt>
      <trkpt lat="51.682099979370832" lon="0.425322996452451">
        <ele>42</ele>
        <time>2018-02-19T09:41:58Z</time>
      </trkpt>
      <trkpt lat="51.682094028219581" lon="0.425351997837424">
        <ele>42</ele>
        <time>2018-02-19T09:41:59Z</time>
      </trkpt>
      <trkpt lat="51.682087993249297" lon="0.425380999222398">
        <ele>42</ele>
        <time>2018-02-19T09:42:00Z</time>
      </trkpt>
      <trkpt lat="51.682081958279014" lon="0.425412012264133">
        <ele>42</ele>
        <time>2018-02-19T09:42:01Z</time>
      </trkpt>
      <trkpt lat="51.682078018784523" lon="0.425442019477487">
        <ele>42</ele>
        <time>2018-02-19T09:42:02Z</time>
      </trkpt>
      <trkpt lat="51.682075001299381" lon="0.425474038347602">
        <ele>42</ele>
        <time>2018-02-19T09:42:03Z</time>
      </trkpt>
      <trkpt lat="51.682075001299381" lon="0.425506979227066">
        <ele>42</ele>
        <time>2018-02-19T09:42:04Z</time>
      </trkpt>
      <trkpt lat="51.682073995471001" lon="0.425543021410704">
        <ele>42</ele>
        <time>2018-02-19T09:42:05Z</time>
      </trkpt>
      <trkpt lat="51.682070977985859" lon="0.425577973946929">
        <ele>42</ele>
        <time>2018-02-19T09:42:06Z</time>
      </trkpt>
      <trkpt lat="51.682067960500717" lon="0.425613010302186">
        <ele>42</ele>
        <time>2018-02-19T09:42:07Z</time>
      </trkpt>
      <trkpt lat="51.682064021006227" lon="0.425647040829062">
        <ele>42</ele>
        <time>2018-02-19T09:42:08Z</time>
      </trkpt>
      <trkpt lat="51.682061003521085" lon="0.425680987536907">
        <ele>42</ele>
        <time>2018-02-19T09:42:09Z</time>
      </trkpt>
      <trkpt lat="51.682059997692704" lon="0.425719041377306">
        <ele>42</ele>
        <time>2018-02-19T09:42:10Z</time>
      </trkpt>
      <trkpt lat="51.682058991864324" lon="0.425756005570292">
        <ele>42</ele>
        <time>2018-02-19T09:42:11Z</time>
      </trkpt>
      <trkpt lat="51.682061003521085" lon="0.425790036097169">
        <ele>42</ele>
        <time>2018-02-19T09:42:12Z</time>
      </trkpt>
      <trkpt lat="51.682065026834607" lon="0.425824988633394">
        <ele>42</ele>
        <time>2018-02-19T09:42:13Z</time>
      </trkpt>
      <trkpt lat="51.682068966329098" lon="0.42585700750351">
        <ele>42</ele>
        <time>2018-02-19T09:42:14Z</time>
      </trkpt>
      <trkpt lat="51.682070977985859" lon="0.425887014716864">
        <ele>42</ele>
        <time>2018-02-19T09:42:15Z</time>
      </trkpt>
      <trkpt lat="51.682077012956142" lon="0.425916016101837">
        <ele>42</ele>
        <time>2018-02-19T09:42:16Z</time>
      </trkpt>
      <trkpt lat="51.682091010734439" lon="0.425971001386642">
        <ele>42</ele>
        <time>2018-02-19T09:42:18Z</time>
      </trkpt>
      <trkpt lat="51.682098973542452" lon="0.426001008599997">
        <ele>42</ele>
        <time>2018-02-19T09:42:19Z</time>
      </trkpt>
      <trkpt lat="51.682110037654638" lon="0.42602900415659">
        <ele>42</ele>
        <time>2018-02-19T09:42:20Z</time>
      </trkpt>
      <trkpt lat="51.682127974927425" lon="0.426078960299492">
        <ele>42</ele>
        <time>2018-02-19T09:42:22Z</time>
      </trkpt>
      <trkpt lat="51.682141972705722" lon="0.426133023574948">
        <ele>42</ele>
        <time>2018-02-19T09:42:24Z</time>
      </trkpt>
      <trkpt lat="51.682152030989528" lon="0.426164958626032">
        <ele>42</ele>
        <time>2018-02-19T09:42:25Z</time>
      </trkpt>
      <trkpt lat="51.68215898796916" lon="0.426193038001657">
        <ele>42</ele>
        <time>2018-02-19T09:42:26Z</time>
      </trkpt>
      <trkpt lat="51.682172985747457" lon="0.426247017458081">
        <ele>42</ele>
        <time>2018-02-19T09:42:28Z</time>
      </trkpt>
      <trkpt lat="51.682182960212231" lon="0.42628800496459">
        <ele>42</ele>
        <time>2018-02-19T09:42:30Z</time>
      </trkpt>
      <trkpt lat="51.682190001010895" lon="0.426323041319847">
        <ele>41</ele>
        <time>2018-02-19T09:44:19Z</time>
      </trkpt>
      <trkpt lat="51.682198969647288" lon="0.42635296471417">
        <ele>41</ele>
        <time>2018-02-19T09:44:21Z</time>
      </trkpt>
      <trkpt lat="51.682216990739107" lon="0.42639403603971">
        <ele>41</ele>
        <time>2018-02-19T09:44:23Z</time>
      </trkpt>
      <trkpt lat="51.682229982689023" lon="0.426414990797639">
        <ele>41</ele>
        <time>2018-02-19T09:44:24Z</time>
      </trkpt>
      <trkpt lat="51.682246997952461" lon="0.426433011889458">
        <ele>41</ele>
        <time>2018-02-19T09:44:25Z</time>
      </trkpt>
      <trkpt lat="51.682263007387519" lon="0.426447009667754">
        <ele>41</ele>
        <time>2018-02-19T09:44:26Z</time>
      </trkpt>
      <trkpt lat="51.682280022650957" lon="0.426458995789289">
        <ele>41</ele>
        <time>2018-02-19T09:44:27Z</time>
      </trkpt>
      <trkpt lat="51.682300977408886" lon="0.426471987739205">
        <ele>41</ele>
        <time>2018-02-19T09:44:28Z</time>
      </trkpt>
      <trkpt lat="51.682318998500705" lon="0.426487997174263">
        <ele>41</ele>
        <time>2018-02-19T09:44:29Z</time>
      </trkpt>
      <trkpt lat="51.682349005714059" lon="0.426521021872759">
        <ele>41</ele>
        <time>2018-02-19T09:44:31Z</time>
      </trkpt>
      <trkpt lat="51.682365015149117" lon="0.42654599994421">
        <ele>41</ele>
        <time>2018-02-19T09:44:32Z</time>
      </trkpt>
      <trkpt lat="51.682381024584174" lon="0.426569972187281">
        <ele>41</ele>
        <time>2018-02-19T09:44:33Z</time>
      </trkpt>
      <trkpt lat="51.682395022362471" lon="0.426590004935861">
        <ele>41</ele>
        <time>2018-02-19T09:44:34Z</time>
      </trkpt>
      <trkpt lat="51.682421006262302" lon="0.426633004099131">
        <ele>41</ele>
        <time>2018-02-19T09:44:36Z</time>
      </trkpt>
      <trkpt lat="51.682435004040599" lon="0.42665496468544">
        <ele>41</ele>
        <time>2018-02-19T09:44:37Z</time>
      </trkpt>
      <trkpt lat="51.682445984333754" lon="0.426679020747542">
        <ele>41</ele>
        <time>2018-02-19T09:44:38Z</time>
      </trkpt>
      <trkpt lat="51.682449001818895" lon="0.426708022132516">
        <ele>41</ele>
        <time>2018-02-19T09:44:39Z</time>
      </trkpt>
      <trkpt lat="51.682446990162134" lon="0.426766024902463">
        <ele>40</ele>
        <time>2018-02-19T09:44:41Z</time>
      </trkpt>
      <trkpt lat="51.682441961020231" lon="0.426797037944198">
        <ele>40</ele>
        <time>2018-02-19T09:44:42Z</time>
      </trkpt>
      <trkpt lat="51.682431986555457" lon="0.426842970773578">
        <ele>40</ele>
        <time>2018-02-19T09:44:44Z</time>
      </trkpt>
      <trkpt lat="51.682424023747444" lon="0.426877001300454">
        <ele>40</ele>
        <time>2018-02-19T09:44:46Z</time>
      </trkpt>
      <trkpt lat="51.682409020140767" lon="0.426906002685428">
        <ele>40</ele>
        <time>2018-02-19T09:44:48Z</time>
      </trkpt>
      <trkpt lat="51.682395022362471" lon="0.426929974928498">
        <ele>40</ele>
        <time>2018-02-19T09:44:50Z</time>
      </trkpt>
      <trkpt lat="51.682380018755794" lon="0.426950007677078">
        <ele>40</ele>
        <time>2018-02-19T09:44:52Z</time>
      </trkpt>
      <trkpt lat="51.682365015149117" lon="0.426970040425658">
        <ele>40</ele>
        <time>2018-02-19T09:44:54Z</time>
      </trkpt>
      <trkpt lat="51.682342970743775" lon="0.426988983526826">
        <ele>40</ele>
        <time>2018-02-19T09:44:57Z</time>
      </trkpt>
      <trkpt lat="51.682326039299369" lon="0.427008010447025">
        <ele>40</ele>
        <time>2018-02-19T09:44:59Z</time>
      </trkpt>
      <trkpt lat="51.682312041521072" lon="0.427028965204954">
        <ele>40</ele>
        <time>2018-02-19T09:45:01Z</time>
      </trkpt>
      <trkpt lat="51.682298965752125" lon="0.427051009610295">
        <ele>40</ele>
        <time>2018-02-19T09:45:03Z</time>
      </trkpt>
      <trkpt lat="51.682281028479338" lon="0.42708202265203">
        <ele>40</ele>
        <time>2018-02-19T09:45:06Z</time>
      </trkpt>
      <trkpt lat="51.682270970195532" lon="0.427112029865384">
        <ele>40</ele>
        <time>2018-02-19T09:45:08Z</time>
      </trkpt>
      <trkpt lat="51.682260995730758" lon="0.427142959088087">
        <ele>40</ele>
        <time>2018-02-19T09:45:10Z</time>
      </trkpt>
      <trkpt lat="51.682249009609222" lon="0.42719098739326">
        <ele>40</ele>
        <time>2018-02-19T09:45:12Z</time>
      </trkpt>
      <trkpt lat="51.682235011830926" lon="0.427227029576898">
        <ele>40</ele>
        <time>2018-02-19T09:45:13Z</time>
      </trkpt>
      <trkpt lat="51.682224031537771" lon="0.427262987941504">
        <ele>40</ele>
        <time>2018-02-19T09:45:14Z</time>
      </trkpt>
      <trkpt lat="51.682216990739107" lon="0.427299030125141">
        <ele>40</ele>
        <time>2018-02-19T09:45:15Z</time>
      </trkpt>
      <trkpt lat="51.682211039587855" lon="0.427330965176225">
        <ele>40</ele>
        <time>2018-02-19T09:45:16Z</time>
      </trkpt>
      <trkpt lat="51.682207016274333" lon="0.427359966561198">
        <ele>40</ele>
        <time>2018-02-19T09:45:17Z</time>
      </trkpt>
      <trkpt lat="51.682207016274333" lon="0.427389973774552">
        <ele>40</ele>
        <time>2018-02-19T09:45:18Z</time>
      </trkpt>
      <trkpt lat="51.68220198713243" lon="0.42742601595819">
        <ele>40</ele>
        <time>2018-02-19T09:45:20Z</time>
      </trkpt>
      <trkpt lat="51.682194024324417" lon="0.427453005686402">
        <ele>40</ele>
        <time>2018-02-19T09:45:26Z</time>
      </trkpt>
      <trkpt lat="51.682171979919076" lon="0.427487036213279">
        <ele>40</ele>
        <time>2018-02-19T09:45:29Z</time>
      </trkpt>
      <trkpt lat="51.682153036817908" lon="0.427506985142827">
        <ele>40</ele>
        <time>2018-02-19T09:45:31Z</time>
      </trkpt>
      <trkpt lat="51.682138033211231" lon="0.427528023719788">
        <ele>40</ele>
        <time>2018-02-19T09:45:54Z</time>
      </trkpt>
      <trkpt lat="51.682128980755806" lon="0.427561970427632">
        <ele>40</ele>
        <time>2018-02-19T09:46:03Z</time>
      </trkpt>
      <trkpt lat="51.682124035432935" lon="0.427591977640986">
        <ele>40</ele>
        <time>2018-02-19T09:46:11Z</time>
      </trkpt>
      <trkpt lat="51.682113977149129" lon="0.427622990682721">
        <ele>40</ele>
        <time>2018-02-19T09:46:13Z</time>
      </trkpt>
      <trkpt lat="51.682099979370832" lon="0.427654003724456">
        <ele>40</ele>
        <time>2018-02-19T09:46:15Z</time>
      </trkpt>
      <trkpt lat="51.682092016562819" lon="0.427686022594571">
        <ele>40</ele>
        <time>2018-02-19T09:46:17Z</time>
      </trkpt>
      <trkpt lat="51.682079024612904" lon="0.427718041464686">
        <ele>40</ele>
        <time>2018-02-19T09:46:19Z</time>
      </trkpt>
      <trkpt lat="51.682062009349465" lon="0.427735978737473">
        <ele>40</ele>
        <time>2018-02-19T09:46:21Z</time>
      </trkpt>
      <trkpt lat="51.682041976600885" lon="0.427742013707757">
        <ele>40</ele>
        <time>2018-02-19T09:46:26Z</time>
      </trkpt>
      <trkpt lat="51.682025967165828" lon="0.427771015092731">
        <ele>40</ele>
        <time>2018-02-19T09:46:29Z</time>
      </trkpt>
      <trkpt lat="51.682010963559151" lon="0.427804039791226">
        <ele>40</ele>
        <time>2018-02-19T09:46:32Z</time>
      </trkpt>
      <trkpt lat="51.682004006579518" lon="0.427832035347819">
        <ele>40</ele>
        <time>2018-02-19T09:46:34Z</time>
      </trkpt>
      <trkpt lat="51.681995037943125" lon="0.427861958742142">
        <ele>40</ele>
        <time>2018-02-19T09:46:36Z</time>
      </trkpt>
      <trkpt lat="51.68198699131608" lon="0.427888026461005">
        <ele>40</ele>
        <time>2018-02-19T09:46:38Z</time>
      </trkpt>
      <trkpt lat="51.681977016851306" lon="0.427925996482372">
        <ele>40</ele>
        <time>2018-02-19T09:46:41Z</time>
      </trkpt>
      <trkpt lat="51.681966036558151" lon="0.427960027009249">
        <ele>40</ele>
        <time>2018-02-19T09:46:44Z</time>
      </trkpt>
      <trkpt lat="51.681952960789204" lon="0.427986010909081">
        <ele>40</ele>
        <time>2018-02-19T09:46:46Z</time>
      </trkpt>
      <trkpt lat="51.681938041001558" lon="0.428014006465673">
        <ele>40</ele>
        <time>2018-02-19T09:46:48Z</time>
      </trkpt>
      <trkpt lat="51.681918008252978" lon="0.428034961223602">
        <ele>40</ele>
        <time>2018-02-19T09:46:50Z</time>
      </trkpt>
      <trkpt lat="51.681901998817921" lon="0.428049964830279">
        <ele>40</ele>
        <time>2018-02-19T09:46:52Z</time>
      </trkpt>
      <trkpt lat="51.681883977726102" lon="0.428065974265337">
        <ele>40</ele>
        <time>2018-02-19T09:46:54Z</time>
      </trkpt>
      <trkpt lat="51.681867968291044" lon="0.428086007013917">
        <ele>40</ele>
        <time>2018-02-19T09:46:56Z</time>
      </trkpt>
      <trkpt lat="51.681850031018257" lon="0.42811400257051">
        <ele>40</ele>
        <time>2018-02-19T09:46:58Z</time>
      </trkpt>
      <trkpt lat="51.681836033239961" lon="0.428146021440625">
        <ele>40</ele>
        <time>2018-02-19T09:47:00Z</time>
      </trkpt>
      <trkpt lat="51.681819017976522" lon="0.428173011168838">
        <ele>40</ele>
        <time>2018-02-19T09:47:02Z</time>
      </trkpt>
      <trkpt lat="51.681799991056323" lon="0.428194971755147">
        <ele>40</ele>
        <time>2018-02-19T09:47:04Z</time>
      </trkpt>
      <trkpt lat="51.681785993278027" lon="0.428218021988869">
        <ele>40</ele>
        <time>2018-02-19T09:47:06Z</time>
      </trkpt>
      <trkpt lat="51.681775012984872" lon="0.4282440058887">
        <ele>40</ele>
        <time>2018-02-19T09:47:08Z</time>
      </trkpt>
      <trkpt lat="51.681767972186208" lon="0.428274013102055">
        <ele>40</ele>
        <time>2018-02-19T09:47:10Z</time>
      </trkpt>
      <trkpt lat="51.681761015206575" lon="0.428310977295041">
        <ele>40</ele>
        <time>2018-02-19T09:47:12Z</time>
      </trkpt>
      <trkpt lat="51.681752968579531" lon="0.428347019478679">
        <ele>40</ele>
        <time>2018-02-19T09:47:14Z</time>
      </trkpt>
      <trkpt lat="51.681737964972854" lon="0.428378032520413">
        <ele>40</ele>
        <time>2018-02-19T09:47:16Z</time>
      </trkpt>
      <trkpt lat="51.681720027700067" lon="0.428409967571497">
        <ele>40</ele>
        <time>2018-02-19T09:47:18Z</time>
      </trkpt>
      <trkpt lat="51.681704018265009" lon="0.42843896895647">
        <ele>40</ele>
        <time>2018-02-19T09:47:20Z</time>
      </trkpt>
      <trkpt lat="51.681687003001571" lon="0.428469981998205">
        <ele>40</ele>
        <time>2018-02-19T09:47:22Z</time>
      </trkpt>
      <trkpt lat="51.681675016880035" lon="0.42850200086832">
        <ele>40</ele>
        <time>2018-02-19T09:47:24Z</time>
      </trkpt>
      <trkpt lat="51.681668981909752" lon="0.428533013910055">
        <ele>40</ele>
        <time>2018-02-19T09:47:26Z</time>
      </trkpt>
      <trkpt lat="51.681668981909752" lon="0.428577018901706">
        <ele>40</ele>
        <time>2018-02-19T09:47:29Z</time>
      </trkpt>
      <trkpt lat="51.681667976081371" lon="0.428614988923073">
        <ele>40</ele>
        <time>2018-02-19T09:47:31Z</time>
      </trkpt>
      <trkpt lat="51.68166596442461" lon="0.428652036935091">
        <ele>40</ele>
        <time>2018-02-19T09:47:33Z</time>
      </trkpt>
      <trkpt lat="51.681671999394894" lon="0.428691012784839">
        <ele>40</ele>
        <time>2018-02-19T09:47:36Z</time>
      </trkpt>
      <trkpt lat="51.681650960817933" lon="0.428695036098361">
        <ele>40</ele>
        <time>2018-02-19T09:47:49Z</time>
      </trkpt>
      <trkpt lat="51.681647021323442" lon="0.428726971149445">
        <ele>40</ele>
        <time>2018-02-19T09:47:51Z</time>
      </trkpt>
      <trkpt lat="51.681645009666681" lon="0.428766030818224">
        <ele>40</ele>
        <time>2018-02-19T09:47:53Z</time>
      </trkpt>
      <trkpt lat="51.681653978303075" lon="0.428820010274649">
        <ele>40</ele>
        <time>2018-02-19T09:47:55Z</time>
      </trkpt>
      <trkpt lat="51.681654984131455" lon="0.428851023316383">
        <ele>40</ele>
        <time>2018-02-19T09:47:56Z</time>
      </trkpt>
      <trkpt lat="51.681649032980204" lon="0.42890902608633">
        <ele>40</ele>
        <time>2018-02-19T09:47:58Z</time>
      </trkpt>
      <trkpt lat="51.681635035201907" lon="0.428956970572472">
        <ele>40</ele>
        <time>2018-02-19T09:48:00Z</time>
      </trkpt>
      <trkpt lat="51.68162296526134" lon="0.429010028019547">
        <ele>40</ele>
        <time>2018-02-19T09:48:02Z</time>
      </trkpt>
      <trkpt lat="51.681613996624947" lon="0.429061995819211">
        <ele>40</ele>
        <time>2018-02-19T09:48:04Z</time>
      </trkpt>
      <trkpt lat="51.681606033816934" lon="0.429116981104016">
        <ele>40</ele>
        <time>2018-02-19T09:48:06Z</time>
      </trkpt>
      <trkpt lat="51.681604022160172" lon="0.429168026894331">
        <ele>40</ele>
        <time>2018-02-19T09:48:08Z</time>
      </trkpt>
      <trkpt lat="51.681606033816934" lon="0.429219994693995">
        <ele>40</ele>
        <time>2018-02-19T09:48:10Z</time>
      </trkpt>
      <trkpt lat="51.68159899301827" lon="0.429269028827548">
        <ele>40</ele>
        <time>2018-02-19T09:48:12Z</time>
      </trkpt>
      <trkpt lat="51.681593041867018" lon="0.429320996627212">
        <ele>40</ele>
        <time>2018-02-19T09:48:14Z</time>
      </trkpt>
      <trkpt lat="51.681591030210257" lon="0.429351003840566">
        <ele>40</ele>
        <time>2018-02-19T09:48:15Z</time>
      </trkpt>
      <trkpt lat="51.681584995239973" lon="0.42938101105392">
        <ele>40</ele>
        <time>2018-02-19T09:48:16Z</time>
      </trkpt>
      <trkpt lat="51.68157602660358" lon="0.429410012438893">
        <ele>40</ele>
        <time>2018-02-19T09:48:17Z</time>
      </trkpt>
      <trkpt lat="51.681564962491393" lon="0.429463991895318">
        <ele>40</ele>
        <time>2018-02-19T09:48:19Z</time>
      </trkpt>
      <trkpt lat="51.681551970541477" lon="0.429515037685633">
        <ele>40</ele>
        <time>2018-02-19T09:48:21Z</time>
      </trkpt>
      <trkpt lat="51.681540990248322" lon="0.429538004100323">
        <ele>40</ele>
        <time>2018-02-19T09:48:22Z</time>
      </trkpt>
      <trkpt lat="51.681517018005252" lon="0.429582009091973">
        <ele>40</ele>
        <time>2018-02-19T09:48:24Z</time>
      </trkpt>
      <trkpt lat="51.68149296194315" lon="0.429622996598482">
        <ele>40</ele>
        <time>2018-02-19T09:48:26Z</time>
      </trkpt>
      <trkpt lat="51.681478964164853" lon="0.429642023518682">
        <ele>40</ele>
        <time>2018-02-19T09:48:27Z</time>
      </trkpt>
      <trkpt lat="51.681460021063685" lon="0.42966297827661">
        <ele>40</ele>
        <time>2018-02-19T09:48:28Z</time>
      </trkpt>
      <trkpt lat="51.681440994143486" lon="0.429687034338713">
        <ele>40</ele>
        <time>2018-02-19T09:48:29Z</time>
      </trkpt>
      <trkpt lat="51.681421967223287" lon="0.429711006581783">
        <ele>40</ele>
        <time>2018-02-19T09:48:30Z</time>
      </trkpt>
      <trkpt lat="51.68140696361661" lon="0.429734978824854">
        <ele>40</ele>
        <time>2018-02-19T09:48:31Z</time>
      </trkpt>
      <trkpt lat="51.681391960009933" lon="0.429758029058576">
        <ele>40</ele>
        <time>2018-02-19T09:48:32Z</time>
      </trkpt>
      <trkpt lat="51.681375028565526" lon="0.429779989644885">
        <ele>40</ele>
        <time>2018-02-19T09:48:33Z</time>
      </trkpt>
      <trkpt lat="51.68136103078723" lon="0.429802034050226">
        <ele>40</ele>
        <time>2018-02-19T09:48:34Z</time>
      </trkpt>
      <trkpt lat="51.681335968896747" lon="0.429844027385116">
        <ele>40</ele>
        <time>2018-02-19T09:48:36Z</time>
      </trkpt>
      <trkpt lat="51.681315014138818" lon="0.429886020720005">
        <ele>40</ele>
        <time>2018-02-19T09:48:38Z</time>
      </trkpt>
      <trkpt lat="51.681303028017282" lon="0.429907981306314">
        <ele>40</ele>
        <time>2018-02-19T09:48:39Z</time>
      </trkpt>
      <trkpt lat="51.681287018582225" lon="0.429929019883275">
        <ele>40</ele>
        <time>2018-02-19T09:48:40Z</time>
      </trkpt>
      <trkpt lat="51.681261034682393" lon="0.429975958541036">
        <ele>40</ele>
        <time>2018-02-19T09:48:42Z</time>
      </trkpt>
      <trkpt lat="51.681246031075716" lon="0.429996997117996">
        <ele>40</ele>
        <time>2018-02-19T09:48:43Z</time>
      </trkpt>
      <trkpt lat="51.681230021640658" lon="0.430022981017828">
        <ele>40</ele>
        <time>2018-02-19T09:48:44Z</time>
      </trkpt>
      <trkpt lat="51.681214012205601" lon="0.430047959089279">
        <ele>40</ele>
        <time>2018-02-19T09:48:45Z</time>
      </trkpt>
      <trkpt lat="51.681199008598924" lon="0.43006899766624">
        <ele>40</ele>
        <time>2018-02-19T09:48:46Z</time>
      </trkpt>
      <trkpt lat="51.681174030527472" lon="0.430099004879594">
        <ele>40</ele>
        <time>2018-02-19T09:48:48Z</time>
      </trkpt>
      <trkpt lat="51.681150980293751" lon="0.430131023749709">
        <ele>40</ele>
        <time>2018-02-19T09:48:50Z</time>
      </trkpt>
      <trkpt lat="51.681134970858693" lon="0.430172011256218">
        <ele>40</ele>
        <time>2018-02-19T09:48:52Z</time>
      </trkpt>
      <trkpt lat="51.681118039414287" lon="0.430214004591107">
        <ele>40</ele>
        <time>2018-02-19T09:48:54Z</time>
      </trkpt>
      <trkpt lat="51.68110303580761" lon="0.430230014026165">
        <ele>40</ele>
        <time>2018-02-19T09:48:55Z</time>
      </trkpt>
      <trkpt lat="51.681073028594255" lon="0.430250968784094">
        <ele>40</ele>
        <time>2018-02-19T09:48:57Z</time>
      </trkpt>
      <trkpt lat="51.681048972532153" lon="0.430269995704293">
        <ele>40</ele>
        <time>2018-02-19T09:48:59Z</time>
      </trkpt>
      <trkpt lat="51.681025000289083" lon="0.430286005139351">
        <ele>40</ele>
        <time>2018-02-19T09:49:01Z</time>
      </trkpt>
      <trkpt lat="51.681001028046012" lon="0.430297991260886">
        <ele>40</ele>
        <time>2018-02-19T09:49:03Z</time>
      </trkpt>
      <trkpt lat="51.680979989469051" lon="0.430306037887931">
        <ele>40</ele>
        <time>2018-02-19T09:49:05Z</time>
      </trkpt>
      <trkpt lat="51.680960962548852" lon="0.430306037887931">
        <ele>47</ele>
        <time>2018-02-19T09:49:07Z</time>
      </trkpt>
      <trkpt lat="51.680925004184246" lon="0.430319029837847">
        <ele>47</ele>
        <time>2018-02-19T09:49:09Z</time>
      </trkpt>
      <trkpt lat="51.680897008627653" lon="0.430322969332337">
        <ele>47</ele>
        <time>2018-02-19T09:49:11Z</time>
      </trkpt>
      <trkpt lat="51.680877981707454" lon="0.43032699264586">
        <ele>47.115384615384599</ele>
        <time>2018-02-19T09:49:12Z</time>
      </trkpt>
      <trkpt lat="51.68084504082799" lon="0.430334033444524">
        <ele>48</ele>
        <time>2018-02-19T09:49:14Z</time>
      </trkpt>
      <trkpt lat="51.680816039443016" lon="0.430345013737679">
        <ele>48</ele>
        <time>2018-02-19T09:49:16Z</time>
      </trkpt>
      <trkpt lat="51.680798018351197" lon="0.430351970717311">
        <ele>48</ele>
        <time>2018-02-19T09:49:17Z</time>
      </trkpt>
      <trkpt lat="51.680765999481082" lon="0.430366974323988">
        <ele>48</ele>
        <time>2018-02-19T09:49:19Z</time>
      </trkpt>
      <trkpt lat="51.680746972560883" lon="0.430379966273904">
        <ele>48</ele>
        <time>2018-02-19T09:49:20Z</time>
      </trkpt>
      <trkpt lat="51.680730041116476" lon="0.430395975708961">
        <ele>48</ele>
        <time>2018-02-19T09:49:21Z</time>
      </trkpt>
      <trkpt lat="51.680700033903122" lon="0.430417014285922">
        <ele>48</ele>
        <time>2018-02-19T09:49:23Z</time>
      </trkpt>
      <trkpt lat="51.680664997547865" lon="0.430422965437174">
        <ele>48</ele>
        <time>2018-02-19T09:49:25Z</time>
      </trkpt>
      <trkpt lat="51.68063398450613" lon="0.430432017892599">
        <ele>48</ele>
        <time>2018-02-19T09:49:27Z</time>
      </trkpt>
      <trkpt lat="51.680601965636015" lon="0.43043402954936">
        <ele>48</ele>
        <time>2018-02-19T09:49:29Z</time>
      </trkpt>
      <trkpt lat="51.680575981736183" lon="0.43043696321547">
        <ele>48</ele>
        <time>2018-02-19T09:49:31Z</time>
      </trkpt>
      <trkpt lat="51.680544968694448" lon="0.430436041206121">
        <ele>48.119999999999997</ele>
        <time>2018-02-19T09:49:33Z</time>
      </trkpt>
      <trkpt lat="51.680514961481094" lon="0.430439980700612">
        <ele>49</ele>
        <time>2018-02-19T09:49:35Z</time>
      </trkpt>
      <trkpt lat="51.68048202060163" lon="0.430460013449192">
        <ele>49</ele>
        <time>2018-02-19T09:49:37Z</time>
      </trkpt>
      <trkpt lat="51.680467016994953" lon="0.430473005399108">
        <ele>49</ele>
        <time>2018-02-19T09:49:38Z</time>
      </trkpt>
      <trkpt lat="51.680448995903134" lon="0.430483985692263">
        <ele>49</ele>
        <time>2018-02-19T09:49:39Z</time>
      </trkpt>
      <trkpt lat="51.680429968982935" lon="0.430491026490927">
        <ele>49</ele>
        <time>2018-02-19T09:49:40Z</time>
      </trkpt>
      <trkpt lat="51.680397028103471" lon="0.430493960157037">
        <ele>49</ele>
        <time>2018-02-19T09:49:42Z</time>
      </trkpt>
      <trkpt lat="51.680364003404975" lon="0.430508963763714">
        <ele>50</ele>
        <time>2018-02-19T09:49:44Z</time>
      </trkpt>
      <trkpt lat="51.680345982313156" lon="0.4305200278759">
        <ele>50</ele>
        <time>2018-02-19T09:49:45Z</time>
      </trkpt>
      <trkpt lat="51.680315975099802" lon="0.430536959320307">
        <ele>50</ele>
        <time>2018-02-19T09:49:47Z</time>
      </trkpt>
      <trkpt lat="51.680285967886448" lon="0.430556992068887">
        <ele>50</ele>
        <time>2018-02-19T09:49:49Z</time>
      </trkpt>
      <trkpt lat="51.68026702478528" lon="0.430566966533661">
        <ele>50</ele>
        <time>2018-02-19T09:49:50Z</time>
      </trkpt>
      <trkpt lat="51.680234000086784" lon="0.430579036474228">
        <ele>50</ele>
        <time>2018-02-19T09:49:52Z</time>
      </trkpt>
      <trkpt lat="51.68020298704505" lon="0.430591022595763">
        <ele>50</ele>
        <time>2018-02-19T09:49:54Z</time>
      </trkpt>
      <trkpt lat="51.680170968174934" lon="0.430602002888918">
        <ele>50</ele>
        <time>2018-02-19T09:49:56Z</time>
      </trkpt>
      <trkpt lat="51.68013702146709" lon="0.430610971525311">
        <ele>50</ele>
        <time>2018-02-19T09:49:58Z</time>
      </trkpt>
      <trkpt lat="51.680109025910497" lon="0.430619018152356">
        <ele>50</ele>
        <time>2018-02-19T09:50:00Z</time>
      </trkpt>
      <trkpt lat="51.680081030353904" lon="0.430632010102272">
        <ele>50</ele>
        <time>2018-02-19T09:50:02Z</time>
      </trkpt>
      <trkpt lat="51.680050017312169" lon="0.430633015930653">
        <ele>50</ele>
        <time>2018-02-19T09:50:04Z</time>
      </trkpt>
      <trkpt lat="51.680020010098815" lon="0.430639972910285">
        <ele>50</ele>
        <time>2018-02-19T09:50:06Z</time>
      </trkpt>
      <trkpt lat="51.679995032027364" lon="0.43064801953733">
        <ele>50</ele>
        <time>2018-02-19T09:50:08Z</time>
      </trkpt>
      <trkpt lat="51.679963013157248" lon="0.430653970688581">
        <ele>50</ele>
        <time>2018-02-19T09:50:10Z</time>
      </trkpt>
      <trkpt lat="51.679942980408669" lon="0.430664028972387">
        <ele>50.110092066325301</ele>
        <time>2018-02-19T09:50:12Z</time>
      </trkpt>
      <trkpt lat="51.679921019822359" lon="0.430679032579064">
        <ele>51</ele>
        <time>2018-02-19T09:50:14Z</time>
      </trkpt>
      <trkpt lat="51.679894030094147" lon="0.430684983730316">
        <ele>51</ele>
        <time>2018-02-19T09:50:16Z</time>
      </trkpt>
      <trkpt lat="51.679865028709173" lon="0.430709961801767">
        <ele>50.880000000000003</ele>
        <time>2018-02-19T09:50:22Z</time>
      </trkpt>
      <trkpt lat="51.679833009839058" lon="0.430726977065206">
        <ele>51</ele>
        <time>2018-02-19T09:50:24Z</time>
      </trkpt>
      <trkpt lat="51.679797973483801" lon="0.430744998157024">
        <ele>51</ele>
        <time>2018-02-19T09:50:26Z</time>
      </trkpt>
      <trkpt lat="51.679778024554253" lon="0.430750027298927">
        <ele>51</ele>
        <time>2018-02-19T09:50:27Z</time>
      </trkpt>
      <trkpt lat="51.679744999855757" lon="0.430761007592082">
        <ele>52</ele>
        <time>2018-02-19T09:50:29Z</time>
      </trkpt>
      <trkpt lat="51.679726978763938" lon="0.430767964571714">
        <ele>52</ele>
        <time>2018-02-19T09:50:30Z</time>
      </trkpt>
      <trkpt lat="51.679694959893823" lon="0.43077701702714">
        <ele>52</ele>
        <time>2018-02-19T09:50:32Z</time>
      </trkpt>
      <trkpt lat="51.67966403067112" lon="0.430792020633817">
        <ele>52</ele>
        <time>2018-02-19T09:50:34Z</time>
      </trkpt>
      <trkpt lat="51.67964500375092" lon="0.430807024240494">
        <ele>52</ele>
        <time>2018-02-19T09:50:35Z</time>
      </trkpt>
      <trkpt lat="51.67962497100234" lon="0.430822027847171">
        <ele>52</ele>
        <time>2018-02-19T09:50:36Z</time>
      </trkpt>
      <trkpt lat="51.679599992930889" lon="0.430846000090241">
        <ele>52</ele>
        <time>2018-02-19T09:50:38Z</time>
      </trkpt>
      <trkpt lat="51.679579960182309" lon="0.430866032838821">
        <ele>53</ele>
        <time>2018-02-19T09:50:40Z</time>
      </trkpt>
      <trkpt lat="51.679554982110858" lon="0.430888999253511">
        <ele>53</ele>
        <time>2018-02-19T09:50:42Z</time>
      </trkpt>
      <trkpt lat="51.679528998211026" lon="0.43090702034533">
        <ele>52</ele>
        <time>2018-02-19T09:50:44Z</time>
      </trkpt>
      <trkpt lat="51.679502008482814" lon="0.430919006466866">
        <ele>52</ele>
        <time>2018-02-19T09:50:46Z</time>
      </trkpt>
      <trkpt lat="51.679479964077473" lon="0.430927975103259">
        <ele>52</ele>
        <time>2018-02-19T09:50:48Z</time>
      </trkpt>
      <trkpt lat="51.679459009319544" lon="0.430935015901923">
        <ele>52</ele>
        <time>2018-02-19T09:50:50Z</time>
      </trkpt>
      <trkpt lat="51.679435037076473" lon="0.430940967053175">
        <ele>52</ele>
        <time>2018-02-19T09:50:52Z</time>
      </trkpt>
      <trkpt lat="51.679413998499513" lon="0.430945996195078">
        <ele>52</ele>
        <time>2018-02-19T09:50:54Z</time>
      </trkpt>
      <trkpt lat="51.679395977407694" lon="0.430957982316613">
        <ele>52</ele>
        <time>2018-02-19T09:50:56Z</time>
      </trkpt>
      <trkpt lat="51.679378040134907" lon="0.430978015065193">
        <ele>52</ele>
        <time>2018-02-19T09:50:58Z</time>
      </trkpt>
      <trkpt lat="51.679364964365959" lon="0.431009028106928">
        <ele>51</ele>
        <time>2018-02-19T09:51:01Z</time>
      </trkpt>
      <trkpt lat="51.679362030699849" lon="0.431050015613437">
        <ele>51.108107796445999</ele>
        <time>2018-02-19T09:51:03Z</time>
      </trkpt>
      <trkpt lat="51.679349038749933" lon="0.4311019834131">
        <ele>52.119999999999997</ele>
        <time>2018-02-19T09:51:05Z</time>
      </trkpt>
      <trkpt lat="51.679338980466127" lon="0.431136013939977">
        <ele>53</ele>
        <time>2018-02-19T09:51:06Z</time>
      </trkpt>
      <trkpt lat="51.679329006001353" lon="0.43116400949657">
        <ele>53</ele>
        <time>2018-02-19T09:51:07Z</time>
      </trkpt>
      <trkpt lat="51.679309979081154" lon="0.431213965639472">
        <ele>53</ele>
        <time>2018-02-19T09:51:09Z</time>
      </trkpt>
      <trkpt lat="51.679294975474477" lon="0.431232992559671">
        <ele>53</ele>
        <time>2018-02-19T09:51:10Z</time>
      </trkpt>
      <trkpt lat="51.67928097769618" lon="0.431257970631123">
        <ele>53</ele>
        <time>2018-02-19T09:51:11Z</time>
      </trkpt>
      <trkpt lat="51.679268991574645" lon="0.431280015036464">
        <ele>53.106194990994702</ele>
        <time>2018-02-19T09:51:12Z</time>
      </trkpt>
      <trkpt lat="51.679249964654446" lon="0.431326031684875">
        <ele>54</ele>
        <time>2018-02-19T09:51:14Z</time>
      </trkpt>
      <trkpt lat="51.679232027381659" lon="0.431368025019765">
        <ele>54</ele>
        <time>2018-02-19T09:51:16Z</time>
      </trkpt>
      <trkpt lat="51.679205959662795" lon="0.431411024183035">
        <ele>54</ele>
        <time>2018-02-19T09:51:18Z</time>
      </trkpt>
      <trkpt lat="51.679180981591344" lon="0.431452011689544">
        <ele>54</ele>
        <time>2018-02-19T09:51:20Z</time>
      </trkpt>
      <trkpt lat="51.679168995469809" lon="0.431474978104234">
        <ele>54</ele>
        <time>2018-02-19T09:51:21Z</time>
      </trkpt>
      <trkpt lat="51.679153991863132" lon="0.431518983095884">
        <ele>54</ele>
        <time>2018-02-19T09:51:23Z</time>
      </trkpt>
      <trkpt lat="51.67912901379168" lon="0.431543961167336">
        <ele>54</ele>
        <time>2018-02-19T09:51:25Z</time>
      </trkpt>
      <trkpt lat="51.679104035720229" lon="0.431539015844464">
        <ele>54</ele>
        <time>2018-02-19T09:51:27Z</time>
      </trkpt>
      <trkpt lat="51.679084002971649" lon="0.431555025279522">
        <ele>54</ele>
        <time>2018-02-19T09:51:31Z</time>
      </trkpt>
      <trkpt lat="51.679061958566308" lon="0.431600036099553">
        <ele>54</ele>
        <time>2018-02-19T09:51:33Z</time>
      </trkpt>
      <trkpt lat="51.679039997979999" lon="0.431652003899217">
        <ele>54.842107289280698</ele>
        <time>2018-02-19T09:51:35Z</time>
      </trkpt>
      <trkpt lat="51.679026000201702" lon="0.43168100528419">
        <ele>55</ele>
        <time>2018-02-19T09:51:36Z</time>
      </trkpt>
      <trkpt lat="51.679008984938264" lon="0.431710006669164">
        <ele>55</ele>
        <time>2018-02-19T09:51:37Z</time>
      </trkpt>
      <trkpt lat="51.678991969674826" lon="0.431739008054137">
        <ele>55</ele>
        <time>2018-02-19T09:51:38Z</time>
      </trkpt>
      <trkpt lat="51.678976966068149" lon="0.43176599778235">
        <ele>55.117646320650501</ele>
        <time>2018-02-19T09:51:39Z</time>
      </trkpt>
      <trkpt lat="51.678971014916897" lon="0.431796004995704">
        <ele>56</ele>
        <time>2018-02-19T09:51:40Z</time>
      </trkpt>
      <trkpt lat="51.678961962461472" lon="0.431828023865819">
        <ele>56</ele>
        <time>2018-02-19T09:51:41Z</time>
      </trkpt>
      <trkpt lat="51.678958022966981" lon="0.431859036907554">
        <ele>56</ele>
        <time>2018-02-19T09:51:42Z</time>
      </trkpt>
      <trkpt lat="51.678949976339936" lon="0.431889966130257">
        <ele>56</ele>
        <time>2018-02-19T09:51:43Z</time>
      </trkpt>
      <trkpt lat="51.678943019360304" lon="0.431920979171991">
        <ele>56.119999999999997</ele>
        <time>2018-02-19T09:51:44Z</time>
      </trkpt>
      <trkpt lat="51.678928015753627" lon="0.431950986385345">
        <ele>57</ele>
        <time>2018-02-19T09:51:45Z</time>
      </trkpt>
      <trkpt lat="51.67891401797533" lon="0.431978981941938">
        <ele>57</ele>
        <time>2018-02-19T09:51:46Z</time>
      </trkpt>
      <trkpt lat="51.678898008540273" lon="0.432007983326912">
        <ele>57.119999999999997</ele>
        <time>2018-02-19T09:51:47Z</time>
      </trkpt>
      <trkpt lat="51.678887028247118" lon="0.432038996368647">
        <ele>58</ele>
        <time>2018-02-19T09:51:48Z</time>
      </trkpt>
      <trkpt lat="51.678876969963312" lon="0.432071015238762">
        <ele>58</ele>
        <time>2018-02-19T09:51:49Z</time>
      </trkpt>
      <trkpt lat="51.678868001326919" lon="0.432098004966974">
        <ele>58</ele>
        <time>2018-02-19T09:51:50Z</time>
      </trkpt>
      <trkpt lat="51.678860960528255" lon="0.432127006351948">
        <ele>58</ele>
        <time>2018-02-19T09:51:51Z</time>
      </trkpt>
      <trkpt lat="51.678854003548622" lon="0.432156007736921">
        <ele>58</ele>
        <time>2018-02-19T09:51:52Z</time>
      </trkpt>
      <trkpt lat="51.678840005770326" lon="0.432188026607037">
        <ele>58</ele>
        <time>2018-02-19T09:51:54Z</time>
      </trkpt>
      <trkpt lat="51.678822990506887" lon="0.432220967486501">
        <ele>58</ele>
        <time>2018-02-19T09:51:57Z</time>
      </trkpt>
      <trkpt lat="51.678803963586688" lon="0.432248041033745">
        <ele>58</ele>
        <time>2018-02-19T09:51:59Z</time>
      </trkpt>
      <trkpt lat="51.67878502048552" lon="0.432267989963293">
        <ele>58</ele>
        <time>2018-02-19T09:52:01Z</time>
      </trkpt>
      <trkpt lat="51.67876398190856" lon="0.432292968034744">
        <ele>58</ele>
        <time>2018-02-19T09:52:04Z</time>
      </trkpt>
      <trkpt lat="51.678747972473502" lon="0.432315012440085">
        <ele>58</ele>
        <time>2018-02-19T09:52:07Z</time>
      </trkpt>
      <trkpt lat="51.678729029372334" lon="0.432340996339917">
        <ele>58</ele>
        <time>2018-02-19T09:52:10Z</time>
      </trkpt>
      <trkpt lat="51.678716959431767" lon="0.432366980239749">
        <ele>58</ele>
        <time>2018-02-19T09:52:12Z</time>
      </trkpt>
      <trkpt lat="51.678702039644122" lon="0.432400004938245">
        <ele>58</ele>
        <time>2018-02-19T09:52:15Z</time>
      </trkpt>
      <trkpt lat="51.678687036037445" lon="0.432426994666457">
        <ele>58.032970433510599</ele>
        <time>2018-02-19T09:52:18Z</time>
      </trkpt>
      <trkpt lat="51.678675971925259" lon="0.432464964687824">
        <ele>59</ele>
        <time>2018-02-19T09:52:25Z</time>
      </trkpt>
      <trkpt lat="51.678651999682188" lon="0.432458007708192">
        <ele>59</ele>
        <time>2018-02-19T09:52:27Z</time>
      </trkpt>
      <trkpt lat="51.67863498441875" lon="0.432448033243418">
        <ele>59.110092066325301</ele>
        <time>2018-02-19T09:52:28Z</time>
      </trkpt>
      <trkpt lat="51.678616963326931" lon="0.432434035465121">
        <ele>60</ele>
        <time>2018-02-19T09:52:29Z</time>
      </trkpt>
      <trkpt lat="51.678597014397383" lon="0.432407967746258">
        <ele>60.119999999999997</ele>
        <time>2018-02-19T09:52:30Z</time>
      </trkpt>
      <trkpt lat="51.678574969992042" lon="0.432379972189665">
        <ele>61</ele>
        <time>2018-02-19T09:52:31Z</time>
      </trkpt>
      <trkpt lat="51.678556026890874" lon="0.432347031310201">
        <ele>61</ele>
        <time>2018-02-19T09:52:32Z</time>
      </trkpt>
      <trkpt lat="51.678542029112577" lon="0.432315012440085">
        <ele>61</ele>
        <time>2018-02-19T09:52:33Z</time>
      </trkpt>
      <trkpt lat="51.678528031334281" lon="0.432283999398351">
        <ele>61</ele>
        <time>2018-02-19T09:52:34Z</time>
      </trkpt>
      <trkpt lat="51.678512021899223" lon="0.432258015498519">
        <ele>60.119999999999997</ele>
        <time>2018-02-19T09:52:35Z</time>
      </trkpt>
      <trkpt lat="51.678497018292546" lon="0.432233037427068">
        <ele>61</ele>
        <time>2018-02-19T09:52:36Z</time>
      </trkpt>
      <trkpt lat="51.67848696000874" lon="0.432205963879824">
        <ele>61</ele>
        <time>2018-02-19T09:52:37Z</time>
      </trkpt>
      <trkpt lat="51.678475979715586" lon="0.432176040485501">
        <ele>61</ele>
        <time>2018-02-19T09:52:38Z</time>
      </trkpt>
      <trkpt lat="51.67846399359405" lon="0.432146033272147">
        <ele>61</ele>
        <time>2018-02-19T09:52:39Z</time>
      </trkpt>
      <trkpt lat="51.678453013300896" lon="0.432120971381664">
        <ele>61</ele>
        <time>2018-02-19T09:52:40Z</time>
      </trkpt>
      <trkpt lat="51.678435998037457" lon="0.432099010795355">
        <ele>61</ele>
        <time>2018-02-19T09:52:41Z</time>
      </trkpt>
      <trkpt lat="51.678423006087542" lon="0.432074032723904">
        <ele>61</ele>
        <time>2018-02-19T09:52:42Z</time>
      </trkpt>
      <trkpt lat="51.678410014137626" lon="0.43204503133893">
        <ele>61</ele>
        <time>2018-02-19T09:52:43Z</time>
      </trkpt>
      <trkpt lat="51.678390987217426" lon="0.432014018297195">
        <ele>61</ele>
        <time>2018-02-19T09:52:44Z</time>
      </trkpt>
      <trkpt lat="51.678375983610749" lon="0.431986022740602">
        <ele>61</ele>
        <time>2018-02-19T09:52:45Z</time>
      </trkpt>
      <trkpt lat="51.678363997489214" lon="0.431954003870487">
        <ele>61</ele>
        <time>2018-02-19T09:52:46Z</time>
      </trkpt>
      <trkpt lat="51.678351005539298" lon="0.431926008313894">
        <ele>61</ele>
        <time>2018-02-19T09:52:47Z</time>
      </trkpt>
      <trkpt lat="51.678336001932621" lon="0.43189600110054">
        <ele>61</ele>
        <time>2018-02-19T09:52:48Z</time>
      </trkpt>
      <trkpt lat="51.678320998325944" lon="0.431868005543947">
        <ele>61</ele>
        <time>2018-02-19T09:52:49Z</time>
      </trkpt>
      <trkpt lat="51.67831102386117" lon="0.431839004158974">
        <ele>60</ele>
        <time>2018-02-19T09:52:50Z</time>
      </trkpt>
      <trkpt lat="51.678301971405745" lon="0.431814026087523">
        <ele>60</ele>
        <time>2018-02-19T09:52:51Z</time>
      </trkpt>
      <trkpt lat="51.678281016647816" lon="0.431763986125588">
        <ele>60</ele>
        <time>2018-02-19T09:52:53Z</time>
      </trkpt>
      <trkpt lat="51.678272970020771" lon="0.431734984740615">
        <ele>60</ele>
        <time>2018-02-19T09:52:54Z</time>
      </trkpt>
      <trkpt lat="51.678261989727616" lon="0.43170397169888">
        <ele>60</ele>
        <time>2018-02-19T09:52:55Z</time>
      </trkpt>
      <trkpt lat="51.678252015262842" lon="0.431675976142287">
        <ele>60</ele>
        <time>2018-02-19T09:52:56Z</time>
      </trkpt>
      <trkpt lat="51.678242040798068" lon="0.431645968928933">
        <ele>60</ele>
        <time>2018-02-19T09:52:57Z</time>
      </trkpt>
      <trkpt lat="51.678232988342643" lon="0.431619985029101">
        <ele>60</ele>
        <time>2018-02-19T09:52:58Z</time>
      </trkpt>
      <trkpt lat="51.678222008049488" lon="0.431598024442792">
        <ele>60</ele>
        <time>2018-02-19T09:52:59Z</time>
      </trkpt>
      <trkpt lat="51.678194012492895" lon="0.431566005572677">
        <ele>60</ele>
        <time>2018-02-19T09:53:01Z</time>
      </trkpt>
      <trkpt lat="51.678171968087554" lon="0.43152904137969">
        <ele>60</ele>
        <time>2018-02-19T09:53:03Z</time>
      </trkpt>
      <trkpt lat="51.67816199362278" lon="0.431480007246137">
        <ele>59.9166666666667</ele>
        <time>2018-02-19T09:53:05Z</time>
      </trkpt>
      <trkpt lat="51.678152019158006" lon="0.431441031396389">
        <ele>59</ele>
        <time>2018-02-19T09:53:07Z</time>
      </trkpt>
      <trkpt lat="51.678131986409426" lon="0.431394008919597">
        <ele>58</ele>
        <time>2018-02-19T09:53:09Z</time>
      </trkpt>
      <trkpt lat="51.678121006116271" lon="0.431371964514256">
        <ele>58</ele>
        <time>2018-02-19T09:53:10Z</time>
      </trkpt>
      <trkpt lat="51.678098039701581" lon="0.43133701197803">
        <ele>58</ele>
        <time>2018-02-19T09:53:12Z</time>
      </trkpt>
      <trkpt lat="51.678079012781382" lon="0.431326031684875">
        <ele>58</ele>
        <time>2018-02-19T09:53:15Z</time>
      </trkpt>
      <trkpt lat="51.678073983639479" lon="0.431284038349986">
        <ele>58</ele>
        <time>2018-02-19T09:53:19Z</time>
      </trkpt>
      <trkpt lat="51.678073983639479" lon="0.431232992559671">
        <ele>58</ele>
        <time>2018-02-19T09:53:23Z</time>
      </trkpt>
      <trkpt lat="51.678059985861182" lon="0.431185970082879">
        <ele>58</ele>
        <time>2018-02-19T09:53:25Z</time>
      </trkpt>
      <trkpt lat="51.678050011396408" lon="0.431161997839808">
        <ele>58</ele>
        <time>2018-02-19T09:53:32Z</time>
      </trkpt>
      <trkpt lat="51.67805403470993" lon="0.431124027818441">
        <ele>58</ele>
        <time>2018-02-19T09:53:35Z</time>
      </trkpt>
      <trkpt lat="51.678043976426125" lon="0.431095026433468">
        <ele>58</ele>
        <time>2018-02-19T09:53:37Z</time>
      </trkpt>
      <trkpt lat="51.67801103554666" lon="0.431069964542985">
        <ele>58</ele>
        <time>2018-02-19T09:53:39Z</time>
      </trkpt>
      <trkpt lat="51.677988991141319" lon="0.431054960936308">
        <ele>58</ele>
        <time>2018-02-19T09:53:40Z</time>
      </trkpt>
      <trkpt lat="51.677973987534642" lon="0.43103601783514">
        <ele>58</ele>
        <time>2018-02-19T09:53:41Z</time>
      </trkpt>
      <trkpt lat="51.677957978099585" lon="0.431020008400083">
        <ele>58</ele>
        <time>2018-02-19T09:53:42Z</time>
      </trkpt>
      <trkpt lat="51.677933000028133" lon="0.430987989529967">
        <ele>58</ele>
        <time>2018-02-19T09:53:44Z</time>
      </trkpt>
      <trkpt lat="51.677908021956682" lon="0.430948007851839">
        <ele>58</ele>
        <time>2018-02-19T09:53:46Z</time>
      </trkpt>
      <trkpt lat="51.677879020571709" lon="0.430913977324963">
        <ele>58</ele>
        <time>2018-02-19T09:53:48Z</time>
      </trkpt>
      <trkpt lat="51.677852030843496" lon="0.430884975939989">
        <ele>58</ele>
        <time>2018-02-19T09:53:50Z</time>
      </trkpt>
      <trkpt lat="51.677834009751678" lon="0.430871983990073">
        <ele>58</ele>
        <time>2018-02-19T09:53:51Z</time>
      </trkpt>
      <trkpt lat="51.677815988659859" lon="0.430854968726635">
        <ele>58</ele>
        <time>2018-02-19T09:53:52Z</time>
      </trkpt>
      <trkpt lat="51.67779796756804" lon="0.430838037282228">
        <ele>58.092780512265598</ele>
        <time>2018-02-19T09:53:53Z</time>
      </trkpt>
      <trkpt lat="51.677780030295253" lon="0.43082001619041">
        <ele>59</ele>
        <time>2018-02-19T09:53:54Z</time>
      </trkpt>
      <trkpt lat="51.677765026688576" lon="0.43080098927021">
        <ele>59</ele>
        <time>2018-02-19T09:53:55Z</time>
      </trkpt>
      <trkpt lat="51.677739964798093" lon="0.430770982056856">
        <ele>59</ele>
        <time>2018-02-19T09:53:57Z</time>
      </trkpt>
      <trkpt lat="51.67771004140377" lon="0.430741980671883">
        <ele>59.119999999999997</ele>
        <time>2018-02-19T09:53:59Z</time>
      </trkpt>
      <trkpt lat="51.677694031968713" lon="0.430724965408444">
        <ele>60</ele>
        <time>2018-02-19T09:54:00Z</time>
      </trkpt>
      <trkpt lat="51.677679028362036" lon="0.430707028135657">
        <ele>60</ele>
        <time>2018-02-19T09:54:01Z</time>
      </trkpt>
      <trkpt lat="51.677650026977062" lon="0.430677020922303">
        <ele>60</ele>
        <time>2018-02-19T09:54:03Z</time>
      </trkpt>
      <trkpt lat="51.677635023370385" lon="0.430660005658865">
        <ele>60</ele>
        <time>2018-02-19T09:54:04Z</time>
      </trkpt>
      <trkpt lat="51.677609039470553" lon="0.430620023980737">
        <ele>61</ele>
        <time>2018-02-19T09:54:06Z</time>
      </trkpt>
      <trkpt lat="51.677595963701606" lon="0.430597979575396">
        <ele>61</ele>
        <time>2018-02-19T09:54:07Z</time>
      </trkpt>
      <trkpt lat="51.677578026428819" lon="0.430577024817467">
        <ele>61</ele>
        <time>2018-02-19T09:54:08Z</time>
      </trkpt>
      <trkpt lat="51.677562016993761" lon="0.430553974583745">
        <ele>61.0833333333333</ele>
        <time>2018-02-19T09:54:09Z</time>
      </trkpt>
      <trkpt lat="51.67753703892231" lon="0.43051902204752">
        <ele>62</ele>
        <time>2018-02-19T09:54:11Z</time>
      </trkpt>
      <trkpt lat="51.677522035315633" lon="0.430496977642179">
        <ele>62</ele>
        <time>2018-02-19T09:54:12Z</time>
      </trkpt>
      <trkpt lat="51.677511977031827" lon="0.430474011227489">
        <ele>62</ele>
        <time>2018-02-19T09:54:13Z</time>
      </trkpt>
      <trkpt lat="51.677483981475234" lon="0.430436041206121">
        <ele>62</ele>
        <time>2018-02-19T09:54:15Z</time>
      </trkpt>
      <trkpt lat="51.677455985918641" lon="0.43041399680078">
        <ele>62</ele>
        <time>2018-02-19T09:54:17Z</time>
      </trkpt>
      <trkpt lat="51.677439976483583" lon="0.430394969880581">
        <ele>62</ele>
        <time>2018-02-19T09:54:18Z</time>
      </trkpt>
      <trkpt lat="51.677422961220145" lon="0.430378960445523">
        <ele>62</ele>
        <time>2018-02-19T09:54:19Z</time>
      </trkpt>
      <trkpt lat="51.677406029775739" lon="0.430366974323988">
        <ele>62</ele>
        <time>2018-02-19T09:54:20Z</time>
      </trkpt>
      <trkpt lat="51.677384991198778" lon="0.430352976545691">
        <ele>62</ele>
        <time>2018-02-19T09:54:21Z</time>
      </trkpt>
      <trkpt lat="51.677364958450198" lon="0.430335039272904">
        <ele>62</ele>
        <time>2018-02-19T09:54:22Z</time>
      </trkpt>
      <trkpt lat="51.677344003692269" lon="0.430317018181086">
        <ele>62</ele>
        <time>2018-02-19T09:54:23Z</time>
      </trkpt>
      <trkpt lat="51.677321959286928" lon="0.430300002917647">
        <ele>62</ele>
        <time>2018-02-19T09:54:24Z</time>
      </trkpt>
      <trkpt lat="51.677306033670902" lon="0.430286005139351">
        <ele>62</ele>
        <time>2018-02-19T09:54:25Z</time>
      </trkpt>
      <trkpt lat="51.677275020629168" lon="0.430249962955713">
        <ele>62</ele>
        <time>2018-02-19T09:54:27Z</time>
      </trkpt>
      <trkpt lat="51.677261022850871" lon="0.430225990712643">
        <ele>62</ele>
        <time>2018-02-19T09:54:28Z</time>
      </trkpt>
      <trkpt lat="51.677243001759052" lon="0.430201012641191">
        <ele>62</ele>
        <time>2018-02-19T09:54:29Z</time>
      </trkpt>
      <trkpt lat="51.677227998152375" lon="0.430182991549373">
        <ele>62</ele>
        <time>2018-02-19T09:54:30Z</time>
      </trkpt>
      <trkpt lat="51.677209977060556" lon="0.430163964629173">
        <ele>63</ele>
        <time>2018-02-19T09:54:31Z</time>
      </trkpt>
      <trkpt lat="51.677192039787769" lon="0.430138986557722">
        <ele>63</ele>
        <time>2018-02-19T09:54:32Z</time>
      </trkpt>
      <trkpt lat="51.677174018695951" lon="0.430116020143032">
        <ele>63</ele>
        <time>2018-02-19T09:54:33Z</time>
      </trkpt>
      <trkpt lat="51.677155997604132" lon="0.430093975737691">
        <ele>63</ele>
        <time>2018-02-19T09:54:34Z</time>
      </trkpt>
      <trkpt lat="51.677140993997455" lon="0.430067991837859">
        <ele>63</ele>
        <time>2018-02-19T09:54:35Z</time>
      </trkpt>
      <trkpt lat="51.677128002047539" lon="0.43004603125155">
        <ele>63</ele>
        <time>2018-02-19T09:54:36Z</time>
      </trkpt>
      <trkpt lat="51.677112998440862" lon="0.430024992674589">
        <ele>63</ele>
        <time>2018-02-19T09:54:37Z</time>
      </trkpt>
      <trkpt lat="51.677100006490946" lon="0.430001020431519">
        <ele>63</ele>
        <time>2018-02-19T09:54:38Z</time>
      </trkpt>
      <trkpt lat="51.677075028419495" lon="0.4299639724195">
        <ele>63</ele>
        <time>2018-02-19T09:54:40Z</time>
      </trkpt>
      <trkpt lat="51.677045021206141" lon="0.429930025711656">
        <ele>63.119999999999997</ele>
        <time>2018-02-19T09:54:42Z</time>
      </trkpt>
      <trkpt lat="51.677030017599463" lon="0.429906975477934">
        <ele>64</ele>
        <time>2018-02-19T09:54:43Z</time>
      </trkpt>
      <trkpt lat="51.677016019821167" lon="0.429878979921341">
        <ele>64</ele>
        <time>2018-02-19T09:54:44Z</time>
      </trkpt>
      <trkpt lat="51.677000010386109" lon="0.429856013506651">
        <ele>64</ele>
        <time>2018-02-19T09:54:45Z</time>
      </trkpt>
      <trkpt lat="51.676979977637529" lon="0.42983497492969">
        <ele>64</ele>
        <time>2018-02-19T09:54:46Z</time>
      </trkpt>
      <trkpt lat="51.676963968202472" lon="0.429814020171762">
        <ele>64</ele>
        <time>2018-02-19T09:54:47Z</time>
      </trkpt>
      <trkpt lat="51.676938990131021" lon="0.429771021008492">
        <ele>64</ele>
        <time>2018-02-19T09:54:49Z</time>
      </trkpt>
      <trkpt lat="51.676924992352724" lon="0.429750988259912">
        <ele>64</ele>
        <time>2018-02-19T09:54:50Z</time>
      </trkpt>
      <trkpt lat="51.676913006231189" lon="0.429729027673602">
        <ele>64</ele>
        <time>2018-02-19T09:54:51Z</time>
      </trkpt>
      <trkpt lat="51.676898002624512" lon="0.42970597743988">
        <ele>64</ele>
        <time>2018-02-19T09:54:52Z</time>
      </trkpt>
      <trkpt lat="51.676879981532693" lon="0.429685022681952">
        <ele>64</ele>
        <time>2018-02-19T09:54:53Z</time>
      </trkpt>
      <trkpt lat="51.676863972097635" lon="0.429665995761752">
        <ele>64</ele>
        <time>2018-02-19T09:54:54Z</time>
      </trkpt>
      <trkpt lat="51.676848968490958" lon="0.429643029347062">
        <ele>64</ele>
        <time>2018-02-19T09:54:55Z</time>
      </trkpt>
      <trkpt lat="51.676835976541042" lon="0.429620984941721">
        <ele>64</ele>
        <time>2018-02-19T09:54:56Z</time>
      </trkpt>
      <trkpt lat="51.676820972934365" lon="0.429590977728367">
        <ele>64</ele>
        <time>2018-02-19T09:54:57Z</time>
      </trkpt>
      <trkpt lat="51.676806975156069" lon="0.429561976343393">
        <ele>64</ele>
        <time>2018-02-19T09:54:58Z</time>
      </trkpt>
      <trkpt lat="51.676791971549392" lon="0.429531969130039">
        <ele>64</ele>
        <time>2018-02-19T09:54:59Z</time>
      </trkpt>
      <trkpt lat="51.676778979599476" lon="0.429504979401827">
        <ele>64</ele>
        <time>2018-02-19T09:55:00Z</time>
      </trkpt>
      <trkpt lat="51.676764981821179" lon="0.429486036300659">
        <ele>64</ele>
        <time>2018-02-19T09:55:01Z</time>
      </trkpt>
      <trkpt lat="51.67674302123487" lon="0.429458040744066">
        <ele>64.033057938665607</ele>
        <time>2018-02-19T09:55:03Z</time>
      </trkpt>
      <trkpt lat="51.676728017628193" lon="0.429437002167106">
        <ele>65</ele>
        <time>2018-02-19T09:55:16Z</time>
      </trkpt>
      <trkpt lat="51.676706979051232" lon="0.429461980238557">
        <ele>65</ele>
        <time>2018-02-19T09:55:28Z</time>
      </trkpt>
      <trkpt lat="51.676688035950065" lon="0.429475978016853">
        <ele>66</ele>
        <time>2018-02-19T09:55:35Z</time>
      </trkpt>
      <trkpt lat="51.676666997373104" lon="0.429472038522363">
        <ele>66</ele>
        <time>2018-02-19T09:55:48Z</time>
      </trkpt>
      <trkpt lat="51.676656017079949" lon="0.429496010765433">
        <ele>66</ele>
        <time>2018-02-19T09:55:50Z</time>
      </trkpt>
      <trkpt lat="51.676635984331369" lon="0.429515037685633">
        <ele>66</ele>
        <time>2018-02-19T09:55:52Z</time>
      </trkpt>
      <trkpt lat="51.676617963239551" lon="0.429525012150407">
        <ele>66</ele>
        <time>2018-02-19T09:55:53Z</time>
      </trkpt>
      <trkpt lat="51.676597008481622" lon="0.429535992443562">
        <ele>66</ele>
        <time>2018-02-19T09:55:54Z</time>
      </trkpt>
      <trkpt lat="51.676577981561422" lon="0.429544961079955">
        <ele>66</ele>
        <time>2018-02-19T09:55:55Z</time>
      </trkpt>
      <trkpt lat="51.676557026803493" lon="0.42955401353538">
        <ele>66</ele>
        <time>2018-02-19T09:55:56Z</time>
      </trkpt>
      <trkpt lat="51.676533976569772" lon="0.429562982171774">
        <ele>66</ele>
        <time>2018-02-19T09:55:57Z</time>
      </trkpt>
      <trkpt lat="51.676508998498321" lon="0.429574968293309">
        <ele>66</ele>
        <time>2018-02-19T09:55:58Z</time>
      </trkpt>
      <trkpt lat="51.676489971578121" lon="0.429586032405496">
        <ele>66</ele>
        <time>2018-02-19T09:55:59Z</time>
      </trkpt>
      <trkpt lat="51.676468010991812" lon="0.429599024355412">
        <ele>66</ele>
        <time>2018-02-19T09:56:00Z</time>
      </trkpt>
      <trkpt lat="51.676448984071612" lon="0.429610004648566">
        <ele>66</ele>
        <time>2018-02-19T09:56:01Z</time>
      </trkpt>
      <trkpt lat="51.676431968808174" lon="0.429620984941721">
        <ele>66</ele>
        <time>2018-02-19T09:56:02Z</time>
      </trkpt>
      <trkpt lat="51.676415037363768" lon="0.429632971063256">
        <ele>66</ele>
        <time>2018-02-19T09:56:03Z</time>
      </trkpt>
      <trkpt lat="51.676398022100329" lon="0.429644035175443">
        <ele>66</ele>
        <time>2018-02-19T09:56:04Z</time>
      </trkpt>
      <trkpt lat="51.67637899518013" lon="0.429655015468597">
        <ele>66</ele>
        <time>2018-02-19T09:56:05Z</time>
      </trkpt>
      <trkpt lat="51.676357034593821" lon="0.429665995761752">
        <ele>66</ele>
        <time>2018-02-19T09:56:06Z</time>
      </trkpt>
      <trkpt lat="51.676337001845241" lon="0.429679993540049">
        <ele>66.109090274383902</ele>
        <time>2018-02-19T09:56:07Z</time>
      </trkpt>
      <trkpt lat="51.676316969096661" lon="0.429688040167093">
        <ele>67</ele>
        <time>2018-02-19T09:56:08Z</time>
      </trkpt>
      <trkpt lat="51.676296014338732" lon="0.429698014631867">
        <ele>67</ele>
        <time>2018-02-19T09:56:09Z</time>
      </trkpt>
      <trkpt lat="51.676275981590152" lon="0.429712012410164">
        <ele>67</ele>
        <time>2018-02-19T09:56:10Z</time>
      </trkpt>
      <trkpt lat="51.676257038488984" lon="0.429727016016841">
        <ele>67</ele>
        <time>2018-02-19T09:56:11Z</time>
      </trkpt>
      <trkpt lat="51.676238011568785" lon="0.429742019623518">
        <ele>67</ele>
        <time>2018-02-19T09:56:12Z</time>
      </trkpt>
      <trkpt lat="51.676219990476966" lon="0.429752999916673">
        <ele>67</ele>
        <time>2018-02-19T09:56:13Z</time>
      </trkpt>
      <trkpt lat="51.676185037940741" lon="0.429775966331363">
        <ele>67</ele>
        <time>2018-02-19T09:56:15Z</time>
      </trkpt>
      <trkpt lat="51.67616399936378" lon="0.429789964109659">
        <ele>67</ele>
        <time>2018-02-19T09:56:16Z</time>
      </trkpt>
      <trkpt lat="51.676145978271961" lon="0.429802034050226">
        <ele>67</ele>
        <time>2018-02-19T09:56:17Z</time>
      </trkpt>
      <trkpt lat="51.676129968836904" lon="0.429817037656903">
        <ele>67</ele>
        <time>2018-02-19T09:56:18Z</time>
      </trkpt>
      <trkpt lat="51.676108008250594" lon="0.42983204126358">
        <ele>67</ele>
        <time>2018-02-19T09:56:19Z</time>
      </trkpt>
      <trkpt lat="51.676086969673634" lon="0.429844027385116">
        <ele>67</ele>
        <time>2018-02-19T09:56:20Z</time>
      </trkpt>
      <trkpt lat="51.676064003258944" lon="0.42985400184989">
        <ele>67</ele>
        <time>2018-02-19T09:56:21Z</time>
      </trkpt>
      <trkpt lat="51.676040031015873" lon="0.429862970486283">
        <ele>67</ele>
        <time>2018-02-19T09:56:22Z</time>
      </trkpt>
      <trkpt lat="51.676015974953771" lon="0.429873028770089">
        <ele>67</ele>
        <time>2018-02-19T09:56:23Z</time>
      </trkpt>
      <trkpt lat="51.675995020195842" lon="0.429881997406483">
        <ele>67</ele>
        <time>2018-02-19T09:56:24Z</time>
      </trkpt>
      <trkpt lat="51.675974987447262" lon="0.429893983528018">
        <ele>67</ele>
        <time>2018-02-19T09:56:25Z</time>
      </trkpt>
      <trkpt lat="51.675956966355443" lon="0.429905969649553">
        <ele>67</ele>
        <time>2018-02-19T09:56:26Z</time>
      </trkpt>
      <trkpt lat="51.675936011597514" lon="0.429914016276598">
        <ele>67</ele>
        <time>2018-02-19T09:56:27Z</time>
      </trkpt>
      <trkpt lat="51.675914973020554" lon="0.429928014054894">
        <ele>67</ele>
        <time>2018-02-19T09:56:28Z</time>
      </trkpt>
      <trkpt lat="51.675895024091005" lon="0.429942011833191">
        <ele>67</ele>
        <time>2018-02-19T09:56:29Z</time>
      </trkpt>
      <trkpt lat="51.675877002999187" lon="0.429949974641204">
        <ele>67</ele>
        <time>2018-02-19T09:56:30Z</time>
      </trkpt>
      <trkpt lat="51.675844984129071" lon="0.429970007389784">
        <ele>67</ele>
        <time>2018-02-19T09:56:32Z</time>
      </trkpt>
      <trkpt lat="51.675826041027904" lon="0.42998400516808">
        <ele>67</ele>
        <time>2018-02-19T09:56:33Z</time>
      </trkpt>
      <trkpt lat="51.675807014107704" lon="0.429992973804474">
        <ele>67</ele>
        <time>2018-02-19T09:56:34Z</time>
      </trkpt>
      <trkpt lat="51.675787987187505" lon="0.430002026259899">
        <ele>67</ele>
        <time>2018-02-19T09:56:35Z</time>
      </trkpt>
      <trkpt lat="51.675770971924067" lon="0.43000596575439">
        <ele>67</ele>
        <time>2018-02-19T09:56:36Z</time>
      </trkpt>
      <trkpt lat="51.675739958882332" lon="0.430028010159731">
        <ele>67</ele>
        <time>2018-02-19T09:56:38Z</time>
      </trkpt>
      <trkpt lat="51.675722021609545" lon="0.430035972967744">
        <ele>67</ele>
        <time>2018-02-19T09:56:39Z</time>
      </trkpt>
      <trkpt lat="51.675693020224571" lon="0.430053994059563">
        <ele>67</ele>
        <time>2018-02-19T09:56:41Z</time>
      </trkpt>
      <trkpt lat="51.675674999132752" lon="0.430063968524337">
        <ele>67</ele>
        <time>2018-02-19T09:56:42Z</time>
      </trkpt>
      <trkpt lat="51.675642980262637" lon="0.430081989616156">
        <ele>67</ele>
        <time>2018-02-19T09:56:44Z</time>
      </trkpt>
      <trkpt lat="51.675610039383173" lon="0.430100010707974">
        <ele>67</ele>
        <time>2018-02-19T09:56:46Z</time>
      </trkpt>
      <trkpt lat="51.675575003027916" lon="0.430116020143032">
        <ele>67</ele>
        <time>2018-02-19T09:56:48Z</time>
      </trkpt>
      <trkpt lat="51.675543989986181" lon="0.430128006264567">
        <ele>67</ele>
        <time>2018-02-19T09:56:50Z</time>
      </trkpt>
      <trkpt lat="51.675511971116066" lon="0.430145021528006">
        <ele>67</ele>
        <time>2018-02-19T09:56:52Z</time>
      </trkpt>
      <trkpt lat="51.675480036064982" lon="0.430162958800793">
        <ele>67.1111111111111</ele>
        <time>2018-02-19T09:56:54Z</time>
      </trkpt>
      <trkpt lat="51.675450028851628" lon="0.430179974064231">
        <ele>68</ele>
        <time>2018-02-19T09:56:56Z</time>
      </trkpt>
      <trkpt lat="51.675417004153132" lon="0.430196989327669">
        <ele>68</ele>
        <time>2018-02-19T09:56:58Z</time>
      </trkpt>
      <trkpt lat="51.675383979454637" lon="0.430211992934346">
        <ele>68</ele>
        <time>2018-02-19T09:57:00Z</time>
      </trkpt>
      <trkpt lat="51.675364030525088" lon="0.43021903373301">
        <ele>68</ele>
        <time>2018-02-19T09:57:01Z</time>
      </trkpt>
      <trkpt lat="51.67534701526165" lon="0.430231019854546">
        <ele>68</ele>
        <time>2018-02-19T09:57:02Z</time>
      </trkpt>
      <trkpt lat="51.67532597668469" lon="0.4302420001477">
        <ele>68.032970433510599</ele>
        <time>2018-02-19T09:57:03Z</time>
      </trkpt>
      <trkpt lat="51.675299992784858" lon="0.430253986269236">
        <ele>69</ele>
        <time>2018-02-19T09:57:04Z</time>
      </trkpt>
      <trkpt lat="51.675279960036278" lon="0.43026396073401">
        <ele>69</ele>
        <time>2018-02-19T09:57:05Z</time>
      </trkpt>
      <trkpt lat="51.675262022763491" lon="0.430275024846196">
        <ele>69</ele>
        <time>2018-02-19T09:57:06Z</time>
      </trkpt>
      <trkpt lat="51.675242995843291" lon="0.430289022624493">
        <ele>69</ele>
        <time>2018-02-19T09:57:07Z</time>
      </trkpt>
      <trkpt lat="51.675215000286698" lon="0.430311989039183">
        <ele>69</ele>
        <time>2018-02-19T09:57:09Z</time>
      </trkpt>
      <trkpt lat="51.675193961709738" lon="0.43032799847424">
        <ele>69.120000000000005</ele>
        <time>2018-02-19T09:57:11Z</time>
      </trkpt>
      <trkpt lat="51.675177030265331" lon="0.430337972939014">
        <ele>70</ele>
        <time>2018-02-19T09:57:13Z</time>
      </trkpt>
      <trkpt lat="51.675159009173512" lon="0.430349037051201">
        <ele>69.8867917693088</ele>
        <time>2018-02-19T09:57:15Z</time>
      </trkpt>
      <trkpt lat="51.675138976424932" lon="0.43035096488893">
        <ele>69</ele>
        <time>2018-02-19T09:57:25Z</time>
      </trkpt>
      <trkpt lat="51.675119027495384" lon="0.430359011515975">
        <ele>69</ele>
        <time>2018-02-19T09:57:28Z</time>
      </trkpt>
      <trkpt lat="51.675095977261662" lon="0.430374015122652">
        <ele>70</ele>
        <time>2018-02-19T09:57:34Z</time>
      </trkpt>
      <trkpt lat="51.67506798170507" lon="0.430387007072568">
        <ele>70</ele>
        <time>2018-02-19T09:57:36Z</time>
      </trkpt>
      <trkpt lat="51.67504501529038" lon="0.430399999022484">
        <ele>70</ele>
        <time>2018-02-19T09:57:37Z</time>
      </trkpt>
      <trkpt lat="51.675006961449981" lon="0.430417014285922">
        <ele>70</ele>
        <time>2018-02-19T09:57:39Z</time>
      </trkpt>
      <trkpt lat="51.674986006692052" lon="0.430430006235838">
        <ele>70</ele>
        <time>2018-02-19T09:57:40Z</time>
      </trkpt>
      <trkpt lat="51.674963040277362" lon="0.430448027327657">
        <ele>70</ele>
        <time>2018-02-19T09:57:41Z</time>
      </trkpt>
      <trkpt lat="51.67493999004364" lon="0.430463030934334">
        <ele>70</ele>
        <time>2018-02-19T09:57:42Z</time>
      </trkpt>
      <trkpt lat="51.674915011972189" lon="0.430471999570727">
        <ele>70</ele>
        <time>2018-02-19T09:57:43Z</time>
      </trkpt>
      <trkpt lat="51.674889028072357" lon="0.430470993742347">
        <ele>70.120000000000005</ele>
        <time>2018-02-19T09:57:44Z</time>
      </trkpt>
      <trkpt lat="51.674865977838635" lon="0.430463030934334">
        <ele>71</ele>
        <time>2018-02-19T09:57:45Z</time>
      </trkpt>
      <trkpt lat="51.674842005595565" lon="0.430458001792431">
        <ele>71</ele>
        <time>2018-02-19T09:57:46Z</time>
      </trkpt>
      <trkpt lat="51.674817027524114" lon="0.430452972650528">
        <ele>71</ele>
        <time>2018-02-19T09:57:47Z</time>
      </trkpt>
      <trkpt lat="51.674794983118773" lon="0.430449033156037">
        <ele>71</ele>
        <time>2018-02-19T09:57:48Z</time>
      </trkpt>
      <trkpt lat="51.674774028360844" lon="0.430444004014134">
        <ele>71</ele>
        <time>2018-02-19T09:57:49Z</time>
      </trkpt>
      <trkpt lat="51.674750978127122" lon="0.430441992357373">
        <ele>71</ele>
        <time>2018-02-19T09:57:50Z</time>
      </trkpt>
      <trkpt lat="51.674730023369193" lon="0.43043696321547">
        <ele>71</ele>
        <time>2018-02-19T09:57:51Z</time>
      </trkpt>
      <trkpt lat="51.674709990620613" lon="0.430430006235838">
        <ele>71</ele>
        <time>2018-02-19T09:57:52Z</time>
      </trkpt>
      <trkpt lat="51.674690041691065" lon="0.430423971265554">
        <ele>71</ele>
        <time>2018-02-19T09:57:53Z</time>
      </trkpt>
      <trkpt lat="51.674672020599246" lon="0.43041399680078">
        <ele>71</ele>
        <time>2018-02-19T09:57:54Z</time>
      </trkpt>
      <trkpt lat="51.67463899590075" lon="0.430397987365723">
        <ele>71</ele>
        <time>2018-02-19T09:57:56Z</time>
      </trkpt>
      <trkpt lat="51.674618041142821" lon="0.430394969880581">
        <ele>71</ele>
        <time>2018-02-19T09:57:57Z</time>
      </trkpt>
      <trkpt lat="51.674598008394241" lon="0.43039002455771">
        <ele>71</ele>
        <time>2018-02-19T09:57:58Z</time>
      </trkpt>
      <trkpt lat="51.674565989524126" lon="0.430378960445523">
        <ele>71</ele>
        <time>2018-02-19T09:58:00Z</time>
      </trkpt>
      <trkpt lat="51.674548974260688" lon="0.430368985980749">
        <ele>71</ele>
        <time>2018-02-19T09:58:01Z</time>
      </trkpt>
      <trkpt lat="51.67453195899725" lon="0.430360017344356">
        <ele>71</ele>
        <time>2018-02-19T09:58:02Z</time>
      </trkpt>
      <trkpt lat="51.674512010067701" lon="0.430352976545691">
        <ele>71</ele>
        <time>2018-02-19T09:58:03Z</time>
      </trkpt>
      <trkpt lat="51.674491977319121" lon="0.430346019566059">
        <ele>71</ele>
        <time>2018-02-19T09:58:04Z</time>
      </trkpt>
      <trkpt lat="51.674473034217954" lon="0.430337972939014">
        <ele>71</ele>
        <time>2018-02-19T09:58:05Z</time>
      </trkpt>
      <trkpt lat="51.674440009519458" lon="0.430322969332337">
        <ele>71</ele>
        <time>2018-02-19T09:58:07Z</time>
      </trkpt>
      <trkpt lat="51.674406984820962" lon="0.430306037887931">
        <ele>71</ele>
        <time>2018-02-19T09:58:09Z</time>
      </trkpt>
      <trkpt lat="51.674388041719794" lon="0.430297991260886">
        <ele>71</ele>
        <time>2018-02-19T09:58:10Z</time>
      </trkpt>
      <trkpt lat="51.67435702867806" lon="0.430277958512306">
        <ele>71</ele>
        <time>2018-02-19T09:58:12Z</time>
      </trkpt>
      <trkpt lat="51.674333978444338" lon="0.43026203289628">
        <ele>71</ele>
        <time>2018-02-19T09:58:14Z</time>
      </trkpt>
      <trkpt lat="51.674313023686409" lon="0.430243005976081">
        <ele>71.043478260869605</ele>
        <time>2018-02-19T09:58:16Z</time>
      </trkpt>
      <trkpt lat="51.674297014251351" lon="0.430226996541023">
        <ele>72</ele>
        <time>2018-02-19T09:58:18Z</time>
      </trkpt>
      <trkpt lat="51.674272958189249" lon="0.430214004591107">
        <ele>72</ele>
        <time>2018-02-19T09:58:21Z</time>
      </trkpt>
      <trkpt lat="51.674253009259701" lon="0.430204030126333">
        <ele>72</ele>
        <time>2018-02-19T09:58:23Z</time>
      </trkpt>
      <trkpt lat="51.674235993996263" lon="0.430189026519656">
        <ele>72</ele>
        <time>2018-02-19T09:58:25Z</time>
      </trkpt>
      <trkpt lat="51.674214033409953" lon="0.430162036791444">
        <ele>72</ele>
        <time>2018-02-19T09:58:28Z</time>
      </trkpt>
      <trkpt lat="51.674203975126147" lon="0.430121971294284">
        <ele>72</ele>
        <time>2018-02-19T09:58:30Z</time>
      </trkpt>
      <trkpt lat="51.674191989004612" lon="0.430096993222833">
        <ele>73</ele>
        <time>2018-02-19T09:58:32Z</time>
      </trkpt>
      <trkpt lat="51.674176985397935" lon="0.430059023201466">
        <ele>73</ele>
        <time>2018-02-19T09:58:34Z</time>
      </trkpt>
      <trkpt lat="51.674167010933161" lon="0.430034967139363">
        <ele>73</ele>
        <time>2018-02-19T09:58:35Z</time>
      </trkpt>
      <trkpt lat="51.674147984012961" lon="0.429993979632854">
        <ele>73</ele>
        <time>2018-02-19T09:58:37Z</time>
      </trkpt>
      <trkpt lat="51.674140021204948" lon="0.429950980469584">
        <ele>72</ele>
        <time>2018-02-19T09:58:39Z</time>
      </trkpt>
      <trkpt lat="51.674138009548187" lon="0.429912004619837">
        <ele>72</ele>
        <time>2018-02-19T09:58:41Z</time>
      </trkpt>
      <trkpt lat="51.674143960699439" lon="0.429867999628186">
        <ele>72</ele>
        <time>2018-02-19T09:58:43Z</time>
      </trkpt>
      <trkpt lat="51.674140021204948" lon="0.429840004071593">
        <ele>72</ele>
        <time>2018-02-19T09:58:46Z</time>
      </trkpt>
      <trkpt lat="51.674119988456368" lon="0.42985500767827">
        <ele>72</ele>
        <time>2018-02-19T09:58:55Z</time>
      </trkpt>
      <trkpt lat="51.674110013991594" lon="0.429893983528018">
        <ele>71</ele>
        <time>2018-02-19T09:58:58Z</time>
      </trkpt>
      <trkpt lat="51.67410297319293" lon="0.429932037368417">
        <ele>71.106194990994695</ele>
        <time>2018-02-19T09:59:00Z</time>
      </trkpt>
      <trkpt lat="51.674095010384917" lon="0.429971013218164">
        <ele>72</ele>
        <time>2018-02-19T09:59:02Z</time>
      </trkpt>
      <trkpt lat="51.674088975414634" lon="0.430000014603138">
        <ele>72</ele>
        <time>2018-02-19T09:59:03Z</time>
      </trkpt>
      <trkpt lat="51.674082018435001" lon="0.430035972967744">
        <ele>72</ele>
        <time>2018-02-19T09:59:04Z</time>
      </trkpt>
      <trkpt lat="51.674074977636337" lon="0.430073020979762">
        <ele>72</ele>
        <time>2018-02-19T09:59:05Z</time>
      </trkpt>
      <trkpt lat="51.674069026485085" lon="0.430115014314651">
        <ele>72</ele>
        <time>2018-02-19T09:59:06Z</time>
      </trkpt>
      <trkpt lat="51.674066008999944" lon="0.430153990164399">
        <ele>72</ele>
        <time>2018-02-19T09:59:07Z</time>
      </trkpt>
      <trkpt lat="51.674063997343183" lon="0.430192966014147">
        <ele>72</ele>
        <time>2018-02-19T09:59:08Z</time>
      </trkpt>
      <trkpt lat="51.674061985686421" lon="0.430230014026165">
        <ele>72</ele>
        <time>2018-02-19T09:59:09Z</time>
      </trkpt>
      <trkpt lat="51.674063997343183" lon="0.43026396073401">
        <ele>72</ele>
        <time>2018-02-19T09:59:10Z</time>
      </trkpt>
      <trkpt lat="51.674062991514802" lon="0.430300002917647">
        <ele>72</ele>
        <time>2018-02-19T09:59:11Z</time>
      </trkpt>
      <trkpt lat="51.674061985686421" lon="0.430333027616143">
        <ele>72</ele>
        <time>2018-02-19T09:59:12Z</time>
      </trkpt>
      <trkpt lat="51.674060979858041" lon="0.430368985980749">
        <ele>72</ele>
        <time>2018-02-19T09:59:13Z</time>
      </trkpt>
      <trkpt lat="51.67405704036355" lon="0.430405028164387">
        <ele>72</ele>
        <time>2018-02-19T09:59:14Z</time>
      </trkpt>
      <trkpt lat="51.674052011221647" lon="0.430439980700612">
        <ele>72</ele>
        <time>2018-02-19T09:59:15Z</time>
      </trkpt>
      <trkpt lat="51.674049999564886" lon="0.430479040369391">
        <ele>73</ele>
        <time>2018-02-19T09:59:16Z</time>
      </trkpt>
      <trkpt lat="51.674043964594603" lon="0.430514998733997">
        <ele>73</ele>
        <time>2018-02-19T09:59:17Z</time>
      </trkpt>
      <trkpt lat="51.674034995958209" lon="0.430552968755364">
        <ele>73</ele>
        <time>2018-02-19T09:59:18Z</time>
      </trkpt>
      <trkpt lat="51.674026027321815" lon="0.430586999282241">
        <ele>73</ele>
        <time>2018-02-19T09:59:19Z</time>
      </trkpt>
      <trkpt lat="51.6740130353719" lon="0.430620023980737">
        <ele>73</ele>
        <time>2018-02-19T09:59:20Z</time>
      </trkpt>
      <trkpt lat="51.674000965431333" lon="0.430653970688581">
        <ele>73</ele>
        <time>2018-02-19T09:59:21Z</time>
      </trkpt>
      <trkpt lat="51.673989985138178" lon="0.430688001215458">
        <ele>73</ele>
        <time>2018-02-19T09:59:22Z</time>
      </trkpt>
      <trkpt lat="51.673977999016643" lon="0.430718008428812">
        <ele>73</ele>
        <time>2018-02-19T09:59:23Z</time>
      </trkpt>
      <trkpt lat="51.673966012895107" lon="0.430746003985405">
        <ele>73</ele>
        <time>2018-02-19T09:59:24Z</time>
      </trkpt>
      <trkpt lat="51.67395000346005" lon="0.430773999541998">
        <ele>73</ele>
        <time>2018-02-19T09:59:25Z</time>
      </trkpt>
      <trkpt lat="51.673936005681753" lon="0.43080098927021">
        <ele>73</ele>
        <time>2018-02-19T09:59:26Z</time>
      </trkpt>
      <trkpt lat="51.673919996246696" lon="0.430830996483564">
        <ele>73.120000000000005</ele>
        <time>2018-02-19T09:59:27Z</time>
      </trkpt>
      <trkpt lat="51.673905998468399" lon="0.430861003696918">
        <ele>74</ele>
        <time>2018-02-19T09:59:28Z</time>
      </trkpt>
      <trkpt lat="51.673892000690103" lon="0.430891010910273">
        <ele>74</ele>
        <time>2018-02-19T09:59:29Z</time>
      </trkpt>
      <trkpt lat="51.673876997083426" lon="0.430919006466866">
        <ele>74</ele>
        <time>2018-02-19T09:59:30Z</time>
      </trkpt>
      <trkpt lat="51.673862999305129" lon="0.430941972881556">
        <ele>74</ele>
        <time>2018-02-19T09:59:31Z</time>
      </trkpt>
      <trkpt lat="51.673846989870071" lon="0.430966028943658">
        <ele>74</ele>
        <time>2018-02-19T09:59:32Z</time>
      </trkpt>
      <trkpt lat="51.673829974606633" lon="0.430987989529967">
        <ele>74</ele>
        <time>2018-02-19T09:59:33Z</time>
      </trkpt>
      <trkpt lat="51.673815976828337" lon="0.431012967601419">
        <ele>74</ele>
        <time>2018-02-19T09:59:34Z</time>
      </trkpt>
      <trkpt lat="51.67380197905004" lon="0.431040963158011">
        <ele>74</ele>
        <time>2018-02-19T09:59:35Z</time>
      </trkpt>
      <trkpt lat="51.673792004585266" lon="0.431069964542985">
        <ele>74</ele>
        <time>2018-02-19T09:59:36Z</time>
      </trkpt>
      <trkpt lat="51.67377800680697" lon="0.431098965927958">
        <ele>74</ele>
        <time>2018-02-19T09:59:37Z</time>
      </trkpt>
      <trkpt lat="51.673765014857054" lon="0.431126039475203">
        <ele>73.879999999999995</ele>
        <time>2018-02-19T09:59:38Z</time>
      </trkpt>
      <trkpt lat="51.673754034563899" lon="0.431152023375034">
        <ele>73</ele>
        <time>2018-02-19T09:59:39Z</time>
      </trkpt>
      <trkpt lat="51.673742970451713" lon="0.431182030588388">
        <ele>73</ele>
        <time>2018-02-19T09:59:40Z</time>
      </trkpt>
      <trkpt lat="51.673731990158558" lon="0.431210026144981">
        <ele>73</ele>
        <time>2018-02-19T09:59:41Z</time>
      </trkpt>
      <trkpt lat="51.673720004037023" lon="0.431241961196065">
        <ele>73</ele>
        <time>2018-02-19T09:59:42Z</time>
      </trkpt>
      <trkpt lat="51.673709023743868" lon="0.431269034743309">
        <ele>73.0736873307374</ele>
        <time>2018-02-19T09:59:43Z</time>
      </trkpt>
      <trkpt lat="51.673697959631681" lon="0.431297030299902">
        <ele>74</ele>
        <time>2018-02-19T09:59:44Z</time>
      </trkpt>
      <trkpt lat="51.673685973510146" lon="0.431325025856495">
        <ele>74</ele>
        <time>2018-02-19T09:59:45Z</time>
      </trkpt>
      <trkpt lat="51.673677004873753" lon="0.431355033069849">
        <ele>74</ele>
        <time>2018-02-19T09:59:46Z</time>
      </trkpt>
      <trkpt lat="51.673663007095456" lon="0.431385040283203">
        <ele>74</ele>
        <time>2018-02-19T09:59:47Z</time>
      </trkpt>
      <trkpt lat="51.673653032630682" lon="0.431414963677526">
        <ele>74</ele>
        <time>2018-02-19T09:59:48Z</time>
      </trkpt>
      <trkpt lat="51.673641968518496" lon="0.431443965062499">
        <ele>74</ele>
        <time>2018-02-19T09:59:49Z</time>
      </trkpt>
      <trkpt lat="51.673630988225341" lon="0.431471960619092">
        <ele>74</ele>
        <time>2018-02-19T09:59:50Z</time>
      </trkpt>
      <trkpt lat="51.673622019588947" lon="0.431500962004066">
        <ele>74</ele>
        <time>2018-02-19T09:59:51Z</time>
      </trkpt>
      <trkpt lat="51.673610033467412" lon="0.431523006409407">
        <ele>74</ele>
        <time>2018-02-19T09:59:52Z</time>
      </trkpt>
      <trkpt lat="51.673597041517496" lon="0.431570028886199">
        <ele>74</ele>
        <time>2018-02-19T09:59:54Z</time>
      </trkpt>
      <trkpt lat="51.673588994890451" lon="0.43159500695765">
        <ele>74</ele>
        <time>2018-02-19T09:59:55Z</time>
      </trkpt>
      <trkpt lat="51.673577008768916" lon="0.431621996685863">
        <ele>74</ele>
        <time>2018-02-19T09:59:56Z</time>
      </trkpt>
      <trkpt lat="51.673567034304142" lon="0.431650998070836">
        <ele>74.120000000000005</ele>
        <time>2018-02-19T09:59:57Z</time>
      </trkpt>
      <trkpt lat="51.673557981848717" lon="0.431684022769332">
        <ele>75</ele>
        <time>2018-02-19T09:59:58Z</time>
      </trkpt>
      <trkpt lat="51.673548007383943" lon="0.431713024154305">
        <ele>75</ele>
        <time>2018-02-19T09:59:59Z</time>
      </trkpt>
      <trkpt lat="51.673537027090788" lon="0.43174403719604">
        <ele>75</ele>
        <time>2018-02-19T10:00:00Z</time>
      </trkpt>
      <trkpt lat="51.673525962978601" lon="0.431774966418743">
        <ele>75</ele>
        <time>2018-02-19T10:00:01Z</time>
      </trkpt>
      <trkpt lat="51.673511965200305" lon="0.431802961975336">
        <ele>75</ele>
        <time>2018-02-19T10:00:02Z</time>
      </trkpt>
      <trkpt lat="51.673501990735531" lon="0.43183003552258">
        <ele>74.879999999999995</ele>
        <time>2018-02-19T10:00:03Z</time>
      </trkpt>
      <trkpt lat="51.673490004613996" lon="0.431857025250793">
        <ele>74</ele>
        <time>2018-02-19T10:00:04Z</time>
      </trkpt>
      <trkpt lat="51.673472989350557" lon="0.431888038292527">
        <ele>74</ele>
        <time>2018-02-19T10:00:05Z</time>
      </trkpt>
      <trkpt lat="51.6734569799155" lon="0.431917039677501">
        <ele>74</ele>
        <time>2018-02-19T10:00:06Z</time>
      </trkpt>
      <trkpt lat="51.673439964652061" lon="0.431943023577333">
        <ele>74</ele>
        <time>2018-02-19T10:00:07Z</time>
      </trkpt>
      <trkpt lat="51.673427978530526" lon="0.431968001648784">
        <ele>74.852175461638595</ele>
        <time>2018-02-19T10:00:08Z</time>
      </trkpt>
      <trkpt lat="51.67341398075223" lon="0.432000020518899">
        <ele>75</ele>
        <time>2018-02-19T10:00:09Z</time>
      </trkpt>
      <trkpt lat="51.673396965488791" lon="0.432028016075492">
        <ele>75</ele>
        <time>2018-02-19T10:00:10Z</time>
      </trkpt>
      <trkpt lat="51.673379028216004" lon="0.432050982490182">
        <ele>75</ele>
        <time>2018-02-19T10:00:11Z</time>
      </trkpt>
      <trkpt lat="51.673357989639044" lon="0.432075960561633">
        <ele>75</ele>
        <time>2018-02-19T10:00:12Z</time>
      </trkpt>
      <trkpt lat="51.673338040709496" lon="0.432100016623735">
        <ele>75</ele>
        <time>2018-02-19T10:00:13Z</time>
      </trkpt>
      <trkpt lat="51.673319013789296" lon="0.432123988866806">
        <ele>75</ele>
        <time>2018-02-19T10:00:14Z</time>
      </trkpt>
      <trkpt lat="51.673301998525858" lon="0.432147961109877">
        <ele>75</ele>
        <time>2018-02-19T10:00:15Z</time>
      </trkpt>
      <trkpt lat="51.6732859890908" lon="0.432171011343598">
        <ele>75</ele>
        <time>2018-02-19T10:00:16Z</time>
      </trkpt>
      <trkpt lat="51.673266962170601" lon="0.432187020778656">
        <ele>75</ele>
        <time>2018-02-19T10:00:17Z</time>
      </trkpt>
      <trkpt lat="51.673248019069433" lon="0.432200012728572">
        <ele>75</ele>
        <time>2018-02-19T10:00:18Z</time>
      </trkpt>
      <trkpt lat="51.673227986320853" lon="0.432215016335249">
        <ele>75</ele>
        <time>2018-02-19T10:00:19Z</time>
      </trkpt>
      <trkpt lat="51.673210971057415" lon="0.432231025770307">
        <ele>75</ele>
        <time>2018-02-19T10:00:20Z</time>
      </trkpt>
      <trkpt lat="51.673192027956247" lon="0.432248041033745">
        <ele>75</ele>
        <time>2018-02-19T10:00:21Z</time>
      </trkpt>
      <trkpt lat="51.673174006864429" lon="0.432271007448435">
        <ele>75</ele>
        <time>2018-02-19T10:00:22Z</time>
      </trkpt>
      <trkpt lat="51.673161014914513" lon="0.432292968034744">
        <ele>75</ele>
        <time>2018-02-19T10:00:23Z</time>
      </trkpt>
      <trkpt lat="51.673149028792977" lon="0.432318029925227">
        <ele>75</ele>
        <time>2018-02-19T10:00:24Z</time>
      </trkpt>
      <trkpt lat="51.673132013529539" lon="0.432338984683156">
        <ele>75</ele>
        <time>2018-02-19T10:00:25Z</time>
      </trkpt>
      <trkpt lat="51.673114998266101" lon="0.432361029088497">
        <ele>75</ele>
        <time>2018-02-19T10:00:26Z</time>
      </trkpt>
      <trkpt lat="51.673095971345901" lon="0.432381983846426">
        <ele>75</ele>
        <time>2018-02-19T10:00:27Z</time>
      </trkpt>
      <trkpt lat="51.673080967739224" lon="0.432403022423387">
        <ele>75</ele>
        <time>2018-02-19T10:00:28Z</time>
      </trkpt>
      <trkpt lat="51.673064036294818" lon="0.432421965524554">
        <ele>75</ele>
        <time>2018-02-19T10:00:29Z</time>
      </trkpt>
      <trkpt lat="51.67304702103138" lon="0.432440992444754">
        <ele>75</ele>
        <time>2018-02-19T10:00:30Z</time>
      </trkpt>
      <trkpt lat="51.67302799411118" lon="0.432463036850095">
        <ele>75</ele>
        <time>2018-02-19T10:00:31Z</time>
      </trkpt>
      <trkpt lat="51.6730079613626" lon="0.432486003264785">
        <ele>75</ele>
        <time>2018-02-19T10:00:32Z</time>
      </trkpt>
      <trkpt lat="51.672990024089813" lon="0.432507963851094">
        <ele>75</ele>
        <time>2018-02-19T10:00:33Z</time>
      </trkpt>
      <trkpt lat="51.672974014654756" lon="0.432535959407687">
        <ele>75</ele>
        <time>2018-02-19T10:00:34Z</time>
      </trkpt>
      <trkpt lat="51.672956999391317" lon="0.432559009641409">
        <ele>75.120000000000005</ele>
        <time>2018-02-19T10:00:35Z</time>
      </trkpt>
      <trkpt lat="51.67294098995626" lon="0.432584993541241">
        <ele>76</ele>
        <time>2018-02-19T10:00:36Z</time>
      </trkpt>
      <trkpt lat="51.672925986349583" lon="0.432607037946582">
        <ele>76</ele>
        <time>2018-02-19T10:00:37Z</time>
      </trkpt>
      <trkpt lat="51.672909976914525" lon="0.432631010189652">
        <ele>76</ele>
        <time>2018-02-19T10:00:38Z</time>
      </trkpt>
      <trkpt lat="51.672894973307848" lon="0.432655988261104">
        <ele>76</ele>
        <time>2018-02-19T10:00:39Z</time>
      </trkpt>
      <trkpt lat="51.672881981357932" lon="0.432680966332555">
        <ele>75.893805009005305</ele>
        <time>2018-02-19T10:00:40Z</time>
      </trkpt>
      <trkpt lat="51.672865971922874" lon="0.432707034051418">
        <ele>75.008846750716501</ele>
        <time>2018-02-19T10:00:41Z</time>
      </trkpt>
      <trkpt lat="51.672852979972959" lon="0.43273301795125">
        <ele>75</ele>
        <time>2018-02-19T10:00:42Z</time>
      </trkpt>
      <trkpt lat="51.672839988023043" lon="0.432759001851082">
        <ele>75</ele>
        <time>2018-02-19T10:00:43Z</time>
      </trkpt>
      <trkpt lat="51.672825990244746" lon="0.432784985750914">
        <ele>75</ele>
        <time>2018-02-19T10:00:44Z</time>
      </trkpt>
      <trkpt lat="51.672814004123211" lon="0.432809963822365">
        <ele>75</ele>
        <time>2018-02-19T10:00:45Z</time>
      </trkpt>
      <trkpt lat="51.672800006344914" lon="0.432838965207338">
        <ele>75</ele>
        <time>2018-02-19T10:00:46Z</time>
      </trkpt>
      <trkpt lat="51.672783996909857" lon="0.432867966592312">
        <ele>75</ele>
        <time>2018-02-19T10:00:47Z</time>
      </trkpt>
      <trkpt lat="51.672772010788321" lon="0.432895962148905">
        <ele>75</ele>
        <time>2018-02-19T10:00:48Z</time>
      </trkpt>
      <trkpt lat="51.672759018838406" lon="0.432924963533878">
        <ele>75</ele>
        <time>2018-02-19T10:00:49Z</time>
      </trkpt>
      <trkpt lat="51.67274996638298" lon="0.432952959090471">
        <ele>75</ele>
        <time>2018-02-19T10:00:50Z</time>
      </trkpt>
      <trkpt lat="51.672736974433064" lon="0.432984977960587">
        <ele>75</ele>
        <time>2018-02-19T10:00:51Z</time>
      </trkpt>
      <trkpt lat="51.67272599413991" lon="0.43301397934556">
        <ele>75</ele>
        <time>2018-02-19T10:00:52Z</time>
      </trkpt>
      <trkpt lat="51.672718031331897" lon="0.433043986558914">
        <ele>75</ele>
        <time>2018-02-19T10:00:53Z</time>
      </trkpt>
      <trkpt lat="51.67270596139133" lon="0.433073993772268">
        <ele>75</ele>
        <time>2018-02-19T10:00:54Z</time>
      </trkpt>
      <trkpt lat="51.672689029946923" lon="0.433100983500481">
        <ele>75</ele>
        <time>2018-02-19T10:00:55Z</time>
      </trkpt>
      <trkpt lat="51.672675032168627" lon="0.433134008198977">
        <ele>75</ele>
        <time>2018-02-19T10:00:56Z</time>
      </trkpt>
      <trkpt lat="51.67266396805644" lon="0.43316300958395">
        <ele>75</ele>
        <time>2018-02-19T10:00:57Z</time>
      </trkpt>
      <trkpt lat="51.672652987763286" lon="0.433197040110826">
        <ele>75</ele>
        <time>2018-02-19T10:00:58Z</time>
      </trkpt>
      <trkpt lat="51.672643013298512" lon="0.43322897516191">
        <ele>75</ele>
        <time>2018-02-19T10:00:59Z</time>
      </trkpt>
      <trkpt lat="51.672634966671467" lon="0.433260994032025">
        <ele>75</ele>
        <time>2018-02-19T10:01:00Z</time>
      </trkpt>
      <trkpt lat="51.672628009691834" lon="0.433296030387282">
        <ele>75</ele>
        <time>2018-02-19T10:01:01Z</time>
      </trkpt>
      <trkpt lat="51.672625998035073" lon="0.433328971266747">
        <ele>75</ele>
        <time>2018-02-19T10:01:02Z</time>
      </trkpt>
      <trkpt lat="51.672621974721551" lon="0.433366019278765">
        <ele>75</ele>
        <time>2018-02-19T10:01:03Z</time>
      </trkpt>
      <trkpt lat="51.67261803522706" lon="0.433399965986609">
        <ele>75</ele>
        <time>2018-02-19T10:01:04Z</time>
      </trkpt>
      <trkpt lat="51.672608982771635" lon="0.433433996513486">
        <ele>75</ele>
        <time>2018-02-19T10:01:05Z</time>
      </trkpt>
      <trkpt lat="51.672605965286493" lon="0.433468027040362">
        <ele>75</ele>
        <time>2018-02-19T10:01:06Z</time>
      </trkpt>
      <trkpt lat="51.672605965286493" lon="0.433501973748207">
        <ele>75</ele>
        <time>2018-02-19T10:01:07Z</time>
      </trkpt>
      <trkpt lat="51.672604959458113" lon="0.433539021760225">
        <ele>75</ele>
        <time>2018-02-19T10:01:08Z</time>
      </trkpt>
      <trkpt lat="51.672604959458113" lon="0.433577997609973">
        <ele>75</ele>
        <time>2018-02-19T10:01:09Z</time>
      </trkpt>
      <trkpt lat="51.672603031620383" lon="0.43361596763134">
        <ele>74.879999999999995</ele>
        <time>2018-02-19T10:01:10Z</time>
      </trkpt>
      <trkpt lat="51.672605965286493" lon="0.433652009814978">
        <ele>74</ele>
        <time>2018-02-19T10:01:11Z</time>
      </trkpt>
      <trkpt lat="51.672612000256777" lon="0.433689979836345">
        <ele>74</ele>
        <time>2018-02-19T10:01:12Z</time>
      </trkpt>
      <trkpt lat="51.672615017741919" lon="0.433726022019982">
        <ele>74</ele>
        <time>2018-02-19T10:01:13Z</time>
      </trkpt>
      <trkpt lat="51.672616023570299" lon="0.433757035061717">
        <ele>74</ele>
        <time>2018-02-19T10:01:14Z</time>
      </trkpt>
      <trkpt lat="51.672615017741919" lon="0.433791987597942">
        <ele>74</ele>
        <time>2018-02-19T10:01:15Z</time>
      </trkpt>
      <trkpt lat="51.672615017741919" lon="0.433826018124819">
        <ele>74</ele>
        <time>2018-02-19T10:01:16Z</time>
      </trkpt>
      <trkpt lat="51.672616023570299" lon="0.433858959004283">
        <ele>74</ele>
        <time>2018-02-19T10:01:17Z</time>
      </trkpt>
      <trkpt lat="51.672616023570299" lon="0.433891983702779">
        <ele>74</ele>
        <time>2018-02-19T10:01:18Z</time>
      </trkpt>
      <trkpt lat="51.672619041055441" lon="0.433924002572894">
        <ele>74</ele>
        <time>2018-02-19T10:01:19Z</time>
      </trkpt>
      <trkpt lat="51.672624992206693" lon="0.4339599609375">
        <ele>74</ele>
        <time>2018-02-19T10:01:20Z</time>
      </trkpt>
      <trkpt lat="51.672633038833737" lon="0.433998014777899">
        <ele>74</ele>
        <time>2018-02-19T10:01:21Z</time>
      </trkpt>
      <trkpt lat="51.672632033005357" lon="0.434036990627646">
        <ele>74</ele>
        <time>2018-02-19T10:01:22Z</time>
      </trkpt>
      <trkpt lat="51.672633038833737" lon="0.434074038639665">
        <ele>74</ele>
        <time>2018-02-19T10:01:23Z</time>
      </trkpt>
      <trkpt lat="51.672636978328228" lon="0.434109997004271">
        <ele>74</ele>
        <time>2018-02-19T10:01:24Z</time>
      </trkpt>
      <trkpt lat="51.672644019126892" lon="0.434145033359528">
        <ele>74</ele>
        <time>2018-02-19T10:01:25Z</time>
      </trkpt>
      <trkpt lat="51.672647036612034" lon="0.434175962582231">
        <ele>74</ele>
        <time>2018-02-19T10:01:26Z</time>
      </trkpt>
      <trkpt lat="51.672654999420047" lon="0.434210998937488">
        <ele>74</ele>
        <time>2018-02-19T10:01:27Z</time>
      </trkpt>
      <trkpt lat="51.672662040218711" lon="0.434242011979222">
        <ele>74</ele>
        <time>2018-02-19T10:01:28Z</time>
      </trkpt>
      <trkpt lat="51.672668997198343" lon="0.434275036677718">
        <ele>74</ele>
        <time>2018-02-19T10:01:29Z</time>
      </trkpt>
      <trkpt lat="51.672680983319879" lon="0.434304960072041">
        <ele>74</ele>
        <time>2018-02-19T10:01:30Z</time>
      </trkpt>
      <trkpt lat="51.672685006633401" lon="0.434339996427298">
        <ele>74</ele>
        <time>2018-02-19T10:01:31Z</time>
      </trkpt>
      <trkpt lat="51.672691963613033" lon="0.434377966448665">
        <ele>73.879999999999995</ele>
        <time>2018-02-19T10:01:32Z</time>
      </trkpt>
      <trkpt lat="51.6727040335536" lon="0.434418031945825">
        <ele>73</ele>
        <time>2018-02-19T10:01:33Z</time>
      </trkpt>
      <trkpt lat="51.672714008018374" lon="0.434451978653669">
        <ele>73</ele>
        <time>2018-02-19T10:01:34Z</time>
      </trkpt>
      <trkpt lat="51.672728005796671" lon="0.434479974210262">
        <ele>73</ele>
        <time>2018-02-19T10:01:35Z</time>
      </trkpt>
      <trkpt lat="51.672739991918206" lon="0.434514004737139">
        <ele>73</ele>
        <time>2018-02-19T10:01:36Z</time>
      </trkpt>
      <trkpt lat="51.6727489605546" lon="0.434542000293732">
        <ele>73</ele>
        <time>2018-02-19T10:01:37Z</time>
      </trkpt>
      <trkpt lat="51.672760024666786" lon="0.434569995850325">
        <ele>73</ele>
        <time>2018-02-19T10:01:38Z</time>
      </trkpt>
      <trkpt lat="51.672765975818038" lon="0.434604026377201">
        <ele>73.1132082306912</ele>
        <time>2018-02-19T10:01:39Z</time>
      </trkpt>
      <trkpt lat="51.672778967767954" lon="0.434637973085046">
        <ele>74</ele>
        <time>2018-02-19T10:01:40Z</time>
      </trkpt>
      <trkpt lat="51.672788020223379" lon="0.434672003611922">
        <ele>73.879999999999995</ele>
        <time>2018-02-19T10:01:41Z</time>
      </trkpt>
      <trkpt lat="51.672800006344914" lon="0.434702010825276">
        <ele>73</ele>
        <time>2018-02-19T10:01:42Z</time>
      </trkpt>
      <trkpt lat="51.67281299829483" lon="0.434737969189882">
        <ele>73</ele>
        <time>2018-02-19T10:01:43Z</time>
      </trkpt>
      <trkpt lat="51.672824984416366" lon="0.434769988059998">
        <ele>73</ele>
        <time>2018-02-19T10:01:44Z</time>
      </trkpt>
      <trkpt lat="51.672836970537901" lon="0.434803012758493">
        <ele>73</ele>
        <time>2018-02-19T10:01:45Z</time>
      </trkpt>
      <trkpt lat="51.672850968316197" lon="0.434837965294719">
        <ele>73</ele>
        <time>2018-02-19T10:01:46Z</time>
      </trkpt>
      <trkpt lat="51.672865971922874" lon="0.434868978336453">
        <ele>73</ele>
        <time>2018-02-19T10:01:47Z</time>
      </trkpt>
      <trkpt lat="51.67287896387279" lon="0.434902003034949">
        <ele>73</ele>
        <time>2018-02-19T10:01:48Z</time>
      </trkpt>
      <trkpt lat="51.672889022156596" lon="0.434929998591542">
        <ele>73</ele>
        <time>2018-02-19T10:01:49Z</time>
      </trkpt>
      <trkpt lat="51.672900002449751" lon="0.434963023290038">
        <ele>73</ele>
        <time>2018-02-19T10:01:50Z</time>
      </trkpt>
      <trkpt lat="51.672907965257764" lon="0.43499001301825">
        <ele>72.879999999999995</ele>
        <time>2018-02-19T10:01:51Z</time>
      </trkpt>
      <trkpt lat="51.672920035198331" lon="0.435020020231605">
        <ele>72</ele>
        <time>2018-02-19T10:01:52Z</time>
      </trkpt>
      <trkpt lat="51.672931015491486" lon="0.435050027444959">
        <ele>72</ele>
        <time>2018-02-19T10:01:53Z</time>
      </trkpt>
      <trkpt lat="51.672944007441401" lon="0.435081040486693">
        <ele>72</ele>
        <time>2018-02-19T10:01:54Z</time>
      </trkpt>
      <trkpt lat="51.672953981906176" lon="0.435115993022919">
        <ele>72</ele>
        <time>2018-02-19T10:01:55Z</time>
      </trkpt>
      <trkpt lat="51.672964040189981" lon="0.435147006064653">
        <ele>72</ele>
        <time>2018-02-19T10:01:56Z</time>
      </trkpt>
      <trkpt lat="51.672976026311517" lon="0.435176007449627">
        <ele>71.879999999999995</ele>
        <time>2018-02-19T10:01:57Z</time>
      </trkpt>
      <trkpt lat="51.672989018261433" lon="0.435202997177839">
        <ele>71</ele>
        <time>2018-02-19T10:01:58Z</time>
      </trkpt>
      <trkpt lat="51.673001004382968" lon="0.435231998562813">
        <ele>71</ele>
        <time>2018-02-19T10:01:59Z</time>
      </trkpt>
      <trkpt lat="51.673012990504503" lon="0.435263011604548">
        <ele>71</ele>
        <time>2018-02-19T10:02:00Z</time>
      </trkpt>
      <trkpt lat="51.673025982454419" lon="0.43529100716114">
        <ele>71</ele>
        <time>2018-02-19T10:02:01Z</time>
      </trkpt>
      <trkpt lat="51.673036962747574" lon="0.435323026031256">
        <ele>71</ele>
        <time>2018-02-19T10:02:02Z</time>
      </trkpt>
      <trkpt lat="51.673049032688141" lon="0.43535303324461">
        <ele>71</ele>
        <time>2018-02-19T10:02:03Z</time>
      </trkpt>
      <trkpt lat="51.673063030466437" lon="0.435383040457964">
        <ele>71</ele>
        <time>2018-02-19T10:02:04Z</time>
      </trkpt>
      <trkpt lat="51.673078034073114" lon="0.435414975509048">
        <ele>71</ele>
        <time>2018-02-19T10:02:05Z</time>
      </trkpt>
      <trkpt lat="51.67309102602303" lon="0.435444982722402">
        <ele>71</ele>
        <time>2018-02-19T10:02:06Z</time>
      </trkpt>
      <trkpt lat="51.673102006316185" lon="0.435472978278995">
        <ele>71</ele>
        <time>2018-02-19T10:02:07Z</time>
      </trkpt>
      <trkpt lat="51.67311298660934" lon="0.435502985492349">
        <ele>71</ele>
        <time>2018-02-19T10:02:08Z</time>
      </trkpt>
      <trkpt lat="51.673124972730875" lon="0.435536010190845">
        <ele>71</ele>
        <time>2018-02-19T10:02:09Z</time>
      </trkpt>
      <trkpt lat="51.673136036843061" lon="0.435570040717721">
        <ele>71</ele>
        <time>2018-02-19T10:02:10Z</time>
      </trkpt>
      <trkpt lat="51.673146011307836" lon="0.435599964112043">
        <ele>71</ele>
        <time>2018-02-19T10:02:11Z</time>
      </trkpt>
      <trkpt lat="51.67315699160099" lon="0.435629971325397">
        <ele>71</ele>
        <time>2018-02-19T10:02:12Z</time>
      </trkpt>
      <trkpt lat="51.673169983550906" lon="0.435660984367132">
        <ele>71</ele>
        <time>2018-02-19T10:02:13Z</time>
      </trkpt>
      <trkpt lat="51.673180041834712" lon="0.43569803237915">
        <ele>71</ele>
        <time>2018-02-19T10:02:14Z</time>
      </trkpt>
      <trkpt lat="51.673191022127867" lon="0.435730973258615">
        <ele>71</ele>
        <time>2018-02-19T10:02:15Z</time>
      </trkpt>
      <trkpt lat="51.673200996592641" lon="0.43576399795711">
        <ele>71</ele>
        <time>2018-02-19T10:02:16Z</time>
      </trkpt>
      <trkpt lat="51.673208959400654" lon="0.435792999342084">
        <ele>71</ele>
        <time>2018-02-19T10:02:17Z</time>
      </trkpt>
      <trkpt lat="51.67321901768446" lon="0.435823006555438">
        <ele>71</ele>
        <time>2018-02-19T10:02:18Z</time>
      </trkpt>
      <trkpt lat="51.673227986320853" lon="0.435855025425553">
        <ele>71</ele>
        <time>2018-02-19T10:02:19Z</time>
      </trkpt>
      <trkpt lat="51.673236032947898" lon="0.435888972133398">
        <ele>71</ele>
        <time>2018-02-19T10:02:20Z</time>
      </trkpt>
      <trkpt lat="51.673243995755911" lon="0.435923002660275">
        <ele>71</ele>
        <time>2018-02-19T10:02:21Z</time>
      </trkpt>
      <trkpt lat="51.673252964392304" lon="0.435954015702009">
        <ele>71</ele>
        <time>2018-02-19T10:02:22Z</time>
      </trkpt>
      <trkpt lat="51.67326302267611" lon="0.435985028743744">
        <ele>71</ele>
        <time>2018-02-19T10:02:23Z</time>
      </trkpt>
      <trkpt lat="51.673274002969265" lon="0.436018975451589">
        <ele>71</ele>
        <time>2018-02-19T10:02:24Z</time>
      </trkpt>
      <trkpt lat="51.67328498326242" lon="0.436053005978465">
        <ele>70.879999999999995</ele>
        <time>2018-02-19T10:02:25Z</time>
      </trkpt>
      <trkpt lat="51.673296969383955" lon="0.436089970171452">
        <ele>70</ele>
        <time>2018-02-19T10:02:26Z</time>
      </trkpt>
      <trkpt lat="51.673308033496141" lon="0.436122994869947">
        <ele>70</ele>
        <time>2018-02-19T10:02:27Z</time>
      </trkpt>
      <trkpt lat="51.673320019617677" lon="0.436158031225204">
        <ele>70</ele>
        <time>2018-02-19T10:02:28Z</time>
      </trkpt>
      <trkpt lat="51.673332005739212" lon="0.436190972104669">
        <ele>70</ele>
        <time>2018-02-19T10:02:29Z</time>
      </trkpt>
      <trkpt lat="51.673341980203986" lon="0.436223996803164">
        <ele>70</ele>
        <time>2018-02-19T10:02:30Z</time>
      </trkpt>
      <trkpt lat="51.673353966325521" lon="0.436258027330041">
        <ele>70</ele>
        <time>2018-02-19T10:02:31Z</time>
      </trkpt>
      <trkpt lat="51.673365030437708" lon="0.436289962381125">
        <ele>70</ele>
        <time>2018-02-19T10:02:32Z</time>
      </trkpt>
      <trkpt lat="51.673375004902482" lon="0.436320975422859">
        <ele>70</ele>
        <time>2018-02-19T10:02:33Z</time>
      </trkpt>
      <trkpt lat="51.673384979367256" lon="0.436348970979452">
        <ele>70</ele>
        <time>2018-02-19T10:02:34Z</time>
      </trkpt>
      <trkpt lat="51.673395959660411" lon="0.436375960707664">
        <ele>70</ele>
        <time>2018-02-19T10:02:35Z</time>
      </trkpt>
      <trkpt lat="51.673408029600978" lon="0.436402028426528">
        <ele>70</ele>
        <time>2018-02-19T10:02:36Z</time>
      </trkpt>
      <trkpt lat="51.673420015722513" lon="0.436430023983121">
        <ele>70</ele>
        <time>2018-02-19T10:02:37Z</time>
      </trkpt>
      <trkpt lat="51.673430996015668" lon="0.436460031196475">
        <ele>70</ele>
        <time>2018-02-19T10:02:38Z</time>
      </trkpt>
      <trkpt lat="51.673440970480442" lon="0.436488026753068">
        <ele>70</ele>
        <time>2018-02-19T10:02:39Z</time>
      </trkpt>
      <trkpt lat="51.673451028764248" lon="0.436517028138042">
        <ele>70</ele>
        <time>2018-02-19T10:02:40Z</time>
      </trkpt>
      <trkpt lat="51.673464020714164" lon="0.436543012037873">
        <ele>70</ele>
        <time>2018-02-19T10:02:41Z</time>
      </trkpt>
      <trkpt lat="51.673476006835699" lon="0.436570001766086">
        <ele>70</ele>
        <time>2018-02-19T10:02:42Z</time>
      </trkpt>
      <trkpt lat="51.673486987128854" lon="0.436596991494298">
        <ele>70</ele>
        <time>2018-02-19T10:02:43Z</time>
      </trkpt>
      <trkpt lat="51.67349997907877" lon="0.436621969565749">
        <ele>70</ele>
        <time>2018-02-19T10:02:44Z</time>
      </trkpt>
      <trkpt lat="51.673511965200305" lon="0.436647031456232">
        <ele>70</ele>
        <time>2018-02-19T10:02:45Z</time>
      </trkpt>
      <trkpt lat="51.673523029312491" lon="0.436685001477599">
        <ele>70.788735949232404</ele>
        <time>2018-02-19T10:02:47Z</time>
      </trkpt>
      <trkpt lat="51.673533003777266" lon="0.436715008690953">
        <ele>70</ele>
        <time>2018-02-19T10:02:53Z</time>
      </trkpt>
      <trkpt lat="51.673550019040704" lon="0.436735963448882">
        <ele>70</ele>
        <time>2018-02-19T10:02:56Z</time>
      </trkpt>
      <trkpt lat="51.673567034304142" lon="0.436744010075927">
        <ele>70</ele>
        <time>2018-02-19T10:02:58Z</time>
      </trkpt>
      <trkpt lat="51.673588994890451" lon="0.436748033389449">
        <ele>70</ele>
        <time>2018-02-19T10:03:00Z</time>
      </trkpt>
      <trkpt lat="51.673611961305141" lon="0.436755996197462">
        <ele>69</ele>
        <time>2018-02-19T10:03:02Z</time>
      </trkpt>
      <trkpt lat="51.673631994053721" lon="0.436757002025843">
        <ele>69.111113984278006</ele>
        <time>2018-02-19T10:03:04Z</time>
      </trkpt>
      <trkpt lat="51.673652026802301" lon="0.43675297871232">
        <ele>70</ele>
        <time>2018-02-19T10:03:06Z</time>
      </trkpt>
      <trkpt lat="51.673669964075089" lon="0.436747027561069">
        <ele>70</ele>
        <time>2018-02-19T10:03:08Z</time>
      </trkpt>
      <trkpt lat="51.673691002652049" lon="0.43675297871232">
        <ele>70</ele>
        <time>2018-02-19T10:03:11Z</time>
      </trkpt>
      <trkpt lat="51.673710029572248" lon="0.436777034774423">
        <ele>70</ele>
        <time>2018-02-19T10:03:15Z</time>
      </trkpt>
      <trkpt lat="51.673706006258726" lon="0.436808969825506">
        <ele>70</ele>
        <time>2018-02-19T10:03:20Z</time>
      </trkpt>
      <trkpt lat="51.673701982945204" lon="0.436848029494286">
        <ele>70</ele>
        <time>2018-02-19T10:03:26Z</time>
      </trkpt>
      <trkpt lat="51.67369200848043" lon="0.436875019222498">
        <ele>70</ele>
        <time>2018-02-19T10:03:29Z</time>
      </trkpt>
      <trkpt lat="51.673683961853385" lon="0.43690200895071">
        <ele>70</ele>
        <time>2018-02-19T10:03:33Z</time>
      </trkpt>
      <trkpt lat="51.673664012923837" lon="0.436926987022161">
        <ele>70</ele>
        <time>2018-02-19T10:03:37Z</time>
      </trkpt>
      <trkpt lat="51.673645991832018" lon="0.436951965093613">
        <ele>69.897953319488494</ele>
        <time>2018-02-19T10:03:39Z</time>
      </trkpt>
      <trkpt lat="51.673624031245708" lon="0.436977026984096">
        <ele>69</ele>
        <time>2018-02-19T10:03:41Z</time>
      </trkpt>
      <trkpt lat="51.673602992668748" lon="0.437006028369069">
        <ele>69.110092066325294</ele>
        <time>2018-02-19T10:03:43Z</time>
      </trkpt>
      <trkpt lat="51.673590000718832" lon="0.437046010047197">
        <ele>70</ele>
        <time>2018-02-19T10:03:45Z</time>
      </trkpt>
      <trkpt lat="51.673582037910819" lon="0.437082974240184">
        <ele>70</ele>
        <time>2018-02-19T10:03:47Z</time>
      </trkpt>
      <trkpt lat="51.673578014597297" lon="0.437113987281919">
        <ele>70</ele>
        <time>2018-02-19T10:03:49Z</time>
      </trkpt>
      <trkpt lat="51.673552030697465" lon="0.43716000393033">
        <ele>70</ele>
        <time>2018-02-19T10:03:51Z</time>
      </trkpt>
      <trkpt lat="51.673536021262407" lon="0.437185987830162">
        <ele>70</ele>
        <time>2018-02-19T10:03:52Z</time>
      </trkpt>
      <trkpt lat="51.67352001182735" lon="0.437206020578742">
        <ele>70</ele>
        <time>2018-02-19T10:03:53Z</time>
      </trkpt>
      <trkpt lat="51.673492016270757" lon="0.437238961458206">
        <ele>70</ele>
        <time>2018-02-19T10:03:55Z</time>
      </trkpt>
      <trkpt lat="51.673461003229022" lon="0.43726502917707">
        <ele>70</ele>
        <time>2018-02-19T10:03:57Z</time>
      </trkpt>
      <trkpt lat="51.673443987965584" lon="0.437271986156702">
        <ele>70</ele>
        <time>2018-02-19T10:03:58Z</time>
      </trkpt>
      <trkpt lat="51.673424039036036" lon="0.437273997813463">
        <ele>70</ele>
        <time>2018-02-19T10:03:59Z</time>
      </trkpt>
      <trkpt lat="51.673405012115836" lon="0.437302999198437">
        <ele>70</ele>
        <time>2018-02-19T10:04:02Z</time>
      </trkpt>
      <trkpt lat="51.673380034044385" lon="0.437325965613127">
        <ele>69</ele>
        <time>2018-02-19T10:04:04Z</time>
      </trkpt>
      <trkpt lat="51.673363018780947" lon="0.437343986704946">
        <ele>69</ele>
        <time>2018-02-19T10:04:06Z</time>
      </trkpt>
      <trkpt lat="51.673337034881115" lon="0.437364019453526">
        <ele>69</ele>
        <time>2018-02-19T10:04:08Z</time>
      </trkpt>
      <trkpt lat="51.673320019617677" lon="0.437390003353357">
        <ele>70</ele>
        <time>2018-02-19T10:04:14Z</time>
      </trkpt>
      <trkpt lat="51.673301998525858" lon="0.437407018616796">
        <ele>70</ele>
        <time>2018-02-19T10:04:16Z</time>
      </trkpt>
      <trkpt lat="51.673289006575942" lon="0.437431996688247">
        <ele>68</ele>
        <time>2018-02-19T10:04:18Z</time>
      </trkpt>
      <trkpt lat="51.673266962170601" lon="0.437456974759698">
        <ele>68</ele>
        <time>2018-02-19T10:04:20Z</time>
      </trkpt>
      <trkpt lat="51.673253970220685" lon="0.43748396448791">
        <ele>68</ele>
        <time>2018-02-19T10:04:22Z</time>
      </trkpt>
      <trkpt lat="51.673194039613008" lon="0.437540039420128">
        <ele>68</ele>
        <time>2018-02-19T10:04:27Z</time>
      </trkpt>
      <trkpt lat="51.67311298660934" lon="0.437645986676216">
        <ele>68</ele>
        <time>2018-02-19T10:04:32Z</time>
      </trkpt>
      <trkpt lat="51.673033023253083" lon="0.437747994437814">
        <ele>68</ele>
        <time>2018-02-19T10:04:36Z</time>
      </trkpt>
      <trkpt lat="51.672949036583304" lon="0.437843967229128">
        <ele>67</ele>
        <time>2018-02-19T10:04:41Z</time>
      </trkpt>
      <trkpt lat="51.67287603020668" lon="0.43797598220408">
        <ele>67</ele>
        <time>2018-02-19T10:04:47Z</time>
      </trkpt>
      <trkpt lat="51.672849962487817" lon="0.438112020492554">
        <ele>67</ele>
        <time>2018-02-19T10:04:52Z</time>
      </trkpt>
      <trkpt lat="51.672826996073127" lon="0.43816901743412">
        <ele>67</ele>
        <time>2018-02-19T10:04:54Z</time>
      </trkpt>
      <trkpt lat="51.672762036323547" lon="0.438241017982364">
        <ele>67</ele>
        <time>2018-02-19T10:04:57Z</time>
      </trkpt>
      <trkpt lat="51.67268400080502" lon="0.438349982723594">
        <ele>67</ele>
        <time>2018-02-19T10:05:02Z</time>
      </trkpt>
      <trkpt lat="51.672590961679816" lon="0.438440004363656">
        <ele>68</ele>
        <time>2018-02-19T10:05:06Z</time>
      </trkpt>
      <trkpt lat="51.672561038285494" lon="0.4385120049119">
        <ele>68</ele>
        <time>2018-02-19T10:05:09Z</time>
      </trkpt>
      <trkpt lat="51.672551985830069" lon="0.438537988811731">
        <ele>68</ele>
        <time>2018-02-19T10:05:10Z</time>
      </trkpt>
      <trkpt lat="51.672539999708533" lon="0.438561961054802">
        <ele>68</ele>
        <time>2018-02-19T10:05:11Z</time>
      </trkpt>
      <trkpt lat="51.672527007758617" lon="0.438584005460143">
        <ele>68</ele>
        <time>2018-02-19T10:05:12Z</time>
      </trkpt>
      <trkpt lat="51.672460036352277" lon="0.438692970201373">
        <ele>68</ele>
        <time>2018-02-19T10:05:16Z</time>
      </trkpt>
      <trkpt lat="51.672386024147272" lon="0.438796989619732">
        <ele>68</ele>
        <time>2018-02-19T10:05:20Z</time>
      </trkpt>
      <trkpt lat="51.672371020540595" lon="0.438815010711551">
        <ele>68</ele>
        <time>2018-02-19T10:05:21Z</time>
      </trkpt>
      <trkpt lat="51.672314023599029" lon="0.438875025138259">
        <ele>68</ele>
        <time>2018-02-19T10:05:25Z</time>
      </trkpt>
      <trkpt lat="51.672288961708546" lon="0.438908971846104">
        <ele>68</ele>
        <time>2018-02-19T10:05:27Z</time>
      </trkpt>
      <trkpt lat="51.672269012778997" lon="0.438951971009374">
        <ele>68</ele>
        <time>2018-02-19T10:05:29Z</time>
      </trkpt>
      <trkpt lat="51.672255015000701" lon="0.438969992101192">
        <ele>68</ele>
        <time>2018-02-19T10:05:30Z</time>
      </trkpt>
      <trkpt lat="51.672241017222404" lon="0.438992036506534">
        <ele>68</ele>
        <time>2018-02-19T10:05:31Z</time>
      </trkpt>
      <trkpt lat="51.672187959775329" lon="0.439066970720887">
        <ele>68</ele>
        <time>2018-02-19T10:05:35Z</time>
      </trkpt>
      <trkpt lat="51.672157030552626" lon="0.439099995419383">
        <ele>68</ele>
        <time>2018-02-19T10:05:37Z</time>
      </trkpt>
      <trkpt lat="51.672141021117568" lon="0.439118016511202">
        <ele>68</ele>
        <time>2018-02-19T10:05:38Z</time>
      </trkpt>
      <trkpt lat="51.672127023339272" lon="0.439145006239414">
        <ele>68</ele>
        <time>2018-02-19T10:05:46Z</time>
      </trkpt>
      <trkpt lat="51.672109002247453" lon="0.439148023724556">
        <ele>68</ele>
        <time>2018-02-19T10:05:49Z</time>
      </trkpt>
      <trkpt lat="51.672087041661143" lon="0.43915699236095">
        <ele>68</ele>
        <time>2018-02-19T10:05:51Z</time>
      </trkpt>
      <trkpt lat="51.672072038054466" lon="0.439179036766291">
        <ele>68</ele>
        <time>2018-02-19T10:05:54Z</time>
      </trkpt>
      <trkpt lat="51.672056028619409" lon="0.439213989302516">
        <ele>68</ele>
        <time>2018-02-19T10:05:57Z</time>
      </trkpt>
      <trkpt lat="51.672046976163983" lon="0.439240979030728">
        <ele>68</ele>
        <time>2018-02-19T10:05:59Z</time>
      </trkpt>
      <trkpt lat="51.672031972557306" lon="0.439269980415702">
        <ele>68</ele>
        <time>2018-02-19T10:06:01Z</time>
      </trkpt>
      <trkpt lat="51.672015963122249" lon="0.439306022599339">
        <ele>68</ele>
        <time>2018-02-19T10:06:03Z</time>
      </trkpt>
      <trkpt lat="51.672003977000713" lon="0.439334018155932">
        <ele>68</ele>
        <time>2018-02-19T10:06:04Z</time>
      </trkpt>
      <trkpt lat="51.671989979222417" lon="0.439354972913861">
        <ele>68</ele>
        <time>2018-02-19T10:06:05Z</time>
      </trkpt>
      <trkpt lat="51.671973969787359" lon="0.43939596042037">
        <ele>68</ele>
        <time>2018-02-19T10:06:07Z</time>
      </trkpt>
      <trkpt lat="51.67193298228085" lon="0.439538033679128">
        <ele>68</ele>
        <time>2018-02-19T10:06:13Z</time>
      </trkpt>
      <trkpt lat="51.671899035573006" lon="0.439680023118854">
        <ele>68</ele>
        <time>2018-02-19T10:06:18Z</time>
      </trkpt>
      <trkpt lat="51.671859975904226" lon="0.439770966768265">
        <ele>68</ele>
        <time>2018-02-19T10:06:21Z</time>
      </trkpt>
      <trkpt lat="51.67184597812593" lon="0.439793011173606">
        <ele>68</ele>
        <time>2018-02-19T10:06:22Z</time>
      </trkpt>
      <trkpt lat="51.671822005882859" lon="0.439827041700482">
        <ele>68</ele>
        <time>2018-02-19T10:06:24Z</time>
      </trkpt>
      <trkpt lat="51.67180398479104" lon="0.439857970923185">
        <ele>69</ele>
        <time>2018-02-19T10:06:26Z</time>
      </trkpt>
      <trkpt lat="51.671787975355983" lon="0.439875992015004">
        <ele>69.086616474667196</ele>
        <time>2018-02-19T10:06:27Z</time>
      </trkpt>
      <trkpt lat="51.67176098562777" lon="0.439908010885119">
        <ele>70</ele>
        <time>2018-02-19T10:06:29Z</time>
      </trkpt>
      <trkpt lat="51.671750005334616" lon="0.439942041411996">
        <ele>69.879999999999995</ele>
        <time>2018-02-19T10:06:31Z</time>
      </trkpt>
      <trkpt lat="51.671735001727939" lon="0.439971964806318">
        <ele>70</ele>
        <time>2018-02-19T10:06:33Z</time>
      </trkpt>
      <trkpt lat="51.671721003949642" lon="0.439998032525182">
        <ele>70</ele>
        <time>2018-02-19T10:06:35Z</time>
      </trkpt>
      <trkpt lat="51.671710023656487" lon="0.440024016425014">
        <ele>70</ele>
        <time>2018-02-19T10:06:37Z</time>
      </trkpt>
      <trkpt lat="51.67169401422143" lon="0.44003801420331">
        <ele>70</ele>
        <time>2018-02-19T10:06:39Z</time>
      </trkpt>
      <trkpt lat="51.671680016443133" lon="0.440070033073425">
        <ele>70</ele>
        <time>2018-02-19T10:06:42Z</time>
      </trkpt>
      <trkpt lat="51.671665012836456" lon="0.440105991438031">
        <ele>70</ele>
        <time>2018-02-19T10:06:45Z</time>
      </trkpt>
      <trkpt lat="51.671654032543302" lon="0.440130969509482">
        <ele>71</ele>
        <time>2018-02-19T10:06:49Z</time>
      </trkpt>
      <trkpt lat="51.671633999794722" lon="0.440166005864739">
        <ele>71</ele>
        <time>2018-02-19T10:06:51Z</time>
      </trkpt>
      <trkpt lat="51.671612039208412" lon="0.440196013078094">
        <ele>71</ele>
        <time>2018-02-19T10:06:53Z</time>
      </trkpt>
      <trkpt lat="51.671594018116593" lon="0.440219985321164">
        <ele>71</ele>
        <time>2018-02-19T10:06:55Z</time>
      </trkpt>
      <trkpt lat="51.671575997024775" lon="0.440252004191279">
        <ele>71</ele>
        <time>2018-02-19T10:06:57Z</time>
      </trkpt>
      <trkpt lat="51.671557975932956" lon="0.440291985869408">
        <ele>71</ele>
        <time>2018-02-19T10:06:59Z</time>
      </trkpt>
      <trkpt lat="51.671543978154659" lon="0.440322998911142">
        <ele>71.107142857142904</ele>
        <time>2018-02-19T10:07:01Z</time>
      </trkpt>
      <trkpt lat="51.671524029225111" lon="0.440354011952877">
        <ele>72</ele>
        <time>2018-02-19T10:07:03Z</time>
      </trkpt>
      <trkpt lat="51.671510031446815" lon="0.440383013337851">
        <ele>72</ele>
        <time>2018-02-19T10:07:06Z</time>
      </trkpt>
      <trkpt lat="51.671492010354996" lon="0.440410003066063">
        <ele>72</ele>
        <time>2018-02-19T10:07:07Z</time>
      </trkpt>
      <trkpt lat="51.671464014798403" lon="0.440445961430669">
        <ele>72</ele>
        <time>2018-02-19T10:07:09Z</time>
      </trkpt>
      <trkpt lat="51.671441970393062" lon="0.440475968644023">
        <ele>72</ele>
        <time>2018-02-19T10:07:11Z</time>
      </trkpt>
      <trkpt lat="51.671427972614765" lon="0.440506981685758">
        <ele>72</ele>
        <time>2018-02-19T10:07:13Z</time>
      </trkpt>
      <trkpt lat="51.671422021463513" lon="0.440539000555873">
        <ele>72</ele>
        <time>2018-02-19T10:07:15Z</time>
      </trkpt>
      <trkpt lat="51.671408023685217" lon="0.440584011375904">
        <ele>72</ele>
        <time>2018-02-19T10:07:17Z</time>
      </trkpt>
      <trkpt lat="51.67139695957303" lon="0.440608989447355">
        <ele>72</ele>
        <time>2018-02-19T10:07:18Z</time>
      </trkpt>
      <trkpt lat="51.671378016471863" lon="0.440659029409289">
        <ele>72</ele>
        <time>2018-02-19T10:07:20Z</time>
      </trkpt>
      <trkpt lat="51.671361001208425" lon="0.440685013309121">
        <ele>72</ele>
        <time>2018-02-19T10:07:21Z</time>
      </trkpt>
      <trkpt lat="51.671347003430128" lon="0.440718038007617">
        <ele>72</ele>
        <time>2018-02-19T10:07:22Z</time>
      </trkpt>
      <trkpt lat="51.67132998816669" lon="0.440747039392591">
        <ele>72</ele>
        <time>2018-02-19T10:07:23Z</time>
      </trkpt>
      <trkpt lat="51.67131096124649" lon="0.440771011635661">
        <ele>72</ele>
        <time>2018-02-19T10:07:24Z</time>
      </trkpt>
      <trkpt lat="51.671296041458845" lon="0.44078903272748">
        <ele>72</ele>
        <time>2018-02-19T10:07:25Z</time>
      </trkpt>
      <trkpt lat="51.671279026195407" lon="0.440807975828648">
        <ele>72</ele>
        <time>2018-02-19T10:07:26Z</time>
      </trkpt>
      <trkpt lat="51.671263016760349" lon="0.440825996920466">
        <ele>72</ele>
        <time>2018-02-19T10:07:27Z</time>
      </trkpt>
      <trkpt lat="51.671250024810433" lon="0.440849969163537">
        <ele>72</ele>
        <time>2018-02-19T10:07:28Z</time>
      </trkpt>
      <trkpt lat="51.671234015375376" lon="0.440945019945502">
        <ele>72</ele>
        <time>2018-02-19T10:07:31Z</time>
      </trkpt>
      <trkpt lat="51.671226974576712" lon="0.440975027158856">
        <ele>72</ele>
        <time>2018-02-19T10:07:32Z</time>
      </trkpt>
      <trkpt lat="51.671213982626796" lon="0.441005034372211">
        <ele>72</ele>
        <time>2018-02-19T10:07:33Z</time>
      </trkpt>
      <trkpt lat="51.671147011220455" lon="0.441122967749834">
        <ele>72</ele>
        <time>2018-02-19T10:07:38Z</time>
      </trkpt>
      <trkpt lat="51.671078028157353" lon="0.441264035180211">
        <ele>73</ele>
        <time>2018-02-19T10:07:43Z</time>
      </trkpt>
      <trkpt lat="51.671014996245503" lon="0.441369982436299">
        <ele>73</ele>
        <time>2018-02-19T10:07:47Z</time>
      </trkpt>
      <trkpt lat="51.670974008738995" lon="0.441527981311083">
        <ele>73</ele>
        <time>2018-02-19T10:07:53Z</time>
      </trkpt>
      <trkpt lat="51.67092103511095" lon="0.441663013771176">
        <ele>73</ele>
        <time>2018-02-19T10:07:59Z</time>
      </trkpt>
      <trkpt lat="51.670868983492255" lon="0.441793017089367">
        <ele>73</ele>
        <time>2018-02-19T10:08:04Z</time>
      </trkpt>
      <trkpt lat="51.670839982107282" lon="0.441935006529093">
        <ele>74</ele>
        <time>2018-02-19T10:08:08Z</time>
      </trkpt>
      <trkpt lat="51.670775022357702" lon="0.442064004018903">
        <ele>74</ele>
        <time>2018-02-19T10:08:14Z</time>
      </trkpt>
      <trkpt lat="51.670721964910626" lon="0.442201970145106">
        <ele>74</ele>
        <time>2018-02-19T10:08:20Z</time>
      </trkpt>
      <trkpt lat="51.670647030696273" lon="0.442317975685">
        <ele>74</ele>
        <time>2018-02-19T10:08:25Z</time>
      </trkpt>
      <trkpt lat="51.670589027926326" lon="0.442460970953107">
        <ele>72</ele>
        <time>2018-02-19T10:08:31Z</time>
      </trkpt>
      <trkpt lat="51.670562038198113" lon="0.442538000643253">
        <ele>72</ele>
        <time>2018-02-19T10:08:34Z</time>
      </trkpt>
      <trkpt lat="51.670548962429166" lon="0.442586028948426">
        <ele>72</ele>
        <time>2018-02-19T10:08:36Z</time>
      </trkpt>
      <trkpt lat="51.670533958822489" lon="0.44261896982789">
        <ele>72</ele>
        <time>2018-02-19T10:08:38Z</time>
      </trkpt>
      <trkpt lat="51.670525996014476" lon="0.442663980647922">
        <ele>72</ele>
        <time>2018-02-19T10:08:40Z</time>
      </trkpt>
      <trkpt lat="51.670502023771405" lon="0.442692982032895">
        <ele>72</ele>
        <time>2018-02-19T10:08:42Z</time>
      </trkpt>
      <trkpt lat="51.670475034043193" lon="0.442713014781475">
        <ele>71</ele>
        <time>2018-02-19T10:08:44Z</time>
      </trkpt>
      <trkpt lat="51.670458018779755" lon="0.442726006731391">
        <ele>71</ele>
        <time>2018-02-19T10:08:46Z</time>
      </trkpt>
      <trkpt lat="51.670455001294613" lon="0.442757019773126">
        <ele>71</ele>
        <time>2018-02-19T10:08:53Z</time>
      </trkpt>
      <trkpt lat="51.670444021001458" lon="0.442802030593157">
        <ele>71</ele>
        <time>2018-02-19T10:08:56Z</time>
      </trkpt>
      <trkpt lat="51.670433040708303" lon="0.442837988957763">
        <ele>71</ele>
        <time>2018-02-19T10:08:58Z</time>
      </trkpt>
      <trkpt lat="51.670420970767736" lon="0.44287302531302">
        <ele>71</ele>
        <time>2018-02-19T10:09:00Z</time>
      </trkpt>
      <trkpt lat="51.670396998524666" lon="0.442974027246237">
        <ele>72</ele>
        <time>2018-02-19T10:09:07Z</time>
      </trkpt>
      <trkpt lat="51.670396998524666" lon="0.443009985610843">
        <ele>72</ele>
        <time>2018-02-19T10:09:10Z</time>
      </trkpt>
      <trkpt lat="51.670383000746369" lon="0.443040998652577">
        <ele>72</ele>
        <time>2018-02-19T10:09:13Z</time>
      </trkpt>
      <trkpt lat="51.670367997139692" lon="0.443076035007834">
        <ele>72</ele>
        <time>2018-02-19T10:09:16Z</time>
      </trkpt>
      <trkpt lat="51.670355005189776" lon="0.443105958402157">
        <ele>72</ele>
        <time>2018-02-19T10:09:18Z</time>
      </trkpt>
      <trkpt lat="51.670340001583099" lon="0.443142000585794">
        <ele>72.111113984278006</ele>
        <time>2018-02-19T10:09:21Z</time>
      </trkpt>
      <trkpt lat="51.670326003804803" lon="0.443177036941051">
        <ele>73</ele>
        <time>2018-02-19T10:09:23Z</time>
      </trkpt>
      <trkpt lat="51.670305971056223" lon="0.44319799169898">
        <ele>73.805753540711294</ele>
        <time>2018-02-19T10:09:26Z</time>
      </trkpt>
      <trkpt lat="51.670294990763068" lon="0.44321802444756">
        <ele>74</ele>
        <time>2018-02-19T10:09:29Z</time>
      </trkpt>
      <trkpt lat="51.670291973277926" lon="0.443247025832534">
        <ele>74</ele>
        <time>2018-02-19T10:09:31Z</time>
      </trkpt>
      <trkpt lat="51.670283004641533" lon="0.443273009732366">
        <ele>74.114286062586103</ele>
        <time>2018-02-19T10:09:34Z</time>
      </trkpt>
      <trkpt lat="51.670273030176759" lon="0.443301005288959">
        <ele>75</ele>
        <time>2018-02-19T10:09:36Z</time>
      </trkpt>
      <trkpt lat="51.670261966064572" lon="0.443324977532029">
        <ele>75</ele>
        <time>2018-02-19T10:09:38Z</time>
      </trkpt>
      <trkpt lat="51.670249979943037" lon="0.443353978917003">
        <ele>75</ele>
        <time>2018-02-19T10:09:40Z</time>
      </trkpt>
      <trkpt lat="51.670244028791785" lon="0.443380968645215">
        <ele>75</ele>
        <time>2018-02-19T10:09:42Z</time>
      </trkpt>
      <trkpt lat="51.670232964679599" lon="0.443407958373427">
        <ele>76</ele>
        <time>2018-02-19T10:09:44Z</time>
      </trkpt>
      <trkpt lat="51.670219972729683" lon="0.443430002778769">
        <ele>76</ele>
        <time>2018-02-19T10:09:46Z</time>
      </trkpt>
      <trkpt lat="51.670205974951386" lon="0.443449029698968">
        <ele>76.063836161115503</ele>
        <time>2018-02-19T10:09:48Z</time>
      </trkpt>
      <trkpt lat="51.670189965516329" lon="0.443459004163742">
        <ele>77</ele>
        <time>2018-02-19T10:09:50Z</time>
      </trkpt>
      <trkpt lat="51.670173034071922" lon="0.4434750135988">
        <ele>77</ele>
        <time>2018-02-19T10:09:52Z</time>
      </trkpt>
      <trkpt lat="51.670159958302975" lon="0.443495968356729">
        <ele>77</ele>
        <time>2018-02-19T10:09:54Z</time>
      </trkpt>
      <trkpt lat="51.670144032686949" lon="0.443524969741702">
        <ele>77</ele>
        <time>2018-02-19T10:09:57Z</time>
      </trkpt>
      <trkpt lat="51.670135986059904" lon="0.443560006096959">
        <ele>77</ele>
        <time>2018-02-19T10:10:01Z</time>
      </trkpt>
      <trkpt lat="51.670119976624846" lon="0.443597976118326">
        <ele>77</ele>
        <time>2018-02-19T10:10:04Z</time>
      </trkpt>
      <trkpt lat="51.670112013816833" lon="0.443625971674919">
        <ele>77</ele>
        <time>2018-02-19T10:10:07Z</time>
      </trkpt>
      <trkpt lat="51.670112013816833" lon="0.443658996373415">
        <ele>77</ele>
        <time>2018-02-19T10:10:10Z</time>
      </trkpt>
      <trkpt lat="51.670107990503311" lon="0.443687997758389">
        <ele>77</ele>
        <time>2018-02-19T10:10:12Z</time>
      </trkpt>
      <trkpt lat="51.670100027695298" lon="0.443719010800123">
        <ele>78</ele>
        <time>2018-02-19T10:10:14Z</time>
      </trkpt>
      <trkpt lat="51.670093992725015" lon="0.44375597499311">
        <ele>78</ele>
        <time>2018-02-19T10:10:16Z</time>
      </trkpt>
      <trkpt lat="51.670081000775099" lon="0.443784976378083">
        <ele>78</ele>
        <time>2018-02-19T10:10:18Z</time>
      </trkpt>
      <trkpt lat="51.670077983289957" lon="0.443827975541353">
        <ele>78</ele>
        <time>2018-02-19T10:10:21Z</time>
      </trkpt>
      <trkpt lat="51.670070020481944" lon="0.443854965269566">
        <ele>78</ele>
        <time>2018-02-19T10:10:23Z</time>
      </trkpt>
      <trkpt lat="51.670060968026519" lon="0.443890001624823">
        <ele>78</ele>
        <time>2018-02-19T10:10:25Z</time>
      </trkpt>
      <trkpt lat="51.670053005218506" lon="0.443933000788093">
        <ele>78</ele>
        <time>2018-02-19T10:10:27Z</time>
      </trkpt>
      <trkpt lat="51.670047976076603" lon="0.443962002173066">
        <ele>79</ele>
        <time>2018-02-19T10:10:29Z</time>
      </trkpt>
      <trkpt lat="51.670038001611829" lon="0.444002989679575">
        <ele>80</ele>
        <time>2018-02-19T10:10:32Z</time>
      </trkpt>
      <trkpt lat="51.670042024925351" lon="0.44403400272131">
        <ele>80</ele>
        <time>2018-02-19T10:10:34Z</time>
      </trkpt>
      <trkpt lat="51.670045964419842" lon="0.444063004106283">
        <ele>80</ele>
        <time>2018-02-19T10:10:36Z</time>
      </trkpt>
      <trkpt lat="51.670042024925351" lon="0.444096028804779">
        <ele>80.107142857142904</ele>
        <time>2018-02-19T10:10:38Z</time>
      </trkpt>
      <trkpt lat="51.670043030753732" lon="0.444137016311288">
        <ele>81</ele>
        <time>2018-02-19T10:10:40Z</time>
      </trkpt>
      <trkpt lat="51.670038001611829" lon="0.444172974675894">
        <ele>81</ele>
        <time>2018-02-19T10:10:42Z</time>
      </trkpt>
      <trkpt lat="51.670030038803816" lon="0.44420599937439">
        <ele>81</ele>
        <time>2018-02-19T10:10:44Z</time>
      </trkpt>
      <trkpt lat="51.670024003833532" lon="0.444244975224137">
        <ele>82</ele>
        <time>2018-02-19T10:10:46Z</time>
      </trkpt>
      <trkpt lat="51.670012017711997" lon="0.444279005751014">
        <ele>82</ele>
        <time>2018-02-19T10:10:48Z</time>
      </trkpt>
      <trkpt lat="51.670000031590462" lon="0.444315969944">
        <ele>82</ele>
        <time>2018-02-19T10:10:51Z</time>
      </trkpt>
      <trkpt lat="51.669991984963417" lon="0.444351006299257">
        <ele>82.09375</ele>
        <time>2018-02-19T10:10:53Z</time>
      </trkpt>
      <trkpt lat="51.669987961649895" lon="0.444389982149005">
        <ele>83</ele>
        <time>2018-02-19T10:10:55Z</time>
      </trkpt>
      <trkpt lat="51.669982010498643" lon="0.444428035989404">
        <ele>84</ele>
        <time>2018-02-19T10:10:57Z</time>
      </trkpt>
      <trkpt lat="51.669979998841882" lon="0.44446500018239">
        <ele>85</ele>
        <time>2018-02-19T10:11:00Z</time>
      </trkpt>
      <trkpt lat="51.669972036033869" lon="0.444497019052505">
        <ele>85</ele>
        <time>2018-02-19T10:11:02Z</time>
      </trkpt>
      <trkpt lat="51.669969018548727" lon="0.44452803209424">
        <ele>85</ele>
        <time>2018-02-19T10:11:04Z</time>
      </trkpt>
      <trkpt lat="51.669969018548727" lon="0.444562984630466">
        <ele>85</ele>
        <time>2018-02-19T10:11:06Z</time>
      </trkpt>
      <trkpt lat="51.669957032427192" lon="0.444601960480213">
        <ele>86</ele>
        <time>2018-02-19T10:11:08Z</time>
      </trkpt>
      <trkpt lat="51.669949991628528" lon="0.44463699683547">
        <ele>86</ele>
        <time>2018-02-19T10:11:10Z</time>
      </trkpt>
      <trkpt lat="51.669953009113669" lon="0.444668009877205">
        <ele>86</ele>
        <time>2018-02-19T10:11:12Z</time>
      </trkpt>
      <trkpt lat="51.669956026598811" lon="0.44470296241343">
        <ele>86</ele>
        <time>2018-02-19T10:11:14Z</time>
      </trkpt>
      <trkpt lat="51.669958960264921" lon="0.444740010425448">
        <ele>86</ele>
        <time>2018-02-19T10:11:16Z</time>
      </trkpt>
      <trkpt lat="51.669962983578444" lon="0.444775968790054">
        <ele>86.120000000000005</ele>
        <time>2018-02-19T10:11:18Z</time>
      </trkpt>
      <trkpt lat="51.669966001063585" lon="0.444812010973692">
        <ele>87</ele>
        <time>2018-02-19T10:11:20Z</time>
      </trkpt>
      <trkpt lat="51.669957032427192" lon="0.444846041500568">
        <ele>87</ele>
        <time>2018-02-19T10:11:22Z</time>
      </trkpt>
      <trkpt lat="51.66995401494205" lon="0.44489398598671">
        <ele>87</ele>
        <time>2018-02-19T10:11:25Z</time>
      </trkpt>
      <trkpt lat="51.669947979971766" lon="0.444927010685205">
        <ele>87</ele>
        <time>2018-02-19T10:11:27Z</time>
      </trkpt>
      <trkpt lat="51.669938005506992" lon="0.44495802372694">
        <ele>88</ele>
        <time>2018-02-19T10:11:30Z</time>
      </trkpt>
      <trkpt lat="51.669936999678612" lon="0.444990964606404">
        <ele>87</ele>
        <time>2018-02-19T10:11:33Z</time>
      </trkpt>
      <trkpt lat="51.669928031042218" lon="0.445020971819758">
        <ele>87</ele>
        <time>2018-02-19T10:11:35Z</time>
      </trkpt>
      <trkpt lat="51.66991101577878" lon="0.445055002346635">
        <ele>87</ele>
        <time>2018-02-19T10:11:37Z</time>
      </trkpt>
      <trkpt lat="51.669886037707329" lon="0.445077968761325">
        <ele>88</ele>
        <time>2018-02-19T10:11:39Z</time>
      </trkpt>
      <trkpt lat="51.669860975816846" lon="0.44508601538837">
        <ele>88</ele>
        <time>2018-02-19T10:11:41Z</time>
      </trkpt>
      <trkpt lat="51.669837003573775" lon="0.445089032873511">
        <ele>88.120000000000005</ele>
        <time>2018-02-19T10:11:43Z</time>
      </trkpt>
      <trkpt lat="51.669806996360421" lon="0.445089032873511">
        <ele>89</ele>
        <time>2018-02-19T10:11:45Z</time>
      </trkpt>
      <trkpt lat="51.669776989147067" lon="0.445090038701892">
        <ele>89</ele>
        <time>2018-02-19T10:11:47Z</time>
      </trkpt>
      <trkpt lat="51.669754022732377" lon="0.445090038701892">
        <ele>89</ele>
        <time>2018-02-19T10:11:49Z</time>
      </trkpt>
      <trkpt lat="51.669730972498655" lon="0.445089032873511">
        <ele>89</ele>
        <time>2018-02-19T10:12:01Z</time>
      </trkpt>
      <trkpt lat="51.669705994427204" lon="0.44508702121675">
        <ele>89</ele>
        <time>2018-02-19T10:12:03Z</time>
      </trkpt>
      <trkpt lat="51.669680010527372" lon="0.445090960711241">
        <ele>89</ele>
        <time>2018-02-19T10:12:05Z</time>
      </trkpt>
      <trkpt lat="51.669659977778792" lon="0.445092972368002">
        <ele>89</ele>
        <time>2018-02-19T10:12:07Z</time>
      </trkpt>
      <trkpt lat="51.669638017192483" lon="0.445088027045131">
        <ele>89</ele>
        <time>2018-02-19T10:12:09Z</time>
      </trkpt>
      <trkpt lat="51.669613961130381" lon="0.44508702121675">
        <ele>89</ele>
        <time>2018-02-19T10:12:11Z</time>
      </trkpt>
      <trkpt lat="51.669581020250916" lon="0.445093978196383">
        <ele>89</ele>
        <time>2018-02-19T10:12:13Z</time>
      </trkpt>
      <trkpt lat="51.669553024694324" lon="0.445098001509905">
        <ele>89</ele>
        <time>2018-02-19T10:12:15Z</time>
      </trkpt>
      <trkpt lat="51.669512959197164" lon="0.445111999288201">
        <ele>89</ele>
        <time>2018-02-19T10:12:17Z</time>
      </trkpt>
      <trkpt lat="51.669488986954093" lon="0.445114010944963">
        <ele>89.110092066325294</ele>
        <time>2018-02-19T10:12:18Z</time>
      </trkpt>
      <trkpt lat="51.669466020539403" lon="0.445114010944963">
        <ele>90</ele>
        <time>2018-02-19T10:12:19Z</time>
      </trkpt>
      <trkpt lat="51.669447999447584" lon="0.445115016773343">
        <ele>90</ele>
        <time>2018-02-19T10:12:20Z</time>
      </trkpt>
      <trkpt lat="51.669428972527385" lon="0.445115016773343">
        <ele>90</ele>
        <time>2018-02-19T10:12:21Z</time>
      </trkpt>
      <trkpt lat="51.669402988627553" lon="0.445118034258485">
        <ele>90</ele>
        <time>2018-02-19T10:12:22Z</time>
      </trkpt>
      <trkpt lat="51.669381028041244" lon="0.445120967924595">
        <ele>90</ele>
        <time>2018-02-19T10:12:23Z</time>
      </trkpt>
      <trkpt lat="51.669359989464283" lon="0.445119962096214">
        <ele>90</ele>
        <time>2018-02-19T10:12:24Z</time>
      </trkpt>
      <trkpt lat="51.669329982250929" lon="0.445117028430104">
        <ele>90</ele>
        <time>2018-02-19T10:12:25Z</time>
      </trkpt>
      <trkpt lat="51.669305004179478" lon="0.44510998763144">
        <ele>90</ele>
        <time>2018-02-19T10:12:26Z</time>
      </trkpt>
      <trkpt lat="51.669278014451265" lon="0.445101018995047">
        <ele>90</ele>
        <time>2018-02-19T10:12:27Z</time>
      </trkpt>
      <trkpt lat="51.669249013066292" lon="0.445093978196383">
        <ele>90</ele>
        <time>2018-02-19T10:12:28Z</time>
      </trkpt>
      <trkpt lat="51.669222023338079" lon="0.445084003731608">
        <ele>90</ele>
        <time>2018-02-19T10:12:29Z</time>
      </trkpt>
      <trkpt lat="51.669196039438248" lon="0.445069000124931">
        <ele>90</ele>
        <time>2018-02-19T10:12:30Z</time>
      </trkpt>
      <trkpt lat="51.669170977547765" lon="0.445061037316918">
        <ele>90.102046680511506</ele>
        <time>2018-02-19T10:12:31Z</time>
      </trkpt>
      <trkpt lat="51.669147005304694" lon="0.445053996518254">
        <ele>91</ele>
        <time>2018-02-19T10:12:32Z</time>
      </trkpt>
      <trkpt lat="51.669127978384495" lon="0.445042010396719">
        <ele>91</ele>
        <time>2018-02-19T10:12:33Z</time>
      </trkpt>
      <trkpt lat="51.669109035283327" lon="0.445033041760325">
        <ele>91</ele>
        <time>2018-02-19T10:12:34Z</time>
      </trkpt>
      <trkpt lat="51.669081961736083" lon="0.445021977648139">
        <ele>91</ele>
        <time>2018-02-19T10:12:35Z</time>
      </trkpt>
      <trkpt lat="51.669057989493012" lon="0.445013009011745">
        <ele>91</ele>
        <time>2018-02-19T10:12:36Z</time>
      </trkpt>
      <trkpt lat="51.669032005593181" lon="0.445002028718591">
        <ele>91</ele>
        <time>2018-02-19T10:12:37Z</time>
      </trkpt>
      <trkpt lat="51.669007027521729" lon="0.444991970434785">
        <ele>91</ele>
        <time>2018-02-19T10:12:38Z</time>
      </trkpt>
      <trkpt lat="51.668984983116388" lon="0.444986019283533">
        <ele>91</ele>
        <time>2018-02-19T10:12:39Z</time>
      </trkpt>
      <trkpt lat="51.668962016701698" lon="0.444975038990378">
        <ele>91</ele>
        <time>2018-02-19T10:12:40Z</time>
      </trkpt>
      <trkpt lat="51.668940978124738" lon="0.444959029555321">
        <ele>91</ele>
        <time>2018-02-19T10:12:41Z</time>
      </trkpt>
      <trkpt lat="51.668919017538428" lon="0.444942014291883">
        <ele>91</ele>
        <time>2018-02-19T10:12:42Z</time>
      </trkpt>
      <trkpt lat="51.668899990618229" lon="0.444928016513586">
        <ele>91</ele>
        <time>2018-02-19T10:12:43Z</time>
      </trkpt>
      <trkpt lat="51.668878030031919" lon="0.444919969886541">
        <ele>91</ele>
        <time>2018-02-19T10:12:44Z</time>
      </trkpt>
      <trkpt lat="51.66885799728334" lon="0.444909995421767">
        <ele>91</ele>
        <time>2018-02-19T10:12:45Z</time>
      </trkpt>
      <trkpt lat="51.668839976191521" lon="0.444901026785374">
        <ele>91</ele>
        <time>2018-02-19T10:12:46Z</time>
      </trkpt>
      <trkpt lat="51.668819021433592" lon="0.444889040663838">
        <ele>91</ele>
        <time>2018-02-19T10:12:47Z</time>
      </trkpt>
      <trkpt lat="51.668798988685012" lon="0.444875964894891">
        <ele>91</ele>
        <time>2018-02-19T10:12:48Z</time>
      </trkpt>
      <trkpt lat="51.668778033927083" lon="0.444868002086878">
        <ele>91</ele>
        <time>2018-02-19T10:12:49Z</time>
      </trkpt>
      <trkpt lat="51.668754983693361" lon="0.444857021793723">
        <ele>91.444455937112096</ele>
        <time>2018-02-19T10:12:50Z</time>
      </trkpt>
      <trkpt lat="51.668734028935432" lon="0.444847969338298">
        <ele>95</ele>
        <time>2018-02-19T10:12:51Z</time>
      </trkpt>
      <trkpt lat="51.668711984530091" lon="0.444839000701904">
        <ele>95</ele>
        <time>2018-02-19T10:12:52Z</time>
      </trkpt>
      <trkpt lat="51.668692035600543" lon="0.44483195990324">
        <ele>95</ele>
        <time>2018-02-19T10:12:53Z</time>
      </trkpt>
      <trkpt lat="51.668670997023582" lon="0.444822991266847">
        <ele>95.110092066325294</ele>
        <time>2018-02-19T10:12:54Z</time>
      </trkpt>
      <trkpt lat="51.668649036437273" lon="0.444815028458834">
        <ele>96</ele>
        <time>2018-02-19T10:12:55Z</time>
      </trkpt>
      <trkpt lat="51.668626992031932" lon="0.444811005145311">
        <ele>96</ele>
        <time>2018-02-19T10:12:56Z</time>
      </trkpt>
      <trkpt lat="51.668603019788861" lon="0.444805976003408">
        <ele>96</ele>
        <time>2018-02-19T10:12:57Z</time>
      </trkpt>
      <trkpt lat="51.66857996955514" lon="0.444802036508918">
        <ele>96</ele>
        <time>2018-02-19T10:12:58Z</time>
      </trkpt>
      <trkpt lat="51.66855700314045" lon="0.444793989881873">
        <ele>96</ele>
        <time>2018-02-19T10:12:59Z</time>
      </trkpt>
      <trkpt lat="51.668534958735108" lon="0.444787032902241">
        <ele>96</ele>
        <time>2018-02-19T10:13:00Z</time>
      </trkpt>
      <trkpt lat="51.66851400397718" lon="0.444780997931957">
        <ele>96</ele>
        <time>2018-02-19T10:13:01Z</time>
      </trkpt>
      <trkpt lat="51.66849103756249" lon="0.444774040952325">
        <ele>96.106194990994695</ele>
        <time>2018-02-19T10:13:02Z</time>
      </trkpt>
      <trkpt lat="51.668469998985529" lon="0.44476599432528">
        <ele>96.991153249283499</ele>
        <time>2018-02-19T10:13:03Z</time>
      </trkpt>
      <trkpt lat="51.668448960408568" lon="0.444762976840138">
        <ele>97</ele>
        <time>2018-02-19T10:13:04Z</time>
      </trkpt>
      <trkpt lat="51.668425993993878" lon="0.444762976840138">
        <ele>97</ele>
        <time>2018-02-19T10:13:05Z</time>
      </trkpt>
      <trkpt lat="51.668405961245298" lon="0.4447649884969">
        <ele>97</ele>
        <time>2018-02-19T10:13:06Z</time>
      </trkpt>
      <trkpt lat="51.668384000658989" lon="0.44476599432528">
        <ele>97</ele>
        <time>2018-02-19T10:13:07Z</time>
      </trkpt>
      <trkpt lat="51.668363967910409" lon="0.444763982668519">
        <ele>97</ele>
        <time>2018-02-19T10:13:08Z</time>
      </trkpt>
      <trkpt lat="51.668346030637622" lon="0.444761971011758">
        <ele>97</ele>
        <time>2018-02-19T10:13:09Z</time>
      </trkpt>
      <trkpt lat="51.668323986232281" lon="0.4447649884969">
        <ele>97</ele>
        <time>2018-02-19T10:13:10Z</time>
      </trkpt>
      <trkpt lat="51.668304959312081" lon="0.444769011810422">
        <ele>97</ele>
        <time>2018-02-19T10:13:11Z</time>
      </trkpt>
      <trkpt lat="51.668285010382533" lon="0.444778986275196">
        <ele>97</ele>
        <time>2018-02-19T10:13:12Z</time>
      </trkpt>
      <trkpt lat="51.668265983462334" lon="0.444788038730621">
        <ele>97</ele>
        <time>2018-02-19T10:13:13Z</time>
      </trkpt>
      <trkpt lat="51.668247962370515" lon="0.444793989881873">
        <ele>97</ele>
        <time>2018-02-19T10:13:14Z</time>
      </trkpt>
      <trkpt lat="51.668230025097728" lon="0.444802036508918">
        <ele>97.120000000000005</ele>
        <time>2018-02-19T10:13:15Z</time>
      </trkpt>
      <trkpt lat="51.668212004005909" lon="0.444815028458834">
        <ele>98</ele>
        <time>2018-02-19T10:13:16Z</time>
      </trkpt>
      <trkpt lat="51.66819398291409" lon="0.444825002923608">
        <ele>98</ele>
        <time>2018-02-19T10:13:17Z</time>
      </trkpt>
      <trkpt lat="51.668173028156161" lon="0.444836989045143">
        <ele>98</ele>
        <time>2018-02-19T10:13:18Z</time>
      </trkpt>
      <trkpt lat="51.668156012892723" lon="0.444849980995059">
        <ele>98</ele>
        <time>2018-02-19T10:13:19Z</time>
      </trkpt>
      <trkpt lat="51.668135980144143" lon="0.444861967116594">
        <ele>98</ele>
        <time>2018-02-19T10:13:20Z</time>
      </trkpt>
      <trkpt lat="51.668116031214595" lon="0.4448720254004">
        <ele>98</ele>
        <time>2018-02-19T10:13:21Z</time>
      </trkpt>
      <trkpt lat="51.668095998466015" lon="0.444884011521935">
        <ele>98</ele>
        <time>2018-02-19T10:13:22Z</time>
      </trkpt>
      <trkpt lat="51.668076971545815" lon="0.44489398598671">
        <ele>98</ele>
        <time>2018-02-19T10:13:23Z</time>
      </trkpt>
      <trkpt lat="51.668060040101409" lon="0.444903960451484">
        <ele>98</ele>
        <time>2018-02-19T10:13:24Z</time>
      </trkpt>
      <trkpt lat="51.668044030666351" lon="0.444917036220431">
        <ele>98</ele>
        <time>2018-02-19T10:13:25Z</time>
      </trkpt>
      <trkpt lat="51.668023997917771" lon="0.444930028170347">
        <ele>98</ele>
        <time>2018-02-19T10:13:26Z</time>
      </trkpt>
      <trkpt lat="51.668003965169191" lon="0.444946037605405">
        <ele>98</ele>
        <time>2018-02-19T10:13:27Z</time>
      </trkpt>
      <trkpt lat="51.667980998754501" lon="0.444956012070179">
        <ele>98</ele>
        <time>2018-02-19T10:13:28Z</time>
      </trkpt>
      <trkpt lat="51.667961971834302" lon="0.444967998191714">
        <ele>98</ele>
        <time>2018-02-19T10:13:29Z</time>
      </trkpt>
      <trkpt lat="51.667939005419612" lon="0.444981995970011">
        <ele>98</ele>
        <time>2018-02-19T10:13:30Z</time>
      </trkpt>
      <trkpt lat="51.667918972671032" lon="0.444992976263165">
        <ele>98</ele>
        <time>2018-02-19T10:13:31Z</time>
      </trkpt>
      <trkpt lat="51.667902041226625" lon="0.445004040375352">
        <ele>98</ele>
        <time>2018-02-19T10:13:32Z</time>
      </trkpt>
      <trkpt lat="51.667879996821284" lon="0.445018038153648">
        <ele>98</ele>
        <time>2018-02-19T10:13:33Z</time>
      </trkpt>
      <trkpt lat="51.667861975729465" lon="0.445033041760325">
        <ele>98</ele>
        <time>2018-02-19T10:13:34Z</time>
      </trkpt>
      <trkpt lat="51.667844038456678" lon="0.445047039538622">
        <ele>98</ele>
        <time>2018-02-19T10:13:35Z</time>
      </trkpt>
      <trkpt lat="51.66782702319324" lon="0.445060031488538">
        <ele>98</ele>
        <time>2018-02-19T10:13:36Z</time>
      </trkpt>
      <trkpt lat="51.667791986837983" lon="0.445085009559989">
        <ele>98</ele>
        <time>2018-02-19T10:13:38Z</time>
      </trkpt>
      <trkpt lat="51.667773965746164" lon="0.445095989853144">
        <ele>98</ele>
        <time>2018-02-19T10:13:39Z</time>
      </trkpt>
      <trkpt lat="51.667758040130138" lon="0.445115016773343">
        <ele>98</ele>
        <time>2018-02-19T10:13:40Z</time>
      </trkpt>
      <trkpt lat="51.667738007381558" lon="0.445131026208401">
        <ele>98</ele>
        <time>2018-02-19T10:13:41Z</time>
      </trkpt>
      <trkpt lat="51.667715962976217" lon="0.445146029815078">
        <ele>98.111113984278006</ele>
        <time>2018-02-19T10:13:42Z</time>
      </trkpt>
      <trkpt lat="51.667696014046669" lon="0.445158015936613">
        <ele>99</ele>
        <time>2018-02-19T10:13:43Z</time>
      </trkpt>
      <trkpt lat="51.667673969641328" lon="0.44517201371491">
        <ele>99</ele>
        <time>2018-02-19T10:13:44Z</time>
      </trkpt>
      <trkpt lat="51.66765402071178" lon="0.445191040635109">
        <ele>99</ele>
        <time>2018-02-19T10:13:45Z</time>
      </trkpt>
      <trkpt lat="51.66763499379158" lon="0.445207972079515">
        <ele>99</ele>
        <time>2018-02-19T10:13:46Z</time>
      </trkpt>
      <trkpt lat="51.667615966871381" lon="0.445223981514573">
        <ele>99</ele>
        <time>2018-02-19T10:13:47Z</time>
      </trkpt>
      <trkpt lat="51.667599035426974" lon="0.445242002606392">
        <ele>99</ele>
        <time>2018-02-19T10:13:48Z</time>
      </trkpt>
      <trkpt lat="51.667580008506775" lon="0.44525801204145">
        <ele>99</ele>
        <time>2018-02-19T10:13:49Z</time>
      </trkpt>
      <trkpt lat="51.667561987414956" lon="0.445268992334604">
        <ele>99</ele>
        <time>2018-02-19T10:13:50Z</time>
      </trkpt>
      <trkpt lat="51.667543966323137" lon="0.445286007598042">
        <ele>99</ele>
        <time>2018-02-19T10:13:51Z</time>
      </trkpt>
      <trkpt lat="51.667513959109783" lon="0.445320960134268">
        <ele>99</ele>
        <time>2018-02-19T10:13:53Z</time>
      </trkpt>
      <trkpt lat="51.667496021836996" lon="0.445336969569325">
        <ele>99</ele>
        <time>2018-02-19T10:13:54Z</time>
      </trkpt>
      <trkpt lat="51.667480012401938" lon="0.445351973176003">
        <ele>99</ele>
        <time>2018-02-19T10:13:55Z</time>
      </trkpt>
      <trkpt lat="51.6674629971385" lon="0.445368988439441">
        <ele>99</ele>
        <time>2018-02-19T10:13:56Z</time>
      </trkpt>
      <trkpt lat="51.667445981875062" lon="0.445392038673162">
        <ele>99</ele>
        <time>2018-02-19T10:13:57Z</time>
      </trkpt>
      <trkpt lat="51.667428966611624" lon="0.445413999259472">
        <ele>99</ele>
        <time>2018-02-19T10:13:58Z</time>
      </trkpt>
      <trkpt lat="51.667413040995598" lon="0.445435959845781">
        <ele>99</ele>
        <time>2018-02-19T10:13:59Z</time>
      </trkpt>
      <trkpt lat="51.66739602573216" lon="0.445460015907884">
        <ele>99.106194990994695</ele>
        <time>2018-02-19T10:14:00Z</time>
      </trkpt>
      <trkpt lat="51.66737699881196" lon="0.445481976494193">
        <ele>99.991153249283499</ele>
        <time>2018-02-19T10:14:01Z</time>
      </trkpt>
      <trkpt lat="51.667361995205283" lon="0.445510977879167">
        <ele>100</ele>
        <time>2018-02-19T10:14:02Z</time>
      </trkpt>
      <trkpt lat="51.667345985770226" lon="0.445536961778998">
        <ele>100</ele>
        <time>2018-02-19T10:14:03Z</time>
      </trkpt>
      <trkpt lat="51.66733399964869" lon="0.445563029497862">
        <ele>100</ele>
        <time>2018-02-19T10:14:04Z</time>
      </trkpt>
      <trkpt lat="51.667317990213633" lon="0.445592030882835">
        <ele>100</ele>
        <time>2018-02-19T10:14:05Z</time>
      </trkpt>
      <trkpt lat="51.667304998263717" lon="0.44562203809619">
        <ele>100</ele>
        <time>2018-02-19T10:14:06Z</time>
      </trkpt>
      <trkpt lat="51.667293012142181" lon="0.445655984804034">
        <ele>100</ele>
        <time>2018-02-19T10:14:07Z</time>
      </trkpt>
      <trkpt lat="51.667281026020646" lon="0.44568800367415">
        <ele>100</ele>
        <time>2018-02-19T10:14:08Z</time>
      </trkpt>
      <trkpt lat="51.667271973565221" lon="0.445719016715884">
        <ele>100</ele>
        <time>2018-02-19T10:14:09Z</time>
      </trkpt>
      <trkpt lat="51.667260993272066" lon="0.445749023929238">
        <ele>100</ele>
        <time>2018-02-19T10:14:10Z</time>
      </trkpt>
      <trkpt lat="51.667250012978911" lon="0.445777019485831">
        <ele>100</ele>
        <time>2018-02-19T10:14:11Z</time>
      </trkpt>
      <trkpt lat="51.667238026857376" lon="0.445809038355947">
        <ele>100</ele>
        <time>2018-02-19T10:14:12Z</time>
      </trkpt>
      <trkpt lat="51.66722503490746" lon="0.445842985063791">
        <ele>100</ele>
        <time>2018-02-19T10:14:13Z</time>
      </trkpt>
      <trkpt lat="51.667211037129164" lon="0.445877015590668">
        <ele>100</ele>
        <time>2018-02-19T10:14:14Z</time>
      </trkpt>
      <trkpt lat="51.667196033522487" lon="0.445910962298512">
        <ele>100</ele>
        <time>2018-02-19T10:14:15Z</time>
      </trkpt>
      <trkpt lat="51.66718396358192" lon="0.445944992825389">
        <ele>100</ele>
        <time>2018-02-19T10:14:16Z</time>
      </trkpt>
      <trkpt lat="51.667171977460384" lon="0.445980029180646">
        <ele>100</ele>
        <time>2018-02-19T10:14:17Z</time>
      </trkpt>
      <trkpt lat="51.667159991338849" lon="0.44601297006011">
        <ele>100</ele>
        <time>2018-02-19T10:14:18Z</time>
      </trkpt>
      <trkpt lat="51.667145993560553" lon="0.446041971445084">
        <ele>100</ele>
        <time>2018-02-19T10:14:19Z</time>
      </trkpt>
      <trkpt lat="51.667133001610637" lon="0.446072984486818">
        <ele>100</ele>
        <time>2018-02-19T10:14:20Z</time>
      </trkpt>
      <trkpt lat="51.667121015489101" lon="0.446105003356934">
        <ele>100</ele>
        <time>2018-02-19T10:14:21Z</time>
      </trkpt>
      <trkpt lat="51.667108023539186" lon="0.446134004741907">
        <ele>100</ele>
        <time>2018-02-19T10:14:22Z</time>
      </trkpt>
      <trkpt lat="51.66709796525538" lon="0.446167029440403">
        <ele>100</ele>
        <time>2018-02-19T10:14:23Z</time>
      </trkpt>
      <trkpt lat="51.667085979133844" lon="0.446196030825377">
        <ele>100</ele>
        <time>2018-02-19T10:14:24Z</time>
      </trkpt>
      <trkpt lat="51.66707499884069" lon="0.446224026381969">
        <ele>100.10810779644601</ele>
        <time>2018-02-19T10:14:25Z</time>
      </trkpt>
      <trkpt lat="51.667065024375916" lon="0.446255039423704">
        <ele>101</ele>
        <time>2018-02-19T10:14:26Z</time>
      </trkpt>
      <trkpt lat="51.66705303825438" lon="0.446283034980297">
        <ele>101</ele>
        <time>2018-02-19T10:14:27Z</time>
      </trkpt>
      <trkpt lat="51.667042979970574" lon="0.44631103053689">
        <ele>101</ele>
        <time>2018-02-19T10:14:28Z</time>
      </trkpt>
      <trkpt lat="51.6670330055058" lon="0.446341037750244">
        <ele>101</ele>
        <time>2018-02-19T10:14:29Z</time>
      </trkpt>
      <trkpt lat="51.667023031041026" lon="0.446370961144567">
        <ele>101</ele>
        <time>2018-02-19T10:14:30Z</time>
      </trkpt>
      <trkpt lat="51.667014984413981" lon="0.446400968357921">
        <ele>101</ele>
        <time>2018-02-19T10:14:31Z</time>
      </trkpt>
      <trkpt lat="51.667007021605968" lon="0.446430975571275">
        <ele>101</ele>
        <time>2018-02-19T10:14:32Z</time>
      </trkpt>
      <trkpt lat="51.666996963322163" lon="0.446459976956248">
        <ele>101</ele>
        <time>2018-02-19T10:14:33Z</time>
      </trkpt>
      <trkpt lat="51.66698900051415" lon="0.446490989997983">
        <ele>101</ele>
        <time>2018-02-19T10:14:34Z</time>
      </trkpt>
      <trkpt lat="51.666981959715486" lon="0.446523008868098">
        <ele>101</ele>
        <time>2018-02-19T10:14:35Z</time>
      </trkpt>
      <trkpt lat="51.666975002735853" lon="0.446552010253072">
        <ele>101</ele>
        <time>2018-02-19T10:14:36Z</time>
      </trkpt>
      <trkpt lat="51.666967961937189" lon="0.446585034951568">
        <ele>101</ele>
        <time>2018-02-19T10:14:37Z</time>
      </trkpt>
      <trkpt lat="51.666959999129176" lon="0.446615964174271">
        <ele>101</ele>
        <time>2018-02-19T10:14:38Z</time>
      </trkpt>
      <trkpt lat="51.666949018836021" lon="0.446649994701147">
        <ele>101</ele>
        <time>2018-02-19T10:14:39Z</time>
      </trkpt>
      <trkpt lat="51.666941978037357" lon="0.446683019399643">
        <ele>101</ele>
        <time>2018-02-19T10:14:40Z</time>
      </trkpt>
      <trkpt lat="51.666938038542867" lon="0.446716966107488">
        <ele>101</ele>
        <time>2018-02-19T10:14:41Z</time>
      </trkpt>
      <trkpt lat="51.666933009400964" lon="0.446750996634364">
        <ele>101</ele>
        <time>2018-02-19T10:14:42Z</time>
      </trkpt>
      <trkpt lat="51.666928986087441" lon="0.446786032989621">
        <ele>101</ele>
        <time>2018-02-19T10:14:43Z</time>
      </trkpt>
      <trkpt lat="51.66692697443068" lon="0.446824003010988">
        <ele>101</ele>
        <time>2018-02-19T10:14:44Z</time>
      </trkpt>
      <trkpt lat="51.666924962773919" lon="0.446859961375594">
        <ele>101</ele>
        <time>2018-02-19T10:14:45Z</time>
      </trkpt>
      <trkpt lat="51.666918005794287" lon="0.44689298607409">
        <ele>101</ele>
        <time>2018-02-19T10:14:46Z</time>
      </trkpt>
      <trkpt lat="51.666910964995623" lon="0.446923999115825">
        <ele>101</ele>
        <time>2018-02-19T10:14:47Z</time>
      </trkpt>
      <trkpt lat="51.66690400801599" lon="0.446958029642701">
        <ele>101</ele>
        <time>2018-02-19T10:14:48Z</time>
      </trkpt>
      <trkpt lat="51.666898978874087" lon="0.446992982178926">
        <ele>101</ele>
        <time>2018-02-19T10:14:49Z</time>
      </trkpt>
      <trkpt lat="51.666898978874087" lon="0.447026006877422">
        <ele>101</ele>
        <time>2018-02-19T10:14:50Z</time>
      </trkpt>
      <trkpt lat="51.666898978874087" lon="0.447060037404299">
        <ele>101</ele>
        <time>2018-02-19T10:14:51Z</time>
      </trkpt>
      <trkpt lat="51.66690300218761" lon="0.447094989940524">
        <ele>101</ele>
        <time>2018-02-19T10:14:52Z</time>
      </trkpt>
      <trkpt lat="51.666909037157893" lon="0.44712801463902">
        <ele>101</ele>
        <time>2018-02-19T10:14:53Z</time>
      </trkpt>
      <trkpt lat="51.666911970824003" lon="0.447163973003626">
        <ele>101</ele>
        <time>2018-02-19T10:14:54Z</time>
      </trkpt>
      <trkpt lat="51.666912976652384" lon="0.447196997702122">
        <ele>101</ele>
        <time>2018-02-19T10:14:55Z</time>
      </trkpt>
      <trkpt lat="51.666914988309145" lon="0.447230022400618">
        <ele>101</ele>
        <time>2018-02-19T10:14:56Z</time>
      </trkpt>
      <trkpt lat="51.666915994137526" lon="0.447261035442352">
        <ele>101</ele>
        <time>2018-02-19T10:14:57Z</time>
      </trkpt>
      <trkpt lat="51.666915994137526" lon="0.447295987978578">
        <ele>101</ele>
        <time>2018-02-19T10:14:58Z</time>
      </trkpt>
      <trkpt lat="51.666914988309145" lon="0.447329012677073">
        <ele>101</ele>
        <time>2018-02-19T10:14:59Z</time>
      </trkpt>
      <trkpt lat="51.666914988309145" lon="0.447361031547189">
        <ele>101</ele>
        <time>2018-02-19T10:15:00Z</time>
      </trkpt>
      <trkpt lat="51.666913982480764" lon="0.447394978255033">
        <ele>101</ele>
        <time>2018-02-19T10:15:01Z</time>
      </trkpt>
      <trkpt lat="51.666912976652384" lon="0.447426997125149">
        <ele>101</ele>
        <time>2018-02-19T10:15:02Z</time>
      </trkpt>
      <trkpt lat="51.666911970824003" lon="0.447460021823645">
        <ele>101</ele>
        <time>2018-02-19T10:15:03Z</time>
      </trkpt>
      <trkpt lat="51.666910964995623" lon="0.44749204069376">
        <ele>100.88</ele>
        <time>2018-02-19T10:15:04Z</time>
      </trkpt>
      <trkpt lat="51.666908031329513" lon="0.447522969916463">
        <ele>100</ele>
        <time>2018-02-19T10:15:05Z</time>
      </trkpt>
      <trkpt lat="51.666906019672751" lon="0.447554988786578">
        <ele>100</ele>
        <time>2018-02-19T10:15:06Z</time>
      </trkpt>
      <trkpt lat="51.666907025501132" lon="0.447588013485074">
        <ele>100</ele>
        <time>2018-02-19T10:15:07Z</time>
      </trkpt>
      <trkpt lat="51.666907025501132" lon="0.447621960192919">
        <ele>100.022215269086</ele>
        <time>2018-02-19T10:15:08Z</time>
      </trkpt>
      <trkpt lat="51.666899984702468" lon="0.447652973234653">
        <ele>101</ele>
        <time>2018-02-19T10:15:09Z</time>
      </trkpt>
      <trkpt lat="51.666896967217326" lon="0.447683986276388">
        <ele>101</ele>
        <time>2018-02-19T10:15:10Z</time>
      </trkpt>
      <trkpt lat="51.666887998580933" lon="0.447718016803265">
        <ele>101</ele>
        <time>2018-02-19T10:15:11Z</time>
      </trkpt>
      <trkpt lat="51.666881963610649" lon="0.447747018188238">
        <ele>101</ele>
        <time>2018-02-19T10:15:12Z</time>
      </trkpt>
      <trkpt lat="51.666874000802636" lon="0.447779037058353">
        <ele>101</ele>
        <time>2018-02-19T10:15:13Z</time>
      </trkpt>
      <trkpt lat="51.666867965832353" lon="0.447810972109437">
        <ele>101</ele>
        <time>2018-02-19T10:15:14Z</time>
      </trkpt>
      <trkpt lat="51.666864026337862" lon="0.447842990979552">
        <ele>101</ele>
        <time>2018-02-19T10:15:15Z</time>
      </trkpt>
      <trkpt lat="51.666855979710817" lon="0.447877021506429">
        <ele>101</ele>
        <time>2018-02-19T10:15:16Z</time>
      </trkpt>
      <trkpt lat="51.666850028559566" lon="0.447908034548163">
        <ele>101</ele>
        <time>2018-02-19T10:15:17Z</time>
      </trkpt>
      <trkpt lat="51.666843993589282" lon="0.447941981256008">
        <ele>101</ele>
        <time>2018-02-19T10:15:18Z</time>
      </trkpt>
      <trkpt lat="51.66683703660965" lon="0.447976011782885">
        <ele>101</ele>
        <time>2018-02-19T10:15:19Z</time>
      </trkpt>
      <trkpt lat="51.666831001639366" lon="0.44800903648138">
        <ele>101</ele>
        <time>2018-02-19T10:15:20Z</time>
      </trkpt>
      <trkpt lat="51.666824966669083" lon="0.448041977360845">
        <ele>101</ele>
        <time>2018-02-19T10:15:21Z</time>
      </trkpt>
      <trkpt lat="51.66681700386107" lon="0.44807500205934">
        <ele>101</ele>
        <time>2018-02-19T10:15:22Z</time>
      </trkpt>
      <trkpt lat="51.666810968890786" lon="0.448107020929456">
        <ele>100.88</ele>
        <time>2018-02-19T10:15:23Z</time>
      </trkpt>
      <trkpt lat="51.666800994426012" lon="0.44813996180892">
        <ele>100</ele>
        <time>2018-02-19T10:15:24Z</time>
      </trkpt>
      <trkpt lat="51.666791019961238" lon="0.448171980679035">
        <ele>100</ele>
        <time>2018-02-19T10:15:25Z</time>
      </trkpt>
      <trkpt lat="51.666783979162574" lon="0.44820399954915">
        <ele>100</ele>
        <time>2018-02-19T10:15:26Z</time>
      </trkpt>
      <trkpt lat="51.666776016354561" lon="0.448231995105743">
        <ele>100</ele>
        <time>2018-02-19T10:15:27Z</time>
      </trkpt>
      <trkpt lat="51.666768975555897" lon="0.448259990662336">
        <ele>100</ele>
        <time>2018-02-19T10:15:28Z</time>
      </trkpt>
      <trkpt lat="51.666757995262742" lon="0.448287986218929">
        <ele>100</ele>
        <time>2018-02-19T10:15:29Z</time>
      </trkpt>
      <trkpt lat="51.666746009141207" lon="0.448318999260664">
        <ele>100</ele>
        <time>2018-02-19T10:15:30Z</time>
      </trkpt>
      <trkpt lat="51.666734023019671" lon="0.448348000645638">
        <ele>100</ele>
        <time>2018-02-19T10:15:31Z</time>
      </trkpt>
      <trkpt lat="51.666722958907485" lon="0.448377002030611">
        <ele>100.116504492413</ele>
        <time>2018-02-19T10:15:32Z</time>
      </trkpt>
      <trkpt lat="51.666709966957569" lon="0.448409020900726">
        <ele>101</ele>
        <time>2018-02-19T10:15:33Z</time>
      </trkpt>
      <trkpt lat="51.666699992492795" lon="0.448437016457319">
        <ele>101</ele>
        <time>2018-02-19T10:15:34Z</time>
      </trkpt>
      <trkpt lat="51.666677026078105" lon="0.448470041155815">
        <ele>101</ele>
        <time>2018-02-19T10:15:36Z</time>
      </trkpt>
      <trkpt lat="51.666657999157906" lon="0.448489990085363">
        <ele>101</ele>
        <time>2018-02-19T10:15:39Z</time>
      </trkpt>
      <trkpt lat="51.666632015258074" lon="0.448513040319085">
        <ele>100</ele>
        <time>2018-02-19T10:15:43Z</time>
      </trkpt>
      <trkpt lat="51.666612988337874" lon="0.448527038097382">
        <ele>100</ele>
        <time>2018-02-19T10:15:44Z</time>
      </trkpt>
      <trkpt lat="51.666592033579946" lon="0.448531983420253">
        <ele>100</ele>
        <time>2018-02-19T10:15:45Z</time>
      </trkpt>
      <trkpt lat="51.666569989174604" lon="0.448528965935111">
        <ele>100</ele>
        <time>2018-02-19T10:15:46Z</time>
      </trkpt>
      <trkpt lat="51.666549034416676" lon="0.448519997298718">
        <ele>100</ele>
        <time>2018-02-19T10:15:47Z</time>
      </trkpt>
      <trkpt lat="51.666530007496476" lon="0.448509017005563">
        <ele>100</ele>
        <time>2018-02-19T10:15:48Z</time>
      </trkpt>
      <trkpt lat="51.666509974747896" lon="0.448496025055647">
        <ele>100</ele>
        <time>2018-02-19T10:15:49Z</time>
      </trkpt>
      <trkpt lat="51.666491031646729" lon="0.448480015620589">
        <ele>100</ele>
        <time>2018-02-19T10:15:50Z</time>
      </trkpt>
      <trkpt lat="51.666469993069768" lon="0.448458977043629">
        <ele>100</ele>
        <time>2018-02-19T10:15:51Z</time>
      </trkpt>
      <trkpt lat="51.666449038311839" lon="0.4484380222857">
        <ele>100</ele>
        <time>2018-02-19T10:15:52Z</time>
      </trkpt>
      <trkpt lat="51.666429005563259" lon="0.44841798953712">
        <ele>100</ele>
        <time>2018-02-19T10:15:53Z</time>
      </trkpt>
      <trkpt lat="51.666408972814679" lon="0.448398040607572">
        <ele>100</ele>
        <time>2018-02-19T10:15:54Z</time>
      </trkpt>
      <trkpt lat="51.666391035541892" lon="0.448379013687372">
        <ele>100</ele>
        <time>2018-02-19T10:15:55Z</time>
      </trkpt>
      <trkpt lat="51.666355999186635" lon="0.448346994817257">
        <ele>100</ele>
        <time>2018-02-19T10:15:57Z</time>
      </trkpt>
      <trkpt lat="51.666331021115184" lon="0.448329979553819">
        <ele>100</ele>
        <time>2018-02-19T10:15:58Z</time>
      </trkpt>
      <trkpt lat="51.666309982538223" lon="0.44831003062427">
        <ele>100</ele>
        <time>2018-02-19T10:15:59Z</time>
      </trkpt>
      <trkpt lat="51.666288021951914" lon="0.448295027017593">
        <ele>100</ele>
        <time>2018-02-19T10:16:00Z</time>
      </trkpt>
      <trkpt lat="51.666265977546573" lon="0.448277005925775">
        <ele>100</ele>
        <time>2018-02-19T10:16:01Z</time>
      </trkpt>
      <trkpt lat="51.666245022788644" lon="0.448258984833956">
        <ele>100</ele>
        <time>2018-02-19T10:16:02Z</time>
      </trkpt>
      <trkpt lat="51.666223984211683" lon="0.448242975398898">
        <ele>100</ele>
        <time>2018-02-19T10:16:03Z</time>
      </trkpt>
      <trkpt lat="51.666206968948245" lon="0.448227971792221">
        <ele>100</ele>
        <time>2018-02-19T10:16:04Z</time>
      </trkpt>
      <trkpt lat="51.666189031675458" lon="0.448212968185544">
        <ele>100.12</ele>
        <time>2018-02-19T10:16:05Z</time>
      </trkpt>
      <trkpt lat="51.666168998926878" lon="0.448196958750486">
        <ele>101</ele>
        <time>2018-02-19T10:16:06Z</time>
      </trkpt>
      <trkpt lat="51.666149972006679" lon="0.44818103313446">
        <ele>101</ele>
        <time>2018-02-19T10:16:07Z</time>
      </trkpt>
      <trkpt lat="51.66613002307713" lon="0.448162006214261">
        <ele>101</ele>
        <time>2018-02-19T10:16:08Z</time>
      </trkpt>
      <trkpt lat="51.666110996156931" lon="0.448143985122442">
        <ele>101</ele>
        <time>2018-02-19T10:16:09Z</time>
      </trkpt>
      <trkpt lat="51.666092975065112" lon="0.448129987344146">
        <ele>101</ele>
        <time>2018-02-19T10:16:10Z</time>
      </trkpt>
      <trkpt lat="51.666075037792325" lon="0.448111966252327">
        <ele>101</ele>
        <time>2018-02-19T10:16:11Z</time>
      </trkpt>
      <trkpt lat="51.666060034185648" lon="0.44809503480792">
        <ele>101</ele>
        <time>2018-02-19T10:16:12Z</time>
      </trkpt>
      <trkpt lat="51.666045030578971" lon="0.44807399623096">
        <ele>101</ele>
        <time>2018-02-19T10:16:13Z</time>
      </trkpt>
      <trkpt lat="51.666024997830391" lon="0.44805203564465">
        <ele>101</ele>
        <time>2018-02-19T10:16:14Z</time>
      </trkpt>
      <trkpt lat="51.666004965081811" lon="0.44803200289607">
        <ele>101</ele>
        <time>2018-02-19T10:16:15Z</time>
      </trkpt>
      <trkpt lat="51.665984010323882" lon="0.448008030653">
        <ele>101</ele>
        <time>2018-02-19T10:16:16Z</time>
      </trkpt>
      <trkpt lat="51.665966995060444" lon="0.447985986247659">
        <ele>101</ele>
        <time>2018-02-19T10:16:17Z</time>
      </trkpt>
      <trkpt lat="51.665946962311864" lon="0.44796603731811">
        <ele>101</ele>
        <time>2018-02-19T10:16:18Z</time>
      </trkpt>
      <trkpt lat="51.665929025039077" lon="0.447949022054672">
        <ele>101</ele>
        <time>2018-02-19T10:16:19Z</time>
      </trkpt>
      <trkpt lat="51.665899017825723" lon="0.447911974042654">
        <ele>101</ele>
        <time>2018-02-19T10:16:21Z</time>
      </trkpt>
      <trkpt lat="51.665882002562284" lon="0.447894036769867">
        <ele>101</ele>
        <time>2018-02-19T10:16:22Z</time>
      </trkpt>
      <trkpt lat="51.665862975642085" lon="0.44788003899157">
        <ele>101</ele>
        <time>2018-02-19T10:16:23Z</time>
      </trkpt>
      <trkpt lat="51.665848977863789" lon="0.447862017899752">
        <ele>101</ele>
        <time>2018-02-19T10:16:24Z</time>
      </trkpt>
      <trkpt lat="51.66583196260035" lon="0.447842990979552">
        <ele>101</ele>
        <time>2018-02-19T10:16:25Z</time>
      </trkpt>
      <trkpt lat="51.665802961215377" lon="0.447806026786566">
        <ele>101</ele>
        <time>2018-02-19T10:16:27Z</time>
      </trkpt>
      <trkpt lat="51.665787035599351" lon="0.447782976552844">
        <ele>101</ele>
        <time>2018-02-19T10:16:28Z</time>
      </trkpt>
      <trkpt lat="51.665773037821054" lon="0.447765961289406">
        <ele>101</ele>
        <time>2018-02-19T10:16:29Z</time>
      </trkpt>
      <trkpt lat="51.665756022557616" lon="0.447745006531477">
        <ele>101</ele>
        <time>2018-02-19T10:16:30Z</time>
      </trkpt>
      <trkpt lat="51.665731966495514" lon="0.447719022631645">
        <ele>101</ele>
        <time>2018-02-19T10:16:31Z</time>
      </trkpt>
      <trkpt lat="51.665714029222727" lon="0.447698989883065">
        <ele>101</ele>
        <time>2018-02-19T10:16:32Z</time>
      </trkpt>
      <trkpt lat="51.665690978989005" lon="0.447678035125136">
        <ele>101</ele>
        <time>2018-02-19T10:16:33Z</time>
      </trkpt>
      <trkpt lat="51.665674969553947" lon="0.447656996548176">
        <ele>101</ele>
        <time>2018-02-19T10:16:34Z</time>
      </trkpt>
      <trkpt lat="51.665655020624399" lon="0.447640987113118">
        <ele>101</ele>
        <time>2018-02-19T10:16:35Z</time>
      </trkpt>
      <trkpt lat="51.6656359937042" lon="0.447619026526809">
        <ele>101</ele>
        <time>2018-02-19T10:16:36Z</time>
      </trkpt>
      <trkpt lat="51.665618978440762" lon="0.447597987949848">
        <ele>101</ele>
        <time>2018-02-19T10:16:37Z</time>
      </trkpt>
      <trkpt lat="51.665601041167974" lon="0.447574015706778">
        <ele>101</ele>
        <time>2018-02-19T10:16:38Z</time>
      </trkpt>
      <trkpt lat="51.665584025904536" lon="0.447551971301436">
        <ele>100.89380500900501</ele>
        <time>2018-02-19T10:16:39Z</time>
      </trkpt>
      <trkpt lat="51.665563993155956" lon="0.447533028200269">
        <ele>100.008846750716</ele>
        <time>2018-02-19T10:16:40Z</time>
      </trkpt>
      <trkpt lat="51.665544966235757" lon="0.447510983794928">
        <ele>101</ele>
        <time>2018-02-19T10:16:41Z</time>
      </trkpt>
      <trkpt lat="51.665529040619731" lon="0.447487011551857">
        <ele>101</ele>
        <time>2018-02-19T10:16:42Z</time>
      </trkpt>
      <trkpt lat="51.665512025356293" lon="0.447464967146516">
        <ele>100.967029566489</ele>
        <time>2018-02-19T10:16:43Z</time>
      </trkpt>
      <trkpt lat="51.665489980950952" lon="0.447431020438671">
        <ele>100</ele>
        <time>2018-02-19T10:16:45Z</time>
      </trkpt>
      <trkpt lat="51.665469026193023" lon="0.447417022660375">
        <ele>100</ele>
        <time>2018-02-19T10:16:47Z</time>
      </trkpt>
      <trkpt lat="51.665445975959301" lon="0.447425991296768">
        <ele>100.10204668051099</ele>
        <time>2018-02-19T10:16:49Z</time>
      </trkpt>
      <trkpt lat="51.665414962917566" lon="0.447447029873729">
        <ele>101</ele>
        <time>2018-02-19T10:16:51Z</time>
      </trkpt>
      <trkpt lat="51.665391996502876" lon="0.447464967146516">
        <ele>101</ele>
        <time>2018-02-19T10:16:52Z</time>
      </trkpt>
      <trkpt lat="51.665372969582677" lon="0.447489023208618">
        <ele>100.889907933675</ele>
        <time>2018-02-19T10:16:53Z</time>
      </trkpt>
      <trkpt lat="51.66535603813827" lon="0.447519030421972">
        <ele>100</ele>
        <time>2018-02-19T10:16:54Z</time>
      </trkpt>
      <trkpt lat="51.665342962369323" lon="0.447552977129817">
        <ele>100</ele>
        <time>2018-02-19T10:16:55Z</time>
      </trkpt>
      <trkpt lat="51.665331982076168" lon="0.447584995999932">
        <ele>100</ele>
        <time>2018-02-19T10:16:56Z</time>
      </trkpt>
      <trkpt lat="51.665323013439775" lon="0.447613997384906">
        <ele>100</ele>
        <time>2018-02-19T10:16:57Z</time>
      </trkpt>
      <trkpt lat="51.66531597264111" lon="0.44764400459826">
        <ele>100</ele>
        <time>2018-02-19T10:16:58Z</time>
      </trkpt>
      <trkpt lat="51.665310021489859" lon="0.447675017639995">
        <ele>100</ele>
        <time>2018-02-19T10:16:59Z</time>
      </trkpt>
      <trkpt lat="51.665298035368323" lon="0.447706030681729">
        <ele>100</ele>
        <time>2018-02-19T10:17:00Z</time>
      </trkpt>
      <trkpt lat="51.665288982912898" lon="0.447739977389574">
        <ele>100</ele>
        <time>2018-02-19T10:17:01Z</time>
      </trkpt>
      <trkpt lat="51.665280014276505" lon="0.447769984602928">
        <ele>100</ele>
        <time>2018-02-19T10:17:02Z</time>
      </trkpt>
      <trkpt lat="51.665265010669827" lon="0.447824969887733">
        <ele>100</ele>
        <time>2018-02-19T10:17:04Z</time>
      </trkpt>
      <trkpt lat="51.665256964042783" lon="0.447852965444326">
        <ele>100</ele>
        <time>2018-02-19T10:17:05Z</time>
      </trkpt>
      <trkpt lat="51.665246989578009" lon="0.4478819668293">
        <ele>100</ele>
        <time>2018-02-19T10:17:06Z</time>
      </trkpt>
      <trkpt lat="51.665237015113235" lon="0.447911974042654">
        <ele>100</ele>
        <time>2018-02-19T10:17:07Z</time>
      </trkpt>
      <trkpt lat="51.66522704064846" lon="0.447938963770866">
        <ele>100</ele>
        <time>2018-02-19T10:17:08Z</time>
      </trkpt>
      <trkpt lat="51.665218994021416" lon="0.44796503148973">
        <ele>100</ele>
        <time>2018-02-19T10:17:09Z</time>
      </trkpt>
      <trkpt lat="51.66520700789988" lon="0.447995038703084">
        <ele>100</ele>
        <time>2018-02-19T10:17:10Z</time>
      </trkpt>
      <trkpt lat="51.665196027606726" lon="0.448026973754168">
        <ele>100</ele>
        <time>2018-02-19T10:17:11Z</time>
      </trkpt>
      <trkpt lat="51.66518404148519" lon="0.448061004281044">
        <ele>100</ele>
        <time>2018-02-19T10:17:12Z</time>
      </trkpt>
      <trkpt lat="51.665170965716243" lon="0.448096040636301">
        <ele>100</ele>
        <time>2018-02-19T10:17:13Z</time>
      </trkpt>
      <trkpt lat="51.665158979594707" lon="0.448123030364513">
        <ele>100</ele>
        <time>2018-02-19T10:17:14Z</time>
      </trkpt>
      <trkpt lat="51.665141964331269" lon="0.448149014264345">
        <ele>100</ele>
        <time>2018-02-19T10:17:15Z</time>
      </trkpt>
      <trkpt lat="51.665126960724592" lon="0.448173992335796">
        <ele>100</ele>
        <time>2018-02-19T10:17:16Z</time>
      </trkpt>
      <trkpt lat="51.665114974603057" lon="0.448199976235628">
        <ele>100</ele>
        <time>2018-02-19T10:17:17Z</time>
      </trkpt>
      <trkpt lat="51.665101982653141" lon="0.448231995105743">
        <ele>100</ele>
        <time>2018-02-19T10:17:18Z</time>
      </trkpt>
      <trkpt lat="51.665092008188367" lon="0.448259990662336">
        <ele>100</ele>
        <time>2018-02-19T10:17:19Z</time>
      </trkpt>
      <trkpt lat="51.665080022066832" lon="0.44828899204731">
        <ele>100</ele>
        <time>2018-02-19T10:17:20Z</time>
      </trkpt>
      <trkpt lat="51.665068035945296" lon="0.448311958462">
        <ele>100</ele>
        <time>2018-02-19T10:17:21Z</time>
      </trkpt>
      <trkpt lat="51.665053032338619" lon="0.448338026180863">
        <ele>100</ele>
        <time>2018-02-19T10:17:22Z</time>
      </trkpt>
      <trkpt lat="51.665040040388703" lon="0.448366021737456">
        <ele>100</ele>
        <time>2018-02-19T10:17:23Z</time>
      </trkpt>
      <trkpt lat="51.665025958791375" lon="0.44839502312243">
        <ele>100</ele>
        <time>2018-02-19T10:17:24Z</time>
      </trkpt>
      <trkpt lat="51.665010033175349" lon="0.448425030335784">
        <ele>100</ele>
        <time>2018-02-19T10:17:25Z</time>
      </trkpt>
      <trkpt lat="51.664997041225433" lon="0.448454031720757">
        <ele>100</ele>
        <time>2018-02-19T10:17:26Z</time>
      </trkpt>
      <trkpt lat="51.664982037618756" lon="0.448480015620589">
        <ele>100</ele>
        <time>2018-02-19T10:17:27Z</time>
      </trkpt>
      <trkpt lat="51.664966028183699" lon="0.448502982035279">
        <ele>100</ele>
        <time>2018-02-19T10:17:28Z</time>
      </trkpt>
      <trkpt lat="51.664945995435119" lon="0.448522008955479">
        <ele>100</ele>
        <time>2018-02-19T10:17:29Z</time>
      </trkpt>
      <trkpt lat="51.66492898017168" lon="0.448537012562156">
        <ele>100</ele>
        <time>2018-02-19T10:17:30Z</time>
      </trkpt>
      <trkpt lat="51.664911964908242" lon="0.448556961491704">
        <ele>100</ele>
        <time>2018-02-19T10:17:31Z</time>
      </trkpt>
      <trkpt lat="51.664894027635455" lon="0.448579005897045">
        <ele>100</ele>
        <time>2018-02-19T10:17:32Z</time>
      </trkpt>
      <trkpt lat="51.664867037907243" lon="0.448619993403554">
        <ele>100</ele>
        <time>2018-02-19T10:17:34Z</time>
      </trkpt>
      <trkpt lat="51.664850022643805" lon="0.448641031980515">
        <ele>100</ele>
        <time>2018-02-19T10:17:35Z</time>
      </trkpt>
      <trkpt lat="51.664830995723605" lon="0.448659975081682">
        <ele>100</ele>
        <time>2018-02-19T10:17:36Z</time>
      </trkpt>
      <trkpt lat="51.664810962975025" lon="0.448677996173501">
        <ele>100</ele>
        <time>2018-02-19T10:17:37Z</time>
      </trkpt>
      <trkpt lat="51.664792019873857" lon="0.448698028922081">
        <ele>100</ele>
        <time>2018-02-19T10:17:38Z</time>
      </trkpt>
      <trkpt lat="51.664769975468516" lon="0.448715966194868">
        <ele>100</ele>
        <time>2018-02-19T10:17:39Z</time>
      </trkpt>
      <trkpt lat="51.664752038195729" lon="0.448732981458306">
        <ele>100</ele>
        <time>2018-02-19T10:17:40Z</time>
      </trkpt>
      <trkpt lat="51.664732005447149" lon="0.448749996721745">
        <ele>100</ele>
        <time>2018-02-19T10:17:41Z</time>
      </trkpt>
      <trkpt lat="51.66471297852695" lon="0.448765000328422">
        <ele>100</ele>
        <time>2018-02-19T10:17:42Z</time>
      </trkpt>
      <trkpt lat="51.664694035425782" lon="0.448785033077002">
        <ele>100</ele>
        <time>2018-02-19T10:17:43Z</time>
      </trkpt>
      <trkpt lat="51.664675008505583" lon="0.44880598783493">
        <ele>100</ele>
        <time>2018-02-19T10:17:44Z</time>
      </trkpt>
      <trkpt lat="51.664655981585383" lon="0.44882501475513">
        <ele>100</ele>
        <time>2018-02-19T10:17:45Z</time>
      </trkpt>
      <trkpt lat="51.664636032655835" lon="0.448844041675329">
        <ele>100</ele>
        <time>2018-02-19T10:17:46Z</time>
      </trkpt>
      <trkpt lat="51.664618011564016" lon="0.448861978948116">
        <ele>100</ele>
        <time>2018-02-19T10:17:47Z</time>
      </trkpt>
      <trkpt lat="51.664596972987056" lon="0.448881005868316">
        <ele>100</ele>
        <time>2018-02-19T10:17:48Z</time>
      </trkpt>
      <trkpt lat="51.664564032107592" lon="0.448913024738431">
        <ele>100</ele>
        <time>2018-02-19T10:17:50Z</time>
      </trkpt>
      <trkpt lat="51.664545005187392" lon="0.448926016688347">
        <ele>100</ele>
        <time>2018-02-19T10:17:51Z</time>
      </trkpt>
      <trkpt lat="51.664526984095573" lon="0.448940014466643">
        <ele>100</ele>
        <time>2018-02-19T10:17:52Z</time>
      </trkpt>
      <trkpt lat="51.664509968832135" lon="0.448957029730082">
        <ele>100</ele>
        <time>2018-02-19T10:17:53Z</time>
      </trkpt>
      <trkpt lat="51.664493959397078" lon="0.448974967002869">
        <ele>100</ele>
        <time>2018-02-19T10:17:54Z</time>
      </trkpt>
      <trkpt lat="51.66447602212429" lon="0.448992988094687">
        <ele>100</ele>
        <time>2018-02-19T10:17:55Z</time>
      </trkpt>
      <trkpt lat="51.664460012689233" lon="0.449012015014887">
        <ele>100</ele>
        <time>2018-02-19T10:17:56Z</time>
      </trkpt>
      <trkpt lat="51.664442997425795" lon="0.449033975601196">
        <ele>100</ele>
        <time>2018-02-19T10:17:57Z</time>
      </trkpt>
      <trkpt lat="51.664427993819118" lon="0.449058031663299">
        <ele>100</ele>
        <time>2018-02-19T10:17:58Z</time>
      </trkpt>
      <trkpt lat="51.664409972727299" lon="0.449080998077989">
        <ele>100</ele>
        <time>2018-02-19T10:17:59Z</time>
      </trkpt>
      <trkpt lat="51.664391029626131" lon="0.449104970321059">
        <ele>100</ele>
        <time>2018-02-19T10:18:00Z</time>
      </trkpt>
      <trkpt lat="51.664374014362693" lon="0.449125003069639">
        <ele>100</ele>
        <time>2018-02-19T10:18:01Z</time>
      </trkpt>
      <trkpt lat="51.664354987442493" lon="0.4491460416466">
        <ele>100</ele>
        <time>2018-02-19T10:18:02Z</time>
      </trkpt>
      <trkpt lat="51.664335038512945" lon="0.449163978919387">
        <ele>100</ele>
        <time>2018-02-19T10:18:03Z</time>
      </trkpt>
      <trkpt lat="51.664318023249507" lon="0.449180994182825">
        <ele>100</ele>
        <time>2018-02-19T10:18:04Z</time>
      </trkpt>
      <trkpt lat="51.664300002157688" lon="0.449197003617883">
        <ele>100</ele>
        <time>2018-02-19T10:18:05Z</time>
      </trkpt>
      <trkpt lat="51.66428298689425" lon="0.449215024709702">
        <ele>100</ele>
        <time>2018-02-19T10:18:06Z</time>
      </trkpt>
      <trkpt lat="51.664264965802431" lon="0.449232961982489">
        <ele>100</ele>
        <time>2018-02-19T10:18:07Z</time>
      </trkpt>
      <trkpt lat="51.664246022701263" lon="0.449248971417546">
        <ele>100</ele>
        <time>2018-02-19T10:18:08Z</time>
      </trkpt>
      <trkpt lat="51.664225989952683" lon="0.449264980852604">
        <ele>99.879999999999995</ele>
        <time>2018-02-19T10:18:09Z</time>
      </trkpt>
      <trkpt lat="51.664207968860865" lon="0.4492789786309">
        <ele>99.093023486569905</ele>
        <time>2018-02-19T10:18:10Z</time>
      </trkpt>
      <trkpt lat="51.664191959425807" lon="0.449293982237577">
        <ele>99.868219207985604</ele>
        <time>2018-02-19T10:18:11Z</time>
      </trkpt>
      <trkpt lat="51.6641750279814" lon="0.449309991672635">
        <ele>100</ele>
        <time>2018-02-19T10:18:12Z</time>
      </trkpt>
      <trkpt lat="51.664158012717962" lon="0.449327006936073">
        <ele>100</ele>
        <time>2018-02-19T10:18:13Z</time>
      </trkpt>
      <trkpt lat="51.664140997454524" lon="0.449339998885989">
        <ele>100</ele>
        <time>2018-02-19T10:18:14Z</time>
      </trkpt>
      <trkpt lat="51.664123982191086" lon="0.449352990835905">
        <ele>100</ele>
        <time>2018-02-19T10:18:15Z</time>
      </trkpt>
      <trkpt lat="51.664096992462873" lon="0.449381992220879">
        <ele>100</ele>
        <time>2018-02-19T10:18:17Z</time>
      </trkpt>
      <trkpt lat="51.664070002734661" lon="0.449415016919374">
        <ele>99.879999999999995</ele>
        <time>2018-02-19T10:18:19Z</time>
      </trkpt>
      <trkpt lat="51.664049969986081" lon="0.449433960020542">
        <ele>99</ele>
        <time>2018-02-19T10:18:20Z</time>
      </trkpt>
      <trkpt lat="51.664034966379404" lon="0.44944804161787">
        <ele>99</ele>
        <time>2018-02-19T10:18:21Z</time>
      </trkpt>
      <trkpt lat="51.664017029106617" lon="0.449461033567786">
        <ele>99</ele>
        <time>2018-02-19T10:18:22Z</time>
      </trkpt>
      <trkpt lat="51.663999008014798" lon="0.449474025517702">
        <ele>99</ele>
        <time>2018-02-19T10:18:23Z</time>
      </trkpt>
      <trkpt lat="51.663974029943347" lon="0.449488023295999">
        <ele>99</ele>
        <time>2018-02-19T10:18:24Z</time>
      </trkpt>
      <trkpt lat="51.663950979709625" lon="0.449505960568786">
        <ele>99</ele>
        <time>2018-02-19T10:18:25Z</time>
      </trkpt>
      <trkpt lat="51.663932958617806" lon="0.449525993317366">
        <ele>99</ele>
        <time>2018-02-19T10:18:26Z</time>
      </trkpt>
      <trkpt lat="51.663914015516639" lon="0.449548037722707">
        <ele>99</ele>
        <time>2018-02-19T10:18:27Z</time>
      </trkpt>
      <trkpt lat="51.663897000253201" lon="0.449568992480636">
        <ele>99</ele>
        <time>2018-02-19T10:18:28Z</time>
      </trkpt>
      <trkpt lat="51.663878979161382" lon="0.449588019400835">
        <ele>99</ele>
        <time>2018-02-19T10:18:29Z</time>
      </trkpt>
      <trkpt lat="51.663860036060214" lon="0.449610985815525">
        <ele>99</ele>
        <time>2018-02-19T10:18:30Z</time>
      </trkpt>
      <trkpt lat="51.663838997483253" lon="0.449630012735724">
        <ele>99</ele>
        <time>2018-02-19T10:18:31Z</time>
      </trkpt>
      <trkpt lat="51.663817958906293" lon="0.449650967493653">
        <ele>99.063836161115503</ele>
        <time>2018-02-19T10:18:32Z</time>
      </trkpt>
      <trkpt lat="51.663798009976745" lon="0.449672006070614">
        <ele>100</ele>
        <time>2018-02-19T10:18:33Z</time>
      </trkpt>
      <trkpt lat="51.663776971399784" lon="0.449693966656923">
        <ele>100</ele>
        <time>2018-02-19T10:18:34Z</time>
      </trkpt>
      <trkpt lat="51.663758028298616" lon="0.449716011062264">
        <ele>100</ele>
        <time>2018-02-19T10:18:35Z</time>
      </trkpt>
      <trkpt lat="51.663740007206798" lon="0.449739983305335">
        <ele>99.893805009005305</ele>
        <time>2018-02-19T10:18:36Z</time>
      </trkpt>
      <trkpt lat="51.663722991943359" lon="0.449764039367437">
        <ele>99.008846750716501</ele>
        <time>2018-02-19T10:18:37Z</time>
      </trkpt>
      <trkpt lat="51.663705976679921" lon="0.449785999953747">
        <ele>99</ele>
        <time>2018-02-19T10:18:38Z</time>
      </trkpt>
      <trkpt lat="51.663687033578753" lon="0.449807038530707">
        <ele>99</ele>
        <time>2018-02-19T10:18:39Z</time>
      </trkpt>
      <trkpt lat="51.663663983345032" lon="0.449838973581791">
        <ele>99</ele>
        <time>2018-02-19T10:18:41Z</time>
      </trkpt>
      <trkpt lat="51.663643028587103" lon="0.449873004108667">
        <ele>99</ele>
        <time>2018-02-19T10:18:43Z</time>
      </trkpt>
      <trkpt lat="51.663621990010142" lon="0.449898988008499">
        <ele>99</ele>
        <time>2018-02-19T10:18:45Z</time>
      </trkpt>
      <trkpt lat="51.663604974746704" lon="0.449924971908331">
        <ele>99</ele>
        <time>2018-02-19T10:18:47Z</time>
      </trkpt>
      <trkpt lat="51.663579996675253" lon="0.449961014091969">
        <ele>99</ele>
        <time>2018-02-19T10:18:49Z</time>
      </trkpt>
      <trkpt lat="51.66355200111866" lon="0.450000995770097">
        <ele>99</ele>
        <time>2018-02-19T10:18:51Z</time>
      </trkpt>
      <trkpt lat="51.663532974198461" lon="0.450023962184787">
        <ele>99</ele>
        <time>2018-02-19T10:18:52Z</time>
      </trkpt>
      <trkpt lat="51.663519982248545" lon="0.450045000761747">
        <ele>99</ele>
        <time>2018-02-19T10:18:53Z</time>
      </trkpt>
      <trkpt lat="51.663492992520332" lon="0.450076013803482">
        <ele>99</ele>
        <time>2018-02-19T10:18:55Z</time>
      </trkpt>
      <trkpt lat="51.663476983085275" lon="0.450109038501978">
        <ele>99</ele>
        <time>2018-02-19T10:18:57Z</time>
      </trkpt>
      <trkpt lat="51.663462985306978" lon="0.450143991038203">
        <ele>99</ele>
        <time>2018-02-19T10:18:59Z</time>
      </trkpt>
      <trkpt lat="51.663440018892288" lon="0.450170980766416">
        <ele>99</ele>
        <time>2018-02-19T10:19:01Z</time>
      </trkpt>
      <trkpt lat="51.663387967273593" lon="0.450257984921336">
        <ele>99</ele>
        <time>2018-02-19T10:19:06Z</time>
      </trkpt>
      <trkpt lat="51.663331976160407" lon="0.450405003502965">
        <ele>99</ele>
        <time>2018-02-19T10:19:15Z</time>
      </trkpt>
      <trkpt lat="51.663247989490628" lon="0.450498964637518">
        <ele>99</ele>
        <time>2018-02-19T10:19:19Z</time>
      </trkpt>
      <trkpt lat="51.663150005042553" lon="0.450618993490934">
        <ele>99</ele>
        <time>2018-02-19T10:19:23Z</time>
      </trkpt>
      <trkpt lat="51.663113962858915" lon="0.450682025402784">
        <ele>99</ele>
        <time>2018-02-19T10:19:25Z</time>
      </trkpt>
      <trkpt lat="51.663096025586128" lon="0.450709015130997">
        <ele>99</ele>
        <time>2018-02-19T10:19:26Z</time>
      </trkpt>
      <trkpt lat="51.663078004494309" lon="0.450733993202448">
        <ele>99</ele>
        <time>2018-02-19T10:19:27Z</time>
      </trkpt>
      <trkpt lat="51.66305897757411" lon="0.450757965445518">
        <ele>99</ele>
        <time>2018-02-19T10:19:28Z</time>
      </trkpt>
      <trkpt lat="51.663043973967433" lon="0.450786966830492">
        <ele>99</ele>
        <time>2018-02-19T10:19:29Z</time>
      </trkpt>
      <trkpt lat="51.663023019209504" lon="0.450815968215466">
        <ele>99</ele>
        <time>2018-02-19T10:19:30Z</time>
      </trkpt>
      <trkpt lat="51.663010027259588" lon="0.450841030105948">
        <ele>99</ele>
        <time>2018-02-19T10:19:31Z</time>
      </trkpt>
      <trkpt lat="51.662998963147402" lon="0.4508660081774">
        <ele>99</ele>
        <time>2018-02-19T10:19:32Z</time>
      </trkpt>
      <trkpt lat="51.662987982854247" lon="0.450890986248851">
        <ele>99</ele>
        <time>2018-02-19T10:19:33Z</time>
      </trkpt>
      <trkpt lat="51.662974990904331" lon="0.450911018997431">
        <ele>99</ele>
        <time>2018-02-19T10:19:34Z</time>
      </trkpt>
      <trkpt lat="51.662964010611176" lon="0.450938008725643">
        <ele>99</ele>
        <time>2018-02-19T10:19:35Z</time>
      </trkpt>
      <trkpt lat="51.66295001283288" lon="0.450959969311953">
        <ele>99</ele>
        <time>2018-02-19T10:19:36Z</time>
      </trkpt>
      <trkpt lat="51.662938026711345" lon="0.450984025374055">
        <ele>99</ele>
        <time>2018-02-19T10:19:37Z</time>
      </trkpt>
      <trkpt lat="51.662924028933048" lon="0.451006991788745">
        <ele>99</ele>
        <time>2018-02-19T10:19:38Z</time>
      </trkpt>
      <trkpt lat="51.662897961214185" lon="0.451044039800763">
        <ele>99</ele>
        <time>2018-02-19T10:19:40Z</time>
      </trkpt>
      <trkpt lat="51.662876000627875" lon="0.451087960973382">
        <ele>99</ele>
        <time>2018-02-19T10:19:42Z</time>
      </trkpt>
      <trkpt lat="51.662859991192818" lon="0.451111011207104">
        <ele>99</ele>
        <time>2018-02-19T10:19:43Z</time>
      </trkpt>
      <trkpt lat="51.662841970100999" lon="0.451141018420458">
        <ele>99</ele>
        <time>2018-02-19T10:19:44Z</time>
      </trkpt>
      <trkpt lat="51.662829983979464" lon="0.451171025633812">
        <ele>99</ele>
        <time>2018-02-19T10:19:45Z</time>
      </trkpt>
      <trkpt lat="51.662820009514689" lon="0.451226010918617">
        <ele>99</ele>
        <time>2018-02-19T10:19:47Z</time>
      </trkpt>
      <trkpt lat="51.662808023393154" lon="0.451256018131971">
        <ele>99</ele>
        <time>2018-02-19T10:19:48Z</time>
      </trkpt>
      <trkpt lat="51.662788996472955" lon="0.451286025345325">
        <ele>99</ele>
        <time>2018-02-19T10:19:49Z</time>
      </trkpt>
      <trkpt lat="51.662768963724375" lon="0.451314020901918">
        <ele>99</ele>
        <time>2018-02-19T10:19:50Z</time>
      </trkpt>
      <trkpt lat="51.662745997309685" lon="0.451346961781383">
        <ele>99</ele>
        <time>2018-02-19T10:19:51Z</time>
      </trkpt>
      <trkpt lat="51.662731999531388" lon="0.451384009793401">
        <ele>99</ele>
        <time>2018-02-19T10:19:52Z</time>
      </trkpt>
      <trkpt lat="51.662718001753092" lon="0.451421979814768">
        <ele>99</ele>
        <time>2018-02-19T10:19:53Z</time>
      </trkpt>
      <trkpt lat="51.662696963176131" lon="0.451460033655167">
        <ele>99</ele>
        <time>2018-02-19T10:19:54Z</time>
      </trkpt>
      <trkpt lat="51.662679025903344" lon="0.451490040868521">
        <ele>99</ele>
        <time>2018-02-19T10:19:55Z</time>
      </trkpt>
      <trkpt lat="51.662664022296667" lon="0.45151099562645">
        <ele>99</ele>
        <time>2018-02-19T10:19:56Z</time>
      </trkpt>
      <trkpt lat="51.662651030346751" lon="0.451533040031791">
        <ele>99</ele>
        <time>2018-02-19T10:19:57Z</time>
      </trkpt>
      <trkpt lat="51.662636026740074" lon="0.451549971476197">
        <ele>99</ele>
        <time>2018-02-19T10:19:58Z</time>
      </trkpt>
      <trkpt lat="51.662622028961778" lon="0.45157503336668">
        <ele>99</ele>
        <time>2018-02-19T10:19:59Z</time>
      </trkpt>
      <trkpt lat="51.66260601952672" lon="0.451601017266512">
        <ele>99</ele>
        <time>2018-02-19T10:20:00Z</time>
      </trkpt>
      <trkpt lat="51.662586992606521" lon="0.451625995337963">
        <ele>99</ele>
        <time>2018-02-19T10:20:01Z</time>
      </trkpt>
      <trkpt lat="51.662568971514702" lon="0.451656002551317">
        <ele>99</ele>
        <time>2018-02-19T10:20:02Z</time>
      </trkpt>
      <trkpt lat="51.662552040070295" lon="0.45168299227953">
        <ele>99</ele>
        <time>2018-02-19T10:20:03Z</time>
      </trkpt>
      <trkpt lat="51.662533013150096" lon="0.451715011149645">
        <ele>99</ele>
        <time>2018-02-19T10:20:04Z</time>
      </trkpt>
      <trkpt lat="51.662514992058277" lon="0.451745018362999">
        <ele>99</ele>
        <time>2018-02-19T10:20:05Z</time>
      </trkpt>
      <trkpt lat="51.662498982623219" lon="0.45176899060607">
        <ele>99</ele>
        <time>2018-02-19T10:20:06Z</time>
      </trkpt>
      <trkpt lat="51.662486996501684" lon="0.451793968677521">
        <ele>99</ele>
        <time>2018-02-19T10:20:07Z</time>
      </trkpt>
      <trkpt lat="51.662474004551768" lon="0.451816013082862">
        <ele>99</ele>
        <time>2018-02-19T10:20:08Z</time>
      </trkpt>
      <trkpt lat="51.662460006773472" lon="0.451838979497552">
        <ele>99</ele>
        <time>2018-02-19T10:20:09Z</time>
      </trkpt>
      <trkpt lat="51.662448020651937" lon="0.451869992539287">
        <ele>99</ele>
        <time>2018-02-19T10:20:10Z</time>
      </trkpt>
      <trkpt lat="51.66243402287364" lon="0.451899999752641">
        <ele>99</ele>
        <time>2018-02-19T10:20:11Z</time>
      </trkpt>
      <trkpt lat="51.662420025095344" lon="0.451925983652473">
        <ele>99</ele>
        <time>2018-02-19T10:20:12Z</time>
      </trkpt>
      <trkpt lat="51.662406027317047" lon="0.451950039714575">
        <ele>99</ele>
        <time>2018-02-19T10:20:13Z</time>
      </trkpt>
      <trkpt lat="51.662394041195512" lon="0.451975017786026">
        <ele>99</ele>
        <time>2018-02-19T10:20:14Z</time>
      </trkpt>
      <trkpt lat="51.662379959598184" lon="0.452003013342619">
        <ele>99</ele>
        <time>2018-02-19T10:20:15Z</time>
      </trkpt>
      <trkpt lat="51.662365039810538" lon="0.452028997242451">
        <ele>99</ele>
        <time>2018-02-19T10:20:16Z</time>
      </trkpt>
      <trkpt lat="51.6623480245471" lon="0.452052969485521">
        <ele>99</ele>
        <time>2018-02-19T10:20:17Z</time>
      </trkpt>
      <trkpt lat="51.662332015112042" lon="0.452075013890862">
        <ele>99</ele>
        <time>2018-02-19T10:20:18Z</time>
      </trkpt>
      <trkpt lat="51.662316005676985" lon="0.452099991962314">
        <ele>99</ele>
        <time>2018-02-19T10:20:19Z</time>
      </trkpt>
      <trkpt lat="51.662299996241927" lon="0.452122958377004">
        <ele>99</ele>
        <time>2018-02-19T10:20:20Z</time>
      </trkpt>
      <trkpt lat="51.66228499263525" lon="0.452146008610725">
        <ele>99</ele>
        <time>2018-02-19T10:20:21Z</time>
      </trkpt>
      <trkpt lat="51.662258002907038" lon="0.452190013602376">
        <ele>99</ele>
        <time>2018-02-19T10:20:23Z</time>
      </trkpt>
      <trkpt lat="51.662244005128741" lon="0.452207028865814">
        <ele>99</ele>
        <time>2018-02-19T10:20:24Z</time>
      </trkpt>
      <trkpt lat="51.662230007350445" lon="0.452229995280504">
        <ele>99</ele>
        <time>2018-02-19T10:20:25Z</time>
      </trkpt>
      <trkpt lat="51.662216009572148" lon="0.452252039685845">
        <ele>99</ele>
        <time>2018-02-19T10:20:26Z</time>
      </trkpt>
      <trkpt lat="51.662204023450613" lon="0.452276011928916">
        <ele>99</ele>
        <time>2018-02-19T10:20:27Z</time>
      </trkpt>
      <trkpt lat="51.662190025672317" lon="0.452303001657128">
        <ele>99</ele>
        <time>2018-02-19T10:20:28Z</time>
      </trkpt>
      <trkpt lat="51.66217602789402" lon="0.45232797972858">
        <ele>99</ele>
        <time>2018-02-19T10:20:29Z</time>
      </trkpt>
      <trkpt lat="51.662162030115724" lon="0.452354969456792">
        <ele>99</ele>
        <time>2018-02-19T10:20:30Z</time>
      </trkpt>
      <trkpt lat="51.662148032337427" lon="0.452378019690514">
        <ele>99</ele>
        <time>2018-02-19T10:20:31Z</time>
      </trkpt>
      <trkpt lat="51.66213302873075" lon="0.452399980276823">
        <ele>99</ele>
        <time>2018-02-19T10:20:32Z</time>
      </trkpt>
      <trkpt lat="51.662116013467312" lon="0.452423030510545">
        <ele>98.893805009005305</ele>
        <time>2018-02-19T10:20:33Z</time>
      </trkpt>
      <trkpt lat="51.662100004032254" lon="0.452443985268474">
        <ele>98.008846750716501</ele>
        <time>2018-02-19T10:20:34Z</time>
      </trkpt>
      <trkpt lat="51.662085000425577" lon="0.452465023845434">
        <ele>98</ele>
        <time>2018-02-19T10:20:35Z</time>
      </trkpt>
      <trkpt lat="51.662073014304042" lon="0.452490001916885">
        <ele>98.109091543805306</ele>
        <time>2018-02-19T10:20:36Z</time>
      </trkpt>
      <trkpt lat="51.662059016525745" lon="0.452511040493846">
        <ele>99</ele>
        <time>2018-02-19T10:20:37Z</time>
      </trkpt>
      <trkpt lat="51.662042001262307" lon="0.452550016343594">
        <ele>99</ele>
        <time>2018-02-19T10:20:39Z</time>
      </trkpt>
      <trkpt lat="51.662017023190856" lon="0.452588992193341">
        <ele>99</ele>
        <time>2018-02-19T10:20:41Z</time>
      </trkpt>
      <trkpt lat="51.661993972957134" lon="0.452623022720218">
        <ele>99</ele>
        <time>2018-02-19T10:20:43Z</time>
      </trkpt>
      <trkpt lat="51.661972012370825" lon="0.452648000791669">
        <ele>99</ele>
        <time>2018-02-19T10:20:46Z</time>
      </trkpt>
      <trkpt lat="51.661952985450625" lon="0.452666021883488">
        <ele>99</ele>
        <time>2018-02-19T10:20:49Z</time>
      </trkpt>
      <trkpt lat="51.661931024864316" lon="0.452690999954939">
        <ele>99</ele>
        <time>2018-02-19T10:20:53Z</time>
      </trkpt>
      <trkpt lat="51.661909986287355" lon="0.452702986076474">
        <ele>99</ele>
        <time>2018-02-19T10:20:55Z</time>
      </trkpt>
      <trkpt lat="51.66189800016582" lon="0.452731987461448">
        <ele>99</ele>
        <time>2018-02-19T10:20:57Z</time>
      </trkpt>
      <trkpt lat="51.661904035136104" lon="0.452781021595001">
        <ele>99</ele>
        <time>2018-02-19T10:20:59Z</time>
      </trkpt>
      <trkpt lat="51.661928007379174" lon="0.452813962474465">
        <ele>99</ele>
        <time>2018-02-19T10:21:01Z</time>
      </trkpt>
      <trkpt lat="51.661959020420909" lon="0.452847993001342">
        <ele>99</ele>
        <time>2018-02-19T10:21:03Z</time>
      </trkpt>
      <trkpt lat="51.661976035684347" lon="0.452869031578302">
        <ele>99</ele>
        <time>2018-02-19T10:21:04Z</time>
      </trkpt>
      <trkpt lat="51.661994978785515" lon="0.45288797467947">
        <ele>99</ele>
        <time>2018-02-19T10:21:05Z</time>
      </trkpt>
      <trkpt lat="51.662015011534095" lon="0.452903984114528">
        <ele>99</ele>
        <time>2018-02-19T10:21:06Z</time>
      </trkpt>
      <trkpt lat="51.662034038454294" lon="0.452916976064444">
        <ele>99</ele>
        <time>2018-02-19T10:21:07Z</time>
      </trkpt>
      <trkpt lat="51.662055999040604" lon="0.452933991327882">
        <ele>99</ele>
        <time>2018-02-19T10:21:08Z</time>
      </trkpt>
      <trkpt lat="51.662076031789184" lon="0.452952012419701">
        <ele>99</ele>
        <time>2018-02-19T10:21:09Z</time>
      </trkpt>
      <trkpt lat="51.662097992375493" lon="0.452972967177629">
        <ele>99</ele>
        <time>2018-02-19T10:21:10Z</time>
      </trkpt>
      <trkpt lat="51.662120958790183" lon="0.452996017411351">
        <ele>99</ele>
        <time>2018-02-19T10:21:11Z</time>
      </trkpt>
      <trkpt lat="51.662139985710382" lon="0.453017977997661">
        <ele>99</ele>
        <time>2018-02-19T10:21:12Z</time>
      </trkpt>
      <trkpt lat="51.662159012630582" lon="0.453038010746241">
        <ele>99</ele>
        <time>2018-02-19T10:21:13Z</time>
      </trkpt>
      <trkpt lat="51.662177033722401" lon="0.453056031838059">
        <ele>99</ele>
        <time>2018-02-19T10:21:14Z</time>
      </trkpt>
      <trkpt lat="51.662195976823568" lon="0.453076986595988">
        <ele>99</ele>
        <time>2018-02-19T10:21:15Z</time>
      </trkpt>
      <trkpt lat="51.662215003743768" lon="0.453096013516188">
        <ele>99</ele>
        <time>2018-02-19T10:21:16Z</time>
      </trkpt>
      <trkpt lat="51.662233024835587" lon="0.453118979930878">
        <ele>99</ele>
        <time>2018-02-19T10:21:17Z</time>
      </trkpt>
      <trkpt lat="51.662250962108374" lon="0.453142030164599">
        <ele>99</ele>
        <time>2018-02-19T10:21:18Z</time>
      </trkpt>
      <trkpt lat="51.662268983200192" lon="0.45316600240767">
        <ele>99</ele>
        <time>2018-02-19T10:21:19Z</time>
      </trkpt>
      <trkpt lat="51.66228499263525" lon="0.453190980479121">
        <ele>99</ele>
        <time>2018-02-19T10:21:20Z</time>
      </trkpt>
      <trkpt lat="51.662299996241927" lon="0.453215958550572">
        <ele>99</ele>
        <time>2018-02-19T10:21:21Z</time>
      </trkpt>
      <trkpt lat="51.662316005676985" lon="0.453243032097816">
        <ele>99</ele>
        <time>2018-02-19T10:21:22Z</time>
      </trkpt>
      <trkpt lat="51.662334026768804" lon="0.453271027654409">
        <ele>99</ele>
        <time>2018-02-19T10:21:23Z</time>
      </trkpt>
      <trkpt lat="51.66235095821321" lon="0.453301034867764">
        <ele>99</ele>
        <time>2018-02-19T10:21:24Z</time>
      </trkpt>
      <trkpt lat="51.662364033982158" lon="0.453330958262086">
        <ele>99</ele>
        <time>2018-02-19T10:21:25Z</time>
      </trkpt>
      <trkpt lat="51.662377025932074" lon="0.45335803180933">
        <ele>99</ele>
        <time>2018-02-19T10:21:26Z</time>
      </trkpt>
      <trkpt lat="51.662389012053609" lon="0.453386027365923">
        <ele>99</ele>
        <time>2018-02-19T10:21:27Z</time>
      </trkpt>
      <trkpt lat="51.662399992346764" lon="0.453414022922516">
        <ele>99</ele>
        <time>2018-02-19T10:21:28Z</time>
      </trkpt>
      <trkpt lat="51.662416001781821" lon="0.453446041792631">
        <ele>99</ele>
        <time>2018-02-19T10:21:29Z</time>
      </trkpt>
      <trkpt lat="51.662429999560118" lon="0.453476971015334">
        <ele>99</ele>
        <time>2018-02-19T10:21:30Z</time>
      </trkpt>
      <trkpt lat="51.662442991510034" lon="0.453508989885449">
        <ele>99</ele>
        <time>2018-02-19T10:21:31Z</time>
      </trkpt>
      <trkpt lat="51.662451960146427" lon="0.453546959906816">
        <ele>99</ele>
        <time>2018-02-19T10:21:32Z</time>
      </trkpt>
      <trkpt lat="51.662459000945091" lon="0.453586019575596">
        <ele>99</ele>
        <time>2018-02-19T10:21:33Z</time>
      </trkpt>
      <trkpt lat="51.662466041743755" lon="0.453629018738866">
        <ele>99</ele>
        <time>2018-02-19T10:21:34Z</time>
      </trkpt>
      <trkpt lat="51.662471992895007" lon="0.453667994588614">
        <ele>99</ele>
        <time>2018-02-19T10:21:35Z</time>
      </trkpt>
      <trkpt lat="51.662479033693671" lon="0.453703030943871">
        <ele>99</ele>
        <time>2018-02-19T10:21:36Z</time>
      </trkpt>
      <trkpt lat="51.662486996501684" lon="0.453741000965238">
        <ele>99</ele>
        <time>2018-02-19T10:21:37Z</time>
      </trkpt>
      <trkpt lat="51.662494959309697" lon="0.453778970986605">
        <ele>99</ele>
        <time>2018-02-19T10:21:38Z</time>
      </trkpt>
      <trkpt lat="51.662500994279981" lon="0.453816018998623">
        <ele>99</ele>
        <time>2018-02-19T10:21:39Z</time>
      </trkpt>
      <trkpt lat="51.662509040907025" lon="0.45385398901999">
        <ele>99</ele>
        <time>2018-02-19T10:21:40Z</time>
      </trkpt>
      <trkpt lat="51.662512980401516" lon="0.453893970698118">
        <ele>99</ele>
        <time>2018-02-19T10:21:41Z</time>
      </trkpt>
      <trkpt lat="51.66252002120018" lon="0.453935964033008">
        <ele>99</ele>
        <time>2018-02-19T10:21:42Z</time>
      </trkpt>
      <trkpt lat="51.662523038685322" lon="0.453977035358548">
        <ele>99</ele>
        <time>2018-02-19T10:21:43Z</time>
      </trkpt>
      <trkpt lat="51.662526978179812" lon="0.454020034521818">
        <ele>99</ele>
        <time>2018-02-19T10:21:44Z</time>
      </trkpt>
      <trkpt lat="51.662532007321715" lon="0.454061022028327">
        <ele>99</ele>
        <time>2018-02-19T10:21:45Z</time>
      </trkpt>
      <trkpt lat="51.662539970129728" lon="0.454099997878075">
        <ele>99</ele>
        <time>2018-02-19T10:21:46Z</time>
      </trkpt>
      <trkpt lat="51.662550028413534" lon="0.454136040061712">
        <ele>99</ele>
        <time>2018-02-19T10:21:47Z</time>
      </trkpt>
      <trkpt lat="51.662561008706689" lon="0.454173004254699">
        <ele>99</ele>
        <time>2018-02-19T10:21:48Z</time>
      </trkpt>
      <trkpt lat="51.662570983171463" lon="0.454208040609956">
        <ele>99</ele>
        <time>2018-02-19T10:21:49Z</time>
      </trkpt>
      <trkpt lat="51.662584980949759" lon="0.454243998974562">
        <ele>99</ele>
        <time>2018-02-19T10:21:50Z</time>
      </trkpt>
      <trkpt lat="51.662595961242914" lon="0.454282974824309">
        <ele>99</ele>
        <time>2018-02-19T10:21:51Z</time>
      </trkpt>
      <trkpt lat="51.662604007869959" lon="0.454320022836328">
        <ele>99</ele>
        <time>2018-02-19T10:21:52Z</time>
      </trkpt>
      <trkpt lat="51.662609959021211" lon="0.454358998686075">
        <ele>99</ele>
        <time>2018-02-19T10:21:53Z</time>
      </trkpt>
      <trkpt lat="51.662616999819875" lon="0.454398980364203">
        <ele>99</ele>
        <time>2018-02-19T10:21:54Z</time>
      </trkpt>
      <trkpt lat="51.662625968456268" lon="0.454435022547841">
        <ele>99</ele>
        <time>2018-02-19T10:21:55Z</time>
      </trkpt>
      <trkpt lat="51.662633009254932" lon="0.454469975084066">
        <ele>99</ele>
        <time>2018-02-19T10:21:56Z</time>
      </trkpt>
      <trkpt lat="51.662638038396835" lon="0.454501993954182">
        <ele>99</ele>
        <time>2018-02-19T10:21:57Z</time>
      </trkpt>
      <trkpt lat="51.662643989548087" lon="0.454536024481058">
        <ele>99</ele>
        <time>2018-02-19T10:21:58Z</time>
      </trkpt>
      <trkpt lat="51.662650024518371" lon="0.454568965360522">
        <ele>99</ele>
        <time>2018-02-19T10:21:59Z</time>
      </trkpt>
      <trkpt lat="51.662656981498003" lon="0.454600984230638">
        <ele>99</ele>
        <time>2018-02-19T10:22:00Z</time>
      </trkpt>
      <trkpt lat="51.662661004811525" lon="0.454631997272372">
        <ele>99</ele>
        <time>2018-02-19T10:22:01Z</time>
      </trkpt>
      <trkpt lat="51.662667039781809" lon="0.454678013920784">
        <ele>99</ele>
        <time>2018-02-19T10:22:03Z</time>
      </trkpt>
      <trkpt lat="51.662670979276299" lon="0.454716989770532">
        <ele>99</ele>
        <time>2018-02-19T10:22:05Z</time>
      </trkpt>
      <trkpt lat="51.66267198510468" lon="0.45475697144866">
        <ele>99</ele>
        <time>2018-02-19T10:22:07Z</time>
      </trkpt>
      <trkpt lat="51.662669973447919" lon="0.454795025289059">
        <ele>99</ele>
        <time>2018-02-19T10:22:09Z</time>
      </trkpt>
      <trkpt lat="51.66267198510468" lon="0.454830983653665">
        <ele>99</ele>
        <time>2018-02-19T10:22:11Z</time>
      </trkpt>
      <trkpt lat="51.662679025903344" lon="0.454869037494063">
        <ele>99</ele>
        <time>2018-02-19T10:22:13Z</time>
      </trkpt>
      <trkpt lat="51.662689000368118" lon="0.454925028607249">
        <ele>99</ele>
        <time>2018-02-19T10:22:15Z</time>
      </trkpt>
      <trkpt lat="51.662694029510021" lon="0.454955035820603">
        <ele>99</ele>
        <time>2018-02-19T10:22:16Z</time>
      </trkpt>
      <trkpt lat="51.662698974832892" lon="0.454987976700068">
        <ele>99</ele>
        <time>2018-02-19T10:22:17Z</time>
      </trkpt>
      <trkpt lat="51.662702998146415" lon="0.455019995570183">
        <ele>99</ele>
        <time>2018-02-19T10:22:18Z</time>
      </trkpt>
      <trkpt lat="51.662708027288318" lon="0.455052014440298">
        <ele>99</ele>
        <time>2018-02-19T10:22:19Z</time>
      </trkpt>
      <trkpt lat="51.662711966782808" lon="0.455085039138794">
        <ele>99</ele>
        <time>2018-02-19T10:22:20Z</time>
      </trkpt>
      <trkpt lat="51.662718001753092" lon="0.455117980018258">
        <ele>99</ele>
        <time>2018-02-19T10:22:21Z</time>
      </trkpt>
      <trkpt lat="51.662724036723375" lon="0.455156033858657">
        <ele>99</ele>
        <time>2018-02-19T10:22:22Z</time>
      </trkpt>
      <trkpt lat="51.662728982046247" lon="0.455195009708405">
        <ele>99</ele>
        <time>2018-02-19T10:22:23Z</time>
      </trkpt>
      <trkpt lat="51.662737028673291" lon="0.455234991386533">
        <ele>99</ele>
        <time>2018-02-19T10:22:24Z</time>
      </trkpt>
      <trkpt lat="51.662747003138065" lon="0.4552729614079">
        <ele>99</ele>
        <time>2018-02-19T10:22:25Z</time>
      </trkpt>
      <trkpt lat="51.662754965946078" lon="0.455311015248299">
        <ele>99</ele>
        <time>2018-02-19T10:22:26Z</time>
      </trkpt>
      <trkpt lat="51.662764018401504" lon="0.455352002754807">
        <ele>99</ele>
        <time>2018-02-19T10:22:27Z</time>
      </trkpt>
      <trkpt lat="51.662770975381136" lon="0.455391984432936">
        <ele>99</ele>
        <time>2018-02-19T10:22:28Z</time>
      </trkpt>
      <trkpt lat="51.662777010351419" lon="0.455433977767825">
        <ele>99</ele>
        <time>2018-02-19T10:22:29Z</time>
      </trkpt>
      <trkpt lat="51.662782039493322" lon="0.455473959445953">
        <ele>99</ele>
        <time>2018-02-19T10:22:30Z</time>
      </trkpt>
      <trkpt lat="51.662785978987813" lon="0.455513019114733">
        <ele>99</ele>
        <time>2018-02-19T10:22:31Z</time>
      </trkpt>
      <trkpt lat="51.662790002301335" lon="0.45555199496448">
        <ele>99</ele>
        <time>2018-02-19T10:22:32Z</time>
      </trkpt>
      <trkpt lat="51.662795031443238" lon="0.455590970814228">
        <ele>99</ele>
        <time>2018-02-19T10:22:33Z</time>
      </trkpt>
      <trkpt lat="51.662796959280968" lon="0.455629024654627">
        <ele>99</ele>
        <time>2018-02-19T10:22:34Z</time>
      </trkpt>
      <trkpt lat="51.662801988422871" lon="0.455665988847613">
        <ele>98.879999999999995</ele>
        <time>2018-02-19T10:22:35Z</time>
      </trkpt>
      <trkpt lat="51.662805005908012" lon="0.455705970525742">
        <ele>98</ele>
        <time>2018-02-19T10:22:36Z</time>
      </trkpt>
      <trkpt lat="51.662808023393154" lon="0.45574301853776">
        <ele>98</ele>
        <time>2018-02-19T10:22:37Z</time>
      </trkpt>
      <trkpt lat="51.662812968716025" lon="0.455783000215888">
        <ele>98</ele>
        <time>2018-02-19T10:22:38Z</time>
      </trkpt>
      <trkpt lat="51.662816992029548" lon="0.455817030742764">
        <ele>98</ele>
        <time>2018-02-19T10:22:39Z</time>
      </trkpt>
      <trkpt lat="51.662823026999831" lon="0.45585298910737">
        <ele>98</ele>
        <time>2018-02-19T10:22:40Z</time>
      </trkpt>
      <trkpt lat="51.662828978151083" lon="0.455888025462627">
        <ele>98</ele>
        <time>2018-02-19T10:22:41Z</time>
      </trkpt>
      <trkpt lat="51.662833001464605" lon="0.455921972170472">
        <ele>98</ele>
        <time>2018-02-19T10:22:42Z</time>
      </trkpt>
      <trkpt lat="51.662839036434889" lon="0.45595902018249">
        <ele>98</ele>
        <time>2018-02-19T10:22:43Z</time>
      </trkpt>
      <trkpt lat="51.662845993414521" lon="0.455993972718716">
        <ele>98</ele>
        <time>2018-02-19T10:22:44Z</time>
      </trkpt>
      <trkpt lat="51.662853034213185" lon="0.456032026559114">
        <ele>98</ele>
        <time>2018-02-19T10:22:45Z</time>
      </trkpt>
      <trkpt lat="51.662860997021198" lon="0.456069996580482">
        <ele>98</ele>
        <time>2018-02-19T10:22:46Z</time>
      </trkpt>
      <trkpt lat="51.662868959829211" lon="0.456106960773468">
        <ele>98</ele>
        <time>2018-02-19T10:22:47Z</time>
      </trkpt>
      <trkpt lat="51.662878012284636" lon="0.456140991300344">
        <ele>98</ele>
        <time>2018-02-19T10:22:48Z</time>
      </trkpt>
      <trkpt lat="51.662884969264269" lon="0.45617401599884">
        <ele>98</ele>
        <time>2018-02-19T10:22:49Z</time>
      </trkpt>
      <trkpt lat="51.662891004234552" lon="0.456204023212194">
        <ele>98</ele>
        <time>2018-02-19T10:22:50Z</time>
      </trkpt>
      <trkpt lat="51.662899972870946" lon="0.456230007112026">
        <ele>98</ele>
        <time>2018-02-19T10:22:51Z</time>
      </trkpt>
      <trkpt lat="51.662911036983132" lon="0.456272000446916">
        <ele>98</ele>
        <time>2018-02-19T10:22:53Z</time>
      </trkpt>
      <trkpt lat="51.662913970649242" lon="0.456314999610186">
        <ele>98</ele>
        <time>2018-02-19T10:22:55Z</time>
      </trkpt>
      <trkpt lat="51.662915982306004" lon="0.456354981288314">
        <ele>98</ele>
        <time>2018-02-19T10:22:57Z</time>
      </trkpt>
      <trkpt lat="51.662906007841229" lon="0.456392029300332">
        <ele>98</ele>
        <time>2018-02-19T10:22:59Z</time>
      </trkpt>
      <trkpt lat="51.662894021719694" lon="0.456414995715022">
        <ele>98</ele>
        <time>2018-02-19T10:23:05Z</time>
      </trkpt>
      <trkpt lat="51.662874994799495" lon="0.456433016806841">
        <ele>98</ele>
        <time>2018-02-19T10:23:10Z</time>
      </trkpt>
      <trkpt lat="51.662873988971114" lon="0.456493031233549">
        <ele>98</ele>
        <time>2018-02-19T10:23:12Z</time>
      </trkpt>
      <trkpt lat="51.662872983142734" lon="0.456548016518354">
        <ele>98</ele>
        <time>2018-02-19T10:23:14Z</time>
      </trkpt>
      <trkpt lat="51.662874994799495" lon="0.45658003538847">
        <ele>98</ele>
        <time>2018-02-19T10:23:15Z</time>
      </trkpt>
      <trkpt lat="51.662880023941398" lon="0.456619011238217">
        <ele>98</ele>
        <time>2018-02-19T10:23:16Z</time>
      </trkpt>
      <trkpt lat="51.662884969264269" lon="0.456656981259584">
        <ele>98</ele>
        <time>2018-02-19T10:23:17Z</time>
      </trkpt>
      <trkpt lat="51.662887986749411" lon="0.456694029271603">
        <ele>98</ele>
        <time>2018-02-19T10:23:18Z</time>
      </trkpt>
      <trkpt lat="51.662889998406172" lon="0.45673300512135">
        <ele>98</ele>
        <time>2018-02-19T10:23:19Z</time>
      </trkpt>
      <trkpt lat="51.662889998406172" lon="0.456773992627859">
        <ele>98</ele>
        <time>2018-02-19T10:23:20Z</time>
      </trkpt>
      <trkpt lat="51.662887986749411" lon="0.456815985962749">
        <ele>98</ele>
        <time>2018-02-19T10:23:21Z</time>
      </trkpt>
      <trkpt lat="51.662882035598159" lon="0.456855967640877">
        <ele>98</ele>
        <time>2018-02-19T10:23:22Z</time>
      </trkpt>
      <trkpt lat="51.662880023941398" lon="0.456895027309656">
        <ele>98</ele>
        <time>2018-02-19T10:23:23Z</time>
      </trkpt>
      <trkpt lat="51.662881029769778" lon="0.456932997331023">
        <ele>98</ele>
        <time>2018-02-19T10:23:24Z</time>
      </trkpt>
      <trkpt lat="51.662881029769778" lon="0.456971973180771">
        <ele>98</ele>
        <time>2018-02-19T10:23:25Z</time>
      </trkpt>
      <trkpt lat="51.662880023941398" lon="0.457009021192789">
        <ele>98</ele>
        <time>2018-02-19T10:23:26Z</time>
      </trkpt>
      <trkpt lat="51.662878012284636" lon="0.457042967900634">
        <ele>98</ele>
        <time>2018-02-19T10:23:27Z</time>
      </trkpt>
      <trkpt lat="51.662874994799495" lon="0.457078004255891">
        <ele>98</ele>
        <time>2018-02-19T10:23:28Z</time>
      </trkpt>
      <trkpt lat="51.662872983142734" lon="0.457113040611148">
        <ele>98</ele>
        <time>2018-02-19T10:23:29Z</time>
      </trkpt>
      <trkpt lat="51.662867031991482" lon="0.457148998975754">
        <ele>98</ele>
        <time>2018-02-19T10:23:30Z</time>
      </trkpt>
      <trkpt lat="51.66286401450634" lon="0.457184035331011">
        <ele>98</ele>
        <time>2018-02-19T10:23:31Z</time>
      </trkpt>
      <trkpt lat="51.662863008677959" lon="0.457215970382094">
        <ele>98</ele>
        <time>2018-02-19T10:23:32Z</time>
      </trkpt>
      <trkpt lat="51.66286401450634" lon="0.457250000908971">
        <ele>98</ele>
        <time>2018-02-19T10:23:33Z</time>
      </trkpt>
      <trkpt lat="51.66286401450634" lon="0.457284031435847">
        <ele>98</ele>
        <time>2018-02-19T10:23:34Z</time>
      </trkpt>
      <trkpt lat="51.66286401450634" lon="0.457317978143692">
        <ele>98</ele>
        <time>2018-02-19T10:23:35Z</time>
      </trkpt>
      <trkpt lat="51.662863008677959" lon="0.457352008670568">
        <ele>98</ele>
        <time>2018-02-19T10:23:36Z</time>
      </trkpt>
      <trkpt lat="51.662860997021198" lon="0.457386961206794">
        <ele>98</ele>
        <time>2018-02-19T10:23:37Z</time>
      </trkpt>
      <trkpt lat="51.662859991192818" lon="0.457418980076909">
        <ele>98</ele>
        <time>2018-02-19T10:23:38Z</time>
      </trkpt>
      <trkpt lat="51.662857979536057" lon="0.457452004775405">
        <ele>98</ele>
        <time>2018-02-19T10:23:39Z</time>
      </trkpt>
      <trkpt lat="51.662854040041566" lon="0.457487041130662">
        <ele>98</ele>
        <time>2018-02-19T10:23:40Z</time>
      </trkpt>
      <trkpt lat="51.662852028384805" lon="0.457520987838507">
        <ele>98</ele>
        <time>2018-02-19T10:23:41Z</time>
      </trkpt>
      <trkpt lat="51.662853034213185" lon="0.457556024193764">
        <ele>98</ele>
        <time>2018-02-19T10:23:42Z</time>
      </trkpt>
      <trkpt lat="51.662853034213185" lon="0.457589970901608">
        <ele>98</ele>
        <time>2018-02-19T10:23:43Z</time>
      </trkpt>
      <trkpt lat="51.662850016728044" lon="0.457622995600104">
        <ele>98</ele>
        <time>2018-02-19T10:23:44Z</time>
      </trkpt>
      <trkpt lat="51.662846999242902" lon="0.457653002813458">
        <ele>98</ele>
        <time>2018-02-19T10:23:45Z</time>
      </trkpt>
      <trkpt lat="51.662842975929379" lon="0.457686027511954">
        <ele>98</ele>
        <time>2018-02-19T10:23:46Z</time>
      </trkpt>
      <trkpt lat="51.662840964272618" lon="0.457718968391418">
        <ele>98</ele>
        <time>2018-02-19T10:23:47Z</time>
      </trkpt>
      <trkpt lat="51.662839036434889" lon="0.457748975604773">
        <ele>98</ele>
        <time>2018-02-19T10:23:48Z</time>
      </trkpt>
      <trkpt lat="51.662835013121367" lon="0.457780994474888">
        <ele>98</ele>
        <time>2018-02-19T10:23:49Z</time>
      </trkpt>
      <trkpt lat="51.662831995636225" lon="0.457811001688242">
        <ele>98</ele>
        <time>2018-02-19T10:23:50Z</time>
      </trkpt>
      <trkpt lat="51.662830989807844" lon="0.457843020558357">
        <ele>98</ele>
        <time>2018-02-19T10:23:51Z</time>
      </trkpt>
      <trkpt lat="51.662826966494322" lon="0.457875961437821">
        <ele>98</ele>
        <time>2018-02-19T10:23:52Z</time>
      </trkpt>
      <trkpt lat="51.662825960665941" lon="0.457907980307937">
        <ele>98</ele>
        <time>2018-02-19T10:23:53Z</time>
      </trkpt>
      <trkpt lat="51.662825960665941" lon="0.457941005006433">
        <ele>98</ele>
        <time>2018-02-19T10:23:54Z</time>
      </trkpt>
      <trkpt lat="51.662828978151083" lon="0.45797604136169">
        <ele>98</ele>
        <time>2018-02-19T10:23:55Z</time>
      </trkpt>
      <trkpt lat="51.662828978151083" lon="0.458007976412773">
        <ele>98</ele>
        <time>2018-02-19T10:23:56Z</time>
      </trkpt>
      <trkpt lat="51.662830989807844" lon="0.458041001111269">
        <ele>98</ele>
        <time>2018-02-19T10:23:57Z</time>
      </trkpt>
      <trkpt lat="51.662831995636225" lon="0.458074025809765">
        <ele>98</ele>
        <time>2018-02-19T10:23:58Z</time>
      </trkpt>
      <trkpt lat="51.662837024778128" lon="0.458103027194738">
        <ele>98</ele>
        <time>2018-02-19T10:23:59Z</time>
      </trkpt>
      <trkpt lat="51.662839958444238" lon="0.458135968074203">
        <ele>98</ele>
        <time>2018-02-19T10:24:00Z</time>
      </trkpt>
      <trkpt lat="51.662841970100999" lon="0.458165975287557">
        <ele>98</ele>
        <time>2018-02-19T10:24:01Z</time>
      </trkpt>
      <trkpt lat="51.662844987586141" lon="0.458223978057504">
        <ele>98</ele>
        <time>2018-02-19T10:24:03Z</time>
      </trkpt>
      <trkpt lat="51.66284398175776" lon="0.45825800858438">
        <ele>98</ele>
        <time>2018-02-19T10:24:04Z</time>
      </trkpt>
      <trkpt lat="51.662844987586141" lon="0.458287009969354">
        <ele>98</ele>
        <time>2018-02-19T10:24:05Z</time>
      </trkpt>
      <trkpt lat="51.662845993414521" lon="0.458319028839469">
        <ele>97.879999999999995</ele>
        <time>2018-02-19T10:24:06Z</time>
      </trkpt>
      <trkpt lat="51.66284398175776" lon="0.458370996639133">
        <ele>97</ele>
        <time>2018-02-19T10:24:08Z</time>
      </trkpt>
      <trkpt lat="51.662846999242902" lon="0.458424976095557">
        <ele>97</ele>
        <time>2018-02-19T10:24:10Z</time>
      </trkpt>
      <trkpt lat="51.662854962050915" lon="0.458474010229111">
        <ele>97</ele>
        <time>2018-02-19T10:24:12Z</time>
      </trkpt>
      <trkpt lat="51.662865020334721" lon="0.458521032705903">
        <ele>97</ele>
        <time>2018-02-19T10:24:14Z</time>
      </trkpt>
      <trkpt lat="51.662872983142734" lon="0.458571994677186">
        <ele>97</ele>
        <time>2018-02-19T10:24:16Z</time>
      </trkpt>
      <trkpt lat="51.662883041426539" lon="0.45862102881074">
        <ele>97</ele>
        <time>2018-02-19T10:24:18Z</time>
      </trkpt>
      <trkpt lat="51.662897039204836" lon="0.45866402797401">
        <ele>97</ele>
        <time>2018-02-19T10:24:20Z</time>
      </trkpt>
      <trkpt lat="51.662902990356088" lon="0.458712978288531">
        <ele>97</ele>
        <time>2018-02-19T10:24:22Z</time>
      </trkpt>
      <trkpt lat="51.662900978699327" lon="0.458761006593704">
        <ele>96.885713937413897</ele>
        <time>2018-02-19T10:24:24Z</time>
      </trkpt>
      <trkpt lat="51.662893015891314" lon="0.458811968564987">
        <ele>96</ele>
        <time>2018-02-19T10:24:26Z</time>
      </trkpt>
      <trkpt lat="51.662893015891314" lon="0.458861002698541">
        <ele>96</ele>
        <time>2018-02-19T10:24:28Z</time>
      </trkpt>
      <trkpt lat="51.662908019497991" lon="0.458906013518572">
        <ele>96</ele>
        <time>2018-02-19T10:24:30Z</time>
      </trkpt>
      <trkpt lat="51.662915982306004" lon="0.458958987146616">
        <ele>97</ele>
        <time>2018-02-19T10:24:32Z</time>
      </trkpt>
      <trkpt lat="51.662917993962765" lon="0.458985976874828">
        <ele>97</ele>
        <time>2018-02-19T10:24:33Z</time>
      </trkpt>
      <trkpt lat="51.662922017276287" lon="0.459036016836762">
        <ele>97</ele>
        <time>2018-02-19T10:24:35Z</time>
      </trkpt>
      <trkpt lat="51.662926040589809" lon="0.459089996293187">
        <ele>96</ele>
        <time>2018-02-19T10:24:37Z</time>
      </trkpt>
      <trkpt lat="51.662932997569442" lon="0.4591169860214">
        <ele>96</ele>
        <time>2018-02-19T10:24:38Z</time>
      </trkpt>
      <trkpt lat="51.662938026711345" lon="0.459144981577992">
        <ele>96</ele>
        <time>2018-02-19T10:24:39Z</time>
      </trkpt>
      <trkpt lat="51.662936015054584" lon="0.459177000448108">
        <ele>96</ele>
        <time>2018-02-19T10:24:40Z</time>
      </trkpt>
      <trkpt lat="51.662939032539725" lon="0.459209019318223">
        <ele>96</ele>
        <time>2018-02-19T10:24:41Z</time>
      </trkpt>
      <trkpt lat="51.662941966205835" lon="0.459241960197687">
        <ele>96</ele>
        <time>2018-02-19T10:24:42Z</time>
      </trkpt>
      <trkpt lat="51.662954036146402" lon="0.459273979067802">
        <ele>96</ele>
        <time>2018-02-19T10:24:43Z</time>
      </trkpt>
      <trkpt lat="51.662960993126035" lon="0.459303986281157">
        <ele>96</ele>
        <time>2018-02-19T10:24:44Z</time>
      </trkpt>
      <trkpt lat="51.662958981469274" lon="0.459333993494511">
        <ele>96</ele>
        <time>2018-02-19T10:24:45Z</time>
      </trkpt>
      <trkpt lat="51.662949007004499" lon="0.459391996264458">
        <ele>96</ele>
        <time>2018-02-19T10:24:47Z</time>
      </trkpt>
      <trkpt lat="51.662943977862597" lon="0.459420997649431">
        <ele>96</ele>
        <time>2018-02-19T10:24:48Z</time>
      </trkpt>
      <trkpt lat="51.662945989519358" lon="0.459476988762617">
        <ele>96</ele>
        <time>2018-02-19T10:24:50Z</time>
      </trkpt>
      <trkpt lat="51.662948001176119" lon="0.459509007632732">
        <ele>96</ele>
        <time>2018-02-19T10:24:51Z</time>
      </trkpt>
      <trkpt lat="51.662949007004499" lon="0.459540020674467">
        <ele>96</ele>
        <time>2018-02-19T10:24:52Z</time>
      </trkpt>
      <trkpt lat="51.662953030318022" lon="0.459573967382312">
        <ele>96</ele>
        <time>2018-02-19T10:24:53Z</time>
      </trkpt>
      <trkpt lat="51.662953030318022" lon="0.459604980424047">
        <ele>96</ele>
        <time>2018-02-19T10:24:54Z</time>
      </trkpt>
      <trkpt lat="51.662952024489641" lon="0.459660971537232">
        <ele>95</ele>
        <time>2018-02-19T10:24:56Z</time>
      </trkpt>
      <trkpt lat="51.662948001176119" lon="0.459716040641069">
        <ele>95</ele>
        <time>2018-02-19T10:24:58Z</time>
      </trkpt>
      <trkpt lat="51.662949007004499" lon="0.459747975692153">
        <ele>95</ele>
        <time>2018-02-19T10:24:59Z</time>
      </trkpt>
      <trkpt lat="51.662954958155751" lon="0.459800027310848">
        <ele>95</ele>
        <time>2018-02-19T10:25:01Z</time>
      </trkpt>
      <trkpt lat="51.662954036146402" lon="0.459845038130879">
        <ele>95</ele>
        <time>2018-02-19T10:25:03Z</time>
      </trkpt>
      <trkpt lat="51.662954036146402" lon="0.459892982617021">
        <ele>95</ele>
        <time>2018-02-19T10:25:05Z</time>
      </trkpt>
      <trkpt lat="51.662946995347738" lon="0.459919972345233">
        <ele>95</ele>
        <time>2018-02-19T10:25:06Z</time>
      </trkpt>
      <trkpt lat="51.662943977862597" lon="0.459948973730206">
        <ele>95</ele>
        <time>2018-02-19T10:25:07Z</time>
      </trkpt>
      <trkpt lat="51.662944983690977" lon="0.459984010085464">
        <ele>95</ele>
        <time>2018-02-19T10:25:08Z</time>
      </trkpt>
      <trkpt lat="51.662948001176119" lon="0.46001804061234">
        <ele>95</ele>
        <time>2018-02-19T10:25:09Z</time>
      </trkpt>
      <trkpt lat="51.662948001176119" lon="0.460076965391636">
        <ele>95</ele>
        <time>2018-02-19T10:25:11Z</time>
      </trkpt>
      <trkpt lat="51.662946995347738" lon="0.460107978433371">
        <ele>94.892857142857096</ele>
        <time>2018-02-19T10:25:12Z</time>
      </trkpt>
      <trkpt lat="51.662942972034216" lon="0.460138991475105">
        <ele>94</ele>
        <time>2018-02-19T10:25:13Z</time>
      </trkpt>
      <trkpt lat="51.662942972034216" lon="0.460168998688459">
        <ele>94</ele>
        <time>2018-02-19T10:25:14Z</time>
      </trkpt>
      <trkpt lat="51.662940038368106" lon="0.460199005901814">
        <ele>94</ele>
        <time>2018-02-19T10:25:15Z</time>
      </trkpt>
      <trkpt lat="51.662939032539725" lon="0.460230018943548">
        <ele>94</ele>
        <time>2018-02-19T10:25:16Z</time>
      </trkpt>
      <trkpt lat="51.662937020882964" lon="0.460280980914831">
        <ele>94</ele>
        <time>2018-02-19T10:25:18Z</time>
      </trkpt>
      <trkpt lat="51.662936015054584" lon="0.460336972028017">
        <ele>94</ele>
        <time>2018-02-19T10:25:20Z</time>
      </trkpt>
      <trkpt lat="51.662926040589809" lon="0.460380977019668">
        <ele>94</ele>
        <time>2018-02-19T10:25:22Z</time>
      </trkpt>
      <trkpt lat="51.662923023104668" lon="0.460436968132854">
        <ele>94</ele>
        <time>2018-02-19T10:25:24Z</time>
      </trkpt>
      <trkpt lat="51.662926040589809" lon="0.460468987002969">
        <ele>94</ele>
        <time>2018-02-19T10:25:25Z</time>
      </trkpt>
      <trkpt lat="51.6629299800843" lon="0.460497988387942">
        <ele>94</ele>
        <time>2018-02-19T10:25:26Z</time>
      </trkpt>
      <trkpt lat="51.662930985912681" lon="0.460527995601296">
        <ele>94</ele>
        <time>2018-02-19T10:25:27Z</time>
      </trkpt>
      <trkpt lat="51.6629299800843" lon="0.460561020299792">
        <ele>94</ele>
        <time>2018-02-19T10:25:28Z</time>
      </trkpt>
      <trkpt lat="51.662932997569442" lon="0.460592033341527">
        <ele>94</ele>
        <time>2018-02-19T10:25:29Z</time>
      </trkpt>
      <trkpt lat="51.662935009226203" lon="0.46062296256423">
        <ele>94</ele>
        <time>2018-02-19T10:25:30Z</time>
      </trkpt>
      <trkpt lat="51.662932997569442" lon="0.460651963949203">
        <ele>94</ele>
        <time>2018-02-19T10:25:31Z</time>
      </trkpt>
      <trkpt lat="51.662935009226203" lon="0.460682976990938">
        <ele>93.519999999999996</ele>
        <time>2018-02-19T10:25:32Z</time>
      </trkpt>
      <trkpt lat="51.662924028933048" lon="0.460736034438014">
        <ele>90</ele>
        <time>2018-02-19T10:25:34Z</time>
      </trkpt>
      <trkpt lat="51.662927968427539" lon="0.460794037207961">
        <ele>90</ele>
        <time>2018-02-19T10:25:36Z</time>
      </trkpt>
      <trkpt lat="51.662936015054584" lon="0.460851034149528">
        <ele>90</ele>
        <time>2018-02-19T10:25:38Z</time>
      </trkpt>
      <trkpt lat="51.662940038368106" lon="0.460894033312798">
        <ele>90</ele>
        <time>2018-02-19T10:25:40Z</time>
      </trkpt>
      <trkpt lat="51.662942972034216" lon="0.460949018597603">
        <ele>90</ele>
        <time>2018-02-19T10:25:42Z</time>
      </trkpt>
      <trkpt lat="51.662943977862597" lon="0.46098698861897">
        <ele>90</ele>
        <time>2018-02-19T10:25:43Z</time>
      </trkpt>
      <trkpt lat="51.662945989519358" lon="0.461022024974227">
        <ele>90</ele>
        <time>2018-02-19T10:25:44Z</time>
      </trkpt>
      <trkpt lat="51.662943977862597" lon="0.461055971682072">
        <ele>90</ele>
        <time>2018-02-19T10:25:45Z</time>
      </trkpt>
      <trkpt lat="51.662938026711345" lon="0.461110034957528">
        <ele>90</ele>
        <time>2018-02-19T10:25:47Z</time>
      </trkpt>
      <trkpt lat="51.662936015054584" lon="0.46115898527205">
        <ele>90</ele>
        <time>2018-02-19T10:25:49Z</time>
      </trkpt>
      <trkpt lat="51.662942972034216" lon="0.461209025233984">
        <ele>90</ele>
        <time>2018-02-19T10:25:51Z</time>
      </trkpt>
      <trkpt lat="51.662951018661261" lon="0.461252024397254">
        <ele>90</ele>
        <time>2018-02-19T10:25:53Z</time>
      </trkpt>
      <trkpt lat="51.662957975640893" lon="0.461284965276718">
        <ele>90</ele>
        <time>2018-02-19T10:25:55Z</time>
      </trkpt>
      <trkpt lat="51.662960993126035" lon="0.46133198775351">
        <ele>89.9263126692626</ele>
        <time>2018-02-19T10:25:57Z</time>
      </trkpt>
      <trkpt lat="51.662963004782796" lon="0.461365012452006">
        <ele>89</ele>
        <time>2018-02-19T10:25:59Z</time>
      </trkpt>
      <trkpt lat="51.662963004782796" lon="0.461403988301754">
        <ele>88</ele>
        <time>2018-02-19T10:26:02Z</time>
      </trkpt>
      <trkpt lat="51.662969961762428" lon="0.461436007171869">
        <ele>88</ele>
        <time>2018-02-19T10:26:04Z</time>
      </trkpt>
      <trkpt lat="51.662981025874615" lon="0.461470037698746">
        <ele>88</ele>
        <time>2018-02-19T10:26:06Z</time>
      </trkpt>
      <trkpt lat="51.662991000339389" lon="0.46150398440659">
        <ele>88</ele>
        <time>2018-02-19T10:26:08Z</time>
      </trkpt>
      <trkpt lat="51.662992006167769" lon="0.461539020761848">
        <ele>88</ele>
        <time>2018-02-19T10:26:10Z</time>
      </trkpt>
      <trkpt lat="51.662984965369105" lon="0.461570033803582">
        <ele>88</ele>
        <time>2018-02-19T10:26:12Z</time>
      </trkpt>
      <trkpt lat="51.662985971197486" lon="0.461611021310091">
        <ele>87.8888888888889</ele>
        <time>2018-02-19T10:26:15Z</time>
      </trkpt>
      <trkpt lat="51.662968033924699" lon="0.461648991331458">
        <ele>87</ele>
        <time>2018-02-19T10:26:17Z</time>
      </trkpt>
      <trkpt lat="51.662960993126035" lon="0.461680004373193">
        <ele>87</ele>
        <time>2018-02-19T10:26:19Z</time>
      </trkpt>
      <trkpt lat="51.662948001176119" lon="0.461709005758166">
        <ele>87</ele>
        <time>2018-02-19T10:26:21Z</time>
      </trkpt>
      <trkpt lat="51.662937020882964" lon="0.46173901297152">
        <ele>87</ele>
        <time>2018-02-19T10:26:23Z</time>
      </trkpt>
      <trkpt lat="51.662917993962765" lon="0.461766002699733">
        <ele>87</ele>
        <time>2018-02-19T10:26:25Z</time>
      </trkpt>
      <trkpt lat="51.662896033376455" lon="0.461793998256326">
        <ele>87</ele>
        <time>2018-02-19T10:26:27Z</time>
      </trkpt>
      <trkpt lat="51.662877006456256" lon="0.46182501129806">
        <ele>87</ele>
        <time>2018-02-19T10:26:29Z</time>
      </trkpt>
      <trkpt lat="51.662856973707676" lon="0.461853006854653">
        <ele>87</ele>
        <time>2018-02-19T10:26:31Z</time>
      </trkpt>
      <trkpt lat="51.662837024778128" lon="0.461878990754485">
        <ele>87</ele>
        <time>2018-02-19T10:26:33Z</time>
      </trkpt>
      <trkpt lat="51.662816992029548" lon="0.461902962997556">
        <ele>86</ele>
        <time>2018-02-19T10:26:35Z</time>
      </trkpt>
      <trkpt lat="51.662796037271619" lon="0.461928024888039">
        <ele>86</ele>
        <time>2018-02-19T10:26:37Z</time>
      </trkpt>
      <trkpt lat="51.662771981209517" lon="0.461963983252645">
        <ele>86</ele>
        <time>2018-02-19T10:26:39Z</time>
      </trkpt>
      <trkpt lat="51.66275798343122" lon="0.461980998516083">
        <ele>86</ele>
        <time>2018-02-19T10:26:40Z</time>
      </trkpt>
      <trkpt lat="51.662726970389485" lon="0.46201896853745">
        <ele>86</ele>
        <time>2018-02-19T10:26:42Z</time>
      </trkpt>
      <trkpt lat="51.662710960954428" lon="0.462036989629269">
        <ele>86</ele>
        <time>2018-02-19T10:26:43Z</time>
      </trkpt>
      <trkpt lat="51.66269201785326" lon="0.462058028206229">
        <ele>86</ele>
        <time>2018-02-19T10:26:44Z</time>
      </trkpt>
      <trkpt lat="51.662673996761441" lon="0.462076971307397">
        <ele>86</ele>
        <time>2018-02-19T10:26:45Z</time>
      </trkpt>
      <trkpt lat="51.662655975669622" lon="0.462098009884357">
        <ele>86</ele>
        <time>2018-02-19T10:26:46Z</time>
      </trkpt>
      <trkpt lat="51.662637032568455" lon="0.462118964642286">
        <ele>86</ele>
        <time>2018-02-19T10:26:47Z</time>
      </trkpt>
      <trkpt lat="51.662622028961778" lon="0.462137991562486">
        <ele>86</ele>
        <time>2018-02-19T10:26:48Z</time>
      </trkpt>
      <trkpt lat="51.662607025355101" lon="0.462160035967827">
        <ele>86</ele>
        <time>2018-02-19T10:26:49Z</time>
      </trkpt>
      <trkpt lat="51.662589004263282" lon="0.462185014039278">
        <ele>86</ele>
        <time>2018-02-19T10:26:50Z</time>
      </trkpt>
      <trkpt lat="51.662572994828224" lon="0.46221099793911">
        <ele>86</ele>
        <time>2018-02-19T10:26:51Z</time>
      </trkpt>
      <trkpt lat="51.662554973736405" lon="0.46223203651607">
        <ele>86</ele>
        <time>2018-02-19T10:26:52Z</time>
      </trkpt>
      <trkpt lat="51.662538964301348" lon="0.462250979617238">
        <ele>86</ele>
        <time>2018-02-19T10:26:53Z</time>
      </trkpt>
      <trkpt lat="51.662508035078645" lon="0.462281992658973">
        <ele>86</ele>
        <time>2018-02-19T10:26:55Z</time>
      </trkpt>
      <trkpt lat="51.662492025643587" lon="0.46229699626565">
        <ele>86</ele>
        <time>2018-02-19T10:26:56Z</time>
      </trkpt>
      <trkpt lat="51.662463024258614" lon="0.462334966287017">
        <ele>86</ele>
        <time>2018-02-19T10:26:58Z</time>
      </trkpt>
      <trkpt lat="51.662447014823556" lon="0.462356004863977">
        <ele>86</ele>
        <time>2018-02-19T10:26:59Z</time>
      </trkpt>
      <trkpt lat="51.662412984296679" lon="0.462396992370486">
        <ele>85.879999999999995</ele>
        <time>2018-02-19T10:27:01Z</time>
      </trkpt>
      <trkpt lat="51.662397980690002" lon="0.462420964613557">
        <ele>85</ele>
        <time>2018-02-19T10:27:02Z</time>
      </trkpt>
      <trkpt lat="51.662383982911706" lon="0.46244703233242">
        <ele>85</ele>
        <time>2018-02-19T10:27:03Z</time>
      </trkpt>
      <trkpt lat="51.662367973476648" lon="0.462471004575491">
        <ele>85</ele>
        <time>2018-02-19T10:27:04Z</time>
      </trkpt>
      <trkpt lat="51.662351964041591" lon="0.46249195933342">
        <ele>85</ele>
        <time>2018-02-19T10:27:05Z</time>
      </trkpt>
      <trkpt lat="51.662333020940423" lon="0.462515009567142">
        <ele>84.879999999999995</ele>
        <time>2018-02-19T10:27:06Z</time>
      </trkpt>
      <trkpt lat="51.662314999848604" lon="0.462541999295354">
        <ele>84</ele>
        <time>2018-02-19T10:27:07Z</time>
      </trkpt>
      <trkpt lat="51.662293961271644" lon="0.462566977366805">
        <ele>84</ele>
        <time>2018-02-19T10:27:08Z</time>
      </trkpt>
      <trkpt lat="51.662270994856954" lon="0.462591033428907">
        <ele>84</ele>
        <time>2018-02-19T10:27:09Z</time>
      </trkpt>
      <trkpt lat="51.662249034270644" lon="0.462616011500359">
        <ele>84</ele>
        <time>2018-02-19T10:27:10Z</time>
      </trkpt>
      <trkpt lat="51.662227995693684" lon="0.462638977915049">
        <ele>84</ele>
        <time>2018-02-19T10:27:11Z</time>
      </trkpt>
      <trkpt lat="51.662207962945104" lon="0.462659010663629">
        <ele>83.879999999999995</ele>
        <time>2018-02-19T10:27:12Z</time>
      </trkpt>
      <trkpt lat="51.662187008187175" lon="0.462678037583828">
        <ele>83</ele>
        <time>2018-02-19T10:27:13Z</time>
      </trkpt>
      <trkpt lat="51.662164041772485" lon="0.462697986513376">
        <ele>83</ele>
        <time>2018-02-19T10:27:14Z</time>
      </trkpt>
      <trkpt lat="51.662146020680666" lon="0.462717013433576">
        <ele>82.891892203553994</ele>
        <time>2018-02-19T10:27:15Z</time>
      </trkpt>
      <trkpt lat="51.662127999588847" lon="0.462736040353775">
        <ele>82</ele>
        <time>2018-02-19T10:27:16Z</time>
      </trkpt>
      <trkpt lat="51.66211199015379" lon="0.462753977626562">
        <ele>82</ele>
        <time>2018-02-19T10:27:17Z</time>
      </trkpt>
      <trkpt lat="51.662094974890351" lon="0.462776022031903">
        <ele>82</ele>
        <time>2018-02-19T10:27:18Z</time>
      </trkpt>
      <trkpt lat="51.662076031789184" lon="0.462801000103354">
        <ele>82</ele>
        <time>2018-02-19T10:27:19Z</time>
      </trkpt>
      <trkpt lat="51.662057004868984" lon="0.462824972346425">
        <ele>82</ele>
        <time>2018-02-19T10:27:20Z</time>
      </trkpt>
      <trkpt lat="51.662034960463643" lon="0.462850034236908">
        <ele>81.908397170327504</ele>
        <time>2018-02-19T10:27:21Z</time>
      </trkpt>
      <trkpt lat="51.662015011534095" lon="0.462878029793501">
        <ele>81.145040256390203</ele>
        <time>2018-02-19T10:27:22Z</time>
      </trkpt>
      <trkpt lat="51.661993972957134" lon="0.462902002036572">
        <ele>81</ele>
        <time>2018-02-19T10:27:23Z</time>
      </trkpt>
      <trkpt lat="51.661977963522077" lon="0.462923040613532">
        <ele>81</ele>
        <time>2018-02-19T10:27:24Z</time>
      </trkpt>
      <trkpt lat="51.66196002624929" lon="0.462943995371461">
        <ele>81</ele>
        <time>2018-02-19T10:27:25Z</time>
      </trkpt>
      <trkpt lat="51.66194099932909" lon="0.462961010634899">
        <ele>81</ele>
        <time>2018-02-19T10:27:26Z</time>
      </trkpt>
      <trkpt lat="51.661925995722413" lon="0.462979031726718">
        <ele>81</ele>
        <time>2018-02-19T10:27:27Z</time>
      </trkpt>
      <trkpt lat="51.661900011822581" lon="0.463023036718369">
        <ele>81</ele>
        <time>2018-02-19T10:27:29Z</time>
      </trkpt>
      <trkpt lat="51.661885008215904" lon="0.463043991476297">
        <ele>81</ele>
        <time>2018-02-19T10:27:30Z</time>
      </trkpt>
      <trkpt lat="51.661868998780847" lon="0.463063018396497">
        <ele>81</ele>
        <time>2018-02-19T10:27:31Z</time>
      </trkpt>
      <trkpt lat="51.661850977689028" lon="0.463083973154426">
        <ele>81</ele>
        <time>2018-02-19T10:27:32Z</time>
      </trkpt>
      <trkpt lat="51.66183496825397" lon="0.463104005903006">
        <ele>81</ele>
        <time>2018-02-19T10:27:33Z</time>
      </trkpt>
      <trkpt lat="51.661817030981183" lon="0.463125966489315">
        <ele>80.8888888888889</ele>
        <time>2018-02-19T10:27:34Z</time>
      </trkpt>
      <trkpt lat="51.661795992404222" lon="0.463149016723037">
        <ele>80</ele>
        <time>2018-02-19T10:27:35Z</time>
      </trkpt>
      <trkpt lat="51.661781994625926" lon="0.463176006451249">
        <ele>80</ele>
        <time>2018-02-19T10:27:36Z</time>
      </trkpt>
      <trkpt lat="51.661765985190868" lon="0.46319997869432">
        <ele>80</ele>
        <time>2018-02-19T10:27:37Z</time>
      </trkpt>
      <trkpt lat="51.661752993240952" lon="0.463222023099661">
        <ele>80</ele>
        <time>2018-02-19T10:27:38Z</time>
      </trkpt>
      <trkpt lat="51.661741007119417" lon="0.463244989514351">
        <ele>80</ele>
        <time>2018-02-19T10:27:39Z</time>
      </trkpt>
      <trkpt lat="51.661715023219585" lon="0.46328698284924">
        <ele>80</ele>
        <time>2018-02-19T10:27:41Z</time>
      </trkpt>
      <trkpt lat="51.661701025441289" lon="0.463308021426201">
        <ele>80</ele>
        <time>2018-02-19T10:27:42Z</time>
      </trkpt>
      <trkpt lat="51.661684010177851" lon="0.46332998201251">
        <ele>80</ele>
        <time>2018-02-19T10:27:43Z</time>
      </trkpt>
      <trkpt lat="51.66166297160089" lon="0.463354960083961">
        <ele>80</ele>
        <time>2018-02-19T10:27:44Z</time>
      </trkpt>
      <trkpt lat="51.661647967994213" lon="0.463378010317683">
        <ele>80</ele>
        <time>2018-02-19T10:27:45Z</time>
      </trkpt>
      <trkpt lat="51.661632964387536" lon="0.463401982560754">
        <ele>80</ele>
        <time>2018-02-19T10:27:46Z</time>
      </trkpt>
      <trkpt lat="51.66161703877151" lon="0.463426038622856">
        <ele>80</ele>
        <time>2018-02-19T10:27:47Z</time>
      </trkpt>
      <trkpt lat="51.661598011851311" lon="0.463450010865927">
        <ele>80</ele>
        <time>2018-02-19T10:27:48Z</time>
      </trkpt>
      <trkpt lat="51.661582002416253" lon="0.463469959795475">
        <ele>80</ele>
        <time>2018-02-19T10:27:49Z</time>
      </trkpt>
      <trkpt lat="51.661563981324434" lon="0.463488986715674">
        <ele>80</ele>
        <time>2018-02-19T10:27:50Z</time>
      </trkpt>
      <trkpt lat="51.661548977717757" lon="0.463512036949396">
        <ele>80</ele>
        <time>2018-02-19T10:27:51Z</time>
      </trkpt>
      <trkpt lat="51.661531962454319" lon="0.463535003364086">
        <ele>80</ele>
        <time>2018-02-19T10:27:52Z</time>
      </trkpt>
      <trkpt lat="51.661516958847642" lon="0.463560987263918">
        <ele>80</ele>
        <time>2018-02-19T10:27:53Z</time>
      </trkpt>
      <trkpt lat="51.661502039059997" lon="0.463584959506989">
        <ele>80</ele>
        <time>2018-02-19T10:27:54Z</time>
      </trkpt>
      <trkpt lat="51.661486029624939" lon="0.46360700391233">
        <ele>80</ele>
        <time>2018-02-19T10:27:55Z</time>
      </trkpt>
      <trkpt lat="51.661470020189881" lon="0.46362703666091">
        <ele>80</ele>
        <time>2018-02-19T10:27:56Z</time>
      </trkpt>
      <trkpt lat="51.661451999098063" lon="0.463645979762077">
        <ele>80.120000000000005</ele>
        <time>2018-02-19T10:27:57Z</time>
      </trkpt>
      <trkpt lat="51.661434983834624" lon="0.463665006682277">
        <ele>81</ele>
        <time>2018-02-19T10:27:58Z</time>
      </trkpt>
      <trkpt lat="51.661418974399567" lon="0.463684033602476">
        <ele>81</ele>
        <time>2018-02-19T10:27:59Z</time>
      </trkpt>
      <trkpt lat="51.661402964964509" lon="0.463702976703644">
        <ele>81</ele>
        <time>2018-02-19T10:28:00Z</time>
      </trkpt>
      <trkpt lat="51.661386033520103" lon="0.463722003623843">
        <ele>81</ele>
        <time>2018-02-19T10:28:01Z</time>
      </trkpt>
      <trkpt lat="51.661366000771523" lon="0.463740024715662">
        <ele>81</ele>
        <time>2018-02-19T10:28:02Z</time>
      </trkpt>
      <trkpt lat="51.661343034356833" lon="0.46375896781683">
        <ele>81</ele>
        <time>2018-02-19T10:28:03Z</time>
      </trkpt>
      <trkpt lat="51.661319984123111" lon="0.463775983080268">
        <ele>81</ele>
        <time>2018-02-19T10:28:04Z</time>
      </trkpt>
      <trkpt lat="51.661297017708421" lon="0.463795010000467">
        <ele>81</ele>
        <time>2018-02-19T10:28:05Z</time>
      </trkpt>
      <trkpt lat="51.661273967474699" lon="0.463814036920667">
        <ele>81</ele>
        <time>2018-02-19T10:28:06Z</time>
      </trkpt>
      <trkpt lat="51.661248989403248" lon="0.463830968365073">
        <ele>81</ele>
        <time>2018-02-19T10:28:07Z</time>
      </trkpt>
      <trkpt lat="51.661228034645319" lon="0.46384303830564">
        <ele>81</ele>
        <time>2018-02-19T10:28:08Z</time>
      </trkpt>
      <trkpt lat="51.661208001896739" lon="0.463855024427176">
        <ele>81</ele>
        <time>2018-02-19T10:28:09Z</time>
      </trkpt>
      <trkpt lat="51.661174977198243" lon="0.463880002498627">
        <ele>82</ele>
        <time>2018-02-19T10:28:11Z</time>
      </trkpt>
      <trkpt lat="51.661153016611934" lon="0.463896011933684">
        <ele>82</ele>
        <time>2018-02-19T10:28:12Z</time>
      </trkpt>
      <trkpt lat="51.661131978034973" lon="0.463912021368742">
        <ele>82</ele>
        <time>2018-02-19T10:28:13Z</time>
      </trkpt>
      <trkpt lat="51.661110017448664" lon="0.46393096446991">
        <ele>82</ele>
        <time>2018-02-19T10:28:14Z</time>
      </trkpt>
      <trkpt lat="51.661091996356845" lon="0.46395200304687">
        <ele>82</ele>
        <time>2018-02-19T10:28:15Z</time>
      </trkpt>
      <trkpt lat="51.661075986921787" lon="0.463967006653547">
        <ele>82</ele>
        <time>2018-02-19T10:28:16Z</time>
      </trkpt>
      <trkpt lat="51.661056960001588" lon="0.463983016088605">
        <ele>82</ele>
        <time>2018-02-19T10:28:17Z</time>
      </trkpt>
      <trkpt lat="51.661039022728801" lon="0.463996008038521">
        <ele>82</ele>
        <time>2018-02-19T10:28:18Z</time>
      </trkpt>
      <trkpt lat="51.66101798415184" lon="0.464011011645198">
        <ele>82</ele>
        <time>2018-02-19T10:28:19Z</time>
      </trkpt>
      <trkpt lat="51.660999041050673" lon="0.464027021080256">
        <ele>82</ele>
        <time>2018-02-19T10:28:20Z</time>
      </trkpt>
      <trkpt lat="51.660978002473712" lon="0.464042024686933">
        <ele>82</ele>
        <time>2018-02-19T10:28:21Z</time>
      </trkpt>
      <trkpt lat="51.660956963896751" lon="0.464055016636848">
        <ele>82</ele>
        <time>2018-02-19T10:28:22Z</time>
      </trkpt>
      <trkpt lat="51.660937014967203" lon="0.464065996930003">
        <ele>82</ele>
        <time>2018-02-19T10:28:23Z</time>
      </trkpt>
      <trkpt lat="51.660912958905101" lon="0.464077983051538">
        <ele>82</ele>
        <time>2018-02-19T10:28:24Z</time>
      </trkpt>
      <trkpt lat="51.660892004147172" lon="0.464089969173074">
        <ele>82</ele>
        <time>2018-02-19T10:28:25Z</time>
      </trkpt>
      <trkpt lat="51.660855039954185" lon="0.464116036891937">
        <ele>83</ele>
        <time>2018-02-19T10:28:27Z</time>
      </trkpt>
      <trkpt lat="51.660836013033986" lon="0.464134979993105">
        <ele>83</ele>
        <time>2018-02-19T10:28:28Z</time>
      </trkpt>
      <trkpt lat="51.660816986113787" lon="0.464157024398446">
        <ele>83</ele>
        <time>2018-02-19T10:28:29Z</time>
      </trkpt>
      <trkpt lat="51.660796031355858" lon="0.464174961671233">
        <ele>83</ele>
        <time>2018-02-19T10:28:30Z</time>
      </trkpt>
      <trkpt lat="51.660777004435658" lon="0.464185019955039">
        <ele>83</ele>
        <time>2018-02-19T10:28:31Z</time>
      </trkpt>
      <trkpt lat="51.660754960030317" lon="0.464193988591433">
        <ele>83</ele>
        <time>2018-02-19T10:28:32Z</time>
      </trkpt>
      <trkpt lat="51.660738028585911" lon="0.464202035218477">
        <ele>83.111113984278006</ele>
        <time>2018-02-19T10:28:33Z</time>
      </trkpt>
      <trkpt lat="51.660707015544176" lon="0.464223995804787">
        <ele>84</ele>
        <time>2018-02-19T10:28:35Z</time>
      </trkpt>
      <trkpt lat="51.660682037472725" lon="0.464233970269561">
        <ele>84</ele>
        <time>2018-02-19T10:28:36Z</time>
      </trkpt>
      <trkpt lat="51.660657981410623" lon="0.464243022724986">
        <ele>84</ele>
        <time>2018-02-19T10:28:37Z</time>
      </trkpt>
      <trkpt lat="51.660639038309455" lon="0.464260959997773">
        <ele>84</ele>
        <time>2018-02-19T10:28:38Z</time>
      </trkpt>
      <trkpt lat="51.660625040531158" lon="0.464280992746353">
        <ele>85</ele>
        <time>2018-02-19T10:28:39Z</time>
      </trkpt>
      <trkpt lat="51.660614982247353" lon="0.464312005788088">
        <ele>85.022215269086402</ele>
        <time>2018-02-19T10:28:40Z</time>
      </trkpt>
      <trkpt lat="51.660610036924481" lon="0.464341007173061">
        <ele>86</ele>
        <time>2018-02-19T10:28:41Z</time>
      </trkpt>
      <trkpt lat="51.660610036924481" lon="0.464367996901274">
        <ele>86</ele>
        <time>2018-02-19T10:28:42Z</time>
      </trkpt>
      <trkpt lat="51.660619005560875" lon="0.464398004114628">
        <ele>86</ele>
        <time>2018-02-19T10:28:43Z</time>
      </trkpt>
      <trkpt lat="51.660625040531158" lon="0.46442499384284">
        <ele>86</ele>
        <time>2018-02-19T10:28:44Z</time>
      </trkpt>
      <trkpt lat="51.660633003339171" lon="0.464461036026478">
        <ele>86</ele>
        <time>2018-02-19T10:28:46Z</time>
      </trkpt>
      <trkpt lat="51.660652030259371" lon="0.464486014097929">
        <ele>86</ele>
        <time>2018-02-19T10:28:49Z</time>
      </trkpt>
      <trkpt lat="51.660667033866048" lon="0.464509986341">
        <ele>86</ele>
        <time>2018-02-19T10:28:51Z</time>
      </trkpt>
      <trkpt lat="51.660685976967216" lon="0.464544016867876">
        <ele>86</ele>
        <time>2018-02-19T10:28:53Z</time>
      </trkpt>
      <trkpt lat="51.660697963088751" lon="0.464568994939327">
        <ele>86</ele>
        <time>2018-02-19T10:28:54Z</time>
      </trkpt>
      <trkpt lat="51.660710033029318" lon="0.464593973010778">
        <ele>86</ele>
        <time>2018-02-19T10:28:55Z</time>
      </trkpt>
      <trkpt lat="51.660725036635995" lon="0.4646170232445">
        <ele>86</ele>
        <time>2018-02-19T10:28:56Z</time>
      </trkpt>
      <trkpt lat="51.66073702275753" lon="0.464646024629474">
        <ele>86</ele>
        <time>2018-02-19T10:28:57Z</time>
      </trkpt>
      <trkpt lat="51.660745991393924" lon="0.464673014357686">
        <ele>86</ele>
        <time>2018-02-19T10:28:58Z</time>
      </trkpt>
      <trkpt lat="51.660754960030317" lon="0.464700004085898">
        <ele>86</ele>
        <time>2018-02-19T10:28:59Z</time>
      </trkpt>
      <trkpt lat="51.660753032192588" lon="0.464753983542323">
        <ele>86</ele>
        <time>2018-02-19T10:29:01Z</time>
      </trkpt>
      <trkpt lat="51.660769963636994" lon="0.464784996584058">
        <ele>86</ele>
        <time>2018-02-19T10:29:06Z</time>
      </trkpt>
      <trkpt lat="51.660786978900433" lon="0.464823972433805">
        <ele>86</ele>
        <time>2018-02-19T10:29:08Z</time>
      </trkpt>
      <trkpt lat="51.660799970850348" lon="0.464850040152669">
        <ele>86</ele>
        <time>2018-02-19T10:29:09Z</time>
      </trkpt>
      <trkpt lat="51.660810029134154" lon="0.464878035709262">
        <ele>86</ele>
        <time>2018-02-19T10:29:10Z</time>
      </trkpt>
      <trkpt lat="51.660818997770548" lon="0.464907959103584">
        <ele>86</ele>
        <time>2018-02-19T10:29:11Z</time>
      </trkpt>
      <trkpt lat="51.660826038569212" lon="0.464936038479209">
        <ele>86</ele>
        <time>2018-02-19T10:29:12Z</time>
      </trkpt>
      <trkpt lat="51.660832995548844" lon="0.464966967701912">
        <ele>86</ele>
        <time>2018-02-19T10:29:13Z</time>
      </trkpt>
      <trkpt lat="51.660839030519128" lon="0.464997980743647">
        <ele>86</ele>
        <time>2018-02-19T10:29:14Z</time>
      </trkpt>
      <trkpt lat="51.660847999155521" lon="0.465023964643478">
        <ele>86</ele>
        <time>2018-02-19T10:29:15Z</time>
      </trkpt>
      <trkpt lat="51.660858979448676" lon="0.465078027918935">
        <ele>86</ele>
        <time>2018-02-19T10:29:17Z</time>
      </trkpt>
      <trkpt lat="51.660868031904101" lon="0.465106023475528">
        <ele>86</ele>
        <time>2018-02-19T10:29:18Z</time>
      </trkpt>
      <trkpt lat="51.660874988883734" lon="0.465136030688882">
        <ele>86</ele>
        <time>2018-02-19T10:29:19Z</time>
      </trkpt>
      <trkpt lat="51.660881023854017" lon="0.465164026245475">
        <ele>86</ele>
        <time>2018-02-19T10:29:20Z</time>
      </trkpt>
      <trkpt lat="51.660892004147172" lon="0.465214988216758">
        <ele>86</ele>
        <time>2018-02-19T10:29:22Z</time>
      </trkpt>
      <trkpt lat="51.660904996097088" lon="0.465266034007072">
        <ele>86</ele>
        <time>2018-02-19T10:29:24Z</time>
      </trkpt>
      <trkpt lat="51.660914970561862" lon="0.465296041220427">
        <ele>86</ele>
        <time>2018-02-19T10:29:25Z</time>
      </trkpt>
      <trkpt lat="51.660921005532146" lon="0.465325964614749">
        <ele>86</ele>
        <time>2018-02-19T10:29:26Z</time>
      </trkpt>
      <trkpt lat="51.660929974168539" lon="0.465357983484864">
        <ele>86</ele>
        <time>2018-02-19T10:29:27Z</time>
      </trkpt>
      <trkpt lat="51.660942966118455" lon="0.465393019840121">
        <ele>86</ele>
        <time>2018-02-19T10:29:28Z</time>
      </trkpt>
      <trkpt lat="51.660957969725132" lon="0.465425960719585">
        <ele>86</ele>
        <time>2018-02-19T10:29:29Z</time>
      </trkpt>
      <trkpt lat="51.660966016352177" lon="0.465459991246462">
        <ele>86</ele>
        <time>2018-02-19T10:29:30Z</time>
      </trkpt>
      <trkpt lat="51.660972973331809" lon="0.465489998459816">
        <ele>86</ele>
        <time>2018-02-19T10:29:31Z</time>
      </trkpt>
      <trkpt lat="51.660980014130473" lon="0.46552000567317">
        <ele>86</ele>
        <time>2018-02-19T10:29:32Z</time>
      </trkpt>
      <trkpt lat="51.660987976938486" lon="0.465545989573002">
        <ele>86</ele>
        <time>2018-02-19T10:29:33Z</time>
      </trkpt>
      <trkpt lat="51.661005998030305" lon="0.465596029534936">
        <ele>86</ele>
        <time>2018-02-19T10:29:35Z</time>
      </trkpt>
      <trkpt lat="51.661024019122124" lon="0.465647997334599">
        <ele>86</ele>
        <time>2018-02-19T10:29:37Z</time>
      </trkpt>
      <trkpt lat="51.661036005243659" lon="0.465673981234431">
        <ele>86</ele>
        <time>2018-02-19T10:29:38Z</time>
      </trkpt>
      <trkpt lat="51.661045979708433" lon="0.465701976791024">
        <ele>86</ele>
        <time>2018-02-19T10:29:39Z</time>
      </trkpt>
      <trkpt lat="51.661055032163858" lon="0.465736007317901">
        <ele>86</ele>
        <time>2018-02-19T10:29:40Z</time>
      </trkpt>
      <trkpt lat="51.66106098331511" lon="0.465768026188016">
        <ele>85.879999999999995</ele>
        <time>2018-02-19T10:29:41Z</time>
      </trkpt>
      <trkpt lat="51.661071963608265" lon="0.465805996209383">
        <ele>85</ele>
        <time>2018-02-19T10:29:42Z</time>
      </trkpt>
      <trkpt lat="51.661079004406929" lon="0.46584296040237">
        <ele>85</ele>
        <time>2018-02-19T10:29:43Z</time>
      </trkpt>
      <trkpt lat="51.661089984700084" lon="0.465875985100865">
        <ele>85</ele>
        <time>2018-02-19T10:29:44Z</time>
      </trkpt>
      <trkpt lat="51.661100964993238" lon="0.465905992314219">
        <ele>85</ele>
        <time>2018-02-19T10:29:45Z</time>
      </trkpt>
      <trkpt lat="51.661113034933805" lon="0.465933987870812">
        <ele>85</ele>
        <time>2018-02-19T10:29:46Z</time>
      </trkpt>
      <trkpt lat="51.66112401522696" lon="0.465963995084167">
        <ele>85</ele>
        <time>2018-02-19T10:29:47Z</time>
      </trkpt>
      <trkpt lat="51.661140024662018" lon="0.466020992025733">
        <ele>85</ele>
        <time>2018-02-19T10:29:49Z</time>
      </trkpt>
      <trkpt lat="51.661152010783553" lon="0.466049993410707">
        <ele>84.879999999999995</ele>
        <time>2018-02-19T10:29:50Z</time>
      </trkpt>
      <trkpt lat="51.66116701439023" lon="0.466084023937583">
        <ele>84</ele>
        <time>2018-02-19T10:29:51Z</time>
      </trkpt>
      <trkpt lat="51.661180006340146" lon="0.466117970645428">
        <ele>84</ele>
        <time>2018-02-19T10:29:52Z</time>
      </trkpt>
      <trkpt lat="51.661190986633301" lon="0.466152001172304">
        <ele>84</ele>
        <time>2018-02-19T10:29:53Z</time>
      </trkpt>
      <trkpt lat="51.661202972754836" lon="0.466182008385658">
        <ele>84</ele>
        <time>2018-02-19T10:29:54Z</time>
      </trkpt>
      <trkpt lat="51.661214958876371" lon="0.466216038912535">
        <ele>84</ele>
        <time>2018-02-19T10:29:55Z</time>
      </trkpt>
      <trkpt lat="51.661228034645319" lon="0.466245962306857">
        <ele>84</ele>
        <time>2018-02-19T10:29:56Z</time>
      </trkpt>
      <trkpt lat="51.661240020766854" lon="0.466277981176972">
        <ele>83.879999999999995</ele>
        <time>2018-02-19T10:29:57Z</time>
      </trkpt>
      <trkpt lat="51.661255024373531" lon="0.466312011703849">
        <ele>83</ele>
        <time>2018-02-19T10:29:58Z</time>
      </trkpt>
      <trkpt lat="51.661266004666686" lon="0.466340007260442">
        <ele>83</ele>
        <time>2018-02-19T10:29:59Z</time>
      </trkpt>
      <trkpt lat="51.66127203963697" lon="0.466370014473796">
        <ele>83</ele>
        <time>2018-02-19T10:30:00Z</time>
      </trkpt>
      <trkpt lat="51.66127597913146" lon="0.466398010030389">
        <ele>83</ele>
        <time>2018-02-19T10:30:01Z</time>
      </trkpt>
      <trkpt lat="51.661285031586885" lon="0.466430028900504">
        <ele>83</ele>
        <time>2018-02-19T10:30:02Z</time>
      </trkpt>
      <trkpt lat="51.661302968859673" lon="0.466481996700168">
        <ele>83</ele>
        <time>2018-02-19T10:30:04Z</time>
      </trkpt>
      <trkpt lat="51.66131503880024" lon="0.466510998085141">
        <ele>82.887850802689201</ele>
        <time>2018-02-19T10:30:05Z</time>
      </trkpt>
      <trkpt lat="51.661326019093394" lon="0.466542011126876">
        <ele>82</ele>
        <time>2018-02-19T10:30:06Z</time>
      </trkpt>
      <trkpt lat="51.661336999386549" lon="0.466573024168611">
        <ele>82</ele>
        <time>2018-02-19T10:30:07Z</time>
      </trkpt>
      <trkpt lat="51.661349991336465" lon="0.466604037210345">
        <ele>82</ele>
        <time>2018-02-19T10:30:08Z</time>
      </trkpt>
      <trkpt lat="51.661361977458" lon="0.466633960604668">
        <ele>82</ele>
        <time>2018-02-19T10:30:09Z</time>
      </trkpt>
      <trkpt lat="51.661373963579535" lon="0.466665979474783">
        <ele>82</ele>
        <time>2018-02-19T10:30:10Z</time>
      </trkpt>
      <trkpt lat="51.661387961357832" lon="0.466699004173279">
        <ele>82</ele>
        <time>2018-02-19T10:30:11Z</time>
      </trkpt>
      <trkpt lat="51.661402964964509" lon="0.466730017215014">
        <ele>82</ele>
        <time>2018-02-19T10:30:12Z</time>
      </trkpt>
      <trkpt lat="51.661416040733457" lon="0.466761030256748">
        <ele>82</ele>
        <time>2018-02-19T10:30:13Z</time>
      </trkpt>
      <trkpt lat="51.661430960521102" lon="0.466792965307832">
        <ele>82</ele>
        <time>2018-02-19T10:30:14Z</time>
      </trkpt>
      <trkpt lat="51.661444958299398" lon="0.466825990006328">
        <ele>82</ele>
        <time>2018-02-19T10:30:15Z</time>
      </trkpt>
      <trkpt lat="51.661459961906075" lon="0.466860020533204">
        <ele>82</ele>
        <time>2018-02-19T10:30:16Z</time>
      </trkpt>
      <trkpt lat="51.661474965512753" lon="0.466892039403319">
        <ele>82</ele>
        <time>2018-02-19T10:30:17Z</time>
      </trkpt>
      <trkpt lat="51.6614880412817" lon="0.466921040788293">
        <ele>82</ele>
        <time>2018-02-19T10:30:18Z</time>
      </trkpt>
      <trkpt lat="51.661502039059997" lon="0.466950964182615">
        <ele>82</ele>
        <time>2018-02-19T10:30:19Z</time>
      </trkpt>
      <trkpt lat="51.661516958847642" lon="0.466980971395969">
        <ele>82</ele>
        <time>2018-02-19T10:30:20Z</time>
      </trkpt>
      <trkpt lat="51.661528022959828" lon="0.467012990266085">
        <ele>82</ele>
        <time>2018-02-19T10:30:21Z</time>
      </trkpt>
      <trkpt lat="51.661540009081364" lon="0.4670450091362">
        <ele>82</ele>
        <time>2018-02-19T10:30:22Z</time>
      </trkpt>
      <trkpt lat="51.661549983546138" lon="0.467078033834696">
        <ele>82</ele>
        <time>2018-02-19T10:30:23Z</time>
      </trkpt>
      <trkpt lat="51.661563981324434" lon="0.46711097471416">
        <ele>82</ele>
        <time>2018-02-19T10:30:24Z</time>
      </trkpt>
      <trkpt lat="51.661577979102731" lon="0.467140981927514">
        <ele>82</ele>
        <time>2018-02-19T10:30:25Z</time>
      </trkpt>
      <trkpt lat="51.661591976881027" lon="0.467171994969249">
        <ele>82</ele>
        <time>2018-02-19T10:30:26Z</time>
      </trkpt>
      <trkpt lat="51.661607986316085" lon="0.467199990525842">
        <ele>81.891892203553994</ele>
        <time>2018-02-19T10:30:27Z</time>
      </trkpt>
      <trkpt lat="51.661622989922762" lon="0.467228991910815">
        <ele>81</ele>
        <time>2018-02-19T10:30:28Z</time>
      </trkpt>
      <trkpt lat="51.661635981872678" lon="0.467261010780931">
        <ele>81</ele>
        <time>2018-02-19T10:30:29Z</time>
      </trkpt>
      <trkpt lat="51.661650985479355" lon="0.467295041307807">
        <ele>81</ele>
        <time>2018-02-19T10:30:30Z</time>
      </trkpt>
      <trkpt lat="51.66166297160089" lon="0.467330999672413">
        <ele>81</ele>
        <time>2018-02-19T10:30:31Z</time>
      </trkpt>
      <trkpt lat="51.661673029884696" lon="0.467365030199289">
        <ele>81</ele>
        <time>2018-02-19T10:30:32Z</time>
      </trkpt>
      <trkpt lat="51.66168300434947" lon="0.467395959421992">
        <ele>81</ele>
        <time>2018-02-19T10:30:33Z</time>
      </trkpt>
      <trkpt lat="51.661693984642625" lon="0.467424038797617">
        <ele>81</ele>
        <time>2018-02-19T10:30:34Z</time>
      </trkpt>
      <trkpt lat="51.66170496493578" lon="0.46745304018259">
        <ele>81</ele>
        <time>2018-02-19T10:30:35Z</time>
      </trkpt>
      <trkpt lat="51.661714017391205" lon="0.467484975233674">
        <ele>80.879999999999995</ele>
        <time>2018-02-19T10:30:36Z</time>
      </trkpt>
      <trkpt lat="51.661723991855979" lon="0.46751799993217">
        <ele>80</ele>
        <time>2018-02-19T10:30:37Z</time>
      </trkpt>
      <trkpt lat="51.661732038483024" lon="0.467550018802285">
        <ele>80</ele>
        <time>2018-02-19T10:30:38Z</time>
      </trkpt>
      <trkpt lat="51.661742012947798" lon="0.467582959681749">
        <ele>80</ele>
        <time>2018-02-19T10:30:39Z</time>
      </trkpt>
      <trkpt lat="51.661751987412572" lon="0.467619001865387">
        <ele>80</ele>
        <time>2018-02-19T10:30:40Z</time>
      </trkpt>
      <trkpt lat="51.661761039867997" lon="0.467655966058373">
        <ele>80</ele>
        <time>2018-02-19T10:30:41Z</time>
      </trkpt>
      <trkpt lat="51.661770008504391" lon="0.467695025727153">
        <ele>80</ele>
        <time>2018-02-19T10:30:42Z</time>
      </trkpt>
      <trkpt lat="51.661779982969165" lon="0.46773299574852">
        <ele>80</ele>
        <time>2018-02-19T10:30:43Z</time>
      </trkpt>
      <trkpt lat="51.66178802959621" lon="0.467769037932158">
        <ele>80</ele>
        <time>2018-02-19T10:30:44Z</time>
      </trkpt>
      <trkpt lat="51.661795992404222" lon="0.467804996296763">
        <ele>80</ele>
        <time>2018-02-19T10:30:45Z</time>
      </trkpt>
      <trkpt lat="51.661801021546125" lon="0.46784196048975">
        <ele>80</ele>
        <time>2018-02-19T10:30:46Z</time>
      </trkpt>
      <trkpt lat="51.661804961040616" lon="0.467881020158529">
        <ele>80</ele>
        <time>2018-02-19T10:30:47Z</time>
      </trkpt>
      <trkpt lat="51.661807978525758" lon="0.467919996008277">
        <ele>80</ele>
        <time>2018-02-19T10:30:48Z</time>
      </trkpt>
      <trkpt lat="51.661813007667661" lon="0.467955032363534">
        <ele>80</ele>
        <time>2018-02-19T10:30:49Z</time>
      </trkpt>
      <trkpt lat="51.661818036809564" lon="0.46799099072814">
        <ele>80</ele>
        <time>2018-02-19T10:30:50Z</time>
      </trkpt>
      <trkpt lat="51.661820970475674" lon="0.468025021255016">
        <ele>80</ele>
        <time>2018-02-19T10:30:51Z</time>
      </trkpt>
      <trkpt lat="51.661822982132435" lon="0.468058967962861">
        <ele>79</ele>
        <time>2018-02-19T10:30:52Z</time>
      </trkpt>
      <trkpt lat="51.661823987960815" lon="0.468088975176215">
        <ele>79</ele>
        <time>2018-02-19T10:30:53Z</time>
      </trkpt>
      <trkpt lat="51.661822982132435" lon="0.468117976561189">
        <ele>79</ele>
        <time>2018-02-19T10:30:54Z</time>
      </trkpt>
      <trkpt lat="51.661818958818913" lon="0.468148989602923">
        <ele>79</ele>
        <time>2018-02-19T10:30:55Z</time>
      </trkpt>
      <trkpt lat="51.661818036809564" lon="0.468178996816278">
        <ele>79</ele>
        <time>2018-02-19T10:30:56Z</time>
      </trkpt>
      <trkpt lat="51.661818958818913" lon="0.468214033171535">
        <ele>79</ele>
        <time>2018-02-19T10:30:57Z</time>
      </trkpt>
      <trkpt lat="51.661819964647293" lon="0.468245968222618">
        <ele>79</ele>
        <time>2018-02-19T10:30:58Z</time>
      </trkpt>
      <trkpt lat="51.661822982132435" lon="0.468282010406256">
        <ele>79</ele>
        <time>2018-02-19T10:30:59Z</time>
      </trkpt>
      <trkpt lat="51.661824993789196" lon="0.468316962942481">
        <ele>79</ele>
        <time>2018-02-19T10:31:00Z</time>
      </trkpt>
      <trkpt lat="51.661823987960815" lon="0.468346970155835">
        <ele>79</ele>
        <time>2018-02-19T10:31:01Z</time>
      </trkpt>
      <trkpt lat="51.661823987960815" lon="0.468376977369189">
        <ele>79</ele>
        <time>2018-02-19T10:31:02Z</time>
      </trkpt>
      <trkpt lat="51.661833040416241" lon="0.468431962653995">
        <ele>78.936163838884497</ele>
        <time>2018-02-19T10:31:04Z</time>
      </trkpt>
      <trkpt lat="51.661842009052634" lon="0.468466999009252">
        <ele>78</ele>
        <time>2018-02-19T10:31:05Z</time>
      </trkpt>
      <trkpt lat="51.661847038194537" lon="0.468497006222606">
        <ele>78</ele>
        <time>2018-02-19T10:31:06Z</time>
      </trkpt>
      <trkpt lat="51.661851983517408" lon="0.468531958758831">
        <ele>78</ele>
        <time>2018-02-19T10:31:07Z</time>
      </trkpt>
      <trkpt lat="51.661856006830931" lon="0.468568000942469">
        <ele>78</ele>
        <time>2018-02-19T10:31:08Z</time>
      </trkpt>
      <trkpt lat="51.661857012659311" lon="0.468601025640965">
        <ele>78</ele>
        <time>2018-02-19T10:31:09Z</time>
      </trkpt>
      <trkpt lat="51.661862041801214" lon="0.468634972348809">
        <ele>78</ele>
        <time>2018-02-19T10:31:10Z</time>
      </trkpt>
      <trkpt lat="51.661868998780847" lon="0.468666991218925">
        <ele>78</ele>
        <time>2018-02-19T10:31:11Z</time>
      </trkpt>
      <trkpt lat="51.661876039579511" lon="0.468704039230943">
        <ele>78</ele>
        <time>2018-02-19T10:31:12Z</time>
      </trkpt>
      <trkpt lat="51.661884002387524" lon="0.468735974282026">
        <ele>78</ele>
        <time>2018-02-19T10:31:13Z</time>
      </trkpt>
      <trkpt lat="51.661891965195537" lon="0.468794982880354">
        <ele>78</ele>
        <time>2018-02-19T10:31:15Z</time>
      </trkpt>
      <trkpt lat="51.661899005994201" lon="0.468833036720753">
        <ele>78.108107796446006</ele>
        <time>2018-02-19T10:31:16Z</time>
      </trkpt>
      <trkpt lat="51.661908980458975" lon="0.468867989256978">
        <ele>79</ele>
        <time>2018-02-19T10:31:17Z</time>
      </trkpt>
      <trkpt lat="51.66191702708602" lon="0.468905959278345">
        <ele>78.879999999999995</ele>
        <time>2018-02-19T10:31:18Z</time>
      </trkpt>
      <trkpt lat="51.661922978237271" lon="0.468948036432266">
        <ele>78</ele>
        <time>2018-02-19T10:31:19Z</time>
      </trkpt>
      <trkpt lat="51.661925995722413" lon="0.468988018110394">
        <ele>78</ele>
        <time>2018-02-19T10:31:20Z</time>
      </trkpt>
      <trkpt lat="51.661932030692697" lon="0.469021964818239">
        <ele>78</ele>
        <time>2018-02-19T10:31:21Z</time>
      </trkpt>
      <trkpt lat="51.661937981843948" lon="0.469062030315399">
        <ele>78</ele>
        <time>2018-02-19T10:31:22Z</time>
      </trkpt>
      <trkpt lat="51.661943010985851" lon="0.469105029478669">
        <ele>78.0833333333333</ele>
        <time>2018-02-19T10:31:23Z</time>
      </trkpt>
      <trkpt lat="51.661948040127754" lon="0.469146016985178">
        <ele>79</ele>
        <time>2018-02-19T10:31:24Z</time>
      </trkpt>
      <trkpt lat="51.661951979622245" lon="0.469185998663306">
        <ele>79</ele>
        <time>2018-02-19T10:31:25Z</time>
      </trkpt>
      <trkpt lat="51.661959020420909" lon="0.469222040846944">
        <ele>79</ele>
        <time>2018-02-19T10:31:26Z</time>
      </trkpt>
      <trkpt lat="51.661962037906051" lon="0.469255987554789">
        <ele>79</ele>
        <time>2018-02-19T10:31:27Z</time>
      </trkpt>
      <trkpt lat="51.661966983228922" lon="0.469290018081665">
        <ele>79</ele>
        <time>2018-02-19T10:31:28Z</time>
      </trkpt>
      <trkpt lat="51.661971006542444" lon="0.469325976446271">
        <ele>79</ele>
        <time>2018-02-19T10:31:29Z</time>
      </trkpt>
      <trkpt lat="51.661976035684347" lon="0.469363024458289">
        <ele>79</ele>
        <time>2018-02-19T10:31:30Z</time>
      </trkpt>
      <trkpt lat="51.66198399849236" lon="0.469399988651276">
        <ele>79</ele>
        <time>2018-02-19T10:31:31Z</time>
      </trkpt>
      <trkpt lat="51.661987015977502" lon="0.469436030834913">
        <ele>79</ele>
        <time>2018-02-19T10:31:32Z</time>
      </trkpt>
      <trkpt lat="51.661987015977502" lon="0.469470983371139">
        <ele>79</ele>
        <time>2018-02-19T10:31:33Z</time>
      </trkpt>
      <trkpt lat="51.661990033462644" lon="0.469505013898015">
        <ele>79</ele>
        <time>2018-02-19T10:31:34Z</time>
      </trkpt>
      <trkpt lat="51.661993972957134" lon="0.46953602693975">
        <ele>78</ele>
        <time>2018-02-19T10:31:35Z</time>
      </trkpt>
      <trkpt lat="51.661997996270657" lon="0.469567039981484">
        <ele>78</ele>
        <time>2018-02-19T10:31:36Z</time>
      </trkpt>
      <trkpt lat="51.662005037069321" lon="0.469600986689329">
        <ele>78</ele>
        <time>2018-02-19T10:31:37Z</time>
      </trkpt>
      <trkpt lat="51.662009982392192" lon="0.469637028872967">
        <ele>77.893805009005305</ele>
        <time>2018-02-19T10:31:38Z</time>
      </trkpt>
      <trkpt lat="51.662010988220572" lon="0.469678016379476">
        <ele>77.008846750716501</ele>
        <time>2018-02-19T10:31:39Z</time>
      </trkpt>
      <trkpt lat="51.662017023190856" lon="0.46971196308732">
        <ele>77</ele>
        <time>2018-02-19T10:31:40Z</time>
      </trkpt>
      <trkpt lat="51.662023980170488" lon="0.469748005270958">
        <ele>77</ele>
        <time>2018-02-19T10:31:41Z</time>
      </trkpt>
      <trkpt lat="51.66202699765563" lon="0.469785975292325">
        <ele>77</ele>
        <time>2018-02-19T10:31:42Z</time>
      </trkpt>
      <trkpt lat="51.662033032625914" lon="0.469827968627214">
        <ele>77</ele>
        <time>2018-02-19T10:31:43Z</time>
      </trkpt>
      <trkpt lat="51.662036972120404" lon="0.469869039952755">
        <ele>77</ele>
        <time>2018-02-19T10:31:44Z</time>
      </trkpt>
      <trkpt lat="51.662040995433927" lon="0.469907009974122">
        <ele>77</ele>
        <time>2018-02-19T10:31:45Z</time>
      </trkpt>
      <trkpt lat="51.662044012919068" lon="0.46994699165225">
        <ele>77</ele>
        <time>2018-02-19T10:31:46Z</time>
      </trkpt>
      <trkpt lat="51.66204602457583" lon="0.469990996643901">
        <ele>77</ele>
        <time>2018-02-19T10:31:47Z</time>
      </trkpt>
      <trkpt lat="51.66204996407032" lon="0.470027960836887">
        <ele>77</ele>
        <time>2018-02-19T10:31:48Z</time>
      </trkpt>
      <trkpt lat="51.662052981555462" lon="0.470065008848906">
        <ele>77</ele>
        <time>2018-02-19T10:31:49Z</time>
      </trkpt>
      <trkpt lat="51.662057004868984" lon="0.470101973041892">
        <ele>77</ele>
        <time>2018-02-19T10:31:50Z</time>
      </trkpt>
      <trkpt lat="51.662061028182507" lon="0.470137009397149">
        <ele>77</ele>
        <time>2018-02-19T10:31:51Z</time>
      </trkpt>
      <trkpt lat="51.662064967676997" lon="0.470174979418516">
        <ele>77</ele>
        <time>2018-02-19T10:31:52Z</time>
      </trkpt>
      <trkpt lat="51.662072008475661" lon="0.470215966925025">
        <ele>77</ele>
        <time>2018-02-19T10:31:53Z</time>
      </trkpt>
      <trkpt lat="51.662076031789184" lon="0.470252009108663">
        <ele>77</ele>
        <time>2018-02-19T10:31:54Z</time>
      </trkpt>
      <trkpt lat="51.662078965455294" lon="0.470286039635539">
        <ele>77</ele>
        <time>2018-02-19T10:31:55Z</time>
      </trkpt>
      <trkpt lat="51.662078965455294" lon="0.470324009656906">
        <ele>77</ele>
        <time>2018-02-19T10:31:56Z</time>
      </trkpt>
      <trkpt lat="51.662077959626913" lon="0.470357034355402">
        <ele>76.879999999999995</ele>
        <time>2018-02-19T10:31:57Z</time>
      </trkpt>
      <trkpt lat="51.662080977112055" lon="0.470390981063247">
        <ele>76</ele>
        <time>2018-02-19T10:31:58Z</time>
      </trkpt>
      <trkpt lat="51.662081982940435" lon="0.470422999933362">
        <ele>76</ele>
        <time>2018-02-19T10:31:59Z</time>
      </trkpt>
      <trkpt lat="51.662082988768816" lon="0.470458958297968">
        <ele>76</ele>
        <time>2018-02-19T10:32:00Z</time>
      </trkpt>
      <trkpt lat="51.662086006253958" lon="0.470500029623508">
        <ele>76</ele>
        <time>2018-02-19T10:32:01Z</time>
      </trkpt>
      <trkpt lat="51.662092041224241" lon="0.470541017130017">
        <ele>76</ele>
        <time>2018-02-19T10:32:02Z</time>
      </trkpt>
      <trkpt lat="51.662096986547112" lon="0.470582004636526">
        <ele>76</ele>
        <time>2018-02-19T10:32:03Z</time>
      </trkpt>
      <trkpt lat="51.662105033174157" lon="0.470622992143035">
        <ele>76</ele>
        <time>2018-02-19T10:32:04Z</time>
      </trkpt>
      <trkpt lat="51.662109978497028" lon="0.470668002963066">
        <ele>76</ele>
        <time>2018-02-19T10:32:05Z</time>
      </trkpt>
      <trkpt lat="51.662114001810551" lon="0.470704967156053">
        <ele>76</ele>
        <time>2018-02-19T10:32:06Z</time>
      </trkpt>
      <trkpt lat="51.662116013467312" lon="0.47074000351131">
        <ele>76</ele>
        <time>2018-02-19T10:32:07Z</time>
      </trkpt>
      <trkpt lat="51.662118025124073" lon="0.470772022381425">
        <ele>76</ele>
        <time>2018-02-19T10:32:08Z</time>
      </trkpt>
      <trkpt lat="51.662118025124073" lon="0.47080404125154">
        <ele>76</ele>
        <time>2018-02-19T10:32:09Z</time>
      </trkpt>
      <trkpt lat="51.662118025124073" lon="0.470835976302624">
        <ele>76</ele>
        <time>2018-02-19T10:32:10Z</time>
      </trkpt>
      <trkpt lat="51.662114001810551" lon="0.470867995172739">
        <ele>76</ele>
        <time>2018-02-19T10:32:11Z</time>
      </trkpt>
      <trkpt lat="51.662110984325409" lon="0.470904037356377">
        <ele>76</ele>
        <time>2018-02-19T10:32:12Z</time>
      </trkpt>
      <trkpt lat="51.662107966840267" lon="0.470936978235841">
        <ele>76</ele>
        <time>2018-02-19T10:32:13Z</time>
      </trkpt>
      <trkpt lat="51.662107966840267" lon="0.470970002934337">
        <ele>76</ele>
        <time>2018-02-19T10:32:14Z</time>
      </trkpt>
      <trkpt lat="51.662109978497028" lon="0.471003027632833">
        <ele>76</ele>
        <time>2018-02-19T10:32:15Z</time>
      </trkpt>
      <trkpt lat="51.66211199015379" lon="0.471035968512297">
        <ele>76</ele>
        <time>2018-02-19T10:32:16Z</time>
      </trkpt>
      <trkpt lat="51.662114001810551" lon="0.471072010695934">
        <ele>76</ele>
        <time>2018-02-19T10:32:17Z</time>
      </trkpt>
      <trkpt lat="51.662116013467312" lon="0.471106041222811">
        <ele>76</ele>
        <time>2018-02-19T10:32:18Z</time>
      </trkpt>
      <trkpt lat="51.662120036780834" lon="0.471145017072558">
        <ele>76</ele>
        <time>2018-02-19T10:32:19Z</time>
      </trkpt>
      <trkpt lat="51.662121964618564" lon="0.471186004579067">
        <ele>76</ele>
        <time>2018-02-19T10:32:20Z</time>
      </trkpt>
      <trkpt lat="51.662124982103705" lon="0.471221962943673">
        <ele>76</ele>
        <time>2018-02-19T10:32:21Z</time>
      </trkpt>
      <trkpt lat="51.662126993760467" lon="0.471263034269214">
        <ele>76</ele>
        <time>2018-02-19T10:32:22Z</time>
      </trkpt>
      <trkpt lat="51.662127999588847" lon="0.4712999984622">
        <ele>75.894736251150903</ele>
        <time>2018-02-19T10:32:23Z</time>
      </trkpt>
      <trkpt lat="51.662124982103705" lon="0.471336040645838">
        <ele>75.017538344074893</ele>
        <time>2018-02-19T10:32:24Z</time>
      </trkpt>
      <trkpt lat="51.662126993760467" lon="0.471369987353683">
        <ele>75</ele>
        <time>2018-02-19T10:32:25Z</time>
      </trkpt>
      <trkpt lat="51.662121964618564" lon="0.471407035365701">
        <ele>75</ele>
        <time>2018-02-19T10:32:26Z</time>
      </trkpt>
      <trkpt lat="51.662116013467312" lon="0.47144802287221">
        <ele>75</ele>
        <time>2018-02-19T10:32:27Z</time>
      </trkpt>
      <trkpt lat="51.66211199015379" lon="0.471485992893577">
        <ele>75</ele>
        <time>2018-02-19T10:32:28Z</time>
      </trkpt>
      <trkpt lat="51.662109978497028" lon="0.471524968743324">
        <ele>75</ele>
        <time>2018-02-19T10:32:29Z</time>
      </trkpt>
      <trkpt lat="51.662105033174157" lon="0.471561010926962">
        <ele>75</ele>
        <time>2018-02-19T10:32:30Z</time>
      </trkpt>
      <trkpt lat="51.662101009860635" lon="0.471596969291568">
        <ele>75</ele>
        <time>2018-02-19T10:32:31Z</time>
      </trkpt>
      <trkpt lat="51.662100004032254" lon="0.471634017303586">
        <ele>75</ele>
        <time>2018-02-19T10:32:32Z</time>
      </trkpt>
      <trkpt lat="51.662093969061971" lon="0.471668969839811">
        <ele>75</ele>
        <time>2018-02-19T10:32:33Z</time>
      </trkpt>
      <trkpt lat="51.66209002956748" lon="0.47170601785183">
        <ele>75</ele>
        <time>2018-02-19T10:32:34Z</time>
      </trkpt>
      <trkpt lat="51.662088017910719" lon="0.471738958731294">
        <ele>75</ele>
        <time>2018-02-19T10:32:35Z</time>
      </trkpt>
      <trkpt lat="51.662086006253958" lon="0.471775000914931">
        <ele>75</ele>
        <time>2018-02-19T10:32:36Z</time>
      </trkpt>
      <trkpt lat="51.662083994597197" lon="0.471811965107918">
        <ele>75</ele>
        <time>2018-02-19T10:32:37Z</time>
      </trkpt>
      <trkpt lat="51.662082988768816" lon="0.471850018948317">
        <ele>75</ele>
        <time>2018-02-19T10:32:38Z</time>
      </trkpt>
      <trkpt lat="51.662079971283674" lon="0.471893018111587">
        <ele>75</ele>
        <time>2018-02-19T10:32:39Z</time>
      </trkpt>
      <trkpt lat="51.662077959626913" lon="0.471932999789715">
        <ele>75</ele>
        <time>2018-02-19T10:32:40Z</time>
      </trkpt>
      <trkpt lat="51.662074020132422" lon="0.471973987296224">
        <ele>75</ele>
        <time>2018-02-19T10:32:41Z</time>
      </trkpt>
      <trkpt lat="51.662067985162139" lon="0.472014974802732">
        <ele>75</ele>
        <time>2018-02-19T10:32:42Z</time>
      </trkpt>
      <trkpt lat="51.662065973505378" lon="0.472053028643131">
        <ele>75</ele>
        <time>2018-02-19T10:32:43Z</time>
      </trkpt>
      <trkpt lat="51.662063961848617" lon="0.472090998664498">
        <ele>75</ele>
        <time>2018-02-19T10:32:44Z</time>
      </trkpt>
      <trkpt lat="51.662065973505378" lon="0.472126035019755">
        <ele>75</ele>
        <time>2018-02-19T10:32:45Z</time>
      </trkpt>
      <trkpt lat="51.662065973505378" lon="0.472160987555981">
        <ele>75</ele>
        <time>2018-02-19T10:32:46Z</time>
      </trkpt>
      <trkpt lat="51.6620699968189" lon="0.472199041396379">
        <ele>75</ele>
        <time>2018-02-19T10:32:47Z</time>
      </trkpt>
      <trkpt lat="51.662074020132422" lon="0.472238017246127">
        <ele>75</ele>
        <time>2018-02-19T10:32:48Z</time>
      </trkpt>
      <trkpt lat="51.662074020132422" lon="0.472275987267494">
        <ele>75</ele>
        <time>2018-02-19T10:32:49Z</time>
      </trkpt>
      <trkpt lat="51.662074020132422" lon="0.472310017794371">
        <ele>75</ele>
        <time>2018-02-19T10:32:50Z</time>
      </trkpt>
      <trkpt lat="51.662074020132422" lon="0.472341030836105">
        <ele>75</ele>
        <time>2018-02-19T10:32:51Z</time>
      </trkpt>
      <trkpt lat="51.662072008475661" lon="0.472371038049459">
        <ele>75</ele>
        <time>2018-02-19T10:32:52Z</time>
      </trkpt>
      <trkpt lat="51.662072008475661" lon="0.472404984757304">
        <ele>75</ele>
        <time>2018-02-19T10:32:53Z</time>
      </trkpt>
      <trkpt lat="51.662067985162139" lon="0.472441026940942">
        <ele>75</ele>
        <time>2018-02-19T10:32:54Z</time>
      </trkpt>
      <trkpt lat="51.662065973505378" lon="0.472482014447451">
        <ele>75</ele>
        <time>2018-02-19T10:32:55Z</time>
      </trkpt>
      <trkpt lat="51.662063961848617" lon="0.472523001953959">
        <ele>75</ele>
        <time>2018-02-19T10:32:56Z</time>
      </trkpt>
      <trkpt lat="51.662065973505378" lon="0.472563989460468">
        <ele>74.883495507586801</ele>
        <time>2018-02-19T10:32:57Z</time>
      </trkpt>
      <trkpt lat="51.662071002647281" lon="0.472602965310216">
        <ele>74</ele>
        <time>2018-02-19T10:32:58Z</time>
      </trkpt>
      <trkpt lat="51.662077959626913" lon="0.472638001665473">
        <ele>74</ele>
        <time>2018-02-19T10:32:59Z</time>
      </trkpt>
      <trkpt lat="51.662081982940435" lon="0.47267597168684">
        <ele>74</ele>
        <time>2018-02-19T10:33:00Z</time>
      </trkpt>
      <trkpt lat="51.662083994597197" lon="0.472711008042097">
        <ele>74</ele>
        <time>2018-02-19T10:33:01Z</time>
      </trkpt>
      <trkpt lat="51.662080977112055" lon="0.472748978063464">
        <ele>74</ele>
        <time>2018-02-19T10:33:02Z</time>
      </trkpt>
      <trkpt lat="51.662077959626913" lon="0.472787031903863">
        <ele>73.991528089643893</ele>
        <time>2018-02-19T10:33:03Z</time>
      </trkpt>
      <trkpt lat="51.662078965455294" lon="0.472823996096849">
        <ele>73.144065866119902</ele>
        <time>2018-02-19T10:33:04Z</time>
      </trkpt>
      <trkpt lat="51.662077959626913" lon="0.472863977774978">
        <ele>73</ele>
        <time>2018-02-19T10:33:05Z</time>
      </trkpt>
      <trkpt lat="51.662079971283674" lon="0.472900019958615">
        <ele>73.0833333333333</ele>
        <time>2018-02-19T10:33:06Z</time>
      </trkpt>
      <trkpt lat="51.662082988768816" lon="0.472938995808363">
        <ele>74</ele>
        <time>2018-02-19T10:33:07Z</time>
      </trkpt>
      <trkpt lat="51.662077959626913" lon="0.472973026335239">
        <ele>74</ele>
        <time>2018-02-19T10:33:08Z</time>
      </trkpt>
      <trkpt lat="51.662079971283674" lon="0.473004961386323">
        <ele>74</ele>
        <time>2018-02-19T10:33:09Z</time>
      </trkpt>
      <trkpt lat="51.662082988768816" lon="0.473041003569961">
        <ele>74</ele>
        <time>2018-02-19T10:33:10Z</time>
      </trkpt>
      <trkpt lat="51.662083994597197" lon="0.473078973591328">
        <ele>74</ele>
        <time>2018-02-19T10:33:11Z</time>
      </trkpt>
      <trkpt lat="51.6620890237391" lon="0.473114009946585">
        <ele>74</ele>
        <time>2018-02-19T10:33:12Z</time>
      </trkpt>
      <trkpt lat="51.662094974890351" lon="0.4731460288167">
        <ele>74</ele>
        <time>2018-02-19T10:33:13Z</time>
      </trkpt>
      <trkpt lat="51.662100004032254" lon="0.473177963867784">
        <ele>74</ele>
        <time>2018-02-19T10:33:14Z</time>
      </trkpt>
      <trkpt lat="51.662105033174157" lon="0.473215011879802">
        <ele>74</ele>
        <time>2018-02-19T10:33:15Z</time>
      </trkpt>
      <trkpt lat="51.662107966840267" lon="0.473248958587646">
        <ele>74</ele>
        <time>2018-02-19T10:33:16Z</time>
      </trkpt>
      <trkpt lat="51.66211199015379" lon="0.473279971629381">
        <ele>74</ele>
        <time>2018-02-19T10:33:17Z</time>
      </trkpt>
      <trkpt lat="51.662118025124073" lon="0.473311990499496">
        <ele>74</ele>
        <time>2018-02-19T10:33:18Z</time>
      </trkpt>
      <trkpt lat="51.662124982103705" lon="0.473348032683134">
        <ele>74</ele>
        <time>2018-02-19T10:33:19Z</time>
      </trkpt>
      <trkpt lat="51.662129005417228" lon="0.473382985219359">
        <ele>73.879999999999995</ele>
        <time>2018-02-19T10:33:20Z</time>
      </trkpt>
      <trkpt lat="51.662136968225241" lon="0.473416009917855">
        <ele>73</ele>
        <time>2018-02-19T10:33:21Z</time>
      </trkpt>
      <trkpt lat="51.662144009023905" lon="0.47344702295959">
        <ele>73</ele>
        <time>2018-02-19T10:33:22Z</time>
      </trkpt>
      <trkpt lat="51.662152977660298" lon="0.473481975495815">
        <ele>73</ele>
        <time>2018-02-19T10:33:23Z</time>
      </trkpt>
      <trkpt lat="51.662162030115724" lon="0.473515000194311">
        <ele>73</ele>
        <time>2018-02-19T10:33:24Z</time>
      </trkpt>
      <trkpt lat="51.662168987095356" lon="0.473547019064426">
        <ele>73</ele>
        <time>2018-02-19T10:33:25Z</time>
      </trkpt>
      <trkpt lat="51.66217602789402" lon="0.473578032106161">
        <ele>73</ele>
        <time>2018-02-19T10:33:26Z</time>
      </trkpt>
      <trkpt lat="51.662181979045272" lon="0.473605021834373">
        <ele>73</ele>
        <time>2018-02-19T10:33:27Z</time>
      </trkpt>
      <trkpt lat="51.662184996530414" lon="0.473669981583953">
        <ele>73</ele>
        <time>2018-02-19T10:33:29Z</time>
      </trkpt>
      <trkpt lat="51.662191031500697" lon="0.473710969090462">
        <ele>73</ele>
        <time>2018-02-19T10:33:30Z</time>
      </trkpt>
      <trkpt lat="51.66219899430871" lon="0.473754974082112">
        <ele>73</ele>
        <time>2018-02-19T10:33:31Z</time>
      </trkpt>
      <trkpt lat="51.662207040935755" lon="0.473793027922511">
        <ele>73</ele>
        <time>2018-02-19T10:33:32Z</time>
      </trkpt>
      <trkpt lat="51.662218021228909" lon="0.473826974630356">
        <ele>73</ele>
        <time>2018-02-19T10:33:33Z</time>
      </trkpt>
      <trkpt lat="51.662229001522064" lon="0.473863016813993">
        <ele>73</ele>
        <time>2018-02-19T10:33:34Z</time>
      </trkpt>
      <trkpt lat="51.662238975986838" lon="0.473898975178599">
        <ele>73</ele>
        <time>2018-02-19T10:33:35Z</time>
      </trkpt>
      <trkpt lat="51.662246016785502" lon="0.473938034847379">
        <ele>73</ele>
        <time>2018-02-19T10:33:36Z</time>
      </trkpt>
      <trkpt lat="51.662255991250277" lon="0.473977010697126">
        <ele>73</ele>
        <time>2018-02-19T10:33:37Z</time>
      </trkpt>
      <trkpt lat="51.662266971543431" lon="0.474017998203635">
        <ele>73</ele>
        <time>2018-02-19T10:33:38Z</time>
      </trkpt>
      <trkpt lat="51.662277029827237" lon="0.474053034558892">
        <ele>72.879999999999995</ele>
        <time>2018-02-19T10:33:39Z</time>
      </trkpt>
      <trkpt lat="51.662289015948772" lon="0.474085975438356">
        <ele>72</ele>
        <time>2018-02-19T10:33:40Z</time>
      </trkpt>
      <trkpt lat="51.662298990413547" lon="0.474124029278755">
        <ele>72</ele>
        <time>2018-02-19T10:33:41Z</time>
      </trkpt>
      <trkpt lat="51.66230795904994" lon="0.474163005128503">
        <ele>72</ele>
        <time>2018-02-19T10:33:42Z</time>
      </trkpt>
      <trkpt lat="51.662314999848604" lon="0.47419804148376">
        <ele>72</ele>
        <time>2018-02-19T10:33:43Z</time>
      </trkpt>
      <trkpt lat="51.662323968484998" lon="0.474226037040353">
        <ele>72</ele>
        <time>2018-02-19T10:33:44Z</time>
      </trkpt>
      <trkpt lat="51.662334026768804" lon="0.474255960434675">
        <ele>72</ele>
        <time>2018-02-19T10:33:45Z</time>
      </trkpt>
      <trkpt lat="51.662344001233578" lon="0.474289990961552">
        <ele>72</ele>
        <time>2018-02-19T10:33:46Z</time>
      </trkpt>
      <trkpt lat="51.662352969869971" lon="0.474328966811299">
        <ele>72</ele>
        <time>2018-02-19T10:33:47Z</time>
      </trkpt>
      <trkpt lat="51.662363028153777" lon="0.474366014823318">
        <ele>72</ele>
        <time>2018-02-19T10:33:48Z</time>
      </trkpt>
      <trkpt lat="51.662374008446932" lon="0.474401973187923">
        <ele>72</ele>
        <time>2018-02-19T10:33:49Z</time>
      </trkpt>
      <trkpt lat="51.662383982911706" lon="0.47443700954318">
        <ele>72</ele>
        <time>2018-02-19T10:33:50Z</time>
      </trkpt>
      <trkpt lat="51.662394041195512" lon="0.474473973736167">
        <ele>72</ele>
        <time>2018-02-19T10:33:51Z</time>
      </trkpt>
      <trkpt lat="51.662404015660286" lon="0.474514039233327">
        <ele>72</ele>
        <time>2018-02-19T10:33:52Z</time>
      </trkpt>
      <trkpt lat="51.662412984296679" lon="0.474549997597933">
        <ele>72</ele>
        <time>2018-02-19T10:33:53Z</time>
      </trkpt>
      <trkpt lat="51.662422958761454" lon="0.474582016468048">
        <ele>71.879999999999995</ele>
        <time>2018-02-19T10:33:54Z</time>
      </trkpt>
      <trkpt lat="51.662432011216879" lon="0.474614035338163">
        <ele>71</ele>
        <time>2018-02-19T10:33:55Z</time>
      </trkpt>
      <trkpt lat="51.662440979853272" lon="0.474646976217628">
        <ele>71</ele>
        <time>2018-02-19T10:33:56Z</time>
      </trkpt>
      <trkpt lat="51.662450032308698" lon="0.474685030058026">
        <ele>71</ele>
        <time>2018-02-19T10:33:57Z</time>
      </trkpt>
      <trkpt lat="51.662457995116711" lon="0.47471797093749">
        <ele>71</ele>
        <time>2018-02-19T10:33:58Z</time>
      </trkpt>
      <trkpt lat="51.662466041743755" lon="0.474749989807606">
        <ele>71</ele>
        <time>2018-02-19T10:33:59Z</time>
      </trkpt>
      <trkpt lat="51.662472998723388" lon="0.474778991192579">
        <ele>71</ele>
        <time>2018-02-19T10:34:00Z</time>
      </trkpt>
      <trkpt lat="51.662480961531401" lon="0.474810004234314">
        <ele>71</ele>
        <time>2018-02-19T10:34:01Z</time>
      </trkpt>
      <trkpt lat="51.662484984844923" lon="0.474845040589571">
        <ele>71</ele>
        <time>2018-02-19T10:34:02Z</time>
      </trkpt>
      <trkpt lat="51.662497976794839" lon="0.474873958155513">
        <ele>71</ele>
        <time>2018-02-19T10:34:03Z</time>
      </trkpt>
      <trkpt lat="51.662511974573135" lon="0.474902037531137">
        <ele>71</ele>
        <time>2018-02-19T10:34:04Z</time>
      </trkpt>
      <trkpt lat="51.662523960694671" lon="0.474931038916111">
        <ele>71</ele>
        <time>2018-02-19T10:34:05Z</time>
      </trkpt>
      <trkpt lat="51.662537958472967" lon="0.474961968138814">
        <ele>71</ele>
        <time>2018-02-19T10:34:06Z</time>
      </trkpt>
      <trkpt lat="51.662550028413534" lon="0.474993987008929">
        <ele>71</ele>
        <time>2018-02-19T10:34:07Z</time>
      </trkpt>
      <trkpt lat="51.662561008706689" lon="0.475028017535806">
        <ele>71</ele>
        <time>2018-02-19T10:34:08Z</time>
      </trkpt>
      <trkpt lat="51.662571988999844" lon="0.47506095841527">
        <ele>71</ele>
        <time>2018-02-19T10:34:09Z</time>
      </trkpt>
      <trkpt lat="51.662581041455269" lon="0.475091971457005">
        <ele>71</ele>
        <time>2018-02-19T10:34:10Z</time>
      </trkpt>
      <trkpt lat="51.662592021748424" lon="0.475122984498739">
        <ele>71</ele>
        <time>2018-02-19T10:34:11Z</time>
      </trkpt>
      <trkpt lat="51.662603002041578" lon="0.475155003368855">
        <ele>71</ele>
        <time>2018-02-19T10:34:12Z</time>
      </trkpt>
      <trkpt lat="51.662614988163114" lon="0.475186016410589">
        <ele>71</ele>
        <time>2018-02-19T10:34:13Z</time>
      </trkpt>
      <trkpt lat="51.662626974284649" lon="0.475218035280705">
        <ele>70.977784730913598</ele>
        <time>2018-02-19T10:34:14Z</time>
      </trkpt>
      <trkpt lat="51.662639966234565" lon="0.475250976160169">
        <ele>70</ele>
        <time>2018-02-19T10:34:15Z</time>
      </trkpt>
      <trkpt lat="51.662650024518371" lon="0.475279977545142">
        <ele>70</ele>
        <time>2018-02-19T10:34:16Z</time>
      </trkpt>
      <trkpt lat="51.662657987326384" lon="0.475308978930116">
        <ele>70</ele>
        <time>2018-02-19T10:34:17Z</time>
      </trkpt>
      <trkpt lat="51.662654969841242" lon="0.475365975871682">
        <ele>70</ele>
        <time>2018-02-19T10:34:19Z</time>
      </trkpt>
      <trkpt lat="51.662655975669622" lon="0.475395983085036">
        <ele>70</ele>
        <time>2018-02-19T10:34:20Z</time>
      </trkpt>
      <trkpt lat="51.662654969841242" lon="0.475431019440293">
        <ele>70</ele>
        <time>2018-02-19T10:34:21Z</time>
      </trkpt>
      <trkpt lat="51.662654969841242" lon="0.475469995290041">
        <ele>69.882352202994198</ele>
        <time>2018-02-19T10:34:22Z</time>
      </trkpt>
      <trkpt lat="51.662652036175132" lon="0.475519029423594">
        <ele>69</ele>
        <time>2018-02-19T10:34:23Z</time>
      </trkpt>
      <trkpt lat="51.662655975669622" lon="0.475560016930103">
        <ele>69</ele>
        <time>2018-02-19T10:34:24Z</time>
      </trkpt>
      <trkpt lat="51.662667961791158" lon="0.475615002214909">
        <ele>69</ele>
        <time>2018-02-19T10:34:25Z</time>
      </trkpt>
      <trkpt lat="51.662669973447919" lon="0.47566001303494">
        <ele>69</ele>
        <time>2018-02-19T10:34:26Z</time>
      </trkpt>
      <trkpt lat="51.662673996761441" lon="0.475697983056307">
        <ele>68.914285714285697</ele>
        <time>2018-02-19T10:34:27Z</time>
      </trkpt>
      <trkpt lat="51.662681959569454" lon="0.475742993876338">
        <ele>68.200000000000003</ele>
        <time>2018-02-19T10:34:28Z</time>
      </trkpt>
      <trkpt lat="51.662681037560105" lon="0.47579001635313">
        <ele>68</ele>
        <time>2018-02-19T10:34:29Z</time>
      </trkpt>
      <trkpt lat="51.662680031731725" lon="0.475828992202878">
        <ele>68</ele>
        <time>2018-02-19T10:34:30Z</time>
      </trkpt>
      <trkpt lat="51.662682965397835" lon="0.475863022729754">
        <ele>68</ele>
        <time>2018-02-19T10:34:31Z</time>
      </trkpt>
      <trkpt lat="51.662687994539738" lon="0.475905016064644">
        <ele>68.120000000000005</ele>
        <time>2018-02-19T10:34:32Z</time>
      </trkpt>
      <trkpt lat="51.662695035338402" lon="0.475950026884675">
        <ele>69</ele>
        <time>2018-02-19T10:34:33Z</time>
      </trkpt>
      <trkpt lat="51.662697969004512" lon="0.475991014391184">
        <ele>69</ele>
        <time>2018-02-19T10:34:34Z</time>
      </trkpt>
      <trkpt lat="51.662700986489654" lon="0.47602697275579">
        <ele>69</ele>
        <time>2018-02-19T10:34:35Z</time>
      </trkpt>
      <trkpt lat="51.662697969004512" lon="0.476066032424569">
        <ele>69</ele>
        <time>2018-02-19T10:34:36Z</time>
      </trkpt>
      <trkpt lat="51.662698974832892" lon="0.476100984960794">
        <ele>68.9263126692626</ele>
        <time>2018-02-19T10:34:37Z</time>
      </trkpt>
      <trkpt lat="51.662702998146415" lon="0.476140966638923">
        <ele>68</ele>
        <time>2018-02-19T10:34:38Z</time>
      </trkpt>
      <trkpt lat="51.662704003974795" lon="0.47617700882256">
        <ele>68</ele>
        <time>2018-02-19T10:34:39Z</time>
      </trkpt>
      <trkpt lat="51.662707021459937" lon="0.476212967187166">
        <ele>68</ele>
        <time>2018-02-19T10:34:40Z</time>
      </trkpt>
      <trkpt lat="51.662710960954428" lon="0.476250015199184">
        <ele>68</ele>
        <time>2018-02-19T10:34:41Z</time>
      </trkpt>
      <trkpt lat="51.662715990096331" lon="0.476291002705693">
        <ele>68</ele>
        <time>2018-02-19T10:34:42Z</time>
      </trkpt>
      <trkpt lat="51.662724036723375" lon="0.47632603906095">
        <ele>68</ele>
        <time>2018-02-19T10:34:43Z</time>
      </trkpt>
      <trkpt lat="51.662730993703008" lon="0.476360991597176">
        <ele>68</ele>
        <time>2018-02-19T10:34:44Z</time>
      </trkpt>
      <trkpt lat="51.662739040330052" lon="0.476398961618543">
        <ele>68</ele>
        <time>2018-02-19T10:34:45Z</time>
      </trkpt>
      <trkpt lat="51.662745997309685" lon="0.476436009630561">
        <ele>68</ele>
        <time>2018-02-19T10:34:46Z</time>
      </trkpt>
      <trkpt lat="51.662756977602839" lon="0.476469034329057">
        <ele>68</ele>
        <time>2018-02-19T10:34:47Z</time>
      </trkpt>
      <trkpt lat="51.662767035886645" lon="0.476501975208521">
        <ele>68</ele>
        <time>2018-02-19T10:34:48Z</time>
      </trkpt>
      <trkpt lat="51.662776004523039" lon="0.47654002904892">
        <ele>68</ele>
        <time>2018-02-19T10:34:49Z</time>
      </trkpt>
      <trkpt lat="51.662782961502671" lon="0.476577999070287">
        <ele>68</ele>
        <time>2018-02-19T10:34:50Z</time>
      </trkpt>
      <trkpt lat="51.662787990644574" lon="0.476616974920034">
        <ele>68</ele>
        <time>2018-02-19T10:34:51Z</time>
      </trkpt>
      <trkpt lat="51.662794025614858" lon="0.476659974083304">
        <ele>68</ele>
        <time>2018-02-19T10:34:52Z</time>
      </trkpt>
      <trkpt lat="51.662793019786477" lon="0.476701967418194">
        <ele>68</ele>
        <time>2018-02-19T10:34:53Z</time>
      </trkpt>
      <trkpt lat="51.662796959280968" lon="0.476744966581464">
        <ele>68</ele>
        <time>2018-02-19T10:34:54Z</time>
      </trkpt>
      <trkpt lat="51.662802994251251" lon="0.476785032078624">
        <ele>68</ele>
        <time>2018-02-19T10:34:55Z</time>
      </trkpt>
      <trkpt lat="51.662811962887645" lon="0.476816967129707">
        <ele>68</ele>
        <time>2018-02-19T10:34:56Z</time>
      </trkpt>
      <trkpt lat="51.662822021171451" lon="0.476848985999823">
        <ele>68</ele>
        <time>2018-02-19T10:34:57Z</time>
      </trkpt>
      <trkpt lat="51.662826966494322" lon="0.476878993213177">
        <ele>68</ele>
        <time>2018-02-19T10:34:58Z</time>
      </trkpt>
      <trkpt lat="51.662829983979464" lon="0.476921992376447">
        <ele>68</ele>
        <time>2018-02-19T10:35:00Z</time>
      </trkpt>
      <trkpt lat="51.662834007292986" lon="0.476965997368097">
        <ele>68</ele>
        <time>2018-02-19T10:35:02Z</time>
      </trkpt>
      <trkpt lat="51.662849010899663" lon="0.477011008188128">
        <ele>68</ele>
        <time>2018-02-19T10:35:04Z</time>
      </trkpt>
      <trkpt lat="51.662868037819862" lon="0.477061970159411">
        <ele>68</ele>
        <time>2018-02-19T10:35:06Z</time>
      </trkpt>
      <trkpt lat="51.662879018113017" lon="0.477087032049894">
        <ele>67.879999999999995</ele>
        <time>2018-02-19T10:35:07Z</time>
      </trkpt>
      <trkpt lat="51.662892010062933" lon="0.477131959050894">
        <ele>67</ele>
        <time>2018-02-19T10:35:09Z</time>
      </trkpt>
      <trkpt lat="51.662892010062933" lon="0.477177975699306">
        <ele>67</ele>
        <time>2018-02-19T10:35:11Z</time>
      </trkpt>
      <trkpt lat="51.662896033376455" lon="0.477221980690956">
        <ele>67</ele>
        <time>2018-02-19T10:35:13Z</time>
      </trkpt>
      <trkpt lat="51.662897039204836" lon="0.477258022874594">
        <ele>67</ele>
        <time>2018-02-19T10:35:15Z</time>
      </trkpt>
      <trkpt lat="51.662897039204836" lon="0.477296998724341">
        <ele>67</ele>
        <time>2018-02-19T10:35:17Z</time>
      </trkpt>
      <trkpt lat="51.662899972870946" lon="0.477329017594457">
        <ele>67</ele>
        <time>2018-02-19T10:35:19Z</time>
      </trkpt>
      <trkpt lat="51.662897039204836" lon="0.477376040071249">
        <ele>68</ele>
        <time>2018-02-19T10:35:21Z</time>
      </trkpt>
      <trkpt lat="51.662893015891314" lon="0.477405041456223">
        <ele>68</ele>
        <time>2018-02-19T10:35:22Z</time>
      </trkpt>
      <trkpt lat="51.662897961214185" lon="0.477454997599125">
        <ele>68</ele>
        <time>2018-02-19T10:35:24Z</time>
      </trkpt>
      <trkpt lat="51.662911958992481" lon="0.477510988712311">
        <ele>68</ele>
        <time>2018-02-19T10:35:26Z</time>
      </trkpt>
      <trkpt lat="51.662920005619526" lon="0.477544013410807">
        <ele>68</ele>
        <time>2018-02-19T10:35:27Z</time>
      </trkpt>
      <trkpt lat="51.662926040589809" lon="0.477579971775413">
        <ele>68</ele>
        <time>2018-02-19T10:35:28Z</time>
      </trkpt>
      <trkpt lat="51.662925034761429" lon="0.477622970938683">
        <ele>68</ele>
        <time>2018-02-19T10:35:29Z</time>
      </trkpt>
      <trkpt lat="51.662916988134384" lon="0.477668987587094">
        <ele>68</ele>
        <time>2018-02-19T10:35:30Z</time>
      </trkpt>
      <trkpt lat="51.662908019497991" lon="0.477713998407125">
        <ele>68</ele>
        <time>2018-02-19T10:35:31Z</time>
      </trkpt>
      <trkpt lat="51.662899972870946" lon="0.477751968428493">
        <ele>68</ele>
        <time>2018-02-19T10:35:32Z</time>
      </trkpt>
      <trkpt lat="51.662894021719694" lon="0.477784993126988">
        <ele>68</ele>
        <time>2018-02-19T10:35:33Z</time>
      </trkpt>
      <trkpt lat="51.662898967042565" lon="0.477817011997104">
        <ele>68</ele>
        <time>2018-02-19T10:35:34Z</time>
      </trkpt>
      <trkpt lat="51.662897961214185" lon="0.477848025038838">
        <ele>68</ele>
        <time>2018-02-19T10:35:35Z</time>
      </trkpt>
      <trkpt lat="51.662900978699327" lon="0.477878032252193">
        <ele>68</ele>
        <time>2018-02-19T10:35:36Z</time>
      </trkpt>
      <trkpt lat="51.662903996184468" lon="0.477922959253192">
        <ele>68</ele>
        <time>2018-02-19T10:35:38Z</time>
      </trkpt>
      <trkpt lat="51.662906007841229" lon="0.477956989780068">
        <ele>68</ele>
        <time>2018-02-19T10:35:40Z</time>
      </trkpt>
      <trkpt lat="51.662913970649242" lon="0.478006023913622">
        <ele>68</ele>
        <time>2018-02-19T10:35:43Z</time>
      </trkpt>
      <trkpt lat="51.662917993962765" lon="0.478037036955357">
        <ele>68</ele>
        <time>2018-02-19T10:35:44Z</time>
      </trkpt>
      <trkpt lat="51.662917993962765" lon="0.478070983663201">
        <ele>68</ele>
        <time>2018-02-19T10:35:45Z</time>
      </trkpt>
      <trkpt lat="51.662914976477623" lon="0.478107025846839">
        <ele>68</ele>
        <time>2018-02-19T10:35:46Z</time>
      </trkpt>
      <trkpt lat="51.662910031154752" lon="0.478150025010109">
        <ele>68</ele>
        <time>2018-02-19T10:35:47Z</time>
      </trkpt>
      <trkpt lat="51.662903996184468" lon="0.478193024173379">
        <ele>68</ele>
        <time>2018-02-19T10:35:48Z</time>
      </trkpt>
      <trkpt lat="51.662898967042565" lon="0.478234011679888">
        <ele>68.120000000000005</ele>
        <time>2018-02-19T10:35:49Z</time>
      </trkpt>
      <trkpt lat="51.662895027548075" lon="0.478278016671538">
        <ele>69</ele>
        <time>2018-02-19T10:35:50Z</time>
      </trkpt>
      <trkpt lat="51.662887986749411" lon="0.47832403331995">
        <ele>69</ele>
        <time>2018-02-19T10:35:51Z</time>
      </trkpt>
      <trkpt lat="51.662880023941398" lon="0.478364014998078">
        <ele>69</ele>
        <time>2018-02-19T10:35:52Z</time>
      </trkpt>
      <trkpt lat="51.662874994799495" lon="0.478399973362684">
        <ele>69</ele>
        <time>2018-02-19T10:35:53Z</time>
      </trkpt>
      <trkpt lat="51.662869965657592" lon="0.47843299806118">
        <ele>69</ele>
        <time>2018-02-19T10:35:54Z</time>
      </trkpt>
      <trkpt lat="51.662859991192818" lon="0.478469962254167">
        <ele>69</ele>
        <time>2018-02-19T10:35:55Z</time>
      </trkpt>
      <trkpt lat="51.662850016728044" lon="0.478506004437804">
        <ele>69</ele>
        <time>2018-02-19T10:35:56Z</time>
      </trkpt>
      <trkpt lat="51.662846999242902" lon="0.478542968630791">
        <ele>69</ele>
        <time>2018-02-19T10:35:57Z</time>
      </trkpt>
      <trkpt lat="51.662839036434889" lon="0.478576999157667">
        <ele>69</ele>
        <time>2018-02-19T10:35:58Z</time>
      </trkpt>
      <trkpt lat="51.662829983979464" lon="0.478609018027782">
        <ele>69</ele>
        <time>2018-02-19T10:35:59Z</time>
      </trkpt>
      <trkpt lat="51.662816992029548" lon="0.478641036897898">
        <ele>69</ele>
        <time>2018-02-19T10:36:00Z</time>
      </trkpt>
      <trkpt lat="51.662809029221535" lon="0.478674983605742">
        <ele>69</ele>
        <time>2018-02-19T10:36:01Z</time>
      </trkpt>
      <trkpt lat="51.662796037271619" lon="0.478707002475858">
        <ele>69</ele>
        <time>2018-02-19T10:36:02Z</time>
      </trkpt>
      <trkpt lat="51.662786984816194" lon="0.478738015517592">
        <ele>69</ele>
        <time>2018-02-19T10:36:03Z</time>
      </trkpt>
      <trkpt lat="51.662779022008181" lon="0.478770034387708">
        <ele>69</ele>
        <time>2018-02-19T10:36:04Z</time>
      </trkpt>
      <trkpt lat="51.662769969552755" lon="0.478804986923933">
        <ele>69</ele>
        <time>2018-02-19T10:36:05Z</time>
      </trkpt>
      <trkpt lat="51.662758989259601" lon="0.478838011622429">
        <ele>69</ele>
        <time>2018-02-19T10:36:06Z</time>
      </trkpt>
      <trkpt lat="51.662749014794827" lon="0.478871958330274">
        <ele>69</ele>
        <time>2018-02-19T10:36:07Z</time>
      </trkpt>
      <trkpt lat="51.662743985652924" lon="0.478906994685531">
        <ele>69</ele>
        <time>2018-02-19T10:36:08Z</time>
      </trkpt>
      <trkpt lat="51.662737028673291" lon="0.478943036869168">
        <ele>69</ele>
        <time>2018-02-19T10:36:09Z</time>
      </trkpt>
      <trkpt lat="51.662729987874627" lon="0.478983018547297">
        <ele>69</ele>
        <time>2018-02-19T10:36:10Z</time>
      </trkpt>
      <trkpt lat="51.662719007581472" lon="0.479024006053805">
        <ele>69</ele>
        <time>2018-02-19T10:36:11Z</time>
      </trkpt>
      <trkpt lat="51.662708027288318" lon="0.479063987731934">
        <ele>68.879999999999995</ele>
        <time>2018-02-19T10:36:12Z</time>
      </trkpt>
      <trkpt lat="51.662698974832892" lon="0.479103969410062">
        <ele>68</ele>
        <time>2018-02-19T10:36:13Z</time>
      </trkpt>
      <trkpt lat="51.662696041166782" lon="0.479142023250461">
        <ele>68</ele>
        <time>2018-02-19T10:36:14Z</time>
      </trkpt>
      <trkpt lat="51.662693023681641" lon="0.479179993271828">
        <ele>68</ele>
        <time>2018-02-19T10:36:15Z</time>
      </trkpt>
      <trkpt lat="51.662690006196499" lon="0.479217963293195">
        <ele>68</ele>
        <time>2018-02-19T10:36:16Z</time>
      </trkpt>
      <trkpt lat="51.662689000368118" lon="0.479259034618735">
        <ele>68</ele>
        <time>2018-02-19T10:36:17Z</time>
      </trkpt>
      <trkpt lat="51.662684977054596" lon="0.479297004640102">
        <ele>68</ele>
        <time>2018-02-19T10:36:18Z</time>
      </trkpt>
      <trkpt lat="51.662682965397835" lon="0.479333968833089">
        <ele>68</ele>
        <time>2018-02-19T10:36:19Z</time>
      </trkpt>
      <trkpt lat="51.662676008418202" lon="0.479371016845107">
        <ele>68</ele>
        <time>2018-02-19T10:36:20Z</time>
      </trkpt>
      <trkpt lat="51.66267198510468" lon="0.479408986866474">
        <ele>68</ele>
        <time>2018-02-19T10:36:21Z</time>
      </trkpt>
      <trkpt lat="51.662667961791158" lon="0.479449974372983">
        <ele>68</ele>
        <time>2018-02-19T10:36:22Z</time>
      </trkpt>
      <trkpt lat="51.662665028125048" lon="0.479490961879492">
        <ele>68</ele>
        <time>2018-02-19T10:36:23Z</time>
      </trkpt>
      <trkpt lat="51.662658993154764" lon="0.479532033205032">
        <ele>68</ele>
        <time>2018-02-19T10:36:24Z</time>
      </trkpt>
      <trkpt lat="51.662653964012861" lon="0.47957100905478">
        <ele>68</ele>
        <time>2018-02-19T10:36:25Z</time>
      </trkpt>
      <trkpt lat="51.662653964012861" lon="0.479609984904528">
        <ele>67.9263126692626</ele>
        <time>2018-02-19T10:36:26Z</time>
      </trkpt>
      <trkpt lat="51.662653964012861" lon="0.479647032916546">
        <ele>67</ele>
        <time>2018-02-19T10:36:27Z</time>
      </trkpt>
      <trkpt lat="51.662652958184481" lon="0.479680979624391">
        <ele>67</ele>
        <time>2018-02-19T10:36:28Z</time>
      </trkpt>
      <trkpt lat="51.662651030346751" lon="0.479719033464789">
        <ele>67</ele>
        <time>2018-02-19T10:36:29Z</time>
      </trkpt>
      <trkpt lat="51.662651030346751" lon="0.479753986001015">
        <ele>67</ele>
        <time>2018-02-19T10:36:30Z</time>
      </trkpt>
      <trkpt lat="51.662653964012861" lon="0.479794973507524">
        <ele>67</ele>
        <time>2018-02-19T10:36:31Z</time>
      </trkpt>
      <trkpt lat="51.662653964012861" lon="0.479835039004683">
        <ele>67</ele>
        <time>2018-02-19T10:36:32Z</time>
      </trkpt>
      <trkpt lat="51.662652958184481" lon="0.479869991540909">
        <ele>67</ele>
        <time>2018-02-19T10:36:33Z</time>
      </trkpt>
      <trkpt lat="51.662652036175132" lon="0.479906033724546">
        <ele>67</ele>
        <time>2018-02-19T10:36:34Z</time>
      </trkpt>
      <trkpt lat="51.662651030346751" lon="0.479944003745914">
        <ele>66.879999999999995</ele>
        <time>2018-02-19T10:36:35Z</time>
      </trkpt>
      <trkpt lat="51.662651030346751" lon="0.4799809679389">
        <ele>66</ele>
        <time>2018-02-19T10:36:36Z</time>
      </trkpt>
      <trkpt lat="51.662652036175132" lon="0.480017010122538">
        <ele>66</ele>
        <time>2018-02-19T10:36:37Z</time>
      </trkpt>
      <trkpt lat="51.662654969841242" lon="0.480051040649414">
        <ele>66</ele>
        <time>2018-02-19T10:36:38Z</time>
      </trkpt>
      <trkpt lat="51.662654969841242" lon="0.480089010670781">
        <ele>66</ele>
        <time>2018-02-19T10:36:39Z</time>
      </trkpt>
      <trkpt lat="51.662656981498003" lon="0.480125974863768">
        <ele>66</ele>
        <time>2018-02-19T10:36:40Z</time>
      </trkpt>
      <trkpt lat="51.662656981498003" lon="0.480166040360928">
        <ele>66</ele>
        <time>2018-02-19T10:36:41Z</time>
      </trkpt>
      <trkpt lat="51.662658993154764" lon="0.480205016210675">
        <ele>65.879999999999995</ele>
        <time>2018-02-19T10:36:42Z</time>
      </trkpt>
      <trkpt lat="51.662656981498003" lon="0.480242986232042">
        <ele>65</ele>
        <time>2018-02-19T10:36:43Z</time>
      </trkpt>
      <trkpt lat="51.662655975669622" lon="0.48028196208179">
        <ele>65</ele>
        <time>2018-02-19T10:36:44Z</time>
      </trkpt>
      <trkpt lat="51.662651030346751" lon="0.480315992608666">
        <ele>65</ele>
        <time>2018-02-19T10:36:45Z</time>
      </trkpt>
      <trkpt lat="51.662646001204848" lon="0.480348011478782">
        <ele>65</ele>
        <time>2018-02-19T10:36:46Z</time>
      </trkpt>
      <trkpt lat="51.662638960406184" lon="0.480377012863755">
        <ele>65</ele>
        <time>2018-02-19T10:36:47Z</time>
      </trkpt>
      <trkpt lat="51.66262898594141" lon="0.480404002591968">
        <ele>65</ele>
        <time>2018-02-19T10:36:48Z</time>
      </trkpt>
      <trkpt lat="51.662623034790158" lon="0.480436021462083">
        <ele>64.879999999999995</ele>
        <time>2018-02-19T10:36:49Z</time>
      </trkpt>
      <trkpt lat="51.662620017305017" lon="0.48047399148345">
        <ele>64</ele>
        <time>2018-02-19T10:36:50Z</time>
      </trkpt>
      <trkpt lat="51.662615993991494" lon="0.480509027838707">
        <ele>64</ele>
        <time>2018-02-19T10:36:51Z</time>
      </trkpt>
      <trkpt lat="51.662610964849591" lon="0.480538029223681">
        <ele>64</ele>
        <time>2018-02-19T10:36:52Z</time>
      </trkpt>
      <trkpt lat="51.662612976506352" lon="0.480570970103145">
        <ele>64</ele>
        <time>2018-02-19T10:36:53Z</time>
      </trkpt>
      <trkpt lat="51.662611970677972" lon="0.480603994801641">
        <ele>64</ele>
        <time>2018-02-19T10:36:54Z</time>
      </trkpt>
      <trkpt lat="51.662609037011862" lon="0.480640958994627">
        <ele>64</ele>
        <time>2018-02-19T10:36:55Z</time>
      </trkpt>
      <trkpt lat="51.662604007869959" lon="0.480673983693123">
        <ele>64</ele>
        <time>2018-02-19T10:36:56Z</time>
      </trkpt>
      <trkpt lat="51.662598978728056" lon="0.480708014219999">
        <ele>64</ele>
        <time>2018-02-19T10:36:57Z</time>
      </trkpt>
      <trkpt lat="51.662591015920043" lon="0.480741960927844">
        <ele>64</ele>
        <time>2018-02-19T10:36:58Z</time>
      </trkpt>
      <trkpt lat="51.662583975121379" lon="0.480775991454721">
        <ele>63.894736251150903</ele>
        <time>2018-02-19T10:36:59Z</time>
      </trkpt>
      <trkpt lat="51.662578023970127" lon="0.480810021981597">
        <ele>63.0175383440749</ele>
        <time>2018-02-19T10:37:00Z</time>
      </trkpt>
      <trkpt lat="51.662574000656605" lon="0.48083801753819">
        <ele>63</ele>
        <time>2018-02-19T10:37:01Z</time>
      </trkpt>
      <trkpt lat="51.662569977343082" lon="0.480885040014982">
        <ele>63</ele>
        <time>2018-02-19T10:37:03Z</time>
      </trkpt>
      <trkpt lat="51.662555979564786" lon="0.480931978672743">
        <ele>63</ele>
        <time>2018-02-19T10:37:05Z</time>
      </trkpt>
      <trkpt lat="51.662544999271631" lon="0.480963997542858">
        <ele>63</ele>
        <time>2018-02-19T10:37:06Z</time>
      </trkpt>
      <trkpt lat="51.662535024806857" lon="0.480998028069735">
        <ele>63</ele>
        <time>2018-02-19T10:37:07Z</time>
      </trkpt>
      <trkpt lat="51.662525972351432" lon="0.481029041111469">
        <ele>63</ele>
        <time>2018-02-19T10:37:08Z</time>
      </trkpt>
      <trkpt lat="51.662515997886658" lon="0.481061981990933">
        <ele>63</ele>
        <time>2018-02-19T10:37:09Z</time>
      </trkpt>
      <trkpt lat="51.662508035078645" lon="0.481090983375907">
        <ele>63</ele>
        <time>2018-02-19T10:37:10Z</time>
      </trkpt>
      <trkpt lat="51.662504011765122" lon="0.481128031387925">
        <ele>63</ele>
        <time>2018-02-19T10:37:11Z</time>
      </trkpt>
      <trkpt lat="51.662504011765122" lon="0.481160972267389">
        <ele>63</ele>
        <time>2018-02-19T10:37:12Z</time>
      </trkpt>
      <trkpt lat="51.662496970966458" lon="0.481193996965885">
        <ele>63</ele>
        <time>2018-02-19T10:37:13Z</time>
      </trkpt>
      <trkpt lat="51.662489008158445" lon="0.481227021664381">
        <ele>63</ele>
        <time>2018-02-19T10:37:14Z</time>
      </trkpt>
      <trkpt lat="51.662482973188162" lon="0.481260968372226">
        <ele>63</ele>
        <time>2018-02-19T10:37:15Z</time>
      </trkpt>
      <trkpt lat="51.66247702203691" lon="0.481296004727483">
        <ele>63</ele>
        <time>2018-02-19T10:37:16Z</time>
      </trkpt>
      <trkpt lat="51.662471992895007" lon="0.481327017769217">
        <ele>63</ele>
        <time>2018-02-19T10:37:17Z</time>
      </trkpt>
      <trkpt lat="51.662466041743755" lon="0.48135501332581">
        <ele>63</ele>
        <time>2018-02-19T10:37:18Z</time>
      </trkpt>
      <trkpt lat="51.662454977631569" lon="0.481388960033655">
        <ele>62.880000000000003</ele>
        <time>2018-02-19T10:37:19Z</time>
      </trkpt>
      <trkpt lat="51.662439974024892" lon="0.481436988338828">
        <ele>62</ele>
        <time>2018-02-19T10:37:20Z</time>
      </trkpt>
      <trkpt lat="51.662426982074976" lon="0.481478981673718">
        <ele>62</ele>
        <time>2018-02-19T10:37:21Z</time>
      </trkpt>
      <trkpt lat="51.662417007610202" lon="0.481518041342497">
        <ele>62</ele>
        <time>2018-02-19T10:37:22Z</time>
      </trkpt>
      <trkpt lat="51.662408038973808" lon="0.481553999707103">
        <ele>62</ele>
        <time>2018-02-19T10:37:23Z</time>
      </trkpt>
      <trkpt lat="51.662398986518383" lon="0.48159004189074">
        <ele>62</ele>
        <time>2018-02-19T10:37:24Z</time>
      </trkpt>
      <trkpt lat="51.662385994568467" lon="0.481626000255346">
        <ele>62</ele>
        <time>2018-02-19T10:37:25Z</time>
      </trkpt>
      <trkpt lat="51.662367973476648" lon="0.481668999418616">
        <ele>62</ele>
        <time>2018-02-19T10:37:26Z</time>
      </trkpt>
      <trkpt lat="51.662355987355113" lon="0.481710992753506">
        <ele>62</ele>
        <time>2018-02-19T10:37:27Z</time>
      </trkpt>
      <trkpt lat="51.662353975698352" lon="0.481744017452002">
        <ele>62</ele>
        <time>2018-02-19T10:37:28Z</time>
      </trkpt>
      <trkpt lat="51.662352969869971" lon="0.481775030493736">
        <ele>62</ele>
        <time>2018-02-19T10:37:29Z</time>
      </trkpt>
      <trkpt lat="51.66235095821321" lon="0.481815012171865">
        <ele>62</ele>
        <time>2018-02-19T10:37:30Z</time>
      </trkpt>
      <trkpt lat="51.662344001233578" lon="0.48185097053647">
        <ele>61</ele>
        <time>2018-02-19T10:37:31Z</time>
      </trkpt>
      <trkpt lat="51.662333020940423" lon="0.48189396969974">
        <ele>61</ele>
        <time>2018-02-19T10:37:32Z</time>
      </trkpt>
      <trkpt lat="51.66232799179852" lon="0.481938980519772">
        <ele>61</ele>
        <time>2018-02-19T10:37:33Z</time>
      </trkpt>
      <trkpt lat="51.662322962656617" lon="0.48197703436017">
        <ele>61</ele>
        <time>2018-02-19T10:37:34Z</time>
      </trkpt>
      <trkpt lat="51.662314999848604" lon="0.482013998553157">
        <ele>61</ele>
        <time>2018-02-19T10:37:35Z</time>
      </trkpt>
      <trkpt lat="51.662309970706701" lon="0.482053980231285">
        <ele>61</ele>
        <time>2018-02-19T10:37:36Z</time>
      </trkpt>
      <trkpt lat="51.66230795904994" lon="0.482093039900064">
        <ele>61</ele>
        <time>2018-02-19T10:37:37Z</time>
      </trkpt>
      <trkpt lat="51.662301002070308" lon="0.482122963294387">
        <ele>61</ele>
        <time>2018-02-19T10:37:38Z</time>
      </trkpt>
      <trkpt lat="51.662297984585166" lon="0.482157999649644">
        <ele>61</ele>
        <time>2018-02-19T10:37:39Z</time>
      </trkpt>
      <trkpt lat="51.662293039262295" lon="0.482194041833282">
        <ele>61</ele>
        <time>2018-02-19T10:37:40Z</time>
      </trkpt>
      <trkpt lat="51.662287004292011" lon="0.482226982712746">
        <ele>61</ele>
        <time>2018-02-19T10:37:41Z</time>
      </trkpt>
      <trkpt lat="51.662280969321728" lon="0.482262019068003">
        <ele>61</ele>
        <time>2018-02-19T10:37:42Z</time>
      </trkpt>
      <trkpt lat="51.662277029827237" lon="0.48229998908937">
        <ele>61</ele>
        <time>2018-02-19T10:37:43Z</time>
      </trkpt>
      <trkpt lat="51.662272000685334" lon="0.482337037101388">
        <ele>61</ele>
        <time>2018-02-19T10:37:44Z</time>
      </trkpt>
      <trkpt lat="51.662267977371812" lon="0.482369977980852">
        <ele>61</ele>
        <time>2018-02-19T10:37:45Z</time>
      </trkpt>
      <trkpt lat="51.662269989028573" lon="0.482405014336109">
        <ele>61</ele>
        <time>2018-02-19T10:37:46Z</time>
      </trkpt>
      <trkpt lat="51.662274012342095" lon="0.482443990185857">
        <ele>60.880000000000003</ele>
        <time>2018-02-19T10:37:47Z</time>
      </trkpt>
      <trkpt lat="51.662272000685334" lon="0.482486989349127">
        <ele>60</ele>
        <time>2018-02-19T10:37:48Z</time>
      </trkpt>
      <trkpt lat="51.662272000685334" lon="0.482524037361145">
        <ele>60</ele>
        <time>2018-02-19T10:37:49Z</time>
      </trkpt>
      <trkpt lat="51.662267977371812" lon="0.482564019039273">
        <ele>60</ele>
        <time>2018-02-19T10:37:50Z</time>
      </trkpt>
      <trkpt lat="51.662272000685334" lon="0.48260098323226">
        <ele>60</ele>
        <time>2018-02-19T10:37:51Z</time>
      </trkpt>
      <trkpt lat="51.662278035655618" lon="0.482636019587517">
        <ele>60</ele>
        <time>2018-02-19T10:37:52Z</time>
      </trkpt>
      <trkpt lat="51.662282980978489" lon="0.482670972123742">
        <ele>60</ele>
        <time>2018-02-19T10:37:53Z</time>
      </trkpt>
      <trkpt lat="51.662289015948772" lon="0.482705002650619">
        <ele>60</ele>
        <time>2018-02-19T10:37:54Z</time>
      </trkpt>
      <trkpt lat="51.662308964878321" lon="0.482775997370481">
        <ele>60</ele>
        <time>2018-02-19T10:37:56Z</time>
      </trkpt>
      <trkpt lat="51.662316005676985" lon="0.482814973220229">
        <ele>60</ele>
        <time>2018-02-19T10:37:57Z</time>
      </trkpt>
      <trkpt lat="51.662319023162127" lon="0.48285897821188">
        <ele>60</ele>
        <time>2018-02-19T10:37:58Z</time>
      </trkpt>
      <trkpt lat="51.662317011505365" lon="0.482900971546769">
        <ele>60</ele>
        <time>2018-02-19T10:37:59Z</time>
      </trkpt>
      <trkpt lat="51.662302007898688" lon="0.482990993186831">
        <ele>61</ele>
        <time>2018-02-19T10:38:01Z</time>
      </trkpt>
      <trkpt lat="51.662295972928405" lon="0.483034998178482">
        <ele>61</ele>
        <time>2018-02-19T10:38:02Z</time>
      </trkpt>
      <trkpt lat="51.662293039262295" lon="0.483077997341752">
        <ele>61</ele>
        <time>2018-02-19T10:38:03Z</time>
      </trkpt>
      <trkpt lat="51.66228499263525" lon="0.483120996505022">
        <ele>61</ele>
        <time>2018-02-19T10:38:04Z</time>
      </trkpt>
      <trkpt lat="51.662279963493347" lon="0.483165001496673">
        <ele>61</ele>
        <time>2018-02-19T10:38:05Z</time>
      </trkpt>
      <trkpt lat="51.662273006513715" lon="0.483208000659943">
        <ele>61.119999999999997</ele>
        <time>2018-02-19T10:38:06Z</time>
      </trkpt>
      <trkpt lat="51.662268983200192" lon="0.483254017308354">
        <ele>62</ele>
        <time>2018-02-19T10:38:07Z</time>
      </trkpt>
      <trkpt lat="51.662266971543431" lon="0.483303973451257">
        <ele>62</ele>
        <time>2018-02-19T10:38:08Z</time>
      </trkpt>
      <trkpt lat="51.662265965715051" lon="0.483350995928049">
        <ele>62</ele>
        <time>2018-02-19T10:38:09Z</time>
      </trkpt>
      <trkpt lat="51.66226202622056" lon="0.483397012576461">
        <ele>62</ele>
        <time>2018-02-19T10:38:10Z</time>
      </trkpt>
      <trkpt lat="51.66226202622056" lon="0.483436994254589">
        <ele>62</ele>
        <time>2018-02-19T10:38:11Z</time>
      </trkpt>
      <trkpt lat="51.662256997078657" lon="0.483474964275956">
        <ele>62</ele>
        <time>2018-02-19T10:38:12Z</time>
      </trkpt>
      <trkpt lat="51.662251967936754" lon="0.483515029773116">
        <ele>62</ele>
        <time>2018-02-19T10:38:13Z</time>
      </trkpt>
      <trkpt lat="51.662248028442264" lon="0.483556017279625">
        <ele>62</ele>
        <time>2018-02-19T10:38:14Z</time>
      </trkpt>
      <trkpt lat="51.662245010957122" lon="0.483593987300992">
        <ele>62</ele>
        <time>2018-02-19T10:38:15Z</time>
      </trkpt>
      <trkpt lat="51.6622409876436" lon="0.483628017827868">
        <ele>62</ele>
        <time>2018-02-19T10:38:16Z</time>
      </trkpt>
      <trkpt lat="51.66224199347198" lon="0.483661964535713">
        <ele>62</ele>
        <time>2018-02-19T10:38:17Z</time>
      </trkpt>
      <trkpt lat="51.662239981815219" lon="0.483692977577448">
        <ele>62</ele>
        <time>2018-02-19T10:38:18Z</time>
      </trkpt>
      <trkpt lat="51.662235958501697" lon="0.483755003660917">
        <ele>62.119999999999997</ele>
        <time>2018-02-19T10:38:20Z</time>
      </trkpt>
      <trkpt lat="51.662234030663967" lon="0.483786016702652">
        <ele>63</ele>
        <time>2018-02-19T10:38:21Z</time>
      </trkpt>
      <trkpt lat="51.662235036492348" lon="0.4838249925524">
        <ele>63</ele>
        <time>2018-02-19T10:38:22Z</time>
      </trkpt>
      <trkpt lat="51.662237970158458" lon="0.483864974230528">
        <ele>63</ele>
        <time>2018-02-19T10:38:23Z</time>
      </trkpt>
      <trkpt lat="51.662235958501697" lon="0.483901016414166">
        <ele>63</ele>
        <time>2018-02-19T10:38:24Z</time>
      </trkpt>
      <trkpt lat="51.662233024835587" lon="0.483934041112661">
        <ele>63</ele>
        <time>2018-02-19T10:38:25Z</time>
      </trkpt>
      <trkpt lat="51.662232019007206" lon="0.483969999477267">
        <ele>63</ele>
        <time>2018-02-19T10:38:26Z</time>
      </trkpt>
      <trkpt lat="51.662231013178825" lon="0.483999000862241">
        <ele>63</ele>
        <time>2018-02-19T10:38:27Z</time>
      </trkpt>
      <trkpt lat="51.662222966551781" lon="0.484049040824175">
        <ele>63</ele>
        <time>2018-02-19T10:38:29Z</time>
      </trkpt>
      <trkpt lat="51.662217015400529" lon="0.48410402610898">
        <ele>64</ele>
        <time>2018-02-19T10:38:31Z</time>
      </trkpt>
      <trkpt lat="51.662221038714051" lon="0.484150964766741">
        <ele>64</ele>
        <time>2018-02-19T10:38:33Z</time>
      </trkpt>
      <trkpt lat="51.662215003743768" lon="0.484193963930011">
        <ele>64</ele>
        <time>2018-02-19T10:38:35Z</time>
      </trkpt>
      <trkpt lat="51.662212992087007" lon="0.484236963093281">
        <ele>64</ele>
        <time>2018-02-19T10:38:37Z</time>
      </trkpt>
      <trkpt lat="51.662212992087007" lon="0.484273005276918">
        <ele>65</ele>
        <time>2018-02-19T10:38:39Z</time>
      </trkpt>
      <trkpt lat="51.662207962945104" lon="0.48429898917675">
        <ele>65</ele>
        <time>2018-02-19T10:38:40Z</time>
      </trkpt>
      <trkpt lat="51.662205029278994" lon="0.484352968633175">
        <ele>65</ele>
        <time>2018-02-19T10:38:42Z</time>
      </trkpt>
      <trkpt lat="51.662204023450613" lon="0.484416000545025">
        <ele>65</ele>
        <time>2018-02-19T10:38:44Z</time>
      </trkpt>
      <trkpt lat="51.662204023450613" lon="0.484446007758379">
        <ele>65</ele>
        <time>2018-02-19T10:38:45Z</time>
      </trkpt>
      <trkpt lat="51.662207962945104" lon="0.484479032456875">
        <ele>65</ele>
        <time>2018-02-19T10:38:46Z</time>
      </trkpt>
      <trkpt lat="51.662212992087007" lon="0.484510967507958">
        <ele>65</ele>
        <time>2018-02-19T10:38:47Z</time>
      </trkpt>
      <trkpt lat="51.662217015400529" lon="0.484547009691596">
        <ele>65</ele>
        <time>2018-02-19T10:38:48Z</time>
      </trkpt>
      <trkpt lat="51.66221902705729" lon="0.484582968056202">
        <ele>65.120000000000005</ele>
        <time>2018-02-19T10:38:49Z</time>
      </trkpt>
      <trkpt lat="51.662225984036922" lon="0.484616998583078">
        <ele>66</ele>
        <time>2018-02-19T10:38:50Z</time>
      </trkpt>
      <trkpt lat="51.662227995693684" lon="0.484648011624813">
        <ele>66</ele>
        <time>2018-02-19T10:38:51Z</time>
      </trkpt>
      <trkpt lat="51.662231013178825" lon="0.484682964161038">
        <ele>66</ele>
        <time>2018-02-19T10:38:52Z</time>
      </trkpt>
      <trkpt lat="51.662233024835587" lon="0.484724035486579">
        <ele>66</ele>
        <time>2018-02-19T10:38:53Z</time>
      </trkpt>
      <trkpt lat="51.662233024835587" lon="0.484763011336327">
        <ele>66</ele>
        <time>2018-02-19T10:38:54Z</time>
      </trkpt>
      <trkpt lat="51.662231013178825" lon="0.484797963872552">
        <ele>65.890909725616098</ele>
        <time>2018-02-19T10:38:55Z</time>
      </trkpt>
      <trkpt lat="51.662233024835587" lon="0.48483501188457">
        <ele>65</ele>
        <time>2018-02-19T10:38:56Z</time>
      </trkpt>
      <trkpt lat="51.662235958501697" lon="0.484874993562698">
        <ele>65</ele>
        <time>2018-02-19T10:38:57Z</time>
      </trkpt>
      <trkpt lat="51.66224199347198" lon="0.484917992725968">
        <ele>65</ele>
        <time>2018-02-19T10:38:58Z</time>
      </trkpt>
      <trkpt lat="51.6622409876436" lon="0.484955040737987">
        <ele>65</ele>
        <time>2018-02-19T10:38:59Z</time>
      </trkpt>
      <trkpt lat="51.6622409876436" lon="0.484988987445831">
        <ele>65</ele>
        <time>2018-02-19T10:39:00Z</time>
      </trkpt>
      <trkpt lat="51.6622409876436" lon="0.48502603545785">
        <ele>65</ele>
        <time>2018-02-19T10:39:01Z</time>
      </trkpt>
      <trkpt lat="51.662237970158458" lon="0.485061993822455">
        <ele>65</ele>
        <time>2018-02-19T10:39:02Z</time>
      </trkpt>
      <trkpt lat="51.662234030663967" lon="0.485096024349332">
        <ele>65</ele>
        <time>2018-02-19T10:39:03Z</time>
      </trkpt>
      <trkpt lat="51.662234030663967" lon="0.485127037391067">
        <ele>65</ele>
        <time>2018-02-19T10:39:04Z</time>
      </trkpt>
      <trkpt lat="51.662232019007206" lon="0.485156960785389">
        <ele>65</ele>
        <time>2018-02-19T10:39:05Z</time>
      </trkpt>
      <trkpt lat="51.662230007350445" lon="0.485188979655504">
        <ele>65</ele>
        <time>2018-02-19T10:39:06Z</time>
      </trkpt>
      <trkpt lat="51.662225984036922" lon="0.485218986868858">
        <ele>65</ele>
        <time>2018-02-19T10:39:07Z</time>
      </trkpt>
      <trkpt lat="51.662222966551781" lon="0.485251005738974">
        <ele>65</ele>
        <time>2018-02-19T10:39:08Z</time>
      </trkpt>
      <trkpt lat="51.662222966551781" lon="0.48528796993196">
        <ele>65</ele>
        <time>2018-02-19T10:39:09Z</time>
      </trkpt>
      <trkpt lat="51.662222966551781" lon="0.485323006287217">
        <ele>65</ele>
        <time>2018-02-19T10:39:10Z</time>
      </trkpt>
      <trkpt lat="51.6622219607234" lon="0.485357036814094">
        <ele>65</ele>
        <time>2018-02-19T10:39:11Z</time>
      </trkpt>
      <trkpt lat="51.66221902705729" lon="0.485389977693558">
        <ele>65</ele>
        <time>2018-02-19T10:39:12Z</time>
      </trkpt>
      <trkpt lat="51.662221038714051" lon="0.485425014048815">
        <ele>65</ele>
        <time>2018-02-19T10:39:13Z</time>
      </trkpt>
      <trkpt lat="51.662220032885671" lon="0.485461978241801">
        <ele>65</ele>
        <time>2018-02-19T10:39:14Z</time>
      </trkpt>
      <trkpt lat="51.662223972380161" lon="0.48550296574831">
        <ele>65</ele>
        <time>2018-02-19T10:39:15Z</time>
      </trkpt>
      <trkpt lat="51.662227995693684" lon="0.4855449590832">
        <ele>65</ele>
        <time>2018-02-19T10:39:16Z</time>
      </trkpt>
      <trkpt lat="51.662230007350445" lon="0.485584018751979">
        <ele>64.879999999999995</ele>
        <time>2018-02-19T10:39:17Z</time>
      </trkpt>
      <trkpt lat="51.662230007350445" lon="0.485620982944965">
        <ele>64</ele>
        <time>2018-02-19T10:39:18Z</time>
      </trkpt>
      <trkpt lat="51.662234030663967" lon="0.485656019300222">
        <ele>64</ele>
        <time>2018-02-19T10:39:19Z</time>
      </trkpt>
      <trkpt lat="51.662235036492348" lon="0.485688960179687">
        <ele>64</ele>
        <time>2018-02-19T10:39:20Z</time>
      </trkpt>
      <trkpt lat="51.662236964330077" lon="0.485725002363324">
        <ele>64</ele>
        <time>2018-02-19T10:39:21Z</time>
      </trkpt>
      <trkpt lat="51.662237970158458" lon="0.485759032890201">
        <ele>64</ele>
        <time>2018-02-19T10:39:22Z</time>
      </trkpt>
      <trkpt lat="51.662239981815219" lon="0.485795997083187">
        <ele>64</ele>
        <time>2018-02-19T10:39:23Z</time>
      </trkpt>
      <trkpt lat="51.662244005128741" lon="0.485832961276174">
        <ele>64</ele>
        <time>2018-02-19T10:39:24Z</time>
      </trkpt>
      <trkpt lat="51.662246016785502" lon="0.485865985974669">
        <ele>63</ele>
        <time>2018-02-19T10:39:25Z</time>
      </trkpt>
      <trkpt lat="51.662245010957122" lon="0.485898004844785">
        <ele>63</ele>
        <time>2018-02-19T10:39:26Z</time>
      </trkpt>
      <trkpt lat="51.662247022613883" lon="0.485935974866152">
        <ele>63</ele>
        <time>2018-02-19T10:39:27Z</time>
      </trkpt>
      <trkpt lat="51.662245010957122" lon="0.485970005393028">
        <ele>63</ele>
        <time>2018-02-19T10:39:28Z</time>
      </trkpt>
      <trkpt lat="51.662247022613883" lon="0.485999006778002">
        <ele>63</ele>
        <time>2018-02-19T10:39:29Z</time>
      </trkpt>
      <trkpt lat="51.662252973765135" lon="0.486049968749285">
        <ele>63</ele>
        <time>2018-02-19T10:39:31Z</time>
      </trkpt>
      <trkpt lat="51.662263032048941" lon="0.486089028418064">
        <ele>63</ele>
        <time>2018-02-19T10:39:33Z</time>
      </trkpt>
      <trkpt lat="51.662279963493347" lon="0.486119035631418">
        <ele>63</ele>
        <time>2018-02-19T10:39:35Z</time>
      </trkpt>
      <trkpt lat="51.662294967100024" lon="0.486139990389347">
        <ele>63</ele>
        <time>2018-02-19T10:39:37Z</time>
      </trkpt>
      <trkpt lat="51.662316005676985" lon="0.486119035631418">
        <ele>63</ele>
        <time>2018-02-19T10:39:41Z</time>
      </trkpt>
      <trkpt lat="51.662336960434914" lon="0.486122975125909">
        <ele>63</ele>
        <time>2018-02-19T10:39:43Z</time>
      </trkpt>
      <trkpt lat="51.662355987355113" lon="0.486134961247444">
        <ele>63.991153249283499</ele>
        <time>2018-02-19T10:39:45Z</time>
      </trkpt>
      <trkpt lat="51.662376020103693" lon="0.486148959025741">
        <ele>63.967029566489401</ele>
        <time>2018-02-19T10:39:48Z</time>
      </trkpt>
      <trkpt lat="51.662398986518383" lon="0.486150970682502">
        <ele>63</ele>
        <time>2018-02-19T10:39:50Z</time>
      </trkpt>
      <trkpt lat="51.662421030923724" lon="0.486159017309546">
        <ele>63</ele>
        <time>2018-02-19T10:39:52Z</time>
      </trkpt>
      <trkpt lat="51.662442991510034" lon="0.486169997602701">
        <ele>63</ele>
        <time>2018-02-19T10:39:54Z</time>
      </trkpt>
      <trkpt lat="51.662465035915375" lon="0.486177960410714">
        <ele>63</ele>
        <time>2018-02-19T10:39:56Z</time>
      </trkpt>
      <trkpt lat="51.662482973188162" lon="0.486177038401365">
        <ele>63</ele>
        <time>2018-02-19T10:39:58Z</time>
      </trkpt>
      <trkpt lat="51.662503005936742" lon="0.486186007037759">
        <ele>63</ele>
        <time>2018-02-19T10:40:01Z</time>
      </trkpt>
      <trkpt lat="51.662523038685322" lon="0.48618801869452">
        <ele>63</ele>
        <time>2018-02-19T10:40:03Z</time>
      </trkpt>
      <trkpt lat="51.662543993443251" lon="0.486201010644436">
        <ele>63</ele>
        <time>2018-02-19T10:40:05Z</time>
      </trkpt>
      <trkpt lat="51.662561008706689" lon="0.486209979280829">
        <ele>63</ele>
        <time>2018-02-19T10:40:07Z</time>
      </trkpt>
      <trkpt lat="51.662584980949759" lon="0.486214002594352">
        <ele>63</ele>
        <time>2018-02-19T10:40:10Z</time>
      </trkpt>
      <trkpt lat="51.662605013698339" lon="0.486216014251113">
        <ele>63</ele>
        <time>2018-02-19T10:40:12Z</time>
      </trkpt>
      <trkpt lat="51.662624962627888" lon="0.486220037564635">
        <ele>64</ele>
        <time>2018-02-19T10:40:14Z</time>
      </trkpt>
      <trkpt lat="51.662647007033229" lon="0.486228000372648">
        <ele>64</ele>
        <time>2018-02-19T10:40:16Z</time>
      </trkpt>
      <trkpt lat="51.662667961791158" lon="0.48623101785779">
        <ele>64</ele>
        <time>2018-02-19T10:40:18Z</time>
      </trkpt>
      <trkpt lat="51.662690006196499" lon="0.486233029514551">
        <ele>64</ele>
        <time>2018-02-19T10:40:20Z</time>
      </trkpt>
      <trkpt lat="51.662713978439569" lon="0.486234035342932">
        <ele>64</ele>
        <time>2018-02-19T10:40:22Z</time>
      </trkpt>
      <trkpt lat="51.662738034501672" lon="0.486232023686171">
        <ele>64</ele>
        <time>2018-02-19T10:40:24Z</time>
      </trkpt>
      <trkpt lat="51.662759995087981" lon="0.486235963180661">
        <ele>64</ele>
        <time>2018-02-19T10:40:26Z</time>
      </trkpt>
      <trkpt lat="51.662785978987813" lon="0.486244009807706">
        <ele>64</ele>
        <time>2018-02-19T10:40:28Z</time>
      </trkpt>
      <trkpt lat="51.662810035049915" lon="0.486251972615719">
        <ele>64</ele>
        <time>2018-02-19T10:40:30Z</time>
      </trkpt>
      <trkpt lat="51.662831995636225" lon="0.486252978444099">
        <ele>64</ele>
        <time>2018-02-19T10:40:32Z</time>
      </trkpt>
      <trkpt lat="51.662856973707676" lon="0.48625398427248">
        <ele>64</ele>
        <time>2018-02-19T10:40:34Z</time>
      </trkpt>
      <trkpt lat="51.662882035598159" lon="0.48625398427248">
        <ele>64.120000000000005</ele>
        <time>2018-02-19T10:40:36Z</time>
      </trkpt>
      <trkpt lat="51.662908019497991" lon="0.486250966787338">
        <ele>65</ele>
        <time>2018-02-19T10:40:38Z</time>
      </trkpt>
      <trkpt lat="51.662932997569442" lon="0.486249038949609">
        <ele>64.125983934528705</ele>
        <time>2018-02-19T10:40:40Z</time>
      </trkpt>
      <trkpt lat="51.662960993126035" lon="0.486251972615719">
        <ele>64</ele>
        <time>2018-02-19T10:40:42Z</time>
      </trkpt>
      <trkpt lat="51.662988988682628" lon="0.486258007586002">
        <ele>64</ele>
        <time>2018-02-19T10:40:44Z</time>
      </trkpt>
      <trkpt lat="51.663014972582459" lon="0.486263958737254">
        <ele>64</ele>
        <time>2018-02-19T10:40:46Z</time>
      </trkpt>
      <trkpt lat="51.663041962310672" lon="0.486265970394015">
        <ele>64</ele>
        <time>2018-02-19T10:40:48Z</time>
      </trkpt>
      <trkpt lat="51.663070041686296" lon="0.486264964565635">
        <ele>64.0736873307374</ele>
        <time>2018-02-19T10:40:50Z</time>
      </trkpt>
      <trkpt lat="51.663098959252238" lon="0.486263958737254">
        <ele>65</ele>
        <time>2018-02-19T10:40:52Z</time>
      </trkpt>
      <trkpt lat="51.663127038627863" lon="0.486259013414383">
        <ele>65</ele>
        <time>2018-02-19T10:40:54Z</time>
      </trkpt>
      <trkpt lat="51.663152016699314" lon="0.486252978444099">
        <ele>65</ele>
        <time>2018-02-19T10:40:56Z</time>
      </trkpt>
      <trkpt lat="51.663176994770765" lon="0.486246021464467">
        <ele>65</ele>
        <time>2018-02-19T10:40:58Z</time>
      </trkpt>
      <trkpt lat="51.663201972842216" lon="0.486235041171312">
        <ele>65</ele>
        <time>2018-02-19T10:41:00Z</time>
      </trkpt>
      <trkpt lat="51.663227034732699" lon="0.486220037564635">
        <ele>65</ele>
        <time>2018-02-19T10:41:02Z</time>
      </trkpt>
      <trkpt lat="51.66325100697577" lon="0.486205033957958">
        <ele>66</ele>
        <time>2018-02-19T10:41:04Z</time>
      </trkpt>
      <trkpt lat="51.663274979218841" lon="0.486191958189011">
        <ele>66</ele>
        <time>2018-02-19T10:41:06Z</time>
      </trkpt>
      <trkpt lat="51.663300041109324" lon="0.486179972067475">
        <ele>66</ele>
        <time>2018-02-19T10:41:08Z</time>
      </trkpt>
      <trkpt lat="51.663327030837536" lon="0.486166980117559">
        <ele>66</ele>
        <time>2018-02-19T10:41:10Z</time>
      </trkpt>
      <trkpt lat="51.663353014737368" lon="0.486152982339263">
        <ele>66</ele>
        <time>2018-02-19T10:41:12Z</time>
      </trkpt>
      <trkpt lat="51.66338000446558" lon="0.486139990389347">
        <ele>66</ele>
        <time>2018-02-19T10:41:14Z</time>
      </trkpt>
      <trkpt lat="51.663405988365412" lon="0.486131021752954">
        <ele>66</ele>
        <time>2018-02-19T10:41:16Z</time>
      </trkpt>
      <trkpt lat="51.663432978093624" lon="0.486119035631418">
        <ele>66</ele>
        <time>2018-02-19T10:41:18Z</time>
      </trkpt>
      <trkpt lat="51.663458961993456" lon="0.486106965690851">
        <ele>66</ele>
        <time>2018-02-19T10:41:20Z</time>
      </trkpt>
      <trkpt lat="51.663484023883939" lon="0.486094979569316">
        <ele>66</ele>
        <time>2018-02-19T10:41:22Z</time>
      </trkpt>
      <trkpt lat="51.663510007783771" lon="0.486077964305878">
        <ele>66</ele>
        <time>2018-02-19T10:41:24Z</time>
      </trkpt>
      <trkpt lat="51.663535991683602" lon="0.486065978184342">
        <ele>65</ele>
        <time>2018-02-19T10:41:26Z</time>
      </trkpt>
      <trkpt lat="51.663560969755054" lon="0.486051980406046">
        <ele>65</ele>
        <time>2018-02-19T10:41:28Z</time>
      </trkpt>
      <trkpt lat="51.663586031645536" lon="0.486041000112891">
        <ele>65</ele>
        <time>2018-02-19T10:41:30Z</time>
      </trkpt>
      <trkpt lat="51.663607992231846" lon="0.486027002334595">
        <ele>65</ele>
        <time>2018-02-19T10:41:32Z</time>
      </trkpt>
      <trkpt lat="51.663630958646536" lon="0.486009987071157">
        <ele>65</ele>
        <time>2018-02-19T10:41:34Z</time>
      </trkpt>
      <trkpt lat="51.663656020537019" lon="0.485994983464479">
        <ele>65</ele>
        <time>2018-02-19T10:41:36Z</time>
      </trkpt>
      <trkpt lat="51.663679992780089" lon="0.485985008999705">
        <ele>65</ele>
        <time>2018-02-19T10:41:38Z</time>
      </trkpt>
      <trkpt lat="51.663702037185431" lon="0.48597302287817">
        <ele>65</ele>
        <time>2018-02-19T10:41:40Z</time>
      </trkpt>
      <trkpt lat="51.663725003600121" lon="0.485963970422745">
        <ele>65.0736873307374</ele>
        <time>2018-02-19T10:41:42Z</time>
      </trkpt>
      <trkpt lat="51.663751993328333" lon="0.485957013443112">
        <ele>66</ele>
        <time>2018-02-19T10:41:44Z</time>
      </trkpt>
      <trkpt lat="51.663777977228165" lon="0.485947960987687">
        <ele>66</ele>
        <time>2018-02-19T10:41:46Z</time>
      </trkpt>
      <trkpt lat="51.663799015805125" lon="0.485936980694532">
        <ele>66</ele>
        <time>2018-02-19T10:41:48Z</time>
      </trkpt>
      <trkpt lat="51.663826005533338" lon="0.485924994572997">
        <ele>66</ele>
        <time>2018-02-19T10:41:50Z</time>
      </trkpt>
      <trkpt lat="51.663855006918311" lon="0.485913008451462">
        <ele>66</ele>
        <time>2018-02-19T10:41:52Z</time>
      </trkpt>
      <trkpt lat="51.663880990818143" lon="0.485899010673165">
        <ele>66</ele>
        <time>2018-02-19T10:41:54Z</time>
      </trkpt>
      <trkpt lat="51.663908986374736" lon="0.48588995821774">
        <ele>66</ele>
        <time>2018-02-19T10:41:56Z</time>
      </trkpt>
      <trkpt lat="51.663941005244851" lon="0.485885012894869">
        <ele>66</ele>
        <time>2018-02-19T10:41:58Z</time>
      </trkpt>
      <trkpt lat="51.663970006629825" lon="0.485884007066488">
        <ele>66</ele>
        <time>2018-02-19T10:42:00Z</time>
      </trkpt>
      <trkpt lat="51.663992973044515" lon="0.485885012894869">
        <ele>66</ele>
        <time>2018-02-19T10:42:02Z</time>
      </trkpt>
      <trkpt lat="51.664011999964714" lon="0.485880989581347">
        <ele>66</ele>
        <time>2018-02-19T10:42:04Z</time>
      </trkpt>
      <trkpt lat="51.664031026884913" lon="0.485869003459811">
        <ele>66</ele>
        <time>2018-02-19T10:42:06Z</time>
      </trkpt>
      <trkpt lat="51.664050975814462" lon="0.485859028995037">
        <ele>66</ele>
        <time>2018-02-19T10:42:08Z</time>
      </trkpt>
      <trkpt lat="51.664071008563042" lon="0.485858023166656">
        <ele>66</ele>
        <time>2018-02-19T10:42:10Z</time>
      </trkpt>
      <trkpt lat="51.664091963320971" lon="0.485858023166656">
        <ele>66</ele>
        <time>2018-02-19T10:42:12Z</time>
      </trkpt>
      <trkpt lat="51.664114007726312" lon="0.485859028995037">
        <ele>66</ele>
        <time>2018-02-19T10:42:14Z</time>
      </trkpt>
      <trkpt lat="51.664137979969382" lon="0.485861962661147">
        <ele>66</ele>
        <time>2018-02-19T10:42:16Z</time>
      </trkpt>
      <trkpt lat="51.664171004667878" lon="0.485861040651798">
        <ele>67</ele>
        <time>2018-02-19T10:42:18Z</time>
      </trkpt>
      <trkpt lat="51.664193971082568" lon="0.485861040651798">
        <ele>67</ele>
        <time>2018-02-19T10:42:19Z</time>
      </trkpt>
      <trkpt lat="51.66421702131629" lon="0.485859028995037">
        <ele>67</ele>
        <time>2018-02-19T10:42:20Z</time>
      </trkpt>
      <trkpt lat="51.664236970245838" lon="0.485849976539612">
        <ele>67</ele>
        <time>2018-02-19T10:42:21Z</time>
      </trkpt>
      <trkpt lat="51.664258008822799" lon="0.485836984589696">
        <ele>67</ele>
        <time>2018-02-19T10:42:22Z</time>
      </trkpt>
      <trkpt lat="51.664278963580728" lon="0.485829021781683">
        <ele>67</ele>
        <time>2018-02-19T10:42:23Z</time>
      </trkpt>
      <trkpt lat="51.664302013814449" lon="0.485826004296541">
        <ele>67</ele>
        <time>2018-02-19T10:42:24Z</time>
      </trkpt>
      <trkpt lat="51.664322968572378" lon="0.48582399263978">
        <ele>67</ele>
        <time>2018-02-19T10:42:25Z</time>
      </trkpt>
      <trkpt lat="51.664343001320958" lon="0.485817035660148">
        <ele>67</ele>
        <time>2018-02-19T10:42:26Z</time>
      </trkpt>
      <trkpt lat="51.664364961907268" lon="0.485809994861484">
        <ele>67</ele>
        <time>2018-02-19T10:42:27Z</time>
      </trkpt>
      <trkpt lat="51.664383988827467" lon="0.4858039598912">
        <ele>66.879999999999995</ele>
        <time>2018-02-19T10:42:28Z</time>
      </trkpt>
      <trkpt lat="51.664405027404428" lon="0.485800020396709">
        <ele>66</ele>
        <time>2018-02-19T10:42:29Z</time>
      </trkpt>
      <trkpt lat="51.664423970505595" lon="0.485793985426426">
        <ele>66.111113984278006</ele>
        <time>2018-02-19T10:42:30Z</time>
      </trkpt>
      <trkpt lat="51.664444003254175" lon="0.485789040103555">
        <ele>67</ele>
        <time>2018-02-19T10:42:31Z</time>
      </trkpt>
      <trkpt lat="51.664464036002755" lon="0.485786022618413">
        <ele>67</ele>
        <time>2018-02-19T10:42:32Z</time>
      </trkpt>
      <trkpt lat="51.664482979103923" lon="0.48578099347651">
        <ele>67</ele>
        <time>2018-02-19T10:42:33Z</time>
      </trkpt>
      <trkpt lat="51.664502006024122" lon="0.48578099347651">
        <ele>67</ele>
        <time>2018-02-19T10:42:34Z</time>
      </trkpt>
      <trkpt lat="51.664520027115941" lon="0.485779987648129">
        <ele>67</ele>
        <time>2018-02-19T10:42:35Z</time>
      </trkpt>
      <trkpt lat="51.664537964388728" lon="0.485774036496878">
        <ele>67</ele>
        <time>2018-02-19T10:42:36Z</time>
      </trkpt>
      <trkpt lat="51.664555985480547" lon="0.485763978213072">
        <ele>67</ele>
        <time>2018-02-19T10:42:37Z</time>
      </trkpt>
      <trkpt lat="51.664577024057508" lon="0.485757021233439">
        <ele>67</ele>
        <time>2018-02-19T10:42:38Z</time>
      </trkpt>
      <trkpt lat="51.664596972987056" lon="0.485749980434775">
        <ele>67</ele>
        <time>2018-02-19T10:42:39Z</time>
      </trkpt>
      <trkpt lat="51.664618011564016" lon="0.485742017626762">
        <ele>67</ele>
        <time>2018-02-19T10:42:40Z</time>
      </trkpt>
      <trkpt lat="51.664639972150326" lon="0.485735982656479">
        <ele>67</ele>
        <time>2018-02-19T10:42:41Z</time>
      </trkpt>
      <trkpt lat="51.664662016555667" lon="0.485728019848466">
        <ele>67</ele>
        <time>2018-02-19T10:42:42Z</time>
      </trkpt>
      <trkpt lat="51.664684982970357" lon="0.485725002363324">
        <ele>67</ele>
        <time>2018-02-19T10:42:43Z</time>
      </trkpt>
      <trkpt lat="51.664706021547318" lon="0.485722990706563">
        <ele>67</ele>
        <time>2018-02-19T10:42:44Z</time>
      </trkpt>
      <trkpt lat="51.664732005447149" lon="0.485719973221421">
        <ele>67</ele>
        <time>2018-02-19T10:42:45Z</time>
      </trkpt>
      <trkpt lat="51.6647569835186" lon="0.485714022070169">
        <ele>67</ele>
        <time>2018-02-19T10:42:46Z</time>
      </trkpt>
      <trkpt lat="51.664781039580703" lon="0.485705975443125">
        <ele>67</ele>
        <time>2018-02-19T10:42:47Z</time>
      </trkpt>
      <trkpt lat="51.664804005995393" lon="0.485696000978351">
        <ele>67</ele>
        <time>2018-02-19T10:42:48Z</time>
      </trkpt>
      <trkpt lat="51.664826972410083" lon="0.485688038170338">
        <ele>67</ele>
        <time>2018-02-19T10:42:49Z</time>
      </trkpt>
      <trkpt lat="51.664850022643805" lon="0.485684014856815">
        <ele>67.102034952064997</ele>
        <time>2018-02-19T10:42:50Z</time>
      </trkpt>
      <trkpt lat="51.664869971573353" lon="0.485679991543293">
        <ele>68</ele>
        <time>2018-02-19T10:42:51Z</time>
      </trkpt>
      <trkpt lat="51.664890004321933" lon="0.485674040392041">
        <ele>68</ele>
        <time>2018-02-19T10:42:52Z</time>
      </trkpt>
      <trkpt lat="51.664912970736623" lon="0.485670017078519">
        <ele>68</ele>
        <time>2018-02-19T10:42:53Z</time>
      </trkpt>
      <trkpt lat="51.664936020970345" lon="0.485662976279855">
        <ele>68</ele>
        <time>2018-02-19T10:42:54Z</time>
      </trkpt>
      <trkpt lat="51.664958987385035" lon="0.485654007643461">
        <ele>68</ele>
        <time>2018-02-19T10:42:55Z</time>
      </trkpt>
      <trkpt lat="51.664982037618756" lon="0.485648978501558">
        <ele>68</ele>
        <time>2018-02-19T10:42:56Z</time>
      </trkpt>
      <trkpt lat="51.665003998205066" lon="0.485643027350307">
        <ele>68</ele>
        <time>2018-02-19T10:42:57Z</time>
      </trkpt>
      <trkpt lat="51.665025958791375" lon="0.485639004036784">
        <ele>68</ele>
        <time>2018-02-19T10:42:58Z</time>
      </trkpt>
      <trkpt lat="51.665046997368336" lon="0.485632969066501">
        <ele>68</ele>
        <time>2018-02-19T10:42:59Z</time>
      </trkpt>
      <trkpt lat="51.665068035945296" lon="0.485627017915249">
        <ele>68</ele>
        <time>2018-02-19T10:43:00Z</time>
      </trkpt>
      <trkpt lat="51.665088990703225" lon="0.485625006258488">
        <ele>68</ele>
        <time>2018-02-19T10:43:01Z</time>
      </trkpt>
      <trkpt lat="51.665110029280186" lon="0.485620982944965">
        <ele>68.1132068636567</ele>
        <time>2018-02-19T10:43:02Z</time>
      </trkpt>
      <trkpt lat="51.665134001523256" lon="0.485619977116585">
        <ele>69</ele>
        <time>2018-02-19T10:43:03Z</time>
      </trkpt>
      <trkpt lat="51.665155040100217" lon="0.485617965459824">
        <ele>69</ele>
        <time>2018-02-19T10:43:04Z</time>
      </trkpt>
      <trkpt lat="51.665177000686526" lon="0.485616037622094">
        <ele>69</ele>
        <time>2018-02-19T10:43:05Z</time>
      </trkpt>
      <trkpt lat="51.665199967101216" lon="0.485613020136952">
        <ele>69</ele>
        <time>2018-02-19T10:43:06Z</time>
      </trkpt>
      <trkpt lat="51.665221005678177" lon="0.485607990995049">
        <ele>69</ele>
        <time>2018-02-19T10:43:07Z</time>
      </trkpt>
      <trkpt lat="51.665241960436106" lon="0.485601034015417">
        <ele>69</ele>
        <time>2018-02-19T10:43:08Z</time>
      </trkpt>
      <trkpt lat="51.665260987356305" lon="0.485593993216753">
        <ele>69</ele>
        <time>2018-02-19T10:43:09Z</time>
      </trkpt>
      <trkpt lat="51.665284037590027" lon="0.485590975731611">
        <ele>69</ele>
        <time>2018-02-19T10:43:10Z</time>
      </trkpt>
      <trkpt lat="51.665308009833097" lon="0.48558795824647">
        <ele>68.913669263495194</ele>
        <time>2018-02-19T10:43:11Z</time>
      </trkpt>
      <trkpt lat="51.665329970419407" lon="0.485587036237121">
        <ele>68.194246459288706</ele>
        <time>2018-02-19T10:43:12Z</time>
      </trkpt>
      <trkpt lat="51.665351008996367" lon="0.485584018751979">
        <ele>68</ele>
        <time>2018-02-19T10:43:13Z</time>
      </trkpt>
      <trkpt lat="51.665371963754296" lon="0.485581001266837">
        <ele>68</ele>
        <time>2018-02-19T10:43:14Z</time>
      </trkpt>
      <trkpt lat="51.665391996502876" lon="0.485571026802063">
        <ele>68</ele>
        <time>2018-02-19T10:43:15Z</time>
      </trkpt>
      <trkpt lat="51.665409011766315" lon="0.485557029023767">
        <ele>68</ele>
        <time>2018-02-19T10:43:16Z</time>
      </trkpt>
      <trkpt lat="51.665428960695863" lon="0.485542025417089">
        <ele>68</ele>
        <time>2018-02-19T10:43:17Z</time>
      </trkpt>
      <trkpt lat="51.665448993444443" lon="0.48552299849689">
        <ele>68</ele>
        <time>2018-02-19T10:43:18Z</time>
      </trkpt>
      <trkpt lat="51.665471037849784" lon="0.485507994890213">
        <ele>68</ele>
        <time>2018-02-19T10:43:19Z</time>
      </trkpt>
      <trkpt lat="51.665490986779332" lon="0.485495002940297">
        <ele>68</ele>
        <time>2018-02-19T10:43:20Z</time>
      </trkpt>
      <trkpt lat="51.665512025356293" lon="0.485486034303904">
        <ele>68</ele>
        <time>2018-02-19T10:43:21Z</time>
      </trkpt>
      <trkpt lat="51.66553096845746" lon="0.485474970191717">
        <ele>68</ele>
        <time>2018-02-19T10:43:22Z</time>
      </trkpt>
      <trkpt lat="51.665552007034421" lon="0.485461978241801">
        <ele>68</ele>
        <time>2018-02-19T10:43:23Z</time>
      </trkpt>
      <trkpt lat="51.66557002812624" lon="0.485449992120266">
        <ele>68</ele>
        <time>2018-02-19T10:43:24Z</time>
      </trkpt>
      <trkpt lat="51.665586959570646" lon="0.485435994341969">
        <ele>68</ele>
        <time>2018-02-19T10:43:25Z</time>
      </trkpt>
      <trkpt lat="51.665605986490846" lon="0.485417973250151">
        <ele>68</ele>
        <time>2018-02-19T10:43:26Z</time>
      </trkpt>
      <trkpt lat="51.665628030896187" lon="0.485401963815093">
        <ele>68</ele>
        <time>2018-02-19T10:43:27Z</time>
      </trkpt>
      <trkpt lat="51.665647979825735" lon="0.485385032370687">
        <ele>68</ele>
        <time>2018-02-19T10:43:28Z</time>
      </trkpt>
      <trkpt lat="51.665671030059457" lon="0.485370028764009">
        <ele>68</ele>
        <time>2018-02-19T10:43:29Z</time>
      </trkpt>
      <trkpt lat="51.665691984817386" lon="0.485356030985713">
        <ele>67.911764705882305</ele>
        <time>2018-02-19T10:43:30Z</time>
      </trkpt>
      <trkpt lat="51.665714029222727" lon="0.485342033207417">
        <ele>67.176470588235304</ele>
        <time>2018-02-19T10:43:31Z</time>
      </trkpt>
      <trkpt lat="51.665733978152275" lon="0.48532803542912">
        <ele>67</ele>
        <time>2018-02-19T10:43:32Z</time>
      </trkpt>
      <trkpt lat="51.665753005072474" lon="0.485314959660172">
        <ele>67</ele>
        <time>2018-02-19T10:43:33Z</time>
      </trkpt>
      <trkpt lat="51.665772031992674" lon="0.485303979367018">
        <ele>67</ele>
        <time>2018-02-19T10:43:34Z</time>
      </trkpt>
      <trkpt lat="51.665789969265461" lon="0.485295010730624">
        <ele>67</ele>
        <time>2018-02-19T10:43:35Z</time>
      </trkpt>
      <trkpt lat="51.66580799035728" lon="0.485288975760341">
        <ele>67</ele>
        <time>2018-02-19T10:43:36Z</time>
      </trkpt>
      <trkpt lat="51.665830034762621" lon="0.485332980751991">
        <ele>67</ele>
        <time>2018-02-19T10:43:40Z</time>
      </trkpt>
      <trkpt lat="51.665837997570634" lon="0.485359970480204">
        <ele>67</ele>
        <time>2018-02-19T10:43:41Z</time>
      </trkpt>
      <trkpt lat="51.665857024490833" lon="0.485415039584041">
        <ele>67</ele>
        <time>2018-02-19T10:43:43Z</time>
      </trkpt>
      <trkpt lat="51.665868004783988" lon="0.485442029312253">
        <ele>67</ele>
        <time>2018-02-19T10:43:44Z</time>
      </trkpt>
      <trkpt lat="51.665879990905523" lon="0.485470024868846">
        <ele>67</ele>
        <time>2018-02-19T10:43:45Z</time>
      </trkpt>
      <trkpt lat="51.665892982855439" lon="0.4855000320822">
        <ele>67</ele>
        <time>2018-02-19T10:43:46Z</time>
      </trkpt>
      <trkpt lat="51.665903963148594" lon="0.485529033467174">
        <ele>67</ele>
        <time>2018-02-19T10:43:47Z</time>
      </trkpt>
      <trkpt lat="51.66591502726078" lon="0.485554011538625">
        <ele>67</ele>
        <time>2018-02-19T10:43:48Z</time>
      </trkpt>
      <trkpt lat="51.665934976190329" lon="0.485603967681527">
        <ele>67</ele>
        <time>2018-02-19T10:43:50Z</time>
      </trkpt>
      <trkpt lat="51.665951991453767" lon="0.485633974894881">
        <ele>67</ele>
        <time>2018-02-19T10:43:51Z</time>
      </trkpt>
      <trkpt lat="51.665965989232063" lon="0.485661970451474">
        <ele>67</ele>
        <time>2018-02-19T10:43:52Z</time>
      </trkpt>
      <trkpt lat="51.66598099283874" lon="0.485691977664828">
        <ele>67</ele>
        <time>2018-02-19T10:43:53Z</time>
      </trkpt>
      <trkpt lat="51.665992978960276" lon="0.485726008191705">
        <ele>67</ele>
        <time>2018-02-19T10:43:54Z</time>
      </trkpt>
      <trkpt lat="51.666004965081811" lon="0.485756015405059">
        <ele>67</ele>
        <time>2018-02-19T10:43:55Z</time>
      </trkpt>
      <trkpt lat="51.666017035022378" lon="0.485784010961652">
        <ele>67</ele>
        <time>2018-02-19T10:43:56Z</time>
      </trkpt>
      <trkpt lat="51.666028015315533" lon="0.485814018175006">
        <ele>67.120000000000005</ele>
        <time>2018-02-19T10:43:57Z</time>
      </trkpt>
      <trkpt lat="51.666037989780307" lon="0.485842013731599">
        <ele>68</ele>
        <time>2018-02-19T10:43:58Z</time>
      </trkpt>
      <trkpt lat="51.666047964245081" lon="0.485870009288192">
        <ele>68</ele>
        <time>2018-02-19T10:43:59Z</time>
      </trkpt>
      <trkpt lat="51.666061040014029" lon="0.485898004844785">
        <ele>68</ele>
        <time>2018-02-19T10:44:00Z</time>
      </trkpt>
      <trkpt lat="51.666073026135564" lon="0.485931029543281">
        <ele>68.120000000000005</ele>
        <time>2018-02-19T10:44:01Z</time>
      </trkpt>
      <trkpt lat="51.666084006428719" lon="0.485960030928254">
        <ele>69</ele>
        <time>2018-02-19T10:44:02Z</time>
      </trkpt>
      <trkpt lat="51.666098004207015" lon="0.485987020656466">
        <ele>68.890909725616098</ele>
        <time>2018-02-19T10:44:03Z</time>
      </trkpt>
      <trkpt lat="51.66610898450017" lon="0.486015016213059">
        <ele>68</ele>
        <time>2018-02-19T10:44:04Z</time>
      </trkpt>
      <trkpt lat="51.666120970621705" lon="0.486045023426414">
        <ele>68</ele>
        <time>2018-02-19T10:44:05Z</time>
      </trkpt>
      <trkpt lat="51.666134968400002" lon="0.486076036468148">
        <ele>68</ele>
        <time>2018-02-19T10:44:06Z</time>
      </trkpt>
      <trkpt lat="51.666149972006679" lon="0.486106965690851">
        <ele>68</ele>
        <time>2018-02-19T10:44:07Z</time>
      </trkpt>
      <trkpt lat="51.666161958128214" lon="0.486136972904205">
        <ele>68</ele>
        <time>2018-02-19T10:44:08Z</time>
      </trkpt>
      <trkpt lat="51.666174028068781" lon="0.486169997602701">
        <ele>68</ele>
        <time>2018-02-19T10:44:09Z</time>
      </trkpt>
      <trkpt lat="51.666186014190316" lon="0.486202016472816">
        <ele>68</ele>
        <time>2018-02-19T10:44:10Z</time>
      </trkpt>
      <trkpt lat="51.666200011968613" lon="0.486234035342932">
        <ele>68</ele>
        <time>2018-02-19T10:44:11Z</time>
      </trkpt>
      <trkpt lat="51.666211998090148" lon="0.486266976222396">
        <ele>68</ele>
        <time>2018-02-19T10:44:12Z</time>
      </trkpt>
      <trkpt lat="51.666223984211683" lon="0.486298995092511">
        <ele>68</ele>
        <time>2018-02-19T10:44:13Z</time>
      </trkpt>
      <trkpt lat="51.666235970333219" lon="0.486332019791007">
        <ele>68</ele>
        <time>2018-02-19T10:44:14Z</time>
      </trkpt>
      <trkpt lat="51.666248040273786" lon="0.486365966498852">
        <ele>68</ele>
        <time>2018-02-19T10:44:15Z</time>
      </trkpt>
      <trkpt lat="51.666262038052082" lon="0.486395973712206">
        <ele>68</ele>
        <time>2018-02-19T10:44:16Z</time>
      </trkpt>
      <trkpt lat="51.666274024173617" lon="0.486428998410702">
        <ele>68</ele>
        <time>2018-02-19T10:44:17Z</time>
      </trkpt>
      <trkpt lat="51.666285004466772" lon="0.486459005624056">
        <ele>68</ele>
        <time>2018-02-19T10:44:18Z</time>
      </trkpt>
      <trkpt lat="51.666297996416688" lon="0.48648901283741">
        <ele>68</ele>
        <time>2018-02-19T10:44:19Z</time>
      </trkpt>
      <trkpt lat="51.666306965053082" lon="0.486521031707525">
        <ele>68</ele>
        <time>2018-02-19T10:44:20Z</time>
      </trkpt>
      <trkpt lat="51.666320040822029" lon="0.486551960930228">
        <ele>68</ele>
        <time>2018-02-19T10:44:21Z</time>
      </trkpt>
      <trkpt lat="51.666330015286803" lon="0.486584985628724">
        <ele>68</ele>
        <time>2018-02-19T10:44:22Z</time>
      </trkpt>
      <trkpt lat="51.666340995579958" lon="0.486617004498839">
        <ele>68</ele>
        <time>2018-02-19T10:44:23Z</time>
      </trkpt>
      <trkpt lat="51.666351975873113" lon="0.486648017540574">
        <ele>68</ele>
        <time>2018-02-19T10:44:24Z</time>
      </trkpt>
      <trkpt lat="51.666363039985299" lon="0.486678024753928">
        <ele>68</ele>
        <time>2018-02-19T10:44:25Z</time>
      </trkpt>
      <trkpt lat="51.666374020278454" lon="0.486709037795663">
        <ele>68</ele>
        <time>2018-02-19T10:44:26Z</time>
      </trkpt>
      <trkpt lat="51.666385000571609" lon="0.486740972846746">
        <ele>68</ele>
        <time>2018-02-19T10:44:27Z</time>
      </trkpt>
      <trkpt lat="51.666394975036383" lon="0.486770980060101">
        <ele>68</ele>
        <time>2018-02-19T10:44:28Z</time>
      </trkpt>
      <trkpt lat="51.666407966986299" lon="0.486801993101835">
        <ele>68</ele>
        <time>2018-02-19T10:44:29Z</time>
      </trkpt>
      <trkpt lat="51.666418025270104" lon="0.486834011971951">
        <ele>68</ele>
        <time>2018-02-19T10:44:30Z</time>
      </trkpt>
      <trkpt lat="51.66643001139164" lon="0.486863013356924">
        <ele>68</ele>
        <time>2018-02-19T10:44:31Z</time>
      </trkpt>
      <trkpt lat="51.666438980028033" lon="0.486894026398659">
        <ele>68</ele>
        <time>2018-02-19T10:44:32Z</time>
      </trkpt>
      <trkpt lat="51.666449960321188" lon="0.486925039440393">
        <ele>68</ele>
        <time>2018-02-19T10:44:33Z</time>
      </trkpt>
      <trkpt lat="51.666462030261755" lon="0.486954962834716">
        <ele>68</ele>
        <time>2018-02-19T10:44:34Z</time>
      </trkpt>
      <trkpt lat="51.666472004726529" lon="0.486985975876451">
        <ele>68</ele>
        <time>2018-02-19T10:44:35Z</time>
      </trkpt>
      <trkpt lat="51.666479967534542" lon="0.487013971433043">
        <ele>68</ele>
        <time>2018-02-19T10:44:36Z</time>
      </trkpt>
      <trkpt lat="51.666490025818348" lon="0.487042972818017">
        <ele>68</ele>
        <time>2018-02-19T10:44:37Z</time>
      </trkpt>
      <trkpt lat="51.666501006111503" lon="0.487071974202991">
        <ele>68</ele>
        <time>2018-02-19T10:44:38Z</time>
      </trkpt>
      <trkpt lat="51.666511986404657" lon="0.487098963931203">
        <ele>68</ele>
        <time>2018-02-19T10:44:39Z</time>
      </trkpt>
      <trkpt lat="51.666523972526193" lon="0.487127965316176">
        <ele>68</ele>
        <time>2018-02-19T10:44:40Z</time>
      </trkpt>
      <trkpt lat="51.666535036638379" lon="0.48715503886342">
        <ele>68</ele>
        <time>2018-02-19T10:44:41Z</time>
      </trkpt>
      <trkpt lat="51.666549034416676" lon="0.487180016934872">
        <ele>68</ele>
        <time>2018-02-19T10:44:42Z</time>
      </trkpt>
      <trkpt lat="51.666562026366591" lon="0.487208012491465">
        <ele>68</ele>
        <time>2018-02-19T10:44:43Z</time>
      </trkpt>
      <trkpt lat="51.666572000831366" lon="0.487232990562916">
        <ele>68</ele>
        <time>2018-02-19T10:44:44Z</time>
      </trkpt>
      <trkpt lat="51.66658298112452" lon="0.487259980291128">
        <ele>68</ele>
        <time>2018-02-19T10:44:45Z</time>
      </trkpt>
      <trkpt lat="51.666592033579946" lon="0.487286970019341">
        <ele>68</ele>
        <time>2018-02-19T10:44:46Z</time>
      </trkpt>
      <trkpt lat="51.66660200804472" lon="0.487313959747553">
        <ele>68</ele>
        <time>2018-02-19T10:44:47Z</time>
      </trkpt>
      <trkpt lat="51.666610976681113" lon="0.487342961132526">
        <ele>68</ele>
        <time>2018-02-19T10:44:48Z</time>
      </trkpt>
      <trkpt lat="51.666618017479777" lon="0.4873719625175">
        <ele>68</ele>
        <time>2018-02-19T10:44:49Z</time>
      </trkpt>
      <trkpt lat="51.666626986116171" lon="0.487400963902473">
        <ele>68</ele>
        <time>2018-02-19T10:44:50Z</time>
      </trkpt>
      <trkpt lat="51.666636038571596" lon="0.487430971115828">
        <ele>68</ele>
        <time>2018-02-19T10:44:51Z</time>
      </trkpt>
      <trkpt lat="51.666644001379609" lon="0.48745796084404">
        <ele>68</ele>
        <time>2018-02-19T10:44:52Z</time>
      </trkpt>
      <trkpt lat="51.666662022471428" lon="0.487506994977593">
        <ele>68.991153249283499</ele>
        <time>2018-02-19T10:44:54Z</time>
      </trkpt>
      <trkpt lat="51.666676020249724" lon="0.487529961392283">
        <ele>69</ele>
        <time>2018-02-19T10:44:55Z</time>
      </trkpt>
      <trkpt lat="51.666690018028021" lon="0.487553011626005">
        <ele>69</ele>
        <time>2018-02-19T10:44:56Z</time>
      </trkpt>
      <trkpt lat="51.666704015806317" lon="0.487577989697456">
        <ele>69</ele>
        <time>2018-02-19T10:44:57Z</time>
      </trkpt>
      <trkpt lat="51.666718013584614" lon="0.487601961940527">
        <ele>69</ele>
        <time>2018-02-19T10:44:58Z</time>
      </trkpt>
      <trkpt lat="51.666729999706149" lon="0.48762802965939">
        <ele>69</ele>
        <time>2018-02-19T10:44:59Z</time>
      </trkpt>
      <trkpt lat="51.666741985827684" lon="0.487653007730842">
        <ele>69</ele>
        <time>2018-02-19T10:45:00Z</time>
      </trkpt>
      <trkpt lat="51.6667549777776" lon="0.487675974145532">
        <ele>69</ele>
        <time>2018-02-19T10:45:01Z</time>
      </trkpt>
      <trkpt lat="51.666766963899136" lon="0.487702041864395">
        <ele>69</ele>
        <time>2018-02-19T10:45:02Z</time>
      </trkpt>
      <trkpt lat="51.666779033839703" lon="0.487726014107466">
        <ele>69</ele>
        <time>2018-02-19T10:45:03Z</time>
      </trkpt>
      <trkpt lat="51.666792025789618" lon="0.487748980522156">
        <ele>69</ele>
        <time>2018-02-19T10:45:04Z</time>
      </trkpt>
      <trkpt lat="51.666805017739534" lon="0.487775970250368">
        <ele>69</ele>
        <time>2018-02-19T10:45:05Z</time>
      </trkpt>
      <trkpt lat="51.666825972497463" lon="0.48782299272716">
        <ele>69</ele>
        <time>2018-02-19T10:45:07Z</time>
      </trkpt>
      <trkpt lat="51.666838964447379" lon="0.487848976626992">
        <ele>69</ele>
        <time>2018-02-19T10:45:08Z</time>
      </trkpt>
      <trkpt lat="51.666850028559566" lon="0.487874038517475">
        <ele>69</ele>
        <time>2018-02-19T10:45:09Z</time>
      </trkpt>
      <trkpt lat="51.666862014681101" lon="0.487900022417307">
        <ele>69</ele>
        <time>2018-02-19T10:45:10Z</time>
      </trkpt>
      <trkpt lat="51.666875006631017" lon="0.487925000488758">
        <ele>69</ele>
        <time>2018-02-19T10:45:11Z</time>
      </trkpt>
      <trkpt lat="51.666887998580933" lon="0.487949978560209">
        <ele>69</ele>
        <time>2018-02-19T10:45:12Z</time>
      </trkpt>
      <trkpt lat="51.666901996359229" lon="0.487975962460041">
        <ele>69</ele>
        <time>2018-02-19T10:45:13Z</time>
      </trkpt>
      <trkpt lat="51.666914988309145" lon="0.488002030178905">
        <ele>69</ele>
        <time>2018-02-19T10:45:14Z</time>
      </trkpt>
      <trkpt lat="51.666932003572583" lon="0.488032037392259">
        <ele>69</ele>
        <time>2018-02-19T10:45:15Z</time>
      </trkpt>
      <trkpt lat="51.666943989694118" lon="0.48805802129209">
        <ele>69</ele>
        <time>2018-02-19T10:45:16Z</time>
      </trkpt>
      <trkpt lat="51.666955975815654" lon="0.488082999363542">
        <ele>69</ele>
        <time>2018-02-19T10:45:17Z</time>
      </trkpt>
      <trkpt lat="51.666965028271079" lon="0.488114012405276">
        <ele>69</ele>
        <time>2018-02-19T10:45:18Z</time>
      </trkpt>
      <trkpt lat="51.666973996907473" lon="0.48814301379025">
        <ele>69</ele>
        <time>2018-02-19T10:45:19Z</time>
      </trkpt>
      <trkpt lat="51.666986988857388" lon="0.488171009346843">
        <ele>69</ele>
        <time>2018-02-19T10:45:20Z</time>
      </trkpt>
      <trkpt lat="51.666997969150543" lon="0.488196993246675">
        <ele>69</ele>
        <time>2018-02-19T10:45:21Z</time>
      </trkpt>
      <trkpt lat="51.66701003909111" lon="0.488219037652016">
        <ele>69</ele>
        <time>2018-02-19T10:45:22Z</time>
      </trkpt>
      <trkpt lat="51.667023031041026" lon="0.488240998238325">
        <ele>69</ele>
        <time>2018-02-19T10:45:23Z</time>
      </trkpt>
      <trkpt lat="51.667035017162561" lon="0.488265976309776">
        <ele>69</ele>
        <time>2018-02-19T10:45:24Z</time>
      </trkpt>
      <trkpt lat="51.667047003284097" lon="0.488289026543498">
        <ele>69</ele>
        <time>2018-02-19T10:45:25Z</time>
      </trkpt>
      <trkpt lat="51.667058989405632" lon="0.488311992958188">
        <ele>69</ele>
        <time>2018-02-19T10:45:26Z</time>
      </trkpt>
      <trkpt lat="51.667069969698787" lon="0.488336971029639">
        <ele>69</ele>
        <time>2018-02-19T10:45:27Z</time>
      </trkpt>
      <trkpt lat="51.667080027982593" lon="0.488362032920122">
        <ele>69</ele>
        <time>2018-02-19T10:45:28Z</time>
      </trkpt>
      <trkpt lat="51.667088996618986" lon="0.488389022648335">
        <ele>69</ele>
        <time>2018-02-19T10:45:29Z</time>
      </trkpt>
      <trkpt lat="51.667109029367566" lon="0.488439984619617">
        <ele>69</ele>
        <time>2018-02-19T10:45:31Z</time>
      </trkpt>
      <trkpt lat="51.667116992175579" lon="0.488468986004591">
        <ele>69</ele>
        <time>2018-02-19T10:45:32Z</time>
      </trkpt>
      <trkpt lat="51.667134007439017" lon="0.488520031794906">
        <ele>69</ele>
        <time>2018-02-19T10:45:34Z</time>
      </trkpt>
      <trkpt lat="51.66714197024703" lon="0.488547021523118">
        <ele>69</ele>
        <time>2018-02-19T10:45:35Z</time>
      </trkpt>
      <trkpt lat="51.667152028530836" lon="0.48857300542295">
        <ele>69</ele>
        <time>2018-02-19T10:45:36Z</time>
      </trkpt>
      <trkpt lat="51.66716099716723" lon="0.488602006807923">
        <ele>69</ele>
        <time>2018-02-19T10:45:37Z</time>
      </trkpt>
      <trkpt lat="51.667170971632004" lon="0.488630002364516">
        <ele>69</ele>
        <time>2018-02-19T10:45:38Z</time>
      </trkpt>
      <trkpt lat="51.667180024087429" lon="0.488657997921109">
        <ele>69</ele>
        <time>2018-02-19T10:45:39Z</time>
      </trkpt>
      <trkpt lat="51.667188992723823" lon="0.488690016791224">
        <ele>69</ele>
        <time>2018-02-19T10:45:40Z</time>
      </trkpt>
      <trkpt lat="51.667197039350867" lon="0.488721029832959">
        <ele>69</ele>
        <time>2018-02-19T10:45:41Z</time>
      </trkpt>
      <trkpt lat="51.66720500215888" lon="0.488751037046313">
        <ele>69</ele>
        <time>2018-02-19T10:45:42Z</time>
      </trkpt>
      <trkpt lat="51.667214976623654" lon="0.488780038431287">
        <ele>69</ele>
        <time>2018-02-19T10:45:43Z</time>
      </trkpt>
      <trkpt lat="51.66722402907908" lon="0.48880903981626">
        <ele>69</ele>
        <time>2018-02-19T10:45:44Z</time>
      </trkpt>
      <trkpt lat="51.667235009372234" lon="0.488837035372853">
        <ele>69</ele>
        <time>2018-02-19T10:45:45Z</time>
      </trkpt>
      <trkpt lat="51.667244983837008" lon="0.488866036757827">
        <ele>69</ele>
        <time>2018-02-19T10:45:46Z</time>
      </trkpt>
      <trkpt lat="51.667256969958544" lon="0.488891014829278">
        <ele>69</ele>
        <time>2018-02-19T10:45:47Z</time>
      </trkpt>
      <trkpt lat="51.66726702824235" lon="0.488919010385871">
        <ele>69</ele>
        <time>2018-02-19T10:45:48Z</time>
      </trkpt>
      <trkpt lat="51.667274991050363" lon="0.488950023427606">
        <ele>68.879999999999995</ele>
        <time>2018-02-19T10:45:49Z</time>
      </trkpt>
      <trkpt lat="51.667283959686756" lon="0.488976007327437">
        <ele>68</ele>
        <time>2018-02-19T10:45:50Z</time>
      </trkpt>
      <trkpt lat="51.667293012142181" lon="0.488999979570508">
        <ele>68</ele>
        <time>2018-02-19T10:45:51Z</time>
      </trkpt>
      <trkpt lat="51.667303992435336" lon="0.489025041460991">
        <ele>68</ele>
        <time>2018-02-19T10:45:52Z</time>
      </trkpt>
      <trkpt lat="51.667317990213633" lon="0.489049013704062">
        <ele>68</ele>
        <time>2018-02-19T10:45:53Z</time>
      </trkpt>
      <trkpt lat="51.667331987991929" lon="0.489077009260654">
        <ele>68</ele>
        <time>2018-02-19T10:45:54Z</time>
      </trkpt>
      <trkpt lat="51.667345985770226" lon="0.489103998988867">
        <ele>68</ele>
        <time>2018-02-19T10:45:55Z</time>
      </trkpt>
      <trkpt lat="51.66735696606338" lon="0.489130988717079">
        <ele>68</ele>
        <time>2018-02-19T10:45:56Z</time>
      </trkpt>
      <trkpt lat="51.667368030175567" lon="0.489160995930433">
        <ele>68</ele>
        <time>2018-02-19T10:45:57Z</time>
      </trkpt>
      <trkpt lat="51.667378004640341" lon="0.489187985658646">
        <ele>68</ele>
        <time>2018-02-19T10:45:58Z</time>
      </trkpt>
      <trkpt lat="51.667387979105115" lon="0.48921899870038">
        <ele>68</ele>
        <time>2018-02-19T10:45:59Z</time>
      </trkpt>
      <trkpt lat="51.66739895939827" lon="0.489248000085354">
        <ele>68</ele>
        <time>2018-02-19T10:46:00Z</time>
      </trkpt>
      <trkpt lat="51.667413040995598" lon="0.489275995641947">
        <ele>67.890909725616098</ele>
        <time>2018-02-19T10:46:01Z</time>
      </trkpt>
      <trkpt lat="51.667426032945514" lon="0.48930399119854">
        <ele>67</ele>
        <time>2018-02-19T10:46:02Z</time>
      </trkpt>
      <trkpt lat="51.667438019067049" lon="0.489330980926752">
        <ele>67</ele>
        <time>2018-02-19T10:46:03Z</time>
      </trkpt>
      <trkpt lat="51.667448999360204" lon="0.489361993968487">
        <ele>67</ele>
        <time>2018-02-19T10:46:04Z</time>
      </trkpt>
      <trkpt lat="51.667459979653358" lon="0.489393007010221">
        <ele>67</ele>
        <time>2018-02-19T10:46:05Z</time>
      </trkpt>
      <trkpt lat="51.667472971603274" lon="0.489424020051956">
        <ele>66.879999999999995</ele>
        <time>2018-02-19T10:46:06Z</time>
      </trkpt>
      <trkpt lat="51.667485041543841" lon="0.489455033093691">
        <ele>66</ele>
        <time>2018-02-19T10:46:07Z</time>
      </trkpt>
      <trkpt lat="51.667496021836996" lon="0.489484034478664">
        <ele>66</ele>
        <time>2018-02-19T10:46:08Z</time>
      </trkpt>
      <trkpt lat="51.667508007958531" lon="0.489514041692019">
        <ele>66</ele>
        <time>2018-02-19T10:46:09Z</time>
      </trkpt>
      <trkpt lat="51.667518988251686" lon="0.489543965086341">
        <ele>66</ele>
        <time>2018-02-19T10:46:10Z</time>
      </trkpt>
      <trkpt lat="51.667529968544841" lon="0.489571038633585">
        <ele>66</ele>
        <time>2018-02-19T10:46:11Z</time>
      </trkpt>
      <trkpt lat="51.667542038485408" lon="0.489600040018559">
        <ele>66</ele>
        <time>2018-02-19T10:46:12Z</time>
      </trkpt>
      <trkpt lat="51.667556036263704" lon="0.489628035575151">
        <ele>66</ele>
        <time>2018-02-19T10:46:13Z</time>
      </trkpt>
      <trkpt lat="51.66756802238524" lon="0.489655025303364">
        <ele>66</ele>
        <time>2018-02-19T10:46:14Z</time>
      </trkpt>
      <trkpt lat="51.667580008506775" lon="0.489685032516718">
        <ele>66</ele>
        <time>2018-02-19T10:46:15Z</time>
      </trkpt>
      <trkpt lat="51.667593000456691" lon="0.489713028073311">
        <ele>66</ele>
        <time>2018-02-19T10:46:16Z</time>
      </trkpt>
      <trkpt lat="51.667605992406607" lon="0.489739011973143">
        <ele>66</ele>
        <time>2018-02-19T10:46:17Z</time>
      </trkpt>
      <trkpt lat="51.667617978528142" lon="0.489764995872974">
        <ele>66</ele>
        <time>2018-02-19T10:46:18Z</time>
      </trkpt>
      <trkpt lat="51.667630970478058" lon="0.489793997257948">
        <ele>66</ele>
        <time>2018-02-19T10:46:19Z</time>
      </trkpt>
      <trkpt lat="51.667642034590244" lon="0.489826016128063">
        <ele>66</ele>
        <time>2018-02-19T10:46:20Z</time>
      </trkpt>
      <trkpt lat="51.667652009055018" lon="0.489858034998178">
        <ele>66</ele>
        <time>2018-02-19T10:46:21Z</time>
      </trkpt>
      <trkpt lat="51.667663995176554" lon="0.489886030554771">
        <ele>66</ele>
        <time>2018-02-19T10:46:22Z</time>
      </trkpt>
      <trkpt lat="51.667673969641328" lon="0.489916037768126">
        <ele>66</ele>
        <time>2018-02-19T10:46:23Z</time>
      </trkpt>
      <trkpt lat="51.667684027925134" lon="0.489944033324718">
        <ele>66</ele>
        <time>2018-02-19T10:46:24Z</time>
      </trkpt>
      <trkpt lat="51.667695008218288" lon="0.489974040538073">
        <ele>66</ele>
        <time>2018-02-19T10:46:25Z</time>
      </trkpt>
      <trkpt lat="51.667704982683063" lon="0.490001030266285">
        <ele>65.879999999999995</ele>
        <time>2018-02-19T10:46:26Z</time>
      </trkpt>
      <trkpt lat="51.667715962976217" lon="0.490028019994497">
        <ele>65</ele>
        <time>2018-02-19T10:46:27Z</time>
      </trkpt>
      <trkpt lat="51.667727027088404" lon="0.490057021379471">
        <ele>65</ele>
        <time>2018-02-19T10:46:28Z</time>
      </trkpt>
      <trkpt lat="51.667734989896417" lon="0.490083005279303">
        <ele>65</ele>
        <time>2018-02-19T10:46:29Z</time>
      </trkpt>
      <trkpt lat="51.667737001553178" lon="0.490138996392488">
        <ele>65</ele>
        <time>2018-02-19T10:46:31Z</time>
      </trkpt>
      <trkpt lat="51.66772099211812" lon="0.490186018869281">
        <ele>65</ele>
        <time>2018-02-19T10:46:33Z</time>
      </trkpt>
      <trkpt lat="51.66769802570343" lon="0.490212002769113">
        <ele>65</ele>
        <time>2018-02-19T10:46:35Z</time>
      </trkpt>
      <trkpt lat="51.667675981298089" lon="0.490230023860931">
        <ele>65</ele>
        <time>2018-02-19T10:46:37Z</time>
      </trkpt>
      <trkpt lat="51.667656032368541" lon="0.490251984447241">
        <ele>65</ele>
        <time>2018-02-19T10:46:39Z</time>
      </trkpt>
      <trkpt lat="51.667635999619961" lon="0.490280985832214">
        <ele>65</ele>
        <time>2018-02-19T10:46:41Z</time>
      </trkpt>
      <trkpt lat="51.667622001841664" lon="0.490319039672613">
        <ele>65</ele>
        <time>2018-02-19T10:46:43Z</time>
      </trkpt>
      <trkpt lat="51.667618984356523" lon="0.490348041057587">
        <ele>65</ele>
        <time>2018-02-19T10:46:44Z</time>
      </trkpt>
      <trkpt lat="51.667618984356523" lon="0.490376958623528">
        <ele>65</ele>
        <time>2018-02-19T10:46:45Z</time>
      </trkpt>
      <trkpt lat="51.667628036811948" lon="0.490432027727365">
        <ele>65</ele>
        <time>2018-02-19T10:46:47Z</time>
      </trkpt>
      <trkpt lat="51.667640022933483" lon="0.490488018840551">
        <ele>64</ele>
        <time>2018-02-19T10:46:49Z</time>
      </trkpt>
      <trkpt lat="51.667651003226638" lon="0.490520959720016">
        <ele>64</ele>
        <time>2018-02-19T10:46:50Z</time>
      </trkpt>
      <trkpt lat="51.667661983519793" lon="0.49055096693337">
        <ele>64</ele>
        <time>2018-02-19T10:46:51Z</time>
      </trkpt>
      <trkpt lat="51.667675981298089" lon="0.490579968318343">
        <ele>64</ele>
        <time>2018-02-19T10:46:52Z</time>
      </trkpt>
      <trkpt lat="51.667691990733147" lon="0.490607041865587">
        <ele>64</ele>
        <time>2018-02-19T10:46:53Z</time>
      </trkpt>
      <trkpt lat="51.667706994339824" lon="0.49063503742218">
        <ele>64</ele>
        <time>2018-02-19T10:46:54Z</time>
      </trkpt>
      <trkpt lat="51.667717974632978" lon="0.490664038807154">
        <ele>64</ele>
        <time>2018-02-19T10:46:55Z</time>
      </trkpt>
      <trkpt lat="51.667729960754514" lon="0.490693962201476">
        <ele>64</ele>
        <time>2018-02-19T10:46:56Z</time>
      </trkpt>
      <trkpt lat="51.6677410248667" lon="0.490722041577101">
        <ele>64</ele>
        <time>2018-02-19T10:46:57Z</time>
      </trkpt>
      <trkpt lat="51.667752005159855" lon="0.490749031305313">
        <ele>63.890908456194701</ele>
        <time>2018-02-19T10:46:58Z</time>
      </trkpt>
      <trkpt lat="51.667761979624629" lon="0.490778032690287">
        <ele>63</ele>
        <time>2018-02-19T10:46:59Z</time>
      </trkpt>
      <trkpt lat="51.667772037908435" lon="0.49080602824688">
        <ele>63</ele>
        <time>2018-02-19T10:47:00Z</time>
      </trkpt>
      <trkpt lat="51.667780000716448" lon="0.490837041288614">
        <ele>63</ele>
        <time>2018-02-19T10:47:01Z</time>
      </trkpt>
      <trkpt lat="51.667788969352841" lon="0.490865036845207">
        <ele>63</ele>
        <time>2018-02-19T10:47:02Z</time>
      </trkpt>
      <trkpt lat="51.667798021808267" lon="0.490894038230181">
        <ele>62.881187742377001</ele>
        <time>2018-02-19T10:47:03Z</time>
      </trkpt>
      <trkpt lat="51.667803972959518" lon="0.490921027958393">
        <ele>62</ele>
        <time>2018-02-19T10:47:04Z</time>
      </trkpt>
      <trkpt lat="51.667815037071705" lon="0.490950029343367">
        <ele>62</ele>
        <time>2018-02-19T10:47:05Z</time>
      </trkpt>
      <trkpt lat="51.66782702319324" lon="0.490980036556721">
        <ele>62</ele>
        <time>2018-02-19T10:47:06Z</time>
      </trkpt>
      <trkpt lat="51.667835991829634" lon="0.491009037941694">
        <ele>62</ele>
        <time>2018-02-19T10:47:07Z</time>
      </trkpt>
      <trkpt lat="51.667844960466027" lon="0.491038039326668">
        <ele>62</ele>
        <time>2018-02-19T10:47:08Z</time>
      </trkpt>
      <trkpt lat="51.667857030406594" lon="0.4910640232265">
        <ele>62</ele>
        <time>2018-02-19T10:47:09Z</time>
      </trkpt>
      <trkpt lat="51.66786901652813" lon="0.491092018783093">
        <ele>62</ele>
        <time>2018-02-19T10:47:10Z</time>
      </trkpt>
      <trkpt lat="51.667881002649665" lon="0.491121020168066">
        <ele>62</ele>
        <time>2018-02-19T10:47:11Z</time>
      </trkpt>
      <trkpt lat="51.667893994599581" lon="0.491148009896278">
        <ele>62</ele>
        <time>2018-02-19T10:47:12Z</time>
      </trkpt>
      <trkpt lat="51.667906986549497" lon="0.491180028766394">
        <ele>62</ele>
        <time>2018-02-19T10:47:13Z</time>
      </trkpt>
      <trkpt lat="51.667917966842651" lon="0.491213975474238">
        <ele>62</ele>
        <time>2018-02-19T10:47:14Z</time>
      </trkpt>
      <trkpt lat="51.667930958792567" lon="0.491243982687593">
        <ele>62</ele>
        <time>2018-02-19T10:47:15Z</time>
      </trkpt>
      <trkpt lat="51.667943028733134" lon="0.491273989900947">
        <ele>62</ele>
        <time>2018-02-19T10:47:16Z</time>
      </trkpt>
      <trkpt lat="51.66795501485467" lon="0.491300979629159">
        <ele>62</ele>
        <time>2018-02-19T10:47:17Z</time>
      </trkpt>
      <trkpt lat="51.667967000976205" lon="0.491328975185752">
        <ele>62</ele>
        <time>2018-02-19T10:47:18Z</time>
      </trkpt>
      <trkpt lat="51.66797898709774" lon="0.491356970742345">
        <ele>62</ele>
        <time>2018-02-19T10:47:19Z</time>
      </trkpt>
      <trkpt lat="51.667991979047656" lon="0.491383038461208">
        <ele>62</ele>
        <time>2018-02-19T10:47:20Z</time>
      </trkpt>
      <trkpt lat="51.668003965169191" lon="0.491412039846182">
        <ele>62</ele>
        <time>2018-02-19T10:47:21Z</time>
      </trkpt>
      <trkpt lat="51.668017040938139" lon="0.491441041231155">
        <ele>62</ele>
        <time>2018-02-19T10:47:22Z</time>
      </trkpt>
      <trkpt lat="51.668031038716435" lon="0.491469036787748">
        <ele>62</ele>
        <time>2018-02-19T10:47:23Z</time>
      </trkpt>
      <trkpt lat="51.668045958504081" lon="0.491497032344341">
        <ele>62</ele>
        <time>2018-02-19T10:47:24Z</time>
      </trkpt>
      <trkpt lat="51.668060040101409" lon="0.491524022072554">
        <ele>62</ele>
        <time>2018-02-19T10:47:25Z</time>
      </trkpt>
      <trkpt lat="51.668072026222944" lon="0.491554029285908">
        <ele>62</ele>
        <time>2018-02-19T10:47:26Z</time>
      </trkpt>
      <trkpt lat="51.66808401234448" lon="0.491582024842501">
        <ele>62</ele>
        <time>2018-02-19T10:47:27Z</time>
      </trkpt>
      <trkpt lat="51.668098010122776" lon="0.491609014570713">
        <ele>62</ele>
        <time>2018-02-19T10:47:28Z</time>
      </trkpt>
      <trkpt lat="51.668109996244311" lon="0.491640027612448">
        <ele>62</ele>
        <time>2018-02-19T10:47:29Z</time>
      </trkpt>
      <trkpt lat="51.668119970709085" lon="0.491670034825802">
        <ele>62</ele>
        <time>2018-02-19T10:47:30Z</time>
      </trkpt>
      <trkpt lat="51.668132040649652" lon="0.491700964048505">
        <ele>62</ele>
        <time>2018-02-19T10:47:31Z</time>
      </trkpt>
      <trkpt lat="51.668142015114427" lon="0.491729965433478">
        <ele>62</ele>
        <time>2018-02-19T10:47:32Z</time>
      </trkpt>
      <trkpt lat="51.668154001235962" lon="0.491758966818452">
        <ele>62</ele>
        <time>2018-02-19T10:47:33Z</time>
      </trkpt>
      <trkpt lat="51.668162969872355" lon="0.491788974031806">
        <ele>62</ele>
        <time>2018-02-19T10:47:34Z</time>
      </trkpt>
      <trkpt lat="51.668172022327781" lon="0.491820992901921">
        <ele>61.880000000000003</ele>
        <time>2018-02-19T10:47:35Z</time>
      </trkpt>
      <trkpt lat="51.668179985135794" lon="0.491852005943656">
        <ele>61</ele>
        <time>2018-02-19T10:47:36Z</time>
      </trkpt>
      <trkpt lat="51.668189959600568" lon="0.491883018985391">
        <ele>61</ele>
        <time>2018-02-19T10:47:37Z</time>
      </trkpt>
      <trkpt lat="51.668201023712754" lon="0.491909002885222">
        <ele>61</ele>
        <time>2018-02-19T10:47:38Z</time>
      </trkpt>
      <trkpt lat="51.66821300983429" lon="0.491933980956674">
        <ele>61</ele>
        <time>2018-02-19T10:47:39Z</time>
      </trkpt>
      <trkpt lat="51.668224995955825" lon="0.491958037018776">
        <ele>61</ele>
        <time>2018-02-19T10:47:40Z</time>
      </trkpt>
      <trkpt lat="51.668247040361166" lon="0.492001036182046">
        <ele>60</ele>
        <time>2018-02-19T10:47:42Z</time>
      </trkpt>
      <trkpt lat="51.66825701482594" lon="0.492024002596736">
        <ele>60</ele>
        <time>2018-02-19T10:47:43Z</time>
      </trkpt>
      <trkpt lat="51.668266989290714" lon="0.492049986496568">
        <ele>60.011232399936702</ele>
        <time>2018-02-19T10:47:44Z</time>
      </trkpt>
      <trkpt lat="51.66827897541225" lon="0.492078987881541">
        <ele>61</ele>
        <time>2018-02-19T10:47:45Z</time>
      </trkpt>
      <trkpt lat="51.668290961533785" lon="0.492106983438134">
        <ele>60.8888888888889</ele>
        <time>2018-02-19T10:47:46Z</time>
      </trkpt>
      <trkpt lat="51.668302025645971" lon="0.492134978994727">
        <ele>60</ele>
        <time>2018-02-19T10:47:47Z</time>
      </trkpt>
      <trkpt lat="51.668310994282365" lon="0.49216297455132">
        <ele>60</ele>
        <time>2018-02-19T10:47:48Z</time>
      </trkpt>
      <trkpt lat="51.66832197457552" lon="0.492191975936294">
        <ele>60</ele>
        <time>2018-02-19T10:47:49Z</time>
      </trkpt>
      <trkpt lat="51.668331027030945" lon="0.492217959836125">
        <ele>60</ele>
        <time>2018-02-19T10:47:50Z</time>
      </trkpt>
      <trkpt lat="51.66834301315248" lon="0.492245033383369">
        <ele>60</ele>
        <time>2018-02-19T10:47:51Z</time>
      </trkpt>
      <trkpt lat="51.668361034244299" lon="0.492293983697891">
        <ele>60</ele>
        <time>2018-02-19T10:47:53Z</time>
      </trkpt>
      <trkpt lat="51.668372014537454" lon="0.492318961769342">
        <ele>60</ele>
        <time>2018-02-19T10:47:54Z</time>
      </trkpt>
      <trkpt lat="51.66838601231575" lon="0.492342012003064">
        <ele>60</ele>
        <time>2018-02-19T10:47:55Z</time>
      </trkpt>
      <trkpt lat="51.668397998437285" lon="0.492366990074515">
        <ele>60</ele>
        <time>2018-02-19T10:47:56Z</time>
      </trkpt>
      <trkpt lat="51.668409984558821" lon="0.492390040308237">
        <ele>60</ele>
        <time>2018-02-19T10:47:57Z</time>
      </trkpt>
      <trkpt lat="51.66842800565064" lon="0.492416024208069">
        <ele>60</ele>
        <time>2018-02-19T10:47:58Z</time>
      </trkpt>
      <trkpt lat="51.668446026742458" lon="0.492437984794378">
        <ele>60</ele>
        <time>2018-02-19T10:47:59Z</time>
      </trkpt>
      <trkpt lat="51.668462958186865" lon="0.4924610350281">
        <ele>60</ele>
        <time>2018-02-19T10:48:00Z</time>
      </trkpt>
      <trkpt lat="51.668478967621922" lon="0.492482995614409">
        <ele>60</ele>
        <time>2018-02-19T10:48:01Z</time>
      </trkpt>
      <trkpt lat="51.6684939712286" lon="0.492502022534609">
        <ele>60</ele>
        <time>2018-02-19T10:48:02Z</time>
      </trkpt>
      <trkpt lat="51.668506963178515" lon="0.492524988949299">
        <ele>60</ele>
        <time>2018-02-19T10:48:03Z</time>
      </trkpt>
      <trkpt lat="51.668519033119082" lon="0.492548039183021">
        <ele>59.988767600063298</ele>
        <time>2018-02-19T10:48:04Z</time>
      </trkpt>
      <trkpt lat="51.668539987877011" lon="0.492589026689529">
        <ele>59</ele>
        <time>2018-02-19T10:48:06Z</time>
      </trkpt>
      <trkpt lat="51.668549962341785" lon="0.492618028074503">
        <ele>59</ele>
        <time>2018-02-19T10:48:07Z</time>
      </trkpt>
      <trkpt lat="51.668562032282352" lon="0.492638982832432">
        <ele>59</ele>
        <time>2018-02-19T10:48:08Z</time>
      </trkpt>
      <trkpt lat="51.668575024232268" lon="0.492660021409392">
        <ele>59</ele>
        <time>2018-02-19T10:48:09Z</time>
      </trkpt>
      <trkpt lat="51.668590027838945" lon="0.492679970338941">
        <ele>59</ele>
        <time>2018-02-19T10:48:10Z</time>
      </trkpt>
      <trkpt lat="51.668604025617242" lon="0.49269899725914">
        <ele>59</ele>
        <time>2018-02-19T10:48:11Z</time>
      </trkpt>
      <trkpt lat="51.668617017567158" lon="0.492720035836101">
        <ele>59</ele>
        <time>2018-02-19T10:48:12Z</time>
      </trkpt>
      <trkpt lat="51.668632021173835" lon="0.49274199642241">
        <ele>59</ele>
        <time>2018-02-19T10:48:13Z</time>
      </trkpt>
      <trkpt lat="51.668648030608892" lon="0.49276202917099">
        <ele>59</ele>
        <time>2018-02-19T10:48:14Z</time>
      </trkpt>
      <trkpt lat="51.66866404004395" lon="0.492780972272158">
        <ele>59</ele>
        <time>2018-02-19T10:48:15Z</time>
      </trkpt>
      <trkpt lat="51.668680971488357" lon="0.492804022505879">
        <ele>59</ele>
        <time>2018-02-19T10:48:16Z</time>
      </trkpt>
      <trkpt lat="51.668694969266653" lon="0.49282799474895">
        <ele>59</ele>
        <time>2018-02-19T10:48:17Z</time>
      </trkpt>
      <trkpt lat="51.668710978701711" lon="0.492851966992021">
        <ele>59</ele>
        <time>2018-02-19T10:48:18Z</time>
      </trkpt>
      <trkpt lat="51.668725982308388" lon="0.492875017225742">
        <ele>59</ele>
        <time>2018-02-19T10:48:19Z</time>
      </trkpt>
      <trkpt lat="51.668741991743445" lon="0.492895971983671">
        <ele>59</ele>
        <time>2018-02-19T10:48:20Z</time>
      </trkpt>
      <trkpt lat="51.668758001178503" lon="0.492922039702535">
        <ele>59</ele>
        <time>2018-02-19T10:48:21Z</time>
      </trkpt>
      <trkpt lat="51.668768981471658" lon="0.492948023602366">
        <ele>59</ele>
        <time>2018-02-19T10:48:22Z</time>
      </trkpt>
      <trkpt lat="51.668781973421574" lon="0.492975013330579">
        <ele>59</ele>
        <time>2018-02-19T10:48:23Z</time>
      </trkpt>
      <trkpt lat="51.668793959543109" lon="0.49299999140203">
        <ele>59</ele>
        <time>2018-02-19T10:48:24Z</time>
      </trkpt>
      <trkpt lat="51.668806029483676" lon="0.493024969473481">
        <ele>59</ele>
        <time>2018-02-19T10:48:25Z</time>
      </trkpt>
      <trkpt lat="51.668819021433592" lon="0.493053970858455">
        <ele>59</ele>
        <time>2018-02-19T10:48:26Z</time>
      </trkpt>
      <trkpt lat="51.668830001726747" lon="0.493080960586667">
        <ele>59</ele>
        <time>2018-02-19T10:48:27Z</time>
      </trkpt>
      <trkpt lat="51.668841987848282" lon="0.493108034133911">
        <ele>59</ele>
        <time>2018-02-19T10:48:28Z</time>
      </trkpt>
      <trkpt lat="51.668853973969817" lon="0.493137035518885">
        <ele>58.885713937413897</ele>
        <time>2018-02-19T10:48:29Z</time>
      </trkpt>
      <trkpt lat="51.668865038082004" lon="0.493166036903858">
        <ele>58</ele>
        <time>2018-02-19T10:48:30Z</time>
      </trkpt>
      <trkpt lat="51.668871995061636" lon="0.49319202080369">
        <ele>58</ele>
        <time>2018-02-19T10:48:31Z</time>
      </trkpt>
      <trkpt lat="51.668876018375158" lon="0.493224039673805">
        <ele>58</ele>
        <time>2018-02-19T10:48:32Z</time>
      </trkpt>
      <trkpt lat="51.668880041688681" lon="0.493256980553269">
        <ele>58</ele>
        <time>2018-02-19T10:48:33Z</time>
      </trkpt>
      <trkpt lat="51.668882975354791" lon="0.493292016908526">
        <ele>58</ele>
        <time>2018-02-19T10:48:34Z</time>
      </trkpt>
      <trkpt lat="51.66888196952641" lon="0.493327975273132">
        <ele>58</ele>
        <time>2018-02-19T10:48:35Z</time>
      </trkpt>
      <trkpt lat="51.66888096369803" lon="0.493360999971628">
        <ele>58</ele>
        <time>2018-02-19T10:48:36Z</time>
      </trkpt>
      <trkpt lat="51.668878030031919" lon="0.493394024670124">
        <ele>58</ele>
        <time>2018-02-19T10:48:37Z</time>
      </trkpt>
      <trkpt lat="51.668876018375158" lon="0.493423026055098">
        <ele>58.119999999999997</ele>
        <time>2018-02-19T10:48:38Z</time>
      </trkpt>
      <trkpt lat="51.668876018375158" lon="0.493453033268452">
        <ele>59</ele>
        <time>2018-02-19T10:48:39Z</time>
      </trkpt>
      <trkpt lat="51.668876018375158" lon="0.493485974147916">
        <ele>59</ele>
        <time>2018-02-19T10:48:40Z</time>
      </trkpt>
      <trkpt lat="51.668874006718397" lon="0.49351598136127">
        <ele>59</ele>
        <time>2018-02-19T10:48:41Z</time>
      </trkpt>
      <trkpt lat="51.668871995061636" lon="0.493564009666443">
        <ele>59.063823413265801</ele>
        <time>2018-02-19T10:48:43Z</time>
      </trkpt>
      <trkpt lat="51.668864032253623" lon="0.493603991344571">
        <ele>60</ele>
        <time>2018-02-19T10:48:45Z</time>
      </trkpt>
      <trkpt lat="51.668851962313056" lon="0.493643973022699">
        <ele>60</ele>
        <time>2018-02-19T10:48:47Z</time>
      </trkpt>
      <trkpt lat="51.668846011161804" lon="0.493678003549576">
        <ele>60</ele>
        <time>2018-02-19T10:48:49Z</time>
      </trkpt>
      <trkpt lat="51.668835030868649" lon="0.493715973570943">
        <ele>59.988767600063298</ele>
        <time>2018-02-19T10:48:51Z</time>
      </trkpt>
      <trkpt lat="51.668833019211888" lon="0.493755033239722">
        <ele>59</ele>
        <time>2018-02-19T10:48:53Z</time>
      </trkpt>
      <trkpt lat="51.668842993676662" lon="0.493789985775948">
        <ele>59</ele>
        <time>2018-02-19T10:48:55Z</time>
      </trkpt>
      <trkpt lat="51.66885799728334" lon="0.493822004646063">
        <ele>59</ele>
        <time>2018-02-19T10:48:57Z</time>
      </trkpt>
      <trkpt lat="51.668870989233255" lon="0.493856035172939">
        <ele>59</ele>
        <time>2018-02-19T10:48:59Z</time>
      </trkpt>
      <trkpt lat="51.668888004496694" lon="0.493871960788965">
        <ele>59</ele>
        <time>2018-02-19T10:49:01Z</time>
      </trkpt>
      <trkpt lat="51.668916000053287" lon="0.493887970224023">
        <ele>59</ele>
        <time>2018-02-19T10:49:03Z</time>
      </trkpt>
      <trkpt lat="51.668933015316725" lon="0.493896016851068">
        <ele>59</ele>
        <time>2018-02-19T10:49:04Z</time>
      </trkpt>
      <trkpt lat="51.668970985338092" lon="0.49390004016459">
        <ele>59</ele>
        <time>2018-02-19T10:49:06Z</time>
      </trkpt>
      <trkpt lat="51.668989006429911" lon="0.493900962173939">
        <ele>59</ele>
        <time>2018-02-19T10:49:07Z</time>
      </trkpt>
      <trkpt lat="51.669009039178491" lon="0.4939029738307">
        <ele>59</ele>
        <time>2018-02-19T10:49:08Z</time>
      </trkpt>
      <trkpt lat="51.6690309997648" lon="0.4939029738307">
        <ele>59</ele>
        <time>2018-02-19T10:49:09Z</time>
      </trkpt>
      <trkpt lat="51.669052038341761" lon="0.4939029738307">
        <ele>59</ele>
        <time>2018-02-19T10:49:10Z</time>
      </trkpt>
      <trkpt lat="51.669076010584831" lon="0.493903979659081">
        <ele>59</ele>
        <time>2018-02-19T10:49:11Z</time>
      </trkpt>
      <trkpt lat="51.669097971171141" lon="0.493904985487461">
        <ele>59</ele>
        <time>2018-02-19T10:49:12Z</time>
      </trkpt>
      <trkpt lat="51.669121021404862" lon="0.493908002972603">
        <ele>59</ele>
        <time>2018-02-19T10:49:13Z</time>
      </trkpt>
      <trkpt lat="51.669142981991172" lon="0.493916971608996">
        <ele>59</ele>
        <time>2018-02-19T10:49:14Z</time>
      </trkpt>
      <trkpt lat="51.669165026396513" lon="0.493928035721183">
        <ele>59</ele>
        <time>2018-02-19T10:49:15Z</time>
      </trkpt>
      <trkpt lat="51.669186986982822" lon="0.493942033499479">
        <ele>59</ele>
        <time>2018-02-19T10:49:16Z</time>
      </trkpt>
      <trkpt lat="51.669207019731402" lon="0.493949996307492">
        <ele>59</ele>
        <time>2018-02-19T10:49:17Z</time>
      </trkpt>
      <trkpt lat="51.669227974489331" lon="0.493956031277776">
        <ele>59</ele>
        <time>2018-02-19T10:49:18Z</time>
      </trkpt>
      <trkpt lat="51.669248007237911" lon="0.493958964943886">
        <ele>59</ele>
        <time>2018-02-19T10:49:19Z</time>
      </trkpt>
      <trkpt lat="51.669267034158111" lon="0.493958964943886">
        <ele>59</ele>
        <time>2018-02-19T10:49:20Z</time>
      </trkpt>
      <trkpt lat="51.66928899474442" lon="0.493963994085789">
        <ele>58.880000000000003</ele>
        <time>2018-02-19T10:49:21Z</time>
      </trkpt>
      <trkpt lat="51.669306010007858" lon="0.493972040712833">
        <ele>58</ele>
        <time>2018-02-19T10:49:22Z</time>
      </trkpt>
      <trkpt lat="51.669325958937407" lon="0.49398603849113">
        <ele>58</ele>
        <time>2018-02-19T10:49:23Z</time>
      </trkpt>
      <trkpt lat="51.669343980029225" lon="0.494002969935536">
        <ele>58</ele>
        <time>2018-02-19T10:49:24Z</time>
      </trkpt>
      <trkpt lat="51.669362001121044" lon="0.494018979370594">
        <ele>58</ele>
        <time>2018-02-19T10:49:25Z</time>
      </trkpt>
      <trkpt lat="51.669379016384482" lon="0.494038006290793">
        <ele>58</ele>
        <time>2018-02-19T10:49:26Z</time>
      </trkpt>
      <trkpt lat="51.669396031647921" lon="0.494055021554232">
        <ele>58</ele>
        <time>2018-02-19T10:49:27Z</time>
      </trkpt>
      <trkpt lat="51.669414974749088" lon="0.494071030989289">
        <ele>58</ele>
        <time>2018-02-19T10:49:28Z</time>
      </trkpt>
      <trkpt lat="51.669431990012527" lon="0.494088968262076">
        <ele>58</ele>
        <time>2018-02-19T10:49:29Z</time>
      </trkpt>
      <trkpt lat="51.669447999447584" lon="0.494104977697134">
        <ele>58</ele>
        <time>2018-02-19T10:49:30Z</time>
      </trkpt>
      <trkpt lat="51.669466020539403" lon="0.494121992960572">
        <ele>58</ele>
        <time>2018-02-19T10:49:31Z</time>
      </trkpt>
      <trkpt lat="51.669484963640571" lon="0.494140014052391">
        <ele>58</ele>
        <time>2018-02-19T10:49:32Z</time>
      </trkpt>
      <trkpt lat="51.66950399056077" lon="0.494157029315829">
        <ele>58</ele>
        <time>2018-02-19T10:49:33Z</time>
      </trkpt>
      <trkpt lat="51.669522011652589" lon="0.494176978245378">
        <ele>58</ele>
        <time>2018-02-19T10:49:34Z</time>
      </trkpt>
      <trkpt lat="51.669539026916027" lon="0.494193993508816">
        <ele>58.119999999999997</ele>
        <time>2018-02-19T10:49:35Z</time>
      </trkpt>
      <trkpt lat="51.669555958360434" lon="0.494211008772254">
        <ele>59</ele>
        <time>2018-02-19T10:49:36Z</time>
      </trkpt>
      <trkpt lat="51.669573979452252" lon="0.494230035692453">
        <ele>59</ele>
        <time>2018-02-19T10:49:37Z</time>
      </trkpt>
      <trkpt lat="51.669592000544071" lon="0.494253002107143">
        <ele>59</ele>
        <time>2018-02-19T10:49:38Z</time>
      </trkpt>
      <trkpt lat="51.669605998322368" lon="0.494276974350214">
        <ele>59</ele>
        <time>2018-02-19T10:49:39Z</time>
      </trkpt>
      <trkpt lat="51.669617984443903" lon="0.494302958250046">
        <ele>59</ele>
        <time>2018-02-19T10:49:40Z</time>
      </trkpt>
      <trkpt lat="51.669628964737058" lon="0.49433397129178">
        <ele>59</ele>
        <time>2018-02-19T10:49:41Z</time>
      </trkpt>
      <trkpt lat="51.669640028849244" lon="0.494364984333515">
        <ele>59</ele>
        <time>2018-02-19T10:49:42Z</time>
      </trkpt>
      <trkpt lat="51.669652014970779" lon="0.494398009032011">
        <ele>59</ele>
        <time>2018-02-19T10:49:43Z</time>
      </trkpt>
      <trkpt lat="51.669664001092315" lon="0.494431033730507">
        <ele>59</ele>
        <time>2018-02-19T10:49:44Z</time>
      </trkpt>
      <trkpt lat="51.669673975557089" lon="0.49446196295321">
        <ele>59</ele>
        <time>2018-02-19T10:49:45Z</time>
      </trkpt>
      <trkpt lat="51.669684033840895" lon="0.494494987651706">
        <ele>59</ele>
        <time>2018-02-19T10:49:46Z</time>
      </trkpt>
      <trkpt lat="51.669693002477288" lon="0.494527006521821">
        <ele>59</ele>
        <time>2018-02-19T10:49:47Z</time>
      </trkpt>
      <trkpt lat="51.669699037447572" lon="0.494556007906795">
        <ele>59</ele>
        <time>2018-02-19T10:49:48Z</time>
      </trkpt>
      <trkpt lat="51.669705994427204" lon="0.494584003463387">
        <ele>59</ele>
        <time>2018-02-19T10:49:49Z</time>
      </trkpt>
      <trkpt lat="51.669712029397488" lon="0.494629014283419">
        <ele>59.854959743609797</ele>
        <time>2018-02-19T10:49:51Z</time>
      </trkpt>
      <trkpt lat="51.669714963063598" lon="0.494672013446689">
        <ele>60</ele>
        <time>2018-02-19T10:49:53Z</time>
      </trkpt>
      <trkpt lat="51.669714041054249" lon="0.494708977639675">
        <ele>60</ele>
        <time>2018-02-19T10:49:55Z</time>
      </trkpt>
      <trkpt lat="51.669716974720359" lon="0.494745019823313">
        <ele>61</ele>
        <time>2018-02-19T10:49:58Z</time>
      </trkpt>
      <trkpt lat="51.669712029397488" lon="0.494951969012618">
        <ele>59.299999237060497</ele>
        <time>2018-02-18T08:24:07Z</time>
      </trkpt>
      <trkpt lat="51.669695014134049" lon="0.494956998154521">
        <ele>62</ele>
        <time>2018-02-18T08:24:09Z</time>
      </trkpt>
      <trkpt lat="51.669716974720359" lon="0.494949035346508">
        <ele>61</ele>
        <time>2018-02-18T08:24:15Z</time>
      </trkpt>
      <trkpt lat="51.669736001640558" lon="0.494961021468043">
        <ele>61</ele>
        <time>2018-02-18T08:24:17Z</time>
      </trkpt>
      <trkpt lat="51.669752011075616" lon="0.494982982054353">
        <ele>61</ele>
        <time>2018-02-18T08:24:19Z</time>
      </trkpt>
      <trkpt lat="51.669765003025532" lon="0.49501902423799">
        <ele>61</ele>
        <time>2018-02-18T08:24:21Z</time>
      </trkpt>
      <trkpt lat="51.669770032167435" lon="0.495065040886402">
        <ele>62</ele>
        <time>2018-02-18T08:24:23Z</time>
      </trkpt>
      <trkpt lat="51.669774977490306" lon="0.495108040049672">
        <ele>62</ele>
        <time>2018-02-18T08:24:25Z</time>
      </trkpt>
      <trkpt lat="51.669776989147067" lon="0.495150033384562">
        <ele>62</ele>
        <time>2018-02-18T08:24:27Z</time>
      </trkpt>
      <trkpt lat="51.669779000803828" lon="0.49519001506269">
        <ele>62</ele>
        <time>2018-02-18T08:24:29Z</time>
      </trkpt>
      <trkpt lat="51.669776989147067" lon="0.495228990912437">
        <ele>62</ele>
        <time>2018-02-18T08:24:31Z</time>
      </trkpt>
      <trkpt lat="51.669775983318686" lon="0.495270984247327">
        <ele>62</ele>
        <time>2018-02-18T08:24:33Z</time>
      </trkpt>
      <trkpt lat="51.669772965833545" lon="0.495312977582216">
        <ele>62</ele>
        <time>2018-02-18T08:24:35Z</time>
      </trkpt>
      <trkpt lat="51.669769026339054" lon="0.495354970917106">
        <ele>62</ele>
        <time>2018-02-18T08:24:37Z</time>
      </trkpt>
      <trkpt lat="51.669767014682293" lon="0.495386989787221">
        <ele>62</ele>
        <time>2018-02-18T08:24:39Z</time>
      </trkpt>
      <trkpt lat="51.669762991368771" lon="0.495422026142478">
        <ele>62</ele>
        <time>2018-02-18T08:24:41Z</time>
      </trkpt>
      <trkpt lat="51.669757962226868" lon="0.495467036962509">
        <ele>62</ele>
        <time>2018-02-18T08:24:43Z</time>
      </trkpt>
      <trkpt lat="51.669754022732377" lon="0.495509030297399">
        <ele>62</ele>
        <time>2018-02-18T08:24:45Z</time>
      </trkpt>
      <trkpt lat="51.669751005247235" lon="0.495548006147146">
        <ele>62</ele>
        <time>2018-02-18T08:24:47Z</time>
      </trkpt>
      <trkpt lat="51.669751005247235" lon="0.495594022795558">
        <ele>62</ele>
        <time>2018-02-18T08:24:49Z</time>
      </trkpt>
      <trkpt lat="51.669754022732377" lon="0.495631992816925">
        <ele>62</ele>
        <time>2018-02-18T08:24:51Z</time>
      </trkpt>
      <trkpt lat="51.669757040217519" lon="0.495668035000563">
        <ele>63</ele>
        <time>2018-02-18T08:24:53Z</time>
      </trkpt>
      <trkpt lat="51.669762991368771" lon="0.495708016678691">
        <ele>63</ele>
        <time>2018-02-18T08:24:55Z</time>
      </trkpt>
      <trkpt lat="51.669759973883629" lon="0.4957490041852">
        <ele>63</ele>
        <time>2018-02-18T08:24:57Z</time>
      </trkpt>
      <trkpt lat="51.669754022732377" lon="0.49579200334847">
        <ele>63</ele>
        <time>2018-02-18T08:24:59Z</time>
      </trkpt>
      <trkpt lat="51.669751005247235" lon="0.495831985026598">
        <ele>63</ele>
        <time>2018-02-18T08:25:01Z</time>
      </trkpt>
      <trkpt lat="51.669753016903996" lon="0.495873978361487">
        <ele>63</ele>
        <time>2018-02-18T08:25:03Z</time>
      </trkpt>
      <trkpt lat="51.669759973883629" lon="0.495913038030267">
        <ele>63</ele>
        <time>2018-02-18T08:25:05Z</time>
      </trkpt>
      <trkpt lat="51.669757962226868" lon="0.495952013880014">
        <ele>63</ele>
        <time>2018-02-18T08:25:07Z</time>
      </trkpt>
      <trkpt lat="51.669751005247235" lon="0.495979003608227">
        <ele>63</ele>
        <time>2018-02-18T08:25:08Z</time>
      </trkpt>
      <trkpt lat="51.669745976105332" lon="0.496024014428258">
        <ele>63</ele>
        <time>2018-02-18T08:25:10Z</time>
      </trkpt>
      <trkpt lat="51.669741030782461" lon="0.496063996106386">
        <ele>63</ele>
        <time>2018-02-18T08:25:12Z</time>
      </trkpt>
      <trkpt lat="51.669741030782461" lon="0.496104983612895">
        <ele>63</ele>
        <time>2018-02-18T08:25:14Z</time>
      </trkpt>
      <trkpt lat="51.669742036610842" lon="0.496148988604546">
        <ele>63</ele>
        <time>2018-02-18T08:25:16Z</time>
      </trkpt>
      <trkpt lat="51.6697390191257" lon="0.496193999424577">
        <ele>64</ele>
        <time>2018-02-18T08:25:18Z</time>
      </trkpt>
      <trkpt lat="51.669740024954081" lon="0.496231969445944">
        <ele>64</ele>
        <time>2018-02-18T08:25:20Z</time>
      </trkpt>
      <trkpt lat="51.669737007468939" lon="0.496271029114723">
        <ele>64</ele>
        <time>2018-02-18T08:25:22Z</time>
      </trkpt>
      <trkpt lat="51.669737007468939" lon="0.496311010792851">
        <ele>64</ele>
        <time>2018-02-18T08:25:24Z</time>
      </trkpt>
      <trkpt lat="51.6697390191257" lon="0.496344035491347">
        <ele>64</ele>
        <time>2018-02-18T08:25:26Z</time>
      </trkpt>
      <trkpt lat="51.669741030782461" lon="0.496388040482998">
        <ele>64</ele>
        <time>2018-02-18T08:25:28Z</time>
      </trkpt>
      <trkpt lat="51.669746981933713" lon="0.496433973312378">
        <ele>64</ele>
        <time>2018-02-18T08:25:30Z</time>
      </trkpt>
      <trkpt lat="51.669751005247235" lon="0.49648099578917">
        <ele>63</ele>
        <time>2018-02-18T08:25:32Z</time>
      </trkpt>
      <trkpt lat="51.669758968055248" lon="0.496536986902356">
        <ele>63</ele>
        <time>2018-02-18T08:25:34Z</time>
      </trkpt>
      <trkpt lat="51.669768020510674" lon="0.496564982458949">
        <ele>63.040403909805498</ele>
        <time>2018-02-18T08:25:35Z</time>
      </trkpt>
      <trkpt lat="51.669775983318686" lon="0.496600018814206">
        <ele>64</ele>
        <time>2018-02-18T08:25:36Z</time>
      </trkpt>
      <trkpt lat="51.669780006632209" lon="0.496640000492334">
        <ele>64</ele>
        <time>2018-02-18T08:25:37Z</time>
      </trkpt>
      <trkpt lat="51.669783024117351" lon="0.496676964685321">
        <ele>64</ele>
        <time>2018-02-18T08:25:38Z</time>
      </trkpt>
      <trkpt lat="51.669786963611841" lon="0.496717030182481">
        <ele>64</ele>
        <time>2018-02-18T08:25:39Z</time>
      </trkpt>
      <trkpt lat="51.669787969440222" lon="0.496751982718706">
        <ele>64</ele>
        <time>2018-02-18T08:25:40Z</time>
      </trkpt>
      <trkpt lat="51.669791992753744" lon="0.496790958568454">
        <ele>63.960940000000001</ele>
        <time>2018-02-18T08:25:41Z</time>
      </trkpt>
      <trkpt lat="51.669799033552408" lon="0.496827000752091">
        <ele>63.179690000000001</ele>
        <time>2018-02-18T08:25:42Z</time>
      </trkpt>
      <trkpt lat="51.669808002188802" lon="0.496858013793826">
        <ele>63</ele>
        <time>2018-02-18T08:25:43Z</time>
      </trkpt>
      <trkpt lat="51.669820994138718" lon="0.496890032663941">
        <ele>63</ele>
        <time>2018-02-18T08:25:44Z</time>
      </trkpt>
      <trkpt lat="51.669829962775111" lon="0.496919034048915">
        <ele>63</ele>
        <time>2018-02-18T08:25:45Z</time>
      </trkpt>
      <trkpt lat="51.669843038544059" lon="0.496951974928379">
        <ele>63</ele>
        <time>2018-02-18T08:25:46Z</time>
      </trkpt>
      <trkpt lat="51.669855024665594" lon="0.496983993798494">
        <ele>63.039999999999999</ele>
        <time>2018-02-18T08:25:47Z</time>
      </trkpt>
      <trkpt lat="51.669869022443891" lon="0.497011989355087">
        <ele>64</ele>
        <time>2018-02-18T08:25:48Z</time>
      </trkpt>
      <trkpt lat="51.669881008565426" lon="0.497037973254919">
        <ele>64</ele>
        <time>2018-02-18T08:25:49Z</time>
      </trkpt>
      <trkpt lat="51.669894000515342" lon="0.497063035145402">
        <ele>64</ele>
        <time>2018-02-18T08:25:50Z</time>
      </trkpt>
      <trkpt lat="51.669909004122019" lon="0.497087007388473">
        <ele>63.959596090194502</ele>
        <time>2018-02-18T08:25:51Z</time>
      </trkpt>
      <trkpt lat="51.669924007728696" lon="0.497112991288304">
        <ele>63</ele>
        <time>2018-02-18T08:25:52Z</time>
      </trkpt>
      <trkpt lat="51.669934988021851" lon="0.497136041522026">
        <ele>63.039999999999999</ele>
        <time>2018-02-18T08:25:53Z</time>
      </trkpt>
      <trkpt lat="51.669944040477276" lon="0.497162025421858">
        <ele>64</ele>
        <time>2018-02-18T08:25:54Z</time>
      </trkpt>
      <trkpt lat="51.669950997456908" lon="0.49718901515007">
        <ele>64</ele>
        <time>2018-02-18T08:25:55Z</time>
      </trkpt>
      <trkpt lat="51.669957032427192" lon="0.497214999049902">
        <ele>64</ele>
        <time>2018-02-18T08:25:56Z</time>
      </trkpt>
      <trkpt lat="51.669974969699979" lon="0.497266966849566">
        <ele>64</ele>
        <time>2018-02-18T08:25:58Z</time>
      </trkpt>
      <trkpt lat="51.669983016327024" lon="0.497293034568429">
        <ele>64</ele>
        <time>2018-02-18T08:25:59Z</time>
      </trkpt>
      <trkpt lat="51.669992990791798" lon="0.497320024296641">
        <ele>64</ele>
        <time>2018-02-18T08:26:00Z</time>
      </trkpt>
      <trkpt lat="51.670004976913333" lon="0.497353971004486">
        <ele>63.258064516128997</ele>
        <time>2018-02-18T08:26:01Z</time>
      </trkpt>
      <trkpt lat="51.670015035197139" lon="0.49738397821784">
        <ele>63</ele>
        <time>2018-02-18T08:26:02Z</time>
      </trkpt>
      <trkpt lat="51.670024003833532" lon="0.497414991259575">
        <ele>63</ele>
        <time>2018-02-18T08:26:03Z</time>
      </trkpt>
      <trkpt lat="51.670032972469926" lon="0.497449021786451">
        <ele>63</ele>
        <time>2018-02-18T08:26:04Z</time>
      </trkpt>
      <trkpt lat="51.670041019096971" lon="0.497481040656567">
        <ele>63</ele>
        <time>2018-02-18T08:26:05Z</time>
      </trkpt>
      <trkpt lat="51.670049987733364" lon="0.497515993192792">
        <ele>63</ele>
        <time>2018-02-18T08:26:06Z</time>
      </trkpt>
      <trkpt lat="51.670059962198138" lon="0.497541977092624">
        <ele>63</ele>
        <time>2018-02-18T08:26:07Z</time>
      </trkpt>
      <trkpt lat="51.670072032138705" lon="0.49757500179112">
        <ele>63</ele>
        <time>2018-02-18T08:26:08Z</time>
      </trkpt>
      <trkpt lat="51.67008301243186" lon="0.497608026489615">
        <ele>63</ele>
        <time>2018-02-18T08:26:09Z</time>
      </trkpt>
      <trkpt lat="51.670094998553395" lon="0.49763903953135">
        <ele>63</ele>
        <time>2018-02-18T08:26:10Z</time>
      </trkpt>
      <trkpt lat="51.670106984674931" lon="0.497673992067575">
        <ele>63</ele>
        <time>2018-02-18T08:26:11Z</time>
      </trkpt>
      <trkpt lat="51.670122994109988" lon="0.497712967917323">
        <ele>63</ele>
        <time>2018-02-18T08:26:12Z</time>
      </trkpt>
      <trkpt lat="51.670134980231524" lon="0.497745992615819">
        <ele>62.950003199999998</ele>
        <time>2018-02-18T08:26:13Z</time>
      </trkpt>
      <trkpt lat="51.670146966353059" lon="0.497781028971076">
        <ele>62</ele>
        <time>2018-02-18T08:26:14Z</time>
      </trkpt>
      <trkpt lat="51.670155012980103" lon="0.497815981507301">
        <ele>62.043475841189597</ele>
        <time>2018-02-18T08:26:15Z</time>
      </trkpt>
      <trkpt lat="51.670159958302975" lon="0.497850012034178">
        <ele>62.913048317620699</ele>
        <time>2018-02-18T08:26:16Z</time>
      </trkpt>
      <trkpt lat="51.670172028243542" lon="0.49787599593401">
        <ele>63</ele>
        <time>2018-02-18T08:26:17Z</time>
      </trkpt>
      <trkpt lat="51.670180996879935" lon="0.497903991490602">
        <ele>63</ele>
        <time>2018-02-18T08:26:18Z</time>
      </trkpt>
      <trkpt lat="51.670193988829851" lon="0.497932992875576">
        <ele>63</ele>
        <time>2018-02-18T08:26:19Z</time>
      </trkpt>
      <trkpt lat="51.670203963294625" lon="0.49796300008893">
        <ele>63</ele>
        <time>2018-02-18T08:26:20Z</time>
      </trkpt>
      <trkpt lat="51.670215027406812" lon="0.498017985373735">
        <ele>63</ele>
        <time>2018-02-18T08:26:22Z</time>
      </trkpt>
      <trkpt lat="51.670219972729683" lon="0.49804899841547">
        <ele>62.025324454382002</ele>
        <time>2018-02-18T08:26:23Z</time>
      </trkpt>
      <trkpt lat="51.670227013528347" lon="0.498081017285585">
        <ele>62</ele>
        <time>2018-02-18T08:26:24Z</time>
      </trkpt>
      <trkpt lat="51.670233970507979" lon="0.498117981478572">
        <ele>62</ele>
        <time>2018-02-18T08:26:25Z</time>
      </trkpt>
      <trkpt lat="51.670238999649882" lon="0.498152012005448">
        <ele>62</ele>
        <time>2018-02-18T08:26:26Z</time>
      </trkpt>
      <trkpt lat="51.670240005478263" lon="0.498188976198435">
        <ele>62</ele>
        <time>2018-02-18T08:26:27Z</time>
      </trkpt>
      <trkpt lat="51.670245034620166" lon="0.498227030038834">
        <ele>62</ele>
        <time>2018-02-18T08:26:28Z</time>
      </trkpt>
      <trkpt lat="51.670248974114656" lon="0.498260976746678">
        <ele>62</ele>
        <time>2018-02-18T08:26:29Z</time>
      </trkpt>
      <trkpt lat="51.670258026570082" lon="0.498292995616794">
        <ele>62</ele>
        <time>2018-02-18T08:26:30Z</time>
      </trkpt>
      <trkpt lat="51.670266995206475" lon="0.498329037800431">
        <ele>62</ele>
        <time>2018-02-18T08:26:31Z</time>
      </trkpt>
      <trkpt lat="51.670275963842869" lon="0.498364996165037">
        <ele>62</ele>
        <time>2018-02-18T08:26:32Z</time>
      </trkpt>
      <trkpt lat="51.670284010469913" lon="0.498401038348675">
        <ele>62</ele>
        <time>2018-02-18T08:26:33Z</time>
      </trkpt>
      <trkpt lat="51.670292979106307" lon="0.498433979228139">
        <ele>62</ele>
        <time>2018-02-18T08:26:34Z</time>
      </trkpt>
      <trkpt lat="51.670303037390113" lon="0.498469015583396">
        <ele>62</ele>
        <time>2018-02-18T08:26:35Z</time>
      </trkpt>
      <trkpt lat="51.670311000198126" lon="0.498501034453511">
        <ele>62</ele>
        <time>2018-02-18T08:26:36Z</time>
      </trkpt>
      <trkpt lat="51.67031804099679" lon="0.498535986989737">
        <ele>62</ele>
        <time>2018-02-18T08:26:37Z</time>
      </trkpt>
      <trkpt lat="51.670322986319661" lon="0.49856498837471">
        <ele>62</ele>
        <time>2018-02-18T08:26:38Z</time>
      </trkpt>
      <trkpt lat="51.670331032946706" lon="0.498597007244825">
        <ele>62</ele>
        <time>2018-02-18T08:26:39Z</time>
      </trkpt>
      <trkpt lat="51.670336984097958" lon="0.49862802028656">
        <ele>62</ele>
        <time>2018-02-18T08:26:40Z</time>
      </trkpt>
      <trkpt lat="51.670342013239861" lon="0.498662972822785">
        <ele>62</ele>
        <time>2018-02-18T08:26:41Z</time>
      </trkpt>
      <trkpt lat="51.670347964391112" lon="0.498700020834804">
        <ele>62</ele>
        <time>2018-02-18T08:26:42Z</time>
      </trkpt>
      <trkpt lat="51.670353999361396" lon="0.49873698502779">
        <ele>61.049996800000002</ele>
        <time>2018-02-18T08:26:43Z</time>
      </trkpt>
      <trkpt lat="51.670356011018157" lon="0.498769003897905">
        <ele>61</ele>
        <time>2018-02-18T08:26:44Z</time>
      </trkpt>
      <trkpt lat="51.670362967997789" lon="0.498794987797737">
        <ele>61.949497692098802</ele>
        <time>2018-02-18T08:26:45Z</time>
      </trkpt>
      <trkpt lat="51.670381994917989" lon="0.498823989182711">
        <ele>62</ele>
        <time>2018-02-18T08:26:47Z</time>
      </trkpt>
      <trkpt lat="51.670403033494949" lon="0.498833963647485">
        <ele>62</ele>
        <time>2018-02-18T08:26:49Z</time>
      </trkpt>
      <trkpt lat="51.670433040708303" lon="0.498845027759671">
        <ele>62</ele>
        <time>2018-02-18T08:26:51Z</time>
      </trkpt>
      <trkpt lat="51.670461958274245" lon="0.498856008052826">
        <ele>62</ele>
        <time>2018-02-18T08:26:53Z</time>
      </trkpt>
      <trkpt lat="51.670490959659219" lon="0.498862965032458">
        <ele>62</ele>
        <time>2018-02-18T08:26:55Z</time>
      </trkpt>
      <trkpt lat="51.670528007671237" lon="0.498869000002742">
        <ele>62</ele>
        <time>2018-02-18T08:26:57Z</time>
      </trkpt>
      <trkpt lat="51.670560026541352" lon="0.498867994174361">
        <ele>62</ele>
        <time>2018-02-18T08:26:59Z</time>
      </trkpt>
      <trkpt lat="51.670577963814139" lon="0.498869000002742">
        <ele>62</ele>
        <time>2018-02-18T08:27:00Z</time>
      </trkpt>
      <trkpt lat="51.670617023482919" lon="0.498869000002742">
        <ele>62</ele>
        <time>2018-02-18T08:27:02Z</time>
      </trkpt>
      <trkpt lat="51.670639989897609" lon="0.498871011659503">
        <ele>62</ele>
        <time>2018-02-18T08:27:03Z</time>
      </trkpt>
      <trkpt lat="51.670658010989428" lon="0.4988659825176">
        <ele>62</ele>
        <time>2018-02-18T08:27:04Z</time>
      </trkpt>
      <trkpt lat="51.670677037909627" lon="0.498860031366348">
        <ele>62</ele>
        <time>2018-02-18T08:27:05Z</time>
      </trkpt>
      <trkpt lat="51.670679971575737" lon="0.498829018324614">
        <ele>62</ele>
        <time>2018-02-18T08:27:07Z</time>
      </trkpt>
      <trkpt lat="51.670677037909627" lon="0.498784007504582">
        <ele>62</ele>
        <time>2018-02-18T08:27:09Z</time>
      </trkpt>
      <trkpt lat="51.670690029859543" lon="0.498747965320945">
        <ele>62</ele>
        <time>2018-02-18T08:27:11Z</time>
      </trkpt>
      <trkpt lat="51.67070796713233" lon="0.498738996684551">
        <ele>62</ele>
        <time>2018-02-18T08:27:12Z</time>
      </trkpt>
      <trkpt lat="51.670730011537671" lon="0.498715024441481">
        <ele>62</ele>
        <time>2018-02-18T08:27:14Z</time>
      </trkpt>
      <trkpt lat="51.670757001265883" lon="0.498700020834804">
        <ele>62</ele>
        <time>2018-02-18T08:27:16Z</time>
      </trkpt>
      <trkpt lat="51.670786002650857" lon="0.498681999742985">
        <ele>62</ele>
        <time>2018-02-18T08:27:18Z</time>
      </trkpt>
      <trkpt lat="51.670804023742676" lon="0.498669007793069">
        <ele>62</ele>
        <time>2018-02-18T08:27:19Z</time>
      </trkpt>
      <trkpt lat="51.670826990157366" lon="0.498652998358011">
        <ele>62</ele>
        <time>2018-02-18T08:27:20Z</time>
      </trkpt>
      <trkpt lat="51.670848028734326" lon="0.498637994751334">
        <ele>62</ele>
        <time>2018-02-18T08:27:21Z</time>
      </trkpt>
      <trkpt lat="51.670867977663875" lon="0.498629026114941">
        <ele>62</ele>
        <time>2018-02-18T08:27:22Z</time>
      </trkpt>
      <trkpt lat="51.670884992927313" lon="0.498614022508264">
        <ele>62</ele>
        <time>2018-02-18T08:27:23Z</time>
      </trkpt>
      <trkpt lat="51.670905025675893" lon="0.498601030558348">
        <ele>62</ele>
        <time>2018-02-18T08:27:24Z</time>
      </trkpt>
      <trkpt lat="51.67092296294868" lon="0.498588038608432">
        <ele>62</ele>
        <time>2018-02-18T08:27:25Z</time>
      </trkpt>
      <trkpt lat="51.670946013182402" lon="0.498573035001755">
        <ele>62</ele>
        <time>2018-02-18T08:27:26Z</time>
      </trkpt>
      <trkpt lat="51.67096302844584" lon="0.498558031395078">
        <ele>62</ele>
        <time>2018-02-18T08:27:27Z</time>
      </trkpt>
      <trkpt lat="51.670982977375388" lon="0.498547973111272">
        <ele>62</ele>
        <time>2018-02-18T08:27:28Z</time>
      </trkpt>
      <trkpt lat="51.671002004295588" lon="0.498535986989737">
        <ele>62</ele>
        <time>2018-02-18T08:27:29Z</time>
      </trkpt>
      <trkpt lat="51.671021031215787" lon="0.498524000868201">
        <ele>62</ele>
        <time>2018-02-18T08:27:30Z</time>
      </trkpt>
      <trkpt lat="51.67104902677238" lon="0.498515032231808">
        <ele>62</ele>
        <time>2018-02-18T08:27:32Z</time>
      </trkpt>
      <trkpt lat="51.671080961823463" lon="0.498491981998086">
        <ele>62</ele>
        <time>2018-02-18T08:27:34Z</time>
      </trkpt>
      <trkpt lat="51.671100994572043" lon="0.498484019190073">
        <ele>62</ele>
        <time>2018-02-18T08:27:35Z</time>
      </trkpt>
      <trkpt lat="51.671119015663862" lon="0.498474966734648">
        <ele>62</ele>
        <time>2018-02-18T08:27:36Z</time>
      </trkpt>
      <trkpt lat="51.67113896459341" lon="0.498464992269874">
        <ele>61.951459568281003</ele>
        <time>2018-02-18T08:27:37Z</time>
      </trkpt>
      <trkpt lat="51.671164026483893" lon="0.498442025855184">
        <ele>61</ele>
        <time>2018-02-18T08:27:39Z</time>
      </trkpt>
      <trkpt lat="51.67118196375668" lon="0.498428028076887">
        <ele>60.950003199999998</ele>
        <time>2018-02-18T08:27:40Z</time>
      </trkpt>
      <trkpt lat="51.671217000111938" lon="0.498415036126971">
        <ele>60</ele>
        <time>2018-02-18T08:27:42Z</time>
      </trkpt>
      <trkpt lat="51.671241978183389" lon="0.498401960358024">
        <ele>60</ele>
        <time>2018-02-18T08:27:44Z</time>
      </trkpt>
      <trkpt lat="51.671269973739982" lon="0.498383017256856">
        <ele>60</ele>
        <time>2018-02-18T08:27:46Z</time>
      </trkpt>
      <trkpt lat="51.671285983175039" lon="0.498367007821798">
        <ele>60</ele>
        <time>2018-02-18T08:27:47Z</time>
      </trkpt>
      <trkpt lat="51.671302998438478" lon="0.498352004215121">
        <ele>60</ele>
        <time>2018-02-18T08:27:48Z</time>
      </trkpt>
      <trkpt lat="51.671322025358677" lon="0.498340018093586">
        <ele>60</ele>
        <time>2018-02-18T08:27:49Z</time>
      </trkpt>
      <trkpt lat="51.67135396040976" lon="0.498324008658528">
        <ele>60</ele>
        <time>2018-02-18T08:27:51Z</time>
      </trkpt>
      <trkpt lat="51.671387990936637" lon="0.498307999223471">
        <ele>59</ele>
        <time>2018-02-18T08:27:53Z</time>
      </trkpt>
      <trkpt lat="51.671410035341978" lon="0.498300958424807">
        <ele>59</ele>
        <time>2018-02-18T08:27:54Z</time>
      </trkpt>
      <trkpt lat="51.671429984271526" lon="0.498294001445174">
        <ele>59</ele>
        <time>2018-02-18T08:27:55Z</time>
      </trkpt>
      <trkpt lat="51.671454040333629" lon="0.498292995616794">
        <ele>59</ele>
        <time>2018-02-18T08:27:56Z</time>
      </trkpt>
      <trkpt lat="51.671487987041473" lon="0.498289978131652">
        <ele>59</ele>
        <time>2018-02-18T08:27:58Z</time>
      </trkpt>
      <trkpt lat="51.671506008133292" lon="0.498286038637161">
        <ele>59</ele>
        <time>2018-02-18T08:27:59Z</time>
      </trkpt>
      <trkpt lat="51.671526040881872" lon="0.498291989788413">
        <ele>58.052628742353598</ele>
        <time>2018-02-18T08:28:00Z</time>
      </trkpt>
      <trkpt lat="51.671543978154659" lon="0.498304981738329">
        <ele>58</ele>
        <time>2018-02-18T08:28:01Z</time>
      </trkpt>
      <trkpt lat="51.671558981761336" lon="0.498347980901599">
        <ele>58.950003199999998</ele>
        <time>2018-02-18T08:28:03Z</time>
      </trkpt>
      <trkpt lat="51.671568034216762" lon="0.49839299172163">
        <ele>59</ele>
        <time>2018-02-18T08:28:05Z</time>
      </trkpt>
      <trkpt lat="51.671573985368013" lon="0.498438002541661">
        <ele>59</ele>
        <time>2018-02-18T08:28:07Z</time>
      </trkpt>
      <trkpt lat="51.671584965661168" lon="0.498475972563028">
        <ele>59</ele>
        <time>2018-02-18T08:28:09Z</time>
      </trkpt>
      <trkpt lat="51.671598963439465" lon="0.498527018353343">
        <ele>59</ele>
        <time>2018-02-18T08:28:11Z</time>
      </trkpt>
      <trkpt lat="51.671602986752987" lon="0.498555013909936">
        <ele>59</ele>
        <time>2018-02-18T08:28:12Z</time>
      </trkpt>
      <trkpt lat="51.671610027551651" lon="0.49860798753798">
        <ele>59</ele>
        <time>2018-02-18T08:28:14Z</time>
      </trkpt>
      <trkpt lat="51.671615978702903" lon="0.498661966994405">
        <ele>59</ele>
        <time>2018-02-18T08:28:16Z</time>
      </trkpt>
      <trkpt lat="51.671620002016425" lon="0.498711001127958">
        <ele>61</ele>
        <time>2018-02-18T08:28:18Z</time>
      </trkpt>
      <trkpt lat="51.671623019501567" lon="0.498746037483215">
        <ele>61</ele>
        <time>2018-02-18T08:28:19Z</time>
      </trkpt>
      <trkpt lat="51.671624025329947" lon="0.498770009726286">
        <ele>61</ele>
        <time>2018-02-18T08:28:20Z</time>
      </trkpt>
      <trkpt lat="51.671626958996058" lon="0.498801022768021">
        <ele>61</ele>
        <time>2018-02-18T08:28:21Z</time>
      </trkpt>
      <trkpt lat="51.67163098230958" lon="0.498847039416432">
        <ele>61</ele>
        <time>2018-02-18T08:28:23Z</time>
      </trkpt>
      <trkpt lat="51.671633999794722" lon="0.498895989730954">
        <ele>61.041370669835402</ele>
        <time>2018-02-18T08:28:25Z</time>
      </trkpt>
      <trkpt lat="51.671642968431115" lon="0.498944018036127">
        <ele>62</ele>
        <time>2018-02-18T08:28:27Z</time>
      </trkpt>
      <trkpt lat="51.671647997573018" lon="0.498973019421101">
        <ele>62</ele>
        <time>2018-02-18T08:28:28Z</time>
      </trkpt>
      <trkpt lat="51.671654032543302" lon="0.499006966128945">
        <ele>62</ele>
        <time>2018-02-18T08:28:29Z</time>
      </trkpt>
      <trkpt lat="51.671661995351315" lon="0.499034039676189">
        <ele>62</ele>
        <time>2018-02-18T08:28:30Z</time>
      </trkpt>
      <trkpt lat="51.671666018664837" lon="0.499064968898892">
        <ele>62</ele>
        <time>2018-02-18T08:28:31Z</time>
      </trkpt>
      <trkpt lat="51.671671969816089" lon="0.499100005254149">
        <ele>62</ele>
        <time>2018-02-18T08:28:32Z</time>
      </trkpt>
      <trkpt lat="51.671675993129611" lon="0.499137975275517">
        <ele>62</ele>
        <time>2018-02-18T08:28:33Z</time>
      </trkpt>
      <trkpt lat="51.671680016443133" lon="0.499181980267167">
        <ele>63</ele>
        <time>2018-02-18T08:28:34Z</time>
      </trkpt>
      <trkpt lat="51.671684961766005" lon="0.499223973602057">
        <ele>63</ele>
        <time>2018-02-18T08:28:35Z</time>
      </trkpt>
      <trkpt lat="51.671692002564669" lon="0.499260015785694">
        <ele>63</ele>
        <time>2018-02-18T08:28:36Z</time>
      </trkpt>
      <trkpt lat="51.671708011999726" lon="0.499312989413738">
        <ele>63</ele>
        <time>2018-02-18T08:28:38Z</time>
      </trkpt>
      <trkpt lat="51.671704994514585" lon="0.499345008283854">
        <ele>63.046506782032303</ele>
        <time>2018-02-18T08:28:39Z</time>
      </trkpt>
      <trkpt lat="51.671690996736288" lon="0.499369986355305">
        <ele>63.821702503448101</ele>
        <time>2018-02-18T08:28:40Z</time>
      </trkpt>
      <trkpt lat="51.671668030321598" lon="0.499413991346955">
        <ele>64</ele>
        <time>2018-02-18T08:28:42Z</time>
      </trkpt>
      <trkpt lat="51.671664007008076" lon="0.499463025480509">
        <ele>64</ele>
        <time>2018-02-18T08:28:44Z</time>
      </trkpt>
      <trkpt lat="51.67167398147285" lon="0.499515999108553">
        <ele>64</ele>
        <time>2018-02-18T08:28:46Z</time>
      </trkpt>
      <trkpt lat="51.671676998957992" lon="0.499545000493526">
        <ele>64.048540431719005</ele>
        <time>2018-02-18T08:28:47Z</time>
      </trkpt>
      <trkpt lat="51.671683033928275" lon="0.499580036848783">
        <ele>65</ele>
        <time>2018-02-18T08:28:48Z</time>
      </trkpt>
      <trkpt lat="51.671686973422766" lon="0.499609038233757">
        <ele>65</ele>
        <time>2018-02-18T08:28:49Z</time>
      </trkpt>
      <trkpt lat="51.671692002564669" lon="0.49963703379035">
        <ele>65</ele>
        <time>2018-02-18T08:28:50Z</time>
      </trkpt>
      <trkpt lat="51.671702982857823" lon="0.499689001590014">
        <ele>65</ele>
        <time>2018-02-18T08:28:52Z</time>
      </trkpt>
      <trkpt lat="51.671718992292881" lon="0.499743986874819">
        <ele>65</ele>
        <time>2018-02-18T08:28:54Z</time>
      </trkpt>
      <trkpt lat="51.671726033091545" lon="0.499776005744934">
        <ele>65</ele>
        <time>2018-02-18T08:28:55Z</time>
      </trkpt>
      <trkpt lat="51.671732990071177" lon="0.499808024615049">
        <ele>65</ele>
        <time>2018-02-18T08:28:56Z</time>
      </trkpt>
      <trkpt lat="51.67173801921308" lon="0.499841971322894">
        <ele>65</ele>
        <time>2018-02-18T08:28:57Z</time>
      </trkpt>
      <trkpt lat="51.671742964535952" lon="0.499871978536248">
        <ele>65</ele>
        <time>2018-02-18T08:28:58Z</time>
      </trkpt>
      <trkpt lat="51.671748999506235" lon="0.499931992962956">
        <ele>65</ele>
        <time>2018-02-18T08:29:00Z</time>
      </trkpt>
      <trkpt lat="51.671751011162996" lon="0.499964011833072">
        <ele>65</ele>
        <time>2018-02-18T08:29:01Z</time>
      </trkpt>
      <trkpt lat="51.671756040304899" lon="0.499997958540916">
        <ele>65</ele>
        <time>2018-02-18T08:29:02Z</time>
      </trkpt>
      <trkpt lat="51.67175997979939" lon="0.500031989067793">
        <ele>65</ele>
        <time>2018-02-18T08:29:03Z</time>
      </trkpt>
      <trkpt lat="51.671764003112912" lon="0.500064007937908">
        <ele>65</ele>
        <time>2018-02-18T08:29:04Z</time>
      </trkpt>
      <trkpt lat="51.671770038083196" lon="0.500092003494501">
        <ele>65</ele>
        <time>2018-02-18T08:29:05Z</time>
      </trkpt>
      <trkpt lat="51.671783030033112" lon="0.500144977122545">
        <ele>65</ele>
        <time>2018-02-18T08:29:07Z</time>
      </trkpt>
      <trkpt lat="51.671788981184363" lon="0.500180013477802">
        <ele>65</ele>
        <time>2018-02-18T08:29:08Z</time>
      </trkpt>
      <trkpt lat="51.671796021983027" lon="0.500214966014028">
        <ele>65</ele>
        <time>2018-02-18T08:29:09Z</time>
      </trkpt>
      <trkpt lat="51.67180297896266" lon="0.500247990712523">
        <ele>65</ele>
        <time>2018-02-18T08:29:10Z</time>
      </trkpt>
      <trkpt lat="51.671809013932943" lon="0.500277997925878">
        <ele>65</ele>
        <time>2018-02-18T08:29:11Z</time>
      </trkpt>
      <trkpt lat="51.671814965084195" lon="0.50030498765409">
        <ele>65</ele>
        <time>2018-02-18T08:29:12Z</time>
      </trkpt>
      <trkpt lat="51.671821000054479" lon="0.500336000695825">
        <ele>65</ele>
        <time>2018-02-18T08:29:13Z</time>
      </trkpt>
      <trkpt lat="51.671828040853143" lon="0.50036801956594">
        <ele>65</ele>
        <time>2018-02-18T08:29:14Z</time>
      </trkpt>
      <trkpt lat="51.671832986176014" lon="0.500398026779294">
        <ele>65</ele>
        <time>2018-02-18T08:29:15Z</time>
      </trkpt>
      <trkpt lat="51.671838015317917" lon="0.500427028164268">
        <ele>65</ele>
        <time>2018-02-18T08:29:16Z</time>
      </trkpt>
      <trkpt lat="51.671842038631439" lon="0.500458041206002">
        <ele>65</ele>
        <time>2018-02-18T08:29:17Z</time>
      </trkpt>
      <trkpt lat="51.67184698395431" lon="0.500486958771944">
        <ele>65</ele>
        <time>2018-02-18T08:29:18Z</time>
      </trkpt>
      <trkpt lat="51.671852013096213" lon="0.500517971813679">
        <ele>65</ele>
        <time>2018-02-18T08:29:19Z</time>
      </trkpt>
      <trkpt lat="51.671857964247465" lon="0.500561976805329">
        <ele>65</ele>
        <time>2018-02-18T08:29:21Z</time>
      </trkpt>
      <trkpt lat="51.67186601087451" lon="0.500599024817348">
        <ele>65</ele>
        <time>2018-02-18T08:29:23Z</time>
      </trkpt>
      <trkpt lat="51.671871962025762" lon="0.500632971525192">
        <ele>65</ele>
        <time>2018-02-18T08:29:25Z</time>
      </trkpt>
      <trkpt lat="51.671877996996045" lon="0.50067001953721">
        <ele>65</ele>
        <time>2018-02-18T08:29:27Z</time>
      </trkpt>
      <trkpt lat="51.67186701670289" lon="0.500703966245055">
        <ele>65</ele>
        <time>2018-02-18T08:29:29Z</time>
      </trkpt>
      <trkpt lat="51.671859975904226" lon="0.500731039792299">
        <ele>65</ele>
        <time>2018-02-18T08:29:31Z</time>
      </trkpt>
      <trkpt lat="51.67186601087451" lon="0.500759035348892">
        <ele>65</ele>
        <time>2018-02-18T08:29:39Z</time>
      </trkpt>
      <trkpt lat="51.671884031966329" lon="0.500788958743215">
        <ele>65</ele>
        <time>2018-02-18T08:29:43Z</time>
      </trkpt>
      <trkpt lat="51.671902975067496" lon="0.500803962349892">
        <ele>65</ele>
        <time>2018-02-18T08:29:45Z</time>
      </trkpt>
      <trkpt lat="51.671923007816076" lon="0.500829024240375">
        <ele>65</ele>
        <time>2018-02-18T08:29:47Z</time>
      </trkpt>
      <trkpt lat="51.671939017251134" lon="0.500860037282109">
        <ele>65</ele>
        <time>2018-02-18T08:29:49Z</time>
      </trkpt>
      <trkpt lat="51.671951003372669" lon="0.500893983989954">
        <ele>65</ele>
        <time>2018-02-18T08:29:51Z</time>
      </trkpt>
      <trkpt lat="51.671963995322585" lon="0.50092801451683">
        <ele>65</ele>
        <time>2018-02-18T08:29:53Z</time>
      </trkpt>
      <trkpt lat="51.671978998929262" lon="0.500960033386946">
        <ele>65</ele>
        <time>2018-02-18T08:29:55Z</time>
      </trkpt>
      <trkpt lat="51.671985033899546" lon="0.500989034771919">
        <ele>65</ele>
        <time>2018-02-18T08:29:56Z</time>
      </trkpt>
      <trkpt lat="51.671992996707559" lon="0.501045025885105">
        <ele>65</ele>
        <time>2018-02-18T08:29:58Z</time>
      </trkpt>
      <trkpt lat="51.672001965343952" lon="0.501074027270079">
        <ele>65</ele>
        <time>2018-02-18T08:29:59Z</time>
      </trkpt>
      <trkpt lat="51.672009006142616" lon="0.501106968149543">
        <ele>65</ele>
        <time>2018-02-18T08:30:00Z</time>
      </trkpt>
      <trkpt lat="51.672015963122249" lon="0.501138987019658">
        <ele>65</ele>
        <time>2018-02-18T08:30:01Z</time>
      </trkpt>
      <trkpt lat="51.672025015577674" lon="0.50116497091949">
        <ele>65</ele>
        <time>2018-02-18T08:30:02Z</time>
      </trkpt>
      <trkpt lat="51.672029960900545" lon="0.501191960647702">
        <ele>65</ele>
        <time>2018-02-18T08:30:03Z</time>
      </trkpt>
      <trkpt lat="51.672040019184351" lon="0.501223979517818">
        <ele>65</ele>
        <time>2018-02-18T08:30:04Z</time>
      </trkpt>
      <trkpt lat="51.672046976163983" lon="0.501260021701455">
        <ele>65</ele>
        <time>2018-02-18T08:30:05Z</time>
      </trkpt>
      <trkpt lat="51.672054016962647" lon="0.501295980066061">
        <ele>64.043010900682702</ele>
        <time>2018-02-18T08:30:06Z</time>
      </trkpt>
      <trkpt lat="51.67206197977066" lon="0.50133403390646">
        <ele>64</ele>
        <time>2018-02-18T08:30:07Z</time>
      </trkpt>
      <trkpt lat="51.672068014740944" lon="0.501366974785924">
        <ele>64</ele>
        <time>2018-02-18T08:30:08Z</time>
      </trkpt>
      <trkpt lat="51.672072038054466" lon="0.501395976170897">
        <ele>64</ele>
        <time>2018-02-18T08:30:09Z</time>
      </trkpt>
      <trkpt lat="51.672080000862479" lon="0.501427995041013">
        <ele>64</ele>
        <time>2018-02-18T08:30:10Z</time>
      </trkpt>
      <trkpt lat="51.672085030004382" lon="0.501458002254367">
        <ele>64</ele>
        <time>2018-02-18T08:30:11Z</time>
      </trkpt>
      <trkpt lat="51.672087963670492" lon="0.501490021124482">
        <ele>64</ele>
        <time>2018-02-18T08:30:12Z</time>
      </trkpt>
      <trkpt lat="51.672089975327253" lon="0.501527991145849">
        <ele>64</ele>
        <time>2018-02-18T08:30:13Z</time>
      </trkpt>
      <trkpt lat="51.672089975327253" lon="0.501565961167216">
        <ele>64</ele>
        <time>2018-02-18T08:30:14Z</time>
      </trkpt>
      <trkpt lat="51.672091986984015" lon="0.501597980037332">
        <ele>64</ele>
        <time>2018-02-18T08:30:15Z</time>
      </trkpt>
      <trkpt lat="51.672093998640776" lon="0.50163603387773">
        <ele>64</ele>
        <time>2018-02-18T08:30:16Z</time>
      </trkpt>
      <trkpt lat="51.672096010297537" lon="0.501670986413956">
        <ele>64</ele>
        <time>2018-02-18T08:30:17Z</time>
      </trkpt>
      <trkpt lat="51.672099027782679" lon="0.501699987798929">
        <ele>64</ele>
        <time>2018-02-18T08:30:18Z</time>
      </trkpt>
      <trkpt lat="51.672102967277169" lon="0.501732006669044">
        <ele>64</ele>
        <time>2018-02-18T08:30:19Z</time>
      </trkpt>
      <trkpt lat="51.672105984762311" lon="0.501761008054018">
        <ele>64</ele>
        <time>2018-02-18T08:30:20Z</time>
      </trkpt>
      <trkpt lat="51.672112019732594" lon="0.501820016652346">
        <ele>64</ele>
        <time>2018-02-18T08:30:22Z</time>
      </trkpt>
      <trkpt lat="51.672116965055466" lon="0.5018500238657">
        <ele>64</ele>
        <time>2018-02-18T08:30:23Z</time>
      </trkpt>
      <trkpt lat="51.67212400585413" lon="0.501878019422293">
        <ele>64</ele>
        <time>2018-02-18T08:30:24Z</time>
      </trkpt>
      <trkpt lat="51.672128029167652" lon="0.501907020807266">
        <ele>64</ele>
        <time>2018-02-18T08:30:25Z</time>
      </trkpt>
      <trkpt lat="51.672131968662143" lon="0.50193602219224">
        <ele>64</ele>
        <time>2018-02-18T08:30:26Z</time>
      </trkpt>
      <trkpt lat="51.67214403860271" lon="0.501985978335142">
        <ele>63</ele>
        <time>2018-02-18T08:30:28Z</time>
      </trkpt>
      <trkpt lat="51.672152001410723" lon="0.502014979720116">
        <ele>63</ele>
        <time>2018-02-18T08:30:29Z</time>
      </trkpt>
      <trkpt lat="51.672163987532258" lon="0.502072982490063">
        <ele>62.952832922764799</ele>
        <time>2018-02-18T08:30:31Z</time>
      </trkpt>
      <trkpt lat="51.672170022502542" lon="0.502103995531797">
        <ele>62.009431000338097</ele>
        <time>2018-02-18T08:30:32Z</time>
      </trkpt>
      <trkpt lat="51.672176979482174" lon="0.502135008573532">
        <ele>62</ele>
        <time>2018-02-18T08:30:33Z</time>
      </trkpt>
      <trkpt lat="51.672184020280838" lon="0.502168033272028">
        <ele>62.950498060984003</ele>
        <time>2018-02-18T08:30:34Z</time>
      </trkpt>
      <trkpt lat="51.672193994745612" lon="0.502197034657002">
        <ele>63</ele>
        <time>2018-02-18T08:30:35Z</time>
      </trkpt>
      <trkpt lat="51.672202963382006" lon="0.50221798941493">
        <ele>63</ele>
        <time>2018-02-18T08:30:36Z</time>
      </trkpt>
      <trkpt lat="51.672216961160302" lon="0.502239027991891">
        <ele>63</ele>
        <time>2018-02-18T08:30:37Z</time>
      </trkpt>
      <trkpt lat="51.672240011394024" lon="0.502276998013258">
        <ele>63</ele>
        <time>2018-02-18T08:30:39Z</time>
      </trkpt>
      <trkpt lat="51.672261971980333" lon="0.502312034368515">
        <ele>63</ele>
        <time>2018-02-18T08:30:41Z</time>
      </trkpt>
      <trkpt lat="51.672277981415391" lon="0.502338018268347">
        <ele>63</ele>
        <time>2018-02-18T08:30:43Z</time>
      </trkpt>
      <trkpt lat="51.672293990850449" lon="0.50236601382494">
        <ele>63</ele>
        <time>2018-02-18T08:30:45Z</time>
      </trkpt>
      <trkpt lat="51.672305976971984" lon="0.502404989674687">
        <ele>63</ele>
        <time>2018-02-18T08:30:47Z</time>
      </trkpt>
      <trkpt lat="51.672300025820732" lon="0.502438014373183">
        <ele>62.052079999999997</ele>
        <time>2018-02-18T08:30:49Z</time>
      </trkpt>
      <trkpt lat="51.672302037477493" lon="0.502484031021595">
        <ele>62</ele>
        <time>2018-02-18T08:30:52Z</time>
      </trkpt>
      <trkpt lat="51.672303965315223" lon="0.502526024356484">
        <ele>62</ele>
        <time>2018-02-18T08:30:54Z</time>
      </trkpt>
      <trkpt lat="51.672306982800364" lon="0.502583021298051">
        <ele>62</ele>
        <time>2018-02-18T08:30:56Z</time>
      </trkpt>
      <trkpt lat="51.67231603525579" lon="0.502632977440953">
        <ele>62</ele>
        <time>2018-02-18T08:30:58Z</time>
      </trkpt>
      <trkpt lat="51.67231603525579" lon="0.502693997696042">
        <ele>62</ele>
        <time>2018-02-18T08:31:00Z</time>
      </trkpt>
      <trkpt lat="51.67231603525579" lon="0.502728028222919">
        <ele>62</ele>
        <time>2018-02-18T08:31:01Z</time>
      </trkpt>
      <trkpt lat="51.6723189689219" lon="0.502759041264653">
        <ele>62</ele>
        <time>2018-02-18T08:31:02Z</time>
      </trkpt>
      <trkpt lat="51.672322992235422" lon="0.502789970487356">
        <ele>62</ele>
        <time>2018-02-18T08:31:03Z</time>
      </trkpt>
      <trkpt lat="51.672329027205706" lon="0.502825006842613">
        <ele>62</ele>
        <time>2018-02-18T08:31:04Z</time>
      </trkpt>
      <trkpt lat="51.672331960871816" lon="0.502863982692361">
        <ele>62</ele>
        <time>2018-02-18T08:31:05Z</time>
      </trkpt>
      <trkpt lat="51.672334978356957" lon="0.502902958542109">
        <ele>62</ele>
        <time>2018-02-18T08:31:06Z</time>
      </trkpt>
      <trkpt lat="51.672337995842099" lon="0.502935983240604">
        <ele>62</ele>
        <time>2018-02-18T08:31:07Z</time>
      </trkpt>
      <trkpt lat="51.672343024984002" lon="0.502964984625578">
        <ele>62</ele>
        <time>2018-02-18T08:31:08Z</time>
      </trkpt>
      <trkpt lat="51.672347970306873" lon="0.502992980182171">
        <ele>62</ele>
        <time>2018-02-18T08:31:09Z</time>
      </trkpt>
      <trkpt lat="51.672358028590679" lon="0.503023993223906">
        <ele>62</ele>
        <time>2018-02-18T08:31:10Z</time>
      </trkpt>
      <trkpt lat="51.672366997227073" lon="0.503058023750782">
        <ele>61.095243319680101</ele>
        <time>2018-02-18T08:31:11Z</time>
      </trkpt>
      <trkpt lat="51.672374960035086" lon="0.503092976287007">
        <ele>61</ele>
        <time>2018-02-18T08:31:12Z</time>
      </trkpt>
      <trkpt lat="51.67238300666213" lon="0.503126000985503">
        <ele>61</ele>
        <time>2018-02-18T08:31:13Z</time>
      </trkpt>
      <trkpt lat="51.672389041632414" lon="0.50316103734076">
        <ele>61</ele>
        <time>2018-02-18T08:31:14Z</time>
      </trkpt>
      <trkpt lat="51.672392981126904" lon="0.503193978220224">
        <ele>61</ele>
        <time>2018-02-18T08:31:15Z</time>
      </trkpt>
      <trkpt lat="51.672397004440427" lon="0.503230020403862">
        <ele>61</ele>
        <time>2018-02-18T08:31:16Z</time>
      </trkpt>
      <trkpt lat="51.672398010268807" lon="0.503261033445597">
        <ele>61</ele>
        <time>2018-02-18T08:31:17Z</time>
      </trkpt>
      <trkpt lat="51.67240303941071" lon="0.503294980153441">
        <ele>61</ele>
        <time>2018-02-18T08:31:18Z</time>
      </trkpt>
      <trkpt lat="51.67240597307682" lon="0.50333303399384">
        <ele>61</ele>
        <time>2018-02-18T08:31:19Z</time>
      </trkpt>
      <trkpt lat="51.672411002218723" lon="0.50337603315711">
        <ele>61</ele>
        <time>2018-02-18T08:31:20Z</time>
      </trkpt>
      <trkpt lat="51.672416031360626" lon="0.50341903232038">
        <ele>61</ele>
        <time>2018-02-18T08:31:21Z</time>
      </trkpt>
      <trkpt lat="51.672422988340259" lon="0.503458008170128">
        <ele>61</ele>
        <time>2018-02-18T08:31:22Z</time>
      </trkpt>
      <trkpt lat="51.672430029138923" lon="0.503494972363114">
        <ele>61</ele>
        <time>2018-02-18T08:31:23Z</time>
      </trkpt>
      <trkpt lat="51.672437991946936" lon="0.503530008718371">
        <ele>61</ele>
        <time>2018-02-18T08:31:24Z</time>
      </trkpt>
      <trkpt lat="51.672446960583329" lon="0.503565967082977">
        <ele>61</ele>
        <time>2018-02-18T08:31:25Z</time>
      </trkpt>
      <trkpt lat="51.672458024695516" lon="0.503602009266615">
        <ele>61</ele>
        <time>2018-02-18T08:31:26Z</time>
      </trkpt>
      <trkpt lat="51.672470010817051" lon="0.503640985116363">
        <ele>61</ele>
        <time>2018-02-18T08:31:27Z</time>
      </trkpt>
      <trkpt lat="51.672479985281825" lon="0.503678033128381">
        <ele>61</ele>
        <time>2018-02-18T08:31:28Z</time>
      </trkpt>
      <trkpt lat="51.67248803190887" lon="0.503716003149748">
        <ele>61</ele>
        <time>2018-02-18T08:31:29Z</time>
      </trkpt>
      <trkpt lat="51.672495994716883" lon="0.503751039505005">
        <ele>61</ele>
        <time>2018-02-18T08:31:30Z</time>
      </trkpt>
      <trkpt lat="51.672503035515547" lon="0.503788003697991">
        <ele>61</ele>
        <time>2018-02-18T08:31:31Z</time>
      </trkpt>
      <trkpt lat="51.672509992495179" lon="0.503834020346403">
        <ele>61</ele>
        <time>2018-02-18T08:31:32Z</time>
      </trkpt>
      <trkpt lat="51.672518039122224" lon="0.503875007852912">
        <ele>61</ele>
        <time>2018-02-18T08:31:33Z</time>
      </trkpt>
      <trkpt lat="51.672528013586998" lon="0.503917001187801">
        <ele>61</ele>
        <time>2018-02-18T08:31:34Z</time>
      </trkpt>
      <trkpt lat="51.67253497056663" lon="0.503952037543058">
        <ele>61</ele>
        <time>2018-02-18T08:31:35Z</time>
      </trkpt>
      <trkpt lat="51.672543017193675" lon="0.503983972594142">
        <ele>61</ele>
        <time>2018-02-18T08:31:36Z</time>
      </trkpt>
      <trkpt lat="51.672549974173307" lon="0.504014985635877">
        <ele>60.950003199999998</ele>
        <time>2018-02-18T08:31:37Z</time>
      </trkpt>
      <trkpt lat="51.672556009143591" lon="0.504045998677611">
        <ele>60</ele>
        <time>2018-02-18T08:31:38Z</time>
      </trkpt>
      <trkpt lat="51.672561038285494" lon="0.504081035032868">
        <ele>60</ele>
        <time>2018-02-18T08:31:39Z</time>
      </trkpt>
      <trkpt lat="51.672565983608365" lon="0.504113975912333">
        <ele>60</ele>
        <time>2018-02-18T08:31:40Z</time>
      </trkpt>
      <trkpt lat="51.672570006921887" lon="0.504153035581112">
        <ele>60</ele>
        <time>2018-02-18T08:31:41Z</time>
      </trkpt>
      <trkpt lat="51.672572018578649" lon="0.504194023087621">
        <ele>60</ele>
        <time>2018-02-18T08:31:42Z</time>
      </trkpt>
      <trkpt lat="51.672573024407029" lon="0.504231993108988">
        <ele>60</ele>
        <time>2018-02-18T08:31:43Z</time>
      </trkpt>
      <trkpt lat="51.67257696390152" lon="0.504268035292625">
        <ele>60</ele>
        <time>2018-02-18T08:31:44Z</time>
      </trkpt>
      <trkpt lat="51.672582998871803" lon="0.504302987828851">
        <ele>60</ele>
        <time>2018-02-18T08:31:45Z</time>
      </trkpt>
      <trkpt lat="51.672585010528564" lon="0.504345986992121">
        <ele>60</ele>
        <time>2018-02-18T08:31:46Z</time>
      </trkpt>
      <trkpt lat="51.672587022185326" lon="0.50438697449863">
        <ele>60</ele>
        <time>2018-02-18T08:31:47Z</time>
      </trkpt>
      <trkpt lat="51.672590961679816" lon="0.50442703999579">
        <ele>60</ele>
        <time>2018-02-18T08:31:48Z</time>
      </trkpt>
      <trkpt lat="51.672593979164958" lon="0.504465010017157">
        <ele>60</ele>
        <time>2018-02-18T08:31:49Z</time>
      </trkpt>
      <trkpt lat="51.6725969966501" lon="0.504498034715652">
        <ele>60</ele>
        <time>2018-02-18T08:31:50Z</time>
      </trkpt>
      <trkpt lat="51.672600014135242" lon="0.504534998908639">
        <ele>60</ele>
        <time>2018-02-18T08:31:51Z</time>
      </trkpt>
      <trkpt lat="51.672602025792003" lon="0.504571041092277">
        <ele>59.979598234110902</ele>
        <time>2018-02-18T08:31:52Z</time>
      </trkpt>
      <trkpt lat="51.672606971114874" lon="0.504608005285263">
        <ele>59</ele>
        <time>2018-02-18T08:31:53Z</time>
      </trkpt>
      <trkpt lat="51.672613006085157" lon="0.50464597530663">
        <ele>59</ele>
        <time>2018-02-18T08:31:54Z</time>
      </trkpt>
      <trkpt lat="51.67261803522706" lon="0.50468604080379">
        <ele>59</ele>
        <time>2018-02-18T08:31:55Z</time>
      </trkpt>
      <trkpt lat="51.672624992206693" lon="0.504727028310299">
        <ele>59</ele>
        <time>2018-02-18T08:31:56Z</time>
      </trkpt>
      <trkpt lat="51.672632033005357" lon="0.504766004160047">
        <ele>59</ele>
        <time>2018-02-18T08:31:57Z</time>
      </trkpt>
      <trkpt lat="51.67263999581337" lon="0.504805985838175">
        <ele>59</ele>
        <time>2018-02-18T08:31:58Z</time>
      </trkpt>
      <trkpt lat="51.672647036612034" lon="0.504844961687922">
        <ele>59</ele>
        <time>2018-02-18T08:31:59Z</time>
      </trkpt>
      <trkpt lat="51.672654999420047" lon="0.504883015528321">
        <ele>59</ele>
        <time>2018-02-18T08:32:00Z</time>
      </trkpt>
      <trkpt lat="51.67266103439033" lon="0.504918973892927">
        <ele>58.960940000000001</ele>
        <time>2018-02-18T08:32:01Z</time>
      </trkpt>
      <trkpt lat="51.672668997198343" lon="0.504958033561707">
        <ele>58.179690000000001</ele>
        <time>2018-02-18T08:32:02Z</time>
      </trkpt>
      <trkpt lat="51.672675032168627" lon="0.504996003583074">
        <ele>58</ele>
        <time>2018-02-18T08:32:03Z</time>
      </trkpt>
      <trkpt lat="51.672678971663117" lon="0.505028022453189">
        <ele>58</ele>
        <time>2018-02-18T08:32:04Z</time>
      </trkpt>
      <trkpt lat="51.672681989148259" lon="0.505057023838162">
        <ele>58</ele>
        <time>2018-02-18T08:32:05Z</time>
      </trkpt>
      <trkpt lat="51.672687018290162" lon="0.505088958889246">
        <ele>58</ele>
        <time>2018-02-18T08:32:06Z</time>
      </trkpt>
      <trkpt lat="51.672699004411697" lon="0.505146961659193">
        <ele>58</ele>
        <time>2018-02-18T08:32:08Z</time>
      </trkpt>
      <trkpt lat="51.67270596139133" lon="0.505178980529308">
        <ele>58</ele>
        <time>2018-02-18T08:32:09Z</time>
      </trkpt>
      <trkpt lat="51.672714008018374" lon="0.505209993571043">
        <ele>58</ele>
        <time>2018-02-18T08:32:10Z</time>
      </trkpt>
      <trkpt lat="51.672720964998007" lon="0.505247041583061">
        <ele>58</ele>
        <time>2018-02-18T08:32:11Z</time>
      </trkpt>
      <trkpt lat="51.672729011625051" lon="0.505287023261189">
        <ele>58</ele>
        <time>2018-02-18T08:32:12Z</time>
      </trkpt>
      <trkpt lat="51.672735968604684" lon="0.505320969969034">
        <ele>58</ele>
        <time>2018-02-18T08:32:13Z</time>
      </trkpt>
      <trkpt lat="51.67274602688849" lon="0.50535399466753">
        <ele>58</ele>
        <time>2018-02-18T08:32:14Z</time>
      </trkpt>
      <trkpt lat="51.672752983868122" lon="0.505389031022787">
        <ele>58</ele>
        <time>2018-02-18T08:32:15Z</time>
      </trkpt>
      <trkpt lat="51.672761030495167" lon="0.50541996024549">
        <ele>58</ele>
        <time>2018-02-18T08:32:16Z</time>
      </trkpt>
      <trkpt lat="51.67276999913156" lon="0.505448961630464">
        <ele>58</ele>
        <time>2018-02-18T08:32:17Z</time>
      </trkpt>
      <trkpt lat="51.672779973596334" lon="0.505477963015437">
        <ele>57.939994368072099</ele>
        <time>2018-02-18T08:32:18Z</time>
      </trkpt>
      <trkpt lat="51.67278902605176" lon="0.505509981885552">
        <ele>57</ele>
        <time>2018-02-18T08:32:19Z</time>
      </trkpt>
      <trkpt lat="51.672795983031392" lon="0.50554602406919">
        <ele>57</ele>
        <time>2018-02-18T08:32:20Z</time>
      </trkpt>
      <trkpt lat="51.672803023830056" lon="0.505580976605415">
        <ele>57</ele>
        <time>2018-02-18T08:32:21Z</time>
      </trkpt>
      <trkpt lat="51.67281199246645" lon="0.505621964111924">
        <ele>57</ele>
        <time>2018-02-18T08:32:22Z</time>
      </trkpt>
      <trkpt lat="51.672819033265114" lon="0.505657000467181">
        <ele>57</ele>
        <time>2018-02-18T08:32:23Z</time>
      </trkpt>
      <trkpt lat="51.672824984416366" lon="0.505696982145309">
        <ele>57</ele>
        <time>2018-02-18T08:32:24Z</time>
      </trkpt>
      <trkpt lat="51.67283303104341" lon="0.50574098713696">
        <ele>56.139533845329503</ele>
        <time>2018-02-18T08:32:25Z</time>
      </trkpt>
      <trkpt lat="51.672845017164946" lon="0.505788009613752">
        <ele>56</ele>
        <time>2018-02-18T08:32:26Z</time>
      </trkpt>
      <trkpt lat="51.6728559974581" lon="0.5058269854635">
        <ele>56</ele>
        <time>2018-02-18T08:32:27Z</time>
      </trkpt>
      <trkpt lat="51.672861026600003" lon="0.505861015990376">
        <ele>56</ele>
        <time>2018-02-18T08:32:28Z</time>
      </trkpt>
      <trkpt lat="51.672865971922874" lon="0.505899991840124">
        <ele>56</ele>
        <time>2018-02-18T08:32:29Z</time>
      </trkpt>
      <trkpt lat="51.672869995236397" lon="0.505937039852142">
        <ele>56</ele>
        <time>2018-02-18T08:32:30Z</time>
      </trkpt>
      <trkpt lat="51.672873012721539" lon="0.505978027358651">
        <ele>56</ele>
        <time>2018-02-18T08:32:31Z</time>
      </trkpt>
      <trkpt lat="51.672877036035061" lon="0.506010968238115">
        <ele>56</ele>
        <time>2018-02-18T08:32:32Z</time>
      </trkpt>
      <trkpt lat="51.672887010499835" lon="0.506044998764992">
        <ele>56</ele>
        <time>2018-02-18T08:32:33Z</time>
      </trkpt>
      <trkpt lat="51.672891033813357" lon="0.506082968786359">
        <ele>56</ele>
        <time>2018-02-18T08:32:34Z</time>
      </trkpt>
      <trkpt lat="51.672892039641738" lon="0.506116999313235">
        <ele>56</ele>
        <time>2018-02-18T08:32:35Z</time>
      </trkpt>
      <trkpt lat="51.672890027984977" lon="0.506157986819744">
        <ele>56</ele>
        <time>2018-02-18T08:32:36Z</time>
      </trkpt>
      <trkpt lat="51.672888016328216" lon="0.506206015124917">
        <ele>56</ele>
        <time>2018-02-18T08:32:37Z</time>
      </trkpt>
      <trkpt lat="51.672888016328216" lon="0.506243985146284">
        <ele>55.039999999999999</ele>
        <time>2018-02-18T08:32:38Z</time>
      </trkpt>
      <trkpt lat="51.672888016328216" lon="0.506280027329922">
        <ele>55</ele>
        <time>2018-02-18T08:32:39Z</time>
      </trkpt>
      <trkpt lat="51.672893967479467" lon="0.506311040371656">
        <ele>55</ele>
        <time>2018-02-18T08:32:40Z</time>
      </trkpt>
      <trkpt lat="51.672904025763273" lon="0.506344987079501">
        <ele>55</ele>
        <time>2018-02-18T08:32:41Z</time>
      </trkpt>
      <trkpt lat="51.672910982742906" lon="0.506374994292855">
        <ele>55</ele>
        <time>2018-02-18T08:32:42Z</time>
      </trkpt>
      <trkpt lat="51.672915006056428" lon="0.506411036476493">
        <ele>55</ele>
        <time>2018-02-18T08:32:43Z</time>
      </trkpt>
      <trkpt lat="51.672921041026711" lon="0.506448000669479">
        <ele>55</ele>
        <time>2018-02-18T08:32:44Z</time>
      </trkpt>
      <trkpt lat="51.672927998006344" lon="0.506483959034085">
        <ele>55</ele>
        <time>2018-02-18T08:32:45Z</time>
      </trkpt>
      <trkpt lat="51.672929003834724" lon="0.506524024531245">
        <ele>55</ele>
        <time>2018-02-18T08:32:46Z</time>
      </trkpt>
      <trkpt lat="51.672929003834724" lon="0.506566017866135">
        <ele>55</ele>
        <time>2018-02-18T08:32:47Z</time>
      </trkpt>
      <trkpt lat="51.672933027148247" lon="0.506602982059121">
        <ele>55</ele>
        <time>2018-02-18T08:32:48Z</time>
      </trkpt>
      <trkpt lat="51.672935038805008" lon="0.50664103589952">
        <ele>55</ele>
        <time>2018-02-18T08:32:49Z</time>
      </trkpt>
      <trkpt lat="51.672937972471118" lon="0.506673976778984">
        <ele>55</ele>
        <time>2018-02-18T08:32:50Z</time>
      </trkpt>
      <trkpt lat="51.672944007441401" lon="0.506703983992338">
        <ele>55</ele>
        <time>2018-02-18T08:32:51Z</time>
      </trkpt>
      <trkpt lat="51.672948030754924" lon="0.506738014519215">
        <ele>55</ele>
        <time>2018-02-18T08:32:52Z</time>
      </trkpt>
      <trkpt lat="51.672948030754924" lon="0.506774978712201">
        <ele>55</ele>
        <time>2018-02-18T08:32:53Z</time>
      </trkpt>
      <trkpt lat="51.672947024926543" lon="0.506812026724219">
        <ele>55</ele>
        <time>2018-02-18T08:32:54Z</time>
      </trkpt>
      <trkpt lat="51.672949958592653" lon="0.506853014230728">
        <ele>55</ele>
        <time>2018-02-18T08:32:55Z</time>
      </trkpt>
      <trkpt lat="51.672953981906176" lon="0.506894001737237">
        <ele>55</ele>
        <time>2018-02-18T08:32:56Z</time>
      </trkpt>
      <trkpt lat="51.672953981906176" lon="0.506932977586985">
        <ele>54.253844942005898</ele>
        <time>2018-02-18T08:32:57Z</time>
      </trkpt>
      <trkpt lat="51.672953981906176" lon="0.506973965093493">
        <ele>54</ele>
        <time>2018-02-18T08:32:58Z</time>
      </trkpt>
      <trkpt lat="51.672954987734556" lon="0.507013024762273">
        <ele>54</ele>
        <time>2018-02-18T08:32:59Z</time>
      </trkpt>
      <trkpt lat="51.672956999391317" lon="0.507053006440401">
        <ele>54</ele>
        <time>2018-02-18T08:33:00Z</time>
      </trkpt>
      <trkpt lat="51.672955993562937" lon="0.50709399394691">
        <ele>54</ele>
        <time>2018-02-18T08:33:01Z</time>
      </trkpt>
      <trkpt lat="51.672956999391317" lon="0.507133975625038">
        <ele>54</ele>
        <time>2018-02-18T08:33:02Z</time>
      </trkpt>
      <trkpt lat="51.672955993562937" lon="0.507171023637056">
        <ele>54</ele>
        <time>2018-02-18T08:33:03Z</time>
      </trkpt>
      <trkpt lat="51.672952976077795" lon="0.507208993658423">
        <ele>53.939994368072099</ele>
        <time>2018-02-18T08:33:04Z</time>
      </trkpt>
      <trkpt lat="51.672949958592653" lon="0.507257021963596">
        <ele>53</ele>
        <time>2018-02-18T08:33:05Z</time>
      </trkpt>
      <trkpt lat="51.672948030754924" lon="0.507290968671441">
        <ele>52.950003199999998</ele>
        <time>2018-02-18T08:33:06Z</time>
      </trkpt>
      <trkpt lat="51.672949036583304" lon="0.507327010855079">
        <ele>52</ele>
        <time>2018-02-18T08:33:07Z</time>
      </trkpt>
      <trkpt lat="51.672948030754924" lon="0.507362969219685">
        <ele>52</ele>
        <time>2018-02-18T08:33:08Z</time>
      </trkpt>
      <trkpt lat="51.672950964421034" lon="0.507400017231703">
        <ele>52</ele>
        <time>2018-02-18T08:33:09Z</time>
      </trkpt>
      <trkpt lat="51.672955993562937" lon="0.507435975596309">
        <ele>52</ele>
        <time>2018-02-18T08:33:10Z</time>
      </trkpt>
      <trkpt lat="51.672959011048079" lon="0.507471011951566">
        <ele>52</ele>
        <time>2018-02-18T08:33:11Z</time>
      </trkpt>
      <trkpt lat="51.67296202853322" lon="0.507516022771597">
        <ele>52</ele>
        <time>2018-02-18T08:33:12Z</time>
      </trkpt>
      <trkpt lat="51.672964040189981" lon="0.507558016106486">
        <ele>52</ele>
        <time>2018-02-18T08:33:13Z</time>
      </trkpt>
      <trkpt lat="51.672964040189981" lon="0.507595986127853">
        <ele>52</ele>
        <time>2018-02-18T08:33:14Z</time>
      </trkpt>
      <trkpt lat="51.67296496219933" lon="0.507671004161239">
        <ele>52</ele>
        <time>2018-02-18T08:33:16Z</time>
      </trkpt>
      <trkpt lat="51.67296496219933" lon="0.507710985839367">
        <ele>52</ele>
        <time>2018-02-18T08:33:17Z</time>
      </trkpt>
      <trkpt lat="51.672968985512853" lon="0.507745016366243">
        <ele>52</ele>
        <time>2018-02-18T08:33:18Z</time>
      </trkpt>
      <trkpt lat="51.672975020483136" lon="0.507786003872752">
        <ele>52</ele>
        <time>2018-02-18T08:33:19Z</time>
      </trkpt>
      <trkpt lat="51.672978959977627" lon="0.507830008864403">
        <ele>52</ele>
        <time>2018-02-18T08:33:20Z</time>
      </trkpt>
      <trkpt lat="51.672980971634388" lon="0.507872002199292">
        <ele>52</ele>
        <time>2018-02-18T08:33:21Z</time>
      </trkpt>
      <trkpt lat="51.672986000776291" lon="0.507912989705801">
        <ele>52</ele>
        <time>2018-02-18T08:33:22Z</time>
      </trkpt>
      <trkpt lat="51.672993963584304" lon="0.507950959727168">
        <ele>52</ele>
        <time>2018-02-18T08:33:23Z</time>
      </trkpt>
      <trkpt lat="51.673002010211349" lon="0.50799697637558">
        <ele>52</ele>
        <time>2018-02-18T08:33:24Z</time>
      </trkpt>
      <trkpt lat="51.6730079613626" lon="0.508046010509133">
        <ele>52</ele>
        <time>2018-02-18T08:33:25Z</time>
      </trkpt>
      <trkpt lat="51.673013996332884" lon="0.50808004103601">
        <ele>52</ele>
        <time>2018-02-18T08:33:26Z</time>
      </trkpt>
      <trkpt lat="51.673021959140897" lon="0.508110970258713">
        <ele>52</ele>
        <time>2018-02-18T08:33:27Z</time>
      </trkpt>
      <trkpt lat="51.6730269882828" lon="0.508148018270731">
        <ele>52</ele>
        <time>2018-02-18T08:33:28Z</time>
      </trkpt>
      <trkpt lat="51.673030005767941" lon="0.50818900577724">
        <ele>52</ele>
        <time>2018-02-18T08:33:29Z</time>
      </trkpt>
      <trkpt lat="51.673033023253083" lon="0.508227981626987">
        <ele>52</ele>
        <time>2018-02-18T08:33:30Z</time>
      </trkpt>
      <trkpt lat="51.673033023253083" lon="0.508266035467386">
        <ele>51.940005632072101</ele>
        <time>2018-02-18T08:33:31Z</time>
      </trkpt>
      <trkpt lat="51.673032017424703" lon="0.508299982175231">
        <ele>51</ele>
        <time>2018-02-18T08:33:32Z</time>
      </trkpt>
      <trkpt lat="51.673030005767941" lon="0.508330995216966">
        <ele>51</ele>
        <time>2018-02-18T08:33:33Z</time>
      </trkpt>
      <trkpt lat="51.673025982454419" lon="0.508366031572223">
        <ele>51</ele>
        <time>2018-02-18T08:33:34Z</time>
      </trkpt>
      <trkpt lat="51.673023970797658" lon="0.50840400159359">
        <ele>51</ele>
        <time>2018-02-18T08:33:35Z</time>
      </trkpt>
      <trkpt lat="51.673021959140897" lon="0.508439037948847">
        <ele>51</ele>
        <time>2018-02-18T08:33:36Z</time>
      </trkpt>
      <trkpt lat="51.673021959140897" lon="0.508483964949846">
        <ele>51</ele>
        <time>2018-02-18T08:33:37Z</time>
      </trkpt>
      <trkpt lat="51.673024976626039" lon="0.508524030447006">
        <ele>50</ele>
        <time>2018-02-18T08:33:38Z</time>
      </trkpt>
      <trkpt lat="51.673031011596322" lon="0.508562000468373">
        <ele>50</ele>
        <time>2018-02-18T08:33:39Z</time>
      </trkpt>
      <trkpt lat="51.673035034909844" lon="0.508595025166869">
        <ele>50</ele>
        <time>2018-02-18T08:33:40Z</time>
      </trkpt>
      <trkpt lat="51.673037968575954" lon="0.508635006844997">
        <ele>50</ele>
        <time>2018-02-18T08:33:41Z</time>
      </trkpt>
      <trkpt lat="51.673039980232716" lon="0.508678006008267">
        <ele>50</ele>
        <time>2018-02-18T08:33:42Z</time>
      </trkpt>
      <trkpt lat="51.673038974404335" lon="0.508714970201254">
        <ele>50</ele>
        <time>2018-02-18T08:33:43Z</time>
      </trkpt>
      <trkpt lat="51.673037968575954" lon="0.508756041526794">
        <ele>50</ele>
        <time>2018-02-18T08:33:44Z</time>
      </trkpt>
      <trkpt lat="51.673038974404335" lon="0.508796023204923">
        <ele>50</ele>
        <time>2018-02-18T08:33:45Z</time>
      </trkpt>
      <trkpt lat="51.673042997717857" lon="0.508836004883051">
        <ele>50</ele>
        <time>2018-02-18T08:33:46Z</time>
      </trkpt>
      <trkpt lat="51.673050038516521" lon="0.508880009874702">
        <ele>50</ele>
        <time>2018-02-18T08:33:47Z</time>
      </trkpt>
      <trkpt lat="51.673054983839393" lon="0.508924014866352">
        <ele>49.960000000000001</ele>
        <time>2018-02-18T08:33:48Z</time>
      </trkpt>
      <trkpt lat="51.673059007152915" lon="0.508971037343144">
        <ele>49</ele>
        <time>2018-02-18T08:33:49Z</time>
      </trkpt>
      <trkpt lat="51.673064036294818" lon="0.509014958515763">
        <ele>49</ele>
        <time>2018-02-18T08:33:50Z</time>
      </trkpt>
      <trkpt lat="51.673067975789309" lon="0.509052006527781">
        <ele>49</ele>
        <time>2018-02-18T08:33:51Z</time>
      </trkpt>
      <trkpt lat="51.673071999102831" lon="0.509083019569516">
        <ele>49</ele>
        <time>2018-02-18T08:33:52Z</time>
      </trkpt>
      <trkpt lat="51.673080967739224" lon="0.509123001247644">
        <ele>49</ele>
        <time>2018-02-18T08:33:53Z</time>
      </trkpt>
      <trkpt lat="51.673084991052747" lon="0.509162982925773">
        <ele>48.960000000000001</ele>
        <time>2018-02-18T08:33:54Z</time>
      </trkpt>
      <trkpt lat="51.67309102602303" lon="0.509196007624269">
        <ele>48</ele>
        <time>2018-02-18T08:33:55Z</time>
      </trkpt>
      <trkpt lat="51.673096977174282" lon="0.509231965988874">
        <ele>48</ele>
        <time>2018-02-18T08:33:56Z</time>
      </trkpt>
      <trkpt lat="51.673103012144566" lon="0.509271025657654">
        <ele>48</ele>
        <time>2018-02-18T08:33:57Z</time>
      </trkpt>
      <trkpt lat="51.673108041286469" lon="0.50930798985064">
        <ele>48</ele>
        <time>2018-02-18T08:33:58Z</time>
      </trkpt>
      <trkpt lat="51.673108041286469" lon="0.509345037862659">
        <ele>48</ele>
        <time>2018-02-18T08:33:59Z</time>
      </trkpt>
      <trkpt lat="51.673108963295817" lon="0.509378984570503">
        <ele>48</ele>
        <time>2018-02-18T08:34:00Z</time>
      </trkpt>
      <trkpt lat="51.673108041286469" lon="0.509417038410902">
        <ele>48</ele>
        <time>2018-02-18T08:34:01Z</time>
      </trkpt>
      <trkpt lat="51.673108963295817" lon="0.509452996775508">
        <ele>48</ele>
        <time>2018-02-18T08:34:02Z</time>
      </trkpt>
      <trkpt lat="51.673108963295817" lon="0.509485015645623">
        <ele>48</ele>
        <time>2018-02-18T08:34:03Z</time>
      </trkpt>
      <trkpt lat="51.673108041286469" lon="0.509517034515738">
        <ele>48</ele>
        <time>2018-02-18T08:34:04Z</time>
      </trkpt>
      <trkpt lat="51.673108963295817" lon="0.509549975395203">
        <ele>48</ele>
        <time>2018-02-18T08:34:05Z</time>
      </trkpt>
      <trkpt lat="51.673108963295817" lon="0.509589035063982">
        <ele>48</ele>
        <time>2018-02-18T08:34:06Z</time>
      </trkpt>
      <trkpt lat="51.673108963295817" lon="0.509627005085349">
        <ele>48</ele>
        <time>2018-02-18T08:34:07Z</time>
      </trkpt>
      <trkpt lat="51.673114998266101" lon="0.509665980935097">
        <ele>48</ele>
        <time>2018-02-18T08:34:08Z</time>
      </trkpt>
      <trkpt lat="51.673126984387636" lon="0.50971400924027">
        <ele>48</ele>
        <time>2018-02-18T08:34:09Z</time>
      </trkpt>
      <trkpt lat="51.6731340251863" lon="0.509762959554791">
        <ele>48</ele>
        <time>2018-02-18T08:34:10Z</time>
      </trkpt>
      <trkpt lat="51.673142993822694" lon="0.509808976203203">
        <ele>48</ele>
        <time>2018-02-18T08:34:11Z</time>
      </trkpt>
      <trkpt lat="51.673150034621358" lon="0.509848035871983">
        <ele>48</ele>
        <time>2018-02-18T08:34:12Z</time>
      </trkpt>
      <trkpt lat="51.673154979944229" lon="0.509890029206872">
        <ele>48</ele>
        <time>2018-02-18T08:34:13Z</time>
      </trkpt>
      <trkpt lat="51.673161014914513" lon="0.509930010885">
        <ele>48</ele>
        <time>2018-02-18T08:34:14Z</time>
      </trkpt>
      <trkpt lat="51.673167971894145" lon="0.509976027533412">
        <ele>47.263568891270303</ele>
        <time>2018-02-18T08:34:15Z</time>
      </trkpt>
      <trkpt lat="51.673174006864429" lon="0.510019026696682">
        <ele>47</ele>
        <time>2018-02-18T08:34:16Z</time>
      </trkpt>
      <trkpt lat="51.673179036006331" lon="0.510061020031571">
        <ele>47</ele>
        <time>2018-02-18T08:34:17Z</time>
      </trkpt>
      <trkpt lat="51.673182975500822" lon="0.510104019194841">
        <ele>47</ele>
        <time>2018-02-18T08:34:18Z</time>
      </trkpt>
      <trkpt lat="51.673189010471106" lon="0.510146012529731">
        <ele>47</ele>
        <time>2018-02-18T08:34:19Z</time>
      </trkpt>
      <trkpt lat="51.673194961622357" lon="0.510185994207859">
        <ele>47</ele>
        <time>2018-02-18T08:34:20Z</time>
      </trkpt>
      <trkpt lat="51.673195967450738" lon="0.510225975885987">
        <ele>47.940600207842202</ele>
        <time>2018-02-18T08:34:21Z</time>
      </trkpt>
      <trkpt lat="51.67319999076426" lon="0.510265035554767">
        <ele>48</ele>
        <time>2018-02-18T08:34:22Z</time>
      </trkpt>
      <trkpt lat="51.673202002421021" lon="0.510305017232895">
        <ele>48</ele>
        <time>2018-02-18T08:34:23Z</time>
      </trkpt>
      <trkpt lat="51.673205019906163" lon="0.510342987254262">
        <ele>48</ele>
        <time>2018-02-18T08:34:24Z</time>
      </trkpt>
      <trkpt lat="51.673207031562924" lon="0.51038296893239">
        <ele>47.059994367927899</ele>
        <time>2018-02-18T08:34:25Z</time>
      </trkpt>
      <trkpt lat="51.673210971057415" lon="0.51042303442955">
        <ele>47</ele>
        <time>2018-02-18T08:34:26Z</time>
      </trkpt>
      <trkpt lat="51.673213988542557" lon="0.510458992794156">
        <ele>47</ele>
        <time>2018-02-18T08:34:27Z</time>
      </trkpt>
      <trkpt lat="51.673218011856079" lon="0.510496040806174">
        <ele>47</ele>
        <time>2018-02-18T08:34:28Z</time>
      </trkpt>
      <trkpt lat="51.673221029341221" lon="0.51053199917078">
        <ele>47</ele>
        <time>2018-02-18T08:34:29Z</time>
      </trkpt>
      <trkpt lat="51.67322002351284" lon="0.510563012212515">
        <ele>47</ele>
        <time>2018-02-18T08:34:30Z</time>
      </trkpt>
      <trkpt lat="51.673217006027699" lon="0.510607017204165">
        <ele>47</ele>
        <time>2018-02-18T08:34:32Z</time>
      </trkpt>
      <trkpt lat="51.673216000199318" lon="0.510651022195816">
        <ele>47</ele>
        <time>2018-02-18T08:34:34Z</time>
      </trkpt>
      <trkpt lat="51.673216000199318" lon="0.510694021359086">
        <ele>46</ele>
        <time>2018-02-18T08:34:36Z</time>
      </trkpt>
      <trkpt lat="51.67322002351284" lon="0.510735008865595">
        <ele>46</ele>
        <time>2018-02-18T08:34:38Z</time>
      </trkpt>
      <trkpt lat="51.673228992149234" lon="0.510772978886962">
        <ele>46</ele>
        <time>2018-02-18T08:34:40Z</time>
      </trkpt>
      <trkpt lat="51.673236032947898" lon="0.51081002689898">
        <ele>46</ele>
        <time>2018-02-18T08:34:42Z</time>
      </trkpt>
      <trkpt lat="51.673243995755911" lon="0.510850008577108">
        <ele>46</ele>
        <time>2018-02-18T08:34:44Z</time>
      </trkpt>
      <trkpt lat="51.67324198409915" lon="0.510894013568759">
        <ele>46</ele>
        <time>2018-02-18T08:34:46Z</time>
      </trkpt>
      <trkpt lat="51.67324298992753" lon="0.510935001075268">
        <ele>46</ele>
        <time>2018-02-18T08:34:48Z</time>
      </trkpt>
      <trkpt lat="51.673240978270769" lon="0.510974982753396">
        <ele>46</ele>
        <time>2018-02-18T08:34:50Z</time>
      </trkpt>
      <trkpt lat="51.673240978270769" lon="0.511012030765414">
        <ele>46</ele>
        <time>2018-02-18T08:34:52Z</time>
      </trkpt>
      <trkpt lat="51.67324298992753" lon="0.511052012443542">
        <ele>46</ele>
        <time>2018-02-18T08:34:54Z</time>
      </trkpt>
      <trkpt lat="51.673243995755911" lon="0.511095011606812">
        <ele>46</ele>
        <time>2018-02-18T08:34:56Z</time>
      </trkpt>
      <trkpt lat="51.673247013241053" lon="0.511137004941702">
        <ele>45.960000000000001</ele>
        <time>2018-02-18T08:34:58Z</time>
      </trkpt>
      <trkpt lat="51.673254976049066" lon="0.511180004104972">
        <ele>45</ele>
        <time>2018-02-18T08:35:00Z</time>
      </trkpt>
      <trkpt lat="51.67326302267611" lon="0.511223003268242">
        <ele>44.959596090194502</ele>
        <time>2018-02-18T08:35:02Z</time>
      </trkpt>
      <trkpt lat="51.673266040161252" lon="0.511263990774751">
        <ele>44</ele>
        <time>2018-02-18T08:35:04Z</time>
      </trkpt>
      <trkpt lat="51.673266962170601" lon="0.51130598410964">
        <ele>44</ele>
        <time>2018-02-18T08:35:06Z</time>
      </trkpt>
      <trkpt lat="51.673260005190969" lon="0.511350994929671">
        <ele>44</ele>
        <time>2018-02-18T08:35:08Z</time>
      </trkpt>
      <trkpt lat="51.673260005190969" lon="0.511393994092941">
        <ele>44.039999999999999</ele>
        <time>2018-02-18T08:35:10Z</time>
      </trkpt>
      <trkpt lat="51.673266962170601" lon="0.51143397577107">
        <ele>45</ele>
        <time>2018-02-18T08:35:12Z</time>
      </trkpt>
      <trkpt lat="51.673266040161252" lon="0.511474041268229">
        <ele>45</ele>
        <time>2018-02-18T08:35:14Z</time>
      </trkpt>
      <trkpt lat="51.673260005190969" lon="0.511512011289597">
        <ele>45</ele>
        <time>2018-02-18T08:35:16Z</time>
      </trkpt>
      <trkpt lat="51.673257993534207" lon="0.511549981310964">
        <ele>45</ele>
        <time>2018-02-18T08:35:18Z</time>
      </trkpt>
      <trkpt lat="51.673257993534207" lon="0.511588035151362">
        <ele>44.060005631927901</ele>
        <time>2018-02-18T08:35:20Z</time>
      </trkpt>
      <trkpt lat="51.673254976049066" lon="0.511628016829491">
        <ele>44.929996799999998</ele>
        <time>2018-02-18T08:35:22Z</time>
      </trkpt>
      <trkpt lat="51.673255981877446" lon="0.511666992679238">
        <ele>45</ele>
        <time>2018-02-18T08:35:24Z</time>
      </trkpt>
      <trkpt lat="51.673257993534207" lon="0.511707980185747">
        <ele>45</ele>
        <time>2018-02-18T08:35:26Z</time>
      </trkpt>
      <trkpt lat="51.673260005190969" lon="0.511751985177398">
        <ele>44</ele>
        <time>2018-02-18T08:35:28Z</time>
      </trkpt>
      <trkpt lat="51.673264028504491" lon="0.511793978512287">
        <ele>44</ele>
        <time>2018-02-18T08:35:30Z</time>
      </trkpt>
      <trkpt lat="51.673269979655743" lon="0.511835971847177">
        <ele>44</ele>
        <time>2018-02-18T08:35:32Z</time>
      </trkpt>
      <trkpt lat="51.673268973827362" lon="0.511879976838827">
        <ele>44</ele>
        <time>2018-02-18T08:35:34Z</time>
      </trkpt>
      <trkpt lat="51.673271991312504" lon="0.511921970173717">
        <ele>44</ele>
        <time>2018-02-18T08:35:36Z</time>
      </trkpt>
      <trkpt lat="51.673279032111168" lon="0.511967986822128">
        <ele>44</ele>
        <time>2018-02-18T08:35:38Z</time>
      </trkpt>
      <trkpt lat="51.673283977434039" lon="0.511995982378721">
        <ele>44</ele>
        <time>2018-02-18T08:35:39Z</time>
      </trkpt>
      <trkpt lat="51.673289006575942" lon="0.512030012905598">
        <ele>44</ele>
        <time>2018-02-18T08:35:40Z</time>
      </trkpt>
      <trkpt lat="51.673291018232703" lon="0.512066977098584">
        <ele>44</ele>
        <time>2018-02-18T08:35:41Z</time>
      </trkpt>
      <trkpt lat="51.673292024061084" lon="0.512105030938983">
        <ele>44</ele>
        <time>2018-02-18T08:35:42Z</time>
      </trkpt>
      <trkpt lat="51.673295041546226" lon="0.512145012617111">
        <ele>44</ele>
        <time>2018-02-18T08:35:43Z</time>
      </trkpt>
      <trkpt lat="51.673298981040716" lon="0.51218600012362">
        <ele>44</ele>
        <time>2018-02-18T08:35:44Z</time>
      </trkpt>
      <trkpt lat="51.673303004354239" lon="0.512233022600412">
        <ele>44</ele>
        <time>2018-02-18T08:35:45Z</time>
      </trkpt>
      <trkpt lat="51.67330602183938" lon="0.512277027592063">
        <ele>44</ele>
        <time>2018-02-18T08:35:46Z</time>
      </trkpt>
      <trkpt lat="51.673309039324522" lon="0.512321032583714">
        <ele>43.949497692098802</ele>
        <time>2018-02-18T08:35:47Z</time>
      </trkpt>
      <trkpt lat="51.673311972990632" lon="0.512364031746984">
        <ele>43</ele>
        <time>2018-02-18T08:35:48Z</time>
      </trkpt>
      <trkpt lat="51.673314990475774" lon="0.512407030910254">
        <ele>43</ele>
        <time>2018-02-18T08:35:49Z</time>
      </trkpt>
      <trkpt lat="51.673318007960916" lon="0.512451035901904">
        <ele>43</ele>
        <time>2018-02-18T08:35:50Z</time>
      </trkpt>
      <trkpt lat="51.673323959112167" lon="0.512495040893555">
        <ele>43</ele>
        <time>2018-02-18T08:35:51Z</time>
      </trkpt>
      <trkpt lat="51.67332898825407" lon="0.512539967894554">
        <ele>43</ele>
        <time>2018-02-18T08:35:52Z</time>
      </trkpt>
      <trkpt lat="51.673334017395973" lon="0.512582967057824">
        <ele>42.980946459918101</ele>
        <time>2018-02-18T08:35:53Z</time>
      </trkpt>
      <trkpt lat="51.673338962718844" lon="0.512627977877855">
        <ele>42.028574214940498</ele>
        <time>2018-02-18T08:35:54Z</time>
      </trkpt>
      <trkpt lat="51.673339968547225" lon="0.512673994526267">
        <ele>42</ele>
        <time>2018-02-18T08:35:55Z</time>
      </trkpt>
      <trkpt lat="51.673338040709496" lon="0.512717999517918">
        <ele>42</ele>
        <time>2018-02-18T08:35:56Z</time>
      </trkpt>
      <trkpt lat="51.673336029052734" lon="0.512759992852807">
        <ele>42</ele>
        <time>2018-02-18T08:35:57Z</time>
      </trkpt>
      <trkpt lat="51.673333011567593" lon="0.512801986187696">
        <ele>42</ele>
        <time>2018-02-18T08:35:58Z</time>
      </trkpt>
      <trkpt lat="51.673332005739212" lon="0.512843979522586">
        <ele>42</ele>
        <time>2018-02-18T08:35:59Z</time>
      </trkpt>
      <trkpt lat="51.67332898825407" lon="0.512884967029095">
        <ele>42</ele>
        <time>2018-02-18T08:36:00Z</time>
      </trkpt>
      <trkpt lat="51.67332898825407" lon="0.512926960363984">
        <ele>41.989586666666703</ele>
        <time>2018-02-18T08:36:01Z</time>
      </trkpt>
      <trkpt lat="51.67332798242569" lon="0.512966020032763">
        <ele>41</ele>
        <time>2018-02-18T08:36:02Z</time>
      </trkpt>
      <trkpt lat="51.673325970768929" lon="0.513007007539272">
        <ele>41</ele>
        <time>2018-02-18T08:36:03Z</time>
      </trkpt>
      <trkpt lat="51.673323959112167" lon="0.513043971732259">
        <ele>41</ele>
        <time>2018-02-18T08:36:04Z</time>
      </trkpt>
      <trkpt lat="51.673325970768929" lon="0.513084037229419">
        <ele>41</ele>
        <time>2018-02-18T08:36:05Z</time>
      </trkpt>
      <trkpt lat="51.67332798242569" lon="0.513123013079166">
        <ele>41</ele>
        <time>2018-02-18T08:36:06Z</time>
      </trkpt>
      <trkpt lat="51.673329994082451" lon="0.513166012242436">
        <ele>41</ele>
        <time>2018-02-18T08:36:07Z</time>
      </trkpt>
      <trkpt lat="51.673334017395973" lon="0.513206999748945">
        <ele>41</ele>
        <time>2018-02-18T08:36:08Z</time>
      </trkpt>
      <trkpt lat="51.673339968547225" lon="0.513247987255454">
        <ele>41</ele>
        <time>2018-02-18T08:36:09Z</time>
      </trkpt>
      <trkpt lat="51.673346003517509" lon="0.513290986418724">
        <ele>41</ele>
        <time>2018-02-18T08:36:10Z</time>
      </trkpt>
      <trkpt lat="51.67334801517427" lon="0.513330968096852">
        <ele>41</ele>
        <time>2018-02-18T08:36:11Z</time>
      </trkpt>
      <trkpt lat="51.673350026831031" lon="0.513373967260122">
        <ele>41</ele>
        <time>2018-02-18T08:36:12Z</time>
      </trkpt>
      <trkpt lat="51.673351032659411" lon="0.513414032757282">
        <ele>41</ele>
        <time>2018-02-18T08:36:13Z</time>
      </trkpt>
      <trkpt lat="51.673353966325521" lon="0.513454014435411">
        <ele>41</ele>
        <time>2018-02-18T08:36:14Z</time>
      </trkpt>
      <trkpt lat="51.673353966325521" lon="0.513491984456778">
        <ele>41</ele>
        <time>2018-02-18T08:36:15Z</time>
      </trkpt>
      <trkpt lat="51.673351032659411" lon="0.513531966134906">
        <ele>41</ele>
        <time>2018-02-18T08:36:16Z</time>
      </trkpt>
      <trkpt lat="51.67334801517427" lon="0.513571025803685">
        <ele>41</ele>
        <time>2018-02-18T08:36:17Z</time>
      </trkpt>
      <trkpt lat="51.673346003517509" lon="0.513610001653433">
        <ele>41</ele>
        <time>2018-02-18T08:36:18Z</time>
      </trkpt>
      <trkpt lat="51.673343991860747" lon="0.513650989159942">
        <ele>41</ele>
        <time>2018-02-18T08:36:19Z</time>
      </trkpt>
      <trkpt lat="51.673341980203986" lon="0.51369097083807">
        <ele>41</ele>
        <time>2018-02-18T08:36:20Z</time>
      </trkpt>
      <trkpt lat="51.673339968547225" lon="0.513732964172959">
        <ele>41</ele>
        <time>2018-02-18T08:36:21Z</time>
      </trkpt>
      <trkpt lat="51.673336029052734" lon="0.5137740354985">
        <ele>41</ele>
        <time>2018-02-18T08:36:22Z</time>
      </trkpt>
      <trkpt lat="51.673332005739212" lon="0.513813011348248">
        <ele>41</ele>
        <time>2018-02-18T08:36:23Z</time>
      </trkpt>
      <trkpt lat="51.67332798242569" lon="0.513853998854756">
        <ele>41</ele>
        <time>2018-02-18T08:36:24Z</time>
      </trkpt>
      <trkpt lat="51.67332798242569" lon="0.513893980532885">
        <ele>41</ele>
        <time>2018-02-18T08:36:25Z</time>
      </trkpt>
      <trkpt lat="51.673329994082451" lon="0.513933962211013">
        <ele>41</ele>
        <time>2018-02-18T08:36:26Z</time>
      </trkpt>
      <trkpt lat="51.673332005739212" lon="0.513975033536553">
        <ele>41</ele>
        <time>2018-02-18T08:36:27Z</time>
      </trkpt>
      <trkpt lat="51.673337034881115" lon="0.514014009386301">
        <ele>41</ele>
        <time>2018-02-18T08:36:28Z</time>
      </trkpt>
      <trkpt lat="51.673339968547225" lon="0.51405600272119">
        <ele>41</ele>
        <time>2018-02-18T08:36:29Z</time>
      </trkpt>
      <trkpt lat="51.673343991860747" lon="0.514093972742558">
        <ele>41</ele>
        <time>2018-02-18T08:36:30Z</time>
      </trkpt>
      <trkpt lat="51.67334801517427" lon="0.514132026582956">
        <ele>40.940005632072101</ele>
        <time>2018-02-18T08:36:31Z</time>
      </trkpt>
      <trkpt lat="51.673350026831031" lon="0.514168990775943">
        <ele>40</ele>
        <time>2018-02-18T08:36:32Z</time>
      </trkpt>
      <trkpt lat="51.673353966325521" lon="0.514206038787961">
        <ele>40</ele>
        <time>2018-02-18T08:36:33Z</time>
      </trkpt>
      <trkpt lat="51.673362012952566" lon="0.514243002980947">
        <ele>40</ele>
        <time>2018-02-18T08:36:34Z</time>
      </trkpt>
      <trkpt lat="51.673367964103818" lon="0.514279967173934">
        <ele>40</ele>
        <time>2018-02-18T08:36:35Z</time>
      </trkpt>
      <trkpt lat="51.673376010730863" lon="0.51431399770081">
        <ele>40</ele>
        <time>2018-02-18T08:36:36Z</time>
      </trkpt>
      <trkpt lat="51.673383973538876" lon="0.514350039884448">
        <ele>40</ele>
        <time>2018-02-18T08:36:37Z</time>
      </trkpt>
      <trkpt lat="51.67339202016592" lon="0.514385998249054">
        <ele>40</ele>
        <time>2018-02-18T08:36:38Z</time>
      </trkpt>
      <trkpt lat="51.673399982973933" lon="0.514418017119169">
        <ele>40</ele>
        <time>2018-02-18T08:36:39Z</time>
      </trkpt>
      <trkpt lat="51.673407023772597" lon="0.514451041817665">
        <ele>40</ele>
        <time>2018-02-18T08:36:40Z</time>
      </trkpt>
      <trkpt lat="51.673418004065752" lon="0.514483982697129">
        <ele>40</ele>
        <time>2018-02-18T08:36:41Z</time>
      </trkpt>
      <trkpt lat="51.673425966873765" lon="0.514518013224006">
        <ele>40</ele>
        <time>2018-02-18T08:36:42Z</time>
      </trkpt>
      <trkpt lat="51.673432001844049" lon="0.514553971588612">
        <ele>40</ele>
        <time>2018-02-18T08:36:43Z</time>
      </trkpt>
      <trkpt lat="51.673438036814332" lon="0.514585990458727">
        <ele>40</ele>
        <time>2018-02-18T08:36:44Z</time>
      </trkpt>
      <trkpt lat="51.673441976308823" lon="0.514620020985603">
        <ele>40</ele>
        <time>2018-02-18T08:36:45Z</time>
      </trkpt>
      <trkpt lat="51.673445999622345" lon="0.514651034027338">
        <ele>40</ele>
        <time>2018-02-18T08:36:46Z</time>
      </trkpt>
      <trkpt lat="51.673455974087119" lon="0.514685986563563">
        <ele>40</ele>
        <time>2018-02-18T08:36:47Z</time>
      </trkpt>
      <trkpt lat="51.673461003229022" lon="0.51472102291882">
        <ele>40</ele>
        <time>2018-02-18T08:36:48Z</time>
      </trkpt>
      <trkpt lat="51.673467960208654" lon="0.514755975455046">
        <ele>40</ele>
        <time>2018-02-18T08:36:49Z</time>
      </trkpt>
      <trkpt lat="51.673475001007318" lon="0.514794029295444">
        <ele>39.9548827316735</ele>
        <time>2018-02-18T08:36:50Z</time>
      </trkpt>
      <trkpt lat="51.673480030149221" lon="0.51482898183167">
        <ele>39.203008459487798</ele>
        <time>2018-02-18T08:36:51Z</time>
      </trkpt>
      <trkpt lat="51.673484975472093" lon="0.514866029843688">
        <ele>39</ele>
        <time>2018-02-18T08:36:52Z</time>
      </trkpt>
      <trkpt lat="51.673492016270757" lon="0.514902994036675">
        <ele>39</ele>
        <time>2018-02-18T08:36:53Z</time>
      </trkpt>
      <trkpt lat="51.67349997907877" lon="0.514939958229661">
        <ele>39</ele>
        <time>2018-02-18T08:36:54Z</time>
      </trkpt>
      <trkpt lat="51.673506014049053" lon="0.514976000413299">
        <ele>39</ele>
        <time>2018-02-18T08:36:55Z</time>
      </trkpt>
      <trkpt lat="51.673513976857066" lon="0.515013970434666">
        <ele>39</ele>
        <time>2018-02-18T08:36:56Z</time>
      </trkpt>
      <trkpt lat="51.67352101765573" lon="0.515054035931826">
        <ele>38.940005632072101</ele>
        <time>2018-02-18T08:36:57Z</time>
      </trkpt>
      <trkpt lat="51.673527974635363" lon="0.515092005953193">
        <ele>38</ele>
        <time>2018-02-18T08:36:58Z</time>
      </trkpt>
      <trkpt lat="51.673531997948885" lon="0.515126036480069">
        <ele>38</ele>
        <time>2018-02-18T08:36:59Z</time>
      </trkpt>
      <trkpt lat="51.673539960756898" lon="0.515159983187914">
        <ele>38</ele>
        <time>2018-02-18T08:37:00Z</time>
      </trkpt>
      <trkpt lat="51.673550019040704" lon="0.515198959037662">
        <ele>38</ele>
        <time>2018-02-18T08:37:01Z</time>
      </trkpt>
      <trkpt lat="51.673557981848717" lon="0.515239024534822">
        <ele>38</ele>
        <time>2018-02-18T08:37:02Z</time>
      </trkpt>
      <trkpt lat="51.673566028475761" lon="0.515276994556189">
        <ele>38</ele>
        <time>2018-02-18T08:37:03Z</time>
      </trkpt>
      <trkpt lat="51.673572985455394" lon="0.515313036739826">
        <ele>38</ele>
        <time>2018-02-18T08:37:04Z</time>
      </trkpt>
      <trkpt lat="51.673580026254058" lon="0.515348995104432">
        <ele>38</ele>
        <time>2018-02-18T08:37:05Z</time>
      </trkpt>
      <trkpt lat="51.673584971576929" lon="0.51538797095418">
        <ele>38</ele>
        <time>2018-02-18T08:37:06Z</time>
      </trkpt>
      <trkpt lat="51.673591006547213" lon="0.515427030622959">
        <ele>38</ele>
        <time>2018-02-18T08:37:07Z</time>
      </trkpt>
      <trkpt lat="51.673597041517496" lon="0.515465000644326">
        <ele>38</ele>
        <time>2018-02-18T08:37:08Z</time>
      </trkpt>
      <trkpt lat="51.673602992668748" lon="0.515502970665693">
        <ele>38</ele>
        <time>2018-02-18T08:37:09Z</time>
      </trkpt>
      <trkpt lat="51.673610033467412" lon="0.515543958172202">
        <ele>38</ele>
        <time>2018-02-18T08:37:10Z</time>
      </trkpt>
      <trkpt lat="51.673615984618664" lon="0.515583017840981">
        <ele>38</ele>
        <time>2018-02-18T08:37:11Z</time>
      </trkpt>
      <trkpt lat="51.673622019588947" lon="0.51562299951911">
        <ele>38</ele>
        <time>2018-02-18T08:37:12Z</time>
      </trkpt>
      <trkpt lat="51.673627970740199" lon="0.515660969540477">
        <ele>38</ele>
        <time>2018-02-18T08:37:13Z</time>
      </trkpt>
      <trkpt lat="51.673635011538863" lon="0.515698017552495">
        <ele>38</ele>
        <time>2018-02-18T08:37:14Z</time>
      </trkpt>
      <trkpt lat="51.673640962690115" lon="0.515734981745481">
        <ele>38</ele>
        <time>2018-02-18T08:37:15Z</time>
      </trkpt>
      <trkpt lat="51.673646997660398" lon="0.515771023929119">
        <ele>37.060005631927901</ele>
        <time>2018-02-18T08:37:16Z</time>
      </trkpt>
      <trkpt lat="51.673654960468411" lon="0.515808993950486">
        <ele>37</ele>
        <time>2018-02-18T08:37:17Z</time>
      </trkpt>
      <trkpt lat="51.673666024580598" lon="0.515844030305743">
        <ele>37</ele>
        <time>2018-02-18T08:37:18Z</time>
      </trkpt>
      <trkpt lat="51.673673987388611" lon="0.515879988670349">
        <ele>37</ele>
        <time>2018-02-18T08:37:19Z</time>
      </trkpt>
      <trkpt lat="51.673681028187275" lon="0.515916030853987">
        <ele>37</ele>
        <time>2018-02-18T08:37:20Z</time>
      </trkpt>
      <trkpt lat="51.673687985166907" lon="0.515952995046973">
        <ele>37</ele>
        <time>2018-02-18T08:37:21Z</time>
      </trkpt>
      <trkpt lat="51.673695025965571" lon="0.51599096506834">
        <ele>37</ele>
        <time>2018-02-18T08:37:22Z</time>
      </trkpt>
      <trkpt lat="51.673703994601965" lon="0.516028013080359">
        <ele>37</ele>
        <time>2018-02-18T08:37:23Z</time>
      </trkpt>
      <trkpt lat="51.673709023743868" lon="0.516066988930106">
        <ele>37</ele>
        <time>2018-02-18T08:37:24Z</time>
      </trkpt>
      <trkpt lat="51.673716986551881" lon="0.516104958951473">
        <ele>37</ele>
        <time>2018-02-18T08:37:25Z</time>
      </trkpt>
      <trkpt lat="51.673725033178926" lon="0.516143012791872">
        <ele>37</ele>
        <time>2018-02-18T08:37:26Z</time>
      </trkpt>
      <trkpt lat="51.673732995986938" lon="0.516179976984859">
        <ele>37</ele>
        <time>2018-02-18T08:37:27Z</time>
      </trkpt>
      <trkpt lat="51.673740958794951" lon="0.516218030825257">
        <ele>37</ele>
        <time>2018-02-18T08:37:28Z</time>
      </trkpt>
      <trkpt lat="51.673749005421996" lon="0.516256000846624">
        <ele>37</ele>
        <time>2018-02-18T08:37:29Z</time>
      </trkpt>
      <trkpt lat="51.67375797405839" lon="0.516293970867991">
        <ele>37</ele>
        <time>2018-02-18T08:37:30Z</time>
      </trkpt>
      <trkpt lat="51.673766020685434" lon="0.516333030536771">
        <ele>37</ele>
        <time>2018-02-18T08:37:31Z</time>
      </trkpt>
      <trkpt lat="51.673773983493447" lon="0.516373012214899">
        <ele>37</ele>
        <time>2018-02-18T08:37:32Z</time>
      </trkpt>
      <trkpt lat="51.673783035948873" lon="0.516411988064647">
        <ele>37</ele>
        <time>2018-02-18T08:37:33Z</time>
      </trkpt>
      <trkpt lat="51.673792004585266" lon="0.516449036076665">
        <ele>37</ele>
        <time>2018-02-18T08:37:34Z</time>
      </trkpt>
      <trkpt lat="51.673799967393279" lon="0.516487006098032">
        <ele>37</ele>
        <time>2018-02-18T08:37:35Z</time>
      </trkpt>
      <trkpt lat="51.673808014020324" lon="0.516523970291018">
        <ele>37</ele>
        <time>2018-02-18T08:37:36Z</time>
      </trkpt>
      <trkpt lat="51.673813965171576" lon="0.516563029959798">
        <ele>37</ele>
        <time>2018-02-18T08:37:37Z</time>
      </trkpt>
      <trkpt lat="51.673820000141859" lon="0.516599994152784">
        <ele>37</ele>
        <time>2018-02-18T08:37:38Z</time>
      </trkpt>
      <trkpt lat="51.673827040940523" lon="0.516637964174151">
        <ele>36.940005632072101</ele>
        <time>2018-02-18T08:37:39Z</time>
      </trkpt>
      <trkpt lat="51.673833997920156" lon="0.516674006357789">
        <ele>36</ele>
        <time>2018-02-18T08:37:40Z</time>
      </trkpt>
      <trkpt lat="51.673840032890439" lon="0.516711976379156">
        <ele>36</ele>
        <time>2018-02-18T08:37:41Z</time>
      </trkpt>
      <trkpt lat="51.67384397238493" lon="0.516750030219555">
        <ele>36</ele>
        <time>2018-02-18T08:37:42Z</time>
      </trkpt>
      <trkpt lat="51.673850007355213" lon="0.51678498275578">
        <ele>36</ele>
        <time>2018-02-18T08:37:43Z</time>
      </trkpt>
      <trkpt lat="51.673854030668736" lon="0.516824964433908">
        <ele>36</ele>
        <time>2018-02-18T08:37:44Z</time>
      </trkpt>
      <trkpt lat="51.673859981819987" lon="0.516863018274307">
        <ele>36</ele>
        <time>2018-02-18T08:37:45Z</time>
      </trkpt>
      <trkpt lat="51.673868028447032" lon="0.516902999952435">
        <ele>36</ele>
        <time>2018-02-18T08:37:46Z</time>
      </trkpt>
      <trkpt lat="51.673875991255045" lon="0.516939964145422">
        <ele>36</ele>
        <time>2018-02-18T08:37:47Z</time>
      </trkpt>
      <trkpt lat="51.673884959891438" lon="0.516980029642582">
        <ele>36</ele>
        <time>2018-02-18T08:37:48Z</time>
      </trkpt>
      <trkpt lat="51.673893006518483" lon="0.517016993835568">
        <ele>35.261903552526</ele>
        <time>2018-02-18T08:37:49Z</time>
      </trkpt>
      <trkpt lat="51.673901975154877" lon="0.517055969685316">
        <ele>35</ele>
        <time>2018-02-18T08:37:50Z</time>
      </trkpt>
      <trkpt lat="51.673911027610302" lon="0.517096035182476">
        <ele>35</ele>
        <time>2018-02-18T08:37:51Z</time>
      </trkpt>
      <trkpt lat="51.673918990418315" lon="0.517137022688985">
        <ele>35</ele>
        <time>2018-02-18T08:37:52Z</time>
      </trkpt>
      <trkpt lat="51.673925025388598" lon="0.517177004367113">
        <ele>35</ele>
        <time>2018-02-18T08:37:53Z</time>
      </trkpt>
      <trkpt lat="51.673931982368231" lon="0.517217991873622">
        <ele>35.060005631927901</ele>
        <time>2018-02-18T08:37:54Z</time>
      </trkpt>
      <trkpt lat="51.673939023166895" lon="0.517258979380131">
        <ele>36</ele>
        <time>2018-02-18T08:37:55Z</time>
      </trkpt>
      <trkpt lat="51.673944974318147" lon="0.517296027392149">
        <ele>36</ele>
        <time>2018-02-18T08:37:56Z</time>
      </trkpt>
      <trkpt lat="51.673952015116811" lon="0.517331985756755">
        <ele>36</ele>
        <time>2018-02-18T08:37:57Z</time>
      </trkpt>
      <trkpt lat="51.673956960439682" lon="0.517368027940392">
        <ele>36</ele>
        <time>2018-02-18T08:37:58Z</time>
      </trkpt>
      <trkpt lat="51.673962995409966" lon="0.51740700379014">
        <ele>36</ele>
        <time>2018-02-18T08:37:59Z</time>
      </trkpt>
      <trkpt lat="51.673968024551868" lon="0.517442962154746">
        <ele>36</ele>
        <time>2018-02-18T08:38:00Z</time>
      </trkpt>
      <trkpt lat="51.67397296987474" lon="0.517481015995145">
        <ele>35.0200061439214</ele>
        <time>2018-02-18T08:38:01Z</time>
      </trkpt>
      <trkpt lat="51.673976993188262" lon="0.517519991844893">
        <ele>35</ele>
        <time>2018-02-18T08:38:02Z</time>
      </trkpt>
      <trkpt lat="51.673984033986926" lon="0.517559973523021">
        <ele>35</ele>
        <time>2018-02-18T08:38:03Z</time>
      </trkpt>
      <trkpt lat="51.673989985138178" lon="0.517600039020181">
        <ele>35</ele>
        <time>2018-02-18T08:38:04Z</time>
      </trkpt>
      <trkpt lat="51.674003982916474" lon="0.517680002376437">
        <ele>35</ele>
        <time>2018-02-18T08:38:06Z</time>
      </trkpt>
      <trkpt lat="51.674010017886758" lon="0.517720989882946">
        <ele>35</ele>
        <time>2018-02-18T08:38:07Z</time>
      </trkpt>
      <trkpt lat="51.674014963209629" lon="0.517762983217835">
        <ele>35</ele>
        <time>2018-02-18T08:38:08Z</time>
      </trkpt>
      <trkpt lat="51.674022004008293" lon="0.517801959067583">
        <ele>35</ele>
        <time>2018-02-18T08:38:09Z</time>
      </trkpt>
      <trkpt lat="51.674026027321815" lon="0.517840012907982">
        <ele>35</ele>
        <time>2018-02-18T08:38:10Z</time>
      </trkpt>
      <trkpt lat="51.674031978473067" lon="0.517873959615827">
        <ele>35</ele>
        <time>2018-02-18T08:38:11Z</time>
      </trkpt>
      <trkpt lat="51.674040025100112" lon="0.517912013456225">
        <ele>35</ele>
        <time>2018-02-18T08:38:12Z</time>
      </trkpt>
      <trkpt lat="51.674045976251364" lon="0.517949983477592">
        <ele>35</ele>
        <time>2018-02-18T08:38:13Z</time>
      </trkpt>
      <trkpt lat="51.674052011221647" lon="0.517988037317991">
        <ele>35</ele>
        <time>2018-02-18T08:38:14Z</time>
      </trkpt>
      <trkpt lat="51.67405896820128" lon="0.518025001510978">
        <ele>35.940005632072101</ele>
        <time>2018-02-18T08:38:15Z</time>
      </trkpt>
      <trkpt lat="51.674068020656705" lon="0.518062971532345">
        <ele>36</ele>
        <time>2018-02-18T08:38:16Z</time>
      </trkpt>
      <trkpt lat="51.674072965979576" lon="0.518101025372744">
        <ele>36</ele>
        <time>2018-02-18T08:38:17Z</time>
      </trkpt>
      <trkpt lat="51.67408000677824" lon="0.518138995394111">
        <ele>36</ele>
        <time>2018-02-18T08:38:18Z</time>
      </trkpt>
      <trkpt lat="51.674087969586253" lon="0.51817998290062">
        <ele>36</ele>
        <time>2018-02-18T08:38:19Z</time>
      </trkpt>
      <trkpt lat="51.674096016213298" lon="0.518217030912638">
        <ele>36</ele>
        <time>2018-02-18T08:38:20Z</time>
      </trkpt>
      <trkpt lat="51.674103979021311" lon="0.518255000934005">
        <ele>36</ele>
        <time>2018-02-18T08:38:21Z</time>
      </trkpt>
      <trkpt lat="51.674110013991594" lon="0.518290037289262">
        <ele>36</ele>
        <time>2018-02-18T08:38:22Z</time>
      </trkpt>
      <trkpt lat="51.674115965142846" lon="0.518324989825487">
        <ele>36</ele>
        <time>2018-02-18T08:38:23Z</time>
      </trkpt>
      <trkpt lat="51.674124011769891" lon="0.518358014523983">
        <ele>36</ele>
        <time>2018-02-18T08:38:24Z</time>
      </trkpt>
      <trkpt lat="51.674132980406284" lon="0.518393972888589">
        <ele>36</ele>
        <time>2018-02-18T08:38:25Z</time>
      </trkpt>
      <trkpt lat="51.67414203286171" lon="0.518428003415465">
        <ele>35.039999999999999</ele>
        <time>2018-02-18T08:38:26Z</time>
      </trkpt>
      <trkpt lat="51.674149995669723" lon="0.518460022285581">
        <ele>35</ele>
        <time>2018-02-18T08:38:27Z</time>
      </trkpt>
      <trkpt lat="51.674157958477736" lon="0.518493968993425">
        <ele>35</ele>
        <time>2018-02-18T08:38:28Z</time>
      </trkpt>
      <trkpt lat="51.674163993448019" lon="0.518525987863541">
        <ele>35</ele>
        <time>2018-02-18T08:38:29Z</time>
      </trkpt>
      <trkpt lat="51.674169022589922" lon="0.518559012562037">
        <ele>35</ele>
        <time>2018-02-18T08:38:30Z</time>
      </trkpt>
      <trkpt lat="51.674172962084413" lon="0.518592959269881">
        <ele>35</ele>
        <time>2018-02-18T08:38:31Z</time>
      </trkpt>
      <trkpt lat="51.674180002883077" lon="0.518638975918293">
        <ele>35</ele>
        <time>2018-02-18T08:38:33Z</time>
      </trkpt>
      <trkpt lat="51.674201963469386" lon="0.518659008666873">
        <ele>35</ele>
        <time>2018-02-18T08:38:35Z</time>
      </trkpt>
      <trkpt lat="51.674221996217966" lon="0.518664959818125">
        <ele>35</ele>
        <time>2018-02-18T08:38:37Z</time>
      </trkpt>
      <trkpt lat="51.674242028966546" lon="0.518652973696589">
        <ele>35</ele>
        <time>2018-02-18T08:38:39Z</time>
      </trkpt>
      <trkpt lat="51.674261977896094" lon="0.518646016716957">
        <ele>34</ele>
        <time>2018-02-18T08:38:41Z</time>
      </trkpt>
      <trkpt lat="51.674283016473055" lon="0.518623972311616">
        <ele>34</ele>
        <time>2018-02-18T08:38:43Z</time>
      </trkpt>
      <trkpt lat="51.674303971230984" lon="0.518607962876558">
        <ele>34</ele>
        <time>2018-02-18T08:38:45Z</time>
      </trkpt>
      <trkpt lat="51.674331966787577" lon="0.518594970926642">
        <ele>34</ele>
        <time>2018-02-18T08:38:47Z</time>
      </trkpt>
      <trkpt lat="51.674356022849679" lon="0.518578039482236">
        <ele>34</ele>
        <time>2018-02-18T08:38:49Z</time>
      </trkpt>
      <trkpt lat="51.67437999509275" lon="0.518564963713288">
        <ele>34</ele>
        <time>2018-02-18T08:38:51Z</time>
      </trkpt>
      <trkpt lat="51.674405978992581" lon="0.518557000905275">
        <ele>34</ele>
        <time>2018-02-18T08:38:53Z</time>
      </trkpt>
      <trkpt lat="51.674434980377555" lon="0.518549960106611">
        <ele>34</ele>
        <time>2018-02-18T08:38:55Z</time>
      </trkpt>
      <trkpt lat="51.674463981762528" lon="0.518539985641837">
        <ele>34</ele>
        <time>2018-02-18T08:38:57Z</time>
      </trkpt>
      <trkpt lat="51.674488037824631" lon="0.518526993691921">
        <ele>35</ele>
        <time>2018-02-18T08:38:59Z</time>
      </trkpt>
      <trkpt lat="51.674512010067701" lon="0.518518025055528">
        <ele>35</ele>
        <time>2018-02-18T08:39:01Z</time>
      </trkpt>
      <trkpt lat="51.674536988139153" lon="0.518506038933992">
        <ele>35</ele>
        <time>2018-02-18T08:39:03Z</time>
      </trkpt>
      <trkpt lat="51.674560038372874" lon="0.518491035327315">
        <ele>34.040403909805498</ele>
        <time>2018-02-18T08:39:05Z</time>
      </trkpt>
      <trkpt lat="51.674586022272706" lon="0.518483994528651">
        <ele>34</ele>
        <time>2018-02-18T08:39:07Z</time>
      </trkpt>
      <trkpt lat="51.674609994515777" lon="0.518468990921974">
        <ele>34</ele>
        <time>2018-02-18T08:39:09Z</time>
      </trkpt>
      <trkpt lat="51.674634972587228" lon="0.518453987315297">
        <ele>34</ele>
        <time>2018-02-18T08:39:11Z</time>
      </trkpt>
      <trkpt lat="51.674660034477711" lon="0.518437977880239">
        <ele>34</ele>
        <time>2018-02-18T08:39:13Z</time>
      </trkpt>
      <trkpt lat="51.674685012549162" lon="0.518424985930324">
        <ele>34</ele>
        <time>2018-02-18T08:39:15Z</time>
      </trkpt>
      <trkpt lat="51.674709990620613" lon="0.518415011465549">
        <ele>33</ele>
        <time>2018-02-18T08:39:17Z</time>
      </trkpt>
      <trkpt lat="51.674732035025954" lon="0.518405037000775">
        <ele>33</ele>
        <time>2018-02-18T08:39:19Z</time>
      </trkpt>
      <trkpt lat="51.674765981733799" lon="0.518392967060208">
        <ele>33</ele>
        <time>2018-02-18T08:39:22Z</time>
      </trkpt>
      <trkpt lat="51.67479095980525" lon="0.518381986767054">
        <ele>33</ele>
        <time>2018-02-18T08:39:24Z</time>
      </trkpt>
      <trkpt lat="51.674822978675365" lon="0.518368994817138">
        <ele>33</ele>
        <time>2018-02-18T08:39:26Z</time>
      </trkpt>
      <trkpt lat="51.674848040565848" lon="0.518351979553699">
        <ele>33</ele>
        <time>2018-02-18T08:39:28Z</time>
      </trkpt>
      <trkpt lat="51.674871006980538" lon="0.518338987603784">
        <ele>33</ele>
        <time>2018-02-18T08:39:30Z</time>
      </trkpt>
      <trkpt lat="51.67489598505199" lon="0.51833001896739">
        <ele>33</ele>
        <time>2018-02-18T08:39:32Z</time>
      </trkpt>
      <trkpt lat="51.674925992265344" lon="0.518350973725319">
        <ele>33</ele>
        <time>2018-02-18T08:39:34Z</time>
      </trkpt>
      <trkpt lat="51.674947030842304" lon="0.518393972888589">
        <ele>33</ele>
        <time>2018-02-18T08:39:36Z</time>
      </trkpt>
      <trkpt lat="51.674961028620601" lon="0.518439989537001">
        <ele>33</ele>
        <time>2018-02-18T08:39:38Z</time>
      </trkpt>
      <trkpt lat="51.674975026398897" lon="0.518485000357032">
        <ele>33</ele>
        <time>2018-02-18T08:39:40Z</time>
      </trkpt>
      <trkpt lat="51.674987012520432" lon="0.518529005348682">
        <ele>33</ele>
        <time>2018-02-18T08:39:42Z</time>
      </trkpt>
      <trkpt lat="51.674997992813587" lon="0.518573010340333">
        <ele>33</ele>
        <time>2018-02-18T08:39:44Z</time>
      </trkpt>
      <trkpt lat="51.675011990591884" lon="0.518618021160364">
        <ele>33</ele>
        <time>2018-02-18T08:39:46Z</time>
      </trkpt>
      <trkpt lat="51.675023976713419" lon="0.518662026152015">
        <ele>33</ele>
        <time>2018-02-18T08:39:48Z</time>
      </trkpt>
      <trkpt lat="51.675035962834954" lon="0.518708964809775">
        <ele>33</ele>
        <time>2018-02-18T08:39:50Z</time>
      </trkpt>
      <trkpt lat="51.675043003633618" lon="0.518750036135316">
        <ele>33</ele>
        <time>2018-02-18T08:39:52Z</time>
      </trkpt>
      <trkpt lat="51.675055995583534" lon="0.518793035298586">
        <ele>33</ele>
        <time>2018-02-18T08:39:54Z</time>
      </trkpt>
      <trkpt lat="51.67506798170507" lon="0.518837962299585">
        <ele>33</ele>
        <time>2018-02-18T08:39:56Z</time>
      </trkpt>
      <trkpt lat="51.675078961998224" lon="0.518880961462855">
        <ele>33</ele>
        <time>2018-02-18T08:39:58Z</time>
      </trkpt>
      <trkpt lat="51.67508902028203" lon="0.518921026960015">
        <ele>33</ele>
        <time>2018-02-18T08:40:00Z</time>
      </trkpt>
      <trkpt lat="51.675101006403565" lon="0.518962014466524">
        <ele>33</ele>
        <time>2018-02-18T08:40:02Z</time>
      </trkpt>
      <trkpt lat="51.675112992525101" lon="0.519004007801414">
        <ele>33</ele>
        <time>2018-02-18T08:40:04Z</time>
      </trkpt>
      <trkpt lat="51.675124978646636" lon="0.519044995307922">
        <ele>33</ele>
        <time>2018-02-18T08:40:06Z</time>
      </trkpt>
      <trkpt lat="51.67513101361692" lon="0.519087994471192">
        <ele>33</ele>
        <time>2018-02-18T08:40:08Z</time>
      </trkpt>
      <trkpt lat="51.675136964768171" lon="0.519130993634462">
        <ele>33</ele>
        <time>2018-02-18T08:40:10Z</time>
      </trkpt>
      <trkpt lat="51.675139982253313" lon="0.519172986969352">
        <ele>33</ele>
        <time>2018-02-18T08:40:12Z</time>
      </trkpt>
      <trkpt lat="51.675150040537119" lon="0.519220009446144">
        <ele>33</ele>
        <time>2018-02-18T08:40:14Z</time>
      </trkpt>
      <trkpt lat="51.675160015001893" lon="0.519260996952653">
        <ele>33</ele>
        <time>2018-02-18T08:40:16Z</time>
      </trkpt>
      <trkpt lat="51.675170995295048" lon="0.519323023036122">
        <ele>33</ele>
        <time>2018-02-18T08:40:19Z</time>
      </trkpt>
      <trkpt lat="51.675177030265331" lon="0.519366022199392">
        <ele>33</ele>
        <time>2018-02-18T08:40:21Z</time>
      </trkpt>
      <trkpt lat="51.675187004730105" lon="0.519417989999056">
        <ele>33</ele>
        <time>2018-02-18T08:40:23Z</time>
      </trkpt>
      <trkpt lat="51.675194967538118" lon="0.519460989162326">
        <ele>32</ele>
        <time>2018-02-18T08:40:25Z</time>
      </trkpt>
      <trkpt lat="51.675201002508402" lon="0.519487978890538">
        <ele>32.969693835333103</ele>
        <time>2018-02-18T08:40:26Z</time>
      </trkpt>
      <trkpt lat="51.675208965316415" lon="0.519539024680853">
        <ele>33</ele>
        <time>2018-02-18T08:40:28Z</time>
      </trkpt>
      <trkpt lat="51.675220029428601" lon="0.519583029672503">
        <ele>33</ele>
        <time>2018-02-18T08:40:30Z</time>
      </trkpt>
      <trkpt lat="51.675225980579853" lon="0.519620999693871">
        <ele>32.009996800000003</ele>
        <time>2018-02-18T08:40:32Z</time>
      </trkpt>
      <trkpt lat="51.675227992236614" lon="0.519660981371999">
        <ele>32</ele>
        <time>2018-02-18T08:40:34Z</time>
      </trkpt>
      <trkpt lat="51.675230003893375" lon="0.519702974706888">
        <ele>32.9722311111111</ele>
        <time>2018-02-18T08:40:36Z</time>
      </trkpt>
      <trkpt lat="51.675236960873008" lon="0.519745973870158">
        <ele>33</ele>
        <time>2018-02-18T08:40:38Z</time>
      </trkpt>
      <trkpt lat="51.675242995843291" lon="0.519786039367318">
        <ele>32.959596090194502</ele>
        <time>2018-02-18T08:40:40Z</time>
      </trkpt>
      <trkpt lat="51.675246013328433" lon="0.519828032702208">
        <ele>32</ele>
        <time>2018-02-18T08:40:42Z</time>
      </trkpt>
      <trkpt lat="51.675249030813575" lon="0.519867008551955">
        <ele>32</ele>
        <time>2018-02-18T08:40:44Z</time>
      </trkpt>
      <trkpt lat="51.675254981964827" lon="0.519911013543606">
        <ele>32.978953892586702</ele>
        <time>2018-02-18T08:40:46Z</time>
      </trkpt>
      <trkpt lat="51.675262022763491" lon="0.519957030192018">
        <ele>33</ele>
        <time>2018-02-18T08:40:48Z</time>
      </trkpt>
      <trkpt lat="51.675270991399884" lon="0.520000029355288">
        <ele>33</ele>
        <time>2018-02-18T08:40:50Z</time>
      </trkpt>
      <trkpt lat="51.675279038026929" lon="0.520043028518558">
        <ele>33</ele>
        <time>2018-02-18T08:40:52Z</time>
      </trkpt>
      <trkpt lat="51.675289012491703" lon="0.520083010196686">
        <ele>33</ele>
        <time>2018-02-18T08:40:54Z</time>
      </trkpt>
      <trkpt lat="51.675299992784858" lon="0.520146964117885">
        <ele>32.049996800000002</ele>
        <time>2018-02-18T08:40:57Z</time>
      </trkpt>
      <trkpt lat="51.675308039411902" lon="0.520189963281155">
        <ele>32</ele>
        <time>2018-02-18T08:40:59Z</time>
      </trkpt>
      <trkpt lat="51.675319019705057" lon="0.520234974101186">
        <ele>32</ele>
        <time>2018-02-18T08:41:01Z</time>
      </trkpt>
      <trkpt lat="51.675329999998212" lon="0.520284008234739">
        <ele>32</ele>
        <time>2018-02-18T08:41:03Z</time>
      </trkpt>
      <trkpt lat="51.675341986119747" lon="0.520320972427726">
        <ele>32</ele>
        <time>2018-02-18T08:41:05Z</time>
      </trkpt>
      <trkpt lat="51.675350032746792" lon="0.520365983247757">
        <ele>32</ele>
        <time>2018-02-18T08:41:07Z</time>
      </trkpt>
      <trkpt lat="51.675356989726424" lon="0.52041501738131">
        <ele>32</ele>
        <time>2018-02-18T08:41:09Z</time>
      </trkpt>
      <trkpt lat="51.675365036353469" lon="0.520459022372961">
        <ele>32.023440000000001</ele>
        <time>2018-02-18T08:41:11Z</time>
      </trkpt>
      <trkpt lat="51.675376016646624" lon="0.520503027364612">
        <ele>33</ele>
        <time>2018-02-18T08:41:13Z</time>
      </trkpt>
      <trkpt lat="51.675389008596539" lon="0.520575027912855">
        <ele>33</ele>
        <time>2018-02-18T08:41:16Z</time>
      </trkpt>
      <trkpt lat="51.675397977232933" lon="0.520620038732886">
        <ele>32</ele>
        <time>2018-02-18T08:41:18Z</time>
      </trkpt>
      <trkpt lat="51.675403006374836" lon="0.520663037896156">
        <ele>33</ele>
        <time>2018-02-18T08:41:20Z</time>
      </trkpt>
      <trkpt lat="51.675407029688358" lon="0.520698996260762">
        <ele>33</ele>
        <time>2018-02-18T08:41:22Z</time>
      </trkpt>
      <trkpt lat="51.675415998324752" lon="0.5207350384444">
        <ele>33</ele>
        <time>2018-02-18T08:41:24Z</time>
      </trkpt>
      <trkpt lat="51.675423039123416" lon="0.52077803760767">
        <ele>32</ele>
        <time>2018-02-18T08:41:26Z</time>
      </trkpt>
      <trkpt lat="51.675428990274668" lon="0.520816007629037">
        <ele>32</ele>
        <time>2018-02-18T08:41:28Z</time>
      </trkpt>
      <trkpt lat="51.67543301358819" lon="0.520860012620687">
        <ele>32</ele>
        <time>2018-02-18T08:41:30Z</time>
      </trkpt>
      <trkpt lat="51.675438964739442" lon="0.520903011783957">
        <ele>32</ele>
        <time>2018-02-18T08:41:32Z</time>
      </trkpt>
      <trkpt lat="51.675443993881345" lon="0.520951962098479">
        <ele>32.049996800000002</ele>
        <time>2018-02-18T08:41:34Z</time>
      </trkpt>
      <trkpt lat="51.675453968346119" lon="0.521000996232033">
        <ele>33</ele>
        <time>2018-02-18T08:41:36Z</time>
      </trkpt>
      <trkpt lat="51.675457991659641" lon="0.521026980131865">
        <ele>33</ele>
        <time>2018-02-18T08:41:37Z</time>
      </trkpt>
      <trkpt lat="51.675466038286686" lon="0.52108003757894">
        <ele>33</ele>
        <time>2018-02-18T08:41:39Z</time>
      </trkpt>
      <trkpt lat="51.675477018579841" lon="0.521126976236701">
        <ele>32.950498060984003</ele>
        <time>2018-02-18T08:41:41Z</time>
      </trkpt>
      <trkpt lat="51.675481963902712" lon="0.521169975399971">
        <ele>32</ele>
        <time>2018-02-18T08:41:43Z</time>
      </trkpt>
      <trkpt lat="51.675487998872995" lon="0.521214986220002">
        <ele>32</ele>
        <time>2018-02-18T08:41:45Z</time>
      </trkpt>
      <trkpt lat="51.675493028014898" lon="0.521261002868414">
        <ele>32</ele>
        <time>2018-02-18T08:41:47Z</time>
      </trkpt>
      <trkpt lat="51.67549797333777" lon="0.521306013688445">
        <ele>32</ele>
        <time>2018-02-18T08:41:49Z</time>
      </trkpt>
      <trkpt lat="51.675503002479672" lon="0.521351024508476">
        <ele>32</ele>
        <time>2018-02-18T08:41:51Z</time>
      </trkpt>
      <trkpt lat="51.675509037449956" lon="0.521396035328507">
        <ele>32</ele>
        <time>2018-02-18T08:41:53Z</time>
      </trkpt>
      <trkpt lat="51.675511971116066" lon="0.521443979814649">
        <ele>32</ele>
        <time>2018-02-18T08:41:55Z</time>
      </trkpt>
      <trkpt lat="51.675509959459305" lon="0.521483961492777">
        <ele>32</ele>
        <time>2018-02-18T08:41:57Z</time>
      </trkpt>
      <trkpt lat="51.675515994429588" lon="0.521526960656047">
        <ele>32</ele>
        <time>2018-02-18T08:41:59Z</time>
      </trkpt>
      <trkpt lat="51.675528986379504" lon="0.521571971476078">
        <ele>31.960395914125701</ele>
        <time>2018-02-18T08:42:01Z</time>
      </trkpt>
      <trkpt lat="51.675534015521407" lon="0.52161798812449">
        <ele>31</ele>
        <time>2018-02-18T08:42:03Z</time>
      </trkpt>
      <trkpt lat="51.675542984157801" lon="0.521664004772902">
        <ele>31</ele>
        <time>2018-02-18T08:42:05Z</time>
      </trkpt>
      <trkpt lat="51.675548013299704" lon="0.521709015592933">
        <ele>31</ele>
        <time>2018-02-18T08:42:07Z</time>
      </trkpt>
      <trkpt lat="51.675552958622575" lon="0.521755032241344">
        <ele>31</ele>
        <time>2018-02-18T08:42:09Z</time>
      </trkpt>
      <trkpt lat="51.675561005249619" lon="0.521797025576234">
        <ele>31</ele>
        <time>2018-02-18T08:42:11Z</time>
      </trkpt>
      <trkpt lat="51.675567040219903" lon="0.521830972284079">
        <ele>31</ele>
        <time>2018-02-18T08:42:13Z</time>
      </trkpt>
      <trkpt lat="51.675572991371155" lon="0.521863996982574">
        <ele>31</ele>
        <time>2018-02-18T08:42:15Z</time>
      </trkpt>
      <trkpt lat="51.675581037998199" lon="0.521903978660703">
        <ele>31</ele>
        <time>2018-02-18T08:42:17Z</time>
      </trkpt>
      <trkpt lat="51.675592018291354" lon="0.521941026672721">
        <ele>31</ele>
        <time>2018-02-18T08:42:19Z</time>
      </trkpt>
      <trkpt lat="51.675596041604877" lon="0.52198201417923">
        <ele>31</ele>
        <time>2018-02-18T08:42:21Z</time>
      </trkpt>
      <trkpt lat="51.675604004412889" lon="0.5220250133425">
        <ele>32</ele>
        <time>2018-02-18T08:42:23Z</time>
      </trkpt>
      <trkpt lat="51.675606016069651" lon="0.522059965878725">
        <ele>32</ele>
        <time>2018-02-18T08:42:25Z</time>
      </trkpt>
      <trkpt lat="51.675607021898031" lon="0.522095002233982">
        <ele>32</ele>
        <time>2018-02-18T08:42:27Z</time>
      </trkpt>
      <trkpt lat="51.675611967220902" lon="0.522124003618956">
        <ele>32</ele>
        <time>2018-02-18T08:42:29Z</time>
      </trkpt>
      <trkpt lat="51.675618002191186" lon="0.522160967811942">
        <ele>32</ele>
        <time>2018-02-18T08:42:31Z</time>
      </trkpt>
      <trkpt lat="51.675622025504708" lon="0.522196004167199">
        <ele>33</ele>
        <time>2018-02-18T08:42:33Z</time>
      </trkpt>
      <trkpt lat="51.675624959170818" lon="0.522230034694076">
        <ele>33</ele>
        <time>2018-02-18T08:42:35Z</time>
      </trkpt>
      <trkpt lat="51.675629988312721" lon="0.522259036079049">
        <ele>33</ele>
        <time>2018-02-18T08:42:37Z</time>
      </trkpt>
      <trkpt lat="51.675636023283005" lon="0.522294994443655">
        <ele>32</ele>
        <time>2018-02-18T08:42:39Z</time>
      </trkpt>
      <trkpt lat="51.675641974434257" lon="0.522330030798912">
        <ele>32</ele>
        <time>2018-02-18T08:42:41Z</time>
      </trkpt>
      <trkpt lat="51.675645997747779" lon="0.522361965849996">
        <ele>32</ele>
        <time>2018-02-18T08:42:44Z</time>
      </trkpt>
      <trkpt lat="51.675653038546443" lon="0.522403037175536">
        <ele>32</ele>
        <time>2018-02-18T08:42:59Z</time>
      </trkpt>
      <trkpt lat="51.675658989697695" lon="0.522438995540142">
        <ele>32</ele>
        <time>2018-02-18T08:43:01Z</time>
      </trkpt>
      <trkpt lat="51.675667036324739" lon="0.522487023845315">
        <ele>32</ele>
        <time>2018-02-18T08:43:03Z</time>
      </trkpt>
      <trkpt lat="51.675674999132752" lon="0.522539997473359">
        <ele>33</ele>
        <time>2018-02-18T08:43:05Z</time>
      </trkpt>
      <trkpt lat="51.675682961940765" lon="0.522567993029952">
        <ele>33</ele>
        <time>2018-02-18T08:43:06Z</time>
      </trkpt>
      <trkpt lat="51.675693020224571" lon="0.522598000243306">
        <ele>33</ele>
        <time>2018-02-18T08:43:07Z</time>
      </trkpt>
      <trkpt lat="51.675701988860965" lon="0.522631024941802">
        <ele>33</ele>
        <time>2018-02-18T08:43:08Z</time>
      </trkpt>
      <trkpt lat="51.675717998296022" lon="0.522695984691381">
        <ele>33</ele>
        <time>2018-02-18T08:43:10Z</time>
      </trkpt>
      <trkpt lat="51.675726966932416" lon="0.522730015218258">
        <ele>33</ele>
        <time>2018-02-18T08:43:11Z</time>
      </trkpt>
      <trkpt lat="51.675736019387841" lon="0.522764967754483">
        <ele>33</ele>
        <time>2018-02-18T08:43:12Z</time>
      </trkpt>
      <trkpt lat="51.675745993852615" lon="0.522794974967837">
        <ele>33</ele>
        <time>2018-02-18T08:43:13Z</time>
      </trkpt>
      <trkpt lat="51.675751022994518" lon="0.522825988009572">
        <ele>33</ele>
        <time>2018-02-18T08:43:14Z</time>
      </trkpt>
      <trkpt lat="51.67575697414577" lon="0.522858006879687">
        <ele>33.047616145115903</ele>
        <time>2018-02-18T08:43:15Z</time>
      </trkpt>
      <trkpt lat="51.675765020772815" lon="0.522890025749803">
        <ele>34</ele>
        <time>2018-02-18T08:43:16Z</time>
      </trkpt>
      <trkpt lat="51.675770971924067" lon="0.522922966629267">
        <ele>34</ele>
        <time>2018-02-18T08:43:17Z</time>
      </trkpt>
      <trkpt lat="51.675780024379492" lon="0.522953979671001">
        <ele>34</ele>
        <time>2018-02-18T08:43:18Z</time>
      </trkpt>
      <trkpt lat="51.675786981359124" lon="0.522987004369497">
        <ele>34</ele>
        <time>2018-02-18T08:43:19Z</time>
      </trkpt>
      <trkpt lat="51.675795027986169" lon="0.523020029067993">
        <ele>34.040403909805498</ele>
        <time>2018-02-18T08:43:20Z</time>
      </trkpt>
      <trkpt lat="51.675802990794182" lon="0.523052969947457">
        <ele>35</ele>
        <time>2018-02-18T08:43:21Z</time>
      </trkpt>
      <trkpt lat="51.675810031592846" lon="0.523089012131095">
        <ele>35</ele>
        <time>2018-02-18T08:43:22Z</time>
      </trkpt>
      <trkpt lat="51.675817994400859" lon="0.52312002517283">
        <ele>35</ele>
        <time>2018-02-18T08:43:23Z</time>
      </trkpt>
      <trkpt lat="51.675824029371142" lon="0.523152966052294">
        <ele>34.946897442287202</ele>
        <time>2018-02-18T08:43:24Z</time>
      </trkpt>
      <trkpt lat="51.675831992179155" lon="0.52318699657917">
        <ele>34.061949208219097</ele>
        <time>2018-02-18T08:43:25Z</time>
      </trkpt>
      <trkpt lat="51.675839032977819" lon="0.523219015449286">
        <ele>34</ele>
        <time>2018-02-18T08:43:26Z</time>
      </trkpt>
      <trkpt lat="51.675845989957452" lon="0.523254973813891">
        <ele>34</ele>
        <time>2018-02-18T08:43:27Z</time>
      </trkpt>
      <trkpt lat="51.675854036584496" lon="0.523285986855626">
        <ele>34</ele>
        <time>2018-02-18T08:43:28Z</time>
      </trkpt>
      <trkpt lat="51.67586300522089" lon="0.523319011554122">
        <ele>34</ele>
        <time>2018-02-18T08:43:29Z</time>
      </trkpt>
      <trkpt lat="51.675870968028903" lon="0.523352958261967">
        <ele>34</ele>
        <time>2018-02-18T08:43:30Z</time>
      </trkpt>
      <trkpt lat="51.675881026312709" lon="0.523385982960463">
        <ele>34</ele>
        <time>2018-02-18T08:43:31Z</time>
      </trkpt>
      <trkpt lat="51.675889994949102" lon="0.523419007658958">
        <ele>34</ele>
        <time>2018-02-18T08:43:32Z</time>
      </trkpt>
      <trkpt lat="51.675897035747766" lon="0.523452032357454">
        <ele>34</ele>
        <time>2018-02-18T08:43:33Z</time>
      </trkpt>
      <trkpt lat="51.675903992727399" lon="0.52348799072206">
        <ele>34.923809291609302</ele>
        <time>2018-02-18T08:43:34Z</time>
      </trkpt>
      <trkpt lat="51.675912039354444" lon="0.523522021248937">
        <ele>35</ele>
        <time>2018-02-18T08:43:35Z</time>
      </trkpt>
      <trkpt lat="51.675918996334076" lon="0.523556973785162">
        <ele>35</ele>
        <time>2018-02-18T08:43:36Z</time>
      </trkpt>
      <trkpt lat="51.67592603713274" lon="0.52359402179718">
        <ele>35</ele>
        <time>2018-02-18T08:43:37Z</time>
      </trkpt>
      <trkpt lat="51.675931988283992" lon="0.523627968505025">
        <ele>35</ele>
        <time>2018-02-18T08:43:38Z</time>
      </trkpt>
      <trkpt lat="51.675940034911036" lon="0.523664010688663">
        <ele>35</ele>
        <time>2018-02-18T08:43:39Z</time>
      </trkpt>
      <trkpt lat="51.675946991890669" lon="0.523699969053268">
        <ele>35</ele>
        <time>2018-02-18T08:43:40Z</time>
      </trkpt>
      <trkpt lat="51.675956966355443" lon="0.523735005408525">
        <ele>35</ele>
        <time>2018-02-18T08:43:41Z</time>
      </trkpt>
      <trkpt lat="51.675975993275642" lon="0.523803988471627">
        <ele>35</ele>
        <time>2018-02-18T08:43:43Z</time>
      </trkpt>
      <trkpt lat="51.675985967740417" lon="0.523842964321375">
        <ele>35</ele>
        <time>2018-02-18T08:43:44Z</time>
      </trkpt>
      <trkpt lat="51.675993008539081" lon="0.523880012333393">
        <ele>35.7209295402903</ele>
        <time>2018-02-18T08:43:45Z</time>
      </trkpt>
      <trkpt lat="51.676000971347094" lon="0.523915970697999">
        <ele>36</ele>
        <time>2018-02-18T08:43:46Z</time>
      </trkpt>
      <trkpt lat="51.676019998267293" lon="0.523986965417862">
        <ele>36</ele>
        <time>2018-02-18T08:43:48Z</time>
      </trkpt>
      <trkpt lat="51.676031984388828" lon="0.524019990116358">
        <ele>36</ele>
        <time>2018-02-18T08:43:49Z</time>
      </trkpt>
      <trkpt lat="51.676041958853602" lon="0.524049997329712">
        <ele>36</ele>
        <time>2018-02-18T08:43:50Z</time>
      </trkpt>
      <trkpt lat="51.676053022965789" lon="0.524084027856588">
        <ele>35.976559999999999</ele>
        <time>2018-02-18T08:43:51Z</time>
      </trkpt>
      <trkpt lat="51.676062997430563" lon="0.524119986221194">
        <ele>35.195309999999999</ele>
        <time>2018-02-18T08:43:52Z</time>
      </trkpt>
      <trkpt lat="51.676070960238576" lon="0.524155022576451">
        <ele>35</ele>
        <time>2018-02-18T08:43:53Z</time>
      </trkpt>
      <trkpt lat="51.676079006865621" lon="0.524187963455915">
        <ele>35</ele>
        <time>2018-02-18T08:43:54Z</time>
      </trkpt>
      <trkpt lat="51.676086969673634" lon="0.524221993982792">
        <ele>35</ele>
        <time>2018-02-18T08:43:55Z</time>
      </trkpt>
      <trkpt lat="51.676095016300678" lon="0.52425803616643">
        <ele>35</ele>
        <time>2018-02-18T08:43:56Z</time>
      </trkpt>
      <trkpt lat="51.676104990765452" lon="0.524293994531035">
        <ele>35</ele>
        <time>2018-02-18T08:43:57Z</time>
      </trkpt>
      <trkpt lat="51.676113959401846" lon="0.524331964552403">
        <ele>35</ele>
        <time>2018-02-18T08:43:58Z</time>
      </trkpt>
      <trkpt lat="51.676122006028891" lon="0.52436700090766">
        <ele>35</ele>
        <time>2018-02-18T08:43:59Z</time>
      </trkpt>
      <trkpt lat="51.676130974665284" lon="0.524402037262917">
        <ele>35</ele>
        <time>2018-02-18T08:44:00Z</time>
      </trkpt>
      <trkpt lat="51.676139021292329" lon="0.524436989799142">
        <ele>35</ele>
        <time>2018-02-18T08:44:01Z</time>
      </trkpt>
      <trkpt lat="51.676146984100342" lon="0.524469008669257">
        <ele>35</ele>
        <time>2018-02-18T08:44:02Z</time>
      </trkpt>
      <trkpt lat="51.676156958565116" lon="0.524503039196134">
        <ele>35</ele>
        <time>2018-02-18T08:44:03Z</time>
      </trkpt>
      <trkpt lat="51.676166011020541" lon="0.52454000338912">
        <ele>35.730162438920303</ele>
        <time>2018-02-18T08:44:04Z</time>
      </trkpt>
      <trkpt lat="51.676171040162444" lon="0.524576967582107">
        <ele>36</ele>
        <time>2018-02-18T08:44:05Z</time>
      </trkpt>
      <trkpt lat="51.676181014627218" lon="0.524606974795461">
        <ele>36</ele>
        <time>2018-02-18T08:44:06Z</time>
      </trkpt>
      <trkpt lat="51.676191994920373" lon="0.524633964523673">
        <ele>36</ele>
        <time>2018-02-18T08:44:07Z</time>
      </trkpt>
      <trkpt lat="51.676201969385147" lon="0.524666989222169">
        <ele>36</ele>
        <time>2018-02-18T08:44:08Z</time>
      </trkpt>
      <trkpt lat="51.676210016012192" lon="0.524696996435523">
        <ele>36</ele>
        <time>2018-02-18T08:44:09Z</time>
      </trkpt>
      <trkpt lat="51.676219990476966" lon="0.524731026962399">
        <ele>35.031582209407297</ele>
        <time>2018-02-18T08:44:10Z</time>
      </trkpt>
      <trkpt lat="51.67622996494174" lon="0.524765979498625">
        <ele>35</ele>
        <time>2018-02-18T08:44:11Z</time>
      </trkpt>
      <trkpt lat="51.676237005740404" lon="0.524801015853882">
        <ele>35</ele>
        <time>2018-02-18T08:44:12Z</time>
      </trkpt>
      <trkpt lat="51.676242034882307" lon="0.524836974218488">
        <ele>35</ele>
        <time>2018-02-18T08:44:13Z</time>
      </trkpt>
      <trkpt lat="51.676251003518701" lon="0.524869998916984">
        <ele>35</ele>
        <time>2018-02-18T08:44:14Z</time>
      </trkpt>
      <trkpt lat="51.676257960498333" lon="0.524903023615479">
        <ele>35</ele>
        <time>2018-02-18T08:44:15Z</time>
      </trkpt>
      <trkpt lat="51.676267012953758" lon="0.524937976151705">
        <ele>35</ele>
        <time>2018-02-18T08:44:16Z</time>
      </trkpt>
      <trkpt lat="51.676275981590152" lon="0.524972006678581">
        <ele>35</ele>
        <time>2018-02-18T08:44:17Z</time>
      </trkpt>
      <trkpt lat="51.676286039873958" lon="0.525006959214807">
        <ele>35</ele>
        <time>2018-02-18T08:44:18Z</time>
      </trkpt>
      <trkpt lat="51.676295008510351" lon="0.525040989741683">
        <ele>35</ele>
        <time>2018-02-18T08:44:19Z</time>
      </trkpt>
      <trkpt lat="51.676303977146745" lon="0.52507602609694">
        <ele>35</ele>
        <time>2018-02-18T08:44:20Z</time>
      </trkpt>
      <trkpt lat="51.676316969096661" lon="0.525108966976404">
        <ele>35</ele>
        <time>2018-02-18T08:44:21Z</time>
      </trkpt>
      <trkpt lat="51.676327027380466" lon="0.525140985846519">
        <ele>35</ele>
        <time>2018-02-18T08:44:22Z</time>
      </trkpt>
      <trkpt lat="51.676337001845241" lon="0.525175016373396">
        <ele>35</ele>
        <time>2018-02-18T08:44:23Z</time>
      </trkpt>
      <trkpt lat="51.676348987966776" lon="0.525207035243511">
        <ele>35</ele>
        <time>2018-02-18T08:44:24Z</time>
      </trkpt>
      <trkpt lat="51.676358040422201" lon="0.525239976122975">
        <ele>35</ele>
        <time>2018-02-18T08:44:25Z</time>
      </trkpt>
      <trkpt lat="51.676366003230214" lon="0.525273000821471">
        <ele>35</ele>
        <time>2018-02-18T08:44:26Z</time>
      </trkpt>
      <trkpt lat="51.676373966038227" lon="0.525305019691586">
        <ele>35</ele>
        <time>2018-02-18T08:44:27Z</time>
      </trkpt>
      <trkpt lat="51.676382012665272" lon="0.525337038561702">
        <ele>34</ele>
        <time>2018-02-18T08:44:28Z</time>
      </trkpt>
      <trkpt lat="51.676389975473285" lon="0.525366961956024">
        <ele>34</ele>
        <time>2018-02-18T08:44:29Z</time>
      </trkpt>
      <trkpt lat="51.676400033757091" lon="0.52539998665452">
        <ele>34</ele>
        <time>2018-02-18T08:44:30Z</time>
      </trkpt>
      <trkpt lat="51.676409002393484" lon="0.525432005524635">
        <ele>34</ele>
        <time>2018-02-18T08:44:31Z</time>
      </trkpt>
      <trkpt lat="51.676417971029878" lon="0.525466036051512">
        <ele>34</ele>
        <time>2018-02-18T08:44:32Z</time>
      </trkpt>
      <trkpt lat="51.676428029313684" lon="0.525501994416118">
        <ele>34</ele>
        <time>2018-02-18T08:44:33Z</time>
      </trkpt>
      <trkpt lat="51.676436997950077" lon="0.525537030771375">
        <ele>34</ele>
        <time>2018-02-18T08:44:34Z</time>
      </trkpt>
      <trkpt lat="51.676445966586471" lon="0.525572989135981">
        <ele>34.020624950516002</ele>
        <time>2018-02-18T08:44:35Z</time>
      </trkpt>
      <trkpt lat="51.676454013213515" lon="0.525606013834476">
        <ele>35</ele>
        <time>2018-02-18T08:44:36Z</time>
      </trkpt>
      <trkpt lat="51.676462981849909" lon="0.525639038532972">
        <ele>35</ele>
        <time>2018-02-18T08:44:37Z</time>
      </trkpt>
      <trkpt lat="51.676473962143064" lon="0.525672985240817">
        <ele>35</ele>
        <time>2018-02-18T08:44:38Z</time>
      </trkpt>
      <trkpt lat="51.676483014598489" lon="0.525705004110932">
        <ele>34.950003199999998</ele>
        <time>2018-02-18T08:44:39Z</time>
      </trkpt>
      <trkpt lat="51.676492989063263" lon="0.525740040466189">
        <ele>34</ele>
        <time>2018-02-18T08:44:40Z</time>
      </trkpt>
      <trkpt lat="51.676502963528037" lon="0.525772981345654">
        <ele>34</ele>
        <time>2018-02-18T08:44:41Z</time>
      </trkpt>
      <trkpt lat="51.676513021811843" lon="0.525810029357672">
        <ele>34</ele>
        <time>2018-02-18T08:44:42Z</time>
      </trkpt>
      <trkpt lat="51.676522996276617" lon="0.525844981893897">
        <ele>34</ele>
        <time>2018-02-18T08:44:43Z</time>
      </trkpt>
      <trkpt lat="51.676532970741391" lon="0.525881024077535">
        <ele>34</ele>
        <time>2018-02-18T08:44:44Z</time>
      </trkpt>
      <trkpt lat="51.676542023196816" lon="0.525916982442141">
        <ele>34</ele>
        <time>2018-02-18T08:44:45Z</time>
      </trkpt>
      <trkpt lat="51.67655099183321" lon="0.525952018797398">
        <ele>34</ele>
        <time>2018-02-18T08:44:46Z</time>
      </trkpt>
      <trkpt lat="51.676559960469604" lon="0.525988982990384">
        <ele>34</ele>
        <time>2018-02-18T08:44:47Z</time>
      </trkpt>
      <trkpt lat="51.676565995439887" lon="0.526024019345641">
        <ele>34</ele>
        <time>2018-02-18T08:44:48Z</time>
      </trkpt>
      <trkpt lat="51.676572030410171" lon="0.526058971881866">
        <ele>34</ele>
        <time>2018-02-18T08:44:49Z</time>
      </trkpt>
      <trkpt lat="51.676579993218184" lon="0.526090990751982">
        <ele>34</ele>
        <time>2018-02-18T08:44:50Z</time>
      </trkpt>
      <trkpt lat="51.676588961854577" lon="0.526120997965336">
        <ele>34</ele>
        <time>2018-02-18T08:44:51Z</time>
      </trkpt>
      <trkpt lat="51.676597008481622" lon="0.526155028492212">
        <ele>34</ele>
        <time>2018-02-18T08:44:52Z</time>
      </trkpt>
      <trkpt lat="51.676604971289635" lon="0.526188975200057">
        <ele>34</ele>
        <time>2018-02-18T08:44:53Z</time>
      </trkpt>
      <trkpt lat="51.676612012088299" lon="0.526221999898553">
        <ele>34</ele>
        <time>2018-02-18T08:44:54Z</time>
      </trkpt>
      <trkpt lat="51.676618969067931" lon="0.526256030425429">
        <ele>33.979375049483998</ele>
        <time>2018-02-18T08:44:55Z</time>
      </trkpt>
      <trkpt lat="51.676627015694976" lon="0.526288971304893">
        <ele>33</ele>
        <time>2018-02-18T08:44:56Z</time>
      </trkpt>
      <trkpt lat="51.676633972674608" lon="0.526325013488531">
        <ele>33</ele>
        <time>2018-02-18T08:44:57Z</time>
      </trkpt>
      <trkpt lat="51.676642019301653" lon="0.526357032358646">
        <ele>33</ele>
        <time>2018-02-18T08:44:58Z</time>
      </trkpt>
      <trkpt lat="51.676649982109666" lon="0.526387039572001">
        <ele>33</ele>
        <time>2018-02-18T08:44:59Z</time>
      </trkpt>
      <trkpt lat="51.676659034565091" lon="0.526416040956974">
        <ele>33</ele>
        <time>2018-02-18T08:45:00Z</time>
      </trkpt>
      <trkpt lat="51.676669009029865" lon="0.526470020413399">
        <ele>33</ele>
        <time>2018-02-18T08:45:02Z</time>
      </trkpt>
      <trkpt lat="51.67667998932302" lon="0.52651796489954">
        <ele>33</ele>
        <time>2018-02-18T08:45:04Z</time>
      </trkpt>
      <trkpt lat="51.676689963787794" lon="0.526577979326248">
        <ele>33</ele>
        <time>2018-02-18T08:45:06Z</time>
      </trkpt>
      <trkpt lat="51.676691975444555" lon="0.526609998196363">
        <ele>33</ele>
        <time>2018-02-18T08:45:07Z</time>
      </trkpt>
      <trkpt lat="51.676691975444555" lon="0.526641011238098">
        <ele>33</ele>
        <time>2018-02-18T08:45:08Z</time>
      </trkpt>
      <trkpt lat="51.676699016243219" lon="0.526669006794691">
        <ele>33</ele>
        <time>2018-02-18T08:45:09Z</time>
      </trkpt>
      <trkpt lat="51.676715025678277" lon="0.52668996155262">
        <ele>33</ele>
        <time>2018-02-18T08:45:10Z</time>
      </trkpt>
      <trkpt lat="51.676733968779445" lon="0.526699014008045">
        <ele>33</ele>
        <time>2018-02-18T08:45:11Z</time>
      </trkpt>
      <trkpt lat="51.676769005134702" lon="0.526695996522903">
        <ele>33</ele>
        <time>2018-02-18T08:45:13Z</time>
      </trkpt>
      <trkpt lat="51.676787026226521" lon="0.526690967381001">
        <ele>33</ele>
        <time>2018-02-18T08:45:14Z</time>
      </trkpt>
      <trkpt lat="51.676823990419507" lon="0.526675963774323">
        <ele>33</ele>
        <time>2018-02-18T08:45:16Z</time>
      </trkpt>
      <trkpt lat="51.676842011511326" lon="0.526674035936594">
        <ele>33.039999999999999</ele>
        <time>2018-02-18T08:45:17Z</time>
      </trkpt>
      <trkpt lat="51.676870007067919" lon="0.526673030108213">
        <ele>34</ele>
        <time>2018-02-18T08:45:19Z</time>
      </trkpt>
      <trkpt lat="51.676890961825848" lon="0.526678981259465">
        <ele>34</ele>
        <time>2018-02-18T08:45:21Z</time>
      </trkpt>
      <trkpt lat="51.676909988746047" lon="0.526689039543271">
        <ele>34</ele>
        <time>2018-02-18T08:45:24Z</time>
      </trkpt>
      <trkpt lat="51.676918035373092" lon="0.526717035099864">
        <ele>34</ele>
        <time>2018-02-18T08:45:27Z</time>
      </trkpt>
      <trkpt lat="51.676929015666246" lon="0.526759028434753">
        <ele>34</ele>
        <time>2018-02-18T08:45:29Z</time>
      </trkpt>
      <trkpt lat="51.676936978474259" lon="0.526799010112882">
        <ele>34.040803531778202</ele>
        <time>2018-02-18T08:45:32Z</time>
      </trkpt>
      <trkpt lat="51.676941001787782" lon="0.526832034811378">
        <ele>36</ele>
        <time>2018-02-18T08:45:34Z</time>
      </trkpt>
      <trkpt lat="51.676943013444543" lon="0.526856007054448">
        <ele>36.940588287477702</ele>
        <time>2018-02-18T08:45:36Z</time>
      </trkpt>
      <trkpt lat="51.676944019272923" lon="0.526887020096183">
        <ele>37</ele>
        <time>2018-02-18T08:45:38Z</time>
      </trkpt>
      <trkpt lat="51.676919963210821" lon="0.526909986510873">
        <ele>37</ele>
        <time>2018-02-18T08:45:41Z</time>
      </trkpt>
      <trkpt lat="51.676902025938034" lon="0.526917027309537">
        <ele>37.039999999999999</ele>
        <time>2018-02-18T08:45:43Z</time>
      </trkpt>
      <trkpt lat="51.676876964047551" lon="0.526921972632408">
        <ele>38.060006399999999</ele>
        <time>2018-02-18T08:45:46Z</time>
      </trkpt>
      <trkpt lat="51.676869001239538" lon="0.526962038129568">
        <ele>41</ele>
        <time>2018-02-18T08:45:49Z</time>
      </trkpt>
      <trkpt lat="51.676875958219171" lon="0.527015011757612">
        <ele>41</ele>
        <time>2018-02-18T08:45:51Z</time>
      </trkpt>
      <trkpt lat="51.676879981532693" lon="0.527046024799347">
        <ele>41</ele>
        <time>2018-02-18T08:45:52Z</time>
      </trkpt>
      <trkpt lat="51.676885010674596" lon="0.52707795985043">
        <ele>41</ele>
        <time>2018-02-18T08:45:53Z</time>
      </trkpt>
      <trkpt lat="51.676890039816499" lon="0.527111990377307">
        <ele>41</ele>
        <time>2018-02-18T08:45:54Z</time>
      </trkpt>
      <trkpt lat="51.67689498513937" lon="0.527145015075803">
        <ele>41</ele>
        <time>2018-02-18T08:45:55Z</time>
      </trkpt>
      <trkpt lat="51.676898002624512" lon="0.527178039774299">
        <ele>41</ele>
        <time>2018-02-18T08:45:56Z</time>
      </trkpt>
      <trkpt lat="51.676902025938034" lon="0.527235036715865">
        <ele>41</ele>
        <time>2018-02-18T08:45:58Z</time>
      </trkpt>
      <trkpt lat="51.676905965432525" lon="0.527267977595329">
        <ele>41</ele>
        <time>2018-02-18T08:45:59Z</time>
      </trkpt>
      <trkpt lat="51.676910994574428" lon="0.527299996465445">
        <ele>41</ele>
        <time>2018-02-18T08:46:00Z</time>
      </trkpt>
      <trkpt lat="51.67691501788795" lon="0.52733201533556">
        <ele>41</ele>
        <time>2018-02-18T08:46:01Z</time>
      </trkpt>
      <trkpt lat="51.676919041201472" lon="0.527365962043405">
        <ele>41</ele>
        <time>2018-02-18T08:46:02Z</time>
      </trkpt>
      <trkpt lat="51.676922980695963" lon="0.527394963428378">
        <ele>41</ele>
        <time>2018-02-18T08:46:03Z</time>
      </trkpt>
      <trkpt lat="51.676928009837866" lon="0.527423964813352">
        <ele>41</ele>
        <time>2018-02-18T08:46:04Z</time>
      </trkpt>
      <trkpt lat="51.676933038979769" lon="0.527454977855086">
        <ele>41</ele>
        <time>2018-02-18T08:46:05Z</time>
      </trkpt>
      <trkpt lat="51.676928009837866" lon="0.527497977018356">
        <ele>40.123888492427596</ele>
        <time>2018-02-18T08:46:07Z</time>
      </trkpt>
      <trkpt lat="51.676913006231189" lon="0.527515998110175">
        <ele>40</ele>
        <time>2018-02-18T08:46:10Z</time>
      </trkpt>
      <trkpt lat="51.676898002624512" lon="0.527528990060091">
        <ele>38</ele>
        <time>2018-02-18T08:46:13Z</time>
      </trkpt>
      <trkpt lat="51.676904037594795" lon="0.527557991445065">
        <ele>37</ele>
        <time>2018-02-18T08:46:17Z</time>
      </trkpt>
      <trkpt lat="51.676925998181105" lon="0.527555979788303">
        <ele>36</ele>
        <time>2018-02-18T08:46:20Z</time>
      </trkpt>
      <trkpt lat="51.676954999566078" lon="0.527539970353246">
        <ele>35</ele>
        <time>2018-02-18T08:46:22Z</time>
      </trkpt>
      <trkpt lat="51.676996992900968" lon="0.527514992281795">
        <ele>35</ele>
        <time>2018-02-18T08:46:24Z</time>
      </trkpt>
      <trkpt lat="51.677015013992786" lon="0.52750501781702">
        <ele>35</ele>
        <time>2018-02-18T08:46:25Z</time>
      </trkpt>
      <trkpt lat="51.677034962922335" lon="0.527494959533215">
        <ele>33.159999999999997</ele>
        <time>2018-02-18T08:46:26Z</time>
      </trkpt>
      <trkpt lat="51.677056001499295" lon="0.527486996725202">
        <ele>33</ele>
        <time>2018-02-18T08:46:27Z</time>
      </trkpt>
      <trkpt lat="51.677077040076256" lon="0.527480039745569">
        <ele>33</ele>
        <time>2018-02-18T08:46:28Z</time>
      </trkpt>
      <trkpt lat="51.677100006490946" lon="0.527471993118525">
        <ele>33.930689681392998</ele>
        <time>2018-02-18T08:46:29Z</time>
      </trkpt>
      <trkpt lat="51.677120961248875" lon="0.52746201865375">
        <ele>34</ele>
        <time>2018-02-18T08:46:30Z</time>
      </trkpt>
      <trkpt lat="51.677143005654216" lon="0.527452966198325">
        <ele>34</ele>
        <time>2018-02-18T08:46:31Z</time>
      </trkpt>
      <trkpt lat="51.677165972068906" lon="0.527446009218693">
        <ele>34</ele>
        <time>2018-02-18T08:46:32Z</time>
      </trkpt>
      <trkpt lat="51.677189022302628" lon="0.527437040582299">
        <ele>33.061218358977001</ele>
        <time>2018-02-18T08:46:33Z</time>
      </trkpt>
      <trkpt lat="51.677211988717318" lon="0.527427988126874">
        <ele>33</ele>
        <time>2018-02-18T08:46:34Z</time>
      </trkpt>
      <trkpt lat="51.677235960960388" lon="0.527420025318861">
        <ele>33</ele>
        <time>2018-02-18T08:46:35Z</time>
      </trkpt>
      <trkpt lat="51.67725901119411" lon="0.527411978691816">
        <ele>33</ele>
        <time>2018-02-18T08:46:36Z</time>
      </trkpt>
      <trkpt lat="51.677280971780419" lon="0.527403010055423">
        <ele>33</ele>
        <time>2018-02-18T08:46:37Z</time>
      </trkpt>
      <trkpt lat="51.677325982600451" lon="0.527383983135223">
        <ele>34</ele>
        <time>2018-02-18T08:46:39Z</time>
      </trkpt>
      <trkpt lat="51.677349032834172" lon="0.52737602032721">
        <ele>34</ele>
        <time>2018-02-18T08:46:40Z</time>
      </trkpt>
      <trkpt lat="51.677374010905623" lon="0.527369985356927">
        <ele>34</ele>
        <time>2018-02-18T08:46:41Z</time>
      </trkpt>
      <trkpt lat="51.677396977320313" lon="0.527363028377295">
        <ele>34</ele>
        <time>2018-02-18T08:46:42Z</time>
      </trkpt>
      <trkpt lat="51.677420027554035" lon="0.527353975921869">
        <ele>34</ele>
        <time>2018-02-18T08:46:43Z</time>
      </trkpt>
      <trkpt lat="51.677443999797106" lon="0.527346013113856">
        <ele>34</ele>
        <time>2018-02-18T08:46:44Z</time>
      </trkpt>
      <trkpt lat="51.677465960383415" lon="0.527337966486812">
        <ele>34</ele>
        <time>2018-02-18T08:46:45Z</time>
      </trkpt>
      <trkpt lat="51.677489010617137" lon="0.527330003678799">
        <ele>34</ele>
        <time>2018-02-18T08:46:46Z</time>
      </trkpt>
      <trkpt lat="51.677511977031827" lon="0.527320029214025">
        <ele>34</ele>
        <time>2018-02-18T08:46:47Z</time>
      </trkpt>
      <trkpt lat="51.677535027265549" lon="0.52731198258698">
        <ele>34</ele>
        <time>2018-02-18T08:46:48Z</time>
      </trkpt>
      <trkpt lat="51.677556987851858" lon="0.527301002293825">
        <ele>34</ele>
        <time>2018-02-18T08:46:49Z</time>
      </trkpt>
      <trkpt lat="51.677579032257199" lon="0.527291027829051">
        <ele>34</ele>
        <time>2018-02-18T08:46:50Z</time>
      </trkpt>
      <trkpt lat="51.677601998671889" lon="0.527280969545245">
        <ele>34</ele>
        <time>2018-02-18T08:46:51Z</time>
      </trkpt>
      <trkpt lat="51.677621025592089" lon="0.527273006737232">
        <ele>34</ele>
        <time>2018-02-18T08:46:52Z</time>
      </trkpt>
      <trkpt lat="51.677641980350018" lon="0.527272000908852">
        <ele>34</ele>
        <time>2018-02-18T08:46:56Z</time>
      </trkpt>
      <trkpt lat="51.677653966471553" lon="0.527297984808683">
        <ele>34</ele>
        <time>2018-02-18T08:46:59Z</time>
      </trkpt>
      <trkpt lat="51.677657989785075" lon="0.527359005063772">
        <ele>34</ele>
        <time>2018-02-18T08:47:01Z</time>
      </trkpt>
      <trkpt lat="51.677661007270217" lon="0.52739798091352">
        <ele>34</ele>
        <time>2018-02-18T08:47:02Z</time>
      </trkpt>
      <trkpt lat="51.677666958421469" lon="0.527437040582299">
        <ele>34</ele>
        <time>2018-02-18T08:47:03Z</time>
      </trkpt>
      <trkpt lat="51.677673999220133" lon="0.527476016432047">
        <ele>34</ele>
        <time>2018-02-18T08:47:04Z</time>
      </trkpt>
      <trkpt lat="51.677681962028146" lon="0.527513986453414">
        <ele>34.9799938560786</ele>
        <time>2018-02-18T08:47:05Z</time>
      </trkpt>
      <trkpt lat="51.67768900282681" lon="0.527550028637052">
        <ele>35</ele>
        <time>2018-02-18T08:47:06Z</time>
      </trkpt>
      <trkpt lat="51.677697971463203" lon="0.527589004486799">
        <ele>35</ele>
        <time>2018-02-18T08:47:07Z</time>
      </trkpt>
      <trkpt lat="51.677705012261868" lon="0.527622029185295">
        <ele>35</ele>
        <time>2018-02-18T08:47:08Z</time>
      </trkpt>
      <trkpt lat="51.677713980898261" lon="0.52765698172152">
        <ele>35</ele>
        <time>2018-02-18T08:47:09Z</time>
      </trkpt>
      <trkpt lat="51.677723033353686" lon="0.527691012248397">
        <ele>35</ele>
        <time>2018-02-18T08:47:10Z</time>
      </trkpt>
      <trkpt lat="51.67773300781846" lon="0.52772001363337">
        <ele>35</ele>
        <time>2018-02-18T08:47:11Z</time>
      </trkpt>
      <trkpt lat="51.677743988111615" lon="0.527751026675105">
        <ele>35</ele>
        <time>2018-02-18T08:47:12Z</time>
      </trkpt>
      <trkpt lat="51.677750023081899" lon="0.52778203971684">
        <ele>34.0660403559828</ele>
        <time>2018-02-18T08:47:13Z</time>
      </trkpt>
      <trkpt lat="51.677757985889912" lon="0.527817998081446">
        <ele>34</ele>
        <time>2018-02-18T08:47:14Z</time>
      </trkpt>
      <trkpt lat="51.677765026688576" lon="0.527855968102813">
        <ele>34.8630067330621</ele>
        <time>2018-02-18T08:47:15Z</time>
      </trkpt>
      <trkpt lat="51.677768966183066" lon="0.52789201028645">
        <ele>35</ele>
        <time>2018-02-18T08:47:16Z</time>
      </trkpt>
      <trkpt lat="51.67777600698173" lon="0.527929980307817">
        <ele>35</ele>
        <time>2018-02-18T08:47:17Z</time>
      </trkpt>
      <trkpt lat="51.677786987274885" lon="0.527966022491455">
        <ele>35</ele>
        <time>2018-02-18T08:47:18Z</time>
      </trkpt>
      <trkpt lat="51.677799979224801" lon="0.528001980856061">
        <ele>35</ele>
        <time>2018-02-18T08:47:19Z</time>
      </trkpt>
      <trkpt lat="51.677811965346336" lon="0.52804003469646">
        <ele>35</ele>
        <time>2018-02-18T08:47:20Z</time>
      </trkpt>
      <trkpt lat="51.677819006145" lon="0.528076998889446">
        <ele>35</ele>
        <time>2018-02-18T08:47:21Z</time>
      </trkpt>
      <trkpt lat="51.677825963124633" lon="0.528113041073084">
        <ele>35</ele>
        <time>2018-02-18T08:47:22Z</time>
      </trkpt>
      <trkpt lat="51.677833003923297" lon="0.528146987780929">
        <ele>35</ele>
        <time>2018-02-18T08:47:23Z</time>
      </trkpt>
      <trkpt lat="51.67784096673131" lon="0.528181018307805">
        <ele>35</ele>
        <time>2018-02-18T08:47:24Z</time>
      </trkpt>
      <trkpt lat="51.677849013358355" lon="0.52821597084403">
        <ele>35</ele>
        <time>2018-02-18T08:47:25Z</time>
      </trkpt>
      <trkpt lat="51.677853958681226" lon="0.528254024684429">
        <ele>35</ele>
        <time>2018-02-18T08:47:26Z</time>
      </trkpt>
      <trkpt lat="51.677859993651509" lon="0.528288977220654">
        <ele>35</ele>
        <time>2018-02-18T08:47:27Z</time>
      </trkpt>
      <trkpt lat="51.67786200530827" lon="0.528323007747531">
        <ele>34</ele>
        <time>2018-02-18T08:47:28Z</time>
      </trkpt>
      <trkpt lat="51.67786099947989" lon="0.528353014960885">
        <ele>34</ele>
        <time>2018-02-18T08:47:29Z</time>
      </trkpt>
      <trkpt lat="51.677856976166368" lon="0.52838696166873">
        <ele>34.902651759721799</ele>
        <time>2018-02-18T08:47:31Z</time>
      </trkpt>
      <trkpt lat="51.67786200530827" lon="0.528413029387593">
        <ele>35</ele>
        <time>2018-02-18T08:47:33Z</time>
      </trkpt>
      <trkpt lat="51.677864016965032" lon="0.52844999358058">
        <ele>36</ele>
        <time>2018-02-18T08:47:41Z</time>
      </trkpt>
      <trkpt lat="51.677874997258186" lon="0.52847396582365">
        <ele>35</ele>
        <time>2018-02-18T08:47:43Z</time>
      </trkpt>
      <trkpt lat="51.677888995036483" lon="0.528499027714133">
        <ele>35</ele>
        <time>2018-02-18T08:47:45Z</time>
      </trkpt>
      <trkpt lat="51.67790399864316" lon="0.528525011613965">
        <ele>35</ele>
        <time>2018-02-18T08:47:47Z</time>
      </trkpt>
      <trkpt lat="51.677920008078218" lon="0.528544038534164">
        <ele>35</ele>
        <time>2018-02-18T08:47:49Z</time>
      </trkpt>
      <trkpt lat="51.677939034998417" lon="0.528558036312461">
        <ele>35</ele>
        <time>2018-02-18T08:47:51Z</time>
      </trkpt>
      <trkpt lat="51.677958983927965" lon="0.528567004948854">
        <ele>35</ele>
        <time>2018-02-18T08:47:53Z</time>
      </trkpt>
      <trkpt lat="51.677981028333306" lon="0.528573961928487">
        <ele>35</ele>
        <time>2018-02-18T08:47:55Z</time>
      </trkpt>
      <trkpt lat="51.678005000576377" lon="0.528574967756867">
        <ele>35</ele>
        <time>2018-02-18T08:47:57Z</time>
      </trkpt>
      <trkpt lat="51.678030984476209" lon="0.528572034090757">
        <ele>35</ele>
        <time>2018-02-18T08:47:59Z</time>
      </trkpt>
      <trkpt lat="51.678055040538311" lon="0.528562981635332">
        <ele>35</ele>
        <time>2018-02-18T08:48:01Z</time>
      </trkpt>
      <trkpt lat="51.678080018609762" lon="0.528553007170558">
        <ele>35</ele>
        <time>2018-02-18T08:48:03Z</time>
      </trkpt>
      <trkpt lat="51.678103990852833" lon="0.528544960543513">
        <ele>35</ele>
        <time>2018-02-18T08:48:05Z</time>
      </trkpt>
      <trkpt lat="51.678130980581045" lon="0.52853599190712">
        <ele>35</ele>
        <time>2018-02-18T08:48:07Z</time>
      </trkpt>
      <trkpt lat="51.678158976137638" lon="0.528533980250359">
        <ele>35</ele>
        <time>2018-02-18T08:48:09Z</time>
      </trkpt>
      <trkpt lat="51.678184038028121" lon="0.528543032705784">
        <ele>35</ele>
        <time>2018-02-18T08:48:11Z</time>
      </trkpt>
      <trkpt lat="51.678201975300908" lon="0.528582008555532">
        <ele>35</ele>
        <time>2018-02-18T08:48:13Z</time>
      </trkpt>
      <trkpt lat="51.678214967250824" lon="0.528620984405279">
        <ele>35</ele>
        <time>2018-02-18T08:48:15Z</time>
      </trkpt>
      <trkpt lat="51.67822603136301" lon="0.528667001053691">
        <ele>35</ele>
        <time>2018-02-18T08:48:17Z</time>
      </trkpt>
      <trkpt lat="51.678229970857501" lon="0.528710000216961">
        <ele>35</ele>
        <time>2018-02-18T08:48:19Z</time>
      </trkpt>
      <trkpt lat="51.678233994171023" lon="0.52875199355185">
        <ele>35</ele>
        <time>2018-02-18T08:48:21Z</time>
      </trkpt>
      <trkpt lat="51.678239023312926" lon="0.52879499271512">
        <ele>36</ele>
        <time>2018-02-18T08:48:23Z</time>
      </trkpt>
      <trkpt lat="51.678244974464178" lon="0.528834974393249">
        <ele>36</ele>
        <time>2018-02-18T08:48:25Z</time>
      </trkpt>
      <trkpt lat="51.678250003606081" lon="0.528877973556519">
        <ele>36</ele>
        <time>2018-02-18T08:48:27Z</time>
      </trkpt>
      <trkpt lat="51.678259978070855" lon="0.528921978548169">
        <ele>36</ele>
        <time>2018-02-18T08:48:29Z</time>
      </trkpt>
      <trkpt lat="51.6782680246979" lon="0.528964977711439">
        <ele>36</ele>
        <time>2018-02-18T08:48:31Z</time>
      </trkpt>
      <trkpt lat="51.678279004991055" lon="0.52900898270309">
        <ele>36</ele>
        <time>2018-02-18T08:48:33Z</time>
      </trkpt>
      <trkpt lat="51.678286967799067" lon="0.52905198186636">
        <ele>36</ele>
        <time>2018-02-18T08:48:35Z</time>
      </trkpt>
      <trkpt lat="51.678293002769351" lon="0.52909598685801">
        <ele>36</ele>
        <time>2018-02-18T08:48:37Z</time>
      </trkpt>
      <trkpt lat="51.678299959748983" lon="0.52913898602128">
        <ele>36</ele>
        <time>2018-02-18T08:48:39Z</time>
      </trkpt>
      <trkpt lat="51.67831102386117" lon="0.529178967699409">
        <ele>36</ele>
        <time>2018-02-18T08:48:41Z</time>
      </trkpt>
      <trkpt lat="51.678317980840802" lon="0.529220961034298">
        <ele>36</ele>
        <time>2018-02-18T08:48:43Z</time>
      </trkpt>
      <trkpt lat="51.678322004154325" lon="0.529260020703077">
        <ele>36</ele>
        <time>2018-02-18T08:48:45Z</time>
      </trkpt>
      <trkpt lat="51.678327033296227" lon="0.529303019866347">
        <ele>36.930689681392998</ele>
        <time>2018-02-18T08:48:47Z</time>
      </trkpt>
      <trkpt lat="51.678330972790718" lon="0.529341995716095">
        <ele>36.273440000000001</ele>
        <time>2018-02-18T08:48:49Z</time>
      </trkpt>
      <trkpt lat="51.678332984447479" lon="0.529407961294055">
        <ele>35.049996800000002</ele>
        <time>2018-02-18T08:48:52Z</time>
      </trkpt>
      <trkpt lat="51.678341031074524" lon="0.529454983770847">
        <ele>36.879988736144199</ele>
        <time>2018-02-18T08:48:54Z</time>
      </trkpt>
      <trkpt lat="51.678343964740634" lon="0.529496977105737">
        <ele>37</ele>
        <time>2018-02-18T08:48:56Z</time>
      </trkpt>
      <trkpt lat="51.678352011367679" lon="0.529535030946136">
        <ele>37</ele>
        <time>2018-02-18T08:48:58Z</time>
      </trkpt>
      <trkpt lat="51.678361985832453" lon="0.529576018452644">
        <ele>37</ele>
        <time>2018-02-18T08:49:00Z</time>
      </trkpt>
      <trkpt lat="51.678371038287878" lon="0.529622035101056">
        <ele>37</ele>
        <time>2018-02-18T08:49:02Z</time>
      </trkpt>
      <trkpt lat="51.67837698943913" lon="0.529668973758817">
        <ele>37</ele>
        <time>2018-02-18T08:49:04Z</time>
      </trkpt>
      <trkpt lat="51.678383024409413" lon="0.529713984578848">
        <ele>37</ele>
        <time>2018-02-18T08:49:06Z</time>
      </trkpt>
      <trkpt lat="51.678386963903904" lon="0.529756983742118">
        <ele>37</ele>
        <time>2018-02-18T08:49:08Z</time>
      </trkpt>
      <trkpt lat="51.678391993045807" lon="0.529810963198543">
        <ele>36</ele>
        <time>2018-02-18T08:49:11Z</time>
      </trkpt>
      <trkpt lat="51.678400039672852" lon="0.529849017038941">
        <ele>37</ele>
        <time>2018-02-18T08:49:13Z</time>
      </trkpt>
      <trkpt lat="51.678404984995723" lon="0.529892016202211">
        <ele>37</ele>
        <time>2018-02-18T08:49:15Z</time>
      </trkpt>
      <trkpt lat="51.678417976945639" lon="0.529937027022243">
        <ele>37</ele>
        <time>2018-02-18T08:49:17Z</time>
      </trkpt>
      <trkpt lat="51.678424011915922" lon="0.529984971508384">
        <ele>37</ele>
        <time>2018-02-18T08:49:19Z</time>
      </trkpt>
      <trkpt lat="51.678431974723935" lon="0.530030988156796">
        <ele>37</ele>
        <time>2018-02-18T08:49:21Z</time>
      </trkpt>
      <trkpt lat="51.67844002135098" lon="0.530077004805207">
        <ele>37</ele>
        <time>2018-02-18T08:49:23Z</time>
      </trkpt>
      <trkpt lat="51.678447984158993" lon="0.530114974826574">
        <ele>37</ele>
        <time>2018-02-18T08:49:25Z</time>
      </trkpt>
      <trkpt lat="51.678455024957657" lon="0.530157973989844">
        <ele>37</ele>
        <time>2018-02-18T08:49:27Z</time>
      </trkpt>
      <trkpt lat="51.678459970280528" lon="0.530206002295017">
        <ele>37</ele>
        <time>2018-02-18T08:49:29Z</time>
      </trkpt>
      <trkpt lat="51.678464999422431" lon="0.530251013115048">
        <ele>37</ele>
        <time>2018-02-18T08:49:31Z</time>
      </trkpt>
      <trkpt lat="51.678469022735953" lon="0.530295018106699">
        <ele>37</ele>
        <time>2018-02-18T08:49:33Z</time>
      </trkpt>
      <trkpt lat="51.678474973887205" lon="0.530342040583491">
        <ele>37</ele>
        <time>2018-02-18T08:49:35Z</time>
      </trkpt>
      <trkpt lat="51.678482014685869" lon="0.53038596175611">
        <ele>37</ele>
        <time>2018-02-18T08:49:37Z</time>
      </trkpt>
      <trkpt lat="51.67848696000874" lon="0.530429966747761">
        <ele>38</ele>
        <time>2018-02-18T08:49:39Z</time>
      </trkpt>
      <trkpt lat="51.678491989150643" lon="0.530475983396173">
        <ele>38</ele>
        <time>2018-02-18T08:49:41Z</time>
      </trkpt>
      <trkpt lat="51.678497018292546" lon="0.530527029186487">
        <ele>38</ele>
        <time>2018-02-18T08:49:43Z</time>
      </trkpt>
      <trkpt lat="51.678503975272179" lon="0.530572962015867">
        <ele>38</ele>
        <time>2018-02-18T08:49:45Z</time>
      </trkpt>
      <trkpt lat="51.678511016070843" lon="0.53061998449266">
        <ele>38</ele>
        <time>2018-02-18T08:49:47Z</time>
      </trkpt>
      <trkpt lat="51.678516967222095" lon="0.530666001141071">
        <ele>38</ele>
        <time>2018-02-18T08:49:49Z</time>
      </trkpt>
      <trkpt lat="51.678525013849139" lon="0.53070698864758">
        <ele>39</ele>
        <time>2018-02-18T08:49:51Z</time>
      </trkpt>
      <trkpt lat="51.678531970828772" lon="0.530742025002837">
        <ele>39</ele>
        <time>2018-02-18T08:49:53Z</time>
      </trkpt>
      <trkpt lat="51.678542029112577" lon="0.530783012509346">
        <ele>39</ele>
        <time>2018-02-18T08:49:55Z</time>
      </trkpt>
      <trkpt lat="51.67854999192059" lon="0.530822994187474">
        <ele>39</ele>
        <time>2018-02-18T08:49:57Z</time>
      </trkpt>
      <trkpt lat="51.678553009405732" lon="0.530862975865602">
        <ele>39</ele>
        <time>2018-02-18T08:49:59Z</time>
      </trkpt>
      <trkpt lat="51.678557032719254" lon="0.530908992514014">
        <ele>39</ele>
        <time>2018-02-18T08:50:01Z</time>
      </trkpt>
      <trkpt lat="51.678563989698887" lon="0.530947968363762">
        <ele>39</ele>
        <time>2018-02-18T08:50:03Z</time>
      </trkpt>
      <trkpt lat="51.678571030497551" lon="0.530993985012174">
        <ele>39</ele>
        <time>2018-02-18T08:50:05Z</time>
      </trkpt>
      <trkpt lat="51.678578993305564" lon="0.531037990003824">
        <ele>39</ele>
        <time>2018-02-18T08:50:07Z</time>
      </trkpt>
      <trkpt lat="51.678585028275847" lon="0.531080989167094">
        <ele>39</ele>
        <time>2018-02-18T08:50:09Z</time>
      </trkpt>
      <trkpt lat="51.678590979427099" lon="0.531125999987125">
        <ele>39</ele>
        <time>2018-02-18T08:50:11Z</time>
      </trkpt>
      <trkpt lat="51.678600031882524" lon="0.531172016635537">
        <ele>39</ele>
        <time>2018-02-18T08:50:13Z</time>
      </trkpt>
      <trkpt lat="51.678603971377015" lon="0.531217027455568">
        <ele>39</ele>
        <time>2018-02-18T08:50:15Z</time>
      </trkpt>
      <trkpt lat="51.678607994690537" lon="0.531262960284948">
        <ele>39</ele>
        <time>2018-02-18T08:50:17Z</time>
      </trkpt>
      <trkpt lat="51.678614029660821" lon="0.53130797110498">
        <ele>39</ele>
        <time>2018-02-18T08:50:19Z</time>
      </trkpt>
      <trkpt lat="51.678616963326931" lon="0.531353987753391">
        <ele>39</ele>
        <time>2018-02-18T08:50:21Z</time>
      </trkpt>
      <trkpt lat="51.678625009953976" lon="0.5313949752599">
        <ele>39</ele>
        <time>2018-02-18T08:50:23Z</time>
      </trkpt>
      <trkpt lat="51.678631966933608" lon="0.531435962766409">
        <ele>39</ele>
        <time>2018-02-18T08:50:25Z</time>
      </trkpt>
      <trkpt lat="51.67863498441875" lon="0.531482985243201">
        <ele>39</ele>
        <time>2018-02-18T08:50:27Z</time>
      </trkpt>
      <trkpt lat="51.678639007732272" lon="0.531527996063232">
        <ele>39</ele>
        <time>2018-02-18T08:50:29Z</time>
      </trkpt>
      <trkpt lat="51.678642025217414" lon="0.531569989398122">
        <ele>40</ele>
        <time>2018-02-18T08:50:31Z</time>
      </trkpt>
      <trkpt lat="51.678644958883524" lon="0.531613994389772">
        <ele>40</ele>
        <time>2018-02-18T08:50:33Z</time>
      </trkpt>
      <trkpt lat="51.678648982197046" lon="0.531659005209804">
        <ele>40</ele>
        <time>2018-02-18T08:50:35Z</time>
      </trkpt>
      <trkpt lat="51.678653005510569" lon="0.531700998544693">
        <ele>40</ele>
        <time>2018-02-18T08:50:37Z</time>
      </trkpt>
      <trkpt lat="51.678657028824091" lon="0.531742991879582">
        <ele>40</ele>
        <time>2018-02-18T08:50:39Z</time>
      </trkpt>
      <trkpt lat="51.678663985803723" lon="0.531784985214472">
        <ele>40</ele>
        <time>2018-02-18T08:50:41Z</time>
      </trkpt>
      <trkpt lat="51.678671026602387" lon="0.531828990206122">
        <ele>40</ele>
        <time>2018-02-18T08:50:43Z</time>
      </trkpt>
      <trkpt lat="51.678674966096878" lon="0.531876012682915">
        <ele>41</ele>
        <time>2018-02-18T08:50:45Z</time>
      </trkpt>
      <trkpt lat="51.67867798358202" lon="0.531924962997437">
        <ele>41</ele>
        <time>2018-02-18T08:50:47Z</time>
      </trkpt>
      <trkpt lat="51.678684018552303" lon="0.531969973817468">
        <ele>41</ele>
        <time>2018-02-18T08:50:49Z</time>
      </trkpt>
      <trkpt lat="51.678689969703555" lon="0.532013978809118">
        <ele>40</ele>
        <time>2018-02-18T08:50:51Z</time>
      </trkpt>
      <trkpt lat="51.678692987188697" lon="0.532057983800769">
        <ele>40</ele>
        <time>2018-02-18T08:50:53Z</time>
      </trkpt>
      <trkpt lat="51.678693993017077" lon="0.532099977135658">
        <ele>40</ele>
        <time>2018-02-18T08:50:55Z</time>
      </trkpt>
      <trkpt lat="51.67869902215898" lon="0.532141970470548">
        <ele>40.920000000000002</ele>
        <time>2018-02-18T08:50:57Z</time>
      </trkpt>
      <trkpt lat="51.678704973310232" lon="0.532183041796088">
        <ele>41</ele>
        <time>2018-02-18T08:50:59Z</time>
      </trkpt>
      <trkpt lat="51.678711008280516" lon="0.532224029302597">
        <ele>41</ele>
        <time>2018-02-18T08:51:01Z</time>
      </trkpt>
      <trkpt lat="51.678714025765657" lon="0.532264010980725">
        <ele>41</ele>
        <time>2018-02-18T08:51:03Z</time>
      </trkpt>
      <trkpt lat="51.678715031594038" lon="0.532308015972376">
        <ele>41</ele>
        <time>2018-02-18T08:51:05Z</time>
      </trkpt>
      <trkpt lat="51.678718971088529" lon="0.532356966286898">
        <ele>41</ele>
        <time>2018-02-18T08:51:07Z</time>
      </trkpt>
      <trkpt lat="51.678724000230432" lon="0.532397031784058">
        <ele>41.923809291609302</ele>
        <time>2018-02-18T08:51:09Z</time>
      </trkpt>
      <trkpt lat="51.678729029372334" lon="0.532440030947328">
        <ele>42</ele>
        <time>2018-02-18T08:51:11Z</time>
      </trkpt>
      <trkpt lat="51.678734980523586" lon="0.532482024282217">
        <ele>42</ele>
        <time>2018-02-18T08:51:13Z</time>
      </trkpt>
      <trkpt lat="51.67874101549387" lon="0.532524017617106">
        <ele>42</ele>
        <time>2018-02-18T08:51:15Z</time>
      </trkpt>
      <trkpt lat="51.678743027150631" lon="0.532567016780376">
        <ele>42</ele>
        <time>2018-02-18T08:51:17Z</time>
      </trkpt>
      <trkpt lat="51.678745960816741" lon="0.532614039257169">
        <ele>42</ele>
        <time>2018-02-18T08:51:19Z</time>
      </trkpt>
      <trkpt lat="51.678748978301883" lon="0.532659972086549">
        <ele>42</ele>
        <time>2018-02-18T08:51:21Z</time>
      </trkpt>
      <trkpt lat="51.678757024928927" lon="0.532701965421438">
        <ele>42</ele>
        <time>2018-02-18T08:51:23Z</time>
      </trkpt>
      <trkpt lat="51.67876498773694" lon="0.532745970413089">
        <ele>42</ele>
        <time>2018-02-18T08:51:25Z</time>
      </trkpt>
      <trkpt lat="51.678769011050463" lon="0.53279098123312">
        <ele>42</ele>
        <time>2018-02-18T08:51:27Z</time>
      </trkpt>
      <trkpt lat="51.678774040192366" lon="0.532835992053151">
        <ele>43</ele>
        <time>2018-02-18T08:51:29Z</time>
      </trkpt>
      <trkpt lat="51.678776973858476" lon="0.532877985388041">
        <ele>42.940005632072101</ele>
        <time>2018-02-18T08:51:31Z</time>
      </trkpt>
      <trkpt lat="51.678782003000379" lon="0.532918972894549">
        <ele>43</ele>
        <time>2018-02-18T08:51:33Z</time>
      </trkpt>
      <trkpt lat="51.678786026313901" lon="0.532963983714581">
        <ele>43</ele>
        <time>2018-02-18T08:51:35Z</time>
      </trkpt>
      <trkpt lat="51.678789965808392" lon="0.53300597704947">
        <ele>43</ele>
        <time>2018-02-18T08:51:37Z</time>
      </trkpt>
      <trkpt lat="51.678792983293533" lon="0.533049982041121">
        <ele>43</ele>
        <time>2018-02-18T08:51:39Z</time>
      </trkpt>
      <trkpt lat="51.678799018263817" lon="0.533095998689532">
        <ele>43</ele>
        <time>2018-02-18T08:51:41Z</time>
      </trkpt>
      <trkpt lat="51.678803041577339" lon="0.533140003681183">
        <ele>43</ele>
        <time>2018-02-18T08:51:43Z</time>
      </trkpt>
      <trkpt lat="51.67880698107183" lon="0.533183002844453">
        <ele>43</ele>
        <time>2018-02-18T08:51:45Z</time>
      </trkpt>
      <trkpt lat="51.678812010213733" lon="0.533228013664484">
        <ele>43</ele>
        <time>2018-02-18T08:51:47Z</time>
      </trkpt>
      <trkpt lat="51.678816033527255" lon="0.533271012827754">
        <ele>43</ele>
        <time>2018-02-18T08:51:49Z</time>
      </trkpt>
      <trkpt lat="51.678818967193365" lon="0.533319041132927">
        <ele>43</ele>
        <time>2018-02-18T08:51:51Z</time>
      </trkpt>
      <trkpt lat="51.678825002163649" lon="0.533368997275829">
        <ele>43</ele>
        <time>2018-02-18T08:51:53Z</time>
      </trkpt>
      <trkpt lat="51.67882801964879" lon="0.533417025581002">
        <ele>43</ele>
        <time>2018-02-18T08:51:55Z</time>
      </trkpt>
      <trkpt lat="51.678830031305552" lon="0.533462036401033">
        <ele>43.9724743708679</ele>
        <time>2018-02-18T08:51:57Z</time>
      </trkpt>
      <trkpt lat="51.678832964971662" lon="0.533505035564303">
        <ele>43.3124977777778</ele>
        <time>2018-02-18T08:51:59Z</time>
      </trkpt>
      <trkpt lat="51.678836988285184" lon="0.533550968393683">
        <ele>43</ele>
        <time>2018-02-18T08:52:01Z</time>
      </trkpt>
      <trkpt lat="51.678843023255467" lon="0.533600002527237">
        <ele>43.059994367927899</ele>
        <time>2018-02-18T08:52:03Z</time>
      </trkpt>
      <trkpt lat="51.678847968578339" lon="0.533646019175649">
        <ele>44</ele>
        <time>2018-02-18T08:52:05Z</time>
      </trkpt>
      <trkpt lat="51.678851991891861" lon="0.533684995025396">
        <ele>45</ele>
        <time>2018-02-18T08:52:07Z</time>
      </trkpt>
      <trkpt lat="51.678857021033764" lon="0.533731011673808">
        <ele>45</ele>
        <time>2018-02-18T08:52:09Z</time>
      </trkpt>
      <trkpt lat="51.678859032690525" lon="0.533776022493839">
        <ele>45</ele>
        <time>2018-02-18T08:52:11Z</time>
      </trkpt>
      <trkpt lat="51.678860960528255" lon="0.53382002748549">
        <ele>45</ele>
        <time>2018-02-18T08:52:13Z</time>
      </trkpt>
      <trkpt lat="51.678865989670157" lon="0.533871995285153">
        <ele>45</ele>
        <time>2018-02-18T08:52:15Z</time>
      </trkpt>
      <trkpt lat="51.678862972185016" lon="0.533916000276804">
        <ele>45</ele>
        <time>2018-02-18T08:52:17Z</time>
      </trkpt>
      <trkpt lat="51.678868001326919" lon="0.533958999440074">
        <ele>45</ele>
        <time>2018-02-18T08:52:19Z</time>
      </trkpt>
      <trkpt lat="51.678875964134932" lon="0.534003004431725">
        <ele>45</ele>
        <time>2018-02-18T08:52:21Z</time>
      </trkpt>
      <trkpt lat="51.678878981620073" lon="0.534052960574627">
        <ele>45</ele>
        <time>2018-02-18T08:52:23Z</time>
      </trkpt>
      <trkpt lat="51.678881999105215" lon="0.534096965566278">
        <ele>45</ele>
        <time>2018-02-18T08:52:25Z</time>
      </trkpt>
      <trkpt lat="51.678884010761976" lon="0.534142982214689">
        <ele>45.9359010125211</ele>
        <time>2018-02-18T08:52:27Z</time>
      </trkpt>
      <trkpt lat="51.678884010761976" lon="0.534188998863101">
        <ele>46</ele>
        <time>2018-02-18T08:52:29Z</time>
      </trkpt>
      <trkpt lat="51.678884010761976" lon="0.534237027168274">
        <ele>46</ele>
        <time>2018-02-18T08:52:31Z</time>
      </trkpt>
      <trkpt lat="51.678885016590357" lon="0.534282037988305">
        <ele>45</ele>
        <time>2018-02-18T08:52:33Z</time>
      </trkpt>
      <trkpt lat="51.678886022418737" lon="0.534325037151575">
        <ele>46</ele>
        <time>2018-02-18T08:52:35Z</time>
      </trkpt>
      <trkpt lat="51.678886022418737" lon="0.534370969980955">
        <ele>47</ele>
        <time>2018-02-18T08:52:37Z</time>
      </trkpt>
      <trkpt lat="51.67889297939837" lon="0.534440036863089">
        <ele>47</ele>
        <time>2018-02-18T08:52:40Z</time>
      </trkpt>
      <trkpt lat="51.678899014368653" lon="0.534482030197978">
        <ele>47</ele>
        <time>2018-02-18T08:52:42Z</time>
      </trkpt>
      <trkpt lat="51.678903037682176" lon="0.534529974684119">
        <ele>47</ele>
        <time>2018-02-18T08:52:44Z</time>
      </trkpt>
      <trkpt lat="51.678907983005047" lon="0.534578002989292">
        <ele>47</ele>
        <time>2018-02-18T08:52:46Z</time>
      </trkpt>
      <trkpt lat="51.678912006318569" lon="0.534622007980943">
        <ele>46</ele>
        <time>2018-02-18T08:52:48Z</time>
      </trkpt>
      <trkpt lat="51.678917035460472" lon="0.534668024629354">
        <ele>46.938138344197803</ele>
        <time>2018-02-18T08:52:50Z</time>
      </trkpt>
      <trkpt lat="51.678919969126582" lon="0.534714963287115">
        <ele>47</ele>
        <time>2018-02-18T08:52:52Z</time>
      </trkpt>
      <trkpt lat="51.678926004096866" lon="0.534762991592288">
        <ele>47</ele>
        <time>2018-02-18T08:52:54Z</time>
      </trkpt>
      <trkpt lat="51.678930027410388" lon="0.534811019897461">
        <ele>47</ele>
        <time>2018-02-18T08:52:56Z</time>
      </trkpt>
      <trkpt lat="51.678932961076498" lon="0.534860976040363">
        <ele>47</ele>
        <time>2018-02-18T08:52:58Z</time>
      </trkpt>
      <trkpt lat="51.678938996046782" lon="0.534906992688775">
        <ele>47</ele>
        <time>2018-02-18T08:53:00Z</time>
      </trkpt>
      <trkpt lat="51.678943019360304" lon="0.534954015165567">
        <ele>47</ele>
        <time>2018-02-18T08:53:02Z</time>
      </trkpt>
      <trkpt lat="51.678946036845446" lon="0.534998020157218">
        <ele>47</ele>
        <time>2018-02-18T08:53:04Z</time>
      </trkpt>
      <trkpt lat="51.678948970511556" lon="0.535041019320488">
        <ele>47</ele>
        <time>2018-02-18T08:53:06Z</time>
      </trkpt>
      <trkpt lat="51.678959028795362" lon="0.535085024312139">
        <ele>47</ele>
        <time>2018-02-18T08:53:08Z</time>
      </trkpt>
      <trkpt lat="51.678963974118233" lon="0.535134980455041">
        <ele>47</ele>
        <time>2018-02-18T08:53:10Z</time>
      </trkpt>
      <trkpt lat="51.678966991603374" lon="0.535179991275072">
        <ele>47</ele>
        <time>2018-02-18T08:53:12Z</time>
      </trkpt>
      <trkpt lat="51.678972020745277" lon="0.535226007923484">
        <ele>47</ele>
        <time>2018-02-18T08:53:14Z</time>
      </trkpt>
      <trkpt lat="51.678971014916897" lon="0.535269007086754">
        <ele>47</ele>
        <time>2018-02-18T08:53:16Z</time>
      </trkpt>
      <trkpt lat="51.678974032402039" lon="0.535309994593263">
        <ele>47</ele>
        <time>2018-02-18T08:53:18Z</time>
      </trkpt>
      <trkpt lat="51.678975038230419" lon="0.535352993756533">
        <ele>47</ele>
        <time>2018-02-18T08:53:20Z</time>
      </trkpt>
      <trkpt lat="51.67897897772491" lon="0.535393981263042">
        <ele>47</ele>
        <time>2018-02-18T08:53:22Z</time>
      </trkpt>
      <trkpt lat="51.67897998355329" lon="0.53543496876955">
        <ele>48</ele>
        <time>2018-02-18T08:53:24Z</time>
      </trkpt>
      <trkpt lat="51.678981995210052" lon="0.535473022609949">
        <ele>48</ele>
        <time>2018-02-18T08:53:26Z</time>
      </trkpt>
      <trkpt lat="51.678983001038432" lon="0.535513004288077">
        <ele>48</ele>
        <time>2018-02-18T08:53:28Z</time>
      </trkpt>
      <trkpt lat="51.678988030180335" lon="0.535553991794586">
        <ele>48</ele>
        <time>2018-02-18T08:53:30Z</time>
      </trkpt>
      <trkpt lat="51.678991969674826" lon="0.535592967644334">
        <ele>48</ele>
        <time>2018-02-18T08:53:32Z</time>
      </trkpt>
      <trkpt lat="51.678994987159967" lon="0.535642001777887">
        <ele>48</ele>
        <time>2018-02-18T08:53:34Z</time>
      </trkpt>
      <trkpt lat="51.678995992988348" lon="0.535686006769538">
        <ele>48</ele>
        <time>2018-02-18T08:53:36Z</time>
      </trkpt>
      <trkpt lat="51.679002027958632" lon="0.535729005932808">
        <ele>48</ele>
        <time>2018-02-18T08:53:38Z</time>
      </trkpt>
      <trkpt lat="51.679007979109883" lon="0.535773010924459">
        <ele>48</ele>
        <time>2018-02-18T08:53:40Z</time>
      </trkpt>
      <trkpt lat="51.679014014080167" lon="0.53581902757287">
        <ele>48</ele>
        <time>2018-02-18T08:53:42Z</time>
      </trkpt>
      <trkpt lat="51.67902197688818" lon="0.535869989544153">
        <ele>48.948456737176897</ele>
        <time>2018-02-18T08:53:44Z</time>
      </trkpt>
      <trkpt lat="51.679026000201702" lon="0.535899996757507">
        <ele>49</ele>
        <time>2018-02-18T08:53:45Z</time>
      </trkpt>
      <trkpt lat="51.679030023515224" lon="0.5359279923141">
        <ele>49</ele>
        <time>2018-02-18T08:53:46Z</time>
      </trkpt>
      <trkpt lat="51.679032035171986" lon="0.535975014790893">
        <ele>50</ele>
        <time>2018-02-18T08:53:48Z</time>
      </trkpt>
      <trkpt lat="51.679034968838096" lon="0.536021031439304">
        <ele>50</ele>
        <time>2018-02-18T08:53:50Z</time>
      </trkpt>
      <trkpt lat="51.679038992151618" lon="0.536066964268684">
        <ele>49.049996800000002</ele>
        <time>2018-02-18T08:53:52Z</time>
      </trkpt>
      <trkpt lat="51.679044021293521" lon="0.536118010058999">
        <ele>49.9722311111111</ele>
        <time>2018-02-18T08:53:54Z</time>
      </trkpt>
      <trkpt lat="51.679050978273153" lon="0.536171989515424">
        <ele>50</ele>
        <time>2018-02-18T08:53:56Z</time>
      </trkpt>
      <trkpt lat="51.679050978273153" lon="0.536223035305738">
        <ele>49.960395914125698</ele>
        <time>2018-02-18T08:53:58Z</time>
      </trkpt>
      <trkpt lat="51.679049972444773" lon="0.536272991448641">
        <ele>49</ele>
        <time>2018-02-18T08:54:00Z</time>
      </trkpt>
      <trkpt lat="51.679056007415056" lon="0.536309033632278">
        <ele>49</ele>
        <time>2018-02-18T08:54:02Z</time>
      </trkpt>
      <trkpt lat="51.679059024900198" lon="0.536355972290039">
        <ele>49.0263184487385</ele>
        <time>2018-02-18T08:54:04Z</time>
      </trkpt>
      <trkpt lat="51.679062964394689" lon="0.536405006423593">
        <ele>50</ele>
        <time>2018-02-18T08:54:06Z</time>
      </trkpt>
      <trkpt lat="51.679070005193353" lon="0.536451023072004">
        <ele>50</ele>
        <time>2018-02-18T08:54:08Z</time>
      </trkpt>
      <trkpt lat="51.679087020456791" lon="0.536499973386526">
        <ele>50</ele>
        <time>2018-02-18T08:54:10Z</time>
      </trkpt>
      <trkpt lat="51.679094983264804" lon="0.536544984206557">
        <ele>50</ele>
        <time>2018-02-18T08:54:12Z</time>
      </trkpt>
      <trkpt lat="51.679101018235087" lon="0.536597035825253">
        <ele>50.920791828251303</ele>
        <time>2018-02-18T08:54:14Z</time>
      </trkpt>
      <trkpt lat="51.679101018235087" lon="0.536626037210226">
        <ele>51</ele>
        <time>2018-02-18T08:54:15Z</time>
      </trkpt>
      <trkpt lat="51.679109986871481" lon="0.536674987524748">
        <ele>51</ele>
        <time>2018-02-18T08:54:17Z</time>
      </trkpt>
      <trkpt lat="51.679113004356623" lon="0.536703988909721">
        <ele>51</ele>
        <time>2018-02-18T08:54:18Z</time>
      </trkpt>
      <trkpt lat="51.679119039326906" lon="0.536759980022907">
        <ele>51</ele>
        <time>2018-02-18T08:54:20Z</time>
      </trkpt>
      <trkpt lat="51.679123984649777" lon="0.536811025813222">
        <ele>51</ele>
        <time>2018-02-18T08:54:22Z</time>
      </trkpt>
      <trkpt lat="51.679131025448442" lon="0.536858970299363">
        <ele>51</ele>
        <time>2018-02-18T08:54:24Z</time>
      </trkpt>
      <trkpt lat="51.679133959114552" lon="0.536906998604536">
        <ele>51</ele>
        <time>2018-02-18T08:54:26Z</time>
      </trkpt>
      <trkpt lat="51.679136976599693" lon="0.53695603273809">
        <ele>51.929996799999998</ele>
        <time>2018-02-18T08:54:28Z</time>
      </trkpt>
      <trkpt lat="51.679144017398357" lon="0.537009006366134">
        <ele>52</ele>
        <time>2018-02-18T08:54:30Z</time>
      </trkpt>
      <trkpt lat="51.67915097437799" lon="0.537058962509036">
        <ele>52</ele>
        <time>2018-02-18T08:54:32Z</time>
      </trkpt>
      <trkpt lat="51.679157009348273" lon="0.53710799664259">
        <ele>52</ele>
        <time>2018-02-18T08:54:34Z</time>
      </trkpt>
      <trkpt lat="51.679160026833415" lon="0.537145966663957">
        <ele>52</ele>
        <time>2018-02-18T08:54:36Z</time>
      </trkpt>
      <trkpt lat="51.679157009348273" lon="0.537186032161117">
        <ele>52</ele>
        <time>2018-02-18T08:54:38Z</time>
      </trkpt>
      <trkpt lat="51.679153991863132" lon="0.537227019667625">
        <ele>52</ele>
        <time>2018-02-18T08:54:40Z</time>
      </trkpt>
      <trkpt lat="51.679156003519893" lon="0.537270018830895">
        <ele>52</ele>
        <time>2018-02-18T08:54:42Z</time>
      </trkpt>
      <trkpt lat="51.679164972156286" lon="0.537317041307688">
        <ele>52</ele>
        <time>2018-02-18T08:54:44Z</time>
      </trkpt>
      <trkpt lat="51.67917100712657" lon="0.537362974137068">
        <ele>52</ele>
        <time>2018-02-18T08:54:46Z</time>
      </trkpt>
      <trkpt lat="51.679168995469809" lon="0.537405973300338">
        <ele>52</ele>
        <time>2018-02-18T08:54:48Z</time>
      </trkpt>
      <trkpt lat="51.67917100712657" lon="0.53745299577713">
        <ele>52</ele>
        <time>2018-02-18T08:54:50Z</time>
      </trkpt>
      <trkpt lat="51.679180981591344" lon="0.537521978840232">
        <ele>52</ele>
        <time>2018-02-18T08:54:53Z</time>
      </trkpt>
      <trkpt lat="51.679181987419724" lon="0.537569001317024">
        <ele>52</ele>
        <time>2018-02-18T08:54:55Z</time>
      </trkpt>
      <trkpt lat="51.679188022390008" lon="0.537617029622197">
        <ele>52</ele>
        <time>2018-02-18T08:54:57Z</time>
      </trkpt>
      <trkpt lat="51.67919497936964" lon="0.537668997421861">
        <ele>52</ele>
        <time>2018-02-18T08:54:59Z</time>
      </trkpt>
      <trkpt lat="51.679204031825066" lon="0.537719037383795">
        <ele>52</ele>
        <time>2018-02-18T08:55:01Z</time>
      </trkpt>
      <trkpt lat="51.679204031825066" lon="0.537769999355078">
        <ele>52</ele>
        <time>2018-02-18T08:55:03Z</time>
      </trkpt>
      <trkpt lat="51.679208977147937" lon="0.537818027660251">
        <ele>52</ele>
        <time>2018-02-18T08:55:05Z</time>
      </trkpt>
      <trkpt lat="51.67921501211822" lon="0.537865972146392">
        <ele>52.989250715701402</ele>
        <time>2018-02-18T08:55:07Z</time>
      </trkpt>
      <trkpt lat="51.679220963269472" lon="0.537914000451565">
        <ele>53</ele>
        <time>2018-02-18T08:55:09Z</time>
      </trkpt>
      <trkpt lat="51.679229009896517" lon="0.537953982129693">
        <ele>53</ele>
        <time>2018-02-18T08:55:11Z</time>
      </trkpt>
      <trkpt lat="51.67923403903842" lon="0.538001004606485">
        <ele>53</ele>
        <time>2018-02-18T08:55:13Z</time>
      </trkpt>
      <trkpt lat="51.679244013503194" lon="0.538050038740039">
        <ele>53</ele>
        <time>2018-02-18T08:55:15Z</time>
      </trkpt>
      <trkpt lat="51.679253987967968" lon="0.538096977397799">
        <ele>53</ele>
        <time>2018-02-18T08:55:17Z</time>
      </trkpt>
      <trkpt lat="51.679261028766632" lon="0.538146011531353">
        <ele>53</ele>
        <time>2018-02-18T08:55:19Z</time>
      </trkpt>
      <trkpt lat="51.679266979917884" lon="0.538198985159397">
        <ele>54</ele>
        <time>2018-02-18T08:55:21Z</time>
      </trkpt>
      <trkpt lat="51.679268991574645" lon="0.538243995979428">
        <ele>55</ele>
        <time>2018-02-18T08:55:23Z</time>
      </trkpt>
      <trkpt lat="51.679274020716548" lon="0.53829001262784">
        <ele>55</ele>
        <time>2018-02-18T08:55:25Z</time>
      </trkpt>
      <trkpt lat="51.67928097769618" lon="0.538337035104632">
        <ele>55</ele>
        <time>2018-02-18T08:55:27Z</time>
      </trkpt>
      <trkpt lat="51.679282989352942" lon="0.538381040096283">
        <ele>55</ele>
        <time>2018-02-18T08:55:29Z</time>
      </trkpt>
      <trkpt lat="51.679291035979986" lon="0.538428984582424">
        <ele>55</ele>
        <time>2018-02-18T08:55:31Z</time>
      </trkpt>
      <trkpt lat="51.679296987131238" lon="0.538477012887597">
        <ele>55</ele>
        <time>2018-02-18T08:55:33Z</time>
      </trkpt>
      <trkpt lat="51.679295981302857" lon="0.538523029536009">
        <ele>55</ele>
        <time>2018-02-18T08:55:35Z</time>
      </trkpt>
      <trkpt lat="51.679302016273141" lon="0.538573991507292">
        <ele>55</ele>
        <time>2018-02-18T08:55:37Z</time>
      </trkpt>
      <trkpt lat="51.679306039586663" lon="0.538620008155704">
        <ele>55</ele>
        <time>2018-02-18T08:55:39Z</time>
      </trkpt>
      <trkpt lat="51.679302016273141" lon="0.538667030632496">
        <ele>55</ele>
        <time>2018-02-18T08:55:41Z</time>
      </trkpt>
      <trkpt lat="51.679306039586663" lon="0.538708018139005">
        <ele>55</ele>
        <time>2018-02-18T08:55:43Z</time>
      </trkpt>
      <trkpt lat="51.679307967424393" lon="0.538745988160372">
        <ele>55.019808128556399</ele>
        <time>2018-02-18T08:55:45Z</time>
      </trkpt>
      <trkpt lat="51.679314002394676" lon="0.538795022293925">
        <ele>56</ele>
        <time>2018-02-18T08:55:47Z</time>
      </trkpt>
      <trkpt lat="51.67932003736496" lon="0.538842966780066">
        <ele>56</ele>
        <time>2018-02-18T08:55:49Z</time>
      </trkpt>
      <trkpt lat="51.679326994344592" lon="0.538887977600098">
        <ele>56</ele>
        <time>2018-02-18T08:55:51Z</time>
      </trkpt>
      <trkpt lat="51.679334035143256" lon="0.538939023390412">
        <ele>56</ele>
        <time>2018-02-18T08:55:53Z</time>
      </trkpt>
      <trkpt lat="51.679338980466127" lon="0.538985962048173">
        <ele>56</ele>
        <time>2018-02-18T08:55:55Z</time>
      </trkpt>
      <trkpt lat="51.679345015436411" lon="0.539030972868204">
        <ele>56</ele>
        <time>2018-02-18T08:55:57Z</time>
      </trkpt>
      <trkpt lat="51.679349960759282" lon="0.539080007001758">
        <ele>56</ele>
        <time>2018-02-18T08:55:59Z</time>
      </trkpt>
      <trkpt lat="51.679358007386327" lon="0.539119988679886">
        <ele>56</ele>
        <time>2018-02-18T08:56:01Z</time>
      </trkpt>
      <trkpt lat="51.679364964365959" lon="0.539166005328298">
        <ele>56</ele>
        <time>2018-02-18T08:56:03Z</time>
      </trkpt>
      <trkpt lat="51.679368987679482" lon="0.539203975349665">
        <ele>56</ele>
        <time>2018-02-18T08:56:05Z</time>
      </trkpt>
      <trkpt lat="51.679369993507862" lon="0.539244040846825">
        <ele>56</ele>
        <time>2018-02-18T08:56:07Z</time>
      </trkpt>
      <trkpt lat="51.679368987679482" lon="0.539286034181714">
        <ele>56</ele>
        <time>2018-02-18T08:56:09Z</time>
      </trkpt>
      <trkpt lat="51.679373010993004" lon="0.539338001981378">
        <ele>57</ele>
        <time>2018-02-18T08:56:11Z</time>
      </trkpt>
      <trkpt lat="51.679377034306526" lon="0.53938795812428">
        <ele>57</ele>
        <time>2018-02-18T08:56:13Z</time>
      </trkpt>
      <trkpt lat="51.679375022649765" lon="0.539437998086214">
        <ele>57.058817623953701</ele>
        <time>2018-02-18T08:56:15Z</time>
      </trkpt>
      <trkpt lat="51.679377034306526" lon="0.539491977542639">
        <ele>58.017704628350103</ele>
        <time>2018-02-18T08:56:17Z</time>
      </trkpt>
      <trkpt lat="51.679379967972636" lon="0.539519973099232">
        <ele>58.902652862418201</ele>
        <time>2018-02-18T08:56:18Z</time>
      </trkpt>
      <trkpt lat="51.679383991286159" lon="0.539547968655825">
        <ele>59</ele>
        <time>2018-02-18T08:56:19Z</time>
      </trkpt>
      <trkpt lat="51.679392037913203" lon="0.539593985304236">
        <ele>58</ele>
        <time>2018-02-18T08:56:21Z</time>
      </trkpt>
      <trkpt lat="51.679401006549597" lon="0.539633966982365">
        <ele>58.9252338684595</ele>
        <time>2018-02-18T08:56:23Z</time>
      </trkpt>
      <trkpt lat="51.67940896935761" lon="0.539674032479525">
        <ele>59</ele>
        <time>2018-02-18T08:56:25Z</time>
      </trkpt>
      <trkpt lat="51.679412992671132" lon="0.539721976965666">
        <ele>59</ele>
        <time>2018-02-18T08:56:27Z</time>
      </trkpt>
      <trkpt lat="51.679412992671132" lon="0.539767993614078">
        <ele>59</ele>
        <time>2018-02-18T08:56:29Z</time>
      </trkpt>
      <trkpt lat="51.679415004327893" lon="0.539814010262489">
        <ele>60</ele>
        <time>2018-02-18T08:56:31Z</time>
      </trkpt>
      <trkpt lat="51.679424978792667" lon="0.53985801525414">
        <ele>60</ele>
        <time>2018-02-18T08:56:33Z</time>
      </trkpt>
      <trkpt lat="51.679435037076473" lon="0.539900008589029">
        <ele>60</ele>
        <time>2018-02-18T08:56:35Z</time>
      </trkpt>
      <trkpt lat="51.679445011541247" lon="0.539942001923919">
        <ele>60</ele>
        <time>2018-02-18T08:56:37Z</time>
      </trkpt>
      <trkpt lat="51.679447023198009" lon="0.539992041885853">
        <ele>60</ele>
        <time>2018-02-18T08:56:39Z</time>
      </trkpt>
      <trkpt lat="51.679450962692499" lon="0.540034035220742">
        <ele>60</ele>
        <time>2018-02-18T08:56:41Z</time>
      </trkpt>
      <trkpt lat="51.679455991834402" lon="0.540076028555632">
        <ele>61</ele>
        <time>2018-02-18T08:56:43Z</time>
      </trkpt>
      <trkpt lat="51.679465966299176" lon="0.540122967213392">
        <ele>61</ele>
        <time>2018-02-18T08:56:45Z</time>
      </trkpt>
      <trkpt lat="51.67947200126946" lon="0.540169989690185">
        <ele>61</ele>
        <time>2018-02-18T08:56:47Z</time>
      </trkpt>
      <trkpt lat="51.679478958249092" lon="0.54022204130888">
        <ele>61</ele>
        <time>2018-02-18T08:56:49Z</time>
      </trkpt>
      <trkpt lat="51.679479964077473" lon="0.540278032422066">
        <ele>61.920000000000002</ele>
        <time>2018-02-18T08:56:51Z</time>
      </trkpt>
      <trkpt lat="51.679483987390995" lon="0.540316002443433">
        <ele>62</ele>
        <time>2018-02-18T08:56:53Z</time>
      </trkpt>
      <trkpt lat="51.679487004876137" lon="0.540364030748606">
        <ele>62</ele>
        <time>2018-02-18T08:56:55Z</time>
      </trkpt>
      <trkpt lat="51.679487004876137" lon="0.540406024083495">
        <ele>62</ele>
        <time>2018-02-18T08:56:57Z</time>
      </trkpt>
      <trkpt lat="51.679489016532898" lon="0.540448017418385">
        <ele>62</ele>
        <time>2018-02-18T08:56:59Z</time>
      </trkpt>
      <trkpt lat="51.679477030411363" lon="0.5404610093683">
        <ele>64</ele>
        <time>2018-02-18T08:57:13Z</time>
      </trkpt>
      <trkpt lat="51.679478036239743" lon="0.540498979389668">
        <ele>63</ele>
        <time>2018-02-18T08:57:20Z</time>
      </trkpt>
      <trkpt lat="51.679480969905853" lon="0.540532004088163">
        <ele>63</ele>
        <time>2018-02-18T08:57:22Z</time>
      </trkpt>
      <trkpt lat="51.679485999047756" lon="0.540562011301517">
        <ele>63</ele>
        <time>2018-02-18T08:57:24Z</time>
      </trkpt>
      <trkpt lat="51.679487004876137" lon="0.540602998808026">
        <ele>64</ele>
        <time>2018-02-18T08:57:26Z</time>
      </trkpt>
      <trkpt lat="51.679489016532898" lon="0.540643986314535">
        <ele>64</ele>
        <time>2018-02-18T08:57:28Z</time>
      </trkpt>
      <trkpt lat="51.67949597351253" lon="0.540691008791327">
        <ele>64</ele>
        <time>2018-02-18T08:57:30Z</time>
      </trkpt>
      <trkpt lat="51.679499996826053" lon="0.540734007954597">
        <ele>64</ele>
        <time>2018-02-18T08:57:32Z</time>
      </trkpt>
      <trkpt lat="51.679502008482814" lon="0.540777007117867">
        <ele>64</ele>
        <time>2018-02-18T08:57:34Z</time>
      </trkpt>
      <trkpt lat="51.679507959634066" lon="0.540821012109518">
        <ele>64</ele>
        <time>2018-02-18T08:57:36Z</time>
      </trkpt>
      <trkpt lat="51.679510977119207" lon="0.540864011272788">
        <ele>64</ele>
        <time>2018-02-18T08:57:38Z</time>
      </trkpt>
      <trkpt lat="51.679512988775969" lon="0.54091103374958">
        <ele>64</ele>
        <time>2018-02-18T08:57:40Z</time>
      </trkpt>
      <trkpt lat="51.679521035403013" lon="0.54095302708447">
        <ele>64</ele>
        <time>2018-02-18T08:57:42Z</time>
      </trkpt>
      <trkpt lat="51.679525980725884" lon="0.54099602624774">
        <ele>64.030003199999996</ele>
        <time>2018-02-18T08:57:44Z</time>
      </trkpt>
      <trkpt lat="51.679531009867787" lon="0.541038019582629">
        <ele>65</ele>
        <time>2018-02-18T08:57:46Z</time>
      </trkpt>
      <trkpt lat="51.679534027352929" lon="0.54108202457428">
        <ele>65</ele>
        <time>2018-02-18T08:57:48Z</time>
      </trkpt>
      <trkpt lat="51.67953603900969" lon="0.541122006252408">
        <ele>65</ele>
        <time>2018-02-18T08:57:50Z</time>
      </trkpt>
      <trkpt lat="51.679540984332561" lon="0.541161987930536">
        <ele>65.053102557712805</ele>
        <time>2018-02-18T08:57:52Z</time>
      </trkpt>
      <trkpt lat="51.679550958797336" lon="0.541201969608665">
        <ele>66</ele>
        <time>2018-02-18T08:57:54Z</time>
      </trkpt>
      <trkpt lat="51.679564034566283" lon="0.541242035105824">
        <ele>66</ele>
        <time>2018-02-18T08:57:56Z</time>
      </trkpt>
      <trkpt lat="51.679579960182309" lon="0.541274975985289">
        <ele>66</ele>
        <time>2018-02-18T08:57:58Z</time>
      </trkpt>
      <trkpt lat="51.679594041779637" lon="0.541312023997307">
        <ele>66</ele>
        <time>2018-02-18T08:58:00Z</time>
      </trkpt>
      <trkpt lat="51.679594963788986" lon="0.54134395904839">
        <ele>66</ele>
        <time>2018-02-18T08:58:02Z</time>
      </trkpt>
      <trkpt lat="51.679596975445747" lon="0.541374972090125">
        <ele>66.928571428571402</ele>
        <time>2018-02-18T08:58:06Z</time>
      </trkpt>
      <trkpt lat="51.679595969617367" lon="0.541420988738537">
        <ele>67.060005631927893</ele>
        <time>2018-02-18T08:58:08Z</time>
      </trkpt>
      <trkpt lat="51.679599992930889" lon="0.541459964588284">
        <ele>68</ele>
        <time>2018-02-18T08:58:10Z</time>
      </trkpt>
      <trkpt lat="51.679606027901173" lon="0.541498018428683">
        <ele>68</ele>
        <time>2018-02-18T08:58:12Z</time>
      </trkpt>
      <trkpt lat="51.679609967395663" lon="0.541539005935192">
        <ele>68</ele>
        <time>2018-02-18T08:58:14Z</time>
      </trkpt>
      <trkpt lat="51.679616002365947" lon="0.541582005098462">
        <ele>67</ele>
        <time>2018-02-18T08:58:16Z</time>
      </trkpt>
      <trkpt lat="51.679625976830721" lon="0.541623998433352">
        <ele>67</ele>
        <time>2018-02-18T08:58:18Z</time>
      </trkpt>
      <trkpt lat="51.679634023457766" lon="0.541669009253383">
        <ele>67</ele>
        <time>2018-02-18T08:58:20Z</time>
      </trkpt>
      <trkpt lat="51.679641986265779" lon="0.541718965396285">
        <ele>68</ele>
        <time>2018-02-18T08:58:22Z</time>
      </trkpt>
      <trkpt lat="51.679647015407681" lon="0.541769005358219">
        <ele>68</ele>
        <time>2018-02-18T08:58:24Z</time>
      </trkpt>
      <trkpt lat="51.679651960730553" lon="0.54181401617825">
        <ele>68</ele>
        <time>2018-02-18T08:58:26Z</time>
      </trkpt>
      <trkpt lat="51.679657995700836" lon="0.541864978149533">
        <ele>68</ele>
        <time>2018-02-18T08:58:28Z</time>
      </trkpt>
      <trkpt lat="51.679662019014359" lon="0.541908983141184">
        <ele>68</ele>
        <time>2018-02-18T08:58:30Z</time>
      </trkpt>
      <trkpt lat="51.6796650364995" lon="0.541950976476073">
        <ele>68</ele>
        <time>2018-02-18T08:58:32Z</time>
      </trkpt>
      <trkpt lat="51.67966797016561" lon="0.541990958154202">
        <ele>68</ele>
        <time>2018-02-18T08:58:34Z</time>
      </trkpt>
      <trkpt lat="51.679670987650752" lon="0.542034041136503">
        <ele>68</ele>
        <time>2018-02-18T08:58:36Z</time>
      </trkpt>
      <trkpt lat="51.679674005135894" lon="0.542078968137503">
        <ele>68</ele>
        <time>2018-02-18T08:58:38Z</time>
      </trkpt>
      <trkpt lat="51.679681967943907" lon="0.542116016149521">
        <ele>68</ele>
        <time>2018-02-18T08:58:40Z</time>
      </trkpt>
      <trkpt lat="51.679689008742571" lon="0.542151974514127">
        <ele>68</ele>
        <time>2018-02-18T08:58:42Z</time>
      </trkpt>
      <trkpt lat="51.67968800291419" lon="0.542183993384242">
        <ele>67</ele>
        <time>2018-02-18T08:58:45Z</time>
      </trkpt>
      <trkpt lat="51.679696971550584" lon="0.542229004204273">
        <ele>67</ele>
        <time>2018-02-18T08:58:56Z</time>
      </trkpt>
      <trkpt lat="51.679703006520867" lon="0.542307961732149">
        <ele>67</ele>
        <time>2018-02-18T08:58:58Z</time>
      </trkpt>
      <trkpt lat="51.67970702983439" lon="0.542347021400929">
        <ele>67</ele>
        <time>2018-02-18T08:58:59Z</time>
      </trkpt>
      <trkpt lat="51.679709041491151" lon="0.542383985593915">
        <ele>67</ele>
        <time>2018-02-18T08:59:00Z</time>
      </trkpt>
      <trkpt lat="51.67971096932888" lon="0.542420027777553">
        <ele>67</ele>
        <time>2018-02-18T08:59:01Z</time>
      </trkpt>
      <trkpt lat="51.679712980985641" lon="0.542453974485397">
        <ele>67</ele>
        <time>2018-02-18T08:59:02Z</time>
      </trkpt>
      <trkpt lat="51.679712980985641" lon="0.542486999183893">
        <ele>67</ele>
        <time>2018-02-18T08:59:03Z</time>
      </trkpt>
      <trkpt lat="51.679711975157261" lon="0.54252203553915">
        <ele>67</ele>
        <time>2018-02-18T08:59:04Z</time>
      </trkpt>
      <trkpt lat="51.6797099635005" lon="0.542558999732137">
        <ele>66</ele>
        <time>2018-02-18T08:59:05Z</time>
      </trkpt>
      <trkpt lat="51.6797099635005" lon="0.542597975581884">
        <ele>66</ele>
        <time>2018-02-18T08:59:06Z</time>
      </trkpt>
      <trkpt lat="51.679711975157261" lon="0.542638041079044">
        <ele>66</ele>
        <time>2018-02-18T08:59:07Z</time>
      </trkpt>
      <trkpt lat="51.679714992642403" lon="0.542681040242314">
        <ele>66</ele>
        <time>2018-02-18T08:59:08Z</time>
      </trkpt>
      <trkpt lat="51.679720021784306" lon="0.542722027748823">
        <ele>66</ele>
        <time>2018-02-18T08:59:09Z</time>
      </trkpt>
      <trkpt lat="51.679724967107177" lon="0.542761003598571">
        <ele>66</ele>
        <time>2018-02-18T08:59:10Z</time>
      </trkpt>
      <trkpt lat="51.679726978763938" lon="0.542800985276699">
        <ele>66</ele>
        <time>2018-02-18T08:59:11Z</time>
      </trkpt>
      <trkpt lat="51.679732007905841" lon="0.542838033288717">
        <ele>66</ele>
        <time>2018-02-18T08:59:12Z</time>
      </trkpt>
      <trkpt lat="51.679736031219363" lon="0.542878014966846">
        <ele>66</ele>
        <time>2018-02-18T08:59:13Z</time>
      </trkpt>
      <trkpt lat="51.679739970713854" lon="0.542916990816593">
        <ele>66</ele>
        <time>2018-02-18T08:59:14Z</time>
      </trkpt>
      <trkpt lat="51.679743994027376" lon="0.542959989979863">
        <ele>66</ele>
        <time>2018-02-18T08:59:15Z</time>
      </trkpt>
      <trkpt lat="51.679749023169279" lon="0.543003994971514">
        <ele>66</ele>
        <time>2018-02-18T08:59:16Z</time>
      </trkpt>
      <trkpt lat="51.67975396849215" lon="0.543044982478023">
        <ele>66</ele>
        <time>2018-02-18T08:59:17Z</time>
      </trkpt>
      <trkpt lat="51.679762015119195" lon="0.543120000511408">
        <ele>66</ele>
        <time>2018-02-18T08:59:19Z</time>
      </trkpt>
      <trkpt lat="51.679765032604337" lon="0.543158976361156">
        <ele>65.010522911922806</ele>
        <time>2018-02-18T08:59:20Z</time>
      </trkpt>
      <trkpt lat="51.679767966270447" lon="0.543197030201554">
        <ele>65</ele>
        <time>2018-02-18T08:59:21Z</time>
      </trkpt>
      <trkpt lat="51.679771989583969" lon="0.543235000222921">
        <ele>65</ele>
        <time>2018-02-18T08:59:22Z</time>
      </trkpt>
      <trkpt lat="51.679777018725872" lon="0.543271964415908">
        <ele>65</ele>
        <time>2018-02-18T08:59:23Z</time>
      </trkpt>
      <trkpt lat="51.679779030382633" lon="0.543308006599545">
        <ele>65</ele>
        <time>2018-02-18T08:59:24Z</time>
      </trkpt>
      <trkpt lat="51.679781964048743" lon="0.543344970792532">
        <ele>65</ele>
        <time>2018-02-18T08:59:25Z</time>
      </trkpt>
      <trkpt lat="51.679782969877124" lon="0.54338101297617">
        <ele>65</ele>
        <time>2018-02-18T08:59:26Z</time>
      </trkpt>
      <trkpt lat="51.679786993190646" lon="0.543419988825917">
        <ele>65</ele>
        <time>2018-02-18T08:59:27Z</time>
      </trkpt>
      <trkpt lat="51.679791016504169" lon="0.543458964675665">
        <ele>65</ele>
        <time>2018-02-18T08:59:28Z</time>
      </trkpt>
      <trkpt lat="51.67979302816093" lon="0.543497018516064">
        <ele>65</ele>
        <time>2018-02-18T08:59:29Z</time>
      </trkpt>
      <trkpt lat="51.67979596182704" lon="0.543534988537431">
        <ele>65</ele>
        <time>2018-02-18T08:59:30Z</time>
      </trkpt>
      <trkpt lat="51.679798979312181" lon="0.543572036549449">
        <ele>65</ele>
        <time>2018-02-18T08:59:31Z</time>
      </trkpt>
      <trkpt lat="51.679801996797323" lon="0.543613024055958">
        <ele>65</ele>
        <time>2018-02-18T08:59:32Z</time>
      </trkpt>
      <trkpt lat="51.679806020110846" lon="0.543653005734086">
        <ele>65</ele>
        <time>2018-02-18T08:59:33Z</time>
      </trkpt>
      <trkpt lat="51.679808031767607" lon="0.543688964098692">
        <ele>65</ele>
        <time>2018-02-18T08:59:34Z</time>
      </trkpt>
      <trkpt lat="51.679811971262097" lon="0.543727017939091">
        <ele>65</ele>
        <time>2018-02-18T08:59:35Z</time>
      </trkpt>
      <trkpt lat="51.679817000404" lon="0.543761970475316">
        <ele>65</ele>
        <time>2018-02-18T08:59:36Z</time>
      </trkpt>
      <trkpt lat="51.679820017889142" lon="0.543800024315715">
        <ele>65</ele>
        <time>2018-02-18T08:59:37Z</time>
      </trkpt>
      <trkpt lat="51.679824041202664" lon="0.543836988508701">
        <ele>65</ele>
        <time>2018-02-18T08:59:38Z</time>
      </trkpt>
      <trkpt lat="51.679828986525536" lon="0.543872024863958">
        <ele>65</ele>
        <time>2018-02-18T08:59:39Z</time>
      </trkpt>
      <trkpt lat="51.679833009839058" lon="0.543908989056945">
        <ele>64.118812257623006</ele>
        <time>2018-02-18T08:59:40Z</time>
      </trkpt>
      <trkpt lat="51.67983703315258" lon="0.543943019583821">
        <ele>64</ele>
        <time>2018-02-18T08:59:41Z</time>
      </trkpt>
      <trkpt lat="51.67983996681869" lon="0.543978977948427">
        <ele>64</ele>
        <time>2018-02-18T08:59:42Z</time>
      </trkpt>
      <trkpt lat="51.679842984303832" lon="0.544015020132065">
        <ele>64</ele>
        <time>2018-02-18T08:59:43Z</time>
      </trkpt>
      <trkpt lat="51.679846001788974" lon="0.544066987931728">
        <ele>64</ele>
        <time>2018-02-18T08:59:45Z</time>
      </trkpt>
      <trkpt lat="51.679851030930877" lon="0.544101018458605">
        <ele>64</ele>
        <time>2018-02-18T08:59:47Z</time>
      </trkpt>
      <trkpt lat="51.679863017052412" lon="0.544129014015198">
        <ele>64</ele>
        <time>2018-02-18T08:59:50Z</time>
      </trkpt>
      <trkpt lat="51.679876009002328" lon="0.544152986258268">
        <ele>64</ele>
        <time>2018-02-18T08:59:54Z</time>
      </trkpt>
      <trkpt lat="51.679883971810341" lon="0.54417796432972">
        <ele>64</ele>
        <time>2018-02-18T09:00:25Z</time>
      </trkpt>
      <trkpt lat="51.679887995123863" lon="0.544211994856596">
        <ele>64</ele>
        <time>2018-02-18T09:00:28Z</time>
      </trkpt>
      <trkpt lat="51.679885983467102" lon="0.54426496848464">
        <ele>64</ele>
        <time>2018-02-18T09:00:35Z</time>
      </trkpt>
      <trkpt lat="51.679893024265766" lon="0.544302016496658">
        <ele>64</ele>
        <time>2018-02-18T09:00:37Z</time>
      </trkpt>
      <trkpt lat="51.679896963760257" lon="0.544340992346406">
        <ele>64</ele>
        <time>2018-02-18T09:00:39Z</time>
      </trkpt>
      <trkpt lat="51.679908027872443" lon="0.544383991509676">
        <ele>64</ele>
        <time>2018-02-18T09:00:41Z</time>
      </trkpt>
      <trkpt lat="51.679914984852076" lon="0.544425984844565">
        <ele>64</ele>
        <time>2018-02-18T09:00:43Z</time>
      </trkpt>
      <trkpt lat="51.679920013993979" lon="0.544467978179455">
        <ele>64</ele>
        <time>2018-02-18T09:00:45Z</time>
      </trkpt>
      <trkpt lat="51.679929988458753" lon="0.544527992606163">
        <ele>64</ele>
        <time>2018-02-18T09:00:47Z</time>
      </trkpt>
      <trkpt lat="51.679935017600656" lon="0.544564034789801">
        <ele>64</ele>
        <time>2018-02-18T09:00:48Z</time>
      </trkpt>
      <trkpt lat="51.679939962923527" lon="0.544595969840884">
        <ele>64</ele>
        <time>2018-02-18T09:00:49Z</time>
      </trkpt>
      <trkpt lat="51.679941974580288" lon="0.544627988710999">
        <ele>64</ele>
        <time>2018-02-18T09:00:50Z</time>
      </trkpt>
      <trkpt lat="51.679947003722191" lon="0.544662019237876">
        <ele>64</ele>
        <time>2018-02-18T09:00:51Z</time>
      </trkpt>
      <trkpt lat="51.679953038692474" lon="0.544695965945721">
        <ele>64</ele>
        <time>2018-02-18T09:00:52Z</time>
      </trkpt>
      <trkpt lat="51.679956978186965" lon="0.544731002300978">
        <ele>64</ele>
        <time>2018-02-18T09:00:53Z</time>
      </trkpt>
      <trkpt lat="51.679963013157248" lon="0.544766038656235">
        <ele>64</ele>
        <time>2018-02-18T09:00:54Z</time>
      </trkpt>
      <trkpt lat="51.67996603064239" lon="0.544799985364079">
        <ele>64</ele>
        <time>2018-02-18T09:00:55Z</time>
      </trkpt>
      <trkpt lat="51.679971981793642" lon="0.544836027547717">
        <ele>64</ele>
        <time>2018-02-18T09:00:56Z</time>
      </trkpt>
      <trkpt lat="51.679978016763926" lon="0.544869974255562">
        <ele>64</ele>
        <time>2018-02-18T09:00:57Z</time>
      </trkpt>
      <trkpt lat="51.679982040077448" lon="0.544909033924341">
        <ele>64</ele>
        <time>2018-02-18T09:00:58Z</time>
      </trkpt>
      <trkpt lat="51.679983967915177" lon="0.544945998117328">
        <ele>64</ele>
        <time>2018-02-18T09:00:59Z</time>
      </trkpt>
      <trkpt lat="51.679986985400319" lon="0.544980028644204">
        <ele>64</ele>
        <time>2018-02-18T09:01:00Z</time>
      </trkpt>
      <trkpt lat="51.67998899705708" lon="0.54501598700881">
        <ele>64</ele>
        <time>2018-02-18T09:01:01Z</time>
      </trkpt>
      <trkpt lat="51.679992014542222" lon="0.545051023364067">
        <ele>64</ele>
        <time>2018-02-18T09:01:02Z</time>
      </trkpt>
      <trkpt lat="51.679995032027364" lon="0.545084970071912">
        <ele>64</ele>
        <time>2018-02-18T09:01:03Z</time>
      </trkpt>
      <trkpt lat="51.679997965693474" lon="0.545117994770408">
        <ele>64</ele>
        <time>2018-02-18T09:01:04Z</time>
      </trkpt>
      <trkpt lat="51.680000983178616" lon="0.545154958963394">
        <ele>64</ele>
        <time>2018-02-18T09:01:05Z</time>
      </trkpt>
      <trkpt lat="51.680000983178616" lon="0.545191001147032">
        <ele>64</ele>
        <time>2018-02-18T09:01:06Z</time>
      </trkpt>
      <trkpt lat="51.679999977350235" lon="0.545227965340018">
        <ele>64</ele>
        <time>2018-02-18T09:01:07Z</time>
      </trkpt>
      <trkpt lat="51.680000983178616" lon="0.545265013352036">
        <ele>64</ele>
        <time>2018-02-18T09:01:08Z</time>
      </trkpt>
      <trkpt lat="51.680004000663757" lon="0.545300971716642">
        <ele>63.976559999999999</ele>
        <time>2018-02-18T09:01:09Z</time>
      </trkpt>
      <trkpt lat="51.680007018148899" lon="0.54533701390028">
        <ele>63.195309999999999</ele>
        <time>2018-02-18T09:01:10Z</time>
      </trkpt>
      <trkpt lat="51.68000902980566" lon="0.545375989750028">
        <ele>63</ele>
        <time>2018-02-18T09:01:11Z</time>
      </trkpt>
      <trkpt lat="51.68001196347177" lon="0.545414965599775">
        <ele>63</ele>
        <time>2018-02-18T09:01:12Z</time>
      </trkpt>
      <trkpt lat="51.680015986785293" lon="0.545452013611794">
        <ele>63</ele>
        <time>2018-02-18T09:01:13Z</time>
      </trkpt>
      <trkpt lat="51.680021015927196" lon="0.545493001118302">
        <ele>63</ele>
        <time>2018-02-18T09:01:14Z</time>
      </trkpt>
      <trkpt lat="51.680023027583957" lon="0.545537006109953">
        <ele>63</ele>
        <time>2018-02-18T09:01:15Z</time>
      </trkpt>
      <trkpt lat="51.680025961250067" lon="0.545573970302939">
        <ele>63</ele>
        <time>2018-02-18T09:01:16Z</time>
      </trkpt>
      <trkpt lat="51.680025961250067" lon="0.545611018314958">
        <ele>62.079999999999998</ele>
        <time>2018-02-18T09:01:17Z</time>
      </trkpt>
      <trkpt lat="51.680027972906828" lon="0.545649994164705">
        <ele>62</ele>
        <time>2018-02-18T09:01:18Z</time>
      </trkpt>
      <trkpt lat="51.680033002048731" lon="0.545690981671214">
        <ele>62</ele>
        <time>2018-02-18T09:01:19Z</time>
      </trkpt>
      <trkpt lat="51.680036019533873" lon="0.545731969177723">
        <ele>62</ele>
        <time>2018-02-18T09:01:20Z</time>
      </trkpt>
      <trkpt lat="51.680042976513505" lon="0.545773040503263">
        <ele>62</ele>
        <time>2018-02-18T09:01:21Z</time>
      </trkpt>
      <trkpt lat="51.680046999827027" lon="0.545815033838153">
        <ele>62</ele>
        <time>2018-02-18T09:01:22Z</time>
      </trkpt>
      <trkpt lat="51.68005202896893" lon="0.545858033001423">
        <ele>62</ele>
        <time>2018-02-18T09:01:23Z</time>
      </trkpt>
      <trkpt lat="51.68005202896893" lon="0.545901032164693">
        <ele>62.920000000000002</ele>
        <time>2018-02-18T09:01:24Z</time>
      </trkpt>
      <trkpt lat="51.680050017312169" lon="0.545940008014441">
        <ele>63</ele>
        <time>2018-02-18T09:01:25Z</time>
      </trkpt>
      <trkpt lat="51.680049011483788" lon="0.545979989692569">
        <ele>63</ele>
        <time>2018-02-18T09:01:26Z</time>
      </trkpt>
      <trkpt lat="51.680048005655408" lon="0.546019971370697">
        <ele>63</ele>
        <time>2018-02-18T09:01:27Z</time>
      </trkpt>
      <trkpt lat="51.680053034797311" lon="0.546058025211096">
        <ele>63</ele>
        <time>2018-02-18T09:01:28Z</time>
      </trkpt>
      <trkpt lat="51.680050017312169" lon="0.546099012717605">
        <ele>63</ele>
        <time>2018-02-18T09:01:29Z</time>
      </trkpt>
      <trkpt lat="51.68005102314055" lon="0.546135976910591">
        <ele>63</ele>
        <time>2018-02-18T09:01:30Z</time>
      </trkpt>
      <trkpt lat="51.680054040625691" lon="0.546175036579371">
        <ele>63</ele>
        <time>2018-02-18T09:01:31Z</time>
      </trkpt>
      <trkpt lat="51.680055968463421" lon="0.54621702991426">
        <ele>63</ele>
        <time>2018-02-18T09:01:32Z</time>
      </trkpt>
      <trkpt lat="51.680060997605324" lon="0.546257011592388">
        <ele>63</ele>
        <time>2018-02-18T09:01:33Z</time>
      </trkpt>
      <trkpt lat="51.680064015090466" lon="0.546293975785375">
        <ele>63</ele>
        <time>2018-02-18T09:01:34Z</time>
      </trkpt>
      <trkpt lat="51.680066026747227" lon="0.546328006312251">
        <ele>63</ele>
        <time>2018-02-18T09:01:35Z</time>
      </trkpt>
      <trkpt lat="51.680066026747227" lon="0.546363964676857">
        <ele>63</ele>
        <time>2018-02-18T09:01:36Z</time>
      </trkpt>
      <trkpt lat="51.680067032575607" lon="0.546400006860495">
        <ele>63</ele>
        <time>2018-02-18T09:01:37Z</time>
      </trkpt>
      <trkpt lat="51.680067032575607" lon="0.54643495939672">
        <ele>63</ele>
        <time>2018-02-18T09:01:38Z</time>
      </trkpt>
      <trkpt lat="51.680065020918846" lon="0.546466978266835">
        <ele>63</ele>
        <time>2018-02-18T09:01:39Z</time>
      </trkpt>
      <trkpt lat="51.680064015090466" lon="0.546502014622092">
        <ele>63</ele>
        <time>2018-02-18T09:01:40Z</time>
      </trkpt>
      <trkpt lat="51.680062003433704" lon="0.546538978815079">
        <ele>63</ele>
        <time>2018-02-18T09:01:41Z</time>
      </trkpt>
      <trkpt lat="51.680056974291801" lon="0.546573009341955">
        <ele>63</ele>
        <time>2018-02-18T09:01:42Z</time>
      </trkpt>
      <trkpt lat="51.68005202896893" lon="0.546607039868832">
        <ele>63</ele>
        <time>2018-02-18T09:01:43Z</time>
      </trkpt>
      <trkpt lat="51.680045993998647" lon="0.546640986576676">
        <ele>63</ele>
        <time>2018-02-18T09:01:44Z</time>
      </trkpt>
      <trkpt lat="51.680041970685124" lon="0.546673005446792">
        <ele>63</ele>
        <time>2018-02-18T09:01:45Z</time>
      </trkpt>
      <trkpt lat="51.680038031190634" lon="0.546708041802049">
        <ele>63</ele>
        <time>2018-02-18T09:01:46Z</time>
      </trkpt>
      <trkpt lat="51.680035013705492" lon="0.546741988509893">
        <ele>63</ele>
        <time>2018-02-18T09:01:47Z</time>
      </trkpt>
      <trkpt lat="51.680033002048731" lon="0.546775013208389">
        <ele>63</ele>
        <time>2018-02-18T09:01:48Z</time>
      </trkpt>
      <trkpt lat="51.680025961250067" lon="0.546808959916234">
        <ele>63</ele>
        <time>2018-02-18T09:01:49Z</time>
      </trkpt>
      <trkpt lat="51.680017998442054" lon="0.546843996271491">
        <ele>62.083330370370398</ele>
        <time>2018-02-18T09:01:50Z</time>
      </trkpt>
      <trkpt lat="51.680013975128531" lon="0.546872997656465">
        <ele>62</ele>
        <time>2018-02-18T09:01:51Z</time>
      </trkpt>
      <trkpt lat="51.680011041462421" lon="0.54690501652658">
        <ele>62</ele>
        <time>2018-02-18T09:01:53Z</time>
      </trkpt>
      <trkpt lat="51.680013975128531" lon="0.546934017911553">
        <ele>61</ele>
        <time>2018-02-18T09:01:58Z</time>
      </trkpt>
      <trkpt lat="51.680029984563589" lon="0.546956984326243">
        <ele>61</ele>
        <time>2018-02-18T09:02:02Z</time>
      </trkpt>
      <trkpt lat="51.680044988170266" lon="0.546981962397695">
        <ele>61</ele>
        <time>2018-02-18T09:02:04Z</time>
      </trkpt>
      <trkpt lat="51.680063009262085" lon="0.54701498709619">
        <ele>61.789059999999999</ele>
        <time>2018-02-18T09:02:07Z</time>
      </trkpt>
      <trkpt lat="51.680068960413337" lon="0.547049017623067">
        <ele>62</ele>
        <time>2018-02-18T09:02:09Z</time>
      </trkpt>
      <trkpt lat="51.680068960413337" lon="0.547082964330912">
        <ele>62</ele>
        <time>2018-02-18T09:02:14Z</time>
      </trkpt>
      <trkpt lat="51.68007398955524" lon="0.547116994857788">
        <ele>61</ele>
        <time>2018-02-18T09:02:16Z</time>
      </trkpt>
      <trkpt lat="51.680071977898479" lon="0.547155970707536">
        <ele>61</ele>
        <time>2018-02-18T09:02:18Z</time>
      </trkpt>
      <trkpt lat="51.680069966241717" lon="0.547196036204696">
        <ele>61</ele>
        <time>2018-02-18T09:02:20Z</time>
      </trkpt>
      <trkpt lat="51.680069966241717" lon="0.547239035367966">
        <ele>61</ele>
        <time>2018-02-18T09:02:22Z</time>
      </trkpt>
      <trkpt lat="51.680070972070098" lon="0.547283962368965">
        <ele>61</ele>
        <time>2018-02-18T09:02:24Z</time>
      </trkpt>
      <trkpt lat="51.680071977898479" lon="0.547325033694506">
        <ele>61</ele>
        <time>2018-02-18T09:02:26Z</time>
      </trkpt>
      <trkpt lat="51.68007499538362" lon="0.547365015372634">
        <ele>61</ele>
        <time>2018-02-18T09:02:28Z</time>
      </trkpt>
      <trkpt lat="51.680081030353904" lon="0.547402985394001">
        <ele>61</ele>
        <time>2018-02-18T09:02:30Z</time>
      </trkpt>
      <trkpt lat="51.680091004818678" lon="0.547440033406019">
        <ele>61</ele>
        <time>2018-02-18T09:02:32Z</time>
      </trkpt>
      <trkpt lat="51.680099973455071" lon="0.547474985942245">
        <ele>61</ele>
        <time>2018-02-18T09:02:34Z</time>
      </trkpt>
      <trkpt lat="51.680108020082116" lon="0.547512033954263">
        <ele>61</ele>
        <time>2018-02-18T09:02:36Z</time>
      </trkpt>
      <trkpt lat="51.680112965404987" lon="0.547548998147249">
        <ele>61</ele>
        <time>2018-02-18T09:02:38Z</time>
      </trkpt>
      <trkpt lat="51.680119000375271" lon="0.547589985653758">
        <ele>61</ele>
        <time>2018-02-18T09:02:40Z</time>
      </trkpt>
      <trkpt lat="51.680119000375271" lon="0.547624016180635">
        <ele>61</ele>
        <time>2018-02-18T09:02:42Z</time>
      </trkpt>
      <trkpt lat="51.680125035345554" lon="0.54765896871686">
        <ele>61</ele>
        <time>2018-02-18T09:02:44Z</time>
      </trkpt>
      <trkpt lat="51.680129980668426" lon="0.547698028385639">
        <ele>61</ele>
        <time>2018-02-18T09:02:46Z</time>
      </trkpt>
      <trkpt lat="51.680135009810328" lon="0.547734992578626">
        <ele>61</ele>
        <time>2018-02-18T09:02:48Z</time>
      </trkpt>
      <trkpt lat="51.68014096096158" lon="0.547769023105502">
        <ele>61</ele>
        <time>2018-02-18T09:02:50Z</time>
      </trkpt>
      <trkpt lat="51.680142972618341" lon="0.547806993126869">
        <ele>61</ele>
        <time>2018-02-18T09:02:52Z</time>
      </trkpt>
      <trkpt lat="51.680146995931864" lon="0.547843035310507">
        <ele>61</ele>
        <time>2018-02-18T09:02:54Z</time>
      </trkpt>
      <trkpt lat="51.680151019245386" lon="0.54787497036159">
        <ele>61</ele>
        <time>2018-02-18T09:02:56Z</time>
      </trkpt>
      <trkpt lat="51.680156970396638" lon="0.54791403003037">
        <ele>61</ele>
        <time>2018-02-18T09:02:58Z</time>
      </trkpt>
      <trkpt lat="51.680161999538541" lon="0.547953005880117">
        <ele>61</ele>
        <time>2018-02-18T09:03:00Z</time>
      </trkpt>
      <trkpt lat="51.680166022852063" lon="0.547993993386626">
        <ele>61</ele>
        <time>2018-02-18T09:03:02Z</time>
      </trkpt>
      <trkpt lat="51.680170968174934" lon="0.548035986721516">
        <ele>61</ele>
        <time>2018-02-18T09:03:04Z</time>
      </trkpt>
      <trkpt lat="51.680182032287121" lon="0.548077980056405">
        <ele>61</ele>
        <time>2018-02-18T09:03:06Z</time>
      </trkpt>
      <trkpt lat="51.680186977609992" lon="0.548117039725184">
        <ele>61</ele>
        <time>2018-02-18T09:03:08Z</time>
      </trkpt>
      <trkpt lat="51.680194018408656" lon="0.548154003918171">
        <ele>61</ele>
        <time>2018-02-18T09:03:10Z</time>
      </trkpt>
      <trkpt lat="51.680198041722178" lon="0.54819599725306">
        <ele>61</ele>
        <time>2018-02-18T09:03:12Z</time>
      </trkpt>
      <trkpt lat="51.680204998701811" lon="0.54823799058795">
        <ele>61</ele>
        <time>2018-02-18T09:03:14Z</time>
      </trkpt>
      <trkpt lat="51.680204998701811" lon="0.548275038599968">
        <ele>61</ele>
        <time>2018-02-18T09:03:16Z</time>
      </trkpt>
      <trkpt lat="51.68020399287343" lon="0.548318037763238">
        <ele>61</ele>
        <time>2018-02-18T09:03:18Z</time>
      </trkpt>
      <trkpt lat="51.680204998701811" lon="0.548358019441366">
        <ele>61</ele>
        <time>2018-02-18T09:03:20Z</time>
      </trkpt>
      <trkpt lat="51.680211033672094" lon="0.548402024433017">
        <ele>60</ele>
        <time>2018-02-18T09:03:22Z</time>
      </trkpt>
      <trkpt lat="51.680215978994966" lon="0.548444017767906">
        <ele>60</ele>
        <time>2018-02-18T09:03:24Z</time>
      </trkpt>
      <trkpt lat="51.680222013965249" lon="0.548485005274415">
        <ele>60</ele>
        <time>2018-02-18T09:03:26Z</time>
      </trkpt>
      <trkpt lat="51.68022695928812" lon="0.548525992780924">
        <ele>60</ele>
        <time>2018-02-18T09:03:28Z</time>
      </trkpt>
      <trkpt lat="51.680231988430023" lon="0.548567986115813">
        <ele>60</ele>
        <time>2018-02-18T09:03:30Z</time>
      </trkpt>
      <trkpt lat="51.680234000086784" lon="0.548615008592606">
        <ele>61</ele>
        <time>2018-02-18T09:03:32Z</time>
      </trkpt>
      <trkpt lat="51.680231988430023" lon="0.548662031069398">
        <ele>61</ele>
        <time>2018-02-18T09:03:34Z</time>
      </trkpt>
      <trkpt lat="51.680231988430023" lon="0.548707963898778">
        <ele>60.089996800000002</ele>
        <time>2018-02-18T09:03:36Z</time>
      </trkpt>
      <trkpt lat="51.680230982601643" lon="0.54875398054719">
        <ele>60</ele>
        <time>2018-02-18T09:03:38Z</time>
      </trkpt>
      <trkpt lat="51.68022695928812" lon="0.548801003023982">
        <ele>60</ele>
        <time>2018-02-18T09:03:40Z</time>
      </trkpt>
      <trkpt lat="51.68022402562201" lon="0.548842996358871">
        <ele>60</ele>
        <time>2018-02-18T09:03:42Z</time>
      </trkpt>
      <trkpt lat="51.680221008136868" lon="0.548882978037">
        <ele>60</ele>
        <time>2018-02-18T09:03:44Z</time>
      </trkpt>
      <trkpt lat="51.680220002308488" lon="0.548921031877398">
        <ele>60</ele>
        <time>2018-02-18T09:03:46Z</time>
      </trkpt>
      <trkpt lat="51.680216984823346" lon="0.548959001898766">
        <ele>60</ele>
        <time>2018-02-18T09:03:48Z</time>
      </trkpt>
      <trkpt lat="51.680210027843714" lon="0.549000995233655">
        <ele>60</ele>
        <time>2018-02-18T09:03:50Z</time>
      </trkpt>
      <trkpt lat="51.680201981216669" lon="0.549040976911783">
        <ele>60</ele>
        <time>2018-02-18T09:03:52Z</time>
      </trkpt>
      <trkpt lat="51.680192006751895" lon="0.549072995781899">
        <ele>60</ele>
        <time>2018-02-18T09:03:54Z</time>
      </trkpt>
      <trkpt lat="51.68018102645874" lon="0.549112977460027">
        <ele>60</ele>
        <time>2018-02-18T09:03:56Z</time>
      </trkpt>
      <trkpt lat="51.680177003145218" lon="0.549158994108438">
        <ele>60</ele>
        <time>2018-02-18T09:03:58Z</time>
      </trkpt>
      <trkpt lat="51.680174991488457" lon="0.54920501075685">
        <ele>59</ele>
        <time>2018-02-18T09:04:00Z</time>
      </trkpt>
      <trkpt lat="51.680172979831696" lon="0.549243986606598">
        <ele>59</ele>
        <time>2018-02-18T09:04:02Z</time>
      </trkpt>
      <trkpt lat="51.680173985660076" lon="0.549286985769868">
        <ele>59</ele>
        <time>2018-02-18T09:04:04Z</time>
      </trkpt>
      <trkpt lat="51.680178008973598" lon="0.549326967447996">
        <ele>59</ele>
        <time>2018-02-18T09:04:06Z</time>
      </trkpt>
      <trkpt lat="51.68018002063036" lon="0.549362003803253">
        <ele>59</ele>
        <time>2018-02-18T09:04:08Z</time>
      </trkpt>
      <trkpt lat="51.680179014801979" lon="0.54939997382462">
        <ele>59</ele>
        <time>2018-02-18T09:04:10Z</time>
      </trkpt>
      <trkpt lat="51.680183038115501" lon="0.549429981037974">
        <ele>58</ele>
        <time>2018-02-18T09:04:12Z</time>
      </trkpt>
      <trkpt lat="51.680194018408656" lon="0.549459988251328">
        <ele>58</ele>
        <time>2018-02-18T09:04:15Z</time>
      </trkpt>
      <trkpt lat="51.680211033672094" lon="0.549497036263347">
        <ele>58</ele>
        <time>2018-02-18T09:04:19Z</time>
      </trkpt>
      <trkpt lat="51.680226037278771" lon="0.549526959657669">
        <ele>59</ele>
        <time>2018-02-18T09:04:21Z</time>
      </trkpt>
      <trkpt lat="51.680236011743546" lon="0.549556966871023">
        <ele>59</ele>
        <time>2018-02-18T09:04:24Z</time>
      </trkpt>
      <trkpt lat="51.680253027006984" lon="0.549593009054661">
        <ele>59</ele>
        <time>2018-02-18T09:04:27Z</time>
      </trkpt>
      <trkpt lat="51.6802660189569" lon="0.54961396381259">
        <ele>58.942313846153802</ele>
        <time>2018-02-18T09:04:29Z</time>
      </trkpt>
      <trkpt lat="51.680293008685112" lon="0.549627961590886">
        <ele>59</ele>
        <time>2018-02-18T09:04:32Z</time>
      </trkpt>
      <trkpt lat="51.680307006463408" lon="0.549646988511086">
        <ele>59</ele>
        <time>2018-02-18T09:04:34Z</time>
      </trkpt>
      <trkpt lat="51.680315975099802" lon="0.54967800155282">
        <ele>59</ele>
        <time>2018-02-18T09:04:36Z</time>
      </trkpt>
      <trkpt lat="51.680325027555227" lon="0.549714965745807">
        <ele>59</ele>
        <time>2018-02-18T09:04:38Z</time>
      </trkpt>
      <trkpt lat="51.68033198453486" lon="0.549753019586205">
        <ele>59</ele>
        <time>2018-02-18T09:04:40Z</time>
      </trkpt>
      <trkpt lat="51.680338019505143" lon="0.549787972122431">
        <ele>59</ele>
        <time>2018-02-18T09:04:42Z</time>
      </trkpt>
      <trkpt lat="51.680346988141537" lon="0.549815967679024">
        <ele>59</ele>
        <time>2018-02-18T09:04:44Z</time>
      </trkpt>
      <trkpt lat="51.68035201728344" lon="0.5498499982059">
        <ele>59</ele>
        <time>2018-02-18T09:04:46Z</time>
      </trkpt>
      <trkpt lat="51.680356962606311" lon="0.549886962398887">
        <ele>59</ele>
        <time>2018-02-18T09:04:48Z</time>
      </trkpt>
      <trkpt lat="51.680362997576594" lon="0.549924010410905">
        <ele>59</ele>
        <time>2018-02-18T09:04:50Z</time>
      </trkpt>
      <trkpt lat="51.680364003404975" lon="0.549961980432272">
        <ele>59</ele>
        <time>2018-02-18T09:04:52Z</time>
      </trkpt>
      <trkpt lat="51.680367020890117" lon="0.54999902844429">
        <ele>59</ele>
        <time>2018-02-18T09:04:55Z</time>
      </trkpt>
      <trkpt lat="51.680371966212988" lon="0.550028029829264">
        <ele>59</ele>
        <time>2018-02-18T09:04:57Z</time>
      </trkpt>
      <trkpt lat="51.68037498369813" lon="0.55006398819387">
        <ele>59</ele>
        <time>2018-02-18T09:04:59Z</time>
      </trkpt>
      <trkpt lat="51.680376995354891" lon="0.550104975700378">
        <ele>59</ele>
        <time>2018-02-18T09:05:01Z</time>
      </trkpt>
      <trkpt lat="51.680384036153555" lon="0.550140012055635">
        <ele>59</ele>
        <time>2018-02-18T09:05:03Z</time>
      </trkpt>
      <trkpt lat="51.680399961769581" lon="0.55017102509737">
        <ele>60</ele>
        <time>2018-02-18T09:05:05Z</time>
      </trkpt>
      <trkpt lat="51.680414965376258" lon="0.550202960148454">
        <ele>60</ele>
        <time>2018-02-18T09:05:07Z</time>
      </trkpt>
      <trkpt lat="51.680428963154554" lon="0.55023598484695">
        <ele>60</ele>
        <time>2018-02-18T09:05:09Z</time>
      </trkpt>
      <trkpt lat="51.680446984246373" lon="0.550263980403543">
        <ele>60</ele>
        <time>2018-02-18T09:05:11Z</time>
      </trkpt>
      <trkpt lat="51.68046198785305" lon="0.55030002258718">
        <ele>60</ele>
        <time>2018-02-18T09:05:13Z</time>
      </trkpt>
      <trkpt lat="51.680477997288108" lon="0.550341010093689">
        <ele>60</ele>
        <time>2018-02-18T09:05:15Z</time>
      </trkpt>
      <trkpt lat="51.680495012551546" lon="0.55038602091372">
        <ele>60</ele>
        <time>2018-02-18T09:05:17Z</time>
      </trkpt>
      <trkpt lat="51.680517978966236" lon="0.550456009805202">
        <ele>60</ele>
        <time>2018-02-18T09:05:20Z</time>
      </trkpt>
      <trkpt lat="51.680526025593281" lon="0.550504960119724">
        <ele>60</ele>
        <time>2018-02-18T09:05:22Z</time>
      </trkpt>
      <trkpt lat="51.680531976744533" lon="0.550549970939755">
        <ele>59</ele>
        <time>2018-02-18T09:05:24Z</time>
      </trkpt>
      <trkpt lat="51.680536000058055" lon="0.550593975931406">
        <ele>59</ele>
        <time>2018-02-18T09:05:26Z</time>
      </trkpt>
      <trkpt lat="51.680541029199958" lon="0.550640998408198">
        <ele>59</ele>
        <time>2018-02-18T09:05:28Z</time>
      </trkpt>
      <trkpt lat="51.680538011714816" lon="0.550682991743088">
        <ele>59</ele>
        <time>2018-02-18T09:05:30Z</time>
      </trkpt>
      <trkpt lat="51.680533988401294" lon="0.550714004784822">
        <ele>59</ele>
        <time>2018-02-18T09:05:33Z</time>
      </trkpt>
      <trkpt lat="51.680527031421661" lon="0.550748035311699">
        <ele>59</ele>
        <time>2018-02-18T09:05:35Z</time>
      </trkpt>
      <trkpt lat="51.680508004501462" lon="0.550761027261615">
        <ele>59</ele>
        <time>2018-02-18T09:05:39Z</time>
      </trkpt>
      <trkpt lat="51.680514039471745" lon="0.550793968141079">
        <ele>59</ele>
        <time>2018-02-18T09:05:42Z</time>
      </trkpt>
      <trkpt lat="51.68052401393652" lon="0.550835039466619">
        <ele>59</ele>
        <time>2018-02-18T09:05:45Z</time>
      </trkpt>
      <trkpt lat="51.680522002279758" lon="0.550868986174464">
        <ele>59</ele>
        <time>2018-02-18T09:05:47Z</time>
      </trkpt>
      <trkpt lat="51.680522002279758" lon="0.550904022529721">
        <ele>59</ele>
        <time>2018-02-18T09:05:49Z</time>
      </trkpt>
      <trkpt lat="51.680519990622997" lon="0.550939980894327">
        <ele>59</ele>
        <time>2018-02-18T09:05:51Z</time>
      </trkpt>
      <trkpt lat="51.680516973137856" lon="0.550979040563107">
        <ele>58.9799938560786</ele>
        <time>2018-02-18T09:05:53Z</time>
      </trkpt>
      <trkpt lat="51.680515967309475" lon="0.551016004756093">
        <ele>58</ele>
        <time>2018-02-18T09:05:55Z</time>
      </trkpt>
      <trkpt lat="51.680513033643365" lon="0.55105296894908">
        <ele>59</ele>
        <time>2018-02-18T09:05:57Z</time>
      </trkpt>
      <trkpt lat="51.680512027814984" lon="0.551090016961098">
        <ele>59</ele>
        <time>2018-02-18T09:05:59Z</time>
      </trkpt>
      <trkpt lat="51.680508004501462" lon="0.551134021952748">
        <ele>58</ele>
        <time>2018-02-18T09:06:01Z</time>
      </trkpt>
      <trkpt lat="51.68050498701632" lon="0.551172997802496">
        <ele>58</ele>
        <time>2018-02-18T09:06:03Z</time>
      </trkpt>
      <trkpt lat="51.68050498701632" lon="0.551217002794147">
        <ele>58</ele>
        <time>2018-02-18T09:06:05Z</time>
      </trkpt>
      <trkpt lat="51.68050498701632" lon="0.551258996129036">
        <ele>58</ele>
        <time>2018-02-18T09:06:07Z</time>
      </trkpt>
      <trkpt lat="51.68050398118794" lon="0.551304006949067">
        <ele>58</ele>
        <time>2018-02-18T09:06:09Z</time>
      </trkpt>
      <trkpt lat="51.680508004501462" lon="0.551346000283957">
        <ele>58</ele>
        <time>2018-02-18T09:06:11Z</time>
      </trkpt>
      <trkpt lat="51.680510016158223" lon="0.551387993618846">
        <ele>58</ele>
        <time>2018-02-18T09:06:13Z</time>
      </trkpt>
      <trkpt lat="51.680512027814984" lon="0.551434010267258">
        <ele>58</ele>
        <time>2018-02-18T09:06:15Z</time>
      </trkpt>
      <trkpt lat="51.680514039471745" lon="0.55148103274405">
        <ele>58</ele>
        <time>2018-02-18T09:06:17Z</time>
      </trkpt>
      <trkpt lat="51.680514039471745" lon="0.551525037735701">
        <ele>58</ele>
        <time>2018-02-18T09:06:19Z</time>
      </trkpt>
      <trkpt lat="51.680514961481094" lon="0.551570970565081">
        <ele>58</ele>
        <time>2018-02-18T09:06:21Z</time>
      </trkpt>
      <trkpt lat="51.680512027814984" lon="0.551613969728351">
        <ele>58</ele>
        <time>2018-02-18T09:06:23Z</time>
      </trkpt>
      <trkpt lat="51.680510016158223" lon="0.55165596306324">
        <ele>58</ele>
        <time>2018-02-18T09:06:25Z</time>
      </trkpt>
      <trkpt lat="51.680511021986604" lon="0.551703991368413">
        <ele>57.089996800000002</ele>
        <time>2018-02-18T09:06:27Z</time>
      </trkpt>
      <trkpt lat="51.680514039471745" lon="0.551749002188444">
        <ele>57</ele>
        <time>2018-02-18T09:06:29Z</time>
      </trkpt>
      <trkpt lat="51.680510016158223" lon="0.551795018836856">
        <ele>57</ele>
        <time>2018-02-18T09:06:31Z</time>
      </trkpt>
      <trkpt lat="51.680499035865068" lon="0.551830977201462">
        <ele>57</ele>
        <time>2018-02-18T09:06:33Z</time>
      </trkpt>
      <trkpt lat="51.680487971752882" lon="0.551855033263564">
        <ele>57</ele>
        <time>2018-02-18T09:06:35Z</time>
      </trkpt>
      <trkpt lat="51.680475985631347" lon="0.551879005506635">
        <ele>57</ele>
        <time>2018-02-18T09:06:39Z</time>
      </trkpt>
      <trkpt lat="51.680471962317824" lon="0.551908006891608">
        <ele>58</ele>
        <time>2018-02-18T09:06:45Z</time>
      </trkpt>
      <trkpt lat="51.680490989238024" lon="0.55193399079144">
        <ele>58</ele>
        <time>2018-02-18T09:06:48Z</time>
      </trkpt>
      <trkpt lat="51.680508004501462" lon="0.551942037418485">
        <ele>57.028574563274901</ele>
        <time>2018-02-18T09:06:51Z</time>
      </trkpt>
      <trkpt lat="51.680526025593281" lon="0.551943965256214">
        <ele>57</ele>
        <time>2018-02-18T09:07:10Z</time>
      </trkpt>
      <trkpt lat="51.680542035028338" lon="0.551930973306298">
        <ele>57</ele>
        <time>2018-02-18T09:07:16Z</time>
      </trkpt>
      <trkpt lat="51.680559972301126" lon="0.551902977749705">
        <ele>57</ele>
        <time>2018-02-18T09:07:29Z</time>
      </trkpt>
      <trkpt lat="51.680591991171241" lon="0.551885040476918">
        <ele>57</ele>
        <time>2018-02-18T09:07:33Z</time>
      </trkpt>
      <trkpt lat="51.68061101809144" lon="0.551883028820157">
        <ele>57</ele>
        <time>2018-02-18T09:07:36Z</time>
      </trkpt>
      <trkpt lat="51.680628033354878" lon="0.551907001063228">
        <ele>57</ele>
        <time>2018-02-18T09:07:39Z</time>
      </trkpt>
      <trkpt lat="51.680638007819653" lon="0.551930973306298">
        <ele>57</ele>
        <time>2018-02-18T09:07:53Z</time>
      </trkpt>
      <trkpt lat="51.680643036961555" lon="0.551969027146697">
        <ele>57</ele>
        <time>2018-02-18T09:07:56Z</time>
      </trkpt>
      <trkpt lat="51.680655023083091" lon="0.551999034360051">
        <ele>57.815996968952199</ele>
        <time>2018-02-18T09:07:59Z</time>
      </trkpt>
      <trkpt lat="51.68067597784102" lon="0.552044967189431">
        <ele>58</ele>
        <time>2018-02-18T09:08:02Z</time>
      </trkpt>
      <trkpt lat="51.680686036124825" lon="0.552073968574405">
        <ele>58</ele>
        <time>2018-02-18T09:08:04Z</time>
      </trkpt>
      <trkpt lat="51.680700033903122" lon="0.552112022414804">
        <ele>58</ele>
        <time>2018-02-18T09:08:06Z</time>
      </trkpt>
      <trkpt lat="51.680707996711135" lon="0.552139012143016">
        <ele>58</ele>
        <time>2018-02-18T09:08:07Z</time>
      </trkpt>
      <trkpt lat="51.68071998283267" lon="0.55219198577106">
        <ele>58</ele>
        <time>2018-02-18T09:08:09Z</time>
      </trkpt>
      <trkpt lat="51.680725011974573" lon="0.552222998812795">
        <ele>58</ele>
        <time>2018-02-18T09:08:10Z</time>
      </trkpt>
      <trkpt lat="51.680728029459715" lon="0.55225501768291">
        <ele>58</ele>
        <time>2018-02-18T09:08:11Z</time>
      </trkpt>
      <trkpt lat="51.680732974782586" lon="0.552289970219135">
        <ele>58</ele>
        <time>2018-02-18T09:08:12Z</time>
      </trkpt>
      <trkpt lat="51.680734986439347" lon="0.552326012402773">
        <ele>58</ele>
        <time>2018-02-18T09:08:13Z</time>
      </trkpt>
      <trkpt lat="51.68074001558125" lon="0.552362976595759">
        <ele>58</ele>
        <time>2018-02-18T09:08:14Z</time>
      </trkpt>
      <trkpt lat="51.680744038894773" lon="0.552401030436158">
        <ele>58</ele>
        <time>2018-02-18T09:08:15Z</time>
      </trkpt>
      <trkpt lat="51.680746972560883" lon="0.552436988800764">
        <ele>58</ele>
        <time>2018-02-18T09:08:16Z</time>
      </trkpt>
      <trkpt lat="51.680752001702785" lon="0.552472025156021">
        <ele>58</ele>
        <time>2018-02-18T09:08:17Z</time>
      </trkpt>
      <trkpt lat="51.680756025016308" lon="0.552509995177388">
        <ele>58</ele>
        <time>2018-02-18T09:08:18Z</time>
      </trkpt>
      <trkpt lat="51.680757030844688" lon="0.552543019875884">
        <ele>58</ele>
        <time>2018-02-18T09:08:19Z</time>
      </trkpt>
      <trkpt lat="51.68076298199594" lon="0.552590964362025">
        <ele>58</ele>
        <time>2018-02-18T09:08:21Z</time>
      </trkpt>
      <trkpt lat="51.680772034451365" lon="0.552629018202424">
        <ele>58</ele>
        <time>2018-02-18T09:08:26Z</time>
      </trkpt>
      <trkpt lat="51.680773962289095" lon="0.552676040679216">
        <ele>58</ele>
        <time>2018-02-18T09:08:28Z</time>
      </trkpt>
      <trkpt lat="51.680771028622985" lon="0.552752986550331">
        <ele>58</ele>
        <time>2018-02-18T09:08:30Z</time>
      </trkpt>
      <trkpt lat="51.680770022794604" lon="0.552792968228459">
        <ele>58</ele>
        <time>2018-02-18T09:08:31Z</time>
      </trkpt>
      <trkpt lat="51.680769016966224" lon="0.552831022068858">
        <ele>58</ele>
        <time>2018-02-18T09:08:32Z</time>
      </trkpt>
      <trkpt lat="51.680769016966224" lon="0.552868992090225">
        <ele>58</ele>
        <time>2018-02-18T09:08:33Z</time>
      </trkpt>
      <trkpt lat="51.680771028622985" lon="0.552905034273863">
        <ele>58</ele>
        <time>2018-02-18T09:08:34Z</time>
      </trkpt>
      <trkpt lat="51.680774968117476" lon="0.552936969324946">
        <ele>58.921568135329501</ele>
        <time>2018-02-18T09:08:35Z</time>
      </trkpt>
      <trkpt lat="51.680781003087759" lon="0.552974017336965">
        <ele>59</ele>
        <time>2018-02-18T09:08:36Z</time>
      </trkpt>
      <trkpt lat="51.680787038058043" lon="0.553010981529951">
        <ele>59</ele>
        <time>2018-02-18T09:08:37Z</time>
      </trkpt>
      <trkpt lat="51.680791983380914" lon="0.55305004119873">
        <ele>59</ele>
        <time>2018-02-18T09:08:38Z</time>
      </trkpt>
      <trkpt lat="51.680795000866055" lon="0.553087005391717">
        <ele>59</ele>
        <time>2018-02-18T09:08:39Z</time>
      </trkpt>
      <trkpt lat="51.680802963674068" lon="0.553120030090213">
        <ele>59</ele>
        <time>2018-02-18T09:08:40Z</time>
      </trkpt>
      <trkpt lat="51.68080598115921" lon="0.553153976798058">
        <ele>59</ele>
        <time>2018-02-18T09:08:41Z</time>
      </trkpt>
      <trkpt lat="51.680808998644352" lon="0.553187001496553">
        <ele>59</ele>
        <time>2018-02-18T09:08:42Z</time>
      </trkpt>
      <trkpt lat="51.680811010301113" lon="0.553222959861159">
        <ele>59</ele>
        <time>2018-02-18T09:08:43Z</time>
      </trkpt>
      <trkpt lat="51.680812016129494" lon="0.553259002044797">
        <ele>59</ele>
        <time>2018-02-18T09:08:44Z</time>
      </trkpt>
      <trkpt lat="51.680815033614635" lon="0.553294960409403">
        <ele>59</ele>
        <time>2018-02-18T09:08:45Z</time>
      </trkpt>
      <trkpt lat="51.680818973109126" lon="0.55332999676466">
        <ele>59</ele>
        <time>2018-02-18T09:08:46Z</time>
      </trkpt>
      <trkpt lat="51.68082500807941" lon="0.553367966786027">
        <ele>59</ele>
        <time>2018-02-18T09:08:47Z</time>
      </trkpt>
      <trkpt lat="51.680828025564551" lon="0.553407026454806">
        <ele>59</ele>
        <time>2018-02-18T09:08:48Z</time>
      </trkpt>
      <trkpt lat="51.680831965059042" lon="0.553440973162651">
        <ele>59</ele>
        <time>2018-02-18T09:08:49Z</time>
      </trkpt>
      <trkpt lat="51.680834982544184" lon="0.55347902700305">
        <ele>59</ele>
        <time>2018-02-18T09:08:50Z</time>
      </trkpt>
      <trkpt lat="51.680835988372564" lon="0.553521020337939">
        <ele>59</ele>
        <time>2018-02-18T09:08:51Z</time>
      </trkpt>
      <trkpt lat="51.680838000029325" lon="0.553558990359306">
        <ele>59</ele>
        <time>2018-02-18T09:08:52Z</time>
      </trkpt>
      <trkpt lat="51.680840011686087" lon="0.553597966209054">
        <ele>59</ele>
        <time>2018-02-18T09:08:53Z</time>
      </trkpt>
      <trkpt lat="51.680841017514467" lon="0.553635014221072">
        <ele>59</ele>
        <time>2018-02-18T09:08:54Z</time>
      </trkpt>
      <trkpt lat="51.680842023342848" lon="0.553668960928917">
        <ele>59</ele>
        <time>2018-02-18T09:08:55Z</time>
      </trkpt>
      <trkpt lat="51.680841017514467" lon="0.553698968142271">
        <ele>59</ele>
        <time>2018-02-18T09:08:56Z</time>
      </trkpt>
      <trkpt lat="51.680846968665719" lon="0.553731992840767">
        <ele>58.0106349660253</ele>
        <time>2018-02-18T09:09:00Z</time>
      </trkpt>
      <trkpt lat="51.680842023342848" lon="0.553764011710882">
        <ele>58</ele>
        <time>2018-02-18T09:09:03Z</time>
      </trkpt>
      <trkpt lat="51.6808479744941" lon="0.553797036409378">
        <ele>58</ele>
        <time>2018-02-18T09:09:05Z</time>
      </trkpt>
      <trkpt lat="51.6808479744941" lon="0.5538269598037">
        <ele>58</ele>
        <time>2018-02-18T09:09:06Z</time>
      </trkpt>
      <trkpt lat="51.680851997807622" lon="0.553886974230409">
        <ele>58</ele>
        <time>2018-02-18T09:09:08Z</time>
      </trkpt>
      <trkpt lat="51.680857026949525" lon="0.553918993100524">
        <ele>58</ele>
        <time>2018-02-18T09:09:09Z</time>
      </trkpt>
      <trkpt lat="51.680861972272396" lon="0.553954029455781">
        <ele>58</ele>
        <time>2018-02-18T09:09:10Z</time>
      </trkpt>
      <trkpt lat="51.68086800724268" lon="0.553986970335245">
        <ele>58</ele>
        <time>2018-02-18T09:09:11Z</time>
      </trkpt>
      <trkpt lat="51.680874964222312" lon="0.554023012518883">
        <ele>58</ele>
        <time>2018-02-18T09:09:12Z</time>
      </trkpt>
      <trkpt lat="51.680878987535834" lon="0.554056959226727">
        <ele>58</ele>
        <time>2018-02-18T09:09:13Z</time>
      </trkpt>
      <trkpt lat="51.680882005020976" lon="0.554094007238746">
        <ele>58</ele>
        <time>2018-02-18T09:09:14Z</time>
      </trkpt>
      <trkpt lat="51.680884016677737" lon="0.554130971431732">
        <ele>58</ele>
        <time>2018-02-18T09:09:15Z</time>
      </trkpt>
      <trkpt lat="51.68088803999126" lon="0.554165001958609">
        <ele>58</ele>
        <time>2018-02-18T09:09:16Z</time>
      </trkpt>
      <trkpt lat="51.68089197948575" lon="0.554197020828724">
        <ele>58</ele>
        <time>2018-02-18T09:09:17Z</time>
      </trkpt>
      <trkpt lat="51.680896002799273" lon="0.554230967536569">
        <ele>58</ele>
        <time>2018-02-18T09:09:18Z</time>
      </trkpt>
      <trkpt lat="51.680901031941175" lon="0.554268015548587">
        <ele>58</ele>
        <time>2018-02-18T09:09:19Z</time>
      </trkpt>
      <trkpt lat="51.680903965607285" lon="0.554306991398335">
        <ele>58</ele>
        <time>2018-02-18T09:09:20Z</time>
      </trkpt>
      <trkpt lat="51.680907988920808" lon="0.554345967248082">
        <ele>58</ele>
        <time>2018-02-18T09:09:21Z</time>
      </trkpt>
      <trkpt lat="51.680910000577569" lon="0.554385026916862">
        <ele>58</ele>
        <time>2018-02-18T09:09:22Z</time>
      </trkpt>
      <trkpt lat="51.680913018062711" lon="0.554422996938229">
        <ele>58</ele>
        <time>2018-02-18T09:09:23Z</time>
      </trkpt>
      <trkpt lat="51.680914023891091" lon="0.554460966959596">
        <ele>58</ele>
        <time>2018-02-18T09:09:24Z</time>
      </trkpt>
      <trkpt lat="51.680917963385582" lon="0.554497009143233">
        <ele>58</ele>
        <time>2018-02-18T09:09:25Z</time>
      </trkpt>
      <trkpt lat="51.680918969213963" lon="0.55453397333622">
        <ele>58</ele>
        <time>2018-02-18T09:09:26Z</time>
      </trkpt>
      <trkpt lat="51.680921986699104" lon="0.554568003863096">
        <ele>58</ele>
        <time>2018-02-18T09:09:27Z</time>
      </trkpt>
      <trkpt lat="51.680926010012627" lon="0.554600022733212">
        <ele>58</ele>
        <time>2018-02-18T09:09:28Z</time>
      </trkpt>
      <trkpt lat="51.680926010012627" lon="0.554632963612676">
        <ele>58</ele>
        <time>2018-02-18T09:09:29Z</time>
      </trkpt>
      <trkpt lat="51.68093497864902" lon="0.554679986089468">
        <ele>58</ele>
        <time>2018-02-18T09:09:31Z</time>
      </trkpt>
      <trkpt lat="51.680930033326149" lon="0.554716028273106">
        <ele>58</ele>
        <time>2018-02-18T09:09:34Z</time>
      </trkpt>
      <trkpt lat="51.680926010012627" lon="0.554764978587627">
        <ele>58</ele>
        <time>2018-02-18T09:09:36Z</time>
      </trkpt>
      <trkpt lat="51.680930033326149" lon="0.554806971922517">
        <ele>58</ele>
        <time>2018-02-18T09:09:38Z</time>
      </trkpt>
      <trkpt lat="51.680931961163878" lon="0.554839996621013">
        <ele>58</ele>
        <time>2018-02-18T09:09:40Z</time>
      </trkpt>
      <trkpt lat="51.680949982255697" lon="0.554887019097805">
        <ele>58</ele>
        <time>2018-02-18T09:09:42Z</time>
      </trkpt>
      <trkpt lat="51.6809550113976" lon="0.554919959977269">
        <ele>58</ele>
        <time>2018-02-18T09:09:43Z</time>
      </trkpt>
      <trkpt lat="51.680960040539503" lon="0.554951978847384">
        <ele>58</ele>
        <time>2018-02-18T09:09:44Z</time>
      </trkpt>
      <trkpt lat="51.680970015004277" lon="0.555024985224009">
        <ele>57</ele>
        <time>2018-02-18T09:09:46Z</time>
      </trkpt>
      <trkpt lat="51.680972026661038" lon="0.555061027407646">
        <ele>57</ele>
        <time>2018-02-18T09:09:47Z</time>
      </trkpt>
      <trkpt lat="51.68097797781229" lon="0.555094974115491">
        <ele>57</ele>
        <time>2018-02-18T09:09:48Z</time>
      </trkpt>
      <trkpt lat="51.680979989469051" lon="0.555124981328845">
        <ele>57</ele>
        <time>2018-02-18T09:09:49Z</time>
      </trkpt>
      <trkpt lat="51.680984012782574" lon="0.55515700019896">
        <ele>57.0208266666667</ele>
        <time>2018-02-18T09:09:50Z</time>
      </trkpt>
      <trkpt lat="51.680988036096096" lon="0.555190024897456">
        <ele>58</ele>
        <time>2018-02-18T09:09:51Z</time>
      </trkpt>
      <trkpt lat="51.680989963933825" lon="0.555223971605301">
        <ele>58</ele>
        <time>2018-02-18T09:09:52Z</time>
      </trkpt>
      <trkpt lat="51.680992981418967" lon="0.555259007960558">
        <ele>58</ele>
        <time>2018-02-18T09:09:53Z</time>
      </trkpt>
      <trkpt lat="51.680993987247348" lon="0.555293038487434">
        <ele>58</ele>
        <time>2018-02-18T09:09:54Z</time>
      </trkpt>
      <trkpt lat="51.68099801056087" lon="0.555325979366899">
        <ele>58</ele>
        <time>2018-02-18T09:09:55Z</time>
      </trkpt>
      <trkpt lat="51.68099801056087" lon="0.555357998237014">
        <ele>58</ele>
        <time>2018-02-18T09:09:56Z</time>
      </trkpt>
      <trkpt lat="51.68099801056087" lon="0.55539102293551">
        <ele>58</ele>
        <time>2018-02-18T09:09:57Z</time>
      </trkpt>
      <trkpt lat="51.681002033874393" lon="0.555424969643354">
        <ele>58</ele>
        <time>2018-02-18T09:09:58Z</time>
      </trkpt>
      <trkpt lat="51.681002033874393" lon="0.555459000170231">
        <ele>58</ele>
        <time>2018-02-18T09:09:59Z</time>
      </trkpt>
      <trkpt lat="51.681003961712122" lon="0.555488001555204">
        <ele>58</ele>
        <time>2018-02-18T09:10:00Z</time>
      </trkpt>
      <trkpt lat="51.681005973368883" lon="0.555534018203616">
        <ele>57</ele>
        <time>2018-02-18T09:10:02Z</time>
      </trkpt>
      <trkpt lat="51.681037992238998" lon="0.555539969354868">
        <ele>57</ele>
        <time>2018-02-18T09:10:04Z</time>
      </trkpt>
      <trkpt lat="51.681072022765875" lon="0.555546004325151">
        <ele>57</ele>
        <time>2018-02-18T09:10:06Z</time>
      </trkpt>
      <trkpt lat="51.681091971695423" lon="0.555550027638674">
        <ele>57</ele>
        <time>2018-02-18T09:10:07Z</time>
      </trkpt>
      <trkpt lat="51.681116027757525" lon="0.555575005710125">
        <ele>57</ele>
        <time>2018-02-18T09:10:09Z</time>
      </trkpt>
      <trkpt lat="51.681120973080397" lon="0.555614987388253">
        <ele>58</ele>
        <time>2018-02-18T09:10:11Z</time>
      </trkpt>
      <trkpt lat="51.681130025535822" lon="0.555643988773227">
        <ele>58</ele>
        <time>2018-02-18T09:10:13Z</time>
      </trkpt>
      <trkpt lat="51.681156009435654" lon="0.555681036785245">
        <ele>57.079208171748697</ele>
        <time>2018-02-18T09:10:15Z</time>
      </trkpt>
      <trkpt lat="51.681167995557189" lon="0.555722024291754">
        <ele>57</ele>
        <time>2018-02-18T09:10:17Z</time>
      </trkpt>
      <trkpt lat="51.681179981678724" lon="0.555755970999599">
        <ele>58</ele>
        <time>2018-02-18T09:10:19Z</time>
      </trkpt>
      <trkpt lat="51.68118903413415" lon="0.555784972384572">
        <ele>58</ele>
        <time>2018-02-18T09:10:21Z</time>
      </trkpt>
      <trkpt lat="51.681202026084065" lon="0.555812967941165">
        <ele>57</ele>
        <time>2018-02-18T09:10:23Z</time>
      </trkpt>
      <trkpt lat="51.68121200054884" lon="0.5558439809829">
        <ele>57</ele>
        <time>2018-02-18T09:10:25Z</time>
      </trkpt>
      <trkpt lat="51.681220969185233" lon="0.555879017338157">
        <ele>57</ele>
        <time>2018-02-18T09:10:27Z</time>
      </trkpt>
      <trkpt lat="51.681233961135149" lon="0.555912964046001">
        <ele>57</ele>
        <time>2018-02-18T09:10:29Z</time>
      </trkpt>
      <trkpt lat="51.681245025247335" lon="0.555948000401258">
        <ele>57</ele>
        <time>2018-02-18T09:10:31Z</time>
      </trkpt>
      <trkpt lat="51.681257011368871" lon="0.555984964594245">
        <ele>57</ele>
        <time>2018-02-18T09:10:33Z</time>
      </trkpt>
      <trkpt lat="51.681265980005264" lon="0.556027041748166">
        <ele>57</ele>
        <time>2018-02-18T09:10:35Z</time>
      </trkpt>
      <trkpt lat="51.681274026632309" lon="0.556081021204591">
        <ele>57</ele>
        <time>2018-02-18T09:10:37Z</time>
      </trkpt>
      <trkpt lat="51.681281989440322" lon="0.556111028417945">
        <ele>57</ele>
        <time>2018-02-18T09:10:38Z</time>
      </trkpt>
      <trkpt lat="51.681291963905096" lon="0.55614204145968">
        <ele>57</ele>
        <time>2018-02-18T09:10:39Z</time>
      </trkpt>
      <trkpt lat="51.681304033845663" lon="0.556170037016273">
        <ele>57</ele>
        <time>2018-02-18T09:10:40Z</time>
      </trkpt>
      <trkpt lat="51.681316019967198" lon="0.556195015087724">
        <ele>57</ele>
        <time>2018-02-18T09:10:41Z</time>
      </trkpt>
      <trkpt lat="51.68134200386703" lon="0.556246982887387">
        <ele>57</ele>
        <time>2018-02-18T09:10:43Z</time>
      </trkpt>
      <trkpt lat="51.681352984160185" lon="0.556276990100741">
        <ele>57</ele>
        <time>2018-02-18T09:10:44Z</time>
      </trkpt>
      <trkpt lat="51.681365976110101" lon="0.556309008970857">
        <ele>57</ele>
        <time>2018-02-18T09:10:45Z</time>
      </trkpt>
      <trkpt lat="51.681379973888397" lon="0.556339016184211">
        <ele>57</ele>
        <time>2018-02-18T09:10:46Z</time>
      </trkpt>
      <trkpt lat="51.681397994980216" lon="0.556363994255662">
        <ele>57</ele>
        <time>2018-02-18T09:10:47Z</time>
      </trkpt>
      <trkpt lat="51.681416016072035" lon="0.556386960670352">
        <ele>57</ele>
        <time>2018-02-18T09:10:48Z</time>
      </trkpt>
      <trkpt lat="51.681434037163854" lon="0.556410010904074">
        <ele>57</ele>
        <time>2018-02-18T09:10:49Z</time>
      </trkpt>
      <trkpt lat="51.68145096860826" lon="0.556434988975525">
        <ele>57</ele>
        <time>2018-02-18T09:10:50Z</time>
      </trkpt>
      <trkpt lat="51.68146999552846" lon="0.556462984532118">
        <ele>57</ele>
        <time>2018-02-18T09:10:51Z</time>
      </trkpt>
      <trkpt lat="51.68149002827704" lon="0.556491985917091">
        <ele>57</ele>
        <time>2018-02-18T09:10:52Z</time>
      </trkpt>
      <trkpt lat="51.681509977206588" lon="0.556520987302065">
        <ele>57</ele>
        <time>2018-02-18T09:10:53Z</time>
      </trkpt>
      <trkpt lat="51.681530009955168" lon="0.55655300617218">
        <ele>57</ele>
        <time>2018-02-18T09:10:54Z</time>
      </trkpt>
      <trkpt lat="51.681548031046987" lon="0.556582007557154">
        <ele>57</ele>
        <time>2018-02-18T09:10:55Z</time>
      </trkpt>
      <trkpt lat="51.681567979976535" lon="0.556613020598888">
        <ele>57</ele>
        <time>2018-02-18T09:10:56Z</time>
      </trkpt>
      <trkpt lat="51.681588012725115" lon="0.556645961478353">
        <ele>57</ele>
        <time>2018-02-18T09:10:57Z</time>
      </trkpt>
      <trkpt lat="51.681607961654663" lon="0.556678986176848">
        <ele>57</ele>
        <time>2018-02-18T09:10:58Z</time>
      </trkpt>
      <trkpt lat="51.681624976918101" lon="0.556709999218583">
        <ele>57</ele>
        <time>2018-02-18T09:10:59Z</time>
      </trkpt>
      <trkpt lat="51.681640986353159" lon="0.556741012260318">
        <ele>57</ele>
        <time>2018-02-18T09:11:00Z</time>
      </trkpt>
      <trkpt lat="51.681658001616597" lon="0.556775964796543">
        <ele>57</ele>
        <time>2018-02-18T09:11:01Z</time>
      </trkpt>
      <trkpt lat="51.681673005223274" lon="0.556813012808561">
        <ele>57.948456737176897</ele>
        <time>2018-02-18T09:11:02Z</time>
      </trkpt>
      <trkpt lat="51.681687003001571" lon="0.55685400031507">
        <ele>58</ele>
        <time>2018-02-18T09:11:03Z</time>
      </trkpt>
      <trkpt lat="51.681701000779867" lon="0.556893981993198">
        <ele>58</ele>
        <time>2018-02-18T09:11:04Z</time>
      </trkpt>
      <trkpt lat="51.681716004386544" lon="0.556934969499707">
        <ele>58</ele>
        <time>2018-02-18T09:11:05Z</time>
      </trkpt>
      <trkpt lat="51.681730002164841" lon="0.556979980319738">
        <ele>58</ele>
        <time>2018-02-18T09:11:06Z</time>
      </trkpt>
      <trkpt lat="51.681742994114757" lon="0.557022979483008">
        <ele>58</ele>
        <time>2018-02-18T09:11:07Z</time>
      </trkpt>
      <trkpt lat="51.681755986064672" lon="0.557064972817898">
        <ele>58</ele>
        <time>2018-02-18T09:11:08Z</time>
      </trkpt>
      <trkpt lat="51.681765038520098" lon="0.557104032486677">
        <ele>58</ele>
        <time>2018-02-18T09:11:09Z</time>
      </trkpt>
      <trkpt lat="51.68177199549973" lon="0.557139990851283">
        <ele>58</ele>
        <time>2018-02-18T09:11:10Z</time>
      </trkpt>
      <trkpt lat="51.681778030470014" lon="0.55717502720654">
        <ele>58</ele>
        <time>2018-02-18T09:11:11Z</time>
      </trkpt>
      <trkpt lat="51.681779036298394" lon="0.557209979742765">
        <ele>57.979598234110902</ele>
        <time>2018-02-18T09:11:12Z</time>
      </trkpt>
      <trkpt lat="51.681781969964504" lon="0.557247027754784">
        <ele>57</ele>
        <time>2018-02-18T09:11:13Z</time>
      </trkpt>
      <trkpt lat="51.681784987449646" lon="0.557286003604531">
        <ele>57</ele>
        <time>2018-02-18T09:11:14Z</time>
      </trkpt>
      <trkpt lat="51.681786999106407" lon="0.55732699111104">
        <ele>57</ele>
        <time>2018-02-18T09:11:15Z</time>
      </trkpt>
      <trkpt lat="51.681785993278027" lon="0.557367978617549">
        <ele>57</ele>
        <time>2018-02-18T09:11:16Z</time>
      </trkpt>
      <trkpt lat="51.681784987449646" lon="0.557409971952438">
        <ele>57</ele>
        <time>2018-02-18T09:11:17Z</time>
      </trkpt>
      <trkpt lat="51.681783981621265" lon="0.557447019964457">
        <ele>57</ele>
        <time>2018-02-18T09:11:18Z</time>
      </trkpt>
      <trkpt lat="51.681781969964504" lon="0.557483984157443">
        <ele>57</ele>
        <time>2018-02-18T09:11:19Z</time>
      </trkpt>
      <trkpt lat="51.681781969964504" lon="0.557523965835571">
        <ele>57</ele>
        <time>2018-02-18T09:11:20Z</time>
      </trkpt>
      <trkpt lat="51.681785993278027" lon="0.557566964998841">
        <ele>57</ele>
        <time>2018-02-18T09:11:21Z</time>
      </trkpt>
      <trkpt lat="51.681786999106407" lon="0.557610969990492">
        <ele>57</ele>
        <time>2018-02-18T09:11:22Z</time>
      </trkpt>
      <trkpt lat="51.681790016591549" lon="0.557654974982142">
        <ele>57</ele>
        <time>2018-02-18T09:11:23Z</time>
      </trkpt>
      <trkpt lat="51.681790016591549" lon="0.557698979973793">
        <ele>57</ele>
        <time>2018-02-18T09:11:24Z</time>
      </trkpt>
      <trkpt lat="51.681789010763168" lon="0.557740973308682">
        <ele>57</ele>
        <time>2018-02-18T09:11:25Z</time>
      </trkpt>
      <trkpt lat="51.681785993278027" lon="0.557783972471952">
        <ele>57</ele>
        <time>2018-02-18T09:11:26Z</time>
      </trkpt>
      <trkpt lat="51.681783981621265" lon="0.557821020483971">
        <ele>57</ele>
        <time>2018-02-18T09:11:27Z</time>
      </trkpt>
      <trkpt lat="51.681783981621265" lon="0.557861002162099">
        <ele>57</ele>
        <time>2018-02-18T09:11:28Z</time>
      </trkpt>
      <trkpt lat="51.681781969964504" lon="0.557898972183466">
        <ele>57</ele>
        <time>2018-02-18T09:11:29Z</time>
      </trkpt>
      <trkpt lat="51.681779958307743" lon="0.557942977175117">
        <ele>57</ele>
        <time>2018-02-18T09:11:30Z</time>
      </trkpt>
      <trkpt lat="51.681779958307743" lon="0.557985976338387">
        <ele>57</ele>
        <time>2018-02-18T09:11:31Z</time>
      </trkpt>
      <trkpt lat="51.681775012984872" lon="0.558025036007166">
        <ele>57</ele>
        <time>2018-02-18T09:11:32Z</time>
      </trkpt>
      <trkpt lat="51.68177098967135" lon="0.558064011856914">
        <ele>57</ele>
        <time>2018-02-18T09:11:33Z</time>
      </trkpt>
      <trkpt lat="51.681765038520098" lon="0.558102987706661">
        <ele>57</ele>
        <time>2018-02-18T09:11:34Z</time>
      </trkpt>
      <trkpt lat="51.681763026863337" lon="0.55814104154706">
        <ele>57</ele>
        <time>2018-02-18T09:11:35Z</time>
      </trkpt>
      <trkpt lat="51.681761015206575" lon="0.558179011568427">
        <ele>57</ele>
        <time>2018-02-18T09:11:36Z</time>
      </trkpt>
      <trkpt lat="51.681760009378195" lon="0.558218993246555">
        <ele>57</ele>
        <time>2018-02-18T09:11:37Z</time>
      </trkpt>
      <trkpt lat="51.681764032691717" lon="0.558256963267922">
        <ele>57</ele>
        <time>2018-02-18T09:11:38Z</time>
      </trkpt>
      <trkpt lat="51.681764032691717" lon="0.558295017108321">
        <ele>57</ele>
        <time>2018-02-18T09:11:39Z</time>
      </trkpt>
      <trkpt lat="51.681765960529447" lon="0.558331981301308">
        <ele>57</ele>
        <time>2018-02-18T09:11:40Z</time>
      </trkpt>
      <trkpt lat="51.681764032691717" lon="0.558375986292958">
        <ele>57</ele>
        <time>2018-02-18T09:11:41Z</time>
      </trkpt>
      <trkpt lat="51.681763026863337" lon="0.558417979627848">
        <ele>57</ele>
        <time>2018-02-18T09:11:42Z</time>
      </trkpt>
      <trkpt lat="51.681765038520098" lon="0.558461984619498">
        <ele>57</ele>
        <time>2018-02-18T09:11:43Z</time>
      </trkpt>
      <trkpt lat="51.681765038520098" lon="0.558502972126007">
        <ele>57</ele>
        <time>2018-02-18T09:11:44Z</time>
      </trkpt>
      <trkpt lat="51.681761015206575" lon="0.558543959632516">
        <ele>57</ele>
        <time>2018-02-18T09:11:45Z</time>
      </trkpt>
      <trkpt lat="51.681751040741801" lon="0.558583019301295">
        <ele>57</ele>
        <time>2018-02-18T09:11:46Z</time>
      </trkpt>
      <trkpt lat="51.681741988286376" lon="0.558624006807804">
        <ele>57</ele>
        <time>2018-02-18T09:11:47Z</time>
      </trkpt>
      <trkpt lat="51.681734025478363" lon="0.558666000142694">
        <ele>57</ele>
        <time>2018-02-18T09:11:48Z</time>
      </trkpt>
      <trkpt lat="51.681733019649982" lon="0.558708999305964">
        <ele>57</ele>
        <time>2018-02-18T09:11:49Z</time>
      </trkpt>
      <trkpt lat="51.681731007993221" lon="0.558753004297614">
        <ele>57</ele>
        <time>2018-02-18T09:11:50Z</time>
      </trkpt>
      <trkpt lat="51.681732013821602" lon="0.558794997632504">
        <ele>56.089996800000002</ele>
        <time>2018-02-18T09:11:51Z</time>
      </trkpt>
      <trkpt lat="51.681731007993221" lon="0.558834979310632">
        <ele>56</ele>
        <time>2018-02-18T09:11:52Z</time>
      </trkpt>
      <trkpt lat="51.681736959144473" lon="0.558870015665889">
        <ele>56</ele>
        <time>2018-02-18T09:11:53Z</time>
      </trkpt>
      <trkpt lat="51.681745005771518" lon="0.558907985687256">
        <ele>56</ele>
        <time>2018-02-18T09:11:54Z</time>
      </trkpt>
      <trkpt lat="51.68174902908504" lon="0.558945033699274">
        <ele>56</ele>
        <time>2018-02-18T09:11:55Z</time>
      </trkpt>
      <trkpt lat="51.681751040741801" lon="0.558987027034163">
        <ele>56</ele>
        <time>2018-02-18T09:11:56Z</time>
      </trkpt>
      <trkpt lat="51.68175196275115" lon="0.559027008712292">
        <ele>56</ele>
        <time>2018-02-18T09:11:57Z</time>
      </trkpt>
      <trkpt lat="51.68175196275115" lon="0.559105966240168">
        <ele>56</ele>
        <time>2018-02-18T09:11:59Z</time>
      </trkpt>
      <trkpt lat="51.681753974407911" lon="0.559144020080566">
        <ele>56</ele>
        <time>2018-02-18T09:12:00Z</time>
      </trkpt>
      <trkpt lat="51.681756991893053" lon="0.559180984273553">
        <ele>56</ele>
        <time>2018-02-18T09:12:01Z</time>
      </trkpt>
      <trkpt lat="51.681756991893053" lon="0.559217026457191">
        <ele>56</ele>
        <time>2018-02-18T09:12:02Z</time>
      </trkpt>
      <trkpt lat="51.681755986064672" lon="0.559253990650177">
        <ele>56</ele>
        <time>2018-02-18T09:12:03Z</time>
      </trkpt>
      <trkpt lat="51.681759003549814" lon="0.559290032833815">
        <ele>55.079999999999998</ele>
        <time>2018-02-18T09:12:04Z</time>
      </trkpt>
      <trkpt lat="51.681756991893053" lon="0.559328002855182">
        <ele>55</ele>
        <time>2018-02-18T09:12:05Z</time>
      </trkpt>
      <trkpt lat="51.681759003549814" lon="0.559362033382058">
        <ele>55</ele>
        <time>2018-02-18T09:12:06Z</time>
      </trkpt>
      <trkpt lat="51.681755986064672" lon="0.559402015060186">
        <ele>55</ele>
        <time>2018-02-18T09:12:07Z</time>
      </trkpt>
      <trkpt lat="51.681757997721434" lon="0.559436967596412">
        <ele>55</ele>
        <time>2018-02-18T09:12:08Z</time>
      </trkpt>
      <trkpt lat="51.681757997721434" lon="0.55947401560843">
        <ele>55</ele>
        <time>2018-02-18T09:12:09Z</time>
      </trkpt>
      <trkpt lat="51.681754980236292" lon="0.559513997286558">
        <ele>55</ele>
        <time>2018-02-18T09:12:10Z</time>
      </trkpt>
      <trkpt lat="51.68174902908504" lon="0.559551967307925">
        <ele>54.989902254861398</ele>
        <time>2018-02-18T09:12:11Z</time>
      </trkpt>
      <trkpt lat="51.681746011599898" lon="0.559592032805085">
        <ele>54</ele>
        <time>2018-02-18T09:12:12Z</time>
      </trkpt>
      <trkpt lat="51.681747017428279" lon="0.559627991169691">
        <ele>54</ele>
        <time>2018-02-18T09:12:13Z</time>
      </trkpt>
      <trkpt lat="51.681745005771518" lon="0.559665961191058">
        <ele>54.049689539755597</ele>
        <time>2018-02-18T09:12:14Z</time>
      </trkpt>
      <trkpt lat="51.681737964972854" lon="0.559702003374696">
        <ele>55.291928033645803</ele>
        <time>2018-02-18T09:12:15Z</time>
      </trkpt>
      <trkpt lat="51.68172799050808" lon="0.559734022244811">
        <ele>56</ele>
        <time>2018-02-18T09:12:16Z</time>
      </trkpt>
      <trkpt lat="51.681707035750151" lon="0.559799987822771">
        <ele>56</ele>
        <time>2018-02-18T09:12:18Z</time>
      </trkpt>
      <trkpt lat="51.681704018265009" lon="0.559835024178028">
        <ele>56</ele>
        <time>2018-02-18T09:12:19Z</time>
      </trkpt>
      <trkpt lat="51.681697983294725" lon="0.559869976714253">
        <ele>56</ele>
        <time>2018-02-18T09:12:20Z</time>
      </trkpt>
      <trkpt lat="51.68168599717319" lon="0.559895960614085">
        <ele>55.969996799999997</ele>
        <time>2018-02-18T09:12:21Z</time>
      </trkpt>
      <trkpt lat="51.681667976081371" lon="0.559915993362665">
        <ele>55</ele>
        <time>2018-02-18T09:12:22Z</time>
      </trkpt>
      <trkpt lat="51.681644003838301" lon="0.55992697365582">
        <ele>55.019808128556399</ele>
        <time>2018-02-18T09:12:23Z</time>
      </trkpt>
      <trkpt lat="51.681617014110088" lon="0.559932002797723">
        <ele>56</ele>
        <time>2018-02-18T09:12:24Z</time>
      </trkpt>
      <trkpt lat="51.681591030210257" lon="0.559934014454484">
        <ele>56</ele>
        <time>2018-02-18T09:12:25Z</time>
      </trkpt>
      <trkpt lat="51.681565968319774" lon="0.559938037768006">
        <ele>56</ele>
        <time>2018-02-18T09:12:26Z</time>
      </trkpt>
      <trkpt lat="51.68153596110642" lon="0.559946000576019">
        <ele>56</ele>
        <time>2018-02-18T09:12:27Z</time>
      </trkpt>
      <trkpt lat="51.681501008570194" lon="0.559955975040793">
        <ele>56</ele>
        <time>2018-02-18T09:12:28Z</time>
      </trkpt>
      <trkpt lat="51.68146999552846" lon="0.559964021667838">
        <ele>56</ele>
        <time>2018-02-18T09:12:29Z</time>
      </trkpt>
      <trkpt lat="51.681445017457008" lon="0.559971984475851">
        <ele>56</ele>
        <time>2018-02-18T09:12:30Z</time>
      </trkpt>
      <trkpt lat="51.681419033557177" lon="0.559981036931276">
        <ele>56</ele>
        <time>2018-02-18T09:12:31Z</time>
      </trkpt>
      <trkpt lat="51.681393971666694" lon="0.559988999739289">
        <ele>55.9693846897326</ele>
        <time>2018-02-18T09:12:32Z</time>
      </trkpt>
      <trkpt lat="51.681371005252004" lon="0.559997968375683">
        <ele>55</ele>
        <time>2018-02-18T09:12:33Z</time>
      </trkpt>
      <trkpt lat="51.681348960846663" lon="0.560004003345966">
        <ele>55</ele>
        <time>2018-02-18T09:12:34Z</time>
      </trkpt>
      <trkpt lat="51.681328006088734" lon="0.560005009174347">
        <ele>55</ele>
        <time>2018-02-18T09:12:35Z</time>
      </trkpt>
      <trkpt lat="51.681284001097083" lon="0.560015989467502">
        <ele>55</ele>
        <time>2018-02-18T09:12:37Z</time>
      </trkpt>
      <trkpt lat="51.681261034682393" lon="0.560024036094546">
        <ele>55.019795706283404</ele>
        <time>2018-02-18T09:12:38Z</time>
      </trkpt>
      <trkpt lat="51.681237984448671" lon="0.560029987245798">
        <ele>56</ele>
        <time>2018-02-18T09:12:39Z</time>
      </trkpt>
      <trkpt lat="51.681199008598924" lon="0.56003401055932">
        <ele>56</ele>
        <time>2018-02-18T09:12:41Z</time>
      </trkpt>
      <trkpt lat="51.681175036355853" lon="0.560037028044462">
        <ele>56</ele>
        <time>2018-02-18T09:12:42Z</time>
      </trkpt>
      <trkpt lat="51.68114997446537" lon="0.560043985024095">
        <ele>56</ele>
        <time>2018-02-18T09:12:43Z</time>
      </trkpt>
      <trkpt lat="51.681123990565538" lon="0.560051025822759">
        <ele>56</ele>
        <time>2018-02-18T09:12:44Z</time>
      </trkpt>
      <trkpt lat="51.681099012494087" lon="0.560062006115913">
        <ele>56</ele>
        <time>2018-02-18T09:12:45Z</time>
      </trkpt>
      <trkpt lat="51.681074034422636" lon="0.560071980580688">
        <ele>55.976741878510097</ele>
        <time>2018-02-18T09:12:46Z</time>
      </trkpt>
      <trkpt lat="51.681047966703773" lon="0.560082038864493">
        <ele>55.201553848901597</ele>
        <time>2018-02-18T09:12:47Z</time>
      </trkpt>
      <trkpt lat="51.68101997114718" lon="0.560090001672506">
        <ele>55</ele>
        <time>2018-02-18T09:12:48Z</time>
      </trkpt>
      <trkpt lat="51.68099700473249" lon="0.56009997613728">
        <ele>55</ele>
        <time>2018-02-18T09:12:49Z</time>
      </trkpt>
      <trkpt lat="51.68097797781229" lon="0.560105005279183">
        <ele>55.929289925527499</ele>
        <time>2018-02-18T09:12:50Z</time>
      </trkpt>
      <trkpt lat="51.680959034711123" lon="0.560114979743958">
        <ele>56</ele>
        <time>2018-02-18T09:12:51Z</time>
      </trkpt>
      <trkpt lat="51.680942019447684" lon="0.56012000888586">
        <ele>56</ele>
        <time>2018-02-18T09:12:52Z</time>
      </trkpt>
      <trkpt lat="51.680898014456034" lon="0.560138029977679">
        <ele>56</ele>
        <time>2018-02-18T09:12:54Z</time>
      </trkpt>
      <trkpt lat="51.680845962837338" lon="0.56016200222075">
        <ele>56</ele>
        <time>2018-02-18T09:12:56Z</time>
      </trkpt>
      <trkpt lat="51.680821990594268" lon="0.560169965028763">
        <ele>56</ele>
        <time>2018-02-18T09:12:57Z</time>
      </trkpt>
      <trkpt lat="51.680798018351197" lon="0.560178011655808">
        <ele>56</ele>
        <time>2018-02-18T09:12:58Z</time>
      </trkpt>
      <trkpt lat="51.680773040279746" lon="0.560187986120582">
        <ele>56</ele>
        <time>2018-02-18T09:12:59Z</time>
      </trkpt>
      <trkpt lat="51.680748984217644" lon="0.560197960585356">
        <ele>56</ele>
        <time>2018-02-18T09:13:00Z</time>
      </trkpt>
      <trkpt lat="51.680726017802954" lon="0.560211958363652">
        <ele>56</ele>
        <time>2018-02-18T09:13:01Z</time>
      </trkpt>
      <trkpt lat="51.680710008367896" lon="0.560255041345954">
        <ele>56</ele>
        <time>2018-02-18T09:13:03Z</time>
      </trkpt>
      <trkpt lat="51.680709002539515" lon="0.560288988053799">
        <ele>56</ele>
        <time>2018-02-18T09:13:04Z</time>
      </trkpt>
      <trkpt lat="51.680710008367896" lon="0.560326036065817">
        <ele>56</ele>
        <time>2018-02-18T09:13:05Z</time>
      </trkpt>
      <trkpt lat="51.680715959519148" lon="0.560363000258803">
        <ele>56</ele>
        <time>2018-02-18T09:13:06Z</time>
      </trkpt>
      <trkpt lat="51.68071897700429" lon="0.560398958623409">
        <ele>56</ele>
        <time>2018-02-18T09:13:07Z</time>
      </trkpt>
      <trkpt lat="51.680720988661051" lon="0.560437012463808">
        <ele>56</ele>
        <time>2018-02-18T09:13:08Z</time>
      </trkpt>
      <trkpt lat="51.680725011974573" lon="0.560475988313556">
        <ele>55.070003200000002</ele>
        <time>2018-02-18T09:13:09Z</time>
      </trkpt>
      <trkpt lat="51.680728029459715" lon="0.560516975820065">
        <ele>55</ele>
        <time>2018-02-18T09:13:10Z</time>
      </trkpt>
      <trkpt lat="51.680727023631334" lon="0.560557041317225">
        <ele>55</ele>
        <time>2018-02-18T09:13:11Z</time>
      </trkpt>
      <trkpt lat="51.680728029459715" lon="0.560598028823733">
        <ele>55</ele>
        <time>2018-02-18T09:13:12Z</time>
      </trkpt>
      <trkpt lat="51.680727023631334" lon="0.560641027987003">
        <ele>55</ele>
        <time>2018-02-18T09:13:13Z</time>
      </trkpt>
      <trkpt lat="51.680727023631334" lon="0.56067799217999">
        <ele>55</ele>
        <time>2018-02-18T09:13:14Z</time>
      </trkpt>
      <trkpt lat="51.680725011974573" lon="0.560715040192008">
        <ele>55</ele>
        <time>2018-02-18T09:13:15Z</time>
      </trkpt>
      <trkpt lat="51.68071998283267" lon="0.560752004384995">
        <ele>55</ele>
        <time>2018-02-18T09:13:16Z</time>
      </trkpt>
      <trkpt lat="51.680714031681418" lon="0.560790980234742">
        <ele>55</ele>
        <time>2018-02-18T09:13:17Z</time>
      </trkpt>
      <trkpt lat="51.680712020024657" lon="0.560830039903522">
        <ele>55</ele>
        <time>2018-02-18T09:13:18Z</time>
      </trkpt>
      <trkpt lat="51.680709002539515" lon="0.56087102741003">
        <ele>55</ele>
        <time>2018-02-18T09:13:19Z</time>
      </trkpt>
      <trkpt lat="51.680709002539515" lon="0.560907991603017">
        <ele>55</ele>
        <time>2018-02-18T09:13:20Z</time>
      </trkpt>
      <trkpt lat="51.680710008367896" lon="0.560945961624384">
        <ele>55.753847365674503</ele>
        <time>2018-02-18T09:13:21Z</time>
      </trkpt>
      <trkpt lat="51.680713025853038" lon="0.560984015464783">
        <ele>56</ele>
        <time>2018-02-18T09:13:22Z</time>
      </trkpt>
      <trkpt lat="51.680715037509799" lon="0.56102299131453">
        <ele>56</ele>
        <time>2018-02-18T09:13:23Z</time>
      </trkpt>
      <trkpt lat="51.680716965347528" lon="0.5610659904778">
        <ele>56</ele>
        <time>2018-02-18T09:13:24Z</time>
      </trkpt>
      <trkpt lat="51.680723000317812" lon="0.561105972155929">
        <ele>56</ele>
        <time>2018-02-18T09:13:25Z</time>
      </trkpt>
      <trkpt lat="51.680724006146193" lon="0.561146037653089">
        <ele>56</ele>
        <time>2018-02-18T09:13:26Z</time>
      </trkpt>
      <trkpt lat="51.680723000317812" lon="0.561184007674456">
        <ele>55.960000000000001</ele>
        <time>2018-02-18T09:13:27Z</time>
      </trkpt>
      <trkpt lat="51.680724006146193" lon="0.561222983524203">
        <ele>55</ele>
        <time>2018-02-18T09:13:28Z</time>
      </trkpt>
      <trkpt lat="51.680725011974573" lon="0.561261037364602">
        <ele>55</ele>
        <time>2018-02-18T09:13:29Z</time>
      </trkpt>
      <trkpt lat="51.680728029459715" lon="0.56130001321435">
        <ele>55</ele>
        <time>2018-02-18T09:13:30Z</time>
      </trkpt>
      <trkpt lat="51.680729035288095" lon="0.561338989064097">
        <ele>55</ele>
        <time>2018-02-18T09:13:31Z</time>
      </trkpt>
      <trkpt lat="51.680728029459715" lon="0.561376959085464">
        <ele>55</ele>
        <time>2018-02-18T09:13:32Z</time>
      </trkpt>
      <trkpt lat="51.680725011974573" lon="0.561417024582624">
        <ele>55</ele>
        <time>2018-02-18T09:13:33Z</time>
      </trkpt>
      <trkpt lat="51.680724006146193" lon="0.56145298294723">
        <ele>55</ele>
        <time>2018-02-18T09:13:34Z</time>
      </trkpt>
      <trkpt lat="51.680716965347528" lon="0.561488019302487">
        <ele>55</ele>
        <time>2018-02-18T09:13:35Z</time>
      </trkpt>
      <trkpt lat="51.680709002539515" lon="0.561522971838713">
        <ele>55</ele>
        <time>2018-02-18T09:13:36Z</time>
      </trkpt>
      <trkpt lat="51.680701039731503" lon="0.561557002365589">
        <ele>55</ele>
        <time>2018-02-18T09:13:37Z</time>
      </trkpt>
      <trkpt lat="51.680693998932838" lon="0.561591032892466">
        <ele>55</ele>
        <time>2018-02-18T09:13:38Z</time>
      </trkpt>
      <trkpt lat="51.680691987276077" lon="0.561626991257072">
        <ele>55</ele>
        <time>2018-02-18T09:13:39Z</time>
      </trkpt>
      <trkpt lat="51.680690981447697" lon="0.561663033440709">
        <ele>55</ele>
        <time>2018-02-18T09:13:40Z</time>
      </trkpt>
      <trkpt lat="51.680692993104458" lon="0.561696980148554">
        <ele>55</ele>
        <time>2018-02-18T09:13:41Z</time>
      </trkpt>
      <trkpt lat="51.680698022246361" lon="0.561736961826682">
        <ele>55</ele>
        <time>2018-02-18T09:13:42Z</time>
      </trkpt>
      <trkpt lat="51.680701039731503" lon="0.561777027323842">
        <ele>55</ele>
        <time>2018-02-18T09:13:43Z</time>
      </trkpt>
      <trkpt lat="51.680701961740851" lon="0.56181600317359">
        <ele>55</ele>
        <time>2018-02-18T09:13:44Z</time>
      </trkpt>
      <trkpt lat="51.680701961740851" lon="0.561854979023337">
        <ele>55</ele>
        <time>2018-02-18T09:13:45Z</time>
      </trkpt>
      <trkpt lat="51.680701961740851" lon="0.561893032863736">
        <ele>55</ele>
        <time>2018-02-18T09:13:46Z</time>
      </trkpt>
      <trkpt lat="51.680705985054374" lon="0.561932008713484">
        <ele>55</ele>
        <time>2018-02-18T09:13:47Z</time>
      </trkpt>
      <trkpt lat="51.680710008367896" lon="0.561970984563231">
        <ele>55.9215691195663</ele>
        <time>2018-02-18T09:13:48Z</time>
      </trkpt>
      <trkpt lat="51.680713025853038" lon="0.562009960412979">
        <ele>56</ele>
        <time>2018-02-18T09:13:49Z</time>
      </trkpt>
      <trkpt lat="51.680713025853038" lon="0.562049020081759">
        <ele>56</ele>
        <time>2018-02-18T09:13:50Z</time>
      </trkpt>
      <trkpt lat="51.680715037509799" lon="0.562085984274745">
        <ele>56</ele>
        <time>2018-02-18T09:13:51Z</time>
      </trkpt>
      <trkpt lat="51.680713025853038" lon="0.562124038115144">
        <ele>56</ele>
        <time>2018-02-18T09:13:52Z</time>
      </trkpt>
      <trkpt lat="51.680713025853038" lon="0.56215999647975">
        <ele>56</ele>
        <time>2018-02-18T09:13:53Z</time>
      </trkpt>
      <trkpt lat="51.680709002539515" lon="0.562199978157878">
        <ele>56</ele>
        <time>2018-02-18T09:13:54Z</time>
      </trkpt>
      <trkpt lat="51.680709002539515" lon="0.562238031998277">
        <ele>56</ele>
        <time>2018-02-18T09:13:55Z</time>
      </trkpt>
      <trkpt lat="51.680711014196277" lon="0.562271978706121">
        <ele>56</ele>
        <time>2018-02-18T09:13:56Z</time>
      </trkpt>
      <trkpt lat="51.680710008367896" lon="0.562319001182914">
        <ele>56</ele>
        <time>2018-02-18T09:13:58Z</time>
      </trkpt>
      <trkpt lat="51.680702967569232" lon="0.56235303170979">
        <ele>56</ele>
        <time>2018-02-18T09:14:00Z</time>
      </trkpt>
      <trkpt lat="51.680695004761219" lon="0.562388990074396">
        <ele>56</ele>
        <time>2018-02-18T09:14:02Z</time>
      </trkpt>
      <trkpt lat="51.680689975619316" lon="0.562426038086414">
        <ele>55.009996800000003</ele>
        <time>2018-02-18T09:14:04Z</time>
      </trkpt>
      <trkpt lat="51.680691987276077" lon="0.562464008107781">
        <ele>55.978953892586702</ele>
        <time>2018-02-18T09:14:06Z</time>
      </trkpt>
      <trkpt lat="51.680692993104458" lon="0.562502983957529">
        <ele>56</ele>
        <time>2018-02-18T09:14:08Z</time>
      </trkpt>
      <trkpt lat="51.68069701641798" lon="0.562540031969547">
        <ele>56</ele>
        <time>2018-02-18T09:14:10Z</time>
      </trkpt>
      <trkpt lat="51.680702967569232" lon="0.562575990334153">
        <ele>56</ele>
        <time>2018-02-18T09:14:12Z</time>
      </trkpt>
      <trkpt lat="51.680710008367896" lon="0.562616977840662">
        <ele>56</ele>
        <time>2018-02-18T09:14:14Z</time>
      </trkpt>
      <trkpt lat="51.680716965347528" lon="0.562661988660693">
        <ele>56</ele>
        <time>2018-02-18T09:14:16Z</time>
      </trkpt>
      <trkpt lat="51.680732974782586" lon="0.56271999143064">
        <ele>56</ele>
        <time>2018-02-18T09:14:18Z</time>
      </trkpt>
      <trkpt lat="51.680746972560883" lon="0.562752010300756">
        <ele>56</ele>
        <time>2018-02-18T09:14:19Z</time>
      </trkpt>
      <trkpt lat="51.68076197616756" lon="0.562784029170871">
        <ele>56</ele>
        <time>2018-02-18T09:14:20Z</time>
      </trkpt>
      <trkpt lat="51.680773040279746" lon="0.562813030555844">
        <ele>56</ele>
        <time>2018-02-18T09:14:21Z</time>
      </trkpt>
      <trkpt lat="51.680785026401281" lon="0.562840020284057">
        <ele>56</ele>
        <time>2018-02-18T09:14:22Z</time>
      </trkpt>
      <trkpt lat="51.680801035836339" lon="0.562864998355508">
        <ele>56</ele>
        <time>2018-02-18T09:14:23Z</time>
      </trkpt>
      <trkpt lat="51.680817967280746" lon="0.56289098225534">
        <ele>56</ele>
        <time>2018-02-18T09:14:24Z</time>
      </trkpt>
      <trkpt lat="51.680835988372564" lon="0.562919983640313">
        <ele>56</ele>
        <time>2018-02-18T09:14:25Z</time>
      </trkpt>
      <trkpt lat="51.680849986150861" lon="0.562949990853667">
        <ele>56</ele>
        <time>2018-02-18T09:14:26Z</time>
      </trkpt>
      <trkpt lat="51.680867001414299" lon="0.562979998067021">
        <ele>56</ele>
        <time>2018-02-18T09:14:27Z</time>
      </trkpt>
      <trkpt lat="51.680884016677737" lon="0.563008999451995">
        <ele>55.250002580645202</ele>
        <time>2018-02-18T09:14:28Z</time>
      </trkpt>
      <trkpt lat="51.680902037769556" lon="0.563038000836968">
        <ele>55</ele>
        <time>2018-02-18T09:14:29Z</time>
      </trkpt>
      <trkpt lat="51.680936990305781" lon="0.563094997778535">
        <ele>55</ele>
        <time>2018-02-18T09:14:31Z</time>
      </trkpt>
      <trkpt lat="51.680958028882742" lon="0.563125004991889">
        <ele>55</ele>
        <time>2018-02-18T09:14:32Z</time>
      </trkpt>
      <trkpt lat="51.68097697198391" lon="0.563153000548482">
        <ele>55</ele>
        <time>2018-02-18T09:14:33Z</time>
      </trkpt>
      <trkpt lat="51.680994993075728" lon="0.563182001933455">
        <ele>55</ele>
        <time>2018-02-18T09:14:34Z</time>
      </trkpt>
      <trkpt lat="51.681013014167547" lon="0.563209997490048">
        <ele>55</ele>
        <time>2018-02-18T09:14:35Z</time>
      </trkpt>
      <trkpt lat="51.681032963097095" lon="0.563236987218261">
        <ele>54.979387973238701</ele>
        <time>2018-02-18T09:14:36Z</time>
      </trkpt>
      <trkpt lat="51.681051990017295" lon="0.563263976946473">
        <ele>54</ele>
        <time>2018-02-18T09:14:37Z</time>
      </trkpt>
      <trkpt lat="51.681072022765875" lon="0.563291972503066">
        <ele>54</ele>
        <time>2018-02-18T09:14:38Z</time>
      </trkpt>
      <trkpt lat="51.681091971695423" lon="0.563317034393549">
        <ele>54.885050537745201</ele>
        <time>2018-02-18T09:14:39Z</time>
      </trkpt>
      <trkpt lat="51.681112004444003" lon="0.563345029950142">
        <ele>55</ele>
        <time>2018-02-18T09:14:40Z</time>
      </trkpt>
      <trkpt lat="51.681132037192583" lon="0.563371013849974">
        <ele>55</ele>
        <time>2018-02-18T09:14:41Z</time>
      </trkpt>
      <trkpt lat="51.681152991950512" lon="0.563396997749805">
        <ele>55</ele>
        <time>2018-02-18T09:14:42Z</time>
      </trkpt>
      <trkpt lat="51.681174030527472" lon="0.563421975821257">
        <ele>55</ele>
        <time>2018-02-18T09:14:43Z</time>
      </trkpt>
      <trkpt lat="51.681194985285401" lon="0.563447959721088">
        <ele>55</ele>
        <time>2018-02-18T09:14:44Z</time>
      </trkpt>
      <trkpt lat="51.681216023862362" lon="0.56347100995481">
        <ele>55</ele>
        <time>2018-02-18T09:14:45Z</time>
      </trkpt>
      <trkpt lat="51.681236978620291" lon="0.56349297054112">
        <ele>55</ele>
        <time>2018-02-18T09:14:46Z</time>
      </trkpt>
      <trkpt lat="51.681257011368871" lon="0.563515014946461">
        <ele>55</ele>
        <time>2018-02-18T09:14:47Z</time>
      </trkpt>
      <trkpt lat="51.68127897195518" lon="0.563542004674673">
        <ele>55</ele>
        <time>2018-02-18T09:14:48Z</time>
      </trkpt>
      <trkpt lat="51.68132197111845" lon="0.563590032979846">
        <ele>55</ele>
        <time>2018-02-18T09:14:50Z</time>
      </trkpt>
      <trkpt lat="51.681344015523791" lon="0.563614005222917">
        <ele>55</ele>
        <time>2018-02-18T09:14:51Z</time>
      </trkpt>
      <trkpt lat="51.68136396445334" lon="0.563638983294368">
        <ele>55</ele>
        <time>2018-02-18T09:14:52Z</time>
      </trkpt>
      <trkpt lat="51.6813850030303" lon="0.5636649671942">
        <ele>55</ele>
        <time>2018-02-18T09:14:53Z</time>
      </trkpt>
      <trkpt lat="51.68140696361661" lon="0.563688017427921">
        <ele>55</ele>
        <time>2018-02-18T09:14:54Z</time>
      </trkpt>
      <trkpt lat="51.68142699636519" lon="0.563711989670992">
        <ele>55</ele>
        <time>2018-02-18T09:14:55Z</time>
      </trkpt>
      <trkpt lat="51.68144803494215" lon="0.563734034076333">
        <ele>55</ele>
        <time>2018-02-18T09:14:56Z</time>
      </trkpt>
      <trkpt lat="51.681468989700079" lon="0.563757000491023">
        <ele>55</ele>
        <time>2018-02-18T09:14:57Z</time>
      </trkpt>
      <trkpt lat="51.68149002827704" lon="0.563779966905713">
        <ele>55</ele>
        <time>2018-02-18T09:14:58Z</time>
      </trkpt>
      <trkpt lat="51.681510983034968" lon="0.563804022967815">
        <ele>55</ele>
        <time>2018-02-18T09:14:59Z</time>
      </trkpt>
      <trkpt lat="51.681530009955168" lon="0.563830006867647">
        <ele>55</ele>
        <time>2018-02-18T09:15:00Z</time>
      </trkpt>
      <trkpt lat="51.681549036875367" lon="0.563855990767479">
        <ele>55</ele>
        <time>2018-02-18T09:15:01Z</time>
      </trkpt>
      <trkpt lat="51.681566974148154" lon="0.563882980495691">
        <ele>55</ele>
        <time>2018-02-18T09:15:02Z</time>
      </trkpt>
      <trkpt lat="51.681582983583212" lon="0.563912987709045">
        <ele>55</ele>
        <time>2018-02-18T09:15:03Z</time>
      </trkpt>
      <trkpt lat="51.681597987189889" lon="0.563945006579161">
        <ele>55</ele>
        <time>2018-02-18T09:15:04Z</time>
      </trkpt>
      <trkpt lat="51.681611984968185" lon="0.563980964943767">
        <ele>55</ele>
        <time>2018-02-18T09:15:05Z</time>
      </trkpt>
      <trkpt lat="51.68162195943296" lon="0.564019018784165">
        <ele>55</ele>
        <time>2018-02-18T09:15:06Z</time>
      </trkpt>
      <trkpt lat="51.681631011888385" lon="0.564056988805532">
        <ele>55</ele>
        <time>2018-02-18T09:15:07Z</time>
      </trkpt>
      <trkpt lat="51.681636963039637" lon="0.5640949588269">
        <ele>55</ele>
        <time>2018-02-18T09:15:08Z</time>
      </trkpt>
      <trkpt lat="51.68164199218154" lon="0.564133012667298">
        <ele>55</ele>
        <time>2018-02-18T09:15:09Z</time>
      </trkpt>
      <trkpt lat="51.681649032980204" lon="0.564172994345427">
        <ele>55</ele>
        <time>2018-02-18T09:15:10Z</time>
      </trkpt>
      <trkpt lat="51.681655989959836" lon="0.564212976023555">
        <ele>55</ele>
        <time>2018-02-18T09:15:11Z</time>
      </trkpt>
      <trkpt lat="51.681661019101739" lon="0.564252035692334">
        <ele>55</ele>
        <time>2018-02-18T09:15:12Z</time>
      </trkpt>
      <trkpt lat="51.681664036586881" lon="0.564294029027224">
        <ele>55</ele>
        <time>2018-02-18T09:15:13Z</time>
      </trkpt>
      <trkpt lat="51.681666970252991" lon="0.564335016533732">
        <ele>55</ele>
        <time>2018-02-18T09:15:14Z</time>
      </trkpt>
      <trkpt lat="51.681668981909752" lon="0.56437399238348">
        <ele>55</ele>
        <time>2018-02-18T09:15:15Z</time>
      </trkpt>
      <trkpt lat="51.681669987738132" lon="0.564411040395498">
        <ele>55</ele>
        <time>2018-02-18T09:15:16Z</time>
      </trkpt>
      <trkpt lat="51.681669987738132" lon="0.564449010416865">
        <ele>55</ele>
        <time>2018-02-18T09:15:17Z</time>
      </trkpt>
      <trkpt lat="51.681670993566513" lon="0.564485974609852">
        <ele>55</ele>
        <time>2018-02-18T09:15:18Z</time>
      </trkpt>
      <trkpt lat="51.681673005223274" lon="0.56452302262187">
        <ele>55</ele>
        <time>2018-02-18T09:15:19Z</time>
      </trkpt>
      <trkpt lat="51.681675016880035" lon="0.564563004299998">
        <ele>55</ele>
        <time>2018-02-18T09:15:20Z</time>
      </trkpt>
      <trkpt lat="51.681678034365177" lon="0.564604997634888">
        <ele>55</ele>
        <time>2018-02-18T09:15:21Z</time>
      </trkpt>
      <trkpt lat="51.681683985516429" lon="0.564645985141397">
        <ele>55</ele>
        <time>2018-02-18T09:15:22Z</time>
      </trkpt>
      <trkpt lat="51.681689014658332" lon="0.564684960991144">
        <ele>55</ele>
        <time>2018-02-18T09:15:23Z</time>
      </trkpt>
      <trkpt lat="51.681692032143474" lon="0.564726032316685">
        <ele>55</ele>
        <time>2018-02-18T09:15:24Z</time>
      </trkpt>
      <trkpt lat="51.681698989123106" lon="0.564764002338052">
        <ele>55</ele>
        <time>2018-02-18T09:15:25Z</time>
      </trkpt>
      <trkpt lat="51.681707035750151" lon="0.564805995672941">
        <ele>55</ele>
        <time>2018-02-18T09:15:26Z</time>
      </trkpt>
      <trkpt lat="51.681711981073022" lon="0.564845977351069">
        <ele>55</ele>
        <time>2018-02-18T09:15:27Z</time>
      </trkpt>
      <trkpt lat="51.681718016043305" lon="0.564885959029198">
        <ele>55</ele>
        <time>2018-02-18T09:15:28Z</time>
      </trkpt>
      <trkpt lat="51.681725978851318" lon="0.564924012869596">
        <ele>55</ele>
        <time>2018-02-18T09:15:29Z</time>
      </trkpt>
      <trkpt lat="51.681731007993221" lon="0.564960977062583">
        <ele>55</ele>
        <time>2018-02-18T09:15:30Z</time>
      </trkpt>
      <trkpt lat="51.681736959144473" lon="0.564997019246221">
        <ele>55</ele>
        <time>2018-02-18T09:15:31Z</time>
      </trkpt>
      <trkpt lat="51.681746011599898" lon="0.565030965954065">
        <ele>55</ele>
        <time>2018-02-18T09:15:32Z</time>
      </trkpt>
      <trkpt lat="51.681754980236292" lon="0.565063990652561">
        <ele>55</ele>
        <time>2018-02-18T09:15:33Z</time>
      </trkpt>
      <trkpt lat="51.681762021034956" lon="0.565099027007818">
        <ele>55</ele>
        <time>2018-02-18T09:15:34Z</time>
      </trkpt>
      <trkpt lat="51.68177199549973" lon="0.565136997029185">
        <ele>55</ele>
        <time>2018-02-18T09:15:35Z</time>
      </trkpt>
      <trkpt lat="51.681780964136124" lon="0.565173961222172">
        <ele>55</ele>
        <time>2018-02-18T09:15:36Z</time>
      </trkpt>
      <trkpt lat="51.68179202824831" lon="0.565210003405809">
        <ele>55</ele>
        <time>2018-02-18T09:15:37Z</time>
      </trkpt>
      <trkpt lat="51.681802002713084" lon="0.565247973427176">
        <ele>55</ele>
        <time>2018-02-18T09:15:38Z</time>
      </trkpt>
      <trkpt lat="51.681811977177858" lon="0.565285021439195">
        <ele>55</ele>
        <time>2018-02-18T09:15:39Z</time>
      </trkpt>
      <trkpt lat="51.681820023804903" lon="0.565321985632181">
        <ele>55</ele>
        <time>2018-02-18T09:15:40Z</time>
      </trkpt>
      <trkpt lat="51.681827986612916" lon="0.56536003947258">
        <ele>55</ele>
        <time>2018-02-18T09:15:41Z</time>
      </trkpt>
      <trkpt lat="51.681837039068341" lon="0.565398009493947">
        <ele>55</ele>
        <time>2018-02-18T09:15:42Z</time>
      </trkpt>
      <trkpt lat="51.681846007704735" lon="0.565432040020823">
        <ele>55</ele>
        <time>2018-02-18T09:15:43Z</time>
      </trkpt>
      <trkpt lat="51.681853970512748" lon="0.565465986728668">
        <ele>55</ele>
        <time>2018-02-18T09:15:44Z</time>
      </trkpt>
      <trkpt lat="51.681862017139792" lon="0.565500017255545">
        <ele>55</ele>
        <time>2018-02-18T09:15:45Z</time>
      </trkpt>
      <trkpt lat="51.681870985776186" lon="0.56553496979177">
        <ele>55</ele>
        <time>2018-02-18T09:15:46Z</time>
      </trkpt>
      <trkpt lat="51.681880038231611" lon="0.565573023632169">
        <ele>55</ele>
        <time>2018-02-18T09:15:47Z</time>
      </trkpt>
      <trkpt lat="51.681888001039624" lon="0.565611999481916">
        <ele>55</ele>
        <time>2018-02-18T09:15:48Z</time>
      </trkpt>
      <trkpt lat="51.681895041838288" lon="0.565649969503284">
        <ele>55</ele>
        <time>2018-02-18T09:15:49Z</time>
      </trkpt>
      <trkpt lat="51.68190099298954" lon="0.565686011686921">
        <ele>55</ele>
        <time>2018-02-18T09:15:50Z</time>
      </trkpt>
      <trkpt lat="51.681908033788204" lon="0.565725993365049">
        <ele>55</ele>
        <time>2018-02-18T09:15:51Z</time>
      </trkpt>
      <trkpt lat="51.681915996596217" lon="0.565762035548687">
        <ele>55</ele>
        <time>2018-02-18T09:15:52Z</time>
      </trkpt>
      <trkpt lat="51.68192395940423" lon="0.565802017226815">
        <ele>55</ele>
        <time>2018-02-18T09:15:53Z</time>
      </trkpt>
      <trkpt lat="51.681929994374514" lon="0.565839987248182">
        <ele>55</ele>
        <time>2018-02-18T09:15:54Z</time>
      </trkpt>
      <trkpt lat="51.681938041001558" lon="0.56587602943182">
        <ele>55</ele>
        <time>2018-02-18T09:15:55Z</time>
      </trkpt>
      <trkpt lat="51.681946003809571" lon="0.565911987796426">
        <ele>55</ele>
        <time>2018-02-18T09:15:56Z</time>
      </trkpt>
      <trkpt lat="51.681952960789204" lon="0.565947024151683">
        <ele>55</ele>
        <time>2018-02-18T09:15:57Z</time>
      </trkpt>
      <trkpt lat="51.681957989931107" lon="0.565982982516289">
        <ele>55</ele>
        <time>2018-02-18T09:15:58Z</time>
      </trkpt>
      <trkpt lat="51.68196402490139" lon="0.566019024699926">
        <ele>55</ele>
        <time>2018-02-18T09:15:59Z</time>
      </trkpt>
      <trkpt lat="51.681970981881022" lon="0.566054983064532">
        <ele>55</ele>
        <time>2018-02-18T09:16:00Z</time>
      </trkpt>
      <trkpt lat="51.681981040164828" lon="0.566088007763028">
        <ele>55</ele>
        <time>2018-02-18T09:16:01Z</time>
      </trkpt>
      <trkpt lat="51.681989002972841" lon="0.566123966127634">
        <ele>55</ele>
        <time>2018-02-18T09:16:02Z</time>
      </trkpt>
      <trkpt lat="51.681996965780854" lon="0.566160008311272">
        <ele>55</ele>
        <time>2018-02-18T09:16:03Z</time>
      </trkpt>
      <trkpt lat="51.682004006579518" lon="0.566194038838148">
        <ele>55</ele>
        <time>2018-02-18T09:16:04Z</time>
      </trkpt>
      <trkpt lat="51.682020016014576" lon="0.56626302190125">
        <ele>55</ele>
        <time>2018-02-18T09:16:06Z</time>
      </trkpt>
      <trkpt lat="51.68202898465097" lon="0.566298980265856">
        <ele>55</ele>
        <time>2018-02-18T09:16:07Z</time>
      </trkpt>
      <trkpt lat="51.682036025449634" lon="0.566335022449493">
        <ele>55.910893975109602</ele>
        <time>2018-02-18T09:16:08Z</time>
      </trkpt>
      <trkpt lat="51.682043988257647" lon="0.56637198664248">
        <ele>56</ele>
        <time>2018-02-18T09:16:09Z</time>
      </trkpt>
      <trkpt lat="51.682053040713072" lon="0.566406017169356">
        <ele>56</ele>
        <time>2018-02-18T09:16:10Z</time>
      </trkpt>
      <trkpt lat="51.682063015177846" lon="0.566439963877201">
        <ele>56</ele>
        <time>2018-02-18T09:16:11Z</time>
      </trkpt>
      <trkpt lat="51.68207198381424" lon="0.566477011889219">
        <ele>56</ele>
        <time>2018-02-18T09:16:12Z</time>
      </trkpt>
      <trkpt lat="51.682081036269665" lon="0.566513976082206">
        <ele>55.089106024890398</ele>
        <time>2018-02-18T09:16:13Z</time>
      </trkpt>
      <trkpt lat="51.682088999077678" lon="0.566553035750985">
        <ele>55</ele>
        <time>2018-02-18T09:16:14Z</time>
      </trkpt>
      <trkpt lat="51.682096961885691" lon="0.566589999943972">
        <ele>55</ele>
        <time>2018-02-18T09:16:15Z</time>
      </trkpt>
      <trkpt lat="51.682104002684355" lon="0.566628975793719">
        <ele>55</ele>
        <time>2018-02-18T09:16:16Z</time>
      </trkpt>
      <trkpt lat="51.682112971320748" lon="0.566668035462499">
        <ele>55</ele>
        <time>2018-02-18T09:16:17Z</time>
      </trkpt>
      <trkpt lat="51.682119006291032" lon="0.566706005483866">
        <ele>55</ele>
        <time>2018-02-18T09:16:18Z</time>
      </trkpt>
      <trkpt lat="51.682125963270664" lon="0.566741041839123">
        <ele>55</ele>
        <time>2018-02-18T09:16:19Z</time>
      </trkpt>
      <trkpt lat="51.682133004069328" lon="0.56678001768887">
        <ele>55</ele>
        <time>2018-02-18T09:16:20Z</time>
      </trkpt>
      <trkpt lat="51.682142978534102" lon="0.566817987710238">
        <ele>55</ele>
        <time>2018-02-18T09:16:21Z</time>
      </trkpt>
      <trkpt lat="51.682151025161147" lon="0.566855035722256">
        <ele>55</ele>
        <time>2018-02-18T09:16:22Z</time>
      </trkpt>
      <trkpt lat="51.682159993797541" lon="0.566891999915242">
        <ele>55</ele>
        <time>2018-02-18T09:16:23Z</time>
      </trkpt>
      <trkpt lat="51.682168962433934" lon="0.566926030442119">
        <ele>55</ele>
        <time>2018-02-18T09:16:24Z</time>
      </trkpt>
      <trkpt lat="51.682177009060979" lon="0.566962994635105">
        <ele>55</ele>
        <time>2018-02-18T09:16:25Z</time>
      </trkpt>
      <trkpt lat="51.682184971868992" lon="0.566998030990362">
        <ele>55</ele>
        <time>2018-02-18T09:16:26Z</time>
      </trkpt>
      <trkpt lat="51.682194024324417" lon="0.567036001011729">
        <ele>55</ele>
        <time>2018-02-18T09:16:27Z</time>
      </trkpt>
      <trkpt lat="51.682202992960811" lon="0.567072965204716">
        <ele>55</ele>
        <time>2018-02-18T09:16:28Z</time>
      </trkpt>
      <trkpt lat="51.682211039587855" lon="0.567114036530256">
        <ele>55</ele>
        <time>2018-02-18T09:16:29Z</time>
      </trkpt>
      <trkpt lat="51.682216990739107" lon="0.567152006551623">
        <ele>55</ele>
        <time>2018-02-18T09:16:30Z</time>
      </trkpt>
      <trkpt lat="51.682225037366152" lon="0.567187964916229">
        <ele>55</ele>
        <time>2018-02-18T09:16:31Z</time>
      </trkpt>
      <trkpt lat="51.682231994345784" lon="0.567223001271486">
        <ele>55</ele>
        <time>2018-02-18T09:16:32Z</time>
      </trkpt>
      <trkpt lat="51.682240040972829" lon="0.567258037626743">
        <ele>55</ele>
        <time>2018-02-18T09:16:33Z</time>
      </trkpt>
      <trkpt lat="51.682246997952461" lon="0.567297013476491">
        <ele>55</ele>
        <time>2018-02-18T09:16:34Z</time>
      </trkpt>
      <trkpt lat="51.682254960760474" lon="0.567332971841097">
        <ele>55</ele>
        <time>2018-02-18T09:16:35Z</time>
      </trkpt>
      <trkpt lat="51.682259989902377" lon="0.567370019853115">
        <ele>55</ele>
        <time>2018-02-18T09:16:36Z</time>
      </trkpt>
      <trkpt lat="51.682269964367151" lon="0.567407989874482">
        <ele>55</ele>
        <time>2018-02-18T09:16:37Z</time>
      </trkpt>
      <trkpt lat="51.682277005165815" lon="0.567443026229739">
        <ele>55</ele>
        <time>2018-02-18T09:16:38Z</time>
      </trkpt>
      <trkpt lat="51.682284967973828" lon="0.567477978765965">
        <ele>55</ele>
        <time>2018-02-18T09:16:39Z</time>
      </trkpt>
      <trkpt lat="51.682292008772492" lon="0.56750999763608">
        <ele>55</ele>
        <time>2018-02-18T09:16:40Z</time>
      </trkpt>
      <trkpt lat="51.682297959923744" lon="0.567540004849434">
        <ele>55</ele>
        <time>2018-02-18T09:16:41Z</time>
      </trkpt>
      <trkpt lat="51.682303994894028" lon="0.567566994577646">
        <ele>55</ele>
        <time>2018-02-18T09:16:42Z</time>
      </trkpt>
      <trkpt lat="51.682312041521072" lon="0.567594990134239">
        <ele>55</ele>
        <time>2018-02-18T09:16:43Z</time>
      </trkpt>
      <trkpt lat="51.682318998500705" lon="0.567622985690832">
        <ele>55</ele>
        <time>2018-02-18T09:16:44Z</time>
      </trkpt>
      <trkpt lat="51.682326039299369" lon="0.567649975419044">
        <ele>55</ele>
        <time>2018-02-18T09:16:45Z</time>
      </trkpt>
      <trkpt lat="51.682336013764143" lon="0.567677970975637">
        <ele>55</ele>
        <time>2018-02-18T09:16:46Z</time>
      </trkpt>
      <trkpt lat="51.682349005714059" lon="0.567709989845753">
        <ele>55</ele>
        <time>2018-02-18T09:16:47Z</time>
      </trkpt>
      <trkpt lat="51.682358980178833" lon="0.567744020372629">
        <ele>55</ele>
        <time>2018-02-18T09:16:48Z</time>
      </trkpt>
      <trkpt lat="51.682368032634258" lon="0.567776961252093">
        <ele>55</ele>
        <time>2018-02-18T09:16:49Z</time>
      </trkpt>
      <trkpt lat="51.682375995442271" lon="0.567805962637067">
        <ele>55</ele>
        <time>2018-02-18T09:16:50Z</time>
      </trkpt>
      <trkpt lat="51.682387981563807" lon="0.567836975678802">
        <ele>55</ele>
        <time>2018-02-18T09:16:51Z</time>
      </trkpt>
      <trkpt lat="51.682398961856961" lon="0.567870000377297">
        <ele>55</ele>
        <time>2018-02-18T09:16:52Z</time>
      </trkpt>
      <trkpt lat="51.682409020140767" lon="0.567901013419032">
        <ele>55</ele>
        <time>2018-02-18T09:16:53Z</time>
      </trkpt>
      <trkpt lat="51.682417988777161" lon="0.567932026460767">
        <ele>55</ele>
        <time>2018-02-18T09:16:54Z</time>
      </trkpt>
      <trkpt lat="51.682428969070315" lon="0.567962033674121">
        <ele>55</ele>
        <time>2018-02-18T09:16:55Z</time>
      </trkpt>
      <trkpt lat="51.682438021525741" lon="0.567994974553585">
        <ele>55</ele>
        <time>2018-02-18T09:16:56Z</time>
      </trkpt>
      <trkpt lat="51.682446990162134" lon="0.56802598759532">
        <ele>55</ele>
        <time>2018-02-18T09:16:57Z</time>
      </trkpt>
      <trkpt lat="51.682455036789179" lon="0.568057000637054">
        <ele>55</ele>
        <time>2018-02-18T09:16:58Z</time>
      </trkpt>
      <trkpt lat="51.682460987940431" lon="0.56808901950717">
        <ele>55.969996799999997</ele>
        <time>2018-02-18T09:16:59Z</time>
      </trkpt>
      <trkpt lat="51.682470040395856" lon="0.568123972043395">
        <ele>56</ele>
        <time>2018-02-18T09:17:00Z</time>
      </trkpt>
      <trkpt lat="51.68248001486063" lon="0.568158002570271">
        <ele>56</ele>
        <time>2018-02-18T09:17:01Z</time>
      </trkpt>
      <trkpt lat="51.682489989325404" lon="0.568190021440387">
        <ele>56</ele>
        <time>2018-02-18T09:17:02Z</time>
      </trkpt>
      <trkpt lat="51.682496024295688" lon="0.568227991461754">
        <ele>56</ele>
        <time>2018-02-18T09:17:03Z</time>
      </trkpt>
      <trkpt lat="51.682501975446939" lon="0.568264033645391">
        <ele>56</ele>
        <time>2018-02-18T09:17:04Z</time>
      </trkpt>
      <trkpt lat="51.682509016245604" lon="0.568295968696475">
        <ele>56</ele>
        <time>2018-02-18T09:17:05Z</time>
      </trkpt>
      <trkpt lat="51.682515973225236" lon="0.568328993394971">
        <ele>56</ele>
        <time>2018-02-18T09:17:06Z</time>
      </trkpt>
      <trkpt lat="51.682527037337422" lon="0.568362018093467">
        <ele>56</ele>
        <time>2018-02-18T09:17:07Z</time>
      </trkpt>
      <trkpt lat="51.682535000145435" lon="0.568397976458073">
        <ele>56</ele>
        <time>2018-02-18T09:17:08Z</time>
      </trkpt>
      <trkpt lat="51.682543968781829" lon="0.568429995328188">
        <ele>56</ele>
        <time>2018-02-18T09:17:09Z</time>
      </trkpt>
      <trkpt lat="51.682555032894015" lon="0.568467965349555">
        <ele>56</ele>
        <time>2018-02-18T09:17:10Z</time>
      </trkpt>
      <trkpt lat="51.68256601318717" lon="0.568501995876431">
        <ele>56</ele>
        <time>2018-02-18T09:17:11Z</time>
      </trkpt>
      <trkpt lat="51.682574981823564" lon="0.568536026403308">
        <ele>56</ele>
        <time>2018-02-18T09:17:12Z</time>
      </trkpt>
      <trkpt lat="51.682585040107369" lon="0.568569973111153">
        <ele>56</ele>
        <time>2018-02-18T09:17:13Z</time>
      </trkpt>
      <trkpt lat="51.682596020400524" lon="0.568600986152887">
        <ele>55</ele>
        <time>2018-02-18T09:17:14Z</time>
      </trkpt>
      <trkpt lat="51.682605994865298" lon="0.568636022508144">
        <ele>55</ele>
        <time>2018-02-18T09:17:15Z</time>
      </trkpt>
      <trkpt lat="51.682616975158453" lon="0.568669969215989">
        <ele>55</ele>
        <time>2018-02-18T09:17:16Z</time>
      </trkpt>
      <trkpt lat="51.682623010128736" lon="0.568705005571246">
        <ele>55.949497692098802</ele>
        <time>2018-02-18T09:17:17Z</time>
      </trkpt>
      <trkpt lat="51.68263197876513" lon="0.568741969764233">
        <ele>56</ele>
        <time>2018-02-18T09:17:18Z</time>
      </trkpt>
      <trkpt lat="51.682642037048936" lon="0.56877700611949">
        <ele>56</ele>
        <time>2018-02-18T09:17:19Z</time>
      </trkpt>
      <trkpt lat="51.682647988200188" lon="0.568809024989605">
        <ele>56</ele>
        <time>2018-02-18T09:17:20Z</time>
      </trkpt>
      <trkpt lat="51.682671960443258" lon="0.568868033587933">
        <ele>56</ele>
        <time>2018-02-18T09:17:22Z</time>
      </trkpt>
      <trkpt lat="51.682686964049935" lon="0.568902986124158">
        <ele>56</ele>
        <time>2018-02-18T09:17:23Z</time>
      </trkpt>
      <trkpt lat="51.682700961828232" lon="0.568940034136176">
        <ele>56</ele>
        <time>2018-02-18T09:17:24Z</time>
      </trkpt>
      <trkpt lat="51.682714959606528" lon="0.568978004157543">
        <ele>56</ele>
        <time>2018-02-18T09:17:25Z</time>
      </trkpt>
      <trkpt lat="51.682728035375476" lon="0.569017985835671">
        <ele>55.104648220637898</ele>
        <time>2018-02-18T09:17:26Z</time>
      </trkpt>
      <trkpt lat="51.682745972648263" lon="0.569050004705787">
        <ele>55</ele>
        <time>2018-02-18T09:17:27Z</time>
      </trkpt>
      <trkpt lat="51.682758964598179" lon="0.569082023575902">
        <ele>55.939994368072099</ele>
        <time>2018-02-18T09:17:28Z</time>
      </trkpt>
      <trkpt lat="51.682771034538746" lon="0.569116976112127">
        <ele>56</ele>
        <time>2018-02-18T09:17:29Z</time>
      </trkpt>
      <trkpt lat="51.68278100900352" lon="0.569151006639004">
        <ele>56</ele>
        <time>2018-02-18T09:17:30Z</time>
      </trkpt>
      <trkpt lat="51.682788971811533" lon="0.56918797083199">
        <ele>56</ele>
        <time>2018-02-18T09:17:31Z</time>
      </trkpt>
      <trkpt lat="51.682798024266958" lon="0.569228958338499">
        <ele>56</ele>
        <time>2018-02-18T09:17:32Z</time>
      </trkpt>
      <trkpt lat="51.682806992903352" lon="0.56927002966404">
        <ele>56</ele>
        <time>2018-02-18T09:17:33Z</time>
      </trkpt>
      <trkpt lat="51.682819984853268" lon="0.569307999685407">
        <ele>56</ele>
        <time>2018-02-18T09:17:34Z</time>
      </trkpt>
      <trkpt lat="51.682830965146422" lon="0.569344963878393">
        <ele>56</ele>
        <time>2018-02-18T09:17:35Z</time>
      </trkpt>
      <trkpt lat="51.682841023430228" lon="0.569382011890411">
        <ele>56</ele>
        <time>2018-02-18T09:17:36Z</time>
      </trkpt>
      <trkpt lat="51.682850997895002" lon="0.569418976083398">
        <ele>56</ele>
        <time>2018-02-18T09:17:37Z</time>
      </trkpt>
      <trkpt lat="51.682862984016538" lon="0.569456024095416">
        <ele>56</ele>
        <time>2018-02-18T09:17:38Z</time>
      </trkpt>
      <trkpt lat="51.682875975966454" lon="0.569490976631641">
        <ele>56</ele>
        <time>2018-02-18T09:17:39Z</time>
      </trkpt>
      <trkpt lat="51.682887962087989" lon="0.56952802464366">
        <ele>56</ele>
        <time>2018-02-18T09:17:40Z</time>
      </trkpt>
      <trkpt lat="51.682897014543414" lon="0.569567000493407">
        <ele>56</ele>
        <time>2018-02-18T09:17:41Z</time>
      </trkpt>
      <trkpt lat="51.682907994836569" lon="0.569604970514774">
        <ele>56</ele>
        <time>2018-02-18T09:17:42Z</time>
      </trkpt>
      <trkpt lat="51.682918975129724" lon="0.569642018526793">
        <ele>55.058246756474603</ele>
        <time>2018-02-18T09:17:43Z</time>
      </trkpt>
      <trkpt lat="51.682931967079639" lon="0.56968099437654">
        <ele>55</ele>
        <time>2018-02-18T09:17:44Z</time>
      </trkpt>
      <trkpt lat="51.682944037020206" lon="0.569718964397907">
        <ele>55</ele>
        <time>2018-02-18T09:17:45Z</time>
      </trkpt>
      <trkpt lat="51.682956023141742" lon="0.569755006581545">
        <ele>55</ele>
        <time>2018-02-18T09:17:46Z</time>
      </trkpt>
      <trkpt lat="51.682962980121374" lon="0.569795994088054">
        <ele>55</ele>
        <time>2018-02-18T09:17:47Z</time>
      </trkpt>
      <trkpt lat="51.682973960414529" lon="0.569839999079704">
        <ele>55</ele>
        <time>2018-02-18T09:17:48Z</time>
      </trkpt>
      <trkpt lat="51.682983012869954" lon="0.569881992414594">
        <ele>55</ele>
        <time>2018-02-18T09:17:49Z</time>
      </trkpt>
      <trkpt lat="51.682990975677967" lon="0.569922979921103">
        <ele>55</ele>
        <time>2018-02-18T09:17:50Z</time>
      </trkpt>
      <trkpt lat="51.683002961799502" lon="0.569963967427611">
        <ele>55</ele>
        <time>2018-02-18T09:17:51Z</time>
      </trkpt>
      <trkpt lat="51.683015031740069" lon="0.569999003782868">
        <ele>55</ele>
        <time>2018-02-18T09:17:52Z</time>
      </trkpt>
      <trkpt lat="51.683031963184476" lon="0.570032028481364">
        <ele>55</ele>
        <time>2018-02-18T09:17:53Z</time>
      </trkpt>
      <trkpt lat="51.683049984276295" lon="0.570068992674351">
        <ele>55</ele>
        <time>2018-02-18T09:17:54Z</time>
      </trkpt>
      <trkpt lat="51.683064987882972" lon="0.570106962695718">
        <ele>55</ele>
        <time>2018-02-18T09:17:55Z</time>
      </trkpt>
      <trkpt lat="51.683076974004507" lon="0.570151973515749">
        <ele>55</ele>
        <time>2018-02-18T09:17:56Z</time>
      </trkpt>
      <trkpt lat="51.683083008974791" lon="0.5701959785074">
        <ele>55</ele>
        <time>2018-02-18T09:17:57Z</time>
      </trkpt>
      <trkpt lat="51.683089965954423" lon="0.570237971842289">
        <ele>54.084515675422303</ele>
        <time>2018-02-18T09:17:58Z</time>
      </trkpt>
      <trkpt lat="51.683111004531384" lon="0.570316007360816">
        <ele>54</ele>
        <time>2018-02-18T09:18:00Z</time>
      </trkpt>
      <trkpt lat="51.683120978996158" lon="0.570358000695705">
        <ele>54.950003199999998</ele>
        <time>2018-02-18T09:18:01Z</time>
      </trkpt>
      <trkpt lat="51.683134976774454" lon="0.570399994030595">
        <ele>55</ele>
        <time>2018-02-18T09:18:02Z</time>
      </trkpt>
      <trkpt lat="51.683148974552751" lon="0.570441987365484">
        <ele>55</ele>
        <time>2018-02-18T09:18:03Z</time>
      </trkpt>
      <trkpt lat="51.683161966502666" lon="0.570483980700374">
        <ele>55</ele>
        <time>2018-02-18T09:18:04Z</time>
      </trkpt>
      <trkpt lat="51.683173030614853" lon="0.570527985692024">
        <ele>55</ele>
        <time>2018-02-18T09:18:05Z</time>
      </trkpt>
      <trkpt lat="51.683189040049911" lon="0.570570984855294">
        <ele>55</ele>
        <time>2018-02-18T09:18:06Z</time>
      </trkpt>
      <trkpt lat="51.683204965665936" lon="0.570615995675325">
        <ele>55</ele>
        <time>2018-02-18T09:18:07Z</time>
      </trkpt>
      <trkpt lat="51.683220975100994" lon="0.570658994838595">
        <ele>55</ele>
        <time>2018-02-18T09:18:08Z</time>
      </trkpt>
      <trkpt lat="51.683234972879291" lon="0.570704005658627">
        <ele>55</ele>
        <time>2018-02-18T09:18:09Z</time>
      </trkpt>
      <trkpt lat="51.683249976485968" lon="0.570748010650277">
        <ele>55</ele>
        <time>2018-02-18T09:18:10Z</time>
      </trkpt>
      <trkpt lat="51.683265985921025" lon="0.570788998156786">
        <ele>55</ele>
        <time>2018-02-18T09:18:11Z</time>
      </trkpt>
      <trkpt lat="51.683281995356083" lon="0.570828979834914">
        <ele>55</ele>
        <time>2018-02-18T09:18:12Z</time>
      </trkpt>
      <trkpt lat="51.683295993134379" lon="0.570868961513042">
        <ele>55</ele>
        <time>2018-02-18T09:18:13Z</time>
      </trkpt>
      <trkpt lat="51.683310996741056" lon="0.570909027010202">
        <ele>55</ele>
        <time>2018-02-18T09:18:14Z</time>
      </trkpt>
      <trkpt lat="51.683320971205831" lon="0.570951020345092">
        <ele>55</ele>
        <time>2018-02-18T09:18:15Z</time>
      </trkpt>
      <trkpt lat="51.683332035318017" lon="0.570992007851601">
        <ele>55</ele>
        <time>2018-02-18T09:18:16Z</time>
      </trkpt>
      <trkpt lat="51.683345027267933" lon="0.571029977872968">
        <ele>55</ele>
        <time>2018-02-18T09:18:17Z</time>
      </trkpt>
      <trkpt lat="51.683355001732707" lon="0.571070965379477">
        <ele>55</ele>
        <time>2018-02-18T09:18:18Z</time>
      </trkpt>
      <trkpt lat="51.683365982025862" lon="0.571109019219875">
        <ele>55</ele>
        <time>2018-02-18T09:18:19Z</time>
      </trkpt>
      <trkpt lat="51.683377968147397" lon="0.571149000898004">
        <ele>55</ele>
        <time>2018-02-18T09:18:20Z</time>
      </trkpt>
      <trkpt lat="51.683390038087964" lon="0.571184959262609">
        <ele>55</ele>
        <time>2018-02-18T09:18:21Z</time>
      </trkpt>
      <trkpt lat="51.683402024209499" lon="0.571225024759769">
        <ele>55</ele>
        <time>2018-02-18T09:18:22Z</time>
      </trkpt>
      <trkpt lat="51.683414010331035" lon="0.571264000609517">
        <ele>55</ele>
        <time>2018-02-18T09:18:23Z</time>
      </trkpt>
      <trkpt lat="51.68342599645257" lon="0.571302976459265">
        <ele>55</ele>
        <time>2018-02-18T09:18:24Z</time>
      </trkpt>
      <trkpt lat="51.683437982574105" lon="0.571342036128044">
        <ele>55</ele>
        <time>2018-02-18T09:18:25Z</time>
      </trkpt>
      <trkpt lat="51.683449968695641" lon="0.571382017806172">
        <ele>55</ele>
        <time>2018-02-18T09:18:26Z</time>
      </trkpt>
      <trkpt lat="51.683462038636208" lon="0.571418981999159">
        <ele>55</ele>
        <time>2018-02-18T09:18:27Z</time>
      </trkpt>
      <trkpt lat="51.683474024757743" lon="0.571457035839558">
        <ele>55</ele>
        <time>2018-02-18T09:18:28Z</time>
      </trkpt>
      <trkpt lat="51.683486010879278" lon="0.571497017517686">
        <ele>55</ele>
        <time>2018-02-18T09:18:29Z</time>
      </trkpt>
      <trkpt lat="51.683497997000813" lon="0.571534987539053">
        <ele>55</ele>
        <time>2018-02-18T09:18:30Z</time>
      </trkpt>
      <trkpt lat="51.683508977293968" lon="0.571573963388801">
        <ele>55</ele>
        <time>2018-02-18T09:18:31Z</time>
      </trkpt>
      <trkpt lat="51.683520041406155" lon="0.571611011400819">
        <ele>55</ele>
        <time>2018-02-18T09:18:32Z</time>
      </trkpt>
      <trkpt lat="51.683533033356071" lon="0.571649987250566">
        <ele>55</ele>
        <time>2018-02-18T09:18:33Z</time>
      </trkpt>
      <trkpt lat="51.683545019477606" lon="0.571688041090965">
        <ele>55</ele>
        <time>2018-02-18T09:18:34Z</time>
      </trkpt>
      <trkpt lat="51.68355499394238" lon="0.571727016940713">
        <ele>55</ele>
        <time>2018-02-18T09:18:35Z</time>
      </trkpt>
      <trkpt lat="51.683566980063915" lon="0.571762975305319">
        <ele>55</ele>
        <time>2018-02-18T09:18:36Z</time>
      </trkpt>
      <trkpt lat="51.683589024469256" lon="0.571834975853562">
        <ele>55</ele>
        <time>2018-02-18T09:18:38Z</time>
      </trkpt>
      <trkpt lat="51.683600004762411" lon="0.571870012208819">
        <ele>55</ele>
        <time>2018-02-18T09:18:39Z</time>
      </trkpt>
      <trkpt lat="51.683610985055566" lon="0.571905970573425">
        <ele>54.893794884574397</ele>
        <time>2018-02-18T09:18:40Z</time>
      </trkpt>
      <trkpt lat="51.683620037510991" lon="0.571940001100302">
        <ele>53.123898416438202</ele>
        <time>2018-02-18T09:18:41Z</time>
      </trkpt>
      <trkpt lat="51.683629006147385" lon="0.571964979171753">
        <ele>53</ele>
        <time>2018-02-18T09:18:42Z</time>
      </trkpt>
      <trkpt lat="51.683632023632526" lon="0.571990041062236">
        <ele>53.960000000000001</ele>
        <time>2018-02-18T09:18:43Z</time>
      </trkpt>
      <trkpt lat="51.683637974783778" lon="0.572027005255222">
        <ele>54</ele>
        <time>2018-02-18T09:18:45Z</time>
      </trkpt>
      <trkpt lat="51.683647027239203" lon="0.572056006640196">
        <ele>54</ele>
        <time>2018-02-18T09:18:47Z</time>
      </trkpt>
      <trkpt lat="51.683652978390455" lon="0.572095988318324">
        <ele>54</ele>
        <time>2018-02-18T09:18:49Z</time>
      </trkpt>
      <trkpt lat="51.683662030845881" lon="0.572137981653214">
        <ele>54</ele>
        <time>2018-02-18T09:18:51Z</time>
      </trkpt>
      <trkpt lat="51.683669993653893" lon="0.572180980816484">
        <ele>54</ele>
        <time>2018-02-18T09:18:53Z</time>
      </trkpt>
      <trkpt lat="51.683680973947048" lon="0.572226997464895">
        <ele>54</ele>
        <time>2018-02-18T09:18:55Z</time>
      </trkpt>
      <trkpt lat="51.683692038059235" lon="0.572277959436178">
        <ele>54</ele>
        <time>2018-02-18T09:18:57Z</time>
      </trkpt>
      <trkpt lat="51.683705030009151" lon="0.572325987741351">
        <ele>53</ele>
        <time>2018-02-18T09:18:59Z</time>
      </trkpt>
      <trkpt lat="51.683722967281938" lon="0.572360018268228">
        <ele>54</ele>
        <time>2018-02-18T09:19:01Z</time>
      </trkpt>
      <trkpt lat="51.683736965060234" lon="0.572394970804453">
        <ele>54</ele>
        <time>2018-02-18T09:19:03Z</time>
      </trkpt>
      <trkpt lat="51.683748029172421" lon="0.572433024644852">
        <ele>53</ele>
        <time>2018-02-18T09:19:05Z</time>
      </trkpt>
      <trkpt lat="51.683759009465575" lon="0.572470994666219">
        <ele>53</ele>
        <time>2018-02-18T09:19:07Z</time>
      </trkpt>
      <trkpt lat="51.683776024729013" lon="0.572499996051192">
        <ele>53.914630910197801</ele>
        <time>2018-02-18T09:19:09Z</time>
      </trkpt>
      <trkpt lat="51.683789016678929" lon="0.572537966072559">
        <ele>54</ele>
        <time>2018-02-18T09:19:11Z</time>
      </trkpt>
      <trkpt lat="51.683799996972084" lon="0.572570990771055">
        <ele>54</ele>
        <time>2018-02-18T09:19:13Z</time>
      </trkpt>
      <trkpt lat="51.683821035549045" lon="0.572599992156029">
        <ele>53</ele>
        <time>2018-02-18T09:19:16Z</time>
      </trkpt>
      <trkpt lat="51.683842996135354" lon="0.572608038783073">
        <ele>53</ele>
        <time>2018-02-18T09:19:18Z</time>
      </trkpt>
      <trkpt lat="51.683864034712315" lon="0.572627987712622">
        <ele>53</ele>
        <time>2018-02-18T09:19:20Z</time>
      </trkpt>
      <trkpt lat="51.683885995298624" lon="0.572648020461202">
        <ele>53</ele>
        <time>2018-02-18T09:19:22Z</time>
      </trkpt>
      <trkpt lat="51.683908039703965" lon="0.57266604155302">
        <ele>53</ele>
        <time>2018-02-18T09:19:24Z</time>
      </trkpt>
      <trkpt lat="51.683927988633513" lon="0.572680961340666">
        <ele>53</ele>
        <time>2018-02-18T09:19:26Z</time>
      </trkpt>
      <trkpt lat="51.683951960876584" lon="0.572705017402768">
        <ele>53</ele>
        <time>2018-02-18T09:19:28Z</time>
      </trkpt>
      <trkpt lat="51.683972999453545" lon="0.572720021009445">
        <ele>53</ele>
        <time>2018-02-18T09:19:30Z</time>
      </trkpt>
      <trkpt lat="51.683996971696615" lon="0.572733012959361">
        <ele>53</ele>
        <time>2018-02-18T09:19:32Z</time>
      </trkpt>
      <trkpt lat="51.684021027758718" lon="0.572749022394419">
        <ele>53</ele>
        <time>2018-02-18T09:19:34Z</time>
      </trkpt>
      <trkpt lat="51.684046005830169" lon="0.572769977152348">
        <ele>54</ele>
        <time>2018-02-18T09:19:36Z</time>
      </trkpt>
      <trkpt lat="51.684064026921988" lon="0.572792021557689">
        <ele>54.941741540220498</ele>
        <time>2018-02-18T09:19:38Z</time>
      </trkpt>
      <trkpt lat="51.684083975851536" lon="0.572813982143998">
        <ele>55</ele>
        <time>2018-02-18T09:19:40Z</time>
      </trkpt>
      <trkpt lat="51.684103002771735" lon="0.572844995185733">
        <ele>55</ele>
        <time>2018-02-18T09:19:42Z</time>
      </trkpt>
      <trkpt lat="51.684124963358045" lon="0.572858992964029">
        <ele>54.038834830804397</ele>
        <time>2018-02-18T09:19:44Z</time>
      </trkpt>
      <trkpt lat="51.684149019420147" lon="0.572879025712609">
        <ele>54</ele>
        <time>2018-02-18T09:19:46Z</time>
      </trkpt>
      <trkpt lat="51.684171985834837" lon="0.572901992127299">
        <ele>54</ele>
        <time>2018-02-18T09:19:48Z</time>
      </trkpt>
      <trkpt lat="51.684193024411798" lon="0.572928981855512">
        <ele>53.041237249442503</ele>
        <time>2018-02-18T09:19:50Z</time>
      </trkpt>
      <trkpt lat="51.684214984998107" lon="0.572951026260853">
        <ele>53</ele>
        <time>2018-02-18T09:19:52Z</time>
      </trkpt>
      <trkpt lat="51.684239041060209" lon="0.572972986847162">
        <ele>53</ele>
        <time>2018-02-18T09:19:54Z</time>
      </trkpt>
      <trkpt lat="51.684261001646519" lon="0.573000982403755">
        <ele>53</ele>
        <time>2018-02-18T09:19:56Z</time>
      </trkpt>
      <trkpt lat="51.684282962232828" lon="0.573028977960348">
        <ele>53</ele>
        <time>2018-02-18T09:19:58Z</time>
      </trkpt>
      <trkpt lat="51.684309029951692" lon="0.573050016537309">
        <ele>53</ele>
        <time>2018-02-18T09:20:00Z</time>
      </trkpt>
      <trkpt lat="51.684333002194762" lon="0.573073988780379">
        <ele>53</ele>
        <time>2018-02-18T09:20:02Z</time>
      </trkpt>
      <trkpt lat="51.684352029114962" lon="0.573097039014101">
        <ele>53</ele>
        <time>2018-02-18T09:20:04Z</time>
      </trkpt>
      <trkpt lat="51.68437197804451" lon="0.573114976286888">
        <ele>53</ele>
        <time>2018-02-18T09:20:06Z</time>
      </trkpt>
      <trkpt lat="51.68439201079309" lon="0.57313802652061">
        <ele>53</ele>
        <time>2018-02-18T09:20:08Z</time>
      </trkpt>
      <trkpt lat="51.684411959722638" lon="0.573164010420442">
        <ele>53</ele>
        <time>2018-02-18T09:20:10Z</time>
      </trkpt>
      <trkpt lat="51.68443500995636" lon="0.573186976835132">
        <ele>53</ele>
        <time>2018-02-18T09:20:12Z</time>
      </trkpt>
      <trkpt lat="51.68445797637105" lon="0.573211032897234">
        <ele>53</ele>
        <time>2018-02-18T09:20:14Z</time>
      </trkpt>
      <trkpt lat="51.68447800911963" lon="0.573231987655163">
        <ele>54</ele>
        <time>2018-02-18T09:20:16Z</time>
      </trkpt>
      <trkpt lat="51.68449804186821" lon="0.573249002918601">
        <ele>54</ele>
        <time>2018-02-18T09:20:18Z</time>
      </trkpt>
      <trkpt lat="51.6845210082829" lon="0.57327096350491">
        <ele>54</ele>
        <time>2018-02-18T09:20:20Z</time>
      </trkpt>
      <trkpt lat="51.684541963040829" lon="0.573294013738632">
        <ele>54</ele>
        <time>2018-02-18T09:20:22Z</time>
      </trkpt>
      <trkpt lat="51.68456501327455" lon="0.573315974324942">
        <ele>54</ele>
        <time>2018-02-18T09:20:24Z</time>
      </trkpt>
      <trkpt lat="51.68458697386086" lon="0.573336007073522">
        <ele>54</ele>
        <time>2018-02-18T09:20:26Z</time>
      </trkpt>
      <trkpt lat="51.68460801243782" lon="0.573361990973353">
        <ele>54</ele>
        <time>2018-02-18T09:20:28Z</time>
      </trkpt>
      <trkpt lat="51.68463097885251" lon="0.573384035378695">
        <ele>54</ele>
        <time>2018-02-18T09:20:30Z</time>
      </trkpt>
      <trkpt lat="51.68465101160109" lon="0.573405995965004">
        <ele>54</ele>
        <time>2018-02-18T09:20:32Z</time>
      </trkpt>
      <trkpt lat="51.684671966359019" lon="0.573428040370345">
        <ele>54</ele>
        <time>2018-02-18T09:20:34Z</time>
      </trkpt>
      <trkpt lat="51.684691999107599" lon="0.573450000956655">
        <ele>53</ele>
        <time>2018-02-18T09:20:36Z</time>
      </trkpt>
      <trkpt lat="51.684714965522289" lon="0.573471039533615">
        <ele>53.053102557712798</ele>
        <time>2018-02-18T09:20:38Z</time>
      </trkpt>
      <trkpt lat="51.684734998270869" lon="0.573493000119925">
        <ele>54</ele>
        <time>2018-02-18T09:20:40Z</time>
      </trkpt>
      <trkpt lat="51.684756958857179" lon="0.573512027040124">
        <ele>53.946897442287202</ele>
        <time>2018-02-18T09:20:42Z</time>
      </trkpt>
      <trkpt lat="51.684775985777378" lon="0.573535999283195">
        <ele>53</ele>
        <time>2018-02-18T09:20:44Z</time>
      </trkpt>
      <trkpt lat="51.684793001040816" lon="0.573556032031775">
        <ele>53</ele>
        <time>2018-02-18T09:20:46Z</time>
      </trkpt>
      <trkpt lat="51.684814039617777" lon="0.573575980961323">
        <ele>54</ele>
        <time>2018-02-18T09:20:48Z</time>
      </trkpt>
      <trkpt lat="51.684837006032467" lon="0.573600959032774">
        <ele>54</ele>
        <time>2018-02-18T09:20:50Z</time>
      </trkpt>
      <trkpt lat="51.684857038781047" lon="0.573623003438115">
        <ele>54</ele>
        <time>2018-02-18T09:20:52Z</time>
      </trkpt>
      <trkpt lat="51.684876987710595" lon="0.573643958196044">
        <ele>54</ele>
        <time>2018-02-18T09:20:54Z</time>
      </trkpt>
      <trkpt lat="51.684900037944317" lon="0.573666002601385">
        <ele>54</ele>
        <time>2018-02-18T09:20:56Z</time>
      </trkpt>
      <trkpt lat="51.684924010187387" lon="0.573692992329597">
        <ele>54</ele>
        <time>2018-02-18T09:20:58Z</time>
      </trkpt>
      <trkpt lat="51.684943037107587" lon="0.573718976229429">
        <ele>54</ele>
        <time>2018-02-18T09:21:00Z</time>
      </trkpt>
      <trkpt lat="51.684961980208755" lon="0.573746971786022">
        <ele>52.190464580463498</ele>
        <time>2018-02-18T09:21:02Z</time>
      </trkpt>
      <trkpt lat="51.684985030442476" lon="0.573764992877841">
        <ele>53</ele>
        <time>2018-02-18T09:21:04Z</time>
      </trkpt>
      <trkpt lat="51.685007996857166" lon="0.573788965120912">
        <ele>53</ele>
        <time>2018-02-18T09:21:06Z</time>
      </trkpt>
      <trkpt lat="51.685029035434127" lon="0.573817966505885">
        <ele>53</ele>
        <time>2018-02-18T09:21:08Z</time>
      </trkpt>
      <trkpt lat="51.685048984363675" lon="0.573843028396368">
        <ele>53</ele>
        <time>2018-02-18T09:21:10Z</time>
      </trkpt>
      <trkpt lat="51.685071028769016" lon="0.573868006467819">
        <ele>53</ele>
        <time>2018-02-18T09:21:12Z</time>
      </trkpt>
      <trkpt lat="51.685089971870184" lon="0.573889967054129">
        <ele>53</ele>
        <time>2018-02-18T09:21:14Z</time>
      </trkpt>
      <trkpt lat="51.685114027932286" lon="0.573915028944612">
        <ele>53</ele>
        <time>2018-02-18T09:21:16Z</time>
      </trkpt>
      <trkpt lat="51.685134982690215" lon="0.57393598370254">
        <ele>53</ele>
        <time>2018-02-18T09:21:18Z</time>
      </trkpt>
      <trkpt lat="51.685156021267176" lon="0.573960039764643">
        <ele>53</ele>
        <time>2018-02-18T09:21:20Z</time>
      </trkpt>
      <trkpt lat="51.685178987681866" lon="0.573986023664474">
        <ele>53</ele>
        <time>2018-02-18T09:21:22Z</time>
      </trkpt>
      <trkpt lat="51.685199020430446" lon="0.574011001735926">
        <ele>53</ele>
        <time>2018-02-18T09:21:24Z</time>
      </trkpt>
      <trkpt lat="51.685220981016755" lon="0.574037991464138">
        <ele>53</ele>
        <time>2018-02-18T09:21:26Z</time>
      </trkpt>
      <trkpt lat="51.685242019593716" lon="0.574065987020731">
        <ele>52</ele>
        <time>2018-02-18T09:21:28Z</time>
      </trkpt>
      <trkpt lat="51.685264986008406" lon="0.574090965092182">
        <ele>52</ele>
        <time>2018-02-18T09:21:30Z</time>
      </trkpt>
      <trkpt lat="51.685288036242127" lon="0.574116026982665">
        <ele>52</ele>
        <time>2018-02-18T09:21:32Z</time>
      </trkpt>
      <trkpt lat="51.685304967686534" lon="0.574138993397355">
        <ele>52</ele>
        <time>2018-02-18T09:21:34Z</time>
      </trkpt>
      <trkpt lat="51.685327012091875" lon="0.574161037802696">
        <ele>52</ele>
        <time>2018-02-18T09:21:36Z</time>
      </trkpt>
      <trkpt lat="51.685345033183694" lon="0.574181992560625">
        <ele>52</ele>
        <time>2018-02-18T09:21:38Z</time>
      </trkpt>
      <trkpt lat="51.685367999598384" lon="0.574204036965966">
        <ele>52</ele>
        <time>2018-02-18T09:21:40Z</time>
      </trkpt>
      <trkpt lat="51.685393983498216" lon="0.574227003380656">
        <ele>52</ele>
        <time>2018-02-18T09:21:42Z</time>
      </trkpt>
      <trkpt lat="51.685419967398047" lon="0.574248963966966">
        <ele>52</ele>
        <time>2018-02-18T09:21:44Z</time>
      </trkpt>
      <trkpt lat="51.685446035116911" lon="0.574266985058784">
        <ele>52</ele>
        <time>2018-02-18T09:21:46Z</time>
      </trkpt>
      <trkpt lat="51.685474030673504" lon="0.5742799770087">
        <ele>52</ele>
        <time>2018-02-18T09:21:48Z</time>
      </trkpt>
      <trkpt lat="51.685494985431433" lon="0.574303027242422">
        <ele>52</ele>
        <time>2018-02-18T09:21:50Z</time>
      </trkpt>
      <trkpt lat="51.685478975996375" lon="0.574318030849099">
        <ele>52</ele>
        <time>2018-02-18T09:21:52Z</time>
      </trkpt>
      <trkpt lat="51.685460032895207" lon="0.574331022799015">
        <ele>52</ele>
        <time>2018-02-18T09:21:54Z</time>
      </trkpt>
      <trkpt lat="51.685446035116911" lon="0.574360024183989">
        <ele>52</ele>
        <time>2018-02-18T09:21:57Z</time>
      </trkpt>
      <trkpt lat="51.685442011803389" lon="0.574393970891833">
        <ele>52</ele>
        <time>2018-02-18T09:22:11Z</time>
      </trkpt>
      <trkpt lat="51.685441005975008" lon="0.574425989761949">
        <ele>52</ele>
        <time>2018-02-18T09:22:14Z</time>
      </trkpt>
      <trkpt lat="51.685443017631769" lon="0.57447200641036">
        <ele>52</ele>
        <time>2018-02-18T09:22:16Z</time>
      </trkpt>
      <trkpt lat="51.685443017631769" lon="0.574506958946586">
        <ele>52</ele>
        <time>2018-02-18T09:22:18Z</time>
      </trkpt>
      <trkpt lat="51.68544402346015" lon="0.574545012786984">
        <ele>51</ele>
        <time>2018-02-18T09:22:20Z</time>
      </trkpt>
      <trkpt lat="51.685447040945292" lon="0.574574014171958">
        <ele>51</ele>
        <time>2018-02-18T09:22:22Z</time>
      </trkpt>
      <trkpt lat="51.685455003753304" lon="0.574613995850086">
        <ele>51</ele>
        <time>2018-02-18T09:22:24Z</time>
      </trkpt>
      <trkpt lat="51.685461960732937" lon="0.574651965871453">
        <ele>51</ele>
        <time>2018-02-18T09:22:26Z</time>
      </trkpt>
      <trkpt lat="51.685464978218079" lon="0.574690019711852">
        <ele>51</ele>
        <time>2018-02-18T09:22:28Z</time>
      </trkpt>
      <trkpt lat="51.68546698987484" lon="0.57473000138998">
        <ele>51</ele>
        <time>2018-02-18T09:22:30Z</time>
      </trkpt>
      <trkpt lat="51.685471013188362" lon="0.574768977239728">
        <ele>51</ele>
        <time>2018-02-18T09:22:32Z</time>
      </trkpt>
      <trkpt lat="51.685475958511233" lon="0.574804013594985">
        <ele>51</ele>
        <time>2018-02-18T09:22:34Z</time>
      </trkpt>
      <trkpt lat="51.685481993481517" lon="0.574843995273113">
        <ele>51</ele>
        <time>2018-02-18T09:22:36Z</time>
      </trkpt>
      <trkpt lat="51.685485010966659" lon="0.574894035235047">
        <ele>51</ele>
        <time>2018-02-18T09:22:38Z</time>
      </trkpt>
      <trkpt lat="51.68548702262342" lon="0.574952038004994">
        <ele>51</ele>
        <time>2018-02-18T09:22:40Z</time>
      </trkpt>
      <trkpt lat="51.685489034280181" lon="0.574983973056078">
        <ele>50.049501939015997</ele>
        <time>2018-02-18T09:22:41Z</time>
      </trkpt>
      <trkpt lat="51.68549096211791" lon="0.575015991926193">
        <ele>50</ele>
        <time>2018-02-18T09:22:42Z</time>
      </trkpt>
      <trkpt lat="51.685491967946291" lon="0.575048010796309">
        <ele>50.916675555555599</ele>
        <time>2018-02-18T09:22:43Z</time>
      </trkpt>
      <trkpt lat="51.685493979603052" lon="0.575078018009663">
        <ele>51</ele>
        <time>2018-02-18T09:22:44Z</time>
      </trkpt>
      <trkpt lat="51.685495991259813" lon="0.575109031051397">
        <ele>51</ele>
        <time>2018-02-18T09:22:45Z</time>
      </trkpt>
      <trkpt lat="51.685498002916574" lon="0.5751399602741">
        <ele>51</ele>
        <time>2018-02-18T09:22:46Z</time>
      </trkpt>
      <trkpt lat="51.685503032058477" lon="0.575169967487454">
        <ele>51</ele>
        <time>2018-02-18T09:22:47Z</time>
      </trkpt>
      <trkpt lat="51.685507977381349" lon="0.575203998014331">
        <ele>51</ele>
        <time>2018-02-18T09:22:48Z</time>
      </trkpt>
      <trkpt lat="51.685514012351632" lon="0.575236016884446">
        <ele>51</ele>
        <time>2018-02-18T09:22:49Z</time>
      </trkpt>
      <trkpt lat="51.685519041493535" lon="0.575269963592291">
        <ele>51</ele>
        <time>2018-02-18T09:22:50Z</time>
      </trkpt>
      <trkpt lat="51.685521975159645" lon="0.575301982462406">
        <ele>51</ele>
        <time>2018-02-18T09:22:51Z</time>
      </trkpt>
      <trkpt lat="51.685525998473167" lon="0.57533198967576">
        <ele>51</ele>
        <time>2018-02-18T09:22:52Z</time>
      </trkpt>
      <trkpt lat="51.68553396128118" lon="0.575364008545876">
        <ele>50.039999999999999</ele>
        <time>2018-02-18T09:22:53Z</time>
      </trkpt>
      <trkpt lat="51.685539996251464" lon="0.575396027415991">
        <ele>50</ele>
        <time>2018-02-18T09:22:54Z</time>
      </trkpt>
      <trkpt lat="51.685541002079844" lon="0.575430979952216">
        <ele>51.920791828251303</ele>
        <time>2018-02-18T09:22:55Z</time>
      </trkpt>
      <trkpt lat="51.685544019564986" lon="0.575467022135854">
        <ele>52</ele>
        <time>2018-02-18T09:22:56Z</time>
      </trkpt>
      <trkpt lat="51.685547037050128" lon="0.57550398632884">
        <ele>52</ele>
        <time>2018-02-18T09:22:57Z</time>
      </trkpt>
      <trkpt lat="51.685549970716238" lon="0.575540028512478">
        <ele>52</ele>
        <time>2018-02-18T09:22:58Z</time>
      </trkpt>
      <trkpt lat="51.685551982372999" lon="0.575580010190606">
        <ele>52</ele>
        <time>2018-02-18T09:22:59Z</time>
      </trkpt>
      <trkpt lat="51.685558017343283" lon="0.575617980211973">
        <ele>52</ele>
        <time>2018-02-18T09:23:00Z</time>
      </trkpt>
      <trkpt lat="51.685562040656805" lon="0.575657961890101">
        <ele>52</ele>
        <time>2018-02-18T09:23:01Z</time>
      </trkpt>
      <trkpt lat="51.685563968494534" lon="0.575699033215642">
        <ele>52</ele>
        <time>2018-02-18T09:23:02Z</time>
      </trkpt>
      <trkpt lat="51.685566985979676" lon="0.575734991580248">
        <ele>52</ele>
        <time>2018-02-18T09:23:03Z</time>
      </trkpt>
      <trkpt lat="51.685570003464818" lon="0.575770027935505">
        <ele>52</ele>
        <time>2018-02-18T09:23:04Z</time>
      </trkpt>
      <trkpt lat="51.68557302094996" lon="0.57580397464335">
        <ele>52</ele>
        <time>2018-02-18T09:23:05Z</time>
      </trkpt>
      <trkpt lat="51.685577966272831" lon="0.575841022655368">
        <ele>51.051543262823103</ele>
        <time>2018-02-18T09:23:06Z</time>
      </trkpt>
      <trkpt lat="51.685586012899876" lon="0.575874969363213">
        <ele>51</ele>
        <time>2018-02-18T09:23:07Z</time>
      </trkpt>
      <trkpt lat="51.685593975707889" lon="0.57591101154685">
        <ele>51</ele>
        <time>2018-02-18T09:23:08Z</time>
      </trkpt>
      <trkpt lat="51.685600010678172" lon="0.575948981568217">
        <ele>51</ele>
        <time>2018-02-18T09:23:09Z</time>
      </trkpt>
      <trkpt lat="51.685606967657804" lon="0.575985023751855">
        <ele>51.746155057994102</ele>
        <time>2018-02-18T09:23:10Z</time>
      </trkpt>
      <trkpt lat="51.685611996799707" lon="0.57601997628808">
        <ele>52</ele>
        <time>2018-02-18T09:23:11Z</time>
      </trkpt>
      <trkpt lat="51.685619037598372" lon="0.576055012643337">
        <ele>51.950003199999998</ele>
        <time>2018-02-18T09:23:12Z</time>
      </trkpt>
      <trkpt lat="51.685622977092862" lon="0.576088959351182">
        <ele>51</ele>
        <time>2018-02-18T09:23:13Z</time>
      </trkpt>
      <trkpt lat="51.685628006234765" lon="0.576129024848342">
        <ele>51</ele>
        <time>2018-02-18T09:23:14Z</time>
      </trkpt>
      <trkpt lat="51.685633035376668" lon="0.57616800069809">
        <ele>51</ele>
        <time>2018-02-18T09:23:15Z</time>
      </trkpt>
      <trkpt lat="51.685637980699539" lon="0.576209994032979">
        <ele>51</ele>
        <time>2018-02-18T09:23:16Z</time>
      </trkpt>
      <trkpt lat="51.685644015669823" lon="0.576247964054346">
        <ele>51</ele>
        <time>2018-02-18T09:23:17Z</time>
      </trkpt>
      <trkpt lat="51.685648960992694" lon="0.576287023723125">
        <ele>51</ele>
        <time>2018-02-18T09:23:18Z</time>
      </trkpt>
      <trkpt lat="51.685652984306216" lon="0.576324993744493">
        <ele>51</ele>
        <time>2018-02-18T09:23:19Z</time>
      </trkpt>
      <trkpt lat="51.685657007619739" lon="0.57636296376586">
        <ele>51</ele>
        <time>2018-02-18T09:23:20Z</time>
      </trkpt>
      <trkpt lat="51.685662036761642" lon="0.576402023434639">
        <ele>51</ele>
        <time>2018-02-18T09:23:21Z</time>
      </trkpt>
      <trkpt lat="51.685671005398035" lon="0.576435970142484">
        <ele>51</ele>
        <time>2018-02-18T09:23:22Z</time>
      </trkpt>
      <trkpt lat="51.685676034539938" lon="0.576473018154502">
        <ele>51</ele>
        <time>2018-02-18T09:23:23Z</time>
      </trkpt>
      <trkpt lat="51.685679974034429" lon="0.576507970690727">
        <ele>51</ele>
        <time>2018-02-18T09:23:24Z</time>
      </trkpt>
      <trkpt lat="51.68568299151957" lon="0.576540995389223">
        <ele>51</ele>
        <time>2018-02-18T09:23:25Z</time>
      </trkpt>
      <trkpt lat="51.685689026489854" lon="0.57657795958221">
        <ele>51</ele>
        <time>2018-02-18T09:23:26Z</time>
      </trkpt>
      <trkpt lat="51.685699000954628" lon="0.576616013422608">
        <ele>51</ele>
        <time>2018-02-18T09:23:27Z</time>
      </trkpt>
      <trkpt lat="51.685706963762641" lon="0.576651971787214">
        <ele>51</ele>
        <time>2018-02-18T09:23:28Z</time>
      </trkpt>
      <trkpt lat="51.685715010389686" lon="0.576691031455994">
        <ele>51</ele>
        <time>2018-02-18T09:23:29Z</time>
      </trkpt>
      <trkpt lat="51.685721967369318" lon="0.57672799564898">
        <ele>51</ele>
        <time>2018-02-18T09:23:30Z</time>
      </trkpt>
      <trkpt lat="51.685731019824743" lon="0.576762026175857">
        <ele>50.940005632072101</ele>
        <time>2018-02-18T09:23:31Z</time>
      </trkpt>
      <trkpt lat="51.685742000117898" lon="0.576797984540462">
        <ele>50</ele>
        <time>2018-02-18T09:23:32Z</time>
      </trkpt>
      <trkpt lat="51.685747029259801" lon="0.5768340267241">
        <ele>50</ele>
        <time>2018-02-18T09:23:33Z</time>
      </trkpt>
      <trkpt lat="51.685749962925911" lon="0.576862022280693">
        <ele>50</ele>
        <time>2018-02-18T09:23:34Z</time>
      </trkpt>
      <trkpt lat="51.685764966532588" lon="0.576902003958821">
        <ele>50</ele>
        <time>2018-02-18T09:23:36Z</time>
      </trkpt>
      <trkpt lat="51.685798997059464" lon="0.576902003958821">
        <ele>50</ele>
        <time>2018-02-18T09:23:38Z</time>
      </trkpt>
      <trkpt lat="51.685816012322903" lon="0.576912984251976">
        <ele>50</ele>
        <time>2018-02-18T09:23:39Z</time>
      </trkpt>
      <trkpt lat="51.68583101592958" lon="0.57694198563695">
        <ele>50</ele>
        <time>2018-02-18T09:23:40Z</time>
      </trkpt>
      <trkpt lat="51.685843002051115" lon="0.57698498480022">
        <ele>50</ele>
        <time>2018-02-18T09:23:41Z</time>
      </trkpt>
      <trkpt lat="51.685848031193018" lon="0.577025972306728">
        <ele>50</ele>
        <time>2018-02-18T09:23:42Z</time>
      </trkpt>
      <trkpt lat="51.685850964859128" lon="0.577062014490366">
        <ele>50</ele>
        <time>2018-02-18T09:23:43Z</time>
      </trkpt>
      <trkpt lat="51.68585498817265" lon="0.577109036967158">
        <ele>50</ele>
        <time>2018-02-18T09:23:45Z</time>
      </trkpt>
      <trkpt lat="51.685851970687509" lon="0.577149018645287">
        <ele>50.9716952652361</ele>
        <time>2018-02-18T09:23:47Z</time>
      </trkpt>
      <trkpt lat="51.685852976515889" lon="0.577191011980176">
        <ele>51</ele>
        <time>2018-02-18T09:23:49Z</time>
      </trkpt>
      <trkpt lat="51.685861023142934" lon="0.577253960072994">
        <ele>51</ele>
        <time>2018-02-18T09:23:51Z</time>
      </trkpt>
      <trkpt lat="51.685864040628076" lon="0.577297965064645">
        <ele>51</ele>
        <time>2018-02-18T09:23:52Z</time>
      </trkpt>
      <trkpt lat="51.685866974294186" lon="0.577339958399534">
        <ele>50.960000000000001</ele>
        <time>2018-02-18T09:23:53Z</time>
      </trkpt>
      <trkpt lat="51.685868985950947" lon="0.577382035553455">
        <ele>50</ele>
        <time>2018-02-18T09:23:54Z</time>
      </trkpt>
      <trkpt lat="51.685870997607708" lon="0.577420005574822">
        <ele>50</ele>
        <time>2018-02-18T09:23:55Z</time>
      </trkpt>
      <trkpt lat="51.685870997607708" lon="0.57745898142457">
        <ele>50</ele>
        <time>2018-02-18T09:23:56Z</time>
      </trkpt>
      <trkpt lat="51.685869991779327" lon="0.577496029436588">
        <ele>50</ele>
        <time>2018-02-18T09:23:57Z</time>
      </trkpt>
      <trkpt lat="51.685867980122566" lon="0.577535005286336">
        <ele>50</ele>
        <time>2018-02-18T09:23:58Z</time>
      </trkpt>
      <trkpt lat="51.685865968465805" lon="0.577568029984832">
        <ele>50</ele>
        <time>2018-02-18T09:23:59Z</time>
      </trkpt>
      <trkpt lat="51.685872003436089" lon="0.577624021098018">
        <ele>50</ele>
        <time>2018-02-18T09:24:01Z</time>
      </trkpt>
      <trkpt lat="51.685903016477823" lon="0.577660985291004">
        <ele>51</ele>
        <time>2018-02-18T09:24:03Z</time>
      </trkpt>
      <trkpt lat="51.685927994549274" lon="0.577672971412539">
        <ele>51</ele>
        <time>2018-02-18T09:24:04Z</time>
      </trkpt>
      <trkpt lat="51.685951966792345" lon="0.577681018039584">
        <ele>51</ele>
        <time>2018-02-18T09:24:05Z</time>
      </trkpt>
      <trkpt lat="51.685975017026067" lon="0.577691998332739">
        <ele>51</ele>
        <time>2018-02-18T09:24:06Z</time>
      </trkpt>
      <trkpt lat="51.685993038117886" lon="0.577707001939416">
        <ele>51</ele>
        <time>2018-02-18T09:24:07Z</time>
      </trkpt>
      <trkpt lat="51.68600401841104" lon="0.577730974182487">
        <ele>51</ele>
        <time>2018-02-18T09:24:08Z</time>
      </trkpt>
      <trkpt lat="51.686008963733912" lon="0.577760981395841">
        <ele>51</ele>
        <time>2018-02-18T09:24:09Z</time>
      </trkpt>
      <trkpt lat="51.686008963733912" lon="0.577794006094337">
        <ele>51</ele>
        <time>2018-02-18T09:24:10Z</time>
      </trkpt>
      <trkpt lat="51.686005024239421" lon="0.577828036621213">
        <ele>51</ele>
        <time>2018-02-18T09:24:11Z</time>
      </trkpt>
      <trkpt lat="51.685999995097518" lon="0.577865000814199">
        <ele>50.939994368072099</ele>
        <time>2018-02-18T09:24:12Z</time>
      </trkpt>
      <trkpt lat="51.685993960127234" lon="0.577900037169456">
        <ele>50</ele>
        <time>2018-02-18T09:24:13Z</time>
      </trkpt>
      <trkpt lat="51.685989014804363" lon="0.577935995534062">
        <ele>50</ele>
        <time>2018-02-18T09:24:14Z</time>
      </trkpt>
      <trkpt lat="51.68598398566246" lon="0.577977988868952">
        <ele>50</ele>
        <time>2018-02-18T09:24:15Z</time>
      </trkpt>
      <trkpt lat="51.685978034511209" lon="0.578024005517364">
        <ele>50</ele>
        <time>2018-02-18T09:24:16Z</time>
      </trkpt>
      <trkpt lat="51.685971999540925" lon="0.578071027994156">
        <ele>50</ele>
        <time>2018-02-18T09:24:17Z</time>
      </trkpt>
      <trkpt lat="51.685966970399022" lon="0.578112015500665">
        <ele>50</ele>
        <time>2018-02-18T09:24:18Z</time>
      </trkpt>
      <trkpt lat="51.685962025076151" lon="0.578150991350412">
        <ele>50</ele>
        <time>2018-02-18T09:24:19Z</time>
      </trkpt>
      <trkpt lat="51.685955990105867" lon="0.57818996720016">
        <ele>50</ele>
        <time>2018-02-18T09:24:20Z</time>
      </trkpt>
      <trkpt lat="51.685952972620726" lon="0.578229026868939">
        <ele>50</ele>
        <time>2018-02-18T09:24:21Z</time>
      </trkpt>
      <trkpt lat="51.685949033126235" lon="0.578268002718687">
        <ele>50</ele>
        <time>2018-02-18T09:24:22Z</time>
      </trkpt>
      <trkpt lat="51.685946015641093" lon="0.578308990225196">
        <ele>50</ele>
        <time>2018-02-18T09:24:23Z</time>
      </trkpt>
      <trkpt lat="51.685942998155951" lon="0.578351989388466">
        <ele>50</ele>
        <time>2018-02-18T09:24:24Z</time>
      </trkpt>
      <trkpt lat="51.685942998155951" lon="0.578392976894975">
        <ele>50</ele>
        <time>2018-02-18T09:24:25Z</time>
      </trkpt>
      <trkpt lat="51.685945009812713" lon="0.578433964401484">
        <ele>50</ele>
        <time>2018-02-18T09:24:26Z</time>
      </trkpt>
      <trkpt lat="51.685949033126235" lon="0.578470006585121">
        <ele>50</ele>
        <time>2018-02-18T09:24:27Z</time>
      </trkpt>
      <trkpt lat="51.685951966792345" lon="0.578507976606488">
        <ele>50</ele>
        <time>2018-02-18T09:24:28Z</time>
      </trkpt>
      <trkpt lat="51.685955990105867" lon="0.578546030446887">
        <ele>50</ele>
        <time>2018-02-18T09:24:29Z</time>
      </trkpt>
      <trkpt lat="51.685956995934248" lon="0.578587017953396">
        <ele>50</ele>
        <time>2018-02-18T09:24:30Z</time>
      </trkpt>
      <trkpt lat="51.685954984277487" lon="0.578629011288285">
        <ele>50</ele>
        <time>2018-02-18T09:24:31Z</time>
      </trkpt>
      <trkpt lat="51.685954984277487" lon="0.578668992966414">
        <ele>50</ele>
        <time>2018-02-18T09:24:32Z</time>
      </trkpt>
      <trkpt lat="51.685955990105867" lon="0.578708974644542">
        <ele>50</ele>
        <time>2018-02-18T09:24:33Z</time>
      </trkpt>
      <trkpt lat="51.685959007591009" lon="0.578747028484941">
        <ele>50</ele>
        <time>2018-02-18T09:24:34Z</time>
      </trkpt>
      <trkpt lat="51.68596001341939" lon="0.578783992677927">
        <ele>50</ele>
        <time>2018-02-18T09:24:35Z</time>
      </trkpt>
      <trkpt lat="51.68596001341939" lon="0.578813999891281">
        <ele>50</ele>
        <time>2018-02-18T09:24:36Z</time>
      </trkpt>
      <trkpt lat="51.68596001341939" lon="0.578855993226171">
        <ele>50</ele>
        <time>2018-02-18T09:24:38Z</time>
      </trkpt>
      <trkpt lat="51.685954984277487" lon="0.578888012096286">
        <ele>50</ele>
        <time>2018-02-18T09:24:41Z</time>
      </trkpt>
      <trkpt lat="51.685946015641093" lon="0.578912990167737">
        <ele>51</ele>
        <time>2018-02-18T09:24:45Z</time>
      </trkpt>
      <trkpt lat="51.685936041176319" lon="0.578960012644529">
        <ele>51</ele>
        <time>2018-02-18T09:24:47Z</time>
      </trkpt>
      <trkpt lat="51.685929000377655" lon="0.579018015414476">
        <ele>50</ele>
        <time>2018-02-18T09:24:49Z</time>
      </trkpt>
      <trkpt lat="51.685925982892513" lon="0.57904701679945">
        <ele>50</ele>
        <time>2018-02-18T09:24:50Z</time>
      </trkpt>
      <trkpt lat="51.685924977064133" lon="0.579080963507295">
        <ele>50</ele>
        <time>2018-02-18T09:24:51Z</time>
      </trkpt>
      <trkpt lat="51.685919025912881" lon="0.579113988205791">
        <ele>50</ele>
        <time>2018-02-18T09:24:52Z</time>
      </trkpt>
      <trkpt lat="51.685912990942597" lon="0.579147012904286">
        <ele>50</ele>
        <time>2018-02-18T09:24:53Z</time>
      </trkpt>
      <trkpt lat="51.685907961800694" lon="0.579179031774402">
        <ele>50</ele>
        <time>2018-02-18T09:24:54Z</time>
      </trkpt>
      <trkpt lat="51.685906033962965" lon="0.579209960997105">
        <ele>50</ele>
        <time>2018-02-18T09:24:55Z</time>
      </trkpt>
      <trkpt lat="51.685901004821062" lon="0.579238040372729">
        <ele>50.9722311111111</ele>
        <time>2018-02-18T09:24:56Z</time>
      </trkpt>
      <trkpt lat="51.685893964022398" lon="0.579267041757703">
        <ele>51</ele>
        <time>2018-02-18T09:24:57Z</time>
      </trkpt>
      <trkpt lat="51.685889018699527" lon="0.579298976808786">
        <ele>51</ele>
        <time>2018-02-18T09:24:58Z</time>
      </trkpt>
      <trkpt lat="51.685882983729243" lon="0.579329989850521">
        <ele>51</ele>
        <time>2018-02-18T09:24:59Z</time>
      </trkpt>
      <trkpt lat="51.685880972072482" lon="0.579361002892256">
        <ele>51</ele>
        <time>2018-02-18T09:25:00Z</time>
      </trkpt>
      <trkpt lat="51.685876026749611" lon="0.579411964863539">
        <ele>51</ele>
        <time>2018-02-18T09:25:02Z</time>
      </trkpt>
      <trkpt lat="51.685878038406372" lon="0.579459993168712">
        <ele>50.939994368072099</ele>
        <time>2018-02-18T09:25:04Z</time>
      </trkpt>
      <trkpt lat="51.685895975679159" lon="0.579501986503601">
        <ele>50.020401765889098</ele>
        <time>2018-02-18T09:25:06Z</time>
      </trkpt>
      <trkpt lat="51.685923971235752" lon="0.579517995938659">
        <ele>51</ele>
        <time>2018-02-18T09:25:08Z</time>
      </trkpt>
      <trkpt lat="51.685952972620726" lon="0.579539034515619">
        <ele>51</ele>
        <time>2018-02-18T09:25:10Z</time>
      </trkpt>
      <trkpt lat="51.685977028682828" lon="0.579565018415451">
        <ele>51</ele>
        <time>2018-02-18T09:25:12Z</time>
      </trkpt>
      <trkpt lat="51.68600301258266" lon="0.57958303950727">
        <ele>50</ele>
        <time>2018-02-18T09:25:14Z</time>
      </trkpt>
      <trkpt lat="51.686020027846098" lon="0.579588990658522">
        <ele>51</ele>
        <time>2018-02-18T09:25:16Z</time>
      </trkpt>
      <trkpt lat="51.686041988432407" lon="0.579591002315283">
        <ele>51</ele>
        <time>2018-02-18T09:25:18Z</time>
      </trkpt>
      <trkpt lat="51.686060009524226" lon="0.579603994265199">
        <ele>51</ele>
        <time>2018-02-18T09:25:19Z</time>
      </trkpt>
      <trkpt lat="51.686078030616045" lon="0.579617992043495">
        <ele>51</ele>
        <time>2018-02-18T09:25:20Z</time>
      </trkpt>
      <trkpt lat="51.686109965667129" lon="0.579638024792075">
        <ele>51</ele>
        <time>2018-02-18T09:25:22Z</time>
      </trkpt>
      <trkpt lat="51.686139972880483" lon="0.579634001478553">
        <ele>51</ele>
        <time>2018-02-18T09:25:24Z</time>
      </trkpt>
      <trkpt lat="51.686163023114204" lon="0.579627966508269">
        <ele>51</ele>
        <time>2018-02-18T09:25:27Z</time>
      </trkpt>
      <trkpt lat="51.686194036155939" lon="0.579640036448836">
        <ele>51</ele>
        <time>2018-02-18T09:25:30Z</time>
      </trkpt>
      <trkpt lat="51.686224965378642" lon="0.579655040055513">
        <ele>51</ele>
        <time>2018-02-18T09:25:32Z</time>
      </trkpt>
      <trkpt lat="51.686253966763616" lon="0.579669959843159">
        <ele>51</ele>
        <time>2018-02-18T09:25:34Z</time>
      </trkpt>
      <trkpt lat="51.686268970370293" lon="0.579688986763358">
        <ele>51</ele>
        <time>2018-02-18T09:25:35Z</time>
      </trkpt>
      <trkpt lat="51.686295960098505" lon="0.579719999805093">
        <ele>51</ele>
        <time>2018-02-18T09:25:37Z</time>
      </trkpt>
      <trkpt lat="51.686312975361943" lon="0.579730980098248">
        <ele>51</ele>
        <time>2018-02-18T09:25:38Z</time>
      </trkpt>
      <trkpt lat="51.686330996453762" lon="0.579739026725292">
        <ele>51</ele>
        <time>2018-02-18T09:25:39Z</time>
      </trkpt>
      <trkpt lat="51.686367960646749" lon="0.57975796982646">
        <ele>51</ele>
        <time>2018-02-18T09:25:41Z</time>
      </trkpt>
      <trkpt lat="51.686387993395329" lon="0.579768028110266">
        <ele>51</ele>
        <time>2018-02-18T09:25:42Z</time>
      </trkpt>
      <trkpt lat="51.686407020315528" lon="0.579775990918279">
        <ele>51</ele>
        <time>2018-02-18T09:25:43Z</time>
      </trkpt>
      <trkpt lat="51.686430992558599" lon="0.579788982868195">
        <ele>51</ele>
        <time>2018-02-18T09:25:44Z</time>
      </trkpt>
      <trkpt lat="51.686453958973289" lon="0.579797029495239">
        <ele>51</ele>
        <time>2018-02-18T09:25:45Z</time>
      </trkpt>
      <trkpt lat="51.686474997550249" lon="0.57979803532362">
        <ele>50.9494983450559</ele>
        <time>2018-02-18T09:25:46Z</time>
      </trkpt>
      <trkpt lat="51.686495030298829" lon="0.579799041152">
        <ele>50</ele>
        <time>2018-02-18T09:25:47Z</time>
      </trkpt>
      <trkpt lat="51.686529982835054" lon="0.579815972596407">
        <ele>51</ele>
        <time>2018-02-18T09:25:49Z</time>
      </trkpt>
      <trkpt lat="51.686546998098493" lon="0.579828964546323">
        <ele>51</ele>
        <time>2018-02-18T09:25:50Z</time>
      </trkpt>
      <trkpt lat="51.686569964513183" lon="0.579838017001748">
        <ele>51</ele>
        <time>2018-02-18T09:25:51Z</time>
      </trkpt>
      <trkpt lat="51.686594020575285" lon="0.57984497398138">
        <ele>51</ele>
        <time>2018-02-18T09:25:52Z</time>
      </trkpt>
      <trkpt lat="51.686617992818356" lon="0.579853020608425">
        <ele>51</ele>
        <time>2018-02-18T09:25:53Z</time>
      </trkpt>
      <trkpt lat="51.686640959233046" lon="0.57986500672996">
        <ele>51</ele>
        <time>2018-02-18T09:25:54Z</time>
      </trkpt>
      <trkpt lat="51.686667026951909" lon="0.579874981194735">
        <ele>51</ele>
        <time>2018-02-18T09:25:55Z</time>
      </trkpt>
      <trkpt lat="51.686694016680121" lon="0.579882021993399">
        <ele>51</ele>
        <time>2018-02-18T09:25:56Z</time>
      </trkpt>
      <trkpt lat="51.686721006408334" lon="0.579885961487889">
        <ele>51</ele>
        <time>2018-02-18T09:25:57Z</time>
      </trkpt>
      <trkpt lat="51.686746990308166" lon="0.579895013943315">
        <ele>51.059411712522298</ele>
        <time>2018-02-18T09:25:58Z</time>
      </trkpt>
      <trkpt lat="51.686771968379617" lon="0.579905994236469">
        <ele>52</ele>
        <time>2018-02-18T09:25:59Z</time>
      </trkpt>
      <trkpt lat="51.6867970302701" lon="0.579917980358005">
        <ele>52</ele>
        <time>2018-02-18T09:26:00Z</time>
      </trkpt>
      <trkpt lat="51.68681999668479" lon="0.579928960651159">
        <ele>52</ele>
        <time>2018-02-18T09:26:01Z</time>
      </trkpt>
      <trkpt lat="51.686839023604989" lon="0.579940024763346">
        <ele>51.950003199999998</ele>
        <time>2018-02-18T09:26:02Z</time>
      </trkpt>
      <trkpt lat="51.686860984191298" lon="0.579953016713262">
        <ele>51</ele>
        <time>2018-02-18T09:26:03Z</time>
      </trkpt>
      <trkpt lat="51.686882022768259" lon="0.579965002834797">
        <ele>51</ele>
        <time>2018-02-18T09:26:04Z</time>
      </trkpt>
      <trkpt lat="51.686904989182949" lon="0.579974977299571">
        <ele>51</ele>
        <time>2018-02-18T09:26:05Z</time>
      </trkpt>
      <trkpt lat="51.68692896142602" lon="0.579985035583377">
        <ele>51</ele>
        <time>2018-02-18T09:26:06Z</time>
      </trkpt>
      <trkpt lat="51.686953017488122" lon="0.579988975077868">
        <ele>51</ele>
        <time>2018-02-18T09:26:07Z</time>
      </trkpt>
      <trkpt lat="51.686979001387954" lon="0.57999400421977">
        <ele>51</ele>
        <time>2018-02-18T09:26:08Z</time>
      </trkpt>
      <trkpt lat="51.687002973631024" lon="0.579999033361673">
        <ele>51</ele>
        <time>2018-02-18T09:26:09Z</time>
      </trkpt>
      <trkpt lat="51.687027029693127" lon="0.580002972856164">
        <ele>51</ele>
        <time>2018-02-18T09:26:10Z</time>
      </trkpt>
      <trkpt lat="51.687047984451056" lon="0.580011019483209">
        <ele>51</ele>
        <time>2018-02-18T09:26:11Z</time>
      </trkpt>
      <trkpt lat="51.687070028856397" lon="0.580024011433125">
        <ele>51</ele>
        <time>2018-02-18T09:26:12Z</time>
      </trkpt>
      <trkpt lat="51.687091989442706" lon="0.580038009211421">
        <ele>51</ele>
        <time>2018-02-18T09:26:13Z</time>
      </trkpt>
      <trkpt lat="51.687111016362906" lon="0.580049995332956">
        <ele>51</ele>
        <time>2018-02-18T09:26:14Z</time>
      </trkpt>
      <trkpt lat="51.687130965292454" lon="0.580064998939633">
        <ele>51</ele>
        <time>2018-02-18T09:26:15Z</time>
      </trkpt>
      <trkpt lat="51.687158038839698" lon="0.580089977011085">
        <ele>51</ele>
        <time>2018-02-18T09:26:17Z</time>
      </trkpt>
      <trkpt lat="51.687176981940866" lon="0.580104980617762">
        <ele>51</ele>
        <time>2018-02-18T09:26:18Z</time>
      </trkpt>
      <trkpt lat="51.687199026346207" lon="0.580117972567678">
        <ele>51</ele>
        <time>2018-02-18T09:26:19Z</time>
      </trkpt>
      <trkpt lat="51.687225010246038" lon="0.580126019194722">
        <ele>51</ele>
        <time>2018-02-18T09:26:20Z</time>
      </trkpt>
      <trkpt lat="51.68724998831749" lon="0.580129958689213">
        <ele>51</ele>
        <time>2018-02-18T09:26:21Z</time>
      </trkpt>
      <trkpt lat="51.68727102689445" lon="0.58014202862978">
        <ele>51</ele>
        <time>2018-02-18T09:26:22Z</time>
      </trkpt>
      <trkpt lat="51.687291981652379" lon="0.580154014751315">
        <ele>51</ele>
        <time>2018-02-18T09:26:23Z</time>
      </trkpt>
      <trkpt lat="51.687315031886101" lon="0.58016499504447">
        <ele>51</ele>
        <time>2018-02-18T09:26:24Z</time>
      </trkpt>
      <trkpt lat="51.687337998300791" lon="0.580173963680863">
        <ele>51</ele>
        <time>2018-02-18T09:26:25Z</time>
      </trkpt>
      <trkpt lat="51.687362976372242" lon="0.580181004479527">
        <ele>51</ele>
        <time>2018-02-18T09:26:26Z</time>
      </trkpt>
      <trkpt lat="51.687386026605964" lon="0.580187039449811">
        <ele>51</ele>
        <time>2018-02-18T09:26:27Z</time>
      </trkpt>
      <trkpt lat="51.687408993020654" lon="0.580197013914585">
        <ele>51</ele>
        <time>2018-02-18T09:26:28Z</time>
      </trkpt>
      <trkpt lat="51.687431959435344" lon="0.580206988379359">
        <ele>51</ele>
        <time>2018-02-18T09:26:29Z</time>
      </trkpt>
      <trkpt lat="51.687456015497446" lon="0.580216040834785">
        <ele>51</ele>
        <time>2018-02-18T09:26:30Z</time>
      </trkpt>
      <trkpt lat="51.687479987740517" lon="0.580225009471178">
        <ele>51</ele>
        <time>2018-02-18T09:26:31Z</time>
      </trkpt>
      <trkpt lat="51.687503037974238" lon="0.58023096062243">
        <ele>51</ele>
        <time>2018-02-18T09:26:32Z</time>
      </trkpt>
      <trkpt lat="51.687524998560548" lon="0.580240013077855">
        <ele>51</ele>
        <time>2018-02-18T09:26:33Z</time>
      </trkpt>
      <trkpt lat="51.687546959146857" lon="0.58025099337101">
        <ele>51</ele>
        <time>2018-02-18T09:26:34Z</time>
      </trkpt>
      <trkpt lat="51.687569003552198" lon="0.580259962007403">
        <ele>51</ele>
        <time>2018-02-18T09:26:35Z</time>
      </trkpt>
      <trkpt lat="51.687589958310127" lon="0.580273037776351">
        <ele>51</ele>
        <time>2018-02-18T09:26:36Z</time>
      </trkpt>
      <trkpt lat="51.687612002715468" lon="0.580282006412745">
        <ele>51</ele>
        <time>2018-02-18T09:26:37Z</time>
      </trkpt>
      <trkpt lat="51.687631029635668" lon="0.580291980877519">
        <ele>51</ele>
        <time>2018-02-18T09:26:38Z</time>
      </trkpt>
      <trkpt lat="51.687651984393597" lon="0.580297010019422">
        <ele>51</ele>
        <time>2018-02-18T09:26:39Z</time>
      </trkpt>
      <trkpt lat="51.687676040455699" lon="0.580297010019422">
        <ele>51</ele>
        <time>2018-02-18T09:26:40Z</time>
      </trkpt>
      <trkpt lat="51.687698001042008" lon="0.580300027504563">
        <ele>51</ele>
        <time>2018-02-18T09:26:41Z</time>
      </trkpt>
      <trkpt lat="51.687717027962208" lon="0.580308996140957">
        <ele>51</ele>
        <time>2018-02-18T09:26:42Z</time>
      </trkpt>
      <trkpt lat="51.687734965234995" lon="0.580319976434112">
        <ele>51</ele>
        <time>2018-02-18T09:26:43Z</time>
      </trkpt>
      <trkpt lat="51.687754997983575" lon="0.580331962555647">
        <ele>51</ele>
        <time>2018-02-18T09:26:44Z</time>
      </trkpt>
      <trkpt lat="51.687773019075394" lon="0.580345960333943">
        <ele>51.039604085874302</ele>
        <time>2018-02-18T09:26:45Z</time>
      </trkpt>
      <trkpt lat="51.687792968004942" lon="0.580351995304227">
        <ele>52</ele>
        <time>2018-02-18T09:26:46Z</time>
      </trkpt>
      <trkpt lat="51.687815012410283" lon="0.58036096394062">
        <ele>52</ele>
        <time>2018-02-18T09:26:47Z</time>
      </trkpt>
      <trkpt lat="51.687834039330482" lon="0.580365993082523">
        <ele>52</ele>
        <time>2018-02-18T09:26:48Z</time>
      </trkpt>
      <trkpt lat="51.687854994088411" lon="0.580368004739285">
        <ele>52</ele>
        <time>2018-02-18T09:26:49Z</time>
      </trkpt>
      <trkpt lat="51.687874021008611" lon="0.580372028052807">
        <ele>52</ele>
        <time>2018-02-18T09:26:50Z</time>
      </trkpt>
      <trkpt lat="51.687892964109778" lon="0.580375967547297">
        <ele>52</ele>
        <time>2018-02-18T09:26:51Z</time>
      </trkpt>
      <trkpt lat="51.68791500851512" lon="0.580383008345962">
        <ele>52</ele>
        <time>2018-02-18T09:26:52Z</time>
      </trkpt>
      <trkpt lat="51.6879350412637" lon="0.580389965325594">
        <ele>52.941753243525397</ele>
        <time>2018-02-18T09:26:53Z</time>
      </trkpt>
      <trkpt lat="51.687955996021628" lon="0.580397006124258">
        <ele>53</ele>
        <time>2018-02-18T09:26:54Z</time>
      </trkpt>
      <trkpt lat="51.687977034598589" lon="0.5804000236094">
        <ele>53</ele>
        <time>2018-02-18T09:26:55Z</time>
      </trkpt>
      <trkpt lat="51.687997989356518" lon="0.58040396310389">
        <ele>53</ele>
        <time>2018-02-18T09:26:56Z</time>
      </trkpt>
      <trkpt lat="51.688019027933478" lon="0.580411003902555">
        <ele>53</ele>
        <time>2018-02-18T09:26:57Z</time>
      </trkpt>
      <trkpt lat="51.688040988519788" lon="0.580420978367329">
        <ele>53</ele>
        <time>2018-02-18T09:26:58Z</time>
      </trkpt>
      <trkpt lat="51.688063032925129" lon="0.580429024994373">
        <ele>52.059994367927899</ele>
        <time>2018-02-18T09:26:59Z</time>
      </trkpt>
      <trkpt lat="51.688082981854677" lon="0.580442016944289">
        <ele>52</ele>
        <time>2018-02-18T09:27:00Z</time>
      </trkpt>
      <trkpt lat="51.688104020431638" lon="0.580452997237444">
        <ele>52.940600207842202</ele>
        <time>2018-02-18T09:27:01Z</time>
      </trkpt>
      <trkpt lat="51.688124975189567" lon="0.580460960045457">
        <ele>53</ele>
        <time>2018-02-18T09:27:02Z</time>
      </trkpt>
      <trkpt lat="51.688146013766527" lon="0.580470012500882">
        <ele>53</ele>
        <time>2018-02-18T09:27:03Z</time>
      </trkpt>
      <trkpt lat="51.688166968524456" lon="0.580481998622417">
        <ele>53</ele>
        <time>2018-02-18T09:27:04Z</time>
      </trkpt>
      <trkpt lat="51.688185995444655" lon="0.580492978915572">
        <ele>53</ele>
        <time>2018-02-18T09:27:05Z</time>
      </trkpt>
      <trkpt lat="51.688208961859345" lon="0.580506976693869">
        <ele>53</ele>
        <time>2018-02-18T09:27:06Z</time>
      </trkpt>
      <trkpt lat="51.688233017921448" lon="0.580517034977674">
        <ele>53</ele>
        <time>2018-02-18T09:27:07Z</time>
      </trkpt>
      <trkpt lat="51.688253972679377" lon="0.580527009442449">
        <ele>53</ele>
        <time>2018-02-18T09:27:08Z</time>
      </trkpt>
      <trkpt lat="51.688276017084718" lon="0.580535978078842">
        <ele>53</ele>
        <time>2018-02-18T09:27:09Z</time>
      </trkpt>
      <trkpt lat="51.688297977671027" lon="0.580547964200377">
        <ele>53</ele>
        <time>2018-02-18T09:27:10Z</time>
      </trkpt>
      <trkpt lat="51.68832203373313" lon="0.580555004999042">
        <ele>53</ele>
        <time>2018-02-18T09:27:11Z</time>
      </trkpt>
      <trkpt lat="51.68834500014782" lon="0.580560034140944">
        <ele>53</ele>
        <time>2018-02-18T09:27:12Z</time>
      </trkpt>
      <trkpt lat="51.68836603872478" lon="0.580566991120577">
        <ele>53</ele>
        <time>2018-02-18T09:27:13Z</time>
      </trkpt>
      <trkpt lat="51.68838900513947" lon="0.580576965585351">
        <ele>53</ele>
        <time>2018-02-18T09:27:14Z</time>
      </trkpt>
      <trkpt lat="51.68841096572578" lon="0.580584006384015">
        <ele>53</ele>
        <time>2018-02-18T09:27:15Z</time>
      </trkpt>
      <trkpt lat="51.688433010131121" lon="0.580589035525918">
        <ele>53</ele>
        <time>2018-02-18T09:27:16Z</time>
      </trkpt>
      <trkpt lat="51.688455976545811" lon="0.58059599250555">
        <ele>53</ele>
        <time>2018-02-18T09:27:17Z</time>
      </trkpt>
      <trkpt lat="51.688476009294391" lon="0.580601021647453">
        <ele>53</ele>
        <time>2018-02-18T09:27:18Z</time>
      </trkpt>
      <trkpt lat="51.688520014286041" lon="0.58061895892024">
        <ele>53</ele>
        <time>2018-02-18T09:27:20Z</time>
      </trkpt>
      <trkpt lat="51.688541974872351" lon="0.580625999718905">
        <ele>53</ele>
        <time>2018-02-18T09:27:21Z</time>
      </trkpt>
      <trkpt lat="51.688563013449311" lon="0.580634968355298">
        <ele>53</ele>
        <time>2018-02-18T09:27:22Z</time>
      </trkpt>
      <trkpt lat="51.688584974035621" lon="0.580644020810723">
        <ele>53</ele>
        <time>2018-02-18T09:27:23Z</time>
      </trkpt>
      <trkpt lat="51.688607018440962" lon="0.580653995275497">
        <ele>53</ele>
        <time>2018-02-18T09:27:24Z</time>
      </trkpt>
      <trkpt lat="51.688627973198891" lon="0.580662041902542">
        <ele>53</ele>
        <time>2018-02-18T09:27:25Z</time>
      </trkpt>
      <trkpt lat="51.688650017604232" lon="0.580673022195697">
        <ele>53</ele>
        <time>2018-02-18T09:27:26Z</time>
      </trkpt>
      <trkpt lat="51.68866996653378" lon="0.580682996660471">
        <ele>53</ele>
        <time>2018-02-18T09:27:27Z</time>
      </trkpt>
      <trkpt lat="51.68868999928236" lon="0.580690959468484">
        <ele>53</ele>
        <time>2018-02-18T09:27:28Z</time>
      </trkpt>
      <trkpt lat="51.68871003203094" lon="0.58070101775229">
        <ele>53</ele>
        <time>2018-02-18T09:27:29Z</time>
      </trkpt>
      <trkpt lat="51.688730986788869" lon="0.580714009702206">
        <ele>53</ele>
        <time>2018-02-18T09:27:30Z</time>
      </trkpt>
      <trkpt lat="51.68875303119421" lon="0.580722978338599">
        <ele>53</ele>
        <time>2018-02-18T09:27:31Z</time>
      </trkpt>
      <trkpt lat="51.688771974295378" lon="0.580731024965644">
        <ele>53.060005631927901</ele>
        <time>2018-02-18T09:27:32Z</time>
      </trkpt>
      <trkpt lat="51.688794018700719" lon="0.580737981945276">
        <ele>54</ele>
        <time>2018-02-18T09:27:33Z</time>
      </trkpt>
      <trkpt lat="51.688814973458648" lon="0.580750973895192">
        <ele>54</ele>
        <time>2018-02-18T09:27:34Z</time>
      </trkpt>
      <trkpt lat="51.688836012035608" lon="0.580762960016727">
        <ele>54</ele>
        <time>2018-02-18T09:27:35Z</time>
      </trkpt>
      <trkpt lat="51.688857972621918" lon="0.580775029957294">
        <ele>54.020195751393103</ele>
        <time>2018-02-18T09:27:36Z</time>
      </trkpt>
      <trkpt lat="51.688880017027259" lon="0.580785004422069">
        <ele>55</ele>
        <time>2018-02-18T09:27:37Z</time>
      </trkpt>
      <trkpt lat="51.688902983441949" lon="0.580794978886843">
        <ele>55</ele>
        <time>2018-02-18T09:27:38Z</time>
      </trkpt>
      <trkpt lat="51.688924022018909" lon="0.580806965008378">
        <ele>55</ele>
        <time>2018-02-18T09:27:39Z</time>
      </trkpt>
      <trkpt lat="51.688946988433599" lon="0.580820962786675">
        <ele>55</ele>
        <time>2018-02-18T09:27:40Z</time>
      </trkpt>
      <trkpt lat="51.688970038667321" lon="0.580834960564971">
        <ele>54.976920729005599</ele>
        <time>2018-02-18T09:27:41Z</time>
      </trkpt>
      <trkpt lat="51.688991999253631" lon="0.580846024677157">
        <ele>54.207693746738499</ele>
        <time>2018-02-18T09:27:42Z</time>
      </trkpt>
      <trkpt lat="51.689014965668321" lon="0.580857004970312">
        <ele>54</ele>
        <time>2018-02-18T09:27:43Z</time>
      </trkpt>
      <trkpt lat="51.689037010073662" lon="0.580865973606706">
        <ele>54.0485410349456</ele>
        <time>2018-02-18T09:27:44Z</time>
      </trkpt>
      <trkpt lat="51.689058970659971" lon="0.580877959728241">
        <ele>55</ele>
        <time>2018-02-18T09:27:45Z</time>
      </trkpt>
      <trkpt lat="51.689079003408551" lon="0.580887012183666">
        <ele>55</ele>
        <time>2018-02-18T09:27:46Z</time>
      </trkpt>
      <trkpt lat="51.689096018671989" lon="0.580898998305202">
        <ele>55</ele>
        <time>2018-02-18T09:27:47Z</time>
      </trkpt>
      <trkpt lat="51.689112028107047" lon="0.580912996083498">
        <ele>55</ele>
        <time>2018-02-18T09:27:48Z</time>
      </trkpt>
      <trkpt lat="51.689137006178498" lon="0.580935040488839">
        <ele>55</ele>
        <time>2018-02-18T09:27:50Z</time>
      </trkpt>
      <trkpt lat="51.689157038927078" lon="0.580963036045432">
        <ele>55</ele>
        <time>2018-02-18T09:27:52Z</time>
      </trkpt>
      <trkpt lat="51.689177993685007" lon="0.580980973318219">
        <ele>55</ele>
        <time>2018-02-18T09:27:54Z</time>
      </trkpt>
      <trkpt lat="51.689200960099697" lon="0.580992959439754">
        <ele>55</ele>
        <time>2018-02-18T09:27:56Z</time>
      </trkpt>
      <trkpt lat="51.689228033646941" lon="0.58100301772356">
        <ele>55</ele>
        <time>2018-02-18T09:27:58Z</time>
      </trkpt>
      <trkpt lat="51.689246976748109" lon="0.58100201189518">
        <ele>55</ele>
        <time>2018-02-18T09:28:00Z</time>
      </trkpt>
      <trkpt lat="51.689267009496689" lon="0.581005029380322">
        <ele>55</ele>
        <time>2018-02-18T09:28:02Z</time>
      </trkpt>
      <trkpt lat="51.689287964254618" lon="0.580994971096516">
        <ele>55</ele>
        <time>2018-02-18T09:28:04Z</time>
      </trkpt>
      <trkpt lat="51.689301962032914" lon="0.580968987196684">
        <ele>55</ele>
        <time>2018-02-18T09:28:06Z</time>
      </trkpt>
      <trkpt lat="51.689318977296352" lon="0.580946020781994">
        <ele>55</ele>
        <time>2018-02-18T09:28:08Z</time>
      </trkpt>
      <trkpt lat="51.68933498673141" lon="0.580923976376653">
        <ele>55</ele>
        <time>2018-02-18T09:28:11Z</time>
      </trkpt>
      <trkpt lat="51.689350996166468" lon="0.580908972769976">
        <ele>55</ele>
        <time>2018-02-18T09:28:13Z</time>
      </trkpt>
      <trkpt lat="51.689376980066299" lon="0.580892041325569">
        <ele>55</ele>
        <time>2018-02-18T09:28:16Z</time>
      </trkpt>
      <trkpt lat="51.689401036128402" lon="0.580872008576989">
        <ele>55</ele>
        <time>2018-02-18T09:28:18Z</time>
      </trkpt>
      <trkpt lat="51.689425008371472" lon="0.580859016627073">
        <ele>55</ele>
        <time>2018-02-18T09:28:20Z</time>
      </trkpt>
      <trkpt lat="51.689445041120052" lon="0.580847030505538">
        <ele>55</ele>
        <time>2018-02-18T09:28:22Z</time>
      </trkpt>
      <trkpt lat="51.689470019191504" lon="0.5808300152421">
        <ele>55</ele>
        <time>2018-02-18T09:28:25Z</time>
      </trkpt>
      <trkpt lat="51.689494997262955" lon="0.580806965008378">
        <ele>56</ele>
        <time>2018-02-18T09:28:27Z</time>
      </trkpt>
      <trkpt lat="51.689521986991167" lon="0.580790033563972">
        <ele>56</ele>
        <time>2018-02-18T09:28:29Z</time>
      </trkpt>
      <trkpt lat="51.689554005861282" lon="0.580778969451785">
        <ele>56</ele>
        <time>2018-02-18T09:28:31Z</time>
      </trkpt>
      <trkpt lat="51.689584013074636" lon="0.580768994987011">
        <ele>56</ele>
        <time>2018-02-18T09:28:33Z</time>
      </trkpt>
      <trkpt lat="51.689606979489326" lon="0.580791961401701">
        <ele>56</ele>
        <time>2018-02-18T09:28:35Z</time>
      </trkpt>
      <trkpt lat="51.689632041379809" lon="0.580820962786675">
        <ele>56</ele>
        <time>2018-02-18T09:28:37Z</time>
      </trkpt>
      <trkpt lat="51.689652996137738" lon="0.580842001363635">
        <ele>56</ele>
        <time>2018-02-18T09:28:39Z</time>
      </trkpt>
      <trkpt lat="51.689674034714699" lon="0.58087301440537">
        <ele>56</ele>
        <time>2018-02-18T09:28:41Z</time>
      </trkpt>
      <trkpt lat="51.689695995301008" lon="0.580912996083498">
        <ele>56</ele>
        <time>2018-02-18T09:28:43Z</time>
      </trkpt>
      <trkpt lat="51.689710998907685" lon="0.580946020781994">
        <ele>56</ele>
        <time>2018-02-18T09:28:45Z</time>
      </trkpt>
      <trkpt lat="51.689724996685982" lon="0.580978039652109">
        <ele>56</ele>
        <time>2018-02-18T09:28:47Z</time>
      </trkpt>
      <trkpt lat="51.689740000292659" lon="0.581008968874812">
        <ele>55</ele>
        <time>2018-02-18T09:28:49Z</time>
      </trkpt>
      <trkpt lat="51.689752992242575" lon="0.581041993573308">
        <ele>55</ele>
        <time>2018-02-18T09:28:51Z</time>
      </trkpt>
      <trkpt lat="51.689776964485645" lon="0.581076024100184">
        <ele>55.920791828251303</ele>
        <time>2018-02-18T09:28:53Z</time>
      </trkpt>
      <trkpt lat="51.689794985577464" lon="0.58111198246479">
        <ele>56</ele>
        <time>2018-02-18T09:28:55Z</time>
      </trkpt>
      <trkpt lat="51.689818035811186" lon="0.581144001334906">
        <ele>56</ele>
        <time>2018-02-18T09:28:57Z</time>
      </trkpt>
      <trkpt lat="51.689832033589482" lon="0.581184988841414">
        <ele>56</ele>
        <time>2018-02-18T09:28:59Z</time>
      </trkpt>
      <trkpt lat="51.689839996397495" lon="0.581228993833065">
        <ele>56</ele>
        <time>2018-02-18T09:29:01Z</time>
      </trkpt>
      <trkpt lat="51.689844019711018" lon="0.581275010481477">
        <ele>56</ele>
        <time>2018-02-18T09:29:03Z</time>
      </trkpt>
      <trkpt lat="51.689852988347411" lon="0.581318009644747">
        <ele>56</ele>
        <time>2018-02-18T09:29:05Z</time>
      </trkpt>
      <trkpt lat="51.689865980297327" lon="0.581357991322875">
        <ele>56</ele>
        <time>2018-02-18T09:29:08Z</time>
      </trkpt>
      <trkpt lat="51.689876038581133" lon="0.581391016021371">
        <ele>56</ele>
        <time>2018-02-18T09:29:10Z</time>
      </trkpt>
      <trkpt lat="51.689891964197159" lon="0.581418005749583">
        <ele>55.959183940023301</ele>
        <time>2018-02-18T09:29:12Z</time>
      </trkpt>
      <trkpt lat="51.689911996945739" lon="0.58145203627646">
        <ele>55.019993855921399</ele>
        <time>2018-02-18T09:29:14Z</time>
      </trkpt>
      <trkpt lat="51.689931023865938" lon="0.581489000469446">
        <ele>56</ele>
        <time>2018-02-18T09:29:16Z</time>
      </trkpt>
      <trkpt lat="51.689949966967106" lon="0.581524958834052">
        <ele>56</ele>
        <time>2018-02-18T09:29:18Z</time>
      </trkpt>
      <trkpt lat="51.689966982230544" lon="0.58156200684607">
        <ele>56</ele>
        <time>2018-02-18T09:29:20Z</time>
      </trkpt>
      <trkpt lat="51.689985003322363" lon="0.581597965210676">
        <ele>56</ele>
        <time>2018-02-18T09:29:22Z</time>
      </trkpt>
      <trkpt lat="51.690002018585801" lon="0.581630989909172">
        <ele>56</ele>
        <time>2018-02-18T09:29:24Z</time>
      </trkpt>
      <trkpt lat="51.690011993050575" lon="0.581668959930539">
        <ele>56</ele>
        <time>2018-02-18T09:29:26Z</time>
      </trkpt>
      <trkpt lat="51.690026996657252" lon="0.58171397075057">
        <ele>56</ele>
        <time>2018-02-18T09:29:28Z</time>
      </trkpt>
      <trkpt lat="51.690035965293646" lon="0.581740960478783">
        <ele>56</ele>
        <time>2018-02-18T09:29:29Z</time>
      </trkpt>
      <trkpt lat="51.690046023577452" lon="0.581769961863756">
        <ele>56</ele>
        <time>2018-02-18T09:29:30Z</time>
      </trkpt>
      <trkpt lat="51.690052980557084" lon="0.58179602958262">
        <ele>56</ele>
        <time>2018-02-18T09:29:31Z</time>
      </trkpt>
      <trkpt lat="51.690064966678619" lon="0.58184296824038">
        <ele>56</ele>
        <time>2018-02-18T09:29:33Z</time>
      </trkpt>
      <trkpt lat="51.690080976113677" lon="0.58188596740365">
        <ele>56</ele>
        <time>2018-02-18T09:29:35Z</time>
      </trkpt>
      <trkpt lat="51.690091034397483" lon="0.581933995708823">
        <ele>56</ele>
        <time>2018-02-18T09:29:37Z</time>
      </trkpt>
      <trkpt lat="51.69010603800416" lon="0.581984035670757">
        <ele>56</ele>
        <time>2018-02-18T09:29:39Z</time>
      </trkpt>
      <trkpt lat="51.690112994983792" lon="0.582030974328518">
        <ele>56</ele>
        <time>2018-02-18T09:29:41Z</time>
      </trkpt>
      <trkpt lat="51.690122969448566" lon="0.582075985148549">
        <ele>56</ele>
        <time>2018-02-18T09:29:43Z</time>
      </trkpt>
      <trkpt lat="51.690135961398482" lon="0.582122001796961">
        <ele>56</ele>
        <time>2018-02-18T09:29:45Z</time>
      </trkpt>
      <trkpt lat="51.690147025510669" lon="0.582169024273753">
        <ele>56</ele>
        <time>2018-02-18T09:29:47Z</time>
      </trkpt>
      <trkpt lat="51.690153982490301" lon="0.582223003730178">
        <ele>56</ele>
        <time>2018-02-18T09:29:49Z</time>
      </trkpt>
      <trkpt lat="51.690149959176779" lon="0.582252005115151">
        <ele>56</ele>
        <time>2018-02-18T09:29:50Z</time>
      </trkpt>
      <trkpt lat="51.690136967226863" lon="0.58229198679328">
        <ele>56</ele>
        <time>2018-02-18T09:29:52Z</time>
      </trkpt>
      <trkpt lat="51.690119029954076" lon="0.582309002056718">
        <ele>56</ele>
        <time>2018-02-18T09:29:53Z</time>
      </trkpt>
      <trkpt lat="51.690098997205496" lon="0.582322999835014">
        <ele>56</ele>
        <time>2018-02-18T09:29:54Z</time>
      </trkpt>
      <trkpt lat="51.690082987770438" lon="0.582333980128169">
        <ele>56</ele>
        <time>2018-02-18T09:29:55Z</time>
      </trkpt>
      <trkpt lat="51.690066978335381" lon="0.582350995391607">
        <ele>56</ele>
        <time>2018-02-18T09:29:56Z</time>
      </trkpt>
      <trkpt lat="51.690034959465265" lon="0.582375973463058">
        <ele>56</ele>
        <time>2018-02-18T09:29:58Z</time>
      </trkpt>
      <trkpt lat="51.690005036070943" lon="0.5823980178684">
        <ele>56</ele>
        <time>2018-02-18T09:30:00Z</time>
      </trkpt>
      <trkpt lat="51.689983997493982" lon="0.582417966797948">
        <ele>56</ele>
        <time>2018-02-18T09:30:02Z</time>
      </trkpt>
      <trkpt lat="51.689961031079292" lon="0.582447974011302">
        <ele>56</ele>
        <time>2018-02-18T09:30:04Z</time>
      </trkpt>
      <trkpt lat="51.689932029694319" lon="0.582478987053037">
        <ele>56</ele>
        <time>2018-02-18T09:30:06Z</time>
      </trkpt>
      <trkpt lat="51.6899140086025" lon="0.582505976781249">
        <ele>56</ele>
        <time>2018-02-18T09:30:07Z</time>
      </trkpt>
      <trkpt lat="51.689899004995823" lon="0.58252802118659">
        <ele>56</ele>
        <time>2018-02-18T09:30:08Z</time>
      </trkpt>
      <trkpt lat="51.689882995560765" lon="0.5825499817729">
        <ele>56.929996799999998</ele>
        <time>2018-02-18T09:30:09Z</time>
      </trkpt>
      <trkpt lat="51.689864974468946" lon="0.582573032006621">
        <ele>57</ele>
        <time>2018-02-18T09:30:10Z</time>
      </trkpt>
      <trkpt lat="51.689844019711018" lon="0.58259398676455">
        <ele>57</ele>
        <time>2018-02-18T09:30:11Z</time>
      </trkpt>
      <trkpt lat="51.689823986962438" lon="0.58261401951313">
        <ele>57</ele>
        <time>2018-02-18T09:30:12Z</time>
      </trkpt>
      <trkpt lat="51.689802026376128" lon="0.582634974271059">
        <ele>57</ele>
        <time>2018-02-18T09:30:13Z</time>
      </trkpt>
      <trkpt lat="51.689777970314026" lon="0.582654001191258">
        <ele>57</ele>
        <time>2018-02-18T09:30:14Z</time>
      </trkpt>
      <trkpt lat="51.689751986414194" lon="0.582675039768219">
        <ele>57</ele>
        <time>2018-02-18T09:30:15Z</time>
      </trkpt>
      <trkpt lat="51.689729019999504" lon="0.582698006182909">
        <ele>57</ele>
        <time>2018-02-18T09:30:16Z</time>
      </trkpt>
      <trkpt lat="51.689709993079305" lon="0.582720972597599">
        <ele>56.031582209407297</ele>
        <time>2018-02-18T09:30:17Z</time>
      </trkpt>
      <trkpt lat="51.68969901278615" lon="0.582744022831321">
        <ele>56</ele>
        <time>2018-02-18T09:30:18Z</time>
      </trkpt>
      <trkpt lat="51.689689960330725" lon="0.582776041701436">
        <ele>56</ele>
        <time>2018-02-18T09:30:19Z</time>
      </trkpt>
      <trkpt lat="51.689687026664615" lon="0.582813005894423">
        <ele>56</ele>
        <time>2018-02-18T09:30:20Z</time>
      </trkpt>
      <trkpt lat="51.689685015007854" lon="0.582854999229312">
        <ele>56</ele>
        <time>2018-02-18T09:30:21Z</time>
      </trkpt>
      <trkpt lat="51.689689038321376" lon="0.582891963422298">
        <ele>56</ele>
        <time>2018-02-18T09:30:22Z</time>
      </trkpt>
      <trkpt lat="51.689691971987486" lon="0.582932028919458">
        <ele>56</ele>
        <time>2018-02-18T09:30:23Z</time>
      </trkpt>
      <trkpt lat="51.689694989472628" lon="0.582974022254348">
        <ele>56</ele>
        <time>2018-02-18T09:30:24Z</time>
      </trkpt>
      <trkpt lat="51.689701024442911" lon="0.583017021417618">
        <ele>56</ele>
        <time>2018-02-18T09:30:25Z</time>
      </trkpt>
      <trkpt lat="51.689702030271292" lon="0.583059014752507">
        <ele>55.969693835333103</ele>
        <time>2018-02-18T09:30:26Z</time>
      </trkpt>
      <trkpt lat="51.689703958109021" lon="0.583100002259016">
        <ele>55</ele>
        <time>2018-02-18T09:30:27Z</time>
      </trkpt>
      <trkpt lat="51.689707981422544" lon="0.583140989765525">
        <ele>55</ele>
        <time>2018-02-18T09:30:28Z</time>
      </trkpt>
      <trkpt lat="51.689710998907685" lon="0.583178959786892">
        <ele>55</ele>
        <time>2018-02-18T09:30:29Z</time>
      </trkpt>
      <trkpt lat="51.689715022221208" lon="0.583212990313768">
        <ele>55</ele>
        <time>2018-02-18T09:30:30Z</time>
      </trkpt>
      <trkpt lat="51.689718961715698" lon="0.583245009183884">
        <ele>55</ele>
        <time>2018-02-18T09:30:31Z</time>
      </trkpt>
      <trkpt lat="51.689723990857601" lon="0.58328197337687">
        <ele>55.040403909805498</ele>
        <time>2018-02-18T09:30:32Z</time>
      </trkpt>
      <trkpt lat="51.689731031656265" lon="0.58332103304565">
        <ele>56</ele>
        <time>2018-02-18T09:30:33Z</time>
      </trkpt>
      <trkpt lat="51.689731031656265" lon="0.5833650380373">
        <ele>56</ele>
        <time>2018-02-18T09:30:34Z</time>
      </trkpt>
      <trkpt lat="51.689736982807517" lon="0.58340803720057">
        <ele>56</ele>
        <time>2018-02-18T09:30:35Z</time>
      </trkpt>
      <trkpt lat="51.689743017777801" lon="0.583449024707079">
        <ele>56</ele>
        <time>2018-02-18T09:30:36Z</time>
      </trkpt>
      <trkpt lat="51.689746035262942" lon="0.583488000556827">
        <ele>56</ele>
        <time>2018-02-18T09:30:37Z</time>
      </trkpt>
      <trkpt lat="51.689746035262942" lon="0.583527982234955">
        <ele>56</ele>
        <time>2018-02-18T09:30:38Z</time>
      </trkpt>
      <trkpt lat="51.689744023606181" lon="0.583564024418592">
        <ele>56</ele>
        <time>2018-02-18T09:30:39Z</time>
      </trkpt>
      <trkpt lat="51.689743017777801" lon="0.583599982783198">
        <ele>56</ele>
        <time>2018-02-18T09:30:40Z</time>
      </trkpt>
      <trkpt lat="51.68974201194942" lon="0.583636024966836">
        <ele>56</ele>
        <time>2018-02-18T09:30:41Z</time>
      </trkpt>
      <trkpt lat="51.689745029434562" lon="0.583673994988203">
        <ele>56</ele>
        <time>2018-02-18T09:30:42Z</time>
      </trkpt>
      <trkpt lat="51.689748968929052" lon="0.583715988323092">
        <ele>56</ele>
        <time>2018-02-18T09:30:43Z</time>
      </trkpt>
      <trkpt lat="51.689751986414194" lon="0.583756975829601">
        <ele>56</ele>
        <time>2018-02-18T09:30:44Z</time>
      </trkpt>
      <trkpt lat="51.689758021384478" lon="0.583800980821252">
        <ele>56</ele>
        <time>2018-02-18T09:30:45Z</time>
      </trkpt>
      <trkpt lat="51.689765984192491" lon="0.583843979984522">
        <ele>56</ele>
        <time>2018-02-18T09:30:46Z</time>
      </trkpt>
      <trkpt lat="51.689775958657265" lon="0.583883039653301">
        <ele>56</ele>
        <time>2018-02-18T09:30:47Z</time>
      </trkpt>
      <trkpt lat="51.689780987799168" lon="0.583920003846288">
        <ele>56</ele>
        <time>2018-02-18T09:30:48Z</time>
      </trkpt>
      <trkpt lat="51.689790040254593" lon="0.583958979696035">
        <ele>56</ele>
        <time>2018-02-18T09:30:49Z</time>
      </trkpt>
      <trkpt lat="51.689792973920703" lon="0.583995021879673">
        <ele>56</ele>
        <time>2018-02-18T09:30:50Z</time>
      </trkpt>
      <trkpt lat="51.689804038032889" lon="0.584027962759137">
        <ele>56</ele>
        <time>2018-02-18T09:30:51Z</time>
      </trkpt>
      <trkpt lat="51.689816024154425" lon="0.584065010771155">
        <ele>56</ele>
        <time>2018-02-18T09:30:52Z</time>
      </trkpt>
      <trkpt lat="51.689831027761102" lon="0.584099041298032">
        <ele>56</ele>
        <time>2018-02-18T09:30:53Z</time>
      </trkpt>
      <trkpt lat="51.689844019711018" lon="0.584132988005877">
        <ele>56</ele>
        <time>2018-02-18T09:30:54Z</time>
      </trkpt>
      <trkpt lat="51.689858017489314" lon="0.584164001047611">
        <ele>56</ele>
        <time>2018-02-18T09:30:55Z</time>
      </trkpt>
      <trkpt lat="51.689872015267611" lon="0.584197025746107">
        <ele>56</ele>
        <time>2018-02-18T09:30:56Z</time>
      </trkpt>
      <trkpt lat="51.689890036359429" lon="0.584228960797191">
        <ele>56</ele>
        <time>2018-02-18T09:30:57Z</time>
      </trkpt>
      <trkpt lat="51.689924988895655" lon="0.584291992709041">
        <ele>56</ele>
        <time>2018-02-18T09:30:59Z</time>
      </trkpt>
      <trkpt lat="51.689939992502332" lon="0.584321999922395">
        <ele>56</ele>
        <time>2018-02-18T09:31:00Z</time>
      </trkpt>
      <trkpt lat="51.689953990280628" lon="0.584348989650607">
        <ele>56</ele>
        <time>2018-02-18T09:31:01Z</time>
      </trkpt>
      <trkpt lat="51.689967988058925" lon="0.584373967722058">
        <ele>56</ele>
        <time>2018-02-18T09:31:02Z</time>
      </trkpt>
      <trkpt lat="51.689982991665602" lon="0.584403974935412">
        <ele>56</ele>
        <time>2018-02-18T09:31:03Z</time>
      </trkpt>
      <trkpt lat="51.690002018585801" lon="0.584436999633908">
        <ele>56</ele>
        <time>2018-02-18T09:31:04Z</time>
      </trkpt>
      <trkpt lat="51.69002003967762" lon="0.584468012675643">
        <ele>56</ele>
        <time>2018-02-18T09:31:05Z</time>
      </trkpt>
      <trkpt lat="51.690035965293646" lon="0.584495002403855">
        <ele>56</ele>
        <time>2018-02-18T09:31:06Z</time>
      </trkpt>
      <trkpt lat="51.690049963071942" lon="0.584521992132068">
        <ele>56</ele>
        <time>2018-02-18T09:31:07Z</time>
      </trkpt>
      <trkpt lat="51.690065972507" lon="0.584550993517041">
        <ele>56</ele>
        <time>2018-02-18T09:31:08Z</time>
      </trkpt>
      <trkpt lat="51.690088016912341" lon="0.584584018215537">
        <ele>56</ele>
        <time>2018-02-18T09:31:09Z</time>
      </trkpt>
      <trkpt lat="51.69010603800416" lon="0.584616037085652">
        <ele>56</ele>
        <time>2018-02-18T09:31:10Z</time>
      </trkpt>
      <trkpt lat="51.690123975276947" lon="0.584647972136736">
        <ele>56</ele>
        <time>2018-02-18T09:31:11Z</time>
      </trkpt>
      <trkpt lat="51.690139984712005" lon="0.584680996835232">
        <ele>56</ele>
        <time>2018-02-18T09:31:12Z</time>
      </trkpt>
      <trkpt lat="51.690158005803823" lon="0.584714021533728">
        <ele>56</ele>
        <time>2018-02-18T09:31:13Z</time>
      </trkpt>
      <trkpt lat="51.690175021067262" lon="0.584746962413192">
        <ele>56</ele>
        <time>2018-02-18T09:31:14Z</time>
      </trkpt>
      <trkpt lat="51.690189018845558" lon="0.584774035960436">
        <ele>56</ele>
        <time>2018-02-18T09:31:15Z</time>
      </trkpt>
      <trkpt lat="51.690204022452235" lon="0.584800019860268">
        <ele>56</ele>
        <time>2018-02-18T09:31:16Z</time>
      </trkpt>
      <trkpt lat="51.690239980816841" lon="0.584856010973454">
        <ele>56</ele>
        <time>2018-02-18T09:31:18Z</time>
      </trkpt>
      <trkpt lat="51.690253978595138" lon="0.584886018186808">
        <ele>56</ele>
        <time>2018-02-18T09:31:19Z</time>
      </trkpt>
      <trkpt lat="51.690267976373434" lon="0.584915019571781">
        <ele>56.017385884264797</ele>
        <time>2018-02-18T09:31:20Z</time>
      </trkpt>
      <trkpt lat="51.690283985808492" lon="0.584944020956755">
        <ele>56.8869583606959</ele>
        <time>2018-02-18T09:31:21Z</time>
      </trkpt>
      <trkpt lat="51.690297983586788" lon="0.584970004856586">
        <ele>57</ele>
        <time>2018-02-18T09:31:22Z</time>
      </trkpt>
      <trkpt lat="51.690311981365085" lon="0.584995988756418">
        <ele>57</ele>
        <time>2018-02-18T09:31:23Z</time>
      </trkpt>
      <trkpt lat="51.690330002456903" lon="0.585027001798153">
        <ele>57</ele>
        <time>2018-02-18T09:31:24Z</time>
      </trkpt>
      <trkpt lat="51.690339976921678" lon="0.58506203815341">
        <ele>57</ele>
        <time>2018-02-18T09:31:25Z</time>
      </trkpt>
      <trkpt lat="51.690346011891961" lon="0.585096990689635">
        <ele>56.984380000000002</ele>
        <time>2018-02-18T09:31:26Z</time>
      </trkpt>
      <trkpt lat="51.690346011891961" lon="0.585134038701653">
        <ele>56.203130000000002</ele>
        <time>2018-02-18T09:31:27Z</time>
      </trkpt>
      <trkpt lat="51.6903440002352" lon="0.585166979581118">
        <ele>56</ele>
        <time>2018-02-18T09:31:28Z</time>
      </trkpt>
      <trkpt lat="51.690337965264916" lon="0.585204027593136">
        <ele>56</ele>
        <time>2018-02-18T09:31:29Z</time>
      </trkpt>
      <trkpt lat="51.690325979143381" lon="0.585241997614503">
        <ele>56</ele>
        <time>2018-02-18T09:31:30Z</time>
      </trkpt>
      <trkpt lat="51.690316004678607" lon="0.585282985121012">
        <ele>56</ele>
        <time>2018-02-18T09:31:31Z</time>
      </trkpt>
      <trkpt lat="51.690307036042213" lon="0.585321960970759">
        <ele>56.920791828251303</ele>
        <time>2018-02-18T09:31:32Z</time>
      </trkpt>
      <trkpt lat="51.690302006900311" lon="0.585361020639539">
        <ele>57</ele>
        <time>2018-02-18T09:31:33Z</time>
      </trkpt>
      <trkpt lat="51.690293960273266" lon="0.585398990660906">
        <ele>57</ele>
        <time>2018-02-18T09:31:34Z</time>
      </trkpt>
      <trkpt lat="51.690293960273266" lon="0.585435032844543">
        <ele>57</ele>
        <time>2018-02-18T09:31:35Z</time>
      </trkpt>
      <trkpt lat="51.690292032435536" lon="0.585466967895627">
        <ele>57</ele>
        <time>2018-02-18T09:31:36Z</time>
      </trkpt>
      <trkpt lat="51.690288009122014" lon="0.585495969280601">
        <ele>57</ele>
        <time>2018-02-18T09:31:37Z</time>
      </trkpt>
      <trkpt lat="51.690274011343718" lon="0.585561012849212">
        <ele>57</ele>
        <time>2018-02-18T09:31:40Z</time>
      </trkpt>
      <trkpt lat="51.690234029665589" lon="0.585640976205468">
        <ele>58</ele>
        <time>2018-02-18T09:31:46Z</time>
      </trkpt>
      <trkpt lat="51.690203016623855" lon="0.585665032267571">
        <ele>58</ele>
        <time>2018-02-18T09:31:49Z</time>
      </trkpt>
      <trkpt lat="51.690178038552403" lon="0.585667965933681">
        <ele>57.990003199999997</ele>
        <time>2018-02-18T09:31:51Z</time>
      </trkpt>
      <trkpt lat="51.690153982490301" lon="0.585665032267571">
        <ele>57</ele>
        <time>2018-02-18T09:31:53Z</time>
      </trkpt>
      <trkpt lat="51.690137973055243" lon="0.5856669601053">
        <ele>57</ele>
        <time>2018-02-18T09:31:54Z</time>
      </trkpt>
      <trkpt lat="51.690109977498651" lon="0.585661008954048">
        <ele>57</ele>
        <time>2018-02-18T09:31:56Z</time>
      </trkpt>
      <trkpt lat="51.690079970285296" lon="0.585653968155384">
        <ele>57</ele>
        <time>2018-02-18T09:31:58Z</time>
      </trkpt>
      <trkpt lat="51.690053986385465" lon="0.585651034489274">
        <ele>57</ele>
        <time>2018-02-18T09:32:00Z</time>
      </trkpt>
      <trkpt lat="51.690030014142394" lon="0.585648017004132">
        <ele>57</ele>
        <time>2018-02-18T09:32:02Z</time>
      </trkpt>
      <trkpt lat="51.69000000692904" lon="0.585644999518991">
        <ele>57</ele>
        <time>2018-02-18T09:32:04Z</time>
      </trkpt>
      <trkpt lat="51.689978968352079" lon="0.585644999518991">
        <ele>57</ele>
        <time>2018-02-18T09:32:06Z</time>
      </trkpt>
      <trkpt lat="51.689960025250912" lon="0.585637036710978">
        <ele>56</ele>
        <time>2018-02-18T09:32:09Z</time>
      </trkpt>
      <trkpt lat="51.689946027472615" lon="0.585689004510641">
        <ele>56</ele>
        <time>2018-02-18T09:32:12Z</time>
      </trkpt>
      <trkpt lat="51.689938986673951" lon="0.585740972310305">
        <ele>56</ele>
        <time>2018-02-18T09:32:14Z</time>
      </trkpt>
      <trkpt lat="51.68993404135108" lon="0.58577299118042">
        <ele>56</ele>
        <time>2018-02-18T09:32:15Z</time>
      </trkpt>
      <trkpt lat="51.689924988895655" lon="0.585806015878916">
        <ele>56</ele>
        <time>2018-02-18T09:32:16Z</time>
      </trkpt>
      <trkpt lat="51.689919037744403" lon="0.585847003385425">
        <ele>56</ele>
        <time>2018-02-18T09:32:17Z</time>
      </trkpt>
      <trkpt lat="51.689908979460597" lon="0.585887990891933">
        <ele>56.722221093480201</ele>
        <time>2018-02-18T09:32:18Z</time>
      </trkpt>
      <trkpt lat="51.689903028309345" lon="0.585927972570062">
        <ele>57</ele>
        <time>2018-02-18T09:32:19Z</time>
      </trkpt>
      <trkpt lat="51.689897999167442" lon="0.58596602641046">
        <ele>57</ele>
        <time>2018-02-18T09:32:20Z</time>
      </trkpt>
      <trkpt lat="51.689897999167442" lon="0.586003996431828">
        <ele>57</ele>
        <time>2018-02-18T09:32:21Z</time>
      </trkpt>
      <trkpt lat="51.689894981682301" lon="0.586041966453195">
        <ele>57</ele>
        <time>2018-02-18T09:32:22Z</time>
      </trkpt>
      <trkpt lat="51.689889030531049" lon="0.586079014465213">
        <ele>57</ele>
        <time>2018-02-18T09:32:23Z</time>
      </trkpt>
      <trkpt lat="51.689882995560765" lon="0.586115978658199">
        <ele>56.0625066666667</ele>
        <time>2018-02-18T09:32:24Z</time>
      </trkpt>
      <trkpt lat="51.689874026924372" lon="0.586151015013456">
        <ele>56</ele>
        <time>2018-02-18T09:32:25Z</time>
      </trkpt>
      <trkpt lat="51.689865980297327" lon="0.586185967549682">
        <ele>56</ele>
        <time>2018-02-18T09:32:26Z</time>
      </trkpt>
      <trkpt lat="51.689862962812185" lon="0.586221003904939">
        <ele>56</ele>
        <time>2018-02-18T09:32:27Z</time>
      </trkpt>
      <trkpt lat="51.689858017489314" lon="0.586253022775054">
        <ele>56</ele>
        <time>2018-02-18T09:32:28Z</time>
      </trkpt>
      <trkpt lat="51.689859023317695" lon="0.586285963654518">
        <ele>56</ele>
        <time>2018-02-18T09:32:29Z</time>
      </trkpt>
      <trkpt lat="51.689857011660933" lon="0.586316976696253">
        <ele>56</ele>
        <time>2018-02-18T09:32:30Z</time>
      </trkpt>
      <trkpt lat="51.68985097669065" lon="0.586354024708271">
        <ele>56</ele>
        <time>2018-02-18T09:32:31Z</time>
      </trkpt>
      <trkpt lat="51.689843013882637" lon="0.586391994729638">
        <ele>56</ele>
        <time>2018-02-18T09:32:32Z</time>
      </trkpt>
      <trkpt lat="51.689834967255592" lon="0.586467012763023">
        <ele>56</ele>
        <time>2018-02-18T09:32:34Z</time>
      </trkpt>
      <trkpt lat="51.689830021932721" lon="0.586505988612771">
        <ele>56</ele>
        <time>2018-02-18T09:32:35Z</time>
      </trkpt>
      <trkpt lat="51.689822981134057" lon="0.586543036624789">
        <ele>56</ele>
        <time>2018-02-18T09:32:36Z</time>
      </trkpt>
      <trkpt lat="51.689817029982805" lon="0.586582012474537">
        <ele>56</ele>
        <time>2018-02-18T09:32:37Z</time>
      </trkpt>
      <trkpt lat="51.689808983355761" lon="0.586622999981046">
        <ele>56</ele>
        <time>2018-02-18T09:32:38Z</time>
      </trkpt>
      <trkpt lat="51.689802026376128" lon="0.586665999144316">
        <ele>56.971254233848001</ele>
        <time>2018-02-18T09:32:39Z</time>
      </trkpt>
      <trkpt lat="51.689795991405845" lon="0.586708998307586">
        <ele>57</ele>
        <time>2018-02-18T09:32:40Z</time>
      </trkpt>
      <trkpt lat="51.689790962263942" lon="0.586748979985714">
        <ele>57</ele>
        <time>2018-02-18T09:32:41Z</time>
      </trkpt>
      <trkpt lat="51.689781993627548" lon="0.586786027997732">
        <ele>57</ele>
        <time>2018-02-18T09:32:42Z</time>
      </trkpt>
      <trkpt lat="51.689774030819535" lon="0.586819974705577">
        <ele>57</ele>
        <time>2018-02-18T09:32:43Z</time>
      </trkpt>
      <trkpt lat="51.689766990020871" lon="0.586858028545976">
        <ele>57</ele>
        <time>2018-02-18T09:32:44Z</time>
      </trkpt>
      <trkpt lat="51.689761038869619" lon="0.586895998567343">
        <ele>57</ele>
        <time>2018-02-18T09:32:45Z</time>
      </trkpt>
      <trkpt lat="51.689759027212858" lon="0.586941009387374">
        <ele>57</ele>
        <time>2018-02-18T09:32:46Z</time>
      </trkpt>
      <trkpt lat="51.689757015556097" lon="0.586984008550644">
        <ele>57</ele>
        <time>2018-02-18T09:32:47Z</time>
      </trkpt>
      <trkpt lat="51.689750980585814" lon="0.587027007713914">
        <ele>57</ele>
        <time>2018-02-18T09:32:48Z</time>
      </trkpt>
      <trkpt lat="51.689746035262942" lon="0.587064977735281">
        <ele>57</ele>
        <time>2018-02-18T09:32:49Z</time>
      </trkpt>
      <trkpt lat="51.689736982807517" lon="0.58710697107017">
        <ele>57</ele>
        <time>2018-02-18T09:32:50Z</time>
      </trkpt>
      <trkpt lat="51.689726002514362" lon="0.587144019082189">
        <ele>57</ele>
        <time>2018-02-18T09:32:51Z</time>
      </trkpt>
      <trkpt lat="51.689718039706349" lon="0.58718902990222">
        <ele>57</ele>
        <time>2018-02-18T09:32:52Z</time>
      </trkpt>
      <trkpt lat="51.689712004736066" lon="0.58723202906549">
        <ele>57</ele>
        <time>2018-02-18T09:32:53Z</time>
      </trkpt>
      <trkpt lat="51.689704963937402" lon="0.587271004915237">
        <ele>57</ele>
        <time>2018-02-18T09:32:54Z</time>
      </trkpt>
      <trkpt lat="51.689697001129389" lon="0.587309980764985">
        <ele>56.951411867147698</ele>
        <time>2018-02-18T09:32:55Z</time>
      </trkpt>
      <trkpt lat="51.689688032492995" lon="0.587351974099875">
        <ele>56</ele>
        <time>2018-02-18T09:32:56Z</time>
      </trkpt>
      <trkpt lat="51.689679985865951" lon="0.587389022111893">
        <ele>56</ele>
        <time>2018-02-18T09:32:57Z</time>
      </trkpt>
      <trkpt lat="51.689675040543079" lon="0.58742799796164">
        <ele>56</ele>
        <time>2018-02-18T09:32:58Z</time>
      </trkpt>
      <trkpt lat="51.689669005572796" lon="0.58746999129653">
        <ele>56</ele>
        <time>2018-02-18T09:32:59Z</time>
      </trkpt>
      <trkpt lat="51.689660958945751" lon="0.587511984631419">
        <ele>56</ele>
        <time>2018-02-18T09:33:00Z</time>
      </trkpt>
      <trkpt lat="51.689652996137738" lon="0.587554983794689">
        <ele>56</ele>
        <time>2018-02-18T09:33:01Z</time>
      </trkpt>
      <trkpt lat="51.689643021672964" lon="0.587596977129579">
        <ele>56</ele>
        <time>2018-02-18T09:33:02Z</time>
      </trkpt>
      <trkpt lat="51.689632041379809" lon="0.58764198794961">
        <ele>56</ele>
        <time>2018-02-18T09:33:03Z</time>
      </trkpt>
      <trkpt lat="51.689621983096004" lon="0.58768599294126">
        <ele>56</ele>
        <time>2018-02-18T09:33:04Z</time>
      </trkpt>
      <trkpt lat="51.689611002802849" lon="0.58772798627615">
        <ele>56</ele>
        <time>2018-02-18T09:33:05Z</time>
      </trkpt>
      <trkpt lat="51.689603962004185" lon="0.587766040116549">
        <ele>56</ele>
        <time>2018-02-18T09:33:06Z</time>
      </trkpt>
      <trkpt lat="51.689601028338075" lon="0.587801998481154">
        <ele>56.940600207842202</ele>
        <time>2018-02-18T09:33:07Z</time>
      </trkpt>
      <trkpt lat="51.689594993367791" lon="0.587838962674141">
        <ele>57</ele>
        <time>2018-02-18T09:33:08Z</time>
      </trkpt>
      <trkpt lat="51.689589964225888" lon="0.587873999029398">
        <ele>57</ele>
        <time>2018-02-18T09:33:09Z</time>
      </trkpt>
      <trkpt lat="51.689587030559778" lon="0.587908029556274">
        <ele>57</ele>
        <time>2018-02-18T09:33:10Z</time>
      </trkpt>
      <trkpt lat="51.689584013074636" lon="0.587944993749261">
        <ele>57</ele>
        <time>2018-02-18T09:33:11Z</time>
      </trkpt>
      <trkpt lat="51.689580995589495" lon="0.587991010397673">
        <ele>57</ele>
        <time>2018-02-18T09:33:12Z</time>
      </trkpt>
      <trkpt lat="51.689574960619211" lon="0.588036021217704">
        <ele>57</ele>
        <time>2018-02-18T09:33:13Z</time>
      </trkpt>
      <trkpt lat="51.68957001529634" lon="0.588077008724213">
        <ele>57</ele>
        <time>2018-02-18T09:33:14Z</time>
      </trkpt>
      <trkpt lat="51.689560962840915" lon="0.588125037029386">
        <ele>57</ele>
        <time>2018-02-18T09:33:15Z</time>
      </trkpt>
      <trkpt lat="51.689554005861282" lon="0.588171975687146">
        <ele>57</ele>
        <time>2018-02-18T09:33:16Z</time>
      </trkpt>
      <trkpt lat="51.689551994204521" lon="0.588210029527545">
        <ele>57</ele>
        <time>2018-02-18T09:33:17Z</time>
      </trkpt>
      <trkpt lat="51.68954998254776" lon="0.588249005377293">
        <ele>57</ele>
        <time>2018-02-18T09:33:18Z</time>
      </trkpt>
      <trkpt lat="51.689547970890999" lon="0.58828404173255">
        <ele>57</ele>
        <time>2018-02-18T09:33:19Z</time>
      </trkpt>
      <trkpt lat="51.689545959234238" lon="0.588320000097156">
        <ele>56.950983221855502</ele>
        <time>2018-02-18T09:33:20Z</time>
      </trkpt>
      <trkpt lat="51.689545959234238" lon="0.588355036452413">
        <ele>56</ele>
        <time>2018-02-18T09:33:21Z</time>
      </trkpt>
      <trkpt lat="51.689545959234238" lon="0.588389988988638">
        <ele>56</ele>
        <time>2018-02-18T09:33:22Z</time>
      </trkpt>
      <trkpt lat="51.689543025568128" lon="0.588422007858753">
        <ele>56</ele>
        <time>2018-02-18T09:33:23Z</time>
      </trkpt>
      <trkpt lat="51.689536990597844" lon="0.58845897205174">
        <ele>56</ele>
        <time>2018-02-18T09:33:24Z</time>
      </trkpt>
      <trkpt lat="51.689534978941083" lon="0.588498031720519">
        <ele>56</ele>
        <time>2018-02-18T09:33:25Z</time>
      </trkpt>
      <trkpt lat="51.689532967284322" lon="0.588536001741886">
        <ele>56</ele>
        <time>2018-02-18T09:33:26Z</time>
      </trkpt>
      <trkpt lat="51.689530033618212" lon="0.588575983420014">
        <ele>56</ele>
        <time>2018-02-18T09:33:27Z</time>
      </trkpt>
      <trkpt lat="51.689530033618212" lon="0.588614959269762">
        <ele>56</ele>
        <time>2018-02-18T09:33:28Z</time>
      </trkpt>
      <trkpt lat="51.689529027789831" lon="0.588654018938541">
        <ele>56</ele>
        <time>2018-02-18T09:33:29Z</time>
      </trkpt>
      <trkpt lat="51.689532967284322" lon="0.58871696703136">
        <ele>56</ele>
        <time>2018-02-18T09:33:31Z</time>
      </trkpt>
      <trkpt lat="51.689539002254605" lon="0.588772036135197">
        <ele>56</ele>
        <time>2018-02-18T09:33:33Z</time>
      </trkpt>
      <trkpt lat="51.689551994204521" lon="0.588819980621338">
        <ele>56</ele>
        <time>2018-02-18T09:33:35Z</time>
      </trkpt>
      <trkpt lat="51.689557023346424" lon="0.588851999491453">
        <ele>56</ele>
        <time>2018-02-18T09:33:36Z</time>
      </trkpt>
      <trkpt lat="51.689553000032902" lon="0.588882006704807">
        <ele>56</ele>
        <time>2018-02-18T09:33:37Z</time>
      </trkpt>
      <trkpt lat="51.689532967284322" lon="0.588917965069413">
        <ele>56</ele>
        <time>2018-02-18T09:33:39Z</time>
      </trkpt>
      <trkpt lat="51.689517041668296" lon="0.58895199559629">
        <ele>56.0216319535987</ele>
        <time>2018-02-18T09:33:41Z</time>
      </trkpt>
      <trkpt lat="51.689496003091335" lon="0.588978985324502">
        <ele>57</ele>
        <time>2018-02-18T09:33:43Z</time>
      </trkpt>
      <trkpt lat="51.689480999484658" lon="0.589000023901463">
        <ele>57</ele>
        <time>2018-02-18T09:33:44Z</time>
      </trkpt>
      <trkpt lat="51.689461972564459" lon="0.589028019458056">
        <ele>57</ele>
        <time>2018-02-18T09:33:46Z</time>
      </trkpt>
      <trkpt lat="51.689445041120052" lon="0.589050985872746">
        <ele>57</ele>
        <time>2018-02-18T09:33:48Z</time>
      </trkpt>
      <trkpt lat="51.689426014199853" lon="0.5890809930861">
        <ele>57</ele>
        <time>2018-02-18T09:33:50Z</time>
      </trkpt>
      <trkpt lat="51.689408998936415" lon="0.58910496532917">
        <ele>57</ele>
        <time>2018-02-18T09:33:52Z</time>
      </trkpt>
      <trkpt lat="51.689389972016215" lon="0.589120974764228">
        <ele>57</ele>
        <time>2018-02-18T09:33:54Z</time>
      </trkpt>
      <trkpt lat="51.689371028915048" lon="0.589142013341188">
        <ele>56.1568617608674</ele>
        <time>2018-02-18T09:33:58Z</time>
      </trkpt>
      <trkpt lat="51.689348984509706" lon="0.589151987805963">
        <ele>56</ele>
        <time>2018-02-18T09:34:00Z</time>
      </trkpt>
      <trkpt lat="51.689336998388171" lon="0.589172020554543">
        <ele>57</ele>
        <time>2018-02-18T09:34:04Z</time>
      </trkpt>
      <trkpt lat="51.689311014488339" lon="0.589200016111135">
        <ele>57</ele>
        <time>2018-02-18T09:34:06Z</time>
      </trkpt>
      <trkpt lat="51.689290981739759" lon="0.589219965040684">
        <ele>57</ele>
        <time>2018-02-18T09:34:07Z</time>
      </trkpt>
      <trkpt lat="51.689253011718392" lon="0.589260030537844">
        <ele>57</ele>
        <time>2018-02-18T09:34:09Z</time>
      </trkpt>
      <trkpt lat="51.689235996454954" lon="0.58927696198225">
        <ele>57</ele>
        <time>2018-02-18T09:34:10Z</time>
      </trkpt>
      <trkpt lat="51.689218981191516" lon="0.589299006387591">
        <ele>57</ele>
        <time>2018-02-18T09:34:11Z</time>
      </trkpt>
      <trkpt lat="51.689203977584839" lon="0.589320966973901">
        <ele>57</ele>
        <time>2018-02-18T09:34:12Z</time>
      </trkpt>
      <trkpt lat="51.689190985634923" lon="0.589347034692764">
        <ele>57</ele>
        <time>2018-02-18T09:34:13Z</time>
      </trkpt>
      <trkpt lat="51.689178999513388" lon="0.589372012764215">
        <ele>57</ele>
        <time>2018-02-18T09:34:14Z</time>
      </trkpt>
      <trkpt lat="51.689166007563472" lon="0.589422974735498">
        <ele>57.9791733333333</ele>
        <time>2018-02-18T09:34:16Z</time>
      </trkpt>
      <trkpt lat="51.689160978421569" lon="0.589451976120472">
        <ele>57</ele>
        <time>2018-02-18T09:34:17Z</time>
      </trkpt>
      <trkpt lat="51.689170030876994" lon="0.589504027739167">
        <ele>57</ele>
        <time>2018-02-18T09:34:19Z</time>
      </trkpt>
      <trkpt lat="51.689186040312052" lon="0.589524982497096">
        <ele>57</ele>
        <time>2018-02-18T09:34:20Z</time>
      </trkpt>
      <trkpt lat="51.689199032261968" lon="0.589549960568547">
        <ele>57</ele>
        <time>2018-02-18T09:34:21Z</time>
      </trkpt>
      <trkpt lat="51.689214035868645" lon="0.589583991095424">
        <ele>57</ele>
        <time>2018-02-18T09:34:22Z</time>
      </trkpt>
      <trkpt lat="51.689227027818561" lon="0.589621961116791">
        <ele>57</ele>
        <time>2018-02-18T09:34:23Z</time>
      </trkpt>
      <trkpt lat="51.689238008111715" lon="0.589662026613951">
        <ele>57</ele>
        <time>2018-02-18T09:34:24Z</time>
      </trkpt>
      <trkpt lat="51.689249994233251" lon="0.589693039655685">
        <ele>57</ele>
        <time>2018-02-18T09:34:25Z</time>
      </trkpt>
      <trkpt lat="51.689262986183167" lon="0.589717011898756">
        <ele>57</ele>
        <time>2018-02-18T09:34:26Z</time>
      </trkpt>
      <trkpt lat="51.689280001446605" lon="0.589740984141827">
        <ele>57</ele>
        <time>2018-02-18T09:34:27Z</time>
      </trkpt>
      <trkpt lat="51.689296010881662" lon="0.589767973870039">
        <ele>57</ele>
        <time>2018-02-18T09:34:28Z</time>
      </trkpt>
      <trkpt lat="51.689315037801862" lon="0.589802004396915">
        <ele>57</ele>
        <time>2018-02-18T09:34:29Z</time>
      </trkpt>
      <trkpt lat="51.68933498673141" lon="0.589836034923792">
        <ele>57</ele>
        <time>2018-02-18T09:34:30Z</time>
      </trkpt>
      <trkpt lat="51.689347978681326" lon="0.589869981631637">
        <ele>57</ele>
        <time>2018-02-18T09:34:31Z</time>
      </trkpt>
      <trkpt lat="51.689359964802861" lon="0.589909963309765">
        <ele>57</ele>
        <time>2018-02-18T09:34:32Z</time>
      </trkpt>
      <trkpt lat="51.689375974237919" lon="0.589947011321783">
        <ele>57</ele>
        <time>2018-02-18T09:34:33Z</time>
      </trkpt>
      <trkpt lat="51.689390977844596" lon="0.58998498134315">
        <ele>56.009897853141702</ele>
        <time>2018-02-18T09:34:34Z</time>
      </trkpt>
      <trkpt lat="51.689401036128402" lon="0.590023035183549">
        <ele>56</ele>
        <time>2018-02-18T09:34:35Z</time>
      </trkpt>
      <trkpt lat="51.689413022249937" lon="0.590066034346819">
        <ele>55.009897853141702</ele>
        <time>2018-02-18T09:34:36Z</time>
      </trkpt>
      <trkpt lat="51.689422996714711" lon="0.590106016024947">
        <ele>55</ele>
        <time>2018-02-18T09:34:37Z</time>
      </trkpt>
      <trkpt lat="51.689432971179485" lon="0.590149015188217">
        <ele>56</ele>
        <time>2018-02-18T09:34:38Z</time>
      </trkpt>
      <trkpt lat="51.689440011978149" lon="0.590186985209584">
        <ele>56</ele>
        <time>2018-02-18T09:34:39Z</time>
      </trkpt>
      <trkpt lat="51.689446968957782" lon="0.590223027393222">
        <ele>56</ele>
        <time>2018-02-18T09:34:40Z</time>
      </trkpt>
      <trkpt lat="51.689454009756446" lon="0.590254962444305">
        <ele>56</ele>
        <time>2018-02-18T09:34:41Z</time>
      </trkpt>
      <trkpt lat="51.689465995877981" lon="0.59028597548604">
        <ele>56.990102146858298</ele>
        <time>2018-02-18T09:34:42Z</time>
      </trkpt>
      <trkpt lat="51.689474964514375" lon="0.590319000184536">
        <ele>57</ele>
        <time>2018-02-18T09:34:43Z</time>
      </trkpt>
      <trkpt lat="51.689488962292671" lon="0.59034900739789">
        <ele>57</ele>
        <time>2018-02-18T09:34:44Z</time>
      </trkpt>
      <trkpt lat="51.689500026404858" lon="0.590383959934115">
        <ele>57</ele>
        <time>2018-02-18T09:34:45Z</time>
      </trkpt>
      <trkpt lat="51.689514024183154" lon="0.590422013774514">
        <ele>57</ele>
        <time>2018-02-18T09:34:46Z</time>
      </trkpt>
      <trkpt lat="51.689525004476309" lon="0.590464007109404">
        <ele>56</ele>
        <time>2018-02-18T09:34:47Z</time>
      </trkpt>
      <trkpt lat="51.689534978941083" lon="0.590504994615912">
        <ele>56</ele>
        <time>2018-02-18T09:34:48Z</time>
      </trkpt>
      <trkpt lat="51.689541013911366" lon="0.590545982122421">
        <ele>56</ele>
        <time>2018-02-18T09:34:49Z</time>
      </trkpt>
      <trkpt lat="51.689547970890999" lon="0.59058696962893">
        <ele>56</ele>
        <time>2018-02-18T09:34:50Z</time>
      </trkpt>
      <trkpt lat="51.689554005861282" lon="0.590630974620581">
        <ele>56</ele>
        <time>2018-02-18T09:34:51Z</time>
      </trkpt>
      <trkpt lat="51.689566997811198" lon="0.59067296795547">
        <ele>56</ele>
        <time>2018-02-18T09:34:52Z</time>
      </trkpt>
      <trkpt lat="51.689574960619211" lon="0.590714039281011">
        <ele>56</ele>
        <time>2018-02-18T09:34:53Z</time>
      </trkpt>
      <trkpt lat="51.689585018903017" lon="0.590757960453629">
        <ele>56</ele>
        <time>2018-02-18T09:34:54Z</time>
      </trkpt>
      <trkpt lat="51.689594993367791" lon="0.590797020122409">
        <ele>56</ele>
        <time>2018-02-18T09:34:55Z</time>
      </trkpt>
      <trkpt lat="51.689605973660946" lon="0.590837001800537">
        <ele>56</ele>
        <time>2018-02-18T09:34:56Z</time>
      </trkpt>
      <trkpt lat="51.689611002802849" lon="0.590875977650285">
        <ele>56</ele>
        <time>2018-02-18T09:34:57Z</time>
      </trkpt>
      <trkpt lat="51.689617037773132" lon="0.590919982641935">
        <ele>56</ele>
        <time>2018-02-18T09:34:58Z</time>
      </trkpt>
      <trkpt lat="51.689623994752765" lon="0.590961975976825">
        <ele>56</ele>
        <time>2018-02-18T09:34:59Z</time>
      </trkpt>
      <trkpt lat="51.689632041379809" lon="0.591003969311714">
        <ele>56</ele>
        <time>2018-02-18T09:35:00Z</time>
      </trkpt>
      <trkpt lat="51.689643021672964" lon="0.591040011495352">
        <ele>56</ele>
        <time>2018-02-18T09:35:01Z</time>
      </trkpt>
      <trkpt lat="51.689657019451261" lon="0.591080999001861">
        <ele>56</ele>
        <time>2018-02-18T09:35:02Z</time>
      </trkpt>
      <trkpt lat="51.689665988087654" lon="0.591126009821892">
        <ele>56</ele>
        <time>2018-02-18T09:35:03Z</time>
      </trkpt>
      <trkpt lat="51.689677974209189" lon="0.59116599150002">
        <ele>56</ele>
        <time>2018-02-18T09:35:04Z</time>
      </trkpt>
      <trkpt lat="51.689692977815866" lon="0.591202033683658">
        <ele>56</ele>
        <time>2018-02-18T09:35:05Z</time>
      </trkpt>
      <trkpt lat="51.689703958109021" lon="0.591237992048264">
        <ele>56</ele>
        <time>2018-02-18T09:35:06Z</time>
      </trkpt>
      <trkpt lat="51.689718039706349" lon="0.59127202257514">
        <ele>55.071431370244099</ele>
        <time>2018-02-18T09:35:07Z</time>
      </trkpt>
      <trkpt lat="51.689730025827885" lon="0.591304041445255">
        <ele>55</ele>
        <time>2018-02-18T09:35:08Z</time>
      </trkpt>
      <trkpt lat="51.68974201194942" lon="0.591335976496339">
        <ele>55</ele>
        <time>2018-02-18T09:35:09Z</time>
      </trkpt>
      <trkpt lat="51.689758021384478" lon="0.591369001194835">
        <ele>55</ele>
        <time>2018-02-18T09:35:10Z</time>
      </trkpt>
      <trkpt lat="51.689772019162774" lon="0.59140102006495">
        <ele>55</ele>
        <time>2018-02-18T09:35:11Z</time>
      </trkpt>
      <trkpt lat="51.689786016941071" lon="0.591436978429556">
        <ele>55</ele>
        <time>2018-02-18T09:35:12Z</time>
      </trkpt>
      <trkpt lat="51.689806971698999" lon="0.591472014784813">
        <ele>55</ele>
        <time>2018-02-18T09:35:13Z</time>
      </trkpt>
      <trkpt lat="51.689823986962438" lon="0.591503027826548">
        <ele>55</ele>
        <time>2018-02-18T09:35:14Z</time>
      </trkpt>
      <trkpt lat="51.689842008054256" lon="0.591534040868282">
        <ele>55</ele>
        <time>2018-02-18T09:35:15Z</time>
      </trkpt>
      <trkpt lat="51.689856005832553" lon="0.591569999232888">
        <ele>55</ele>
        <time>2018-02-18T09:35:16Z</time>
      </trkpt>
      <trkpt lat="51.689872015267611" lon="0.591606963425875">
        <ele>55</ele>
        <time>2018-02-18T09:35:17Z</time>
      </trkpt>
      <trkpt lat="51.689886013045907" lon="0.591647028923035">
        <ele>55</ele>
        <time>2018-02-18T09:35:18Z</time>
      </trkpt>
      <trkpt lat="51.689903028309345" lon="0.59168198145926">
        <ele>55</ele>
        <time>2018-02-18T09:35:19Z</time>
      </trkpt>
      <trkpt lat="51.689915014430881" lon="0.591723974794149">
        <ele>55</ele>
        <time>2018-02-18T09:35:20Z</time>
      </trkpt>
      <trkpt lat="51.689925994724035" lon="0.591764040291309">
        <ele>55</ele>
        <time>2018-02-18T09:35:21Z</time>
      </trkpt>
      <trkpt lat="51.689939992502332" lon="0.591804021969438">
        <ele>55</ele>
        <time>2018-02-18T09:35:22Z</time>
      </trkpt>
      <trkpt lat="51.689951978623867" lon="0.591847021132708">
        <ele>55</ele>
        <time>2018-02-18T09:35:23Z</time>
      </trkpt>
      <trkpt lat="51.689960025250912" lon="0.591887002810836">
        <ele>55</ele>
        <time>2018-02-18T09:35:24Z</time>
      </trkpt>
      <trkpt lat="51.689968993887305" lon="0.591928996145725">
        <ele>55</ele>
        <time>2018-02-18T09:35:25Z</time>
      </trkpt>
      <trkpt lat="51.689977962523699" lon="0.591968977823853">
        <ele>55</ele>
        <time>2018-02-18T09:35:26Z</time>
      </trkpt>
      <trkpt lat="51.689989026635885" lon="0.592008959501982">
        <ele>55</ele>
        <time>2018-02-18T09:35:27Z</time>
      </trkpt>
      <trkpt lat="51.689997995272279" lon="0.592047013342381">
        <ele>55</ele>
        <time>2018-02-18T09:35:28Z</time>
      </trkpt>
      <trkpt lat="51.690008975565434" lon="0.592085989192128">
        <ele>55</ele>
        <time>2018-02-18T09:35:29Z</time>
      </trkpt>
      <trkpt lat="51.69002003967762" lon="0.592123037204146">
        <ele>55</ele>
        <time>2018-02-18T09:35:30Z</time>
      </trkpt>
      <trkpt lat="51.690032025799155" lon="0.592156983911991">
        <ele>55</ele>
        <time>2018-02-18T09:35:31Z</time>
      </trkpt>
      <trkpt lat="51.690044011920691" lon="0.59219503775239">
        <ele>55</ele>
        <time>2018-02-18T09:35:32Z</time>
      </trkpt>
      <trkpt lat="51.690053986385465" lon="0.592236025258899">
        <ele>55</ele>
        <time>2018-02-18T09:35:33Z</time>
      </trkpt>
      <trkpt lat="51.690065972507" lon="0.592276006937027">
        <ele>55</ele>
        <time>2018-02-18T09:35:34Z</time>
      </trkpt>
      <trkpt lat="51.690077036619186" lon="0.592316994443536">
        <ele>54.089996800000002</ele>
        <time>2018-02-18T09:35:35Z</time>
      </trkpt>
      <trkpt lat="51.690089022740722" lon="0.592359993606806">
        <ele>54</ele>
        <time>2018-02-18T09:35:36Z</time>
      </trkpt>
      <trkpt lat="51.690098997205496" lon="0.592400981113315">
        <ele>54.910003199999998</ele>
        <time>2018-02-18T09:35:37Z</time>
      </trkpt>
      <trkpt lat="51.690112994983792" lon="0.592438029125333">
        <ele>55</ele>
        <time>2018-02-18T09:35:38Z</time>
      </trkpt>
      <trkpt lat="51.690122969448566" lon="0.59247700497508">
        <ele>55</ele>
        <time>2018-02-18T09:35:39Z</time>
      </trkpt>
      <trkpt lat="51.690133027732372" lon="0.592517992481589">
        <ele>55</ele>
        <time>2018-02-18T09:35:40Z</time>
      </trkpt>
      <trkpt lat="51.690144008025527" lon="0.592557974159718">
        <ele>55</ele>
        <time>2018-02-18T09:35:41Z</time>
      </trkpt>
      <trkpt lat="51.690153982490301" lon="0.592595022171736">
        <ele>55</ele>
        <time>2018-02-18T09:35:42Z</time>
      </trkpt>
      <trkpt lat="51.690170997753739" lon="0.592666016891599">
        <ele>55</ele>
        <time>2018-02-18T09:35:44Z</time>
      </trkpt>
      <trkpt lat="51.690180972218513" lon="0.592700969427824">
        <ele>55</ele>
        <time>2018-02-18T09:35:45Z</time>
      </trkpt>
      <trkpt lat="51.690191030502319" lon="0.592739023268223">
        <ele>55</ele>
        <time>2018-02-18T09:35:46Z</time>
      </trkpt>
      <trkpt lat="51.690199999138713" lon="0.59277799911797">
        <ele>55</ele>
        <time>2018-02-18T09:35:47Z</time>
      </trkpt>
      <trkpt lat="51.690209973603487" lon="0.592814963310957">
        <ele>55</ele>
        <time>2018-02-18T09:35:48Z</time>
      </trkpt>
      <trkpt lat="51.690221037715673" lon="0.592849999666214">
        <ele>55</ele>
        <time>2018-02-18T09:35:49Z</time>
      </trkpt>
      <trkpt lat="51.690231012180448" lon="0.592885036021471">
        <ele>55</ele>
        <time>2018-02-18T09:35:50Z</time>
      </trkpt>
      <trkpt lat="51.690239980816841" lon="0.592918982729316">
        <ele>55</ele>
        <time>2018-02-18T09:35:51Z</time>
      </trkpt>
      <trkpt lat="51.690250961109996" lon="0.592957958579063">
        <ele>55</ele>
        <time>2018-02-18T09:35:52Z</time>
      </trkpt>
      <trkpt lat="51.690263031050563" lon="0.59299299493432">
        <ele>55</ele>
        <time>2018-02-18T09:35:53Z</time>
      </trkpt>
      <trkpt lat="51.690273005515337" lon="0.593027025461197">
        <ele>55</ele>
        <time>2018-02-18T09:35:54Z</time>
      </trkpt>
      <trkpt lat="51.690287003293633" lon="0.593062983825803">
        <ele>55</ele>
        <time>2018-02-18T09:35:55Z</time>
      </trkpt>
      <trkpt lat="51.690303012728691" lon="0.593096008524299">
        <ele>55</ele>
        <time>2018-02-18T09:35:56Z</time>
      </trkpt>
      <trkpt lat="51.690316004678607" lon="0.593130961060524">
        <ele>55</ele>
        <time>2018-02-18T09:35:57Z</time>
      </trkpt>
      <trkpt lat="51.690325979143381" lon="0.593170020729303">
        <ele>55</ele>
        <time>2018-02-18T09:35:58Z</time>
      </trkpt>
      <trkpt lat="51.690334025770426" lon="0.593210002407432">
        <ele>55</ele>
        <time>2018-02-18T09:35:59Z</time>
      </trkpt>
      <trkpt lat="51.690345006063581" lon="0.593246966600418">
        <ele>55</ele>
        <time>2018-02-18T09:36:00Z</time>
      </trkpt>
      <trkpt lat="51.690354980528355" lon="0.593278985470533">
        <ele>55</ele>
        <time>2018-02-18T09:36:01Z</time>
      </trkpt>
      <trkpt lat="51.690365960821509" lon="0.593306981027126">
        <ele>55</ele>
        <time>2018-02-18T09:36:02Z</time>
      </trkpt>
      <trkpt lat="51.690379958599806" lon="0.593326007947326">
        <ele>55</ele>
        <time>2018-02-18T09:36:03Z</time>
      </trkpt>
      <trkpt lat="51.690395968034863" lon="0.593342017382383">
        <ele>54.039999999999999</ele>
        <time>2018-02-18T09:36:04Z</time>
      </trkpt>
      <trkpt lat="51.690411977469921" lon="0.593360038474202">
        <ele>54</ele>
        <time>2018-02-18T09:36:05Z</time>
      </trkpt>
      <trkpt lat="51.690423041582108" lon="0.593384010717273">
        <ele>55</ele>
        <time>2018-02-18T09:36:06Z</time>
      </trkpt>
      <trkpt lat="51.690417006611824" lon="0.593414017930627">
        <ele>55</ele>
        <time>2018-02-18T09:36:07Z</time>
      </trkpt>
      <trkpt lat="51.690398985520005" lon="0.59344201348722">
        <ele>55</ele>
        <time>2018-02-18T09:36:08Z</time>
      </trkpt>
      <trkpt lat="51.690382976084948" lon="0.59346598573029">
        <ele>55</ele>
        <time>2018-02-18T09:36:09Z</time>
      </trkpt>
      <trkpt lat="51.690369984135032" lon="0.593494987115264">
        <ele>55</ele>
        <time>2018-02-18T09:36:10Z</time>
      </trkpt>
      <trkpt lat="51.690362021327019" lon="0.593524994328618">
        <ele>55</ele>
        <time>2018-02-18T09:36:11Z</time>
      </trkpt>
      <trkpt lat="51.690357998013496" lon="0.593588026240468">
        <ele>55</ele>
        <time>2018-02-18T09:36:13Z</time>
      </trkpt>
      <trkpt lat="51.690353974699974" lon="0.593623984605074">
        <ele>55</ele>
        <time>2018-02-18T09:36:14Z</time>
      </trkpt>
      <trkpt lat="51.690353974699974" lon="0.593659020960331">
        <ele>55</ele>
        <time>2018-02-18T09:36:15Z</time>
      </trkpt>
      <trkpt lat="51.690355986356735" lon="0.593690034002066">
        <ele>55</ele>
        <time>2018-02-18T09:36:16Z</time>
      </trkpt>
      <trkpt lat="51.690357998013496" lon="0.59372398070991">
        <ele>55</ele>
        <time>2018-02-18T09:36:17Z</time>
      </trkpt>
      <trkpt lat="51.690365960821509" lon="0.593755999580026">
        <ele>55</ele>
        <time>2018-02-18T09:36:18Z</time>
      </trkpt>
      <trkpt lat="51.690371995791793" lon="0.593790030106902">
        <ele>55</ele>
        <time>2018-02-18T09:36:19Z</time>
      </trkpt>
      <trkpt lat="51.690377024933696" lon="0.593821965157986">
        <ele>55</ele>
        <time>2018-02-18T09:36:20Z</time>
      </trkpt>
      <trkpt lat="51.690381970256567" lon="0.59385197237134">
        <ele>55</ele>
        <time>2018-02-18T09:36:21Z</time>
      </trkpt>
      <trkpt lat="51.690385993570089" lon="0.593886002898216">
        <ele>55</ele>
        <time>2018-02-18T09:36:22Z</time>
      </trkpt>
      <trkpt lat="51.690388005226851" lon="0.593925984576344">
        <ele>55</ele>
        <time>2018-02-18T09:36:23Z</time>
      </trkpt>
      <trkpt lat="51.690392028540373" lon="0.593961020931602">
        <ele>55</ele>
        <time>2018-02-18T09:36:24Z</time>
      </trkpt>
      <trkpt lat="51.690394040197134" lon="0.593999996781349">
        <ele>55</ele>
        <time>2018-02-18T09:36:25Z</time>
      </trkpt>
      <trkpt lat="51.690395968034863" lon="0.594034027308226">
        <ele>55</ele>
        <time>2018-02-18T09:36:26Z</time>
      </trkpt>
      <trkpt lat="51.690397979691625" lon="0.594071997329593">
        <ele>55</ele>
        <time>2018-02-18T09:36:27Z</time>
      </trkpt>
      <trkpt lat="51.690397979691625" lon="0.59410803951323">
        <ele>55</ele>
        <time>2018-02-18T09:36:28Z</time>
      </trkpt>
      <trkpt lat="51.690399991348386" lon="0.594141986221075">
        <ele>55</ele>
        <time>2018-02-18T09:36:29Z</time>
      </trkpt>
      <trkpt lat="51.690399991348386" lon="0.594178028404713">
        <ele>55</ele>
        <time>2018-02-18T09:36:30Z</time>
      </trkpt>
      <trkpt lat="51.690403008833528" lon="0.594213986769319">
        <ele>55</ele>
        <time>2018-02-18T09:36:31Z</time>
      </trkpt>
      <trkpt lat="51.69040803797543" lon="0.594253968447447">
        <ele>55</ele>
        <time>2018-02-18T09:36:32Z</time>
      </trkpt>
      <trkpt lat="51.690410971641541" lon="0.594292022287846">
        <ele>55</ele>
        <time>2018-02-18T09:36:33Z</time>
      </trkpt>
      <trkpt lat="51.690416000783443" lon="0.59432596899569">
        <ele>55.900005120065501</ele>
        <time>2018-02-18T09:36:34Z</time>
      </trkpt>
      <trkpt lat="51.690417006611824" lon="0.594364022836089">
        <ele>56</ele>
        <time>2018-02-18T09:36:35Z</time>
      </trkpt>
      <trkpt lat="51.690420024096966" lon="0.594404004514217">
        <ele>56</ele>
        <time>2018-02-18T09:36:36Z</time>
      </trkpt>
      <trkpt lat="51.690423041582108" lon="0.594441974535584">
        <ele>56</ele>
        <time>2018-02-18T09:36:37Z</time>
      </trkpt>
      <trkpt lat="51.690425975248218" lon="0.594483967870474">
        <ele>56</ele>
        <time>2018-02-18T09:36:38Z</time>
      </trkpt>
      <trkpt lat="51.690427986904979" lon="0.594525039196014">
        <ele>56</ele>
        <time>2018-02-18T09:36:39Z</time>
      </trkpt>
      <trkpt lat="51.69042999856174" lon="0.594562003389001">
        <ele>56</ele>
        <time>2018-02-18T09:36:40Z</time>
      </trkpt>
      <trkpt lat="51.690432010218501" lon="0.594596033915877">
        <ele>56</ele>
        <time>2018-02-18T09:36:41Z</time>
      </trkpt>
      <trkpt lat="51.690434021875262" lon="0.594632998108864">
        <ele>56</ele>
        <time>2018-02-18T09:36:42Z</time>
      </trkpt>
      <trkpt lat="51.690434021875262" lon="0.594668034464121">
        <ele>56</ele>
        <time>2018-02-18T09:36:43Z</time>
      </trkpt>
      <trkpt lat="51.690434021875262" lon="0.594701981171966">
        <ele>56</ele>
        <time>2018-02-18T09:36:44Z</time>
      </trkpt>
      <trkpt lat="51.690432010218501" lon="0.594741040840745">
        <ele>56</ele>
        <time>2018-02-18T09:36:45Z</time>
      </trkpt>
      <trkpt lat="51.690434021875262" lon="0.594780016690493">
        <ele>56</ele>
        <time>2018-02-18T09:36:46Z</time>
      </trkpt>
      <trkpt lat="51.690434021875262" lon="0.594824021682143">
        <ele>56</ele>
        <time>2018-02-18T09:36:47Z</time>
      </trkpt>
      <trkpt lat="51.690431004390121" lon="0.594865009188652">
        <ele>56</ele>
        <time>2018-02-18T09:36:48Z</time>
      </trkpt>
      <trkpt lat="51.69042999856174" lon="0.594902979210019">
        <ele>56</ele>
        <time>2018-02-18T09:36:49Z</time>
      </trkpt>
      <trkpt lat="51.690427986904979" lon="0.59494799003005">
        <ele>56</ele>
        <time>2018-02-18T09:36:50Z</time>
      </trkpt>
      <trkpt lat="51.690427986904979" lon="0.594985960051417">
        <ele>56</ele>
        <time>2018-02-18T09:36:51Z</time>
      </trkpt>
      <trkpt lat="51.690427986904979" lon="0.595026025548577">
        <ele>56</ele>
        <time>2018-02-18T09:36:52Z</time>
      </trkpt>
      <trkpt lat="51.690425975248218" lon="0.595066007226706">
        <ele>56</ele>
        <time>2018-02-18T09:36:53Z</time>
      </trkpt>
      <trkpt lat="51.690423963591456" lon="0.595108000561595">
        <ele>56</ele>
        <time>2018-02-18T09:36:54Z</time>
      </trkpt>
      <trkpt lat="51.690425975248218" lon="0.595152005553246">
        <ele>56</ele>
        <time>2018-02-18T09:36:55Z</time>
      </trkpt>
      <trkpt lat="51.690425975248218" lon="0.595198022201657">
        <ele>56</ele>
        <time>2018-02-18T09:36:56Z</time>
      </trkpt>
      <trkpt lat="51.690423963591456" lon="0.595243033021688">
        <ele>56</ele>
        <time>2018-02-18T09:36:57Z</time>
      </trkpt>
      <trkpt lat="51.690421029925346" lon="0.595286032184958">
        <ele>56</ele>
        <time>2018-02-18T09:36:58Z</time>
      </trkpt>
      <trkpt lat="51.690417006611824" lon="0.595365995541215">
        <ele>56</ele>
        <time>2018-02-18T09:37:00Z</time>
      </trkpt>
      <trkpt lat="51.690417006611824" lon="0.595400026068091">
        <ele>56.941753243525397</ele>
        <time>2018-02-18T09:37:01Z</time>
      </trkpt>
      <trkpt lat="51.690418012440205" lon="0.595436990261078">
        <ele>57</ele>
        <time>2018-02-18T09:37:02Z</time>
      </trkpt>
      <trkpt lat="51.690417006611824" lon="0.595474960282445">
        <ele>57</ele>
        <time>2018-02-18T09:37:03Z</time>
      </trkpt>
      <trkpt lat="51.690412983298302" lon="0.595516031607986">
        <ele>57</ele>
        <time>2018-02-18T09:37:04Z</time>
      </trkpt>
      <trkpt lat="51.69040996581316" lon="0.59554997831583">
        <ele>57</ele>
        <time>2018-02-18T09:37:05Z</time>
      </trkpt>
      <trkpt lat="51.69040703214705" lon="0.595588032156229">
        <ele>57</ele>
        <time>2018-02-18T09:37:06Z</time>
      </trkpt>
      <trkpt lat="51.690406026318669" lon="0.595630025491118">
        <ele>57</ele>
        <time>2018-02-18T09:37:07Z</time>
      </trkpt>
      <trkpt lat="51.69040703214705" lon="0.595672018826008">
        <ele>57</ele>
        <time>2018-02-18T09:37:08Z</time>
      </trkpt>
      <trkpt lat="51.69040703214705" lon="0.595712000504136">
        <ele>57</ele>
        <time>2018-02-18T09:37:09Z</time>
      </trkpt>
      <trkpt lat="51.69040803797543" lon="0.595745025202632">
        <ele>57</ele>
        <time>2018-02-18T09:37:10Z</time>
      </trkpt>
      <trkpt lat="51.69040803797543" lon="0.59578400105238">
        <ele>57</ele>
        <time>2018-02-18T09:37:11Z</time>
      </trkpt>
      <trkpt lat="51.690405020490289" lon="0.595861030742526">
        <ele>57</ele>
        <time>2018-02-18T09:37:13Z</time>
      </trkpt>
      <trkpt lat="51.690400997176766" lon="0.595901012420654">
        <ele>57</ele>
        <time>2018-02-18T09:37:14Z</time>
      </trkpt>
      <trkpt lat="51.690395968034863" lon="0.59593596495688">
        <ele>57</ele>
        <time>2018-02-18T09:37:15Z</time>
      </trkpt>
      <trkpt lat="51.690396973863244" lon="0.595971001312137">
        <ele>57</ele>
        <time>2018-02-18T09:37:16Z</time>
      </trkpt>
      <trkpt lat="51.690398985520005" lon="0.596007965505123">
        <ele>57</ele>
        <time>2018-02-18T09:37:17Z</time>
      </trkpt>
      <trkpt lat="51.690398985520005" lon="0.596045013517141">
        <ele>57</ele>
        <time>2018-02-18T09:37:18Z</time>
      </trkpt>
      <trkpt lat="51.690397979691625" lon="0.59608499519527">
        <ele>57</ele>
        <time>2018-02-18T09:37:19Z</time>
      </trkpt>
      <trkpt lat="51.690396973863244" lon="0.596120031550527">
        <ele>57</ele>
        <time>2018-02-18T09:37:20Z</time>
      </trkpt>
      <trkpt lat="51.690395968034863" lon="0.596158001571894">
        <ele>57</ele>
        <time>2018-02-18T09:37:21Z</time>
      </trkpt>
      <trkpt lat="51.690393034368753" lon="0.5961939599365">
        <ele>57.060005631927901</ele>
        <time>2018-02-18T09:37:22Z</time>
      </trkpt>
      <trkpt lat="51.690391022711992" lon="0.596224972978234">
        <ele>58</ele>
        <time>2018-02-18T09:37:23Z</time>
      </trkpt>
      <trkpt lat="51.690352968871593" lon="0.596378026530147">
        <ele>58.041237249442503</ele>
        <time>2018-02-18T09:37:29Z</time>
      </trkpt>
      <trkpt lat="51.690316004678607" lon="0.596440974622965">
        <ele>58</ele>
        <time>2018-02-18T09:37:31Z</time>
      </trkpt>
      <trkpt lat="51.690296977758408" lon="0.596473999321461">
        <ele>58</ele>
        <time>2018-02-18T09:37:32Z</time>
      </trkpt>
      <trkpt lat="51.690231012180448" lon="0.596581036224961">
        <ele>58</ele>
        <time>2018-02-18T09:37:36Z</time>
      </trkpt>
      <trkpt lat="51.690160017460585" lon="0.596691006794572">
        <ele>58</ele>
        <time>2018-02-18T09:37:40Z</time>
      </trkpt>
      <trkpt lat="51.690093968063593" lon="0.596826961264014">
        <ele>58.969693835333103</ele>
        <time>2018-02-18T09:37:45Z</time>
      </trkpt>
      <trkpt lat="51.690028002485633" lon="0.596941960975528">
        <ele>59</ele>
        <time>2018-02-18T09:37:49Z</time>
      </trkpt>
      <trkpt lat="51.689981985837221" lon="0.597024019807577">
        <ele>59</ele>
        <time>2018-02-18T09:37:52Z</time>
      </trkpt>
      <trkpt lat="51.689962036907673" lon="0.597053021192551">
        <ele>59</ele>
        <time>2018-02-18T09:37:53Z</time>
      </trkpt>
      <trkpt lat="51.689946027472615" lon="0.597082022577524">
        <ele>59</ele>
        <time>2018-02-18T09:37:54Z</time>
      </trkpt>
      <trkpt lat="51.689913002774119" lon="0.597145976498723">
        <ele>59</ele>
        <time>2018-02-18T09:37:56Z</time>
      </trkpt>
      <trkpt lat="51.689901016652584" lon="0.597175983712077">
        <ele>59</ele>
        <time>2018-02-18T09:37:57Z</time>
      </trkpt>
      <trkpt lat="51.689870003610849" lon="0.597232980653644">
        <ele>59</ele>
        <time>2018-02-18T09:37:59Z</time>
      </trkpt>
      <trkpt lat="51.689853994175792" lon="0.597258964553475">
        <ele>59</ele>
        <time>2018-02-18T09:38:00Z</time>
      </trkpt>
      <trkpt lat="51.689838990569115" lon="0.597290983423591">
        <ele>58.960395914125698</ele>
        <time>2018-02-18T09:38:01Z</time>
      </trkpt>
      <trkpt lat="51.689786016941071" lon="0.59737597592175">
        <ele>59</ele>
        <time>2018-02-18T09:38:04Z</time>
      </trkpt>
      <trkpt lat="51.689771013334394" lon="0.597404977306724">
        <ele>59</ele>
        <time>2018-02-18T09:38:05Z</time>
      </trkpt>
      <trkpt lat="51.689760033041239" lon="0.597431967034936">
        <ele>59</ele>
        <time>2018-02-18T09:38:06Z</time>
      </trkpt>
      <trkpt lat="51.689747041091323" lon="0.597456023097038">
        <ele>59</ele>
        <time>2018-02-18T09:38:07Z</time>
      </trkpt>
      <trkpt lat="51.689729019999504" lon="0.597484018653631">
        <ele>59</ele>
        <time>2018-02-18T09:38:08Z</time>
      </trkpt>
      <trkpt lat="51.689716028049588" lon="0.597505979239941">
        <ele>59</ele>
        <time>2018-02-18T09:38:09Z</time>
      </trkpt>
      <trkpt lat="51.689703036099672" lon="0.597531963139772">
        <ele>59</ele>
        <time>2018-02-18T09:38:10Z</time>
      </trkpt>
      <trkpt lat="51.689692977815866" lon="0.597559958696365">
        <ele>59</ele>
        <time>2018-02-18T09:38:11Z</time>
      </trkpt>
      <trkpt lat="51.689676968380809" lon="0.597598012536764">
        <ele>59</ele>
        <time>2018-02-18T09:38:13Z</time>
      </trkpt>
      <trkpt lat="51.689651990309358" lon="0.59765400364995">
        <ele>59</ele>
        <time>2018-02-18T09:38:16Z</time>
      </trkpt>
      <trkpt lat="51.689636986702681" lon="0.597689962014556">
        <ele>59</ele>
        <time>2018-02-18T09:38:18Z</time>
      </trkpt>
      <trkpt lat="51.689620977267623" lon="0.597716029733419">
        <ele>59</ele>
        <time>2018-02-18T09:38:20Z</time>
      </trkpt>
      <trkpt lat="51.689600022509694" lon="0.597745031118393">
        <ele>59</ele>
        <time>2018-02-18T09:38:22Z</time>
      </trkpt>
      <trkpt lat="51.689583007246256" lon="0.597774032503366">
        <ele>59</ele>
        <time>2018-02-18T09:38:25Z</time>
      </trkpt>
      <trkpt lat="51.689573032781482" lon="0.597798004746437">
        <ele>59</ele>
        <time>2018-02-18T09:38:27Z</time>
      </trkpt>
      <trkpt lat="51.689558029174805" lon="0.597828011959791">
        <ele>59</ele>
        <time>2018-02-18T09:38:29Z</time>
      </trkpt>
      <trkpt lat="51.689541013911366" lon="0.59784896671772">
        <ele>59</ele>
        <time>2018-02-18T09:38:31Z</time>
      </trkpt>
      <trkpt lat="51.689522992819548" lon="0.597865981981158">
        <ele>59</ele>
        <time>2018-02-18T09:38:33Z</time>
      </trkpt>
      <trkpt lat="51.689504971727729" lon="0.597886014729738">
        <ele>59</ele>
        <time>2018-02-18T09:38:35Z</time>
      </trkpt>
      <trkpt lat="51.689492985606194" lon="0.597905963659287">
        <ele>59</ele>
        <time>2018-02-18T09:38:37Z</time>
      </trkpt>
      <trkpt lat="51.689477981999516" lon="0.597942005842924">
        <ele>59.903852307692297</ele>
        <time>2018-02-18T09:38:40Z</time>
      </trkpt>
      <trkpt lat="51.689464990049601" lon="0.597972013056278">
        <ele>60</ele>
        <time>2018-02-18T09:38:42Z</time>
      </trkpt>
      <trkpt lat="51.689458033069968" lon="0.598005959764123">
        <ele>59.029414717397799</ele>
        <time>2018-02-18T09:38:44Z</time>
      </trkpt>
      <trkpt lat="51.689459960907698" lon="0.598044013604522">
        <ele>59</ele>
        <time>2018-02-18T09:38:46Z</time>
      </trkpt>
      <trkpt lat="51.689456021413207" lon="0.598085001111031">
        <ele>59</ele>
        <time>2018-02-18T09:38:48Z</time>
      </trkpt>
      <trkpt lat="51.689450992271304" lon="0.598122971132398">
        <ele>59</ele>
        <time>2018-02-18T09:38:50Z</time>
      </trkpt>
      <trkpt lat="51.689454009756446" lon="0.598160019144416">
        <ele>59</ele>
        <time>2018-02-18T09:38:52Z</time>
      </trkpt>
      <trkpt lat="51.689457027241588" lon="0.598209975287318">
        <ele>59</ele>
        <time>2018-02-18T09:38:54Z</time>
      </trkpt>
      <trkpt lat="51.689459960907698" lon="0.598254986107349">
        <ele>59</ele>
        <time>2018-02-18T09:38:56Z</time>
      </trkpt>
      <trkpt lat="51.689465995877981" lon="0.598293961957097">
        <ele>59</ele>
        <time>2018-02-18T09:38:58Z</time>
      </trkpt>
      <trkpt lat="51.689476976171136" lon="0.598337966948748">
        <ele>59</ele>
        <time>2018-02-18T09:39:00Z</time>
      </trkpt>
      <trkpt lat="51.6894840169698" lon="0.598385995253921">
        <ele>60</ele>
        <time>2018-02-18T09:39:02Z</time>
      </trkpt>
      <trkpt lat="51.689488962292671" lon="0.598437963053584">
        <ele>60</ele>
        <time>2018-02-18T09:39:04Z</time>
      </trkpt>
      <trkpt lat="51.689494997262955" lon="0.598484985530376">
        <ele>60</ele>
        <time>2018-02-18T09:39:06Z</time>
      </trkpt>
      <trkpt lat="51.689503965899348" lon="0.59853401966393">
        <ele>60</ele>
        <time>2018-02-18T09:39:08Z</time>
      </trkpt>
      <trkpt lat="51.689507989212871" lon="0.598578024655581">
        <ele>60</ele>
        <time>2018-02-18T09:39:10Z</time>
      </trkpt>
      <trkpt lat="51.689522992819548" lon="0.598606020212173">
        <ele>60</ele>
        <time>2018-02-18T09:39:12Z</time>
      </trkpt>
      <trkpt lat="51.689534978941083" lon="0.598650025203824">
        <ele>60</ele>
        <time>2018-02-18T09:39:14Z</time>
      </trkpt>
      <trkpt lat="51.689541013911366" lon="0.598696963861585">
        <ele>60</ele>
        <time>2018-02-18T09:39:16Z</time>
      </trkpt>
      <trkpt lat="51.689545959234238" lon="0.598745997995138">
        <ele>60</ele>
        <time>2018-02-18T09:39:18Z</time>
      </trkpt>
      <trkpt lat="51.68954998254776" lon="0.598796959966421">
        <ele>60</ele>
        <time>2018-02-18T09:39:20Z</time>
      </trkpt>
      <trkpt lat="51.689556017518044" lon="0.598845994099975">
        <ele>60</ele>
        <time>2018-02-18T09:39:22Z</time>
      </trkpt>
      <trkpt lat="51.689566997811198" lon="0.598892010748386">
        <ele>59</ele>
        <time>2018-02-18T09:39:24Z</time>
      </trkpt>
      <trkpt lat="51.689577978104353" lon="0.598934004083276">
        <ele>59</ele>
        <time>2018-02-18T09:39:26Z</time>
      </trkpt>
      <trkpt lat="51.689587030559778" lon="0.598981026560068">
        <ele>59</ele>
        <time>2018-02-18T09:39:28Z</time>
      </trkpt>
      <trkpt lat="51.689593987539411" lon="0.599032994359732">
        <ele>59</ele>
        <time>2018-02-18T09:39:30Z</time>
      </trkpt>
      <trkpt lat="51.689603039994836" lon="0.599075993523002">
        <ele>59</ele>
        <time>2018-02-18T09:39:32Z</time>
      </trkpt>
      <trkpt lat="51.689608991146088" lon="0.599124021828175">
        <ele>59</ele>
        <time>2018-02-18T09:39:34Z</time>
      </trkpt>
      <trkpt lat="51.689616031944752" lon="0.599170960485935">
        <ele>59</ele>
        <time>2018-02-18T09:39:36Z</time>
      </trkpt>
      <trkpt lat="51.689625000581145" lon="0.599218988791108">
        <ele>59</ele>
        <time>2018-02-18T09:39:38Z</time>
      </trkpt>
      <trkpt lat="51.689637992531061" lon="0.59926500543952">
        <ele>59</ele>
        <time>2018-02-18T09:39:40Z</time>
      </trkpt>
      <trkpt lat="51.689647966995835" lon="0.59930901043117">
        <ele>59</ele>
        <time>2018-02-18T09:39:42Z</time>
      </trkpt>
      <trkpt lat="51.689659031108022" lon="0.599356032907963">
        <ele>59</ele>
        <time>2018-02-18T09:39:44Z</time>
      </trkpt>
      <trkpt lat="51.689674034714699" lon="0.599402971565723">
        <ele>59</ele>
        <time>2018-02-18T09:39:46Z</time>
      </trkpt>
      <trkpt lat="51.689683003351092" lon="0.599449994042516">
        <ele>59</ele>
        <time>2018-02-18T09:39:48Z</time>
      </trkpt>
      <trkpt lat="51.689692977815866" lon="0.599488969892263">
        <ele>59</ele>
        <time>2018-02-18T09:39:50Z</time>
      </trkpt>
      <trkpt lat="51.689693983644247" lon="0.599527023732662">
        <ele>59</ele>
        <time>2018-02-18T09:39:52Z</time>
      </trkpt>
      <trkpt lat="51.689703958109021" lon="0.599572034552693">
        <ele>59.0297062327326</ele>
        <time>2018-02-18T09:39:54Z</time>
      </trkpt>
      <trkpt lat="51.689717033877969" lon="0.599617967382073">
        <ele>60</ele>
        <time>2018-02-18T09:39:56Z</time>
      </trkpt>
      <trkpt lat="51.68972197920084" lon="0.599662978202105">
        <ele>60</ele>
        <time>2018-02-18T09:39:58Z</time>
      </trkpt>
      <trkpt lat="51.689728014171124" lon="0.599710000678897">
        <ele>60</ele>
        <time>2018-02-18T09:40:00Z</time>
      </trkpt>
      <trkpt lat="51.689733965322375" lon="0.599751994013786">
        <ele>59</ele>
        <time>2018-02-18T09:40:02Z</time>
      </trkpt>
      <trkpt lat="51.68974201194942" lon="0.599797004833817">
        <ele>59</ele>
        <time>2018-02-18T09:40:04Z</time>
      </trkpt>
      <trkpt lat="51.689751986414194" lon="0.599843021482229">
        <ele>59</ele>
        <time>2018-02-18T09:40:06Z</time>
      </trkpt>
      <trkpt lat="51.689761960878968" lon="0.59988996013999">
        <ele>60</ele>
        <time>2018-02-18T09:40:08Z</time>
      </trkpt>
      <trkpt lat="51.689765984192491" lon="0.599918961524963">
        <ele>60</ele>
        <time>2018-02-18T09:40:09Z</time>
      </trkpt>
      <trkpt lat="51.689772019162774" lon="0.599969001486897">
        <ele>60</ele>
        <time>2018-02-18T09:40:11Z</time>
      </trkpt>
      <trkpt lat="51.689776964485645" lon="0.600013006478548">
        <ele>59</ele>
        <time>2018-02-18T09:40:13Z</time>
      </trkpt>
      <trkpt lat="51.689789034426212" lon="0.600061034783721">
        <ele>59</ele>
        <time>2018-02-18T09:40:15Z</time>
      </trkpt>
      <trkpt lat="51.689796997234225" lon="0.600111996755004">
        <ele>59</ele>
        <time>2018-02-18T09:40:17Z</time>
      </trkpt>
      <trkpt lat="51.689809989184141" lon="0.600162036716938">
        <ele>59.020414560558002</ele>
        <time>2018-02-18T09:40:19Z</time>
      </trkpt>
      <trkpt lat="51.689820969477296" lon="0.600215010344982">
        <ele>60</ele>
        <time>2018-02-18T09:40:21Z</time>
      </trkpt>
      <trkpt lat="51.689827004447579" lon="0.600240994244814">
        <ele>60</ele>
        <time>2018-02-18T09:40:22Z</time>
      </trkpt>
      <trkpt lat="51.689831027761102" lon="0.60027401894331">
        <ele>59.9702937672674</ele>
        <time>2018-02-18T09:40:24Z</time>
      </trkpt>
      <trkpt lat="51.689835973083973" lon="0.600315006449819">
        <ele>59</ele>
        <time>2018-02-18T09:40:26Z</time>
      </trkpt>
      <trkpt lat="51.689845025539398" lon="0.600358005613089">
        <ele>59</ele>
        <time>2018-02-18T09:40:28Z</time>
      </trkpt>
      <trkpt lat="51.689852988347411" lon="0.6004040222615">
        <ele>60</ele>
        <time>2018-02-18T09:40:30Z</time>
      </trkpt>
      <trkpt lat="51.689859023317695" lon="0.600452972576022">
        <ele>60</ele>
        <time>2018-02-18T09:40:32Z</time>
      </trkpt>
      <trkpt lat="51.689863968640566" lon="0.600499995052814">
        <ele>60</ele>
        <time>2018-02-18T09:40:34Z</time>
      </trkpt>
      <trkpt lat="51.689873021095991" lon="0.600541988387704">
        <ele>60</ele>
        <time>2018-02-18T09:40:36Z</time>
      </trkpt>
      <trkpt lat="51.689880983904004" lon="0.600581970065832">
        <ele>60</ele>
        <time>2018-02-18T09:40:38Z</time>
      </trkpt>
      <trkpt lat="51.689890036359429" lon="0.600622035562992">
        <ele>60</ele>
        <time>2018-02-18T09:40:40Z</time>
      </trkpt>
      <trkpt lat="51.689899004995823" lon="0.600669980049133">
        <ele>60</ele>
        <time>2018-02-18T09:40:42Z</time>
      </trkpt>
      <trkpt lat="51.689910991117358" lon="0.600723037496209">
        <ele>59</ele>
        <time>2018-02-18T09:40:44Z</time>
      </trkpt>
      <trkpt lat="51.689917026087642" lon="0.600752038881183">
        <ele>59</ele>
        <time>2018-02-18T09:40:45Z</time>
      </trkpt>
      <trkpt lat="51.689927000552416" lon="0.600804006680846">
        <ele>59</ele>
        <time>2018-02-18T09:40:47Z</time>
      </trkpt>
      <trkpt lat="51.689939992502332" lon="0.600850023329258">
        <ele>59</ele>
        <time>2018-02-18T09:40:49Z</time>
      </trkpt>
      <trkpt lat="51.689947033300996" lon="0.600901991128922">
        <ele>59</ele>
        <time>2018-02-18T09:40:51Z</time>
      </trkpt>
      <trkpt lat="51.689952984452248" lon="0.600947001948953">
        <ele>59</ele>
        <time>2018-02-18T09:40:53Z</time>
      </trkpt>
      <trkpt lat="51.689960025250912" lon="0.600991006940603">
        <ele>59</ele>
        <time>2018-02-18T09:40:55Z</time>
      </trkpt>
      <trkpt lat="51.689965976402164" lon="0.601031994447112">
        <ele>59</ele>
        <time>2018-02-18T09:40:57Z</time>
      </trkpt>
      <trkpt lat="51.689973017200828" lon="0.601074993610382">
        <ele>59</ele>
        <time>2018-02-18T09:40:59Z</time>
      </trkpt>
      <trkpt lat="51.68997704051435" lon="0.601118998602033">
        <ele>59</ele>
        <time>2018-02-18T09:41:01Z</time>
      </trkpt>
      <trkpt lat="51.689981985837221" lon="0.601171972230077">
        <ele>59</ele>
        <time>2018-02-18T09:41:03Z</time>
      </trkpt>
      <trkpt lat="51.689987014979124" lon="0.601216983050108">
        <ele>59</ele>
        <time>2018-02-18T09:41:05Z</time>
      </trkpt>
      <trkpt lat="51.689994977787137" lon="0.601252019405365">
        <ele>59</ele>
        <time>2018-02-18T09:41:07Z</time>
      </trkpt>
      <trkpt lat="51.690006041899323" lon="0.601275991648436">
        <ele>59</ele>
        <time>2018-02-18T09:41:09Z</time>
      </trkpt>
      <trkpt lat="51.69002297334373" lon="0.601304993033409">
        <ele>59.039999999999999</ele>
        <time>2018-02-18T09:41:11Z</time>
      </trkpt>
      <trkpt lat="51.690035965293646" lon="0.601341035217047">
        <ele>60</ele>
        <time>2018-02-18T09:41:13Z</time>
      </trkpt>
      <trkpt lat="51.69004300609231" lon="0.601373976096511">
        <ele>59.979585439441998</ele>
        <time>2018-02-18T09:41:15Z</time>
      </trkpt>
      <trkpt lat="51.690039988607168" lon="0.60141303576529">
        <ele>59</ele>
        <time>2018-02-18T09:41:18Z</time>
      </trkpt>
      <trkpt lat="51.690037976950407" lon="0.601446982473135">
        <ele>59</ele>
        <time>2018-02-18T09:41:23Z</time>
      </trkpt>
      <trkpt lat="51.690042000263929" lon="0.60147799551487">
        <ele>59</ele>
        <time>2018-02-18T09:41:28Z</time>
      </trkpt>
      <trkpt lat="51.690039988607168" lon="0.601515965536237">
        <ele>59</ele>
        <time>2018-02-18T09:41:32Z</time>
      </trkpt>
      <trkpt lat="51.69004300609231" lon="0.601557036861777">
        <ele>59</ele>
        <time>2018-02-18T09:41:36Z</time>
      </trkpt>
      <trkpt lat="51.690044011920691" lon="0.601596012711525">
        <ele>59</ele>
        <time>2018-02-18T09:41:39Z</time>
      </trkpt>
      <trkpt lat="51.690045017749071" lon="0.60162803158164">
        <ele>59</ele>
        <time>2018-02-18T09:41:41Z</time>
      </trkpt>
      <trkpt lat="51.690048035234213" lon="0.601663989946246">
        <ele>59</ele>
        <time>2018-02-18T09:41:43Z</time>
      </trkpt>
      <trkpt lat="51.690064966678619" lon="0.601687962189317">
        <ele>59</ele>
        <time>2018-02-18T09:42:05Z</time>
      </trkpt>
      <trkpt lat="51.690061027184129" lon="0.601726016029716">
        <ele>60</ele>
        <time>2018-02-18T09:42:07Z</time>
      </trkpt>
      <trkpt lat="51.690063960850239" lon="0.601775972172618">
        <ele>60</ele>
        <time>2018-02-18T09:42:09Z</time>
      </trkpt>
      <trkpt lat="51.690065972507" lon="0.601824000477791">
        <ele>60</ele>
        <time>2018-02-18T09:42:11Z</time>
      </trkpt>
      <trkpt lat="51.690071001648903" lon="0.601874962449074">
        <ele>60</ele>
        <time>2018-02-18T09:42:13Z</time>
      </trkpt>
      <trkpt lat="51.690076030790806" lon="0.601921984925866">
        <ele>60</ele>
        <time>2018-02-18T09:42:15Z</time>
      </trkpt>
      <trkpt lat="51.690078964456916" lon="0.601973030716181">
        <ele>60</ele>
        <time>2018-02-18T09:42:17Z</time>
      </trkpt>
      <trkpt lat="51.690084999427199" lon="0.602018041536212">
        <ele>60</ele>
        <time>2018-02-18T09:42:19Z</time>
      </trkpt>
      <trkpt lat="51.690089022740722" lon="0.602062968537211">
        <ele>60</ele>
        <time>2018-02-18T09:42:21Z</time>
      </trkpt>
      <trkpt lat="51.690091034397483" lon="0.602112002670765">
        <ele>60</ele>
        <time>2018-02-18T09:42:23Z</time>
      </trkpt>
      <trkpt lat="51.690097991377115" lon="0.602155001834035">
        <ele>60</ele>
        <time>2018-02-18T09:42:25Z</time>
      </trkpt>
      <trkpt lat="51.690103020519018" lon="0.602203030139208">
        <ele>60</ele>
        <time>2018-02-18T09:42:27Z</time>
      </trkpt>
      <trkpt lat="51.69010603800416" lon="0.602248040959239">
        <ele>60</ele>
        <time>2018-02-18T09:42:29Z</time>
      </trkpt>
      <trkpt lat="51.690112994983792" lon="0.602290034294128">
        <ele>60</ele>
        <time>2018-02-18T09:42:31Z</time>
      </trkpt>
      <trkpt lat="51.690115006640553" lon="0.60233898460865">
        <ele>60</ele>
        <time>2018-02-18T09:42:33Z</time>
      </trkpt>
      <trkpt lat="51.690117018297315" lon="0.602391958236694">
        <ele>59.009996800000003</ele>
        <time>2018-02-18T09:42:35Z</time>
      </trkpt>
      <trkpt lat="51.690122969448566" lon="0.602440992370248">
        <ele>59</ele>
        <time>2018-02-18T09:42:37Z</time>
      </trkpt>
      <trkpt lat="51.69012900441885" lon="0.602486003190279">
        <ele>59</ele>
        <time>2018-02-18T09:42:39Z</time>
      </trkpt>
      <trkpt lat="51.690135039389133" lon="0.602527996525168">
        <ele>59</ele>
        <time>2018-02-18T09:42:41Z</time>
      </trkpt>
      <trkpt lat="51.690140990540385" lon="0.602575019001961">
        <ele>59.030931236061797</ele>
        <time>2018-02-18T09:42:43Z</time>
      </trkpt>
      <trkpt lat="51.690145013853908" lon="0.602626986801624">
        <ele>60</ele>
        <time>2018-02-18T09:42:45Z</time>
      </trkpt>
      <trkpt lat="51.690147025510669" lon="0.602654982358217">
        <ele>60</ele>
        <time>2018-02-18T09:42:46Z</time>
      </trkpt>
      <trkpt lat="51.690152976661921" lon="0.602711979299784">
        <ele>60</ele>
        <time>2018-02-18T09:42:48Z</time>
      </trkpt>
      <trkpt lat="51.690158005803823" lon="0.602764030918479">
        <ele>60</ele>
        <time>2018-02-18T09:42:50Z</time>
      </trkpt>
      <trkpt lat="51.690160017460585" lon="0.602809963747859">
        <ele>59.030306164666897</ele>
        <time>2018-02-18T09:42:52Z</time>
      </trkpt>
      <trkpt lat="51.690163034945726" lon="0.60285396873951">
        <ele>59</ele>
        <time>2018-02-18T09:42:54Z</time>
      </trkpt>
      <trkpt lat="51.690170997753739" lon="0.602898979559541">
        <ele>59</ele>
        <time>2018-02-18T09:42:56Z</time>
      </trkpt>
      <trkpt lat="51.690177032724023" lon="0.602951031178236">
        <ele>59</ele>
        <time>2018-02-18T09:42:58Z</time>
      </trkpt>
      <trkpt lat="51.690184995532036" lon="0.602998975664377">
        <ele>59</ele>
        <time>2018-02-18T09:43:00Z</time>
      </trkpt>
      <trkpt lat="51.690188013017178" lon="0.603044992312789">
        <ele>59</ele>
        <time>2018-02-18T09:43:02Z</time>
      </trkpt>
      <trkpt lat="51.6901920363307" lon="0.603092014789581">
        <ele>59</ele>
        <time>2018-02-18T09:43:04Z</time>
      </trkpt>
      <trkpt lat="51.690191030502319" lon="0.603139037266374">
        <ele>58.9702937672674</ele>
        <time>2018-02-18T09:43:06Z</time>
      </trkpt>
      <trkpt lat="51.6901920363307" lon="0.603192010894418">
        <ele>58</ele>
        <time>2018-02-18T09:43:08Z</time>
      </trkpt>
      <trkpt lat="51.690191030502319" lon="0.60324196703732">
        <ele>58</ele>
        <time>2018-02-18T09:43:10Z</time>
      </trkpt>
      <trkpt lat="51.690190024673939" lon="0.60328496620059">
        <ele>59</ele>
        <time>2018-02-18T09:43:12Z</time>
      </trkpt>
      <trkpt lat="51.6901920363307" lon="0.60332796536386">
        <ele>59</ele>
        <time>2018-02-18T09:43:14Z</time>
      </trkpt>
      <trkpt lat="51.690193964168429" lon="0.603373982012272">
        <ele>59</ele>
        <time>2018-02-18T09:43:16Z</time>
      </trkpt>
      <trkpt lat="51.690198993310332" lon="0.603421004489064">
        <ele>59</ele>
        <time>2018-02-18T09:43:18Z</time>
      </trkpt>
      <trkpt lat="51.690204022452235" lon="0.603470960631967">
        <ele>58</ele>
        <time>2018-02-18T09:43:20Z</time>
      </trkpt>
      <trkpt lat="51.690207961946726" lon="0.603514965623617">
        <ele>58</ele>
        <time>2018-02-18T09:43:22Z</time>
      </trkpt>
      <trkpt lat="51.690212991088629" lon="0.60356299392879">
        <ele>58</ele>
        <time>2018-02-18T09:43:24Z</time>
      </trkpt>
      <trkpt lat="51.690218020230532" lon="0.603611022233963">
        <ele>58</ele>
        <time>2018-02-18T09:43:26Z</time>
      </trkpt>
      <trkpt lat="51.690216008573771" lon="0.603665001690388">
        <ele>58</ele>
        <time>2018-02-18T09:43:28Z</time>
      </trkpt>
      <trkpt lat="51.690218020230532" lon="0.603715963661671">
        <ele>58</ele>
        <time>2018-02-18T09:43:30Z</time>
      </trkpt>
      <trkpt lat="51.690218020230532" lon="0.603762986138463">
        <ele>58</ele>
        <time>2018-02-18T09:43:32Z</time>
      </trkpt>
      <trkpt lat="51.690221037715673" lon="0.603817971423268">
        <ele>58</ele>
        <time>2018-02-18T09:43:34Z</time>
      </trkpt>
      <trkpt lat="51.690221959725022" lon="0.603871028870344">
        <ele>58</ele>
        <time>2018-02-18T09:43:36Z</time>
      </trkpt>
      <trkpt lat="51.690221959725022" lon="0.603946968913078">
        <ele>58</ele>
        <time>2018-02-18T09:43:39Z</time>
      </trkpt>
      <trkpt lat="51.690224977210164" lon="0.603993991389871">
        <ele>58</ele>
        <time>2018-02-18T09:43:41Z</time>
      </trkpt>
      <trkpt lat="51.690223971381783" lon="0.604040008038282">
        <ele>58</ele>
        <time>2018-02-18T09:43:43Z</time>
      </trkpt>
      <trkpt lat="51.690221959725022" lon="0.604089964181185">
        <ele>57.069310318607002</ele>
        <time>2018-02-18T09:43:45Z</time>
      </trkpt>
      <trkpt lat="51.690223971381783" lon="0.604144027456641">
        <ele>57</ele>
        <time>2018-02-18T09:43:47Z</time>
      </trkpt>
      <trkpt lat="51.690229000523686" lon="0.604192977771163">
        <ele>57</ele>
        <time>2018-02-18T09:43:49Z</time>
      </trkpt>
      <trkpt lat="51.690233023837209" lon="0.604242011904716">
        <ele>57</ele>
        <time>2018-02-18T09:43:51Z</time>
      </trkpt>
      <trkpt lat="51.690238974988461" lon="0.604290962219238">
        <ele>57.920000000000002</ele>
        <time>2018-02-18T09:43:53Z</time>
      </trkpt>
      <trkpt lat="51.69023796916008" lon="0.604321975260973">
        <ele>58</ele>
        <time>2018-02-18T09:43:54Z</time>
      </trkpt>
      <trkpt lat="51.690238974988461" lon="0.604349970817566">
        <ele>58</ele>
        <time>2018-02-18T09:43:55Z</time>
      </trkpt>
      <trkpt lat="51.690247021615505" lon="0.604423983022571">
        <ele>58</ele>
        <time>2018-02-18T09:43:58Z</time>
      </trkpt>
      <trkpt lat="51.690250961109996" lon="0.604471005499363">
        <ele>58</ele>
        <time>2018-02-18T09:44:00Z</time>
      </trkpt>
      <trkpt lat="51.690253978595138" lon="0.604523979127407">
        <ele>58</ele>
        <time>2018-02-18T09:44:02Z</time>
      </trkpt>
      <trkpt lat="51.690254984423518" lon="0.60457200743258">
        <ele>58</ele>
        <time>2018-02-18T09:44:04Z</time>
      </trkpt>
      <trkpt lat="51.690256996080279" lon="0.604621041566134">
        <ele>58</ele>
        <time>2018-02-18T09:44:06Z</time>
      </trkpt>
      <trkpt lat="51.690256996080279" lon="0.604674015194178">
        <ele>57.979387973238701</ele>
        <time>2018-02-18T09:44:08Z</time>
      </trkpt>
      <trkpt lat="51.690260013565421" lon="0.604722965508699">
        <ele>57</ele>
        <time>2018-02-18T09:44:10Z</time>
      </trkpt>
      <trkpt lat="51.690263031050563" lon="0.604770993813872">
        <ele>57</ele>
        <time>2018-02-18T09:44:12Z</time>
      </trkpt>
      <trkpt lat="51.690269988030195" lon="0.604814998805523">
        <ele>57</ele>
        <time>2018-02-18T09:44:14Z</time>
      </trkpt>
      <trkpt lat="51.690276023000479" lon="0.604865038767457">
        <ele>57</ele>
        <time>2018-02-18T09:44:16Z</time>
      </trkpt>
      <trkpt lat="51.69027803465724" lon="0.60489596799016">
        <ele>57</ele>
        <time>2018-02-18T09:44:17Z</time>
      </trkpt>
      <trkpt lat="51.69028096832335" lon="0.604948019608855">
        <ele>57</ele>
        <time>2018-02-18T09:44:19Z</time>
      </trkpt>
      <trkpt lat="51.690285997465253" lon="0.604994958266616">
        <ele>57</ele>
        <time>2018-02-18T09:44:21Z</time>
      </trkpt>
      <trkpt lat="51.690292032435536" lon="0.605039969086647">
        <ele>57</ele>
        <time>2018-02-18T09:44:23Z</time>
      </trkpt>
      <trkpt lat="51.690299995243549" lon="0.605083974078298">
        <ele>57</ele>
        <time>2018-02-18T09:44:25Z</time>
      </trkpt>
      <trkpt lat="51.690304018557072" lon="0.605135019868612">
        <ele>57</ele>
        <time>2018-02-18T09:44:27Z</time>
      </trkpt>
      <trkpt lat="51.690307036042213" lon="0.605184976011515">
        <ele>57</ele>
        <time>2018-02-18T09:44:29Z</time>
      </trkpt>
      <trkpt lat="51.690308963879943" lon="0.605239039286971">
        <ele>57</ele>
        <time>2018-02-18T09:44:31Z</time>
      </trkpt>
      <trkpt lat="51.690310975536704" lon="0.605288995429873">
        <ele>57</ele>
        <time>2018-02-18T09:44:33Z</time>
      </trkpt>
      <trkpt lat="51.69032103382051" lon="0.605354961007833">
        <ele>56</ele>
        <time>2018-02-18T09:44:36Z</time>
      </trkpt>
      <trkpt lat="51.69032396748662" lon="0.605394020676613">
        <ele>56</ele>
        <time>2018-02-18T09:44:38Z</time>
      </trkpt>
      <trkpt lat="51.690325979143381" lon="0.605440037325025">
        <ele>56</ele>
        <time>2018-02-18T09:44:40Z</time>
      </trkpt>
      <trkpt lat="51.690324973315001" lon="0.605488987639546">
        <ele>56</ele>
        <time>2018-02-18T09:44:42Z</time>
      </trkpt>
      <trkpt lat="51.690328996628523" lon="0.60553902760148">
        <ele>56</ele>
        <time>2018-02-18T09:44:44Z</time>
      </trkpt>
      <trkpt lat="51.690327990800142" lon="0.605584960430861">
        <ele>56</ele>
        <time>2018-02-18T09:44:46Z</time>
      </trkpt>
      <trkpt lat="51.690333019942045" lon="0.605629971250892">
        <ele>56</ele>
        <time>2018-02-18T09:44:48Z</time>
      </trkpt>
      <trkpt lat="51.690330002456903" lon="0.605670036748052">
        <ele>56</ele>
        <time>2018-02-18T09:44:50Z</time>
      </trkpt>
      <trkpt lat="51.690306030213833" lon="0.605699038133025">
        <ele>56</ele>
        <time>2018-02-18T09:44:52Z</time>
      </trkpt>
      <trkpt lat="51.69027803465724" lon="0.605715969577432">
        <ele>56</ele>
        <time>2018-02-18T09:44:54Z</time>
      </trkpt>
      <trkpt lat="51.690251966938376" lon="0.60573298484087">
        <ele>56</ele>
        <time>2018-02-18T09:44:56Z</time>
      </trkpt>
      <trkpt lat="51.690225983038545" lon="0.605752011761069">
        <ele>56</ele>
        <time>2018-02-18T09:44:58Z</time>
      </trkpt>
      <trkpt lat="51.690202010795474" lon="0.605766009539366">
        <ele>56</ele>
        <time>2018-02-18T09:45:00Z</time>
      </trkpt>
      <trkpt lat="51.690167980268598" lon="0.605781013146043">
        <ele>56</ele>
        <time>2018-02-18T09:45:02Z</time>
      </trkpt>
      <trkpt lat="51.690131016075611" lon="0.605801967903972">
        <ele>56</ele>
        <time>2018-02-18T09:45:04Z</time>
      </trkpt>
      <trkpt lat="51.690102014690638" lon="0.60581898316741">
        <ele>56</ele>
        <time>2018-02-18T09:45:06Z</time>
      </trkpt>
      <trkpt lat="51.690072007477283" lon="0.605834992602468">
        <ele>56</ele>
        <time>2018-02-18T09:45:08Z</time>
      </trkpt>
      <trkpt lat="51.690048035234213" lon="0.605845972895622">
        <ele>56</ele>
        <time>2018-02-18T09:45:10Z</time>
      </trkpt>
      <trkpt lat="51.690023979172111" lon="0.605860976502299">
        <ele>56</ele>
        <time>2018-02-18T09:45:12Z</time>
      </trkpt>
      <trkpt lat="51.689999001100659" lon="0.605871034786105">
        <ele>56</ele>
        <time>2018-02-18T09:45:14Z</time>
      </trkpt>
      <trkpt lat="51.689976034685969" lon="0.605881009250879">
        <ele>56</ele>
        <time>2018-02-18T09:45:16Z</time>
      </trkpt>
      <trkpt lat="51.689949966967106" lon="0.605888972058892">
        <ele>56</ele>
        <time>2018-02-18T09:45:18Z</time>
      </trkpt>
      <trkpt lat="51.689924988895655" lon="0.605900958180428">
        <ele>56</ele>
        <time>2018-02-18T09:45:20Z</time>
      </trkpt>
      <trkpt lat="51.689901016652584" lon="0.605916967615485">
        <ele>56</ele>
        <time>2018-02-18T09:45:22Z</time>
      </trkpt>
      <trkpt lat="51.689873021095991" lon="0.605933982878923">
        <ele>56</ele>
        <time>2018-02-18T09:45:24Z</time>
      </trkpt>
      <trkpt lat="51.689848965033889" lon="0.605941023677588">
        <ele>56</ele>
        <time>2018-02-18T09:45:26Z</time>
      </trkpt>
      <trkpt lat="51.689821975305676" lon="0.605924008414149">
        <ele>56</ele>
        <time>2018-02-18T09:45:29Z</time>
      </trkpt>
      <trkpt lat="51.689804960042238" lon="0.605913028120995">
        <ele>56</ele>
        <time>2018-02-18T09:45:31Z</time>
      </trkpt>
      <trkpt lat="51.689786016941071" lon="0.605919985100627">
        <ele>56</ele>
        <time>2018-02-18T09:45:33Z</time>
      </trkpt>
      <trkpt lat="51.689774030819535" lon="0.605940017849207">
        <ele>55</ele>
        <time>2018-02-18T09:45:48Z</time>
      </trkpt>
      <trkpt lat="51.689777970314026" lon="0.605970025062561">
        <ele>56</ele>
        <time>2018-02-18T09:46:26Z</time>
      </trkpt>
      <trkpt lat="51.689774030819535" lon="0.60601101256907">
        <ele>56</ele>
        <time>2018-02-18T09:46:29Z</time>
      </trkpt>
      <trkpt lat="51.689772019162774" lon="0.606040013954043">
        <ele>56</ele>
        <time>2018-02-18T09:46:31Z</time>
      </trkpt>
      <trkpt lat="51.689770007506013" lon="0.606070021167398">
        <ele>56</ele>
        <time>2018-02-18T09:46:33Z</time>
      </trkpt>
      <trkpt lat="51.689766990020871" lon="0.606102040037513">
        <ele>56</ele>
        <time>2018-02-18T09:46:35Z</time>
      </trkpt>
      <trkpt lat="51.689763972535729" lon="0.606131963431835">
        <ele>56</ele>
        <time>2018-02-18T09:46:37Z</time>
      </trkpt>
      <trkpt lat="51.689770007506013" lon="0.606172028928995">
        <ele>56</ele>
        <time>2018-02-18T09:46:39Z</time>
      </trkpt>
      <trkpt lat="51.689774030819535" lon="0.606214022263885">
        <ele>56</ele>
        <time>2018-02-18T09:46:41Z</time>
      </trkpt>
      <trkpt lat="51.689779981970787" lon="0.60626900754869">
        <ele>56</ele>
        <time>2018-02-18T09:46:43Z</time>
      </trkpt>
      <trkpt lat="51.689784005284309" lon="0.606303960084915">
        <ele>56</ele>
        <time>2018-02-18T09:46:44Z</time>
      </trkpt>
      <trkpt lat="51.689786016941071" lon="0.606340002268553">
        <ele>56</ele>
        <time>2018-02-18T09:46:45Z</time>
      </trkpt>
      <trkpt lat="51.689789034426212" lon="0.606375960633159">
        <ele>56</ele>
        <time>2018-02-18T09:46:46Z</time>
      </trkpt>
      <trkpt lat="51.689789034426212" lon="0.606416026130319">
        <ele>56</ele>
        <time>2018-02-18T09:46:47Z</time>
      </trkpt>
      <trkpt lat="51.689787022769451" lon="0.606460031121969">
        <ele>56</ele>
        <time>2018-02-18T09:46:48Z</time>
      </trkpt>
      <trkpt lat="51.689787022769451" lon="0.606502024456859">
        <ele>56</ele>
        <time>2018-02-18T09:46:49Z</time>
      </trkpt>
      <trkpt lat="51.689787022769451" lon="0.606541000306606">
        <ele>56</ele>
        <time>2018-02-18T09:46:50Z</time>
      </trkpt>
      <trkpt lat="51.689784005284309" lon="0.606581987813115">
        <ele>56</ele>
        <time>2018-02-18T09:46:51Z</time>
      </trkpt>
      <trkpt lat="51.689781993627548" lon="0.606617024168372">
        <ele>56</ele>
        <time>2018-02-18T09:46:52Z</time>
      </trkpt>
      <trkpt lat="51.689779981970787" lon="0.606659017503262">
        <ele>56</ele>
        <time>2018-02-18T09:46:53Z</time>
      </trkpt>
      <trkpt lat="51.689777970314026" lon="0.606701010838151">
        <ele>56</ele>
        <time>2018-02-18T09:46:54Z</time>
      </trkpt>
      <trkpt lat="51.689775036647916" lon="0.606744010001421">
        <ele>56</ele>
        <time>2018-02-18T09:46:55Z</time>
      </trkpt>
      <trkpt lat="51.689773024991155" lon="0.60678600333631">
        <ele>55.969996799999997</ele>
        <time>2018-02-18T09:46:56Z</time>
      </trkpt>
      <trkpt lat="51.689777970314026" lon="0.606826990842819">
        <ele>55</ele>
        <time>2018-02-18T09:46:57Z</time>
      </trkpt>
      <trkpt lat="51.689776964485645" lon="0.606867978349328">
        <ele>55</ele>
        <time>2018-02-18T09:46:58Z</time>
      </trkpt>
      <trkpt lat="51.689776964485645" lon="0.606903014704585">
        <ele>55</ele>
        <time>2018-02-18T09:46:59Z</time>
      </trkpt>
      <trkpt lat="51.689775036647916" lon="0.606945008039474">
        <ele>55</ele>
        <time>2018-02-18T09:47:00Z</time>
      </trkpt>
      <trkpt lat="51.689776964485645" lon="0.606981972232461">
        <ele>55</ele>
        <time>2018-02-18T09:47:01Z</time>
      </trkpt>
      <trkpt lat="51.689775036647916" lon="0.607016002759337">
        <ele>55</ele>
        <time>2018-02-18T09:47:02Z</time>
      </trkpt>
      <trkpt lat="51.689775036647916" lon="0.607060007750988">
        <ele>55</ele>
        <time>2018-02-18T09:47:03Z</time>
      </trkpt>
      <trkpt lat="51.689773024991155" lon="0.607100995257497">
        <ele>55</ele>
        <time>2018-02-18T09:47:04Z</time>
      </trkpt>
      <trkpt lat="51.689766990020871" lon="0.607145000249147">
        <ele>55</ele>
        <time>2018-02-18T09:47:05Z</time>
      </trkpt>
      <trkpt lat="51.689761038869619" lon="0.607182970270514">
        <ele>55</ele>
        <time>2018-02-18T09:47:06Z</time>
      </trkpt>
      <trkpt lat="51.689758021384478" lon="0.607220018282533">
        <ele>55</ele>
        <time>2018-02-18T09:47:07Z</time>
      </trkpt>
      <trkpt lat="51.689753998070955" lon="0.60725899413228">
        <ele>55</ele>
        <time>2018-02-18T09:47:08Z</time>
      </trkpt>
      <trkpt lat="51.689750980585814" lon="0.607302999123931">
        <ele>54.010200882944503</ele>
        <time>2018-02-18T09:47:09Z</time>
      </trkpt>
      <trkpt lat="51.689748968929052" lon="0.607349015772343">
        <ele>54.020195751393103</ele>
        <time>2018-02-18T09:47:10Z</time>
      </trkpt>
      <trkpt lat="51.689747963100672" lon="0.607391009107232">
        <ele>55</ele>
        <time>2018-02-18T09:47:11Z</time>
      </trkpt>
      <trkpt lat="51.689746035262942" lon="0.607436019927263">
        <ele>55</ele>
        <time>2018-02-18T09:47:12Z</time>
      </trkpt>
      <trkpt lat="51.689744023606181" lon="0.607476001605392">
        <ele>55</ele>
        <time>2018-02-18T09:47:13Z</time>
      </trkpt>
      <trkpt lat="51.689743017777801" lon="0.607517994940281">
        <ele>55</ele>
        <time>2018-02-18T09:47:14Z</time>
      </trkpt>
      <trkpt lat="51.689741006121039" lon="0.607557976618409">
        <ele>54.947373739642003</ele>
        <time>2018-02-18T09:47:15Z</time>
      </trkpt>
      <trkpt lat="51.68974201194942" lon="0.607596030458808">
        <ele>54.0701758325661</ele>
        <time>2018-02-18T09:47:16Z</time>
      </trkpt>
      <trkpt lat="51.68974201194942" lon="0.607636012136936">
        <ele>54</ele>
        <time>2018-02-18T09:47:17Z</time>
      </trkpt>
      <trkpt lat="51.689741006121039" lon="0.607676999643445">
        <ele>54.958762750557497</ele>
        <time>2018-02-18T09:47:18Z</time>
      </trkpt>
      <trkpt lat="51.689740000292659" lon="0.607721004635096">
        <ele>55</ele>
        <time>2018-02-18T09:47:19Z</time>
      </trkpt>
      <trkpt lat="51.689738994464278" lon="0.607760986313224">
        <ele>55</ele>
        <time>2018-02-18T09:47:20Z</time>
      </trkpt>
      <trkpt lat="51.689737988635898" lon="0.607799962162972">
        <ele>54.941182376046299</ele>
        <time>2018-02-18T09:47:21Z</time>
      </trkpt>
      <trkpt lat="51.689736982807517" lon="0.607842961326241">
        <ele>54</ele>
        <time>2018-02-18T09:47:22Z</time>
      </trkpt>
      <trkpt lat="51.689735976979136" lon="0.607884032651782">
        <ele>54.029850603698598</ele>
        <time>2018-02-18T09:47:23Z</time>
      </trkpt>
      <trkpt lat="51.689735976979136" lon="0.60792401432991">
        <ele>54.776115696163799</ele>
        <time>2018-02-18T09:47:24Z</time>
      </trkpt>
      <trkpt lat="51.689733965322375" lon="0.607961984351277">
        <ele>55</ele>
        <time>2018-02-18T09:47:25Z</time>
      </trkpt>
      <trkpt lat="51.689732037484646" lon="0.608000960201025">
        <ele>55</ele>
        <time>2018-02-18T09:47:26Z</time>
      </trkpt>
      <trkpt lat="51.689730025827885" lon="0.608038008213043">
        <ele>55</ele>
        <time>2018-02-18T09:47:27Z</time>
      </trkpt>
      <trkpt lat="51.689730025827885" lon="0.60807597823441">
        <ele>55</ele>
        <time>2018-02-18T09:47:28Z</time>
      </trkpt>
      <trkpt lat="51.689730025827885" lon="0.608114032074809">
        <ele>55</ele>
        <time>2018-02-18T09:47:29Z</time>
      </trkpt>
      <trkpt lat="51.689729019999504" lon="0.608152002096176">
        <ele>54.060005631927901</ele>
        <time>2018-02-18T09:47:30Z</time>
      </trkpt>
      <trkpt lat="51.689728014171124" lon="0.608192989602685">
        <ele>54</ele>
        <time>2018-02-18T09:47:31Z</time>
      </trkpt>
      <trkpt lat="51.689727008342743" lon="0.608234982937574">
        <ele>54</ele>
        <time>2018-02-18T09:47:32Z</time>
      </trkpt>
      <trkpt lat="51.689727008342743" lon="0.608276976272464">
        <ele>54</ele>
        <time>2018-02-18T09:47:33Z</time>
      </trkpt>
      <trkpt lat="51.689726002514362" lon="0.608317963778973">
        <ele>54.939994368072099</ele>
        <time>2018-02-18T09:47:34Z</time>
      </trkpt>
      <trkpt lat="51.689726002514362" lon="0.608361968770623">
        <ele>55</ele>
        <time>2018-02-18T09:47:35Z</time>
      </trkpt>
      <trkpt lat="51.689726002514362" lon="0.608405973762274">
        <ele>54.0297062327326</ele>
        <time>2018-02-18T09:47:36Z</time>
      </trkpt>
      <trkpt lat="51.689723990857601" lon="0.608447967097163">
        <ele>54</ele>
        <time>2018-02-18T09:47:37Z</time>
      </trkpt>
      <trkpt lat="51.689722985029221" lon="0.608489038422704">
        <ele>54</ele>
        <time>2018-02-18T09:47:38Z</time>
      </trkpt>
      <trkpt lat="51.689722985029221" lon="0.608531031757593">
        <ele>54</ele>
        <time>2018-02-18T09:47:39Z</time>
      </trkpt>
      <trkpt lat="51.689724996685982" lon="0.608572019264102">
        <ele>54</ele>
        <time>2018-02-18T09:47:40Z</time>
      </trkpt>
      <trkpt lat="51.689724996685982" lon="0.608618035912514">
        <ele>54</ele>
        <time>2018-02-18T09:47:41Z</time>
      </trkpt>
      <trkpt lat="51.689726002514362" lon="0.608663968741894">
        <ele>54</ele>
        <time>2018-02-18T09:47:42Z</time>
      </trkpt>
      <trkpt lat="51.689726002514362" lon="0.608708979561925">
        <ele>53.273440000000001</ele>
        <time>2018-02-18T09:47:43Z</time>
      </trkpt>
      <trkpt lat="51.689723990857601" lon="0.608749967068434">
        <ele>53</ele>
        <time>2018-02-18T09:47:44Z</time>
      </trkpt>
      <trkpt lat="51.689720973372459" lon="0.608789026737213">
        <ele>53</ele>
        <time>2018-02-18T09:47:45Z</time>
      </trkpt>
      <trkpt lat="51.689719967544079" lon="0.608831020072103">
        <ele>53.950003199999998</ele>
        <time>2018-02-18T09:47:46Z</time>
      </trkpt>
      <trkpt lat="51.68972197920084" lon="0.608874019235373">
        <ele>54</ele>
        <time>2018-02-18T09:47:47Z</time>
      </trkpt>
      <trkpt lat="51.68972197920084" lon="0.608914000913501">
        <ele>54</ele>
        <time>2018-02-18T09:47:48Z</time>
      </trkpt>
      <trkpt lat="51.689722985029221" lon="0.608948031440377">
        <ele>54</ele>
        <time>2018-02-18T09:47:49Z</time>
      </trkpt>
      <trkpt lat="51.689726002514362" lon="0.608978038653731">
        <ele>54</ele>
        <time>2018-02-18T09:47:50Z</time>
      </trkpt>
      <trkpt lat="51.689732037484646" lon="0.609005028381944">
        <ele>54</ele>
        <time>2018-02-18T09:47:51Z</time>
      </trkpt>
      <trkpt lat="51.689738994464278" lon="0.609036963433027">
        <ele>54</ele>
        <time>2018-02-18T09:47:52Z</time>
      </trkpt>
      <trkpt lat="51.689747041091323" lon="0.609076023101807">
        <ele>54</ele>
        <time>2018-02-18T09:47:53Z</time>
      </trkpt>
      <trkpt lat="51.689751986414194" lon="0.609112987294793">
        <ele>54</ele>
        <time>2018-02-18T09:47:54Z</time>
      </trkpt>
      <trkpt lat="51.689755003899336" lon="0.609151963144541">
        <ele>54</ele>
        <time>2018-02-18T09:47:55Z</time>
      </trkpt>
      <trkpt lat="51.689757015556097" lon="0.60919001698494">
        <ele>54</ele>
        <time>2018-02-18T09:47:56Z</time>
      </trkpt>
      <trkpt lat="51.689760033041239" lon="0.609228992834687">
        <ele>54</ele>
        <time>2018-02-18T09:47:57Z</time>
      </trkpt>
      <trkpt lat="51.689763972535729" lon="0.609269980341196">
        <ele>54.952376114914998</ele>
        <time>2018-02-18T09:47:58Z</time>
      </trkpt>
      <trkpt lat="51.689765984192491" lon="0.609310967847705">
        <ele>55</ele>
        <time>2018-02-18T09:47:59Z</time>
      </trkpt>
      <trkpt lat="51.689765984192491" lon="0.609350027516484">
        <ele>55</ele>
        <time>2018-02-18T09:48:00Z</time>
      </trkpt>
      <trkpt lat="51.689767995849252" lon="0.609387997537851">
        <ele>55</ele>
        <time>2018-02-18T09:48:01Z</time>
      </trkpt>
      <trkpt lat="51.689769001677632" lon="0.60942898504436">
        <ele>54.2639981158352</ele>
        <time>2018-02-18T09:48:02Z</time>
      </trkpt>
      <trkpt lat="51.689770007506013" lon="0.60947097837925">
        <ele>54</ele>
        <time>2018-02-18T09:48:03Z</time>
      </trkpt>
      <trkpt lat="51.689772019162774" lon="0.609512971714139">
        <ele>54</ele>
        <time>2018-02-18T09:48:04Z</time>
      </trkpt>
      <trkpt lat="51.689774030819535" lon="0.609553037211299">
        <ele>54</ele>
        <time>2018-02-18T09:48:05Z</time>
      </trkpt>
      <trkpt lat="51.689775958657265" lon="0.609588995575905">
        <ele>54</ele>
        <time>2018-02-18T09:48:06Z</time>
      </trkpt>
      <trkpt lat="51.689774030819535" lon="0.609627971425653">
        <ele>54</ele>
        <time>2018-02-18T09:48:07Z</time>
      </trkpt>
      <trkpt lat="51.689773024991155" lon="0.609668036922812">
        <ele>54</ele>
        <time>2018-02-18T09:48:08Z</time>
      </trkpt>
      <trkpt lat="51.689775958657265" lon="0.60970701277256">
        <ele>54</ele>
        <time>2018-02-18T09:48:09Z</time>
      </trkpt>
      <trkpt lat="51.689777970314026" lon="0.609745988622308">
        <ele>54</ele>
        <time>2018-02-18T09:48:10Z</time>
      </trkpt>
      <trkpt lat="51.689778976142406" lon="0.609783958643675">
        <ele>54</ele>
        <time>2018-02-18T09:48:11Z</time>
      </trkpt>
      <trkpt lat="51.689777970314026" lon="0.609824024140835">
        <ele>54</ele>
        <time>2018-02-18T09:48:12Z</time>
      </trkpt>
      <trkpt lat="51.689778976142406" lon="0.609860988333821">
        <ele>54</ele>
        <time>2018-02-18T09:48:13Z</time>
      </trkpt>
      <trkpt lat="51.689780987799168" lon="0.609898958355188">
        <ele>54</ele>
        <time>2018-02-18T09:48:14Z</time>
      </trkpt>
      <trkpt lat="51.689782999455929" lon="0.609933994710445">
        <ele>54</ele>
        <time>2018-02-18T09:48:15Z</time>
      </trkpt>
      <trkpt lat="51.689787022769451" lon="0.609969031065702">
        <ele>54</ele>
        <time>2018-02-18T09:48:16Z</time>
      </trkpt>
      <trkpt lat="51.689790040254593" lon="0.61000700108707">
        <ele>54</ele>
        <time>2018-02-18T09:48:17Z</time>
      </trkpt>
      <trkpt lat="51.689793979749084" lon="0.610044971108437">
        <ele>54</ele>
        <time>2018-02-18T09:48:18Z</time>
      </trkpt>
      <trkpt lat="51.689796997234225" lon="0.610084030777216">
        <ele>54</ele>
        <time>2018-02-18T09:48:19Z</time>
      </trkpt>
      <trkpt lat="51.689800014719367" lon="0.610122000798583">
        <ele>54</ele>
        <time>2018-02-18T09:48:20Z</time>
      </trkpt>
      <trkpt lat="51.689804038032889" lon="0.61015997081995">
        <ele>54</ele>
        <time>2018-02-18T09:48:21Z</time>
      </trkpt>
      <trkpt lat="51.68980797752738" lon="0.61020003631711">
        <ele>54</ele>
        <time>2018-02-18T09:48:22Z</time>
      </trkpt>
      <trkpt lat="51.689810995012522" lon="0.610238006338477">
        <ele>54</ele>
        <time>2018-02-18T09:48:23Z</time>
      </trkpt>
      <trkpt lat="51.689815018326044" lon="0.610272036865354">
        <ele>54</ele>
        <time>2018-02-18T09:48:24Z</time>
      </trkpt>
      <trkpt lat="51.689818035811186" lon="0.610305983573198">
        <ele>54</ele>
        <time>2018-02-18T09:48:25Z</time>
      </trkpt>
      <trkpt lat="51.689822981134057" lon="0.610335990786552">
        <ele>54</ele>
        <time>2018-02-18T09:48:26Z</time>
      </trkpt>
      <trkpt lat="51.689830021932721" lon="0.610381001606584">
        <ele>54</ele>
        <time>2018-02-18T09:48:28Z</time>
      </trkpt>
      <trkpt lat="51.689833039417863" lon="0.610416037961841">
        <ele>54</ele>
        <time>2018-02-18T09:48:30Z</time>
      </trkpt>
      <trkpt lat="51.689821975305676" lon="0.610443027690053">
        <ele>53</ele>
        <time>2018-02-18T09:48:34Z</time>
      </trkpt>
      <trkpt lat="51.689800014719367" lon="0.61045803129673">
        <ele>53</ele>
        <time>2018-02-18T09:48:37Z</time>
      </trkpt>
      <trkpt lat="51.689781993627548" lon="0.610469011589885">
        <ele>53</ele>
        <time>2018-02-18T09:48:39Z</time>
      </trkpt>
      <trkpt lat="51.689753998070955" lon="0.610472029075027">
        <ele>54</ele>
        <time>2018-02-18T09:48:41Z</time>
      </trkpt>
      <trkpt lat="51.689707981422544" lon="0.610490972176194">
        <ele>54</ele>
        <time>2018-02-18T09:48:44Z</time>
      </trkpt>
      <trkpt lat="51.689690966159105" lon="0.610502958297729">
        <ele>54</ele>
        <time>2018-02-18T09:48:45Z</time>
      </trkpt>
      <trkpt lat="51.689670011401176" lon="0.610515028238297">
        <ele>54</ele>
        <time>2018-02-18T09:48:46Z</time>
      </trkpt>
      <trkpt lat="51.689646961167455" lon="0.610530031844974">
        <ele>54</ele>
        <time>2018-02-18T09:48:47Z</time>
      </trkpt>
      <trkpt lat="51.689626006409526" lon="0.61054402962327">
        <ele>54</ele>
        <time>2018-02-18T09:48:48Z</time>
      </trkpt>
      <trkpt lat="51.689603962004185" lon="0.610561966896057">
        <ele>54</ele>
        <time>2018-02-18T09:48:49Z</time>
      </trkpt>
      <trkpt lat="51.689582001417875" lon="0.610579987987876">
        <ele>54</ele>
        <time>2018-02-18T09:48:50Z</time>
      </trkpt>
      <trkpt lat="51.689557023346424" lon="0.610600020736456">
        <ele>54</ele>
        <time>2018-02-18T09:48:51Z</time>
      </trkpt>
      <trkpt lat="51.689533973112702" lon="0.610616030171514">
        <ele>54</ele>
        <time>2018-02-18T09:48:52Z</time>
      </trkpt>
      <trkpt lat="51.689514024183154" lon="0.610635979101062">
        <ele>54</ele>
        <time>2018-02-18T09:48:53Z</time>
      </trkpt>
      <trkpt lat="51.689493991434574" lon="0.6106529943645">
        <ele>53.060005631927901</ele>
        <time>2018-02-18T09:48:54Z</time>
      </trkpt>
      <trkpt lat="51.689476976171136" lon="0.610669003799558">
        <ele>53</ele>
        <time>2018-02-18T09:48:55Z</time>
      </trkpt>
      <trkpt lat="51.689459038898349" lon="0.610689958557487">
        <ele>53</ele>
        <time>2018-02-18T09:48:56Z</time>
      </trkpt>
      <trkpt lat="51.689445963129401" lon="0.610712002962828">
        <ele>53</ele>
        <time>2018-02-18T09:48:57Z</time>
      </trkpt>
      <trkpt lat="51.68944101780653" lon="0.610739998519421">
        <ele>53.9393876706661</ele>
        <time>2018-02-18T09:48:58Z</time>
      </trkpt>
      <trkpt lat="51.689439006149769" lon="0.610772017389536">
        <ele>54</ele>
        <time>2018-02-18T09:48:59Z</time>
      </trkpt>
      <trkpt lat="51.689438000321388" lon="0.610805964097381">
        <ele>54</ele>
        <time>2018-02-18T09:49:00Z</time>
      </trkpt>
      <trkpt lat="51.689438000321388" lon="0.610841000452638">
        <ele>54</ele>
        <time>2018-02-18T09:49:01Z</time>
      </trkpt>
      <trkpt lat="51.689439006149769" lon="0.610877964645624">
        <ele>54</ele>
        <time>2018-02-18T09:49:02Z</time>
      </trkpt>
      <trkpt lat="51.689439006149769" lon="0.610916018486023">
        <ele>54</ele>
        <time>2018-02-18T09:49:03Z</time>
      </trkpt>
      <trkpt lat="51.689436994493008" lon="0.610954994335771">
        <ele>54</ele>
        <time>2018-02-18T09:49:04Z</time>
      </trkpt>
      <trkpt lat="51.689436994493008" lon="0.610991958528757">
        <ele>53.940005632072101</ele>
        <time>2018-02-18T09:49:05Z</time>
      </trkpt>
      <trkpt lat="51.689438000321388" lon="0.611029006540775">
        <ele>53</ele>
        <time>2018-02-18T09:49:06Z</time>
      </trkpt>
      <trkpt lat="51.689431965351105" lon="0.611064964905381">
        <ele>52.969996799999997</ele>
        <time>2018-02-18T09:49:07Z</time>
      </trkpt>
      <trkpt lat="51.68942098505795" lon="0.611092960461974">
        <ele>52</ele>
        <time>2018-02-18T09:49:08Z</time>
      </trkpt>
      <trkpt lat="51.689401036128402" lon="0.611111987382174">
        <ele>52</ele>
        <time>2018-02-18T09:49:09Z</time>
      </trkpt>
      <trkpt lat="51.689379997551441" lon="0.611123973503709">
        <ele>52</ele>
        <time>2018-02-18T09:49:10Z</time>
      </trkpt>
      <trkpt lat="51.689357031136751" lon="0.611131014302373">
        <ele>52</ele>
        <time>2018-02-18T09:49:11Z</time>
      </trkpt>
      <trkpt lat="51.68933498673141" lon="0.611135959625244">
        <ele>52</ele>
        <time>2018-02-18T09:49:12Z</time>
      </trkpt>
      <trkpt lat="51.689313026145101" lon="0.611144006252289">
        <ele>52</ele>
        <time>2018-02-18T09:49:13Z</time>
      </trkpt>
      <trkpt lat="51.689289975911379" lon="0.611148029565811">
        <ele>52</ele>
        <time>2018-02-18T09:49:14Z</time>
      </trkpt>
      <trkpt lat="51.689267009496689" lon="0.611155992373824">
        <ele>52.023440000000001</ele>
        <time>2018-02-18T09:49:15Z</time>
      </trkpt>
      <trkpt lat="51.689243959262967" lon="0.611164961010218">
        <ele>52.804690000000001</ele>
        <time>2018-02-18T09:49:16Z</time>
      </trkpt>
      <trkpt lat="51.689216969534755" lon="0.611170995980501">
        <ele>53</ele>
        <time>2018-02-18T09:49:17Z</time>
      </trkpt>
      <trkpt lat="51.689191991463304" lon="0.611177030950785">
        <ele>53</ele>
        <time>2018-02-18T09:49:18Z</time>
      </trkpt>
      <trkpt lat="51.689166007563472" lon="0.611182982102036">
        <ele>53</ele>
        <time>2018-02-18T09:49:19Z</time>
      </trkpt>
      <trkpt lat="51.68914002366364" lon="0.611190022900701">
        <ele>52.969996799999997</ele>
        <time>2018-02-18T09:49:20Z</time>
      </trkpt>
      <trkpt lat="51.689117979258299" lon="0.611196979880333">
        <ele>52</ele>
        <time>2018-02-18T09:49:21Z</time>
      </trkpt>
      <trkpt lat="51.689099036157131" lon="0.611202009022236">
        <ele>52.030003200000003</ele>
        <time>2018-02-18T09:49:22Z</time>
      </trkpt>
      <trkpt lat="51.689074980095029" lon="0.611215000972152">
        <ele>53</ele>
        <time>2018-02-18T09:49:24Z</time>
      </trkpt>
      <trkpt lat="51.689059976488352" lon="0.611231010407209">
        <ele>52.946897442287202</ele>
        <time>2018-02-18T09:49:26Z</time>
      </trkpt>
      <trkpt lat="51.6890540253371" lon="0.611262023448944">
        <ele>52</ele>
        <time>2018-02-18T09:49:29Z</time>
      </trkpt>
      <trkpt lat="51.689065005630255" lon="0.611285995692015">
        <ele>51</ele>
        <time>2018-02-18T09:49:36Z</time>
      </trkpt>
      <trkpt lat="51.68907699175179" lon="0.611311979591846">
        <ele>51</ele>
        <time>2018-02-18T09:49:44Z</time>
      </trkpt>
      <trkpt lat="51.689084032550454" lon="0.611339975148439">
        <ele>51</ele>
        <time>2018-02-18T09:49:46Z</time>
      </trkpt>
      <trkpt lat="51.689100963994861" lon="0.611375011503696">
        <ele>50</ele>
        <time>2018-02-18T09:49:49Z</time>
      </trkpt>
      <trkpt lat="51.689103981480002" lon="0.611408958211541">
        <ele>51</ele>
        <time>2018-02-18T09:49:51Z</time>
      </trkpt>
      <trkpt lat="51.689106998965144" lon="0.611437037587166">
        <ele>51</ele>
        <time>2018-02-18T09:49:53Z</time>
      </trkpt>
      <trkpt lat="51.689106998965144" lon="0.61146997846663">
        <ele>51</ele>
        <time>2018-02-18T09:49:55Z</time>
      </trkpt>
      <trkpt lat="51.689103981480002" lon="0.611509038135409">
        <ele>51</ele>
        <time>2018-02-18T09:49:57Z</time>
      </trkpt>
      <trkpt lat="51.689104987308383" lon="0.611549019813538">
        <ele>51</ele>
        <time>2018-02-18T09:49:59Z</time>
      </trkpt>
      <trkpt lat="51.689113033935428" lon="0.611595036461949">
        <ele>51.030931236061797</ele>
        <time>2018-02-18T09:50:01Z</time>
      </trkpt>
      <trkpt lat="51.689117979258299" lon="0.611642980948091">
        <ele>52</ele>
        <time>2018-02-18T09:50:03Z</time>
      </trkpt>
      <trkpt lat="51.689118985086679" lon="0.611692015081644">
        <ele>52</ele>
        <time>2018-02-18T09:50:05Z</time>
      </trkpt>
      <trkpt lat="51.689128037542105" lon="0.611738031730056">
        <ele>52</ele>
        <time>2018-02-18T09:50:07Z</time>
      </trkpt>
      <trkpt lat="51.689143963158131" lon="0.611784970387816">
        <ele>52</ele>
        <time>2018-02-18T09:50:09Z</time>
      </trkpt>
      <trkpt lat="51.689157038927078" lon="0.611828975379467">
        <ele>52</ele>
        <time>2018-02-18T09:50:11Z</time>
      </trkpt>
      <trkpt lat="51.689168019220233" lon="0.611870968714356">
        <ele>52</ele>
        <time>2018-02-18T09:50:13Z</time>
      </trkpt>
      <trkpt lat="51.689182016998529" lon="0.611912040039897">
        <ele>52</ele>
        <time>2018-02-18T09:50:15Z</time>
      </trkpt>
      <trkpt lat="51.689189979806542" lon="0.611953027546406">
        <ele>52</ele>
        <time>2018-02-18T09:50:17Z</time>
      </trkpt>
      <trkpt lat="51.689200038090348" lon="0.611995020881295">
        <ele>52</ele>
        <time>2018-02-18T09:50:19Z</time>
      </trkpt>
      <trkpt lat="51.689210012555122" lon="0.612039025872946">
        <ele>52</ele>
        <time>2018-02-18T09:50:21Z</time>
      </trkpt>
      <trkpt lat="51.689215963706374" lon="0.612076995894313">
        <ele>52</ele>
        <time>2018-02-18T09:50:23Z</time>
      </trkpt>
      <trkpt lat="51.689224010333419" lon="0.612117983400822">
        <ele>52</ele>
        <time>2018-02-18T09:50:25Z</time>
      </trkpt>
      <trkpt lat="51.689229961484671" lon="0.612161988392472">
        <ele>52</ele>
        <time>2018-02-18T09:50:27Z</time>
      </trkpt>
      <trkpt lat="51.689238008111715" lon="0.612208005040884">
        <ele>51.950003199999998</ele>
        <time>2018-02-18T09:50:29Z</time>
      </trkpt>
      <trkpt lat="51.689245970919728" lon="0.612245975062251">
        <ele>51</ele>
        <time>2018-02-18T09:50:31Z</time>
      </trkpt>
      <trkpt lat="51.689257035031915" lon="0.612280005589128">
        <ele>51</ele>
        <time>2018-02-18T09:50:33Z</time>
      </trkpt>
      <trkpt lat="51.689270026981831" lon="0.612317975610495">
        <ele>51</ele>
        <time>2018-02-18T09:50:35Z</time>
      </trkpt>
      <trkpt lat="51.689283018931746" lon="0.612352006137371">
        <ele>51</ele>
        <time>2018-02-18T09:50:37Z</time>
      </trkpt>
      <trkpt lat="51.689296010881662" lon="0.612383019179106">
        <ele>51</ele>
        <time>2018-02-18T09:50:39Z</time>
      </trkpt>
      <trkpt lat="51.689302967861295" lon="0.612411014735699">
        <ele>51</ele>
        <time>2018-02-18T09:50:41Z</time>
      </trkpt>
      <trkpt lat="51.689306991174817" lon="0.612454013898969">
        <ele>51</ele>
        <time>2018-02-18T09:50:43Z</time>
      </trkpt>
      <trkpt lat="51.689306991174817" lon="0.612487038597465">
        <ele>51</ele>
        <time>2018-02-18T09:50:45Z</time>
      </trkpt>
      <trkpt lat="51.689316965639591" lon="0.612513022497296">
        <ele>51</ele>
        <time>2018-02-18T09:50:48Z</time>
      </trkpt>
      <trkpt lat="51.689313026145101" lon="0.61254596337676">
        <ele>51</ele>
        <time>2018-02-18T09:50:52Z</time>
      </trkpt>
      <trkpt lat="51.689303973689675" lon="0.612579993903637">
        <ele>51</ele>
        <time>2018-02-18T09:51:01Z</time>
      </trkpt>
      <trkpt lat="51.689309002831578" lon="0.612616036087275">
        <ele>51</ele>
        <time>2018-02-18T09:51:03Z</time>
      </trkpt>
      <trkpt lat="51.689315037801862" lon="0.612655011937022">
        <ele>51</ele>
        <time>2018-02-18T09:51:05Z</time>
      </trkpt>
      <trkpt lat="51.689325012266636" lon="0.612702034413815">
        <ele>51</ele>
        <time>2018-02-18T09:51:07Z</time>
      </trkpt>
      <trkpt lat="51.689328029751778" lon="0.612741010263562">
        <ele>51.045450137698303</ele>
        <time>2018-02-18T09:51:09Z</time>
      </trkpt>
      <trkpt lat="51.689339010044932" lon="0.612778980284929">
        <ele>52</ele>
        <time>2018-02-18T09:51:11Z</time>
      </trkpt>
      <trkpt lat="51.689358036965132" lon="0.612814016640186">
        <ele>52</ele>
        <time>2018-02-18T09:51:13Z</time>
      </trkpt>
      <trkpt lat="51.689378991723061" lon="0.612847041338682">
        <ele>52</ele>
        <time>2018-02-18T09:51:15Z</time>
      </trkpt>
      <trkpt lat="51.689400030300021" lon="0.612876964733005">
        <ele>51</ele>
        <time>2018-02-18T09:51:17Z</time>
      </trkpt>
      <trkpt lat="51.68942098505795" lon="0.6129099894315">
        <ele>51</ele>
        <time>2018-02-18T09:51:19Z</time>
      </trkpt>
      <trkpt lat="51.689436994493008" lon="0.612942008301616">
        <ele>52</ele>
        <time>2018-02-18T09:51:21Z</time>
      </trkpt>
      <trkpt lat="51.689448980614543" lon="0.612962963059545">
        <ele>52</ele>
        <time>2018-02-18T09:51:22Z</time>
      </trkpt>
      <trkpt lat="51.689469013363123" lon="0.613011997193098">
        <ele>51.070003200000002</ele>
        <time>2018-02-18T09:51:24Z</time>
      </trkpt>
      <trkpt lat="51.689489968121052" lon="0.613051978871226">
        <ele>51</ele>
        <time>2018-02-18T09:51:26Z</time>
      </trkpt>
      <trkpt lat="51.689502960070968" lon="0.613089026883245">
        <ele>51</ele>
        <time>2018-02-18T09:51:28Z</time>
      </trkpt>
      <trkpt lat="51.689521986991167" lon="0.61312498524785">
        <ele>51</ele>
        <time>2018-02-18T09:51:30Z</time>
      </trkpt>
      <trkpt lat="51.689535984769464" lon="0.613162033259869">
        <ele>51</ele>
        <time>2018-02-18T09:51:32Z</time>
      </trkpt>
      <trkpt lat="51.689551994204521" lon="0.613204026594758">
        <ele>51</ele>
        <time>2018-02-18T09:51:34Z</time>
      </trkpt>
      <trkpt lat="51.689563980326056" lon="0.613240990787745">
        <ele>51</ele>
        <time>2018-02-18T09:51:36Z</time>
      </trkpt>
      <trkpt lat="51.689574960619211" lon="0.613280972465873">
        <ele>51</ele>
        <time>2018-02-18T09:51:38Z</time>
      </trkpt>
      <trkpt lat="51.689585018903017" lon="0.613321037963033">
        <ele>51</ele>
        <time>2018-02-18T09:51:40Z</time>
      </trkpt>
      <trkpt lat="51.689593987539411" lon="0.613362025469542">
        <ele>51</ele>
        <time>2018-02-18T09:51:42Z</time>
      </trkpt>
      <trkpt lat="51.689605973660946" lon="0.613406030461192">
        <ele>51</ele>
        <time>2018-02-18T09:51:44Z</time>
      </trkpt>
      <trkpt lat="51.689622988924384" lon="0.613449029624462">
        <ele>51</ele>
        <time>2018-02-18T09:51:46Z</time>
      </trkpt>
      <trkpt lat="51.689636986702681" lon="0.613485993817449">
        <ele>51</ele>
        <time>2018-02-18T09:51:48Z</time>
      </trkpt>
      <trkpt lat="51.689649978652596" lon="0.613524969667196">
        <ele>51</ele>
        <time>2018-02-18T09:51:50Z</time>
      </trkpt>
      <trkpt lat="51.689660036936402" lon="0.613562017679214">
        <ele>51</ele>
        <time>2018-02-18T09:51:52Z</time>
      </trkpt>
      <trkpt lat="51.689660958945751" lon="0.613601999357343">
        <ele>51</ele>
        <time>2018-02-18T09:51:54Z</time>
      </trkpt>
      <trkpt lat="51.689669005572796" lon="0.613642986863852">
        <ele>51</ele>
        <time>2018-02-18T09:51:56Z</time>
      </trkpt>
      <trkpt lat="51.689679985865951" lon="0.61368296854198">
        <ele>51</ele>
        <time>2018-02-18T09:51:58Z</time>
      </trkpt>
      <trkpt lat="51.689689960330725" lon="0.613720016553998">
        <ele>51</ele>
        <time>2018-02-18T09:52:00Z</time>
      </trkpt>
      <trkpt lat="51.689698006957769" lon="0.613762009888887">
        <ele>51</ele>
        <time>2018-02-18T09:52:02Z</time>
      </trkpt>
      <trkpt lat="51.689710998907685" lon="0.613808026537299">
        <ele>51</ele>
        <time>2018-02-18T09:52:04Z</time>
      </trkpt>
      <trkpt lat="51.689718961715698" lon="0.613845996558666">
        <ele>51</ele>
        <time>2018-02-18T09:52:06Z</time>
      </trkpt>
      <trkpt lat="51.689732037484646" lon="0.613882038742304">
        <ele>51</ele>
        <time>2018-02-18T09:52:08Z</time>
      </trkpt>
      <trkpt lat="51.689747963100672" lon="0.613925959914923">
        <ele>51</ele>
        <time>2018-02-18T09:52:10Z</time>
      </trkpt>
      <trkpt lat="51.689761960878968" lon="0.613967031240463">
        <ele>51</ele>
        <time>2018-02-18T09:52:12Z</time>
      </trkpt>
      <trkpt lat="51.689772019162774" lon="0.614000977948308">
        <ele>51</ele>
        <time>2018-02-18T09:52:14Z</time>
      </trkpt>
      <trkpt lat="51.689781993627548" lon="0.614042971283197">
        <ele>51</ele>
        <time>2018-02-18T09:52:16Z</time>
      </trkpt>
      <trkpt lat="51.689792973920703" lon="0.614080019295216">
        <ele>51</ele>
        <time>2018-02-18T09:52:18Z</time>
      </trkpt>
      <trkpt lat="51.689801020547748" lon="0.614117989316583">
        <ele>51</ele>
        <time>2018-02-18T09:52:20Z</time>
      </trkpt>
      <trkpt lat="51.689815018326044" lon="0.614152019843459">
        <ele>51</ele>
        <time>2018-02-18T09:52:22Z</time>
      </trkpt>
      <trkpt lat="51.68982801027596" lon="0.614194013178349">
        <ele>50.060005631927901</ele>
        <time>2018-02-18T09:52:24Z</time>
      </trkpt>
      <trkpt lat="51.689841002225876" lon="0.614235000684857">
        <ele>50.939994368072099</ele>
        <time>2018-02-18T09:52:26Z</time>
      </trkpt>
      <trkpt lat="51.689852988347411" lon="0.614273976534605">
        <ele>51</ele>
        <time>2018-02-18T09:52:28Z</time>
      </trkpt>
      <trkpt lat="51.689865980297327" lon="0.614317981526256">
        <ele>50</ele>
        <time>2018-02-18T09:52:30Z</time>
      </trkpt>
      <trkpt lat="51.689882995560765" lon="0.614356035366654">
        <ele>50</ele>
        <time>2018-02-18T09:52:32Z</time>
      </trkpt>
      <trkpt lat="51.689896993339062" lon="0.61439199373126">
        <ele>51</ele>
        <time>2018-02-18T09:52:34Z</time>
      </trkpt>
      <trkpt lat="51.689909985288978" lon="0.614429963752627">
        <ele>51</ele>
        <time>2018-02-18T09:52:36Z</time>
      </trkpt>
      <trkpt lat="51.689920965582132" lon="0.614472040906549">
        <ele>50.062496000000003</ele>
        <time>2018-02-18T09:52:38Z</time>
      </trkpt>
      <trkpt lat="51.689930018037558" lon="0.614510010927916">
        <ele>50</ele>
        <time>2018-02-18T09:52:40Z</time>
      </trkpt>
      <trkpt lat="51.689940998330712" lon="0.614552004262805">
        <ele>50</ele>
        <time>2018-02-18T09:52:42Z</time>
      </trkpt>
      <trkpt lat="51.689948039129376" lon="0.614593997597694">
        <ele>50</ele>
        <time>2018-02-18T09:52:44Z</time>
      </trkpt>
      <trkpt lat="51.689959019422531" lon="0.614635990932584">
        <ele>50</ele>
        <time>2018-02-18T09:52:46Z</time>
      </trkpt>
      <trkpt lat="51.689975028857589" lon="0.614672033116221">
        <ele>50</ele>
        <time>2018-02-18T09:52:48Z</time>
      </trkpt>
      <trkpt lat="51.689987014979124" lon="0.61471201479435">
        <ele>50</ele>
        <time>2018-02-18T09:52:50Z</time>
      </trkpt>
      <trkpt lat="51.689993971958756" lon="0.614749984815717">
        <ele>50</ele>
        <time>2018-02-18T09:52:52Z</time>
      </trkpt>
      <trkpt lat="51.690005036070943" lon="0.614786026999354">
        <ele>50</ele>
        <time>2018-02-18T09:52:54Z</time>
      </trkpt>
      <trkpt lat="51.690019033849239" lon="0.614817962050438">
        <ele>50</ele>
        <time>2018-02-18T09:52:56Z</time>
      </trkpt>
      <trkpt lat="51.690035965293646" lon="0.614856015890837">
        <ele>50</ele>
        <time>2018-02-18T09:52:58Z</time>
      </trkpt>
      <trkpt lat="51.690047029405832" lon="0.614890968427062">
        <ele>51</ele>
        <time>2018-02-18T09:53:00Z</time>
      </trkpt>
      <trkpt lat="51.690051974728703" lon="0.61492801643908">
        <ele>51</ele>
        <time>2018-02-18T09:53:02Z</time>
      </trkpt>
      <trkpt lat="51.690064966678619" lon="0.614965986460447">
        <ele>51</ele>
        <time>2018-02-18T09:53:04Z</time>
      </trkpt>
      <trkpt lat="51.690078964456916" lon="0.615001022815704">
        <ele>50.257809999999999</ele>
        <time>2018-02-18T09:53:06Z</time>
      </trkpt>
      <trkpt lat="51.690091034397483" lon="0.61503304168582">
        <ele>50</ele>
        <time>2018-02-18T09:53:08Z</time>
      </trkpt>
      <trkpt lat="51.690114000812173" lon="0.615076962858438">
        <ele>50</ele>
        <time>2018-02-18T09:53:10Z</time>
      </trkpt>
      <trkpt lat="51.690132021903992" lon="0.615125996991992">
        <ele>50</ele>
        <time>2018-02-18T09:53:12Z</time>
      </trkpt>
      <trkpt lat="51.690147025510669" lon="0.615168996155262">
        <ele>50</ele>
        <time>2018-02-18T09:53:14Z</time>
      </trkpt>
      <trkpt lat="51.690161023288965" lon="0.615214006975293">
        <ele>50</ele>
        <time>2018-02-18T09:53:16Z</time>
      </trkpt>
      <trkpt lat="51.69017200358212" lon="0.615254994481802">
        <ele>50</ele>
        <time>2018-02-18T09:53:18Z</time>
      </trkpt>
      <trkpt lat="51.690182983875275" lon="0.615295981988311">
        <ele>50</ele>
        <time>2018-02-18T09:53:20Z</time>
      </trkpt>
      <trkpt lat="51.69019496999681" lon="0.615333030000329">
        <ele>50</ele>
        <time>2018-02-18T09:53:22Z</time>
      </trkpt>
      <trkpt lat="51.690206034108996" lon="0.615373011678457">
        <ele>50</ele>
        <time>2018-02-18T09:53:24Z</time>
      </trkpt>
      <trkpt lat="51.690217014402151" lon="0.615412993356586">
        <ele>50</ele>
        <time>2018-02-18T09:53:26Z</time>
      </trkpt>
      <trkpt lat="51.690221037715673" lon="0.615450963377953">
        <ele>50</ele>
        <time>2018-02-18T09:53:28Z</time>
      </trkpt>
      <trkpt lat="51.690233023837209" lon="0.61548700556159">
        <ele>50</ele>
        <time>2018-02-18T09:53:30Z</time>
      </trkpt>
      <trkpt lat="51.690245009958744" lon="0.615525981411338">
        <ele>50</ele>
        <time>2018-02-18T09:53:32Z</time>
      </trkpt>
      <trkpt lat="51.690259007737041" lon="0.615562023594975">
        <ele>50</ele>
        <time>2018-02-18T09:53:34Z</time>
      </trkpt>
      <trkpt lat="51.690268982201815" lon="0.615606028586626">
        <ele>50</ele>
        <time>2018-02-18T09:53:36Z</time>
      </trkpt>
      <trkpt lat="51.690282979980111" lon="0.615650033578277">
        <ele>50</ele>
        <time>2018-02-18T09:53:38Z</time>
      </trkpt>
      <trkpt lat="51.690294966101646" lon="0.615692026913166">
        <ele>50</ele>
        <time>2018-02-18T09:53:40Z</time>
      </trkpt>
      <trkpt lat="51.690306030213833" lon="0.615729996934533">
        <ele>50</ele>
        <time>2018-02-18T09:53:42Z</time>
      </trkpt>
      <trkpt lat="51.690324973315001" lon="0.615766039118171">
        <ele>50</ele>
        <time>2018-02-18T09:53:44Z</time>
      </trkpt>
      <trkpt lat="51.690342994406819" lon="0.61581096611917">
        <ele>50</ele>
        <time>2018-02-18T09:53:46Z</time>
      </trkpt>
      <trkpt lat="51.690354980528355" lon="0.61585103161633">
        <ele>50</ele>
        <time>2018-02-18T09:53:48Z</time>
      </trkpt>
      <trkpt lat="51.690362021327019" lon="0.6158940307796">
        <ele>50</ele>
        <time>2018-02-18T09:53:50Z</time>
      </trkpt>
      <trkpt lat="51.690368978306651" lon="0.615938035771251">
        <ele>50</ele>
        <time>2018-02-18T09:53:52Z</time>
      </trkpt>
      <trkpt lat="51.690383981913328" lon="0.615974999964237">
        <ele>50</ele>
        <time>2018-02-18T09:53:54Z</time>
      </trkpt>
      <trkpt lat="51.690404014661908" lon="0.616015987470746">
        <ele>50</ele>
        <time>2018-02-18T09:53:56Z</time>
      </trkpt>
      <trkpt lat="51.690414994955063" lon="0.6160650216043">
        <ele>50</ele>
        <time>2018-02-18T09:53:58Z</time>
      </trkpt>
      <trkpt lat="51.690423963591456" lon="0.61610802076757">
        <ele>50</ele>
        <time>2018-02-18T09:54:00Z</time>
      </trkpt>
      <trkpt lat="51.690434021875262" lon="0.61615101993084">
        <ele>50</ele>
        <time>2018-02-18T09:54:02Z</time>
      </trkpt>
      <trkpt lat="51.690443996340036" lon="0.61619502492249">
        <ele>50</ele>
        <time>2018-02-18T09:54:04Z</time>
      </trkpt>
      <trkpt lat="51.690453970804811" lon="0.616240035742521">
        <ele>50</ele>
        <time>2018-02-18T09:54:06Z</time>
      </trkpt>
      <trkpt lat="51.690466040745378" lon="0.616284040734172">
        <ele>50</ele>
        <time>2018-02-18T09:54:08Z</time>
      </trkpt>
      <trkpt lat="51.690480038523674" lon="0.616327039897442">
        <ele>50</ele>
        <time>2018-02-18T09:54:10Z</time>
      </trkpt>
      <trkpt lat="51.690484983846545" lon="0.616371966898441">
        <ele>50</ele>
        <time>2018-02-18T09:54:12Z</time>
      </trkpt>
      <trkpt lat="51.690480960533023" lon="0.616408009082079">
        <ele>50</ele>
        <time>2018-02-18T09:54:14Z</time>
      </trkpt>
      <trkpt lat="51.690488001331687" lon="0.616446984931827">
        <ele>50</ele>
        <time>2018-02-18T09:54:16Z</time>
      </trkpt>
      <trkpt lat="51.690496969968081" lon="0.616490989923477">
        <ele>50</ele>
        <time>2018-02-18T09:54:18Z</time>
      </trkpt>
      <trkpt lat="51.690503004938364" lon="0.61653801240027">
        <ele>50</ele>
        <time>2018-02-18T09:54:20Z</time>
      </trkpt>
      <trkpt lat="51.690509039908648" lon="0.61658101156354">
        <ele>50</ele>
        <time>2018-02-18T09:54:22Z</time>
      </trkpt>
      <trkpt lat="51.690519014373422" lon="0.616627028211951">
        <ele>50</ele>
        <time>2018-02-18T09:54:24Z</time>
      </trkpt>
      <trkpt lat="51.690533012151718" lon="0.616670027375221">
        <ele>50</ele>
        <time>2018-02-18T09:54:26Z</time>
      </trkpt>
      <trkpt lat="51.690538041293621" lon="0.616714032366872">
        <ele>50</ele>
        <time>2018-02-18T09:54:28Z</time>
      </trkpt>
      <trkpt lat="51.690550027415156" lon="0.616759965196252">
        <ele>50</ele>
        <time>2018-02-18T09:54:30Z</time>
      </trkpt>
      <trkpt lat="51.69055899605155" lon="0.616808999329805">
        <ele>50</ele>
        <time>2018-02-18T09:54:32Z</time>
      </trkpt>
      <trkpt lat="51.690566036850214" lon="0.616855015978217">
        <ele>50</ele>
        <time>2018-02-18T09:54:34Z</time>
      </trkpt>
      <trkpt lat="51.690571988001466" lon="0.616902038455009">
        <ele>50</ele>
        <time>2018-02-18T09:54:36Z</time>
      </trkpt>
      <trkpt lat="51.69058196246624" lon="0.616946965456009">
        <ele>50</ele>
        <time>2018-02-18T09:54:38Z</time>
      </trkpt>
      <trkpt lat="51.690589003264904" lon="0.616999017074704">
        <ele>50</ele>
        <time>2018-02-18T09:54:40Z</time>
      </trkpt>
      <trkpt lat="51.690600989386439" lon="0.617047967389226">
        <ele>50</ele>
        <time>2018-02-18T09:54:42Z</time>
      </trkpt>
      <trkpt lat="51.690612975507975" lon="0.617088032886386">
        <ele>50</ele>
        <time>2018-02-18T09:54:44Z</time>
      </trkpt>
      <trkpt lat="51.6906220279634" lon="0.617126002907753">
        <ele>50</ele>
        <time>2018-02-18T09:54:46Z</time>
      </trkpt>
      <trkpt lat="51.690635019913316" lon="0.617164978757501">
        <ele>50</ele>
        <time>2018-02-18T09:54:48Z</time>
      </trkpt>
      <trkpt lat="51.690641976892948" lon="0.617207977920771">
        <ele>50</ele>
        <time>2018-02-18T09:54:50Z</time>
      </trkpt>
      <trkpt lat="51.690641976892948" lon="0.617255000397563">
        <ele>50</ele>
        <time>2018-02-18T09:54:52Z</time>
      </trkpt>
      <trkpt lat="51.690642982721329" lon="0.617304034531116">
        <ele>50</ele>
        <time>2018-02-18T09:54:54Z</time>
      </trkpt>
      <trkpt lat="51.690650023519993" lon="0.617347033694386">
        <ele>50</ele>
        <time>2018-02-18T09:54:56Z</time>
      </trkpt>
      <trkpt lat="51.690656980499625" lon="0.617392966523767">
        <ele>50</ele>
        <time>2018-02-18T09:54:58Z</time>
      </trkpt>
      <trkpt lat="51.690669972449541" lon="0.617435965687037">
        <ele>50</ele>
        <time>2018-02-18T09:55:00Z</time>
      </trkpt>
      <trkpt lat="51.690679024904966" lon="0.617479970678687">
        <ele>50</ele>
        <time>2018-02-18T09:55:02Z</time>
      </trkpt>
      <trkpt lat="51.690690005198121" lon="0.617518024519086">
        <ele>50</ele>
        <time>2018-02-18T09:55:04Z</time>
      </trkpt>
      <trkpt lat="51.690696040168405" lon="0.617558006197214">
        <ele>50</ele>
        <time>2018-02-18T09:55:06Z</time>
      </trkpt>
      <trkpt lat="51.690707020461559" lon="0.61759103089571">
        <ele>50</ele>
        <time>2018-02-18T09:55:08Z</time>
      </trkpt>
      <trkpt lat="51.690714983269572" lon="0.617626989260316">
        <ele>50</ele>
        <time>2018-02-18T09:55:10Z</time>
      </trkpt>
      <trkpt lat="51.690720012411475" lon="0.617662025615573">
        <ele>50</ele>
        <time>2018-02-18T09:55:12Z</time>
      </trkpt>
      <trkpt lat="51.690725963562727" lon="0.617695972323418">
        <ele>50</ele>
        <time>2018-02-18T09:55:14Z</time>
      </trkpt>
      <trkpt lat="51.690735016018152" lon="0.617735031992197">
        <ele>50</ele>
        <time>2018-02-18T09:55:16Z</time>
      </trkpt>
      <trkpt lat="51.690737027674913" lon="0.617770990356803">
        <ele>50</ele>
        <time>2018-02-18T09:55:18Z</time>
      </trkpt>
      <trkpt lat="51.69073099270463" lon="0.61780602671206">
        <ele>50</ele>
        <time>2018-02-18T09:55:20Z</time>
      </trkpt>
      <trkpt lat="51.690725041553378" lon="0.617853971198201">
        <ele>50</ele>
        <time>2018-02-18T09:55:22Z</time>
      </trkpt>
      <trkpt lat="51.690722024068236" lon="0.617901999503374">
        <ele>50</ele>
        <time>2018-02-18T09:55:24Z</time>
      </trkpt>
      <trkpt lat="51.690725041553378" lon="0.617949021980166">
        <ele>50</ele>
        <time>2018-02-18T09:55:26Z</time>
      </trkpt>
      <trkpt lat="51.690725963562727" lon="0.617983974516392">
        <ele>50</ele>
        <time>2018-02-18T09:55:28Z</time>
      </trkpt>
      <trkpt lat="51.690725963562727" lon="0.618018005043268">
        <ele>50</ele>
        <time>2018-02-18T09:55:30Z</time>
      </trkpt>
      <trkpt lat="51.690729986876249" lon="0.618050023913383">
        <ele>50</ele>
        <time>2018-02-18T09:55:32Z</time>
      </trkpt>
      <trkpt lat="51.690737027674913" lon="0.618091011419892">
        <ele>50</ele>
        <time>2018-02-18T09:55:34Z</time>
      </trkpt>
      <trkpt lat="51.690744990482926" lon="0.618127975612879">
        <ele>49</ele>
        <time>2018-02-18T09:55:36Z</time>
      </trkpt>
      <trkpt lat="51.690749013796449" lon="0.618154965341091">
        <ele>49</ele>
        <time>2018-02-18T09:55:39Z</time>
      </trkpt>
      <trkpt lat="51.690758988261223" lon="0.618182960897684">
        <ele>49</ele>
        <time>2018-02-18T09:55:41Z</time>
      </trkpt>
      <trkpt lat="51.690768040716648" lon="0.618220008909702">
        <ele>49</ele>
        <time>2018-02-18T09:55:44Z</time>
      </trkpt>
      <trkpt lat="51.690768962725997" lon="0.618249010294676">
        <ele>49</ele>
        <time>2018-02-18T09:55:46Z</time>
      </trkpt>
      <trkpt lat="51.690770974382758" lon="0.618286980316043">
        <ele>49</ele>
        <time>2018-02-18T09:55:48Z</time>
      </trkpt>
      <trkpt lat="51.690771980211139" lon="0.6183220166713">
        <ele>49</ele>
        <time>2018-02-18T09:55:50Z</time>
      </trkpt>
      <trkpt lat="51.6907739918679" lon="0.618356969207525">
        <ele>49</ele>
        <time>2018-02-18T09:55:52Z</time>
      </trkpt>
      <trkpt lat="51.690776003524661" lon="0.618393011391163">
        <ele>49</ele>
        <time>2018-02-18T09:55:54Z</time>
      </trkpt>
      <trkpt lat="51.690777009353042" lon="0.618429975584149">
        <ele>49</ele>
        <time>2018-02-18T09:55:56Z</time>
      </trkpt>
      <trkpt lat="51.690780026838183" lon="0.618467023596168">
        <ele>49</ele>
        <time>2018-02-18T09:55:58Z</time>
      </trkpt>
      <trkpt lat="51.690782038494945" lon="0.618503987789154">
        <ele>49</ele>
        <time>2018-02-18T09:56:00Z</time>
      </trkpt>
      <trkpt lat="51.690785977989435" lon="0.618542041629553">
        <ele>49</ele>
        <time>2018-02-18T09:56:02Z</time>
      </trkpt>
      <trkpt lat="51.69079402461648" lon="0.618575988337398">
        <ele>49</ele>
        <time>2018-02-18T09:56:04Z</time>
      </trkpt>
      <trkpt lat="51.690802993252873" lon="0.618624016642571">
        <ele>48</ele>
        <time>2018-02-18T09:56:06Z</time>
      </trkpt>
      <trkpt lat="51.690811039879918" lon="0.618668021634221">
        <ele>49</ele>
        <time>2018-02-18T09:56:08Z</time>
      </trkpt>
      <trkpt lat="51.690819002687931" lon="0.618717977777123">
        <ele>49</ele>
        <time>2018-02-18T09:56:10Z</time>
      </trkpt>
      <trkpt lat="51.690824031829834" lon="0.618765000253916">
        <ele>49</ele>
        <time>2018-02-18T09:56:12Z</time>
      </trkpt>
      <trkpt lat="51.690822020173073" lon="0.618810011073947">
        <ele>49</ele>
        <time>2018-02-18T09:56:14Z</time>
      </trkpt>
      <trkpt lat="51.690821014344692" lon="0.618863990530372">
        <ele>49</ele>
        <time>2018-02-18T09:56:16Z</time>
      </trkpt>
      <trkpt lat="51.690823026001453" lon="0.618914030492306">
        <ele>49</ele>
        <time>2018-02-18T09:56:18Z</time>
      </trkpt>
      <trkpt lat="51.69081799685955" lon="0.618970021605492">
        <ele>48.049996800000002</ele>
        <time>2018-02-18T09:56:20Z</time>
      </trkpt>
      <trkpt lat="51.69081699103117" lon="0.619021989405155">
        <ele>48</ele>
        <time>2018-02-18T09:56:22Z</time>
      </trkpt>
      <trkpt lat="51.690819002687931" lon="0.61907596886158">
        <ele>48</ele>
        <time>2018-02-18T09:56:24Z</time>
      </trkpt>
      <trkpt lat="51.690819002687931" lon="0.619130032137036">
        <ele>48</ele>
        <time>2018-02-18T09:56:26Z</time>
      </trkpt>
      <trkpt lat="51.690820008516312" lon="0.619172025471926">
        <ele>48</ele>
        <time>2018-02-18T09:56:28Z</time>
      </trkpt>
      <trkpt lat="51.690822020173073" lon="0.619212007150054">
        <ele>48</ele>
        <time>2018-02-18T09:56:30Z</time>
      </trkpt>
      <trkpt lat="51.690819002687931" lon="0.619260035455227">
        <ele>48</ele>
        <time>2018-02-18T09:56:32Z</time>
      </trkpt>
      <trkpt lat="51.690813973546028" lon="0.619304040446877">
        <ele>48</ele>
        <time>2018-02-18T09:56:34Z</time>
      </trkpt>
      <trkpt lat="51.690811961889267" lon="0.619349973276258">
        <ele>48</ele>
        <time>2018-02-18T09:56:36Z</time>
      </trkpt>
      <trkpt lat="51.690819002687931" lon="0.619395989924669">
        <ele>48</ele>
        <time>2018-02-18T09:56:38Z</time>
      </trkpt>
      <trkpt lat="51.690825037658215" lon="0.619442006573081">
        <ele>48</ele>
        <time>2018-02-18T09:56:40Z</time>
      </trkpt>
      <trkpt lat="51.690830988809466" lon="0.619486011564732">
        <ele>48</ele>
        <time>2018-02-18T09:56:42Z</time>
      </trkpt>
      <trkpt lat="51.690828977152705" lon="0.619523981586099">
        <ele>47</ele>
        <time>2018-02-18T09:56:44Z</time>
      </trkpt>
      <trkpt lat="51.690825959667563" lon="0.619567986577749">
        <ele>48</ele>
        <time>2018-02-18T09:56:46Z</time>
      </trkpt>
      <trkpt lat="51.690825959667563" lon="0.619616014882922">
        <ele>48</ele>
        <time>2018-02-18T09:56:48Z</time>
      </trkpt>
      <trkpt lat="51.690829982981086" lon="0.619663037359715">
        <ele>48</ele>
        <time>2018-02-18T09:56:50Z</time>
      </trkpt>
      <trkpt lat="51.690831994637847" lon="0.619711987674236">
        <ele>48</ele>
        <time>2018-02-18T09:56:52Z</time>
      </trkpt>
      <trkpt lat="51.690831994637847" lon="0.619759010151029">
        <ele>48</ele>
        <time>2018-02-18T09:56:54Z</time>
      </trkpt>
      <trkpt lat="51.69083702377975" lon="0.619806032627821">
        <ele>48</ele>
        <time>2018-02-18T09:56:56Z</time>
      </trkpt>
      <trkpt lat="51.690842974931002" lon="0.619855988770723">
        <ele>48</ele>
        <time>2018-02-18T09:56:58Z</time>
      </trkpt>
      <trkpt lat="51.690845992416143" lon="0.619902005419135">
        <ele>48</ele>
        <time>2018-02-18T09:57:00Z</time>
      </trkpt>
      <trkpt lat="51.690849009901285" lon="0.61995598487556">
        <ele>48</ele>
        <time>2018-02-18T09:57:02Z</time>
      </trkpt>
      <trkpt lat="51.690854039043188" lon="0.620006024837494">
        <ele>48</ele>
        <time>2018-02-18T09:57:04Z</time>
      </trkpt>
      <trkpt lat="51.690856972709298" lon="0.620052041485906">
        <ele>48</ele>
        <time>2018-02-18T09:57:06Z</time>
      </trkpt>
      <trkpt lat="51.690857978537679" lon="0.620095962658525">
        <ele>47</ele>
        <time>2018-02-18T09:57:08Z</time>
      </trkpt>
      <trkpt lat="51.690858984366059" lon="0.620146002620459">
        <ele>48</ele>
        <time>2018-02-18T09:57:10Z</time>
      </trkpt>
      <trkpt lat="51.690856972709298" lon="0.620197970420122">
        <ele>48</ele>
        <time>2018-02-18T09:57:12Z</time>
      </trkpt>
      <trkpt lat="51.690857978537679" lon="0.620244992896914">
        <ele>48</ele>
        <time>2018-02-18T09:57:14Z</time>
      </trkpt>
      <trkpt lat="51.690855966880918" lon="0.620283968746662">
        <ele>48</ele>
        <time>2018-02-18T09:57:16Z</time>
      </trkpt>
      <trkpt lat="51.690856972709298" lon="0.620325962081552">
        <ele>48</ele>
        <time>2018-02-18T09:57:18Z</time>
      </trkpt>
      <trkpt lat="51.690856972709298" lon="0.620365021750331">
        <ele>48</ele>
        <time>2018-02-18T09:57:20Z</time>
      </trkpt>
      <trkpt lat="51.69086099602282" lon="0.620405003428459">
        <ele>48</ele>
        <time>2018-02-18T09:57:22Z</time>
      </trkpt>
      <trkpt lat="51.690868036821485" lon="0.620446996763349">
        <ele>48</ele>
        <time>2018-02-18T09:57:24Z</time>
      </trkpt>
      <trkpt lat="51.690869964659214" lon="0.620495025068522">
        <ele>48</ele>
        <time>2018-02-18T09:57:26Z</time>
      </trkpt>
      <trkpt lat="51.690873987972736" lon="0.620541963726282">
        <ele>48</ele>
        <time>2018-02-18T09:57:28Z</time>
      </trkpt>
      <trkpt lat="51.690877005457878" lon="0.620592003688216">
        <ele>48</ele>
        <time>2018-02-18T09:57:30Z</time>
      </trkpt>
      <trkpt lat="51.690878011286259" lon="0.620638020336628">
        <ele>48</ele>
        <time>2018-02-18T09:57:32Z</time>
      </trkpt>
      <trkpt lat="51.690879017114639" lon="0.620676996186376">
        <ele>48</ele>
        <time>2018-02-18T09:57:34Z</time>
      </trkpt>
      <trkpt lat="51.6908810287714" lon="0.620713960379362">
        <ele>48</ele>
        <time>2018-02-18T09:57:36Z</time>
      </trkpt>
      <trkpt lat="51.690887985751033" lon="0.620756037533283">
        <ele>48</ele>
        <time>2018-02-18T09:57:38Z</time>
      </trkpt>
      <trkpt lat="51.690893014892936" lon="0.620802976191044">
        <ele>48</ele>
        <time>2018-02-18T09:57:40Z</time>
      </trkpt>
      <trkpt lat="51.690895026549697" lon="0.620846981182694">
        <ele>48</ele>
        <time>2018-02-18T09:57:42Z</time>
      </trkpt>
      <trkpt lat="51.690899971872568" lon="0.620887968689203">
        <ele>48</ele>
        <time>2018-02-18T09:57:44Z</time>
      </trkpt>
      <trkpt lat="51.690894020721316" lon="0.620933985337615">
        <ele>48</ele>
        <time>2018-02-18T09:57:46Z</time>
      </trkpt>
      <trkpt lat="51.690896032378078" lon="0.620975978672504">
        <ele>48</ele>
        <time>2018-02-18T09:57:48Z</time>
      </trkpt>
      <trkpt lat="51.690893014892936" lon="0.621015960350633">
        <ele>47</ele>
        <time>2018-02-18T09:57:50Z</time>
      </trkpt>
      <trkpt lat="51.690892009064555" lon="0.621058037504554">
        <ele>48</ele>
        <time>2018-02-18T09:57:52Z</time>
      </trkpt>
      <trkpt lat="51.690896032378078" lon="0.621097013354301">
        <ele>48</ele>
        <time>2018-02-18T09:57:54Z</time>
      </trkpt>
      <trkpt lat="51.690909024327993" lon="0.62113699503243">
        <ele>48</ele>
        <time>2018-02-18T09:57:56Z</time>
      </trkpt>
      <trkpt lat="51.690915981307626" lon="0.621169013902545">
        <ele>48</ele>
        <time>2018-02-18T09:57:58Z</time>
      </trkpt>
      <trkpt lat="51.690931990742683" lon="0.62120396643877">
        <ele>48</ele>
        <time>2018-02-18T09:58:00Z</time>
      </trkpt>
      <trkpt lat="51.690943976864219" lon="0.62124403193593">
        <ele>48</ele>
        <time>2018-02-18T09:58:02Z</time>
      </trkpt>
      <trkpt lat="51.690950011834502" lon="0.621283007785678">
        <ele>47.960000000000001</ele>
        <time>2018-02-18T09:58:04Z</time>
      </trkpt>
      <trkpt lat="51.690960992127657" lon="0.621321983635426">
        <ele>47.030003200000003</ele>
        <time>2018-02-18T09:58:06Z</time>
      </trkpt>
      <trkpt lat="51.690974989905953" lon="0.621364982798696">
        <ele>48</ele>
        <time>2018-02-18T09:58:08Z</time>
      </trkpt>
      <trkpt lat="51.69098898768425" lon="0.621414016932249">
        <ele>48</ele>
        <time>2018-02-18T09:58:10Z</time>
      </trkpt>
      <trkpt lat="51.691000973805785" lon="0.621453998610377">
        <ele>48</ele>
        <time>2018-02-18T09:58:12Z</time>
      </trkpt>
      <trkpt lat="51.69101002626121" lon="0.621498003602028">
        <ele>48</ele>
        <time>2018-02-18T09:58:14Z</time>
      </trkpt>
      <trkpt lat="51.691021006554365" lon="0.621542008593678">
        <ele>48</ele>
        <time>2018-02-18T09:58:16Z</time>
      </trkpt>
      <trkpt lat="51.69103198684752" lon="0.621584001928568">
        <ele>48</ele>
        <time>2018-02-18T09:58:18Z</time>
      </trkpt>
      <trkpt lat="51.691041039302945" lon="0.621623983606696">
        <ele>48</ele>
        <time>2018-02-18T09:58:20Z</time>
      </trkpt>
      <trkpt lat="51.691047996282578" lon="0.621662037447095">
        <ele>48</ele>
        <time>2018-02-18T09:58:22Z</time>
      </trkpt>
      <trkpt lat="51.69105595909059" lon="0.621705958619714">
        <ele>48</ele>
        <time>2018-02-18T09:58:24Z</time>
      </trkpt>
      <trkpt lat="51.691066017374396" lon="0.621745018288493">
        <ele>48</ele>
        <time>2018-02-18T09:58:26Z</time>
      </trkpt>
      <trkpt lat="51.691066017374396" lon="0.621787011623383">
        <ele>48</ele>
        <time>2018-02-18T09:58:28Z</time>
      </trkpt>
      <trkpt lat="51.691068029031157" lon="0.621822969987988">
        <ele>48</ele>
        <time>2018-02-18T09:58:30Z</time>
      </trkpt>
      <trkpt lat="51.691071968525648" lon="0.621861023828387">
        <ele>48</ele>
        <time>2018-02-18T09:58:32Z</time>
      </trkpt>
      <trkpt lat="51.691078003495932" lon="0.621897988021374">
        <ele>47</ele>
        <time>2018-02-18T09:58:34Z</time>
      </trkpt>
      <trkpt lat="51.691084960475564" lon="0.621938975527883">
        <ele>48</ele>
        <time>2018-02-18T09:58:36Z</time>
      </trkpt>
      <trkpt lat="51.691088983789086" lon="0.621977029368281">
        <ele>48</ele>
        <time>2018-02-18T09:58:38Z</time>
      </trkpt>
      <trkpt lat="51.691086972132325" lon="0.622006030753255">
        <ele>48</ele>
        <time>2018-02-18T09:58:40Z</time>
      </trkpt>
      <trkpt lat="51.691090995445848" lon="0.622042994946241">
        <ele>48</ele>
        <time>2018-02-18T09:58:43Z</time>
      </trkpt>
      <trkpt lat="51.691097030416131" lon="0.622075013816357">
        <ele>48</ele>
        <time>2018-02-18T09:58:46Z</time>
      </trkpt>
      <trkpt lat="51.691094012930989" lon="0.622108960524201">
        <ele>48</ele>
        <time>2018-02-18T09:58:50Z</time>
      </trkpt>
      <trkpt lat="51.69109501875937" lon="0.622138967737556">
        <ele>48</ele>
        <time>2018-02-18T09:58:53Z</time>
      </trkpt>
      <trkpt lat="51.691110022366047" lon="0.622180961072445">
        <ele>48</ele>
        <time>2018-02-18T09:58:56Z</time>
      </trkpt>
      <trkpt lat="51.691128965467215" lon="0.622213985770941">
        <ele>48</ele>
        <time>2018-02-18T09:58:58Z</time>
      </trkpt>
      <trkpt lat="51.691141035407782" lon="0.622241981327534">
        <ele>48</ele>
        <time>2018-02-18T09:59:00Z</time>
      </trkpt>
      <trkpt lat="51.691142963245511" lon="0.622279029339552">
        <ele>48</ele>
        <time>2018-02-18T09:59:02Z</time>
      </trkpt>
      <trkpt lat="51.691150004044175" lon="0.622324040159583">
        <ele>48</ele>
        <time>2018-02-18T09:59:04Z</time>
      </trkpt>
      <trkpt lat="51.691136006265879" lon="0.622376007959247">
        <ele>48</ele>
        <time>2018-02-18T09:59:06Z</time>
      </trkpt>
      <trkpt lat="51.691126031801105" lon="0.622402997687459">
        <ele>48</ele>
        <time>2018-02-18T09:59:07Z</time>
      </trkpt>
      <trkpt lat="51.691101975739002" lon="0.622444991022348">
        <ele>48</ele>
        <time>2018-02-18T09:59:09Z</time>
      </trkpt>
      <trkpt lat="51.691084038466215" lon="0.622474998235703">
        <ele>48</ele>
        <time>2018-02-18T09:59:10Z</time>
      </trkpt>
      <trkpt lat="51.691070040687919" lon="0.622502993792295">
        <ele>48</ele>
        <time>2018-02-18T09:59:11Z</time>
      </trkpt>
      <trkpt lat="51.69105595909059" lon="0.622529983520508">
        <ele>48.030003200000003</ele>
        <time>2018-02-18T09:59:12Z</time>
      </trkpt>
      <trkpt lat="51.691043972969055" lon="0.622554961591959">
        <ele>49</ele>
        <time>2018-02-18T09:59:13Z</time>
      </trkpt>
      <trkpt lat="51.691027963533998" lon="0.622583040967584">
        <ele>49</ele>
        <time>2018-02-18T09:59:14Z</time>
      </trkpt>
      <trkpt lat="51.69101295992732" lon="0.622609024867415">
        <ele>49</ele>
        <time>2018-02-18T09:59:15Z</time>
      </trkpt>
      <trkpt lat="51.690997034311295" lon="0.622636014595628">
        <ele>49</ele>
        <time>2018-02-18T09:59:16Z</time>
      </trkpt>
      <trkpt lat="51.690980019047856" lon="0.622665015980601">
        <ele>49</ele>
        <time>2018-02-18T09:59:17Z</time>
      </trkpt>
      <trkpt lat="51.690965015441179" lon="0.622697034850717">
        <ele>49</ele>
        <time>2018-02-18T09:59:18Z</time>
      </trkpt>
      <trkpt lat="51.690949006006122" lon="0.62272796407342">
        <ele>49</ele>
        <time>2018-02-18T09:59:19Z</time>
      </trkpt>
      <trkpt lat="51.690934002399445" lon="0.622760988771915">
        <ele>49</ele>
        <time>2018-02-18T09:59:20Z</time>
      </trkpt>
      <trkpt lat="51.690917992964387" lon="0.622798958793283">
        <ele>49</ele>
        <time>2018-02-18T09:59:21Z</time>
      </trkpt>
      <trkpt lat="51.69090399518609" lon="0.62283500097692">
        <ele>48.961242694555501</ele>
        <time>2018-02-18T09:59:22Z</time>
      </trkpt>
      <trkpt lat="51.690887985751033" lon="0.622871965169907">
        <ele>48.186046973139803</ele>
        <time>2018-02-18T09:59:23Z</time>
      </trkpt>
      <trkpt lat="51.690875999629498" lon="0.622908007353544">
        <ele>48</ele>
        <time>2018-02-18T09:59:24Z</time>
      </trkpt>
      <trkpt lat="51.690857978537679" lon="0.622944971546531">
        <ele>48</ele>
        <time>2018-02-18T09:59:25Z</time>
      </trkpt>
      <trkpt lat="51.690843980759382" lon="0.622980007901788">
        <ele>48</ele>
        <time>2018-02-18T09:59:26Z</time>
      </trkpt>
      <trkpt lat="51.690831994637847" lon="0.623014038428664">
        <ele>48</ele>
        <time>2018-02-18T09:59:27Z</time>
      </trkpt>
      <trkpt lat="51.69081799685955" lon="0.623051002621651">
        <ele>48</ele>
        <time>2018-02-18T09:59:28Z</time>
      </trkpt>
      <trkpt lat="51.690803999081254" lon="0.623083021491766">
        <ele>48.059994367927899</ele>
        <time>2018-02-18T09:59:29Z</time>
      </trkpt>
      <trkpt lat="51.690788995474577" lon="0.623114034533501">
        <ele>49</ele>
        <time>2018-02-18T09:59:30Z</time>
      </trkpt>
      <trkpt lat="51.690776003524661" lon="0.623144963756204">
        <ele>49</ele>
        <time>2018-02-18T09:59:31Z</time>
      </trkpt>
      <trkpt lat="51.690762005746365" lon="0.623175976797938">
        <ele>49</ele>
        <time>2018-02-18T09:59:32Z</time>
      </trkpt>
      <trkpt lat="51.690749013796449" lon="0.623209001496434">
        <ele>49</ele>
        <time>2018-02-18T09:59:33Z</time>
      </trkpt>
      <trkpt lat="51.690737027674913" lon="0.623243032023311">
        <ele>49</ele>
        <time>2018-02-18T09:59:34Z</time>
      </trkpt>
      <trkpt lat="51.690722024068236" lon="0.623278990387917">
        <ele>49</ele>
        <time>2018-02-18T09:59:35Z</time>
      </trkpt>
      <trkpt lat="51.69070802628994" lon="0.623316960409284">
        <ele>49</ele>
        <time>2018-02-18T09:59:36Z</time>
      </trkpt>
      <trkpt lat="51.690696962177753" lon="0.623354008421302">
        <ele>49</ele>
        <time>2018-02-18T09:59:37Z</time>
      </trkpt>
      <trkpt lat="51.690682964399457" lon="0.623389966785908">
        <ele>49</ele>
        <time>2018-02-18T09:59:38Z</time>
      </trkpt>
      <trkpt lat="51.690663015469909" lon="0.623429026454687">
        <ele>49</ele>
        <time>2018-02-18T09:59:39Z</time>
      </trkpt>
      <trkpt lat="51.69064600020647" lon="0.623468002304435">
        <ele>49</ele>
        <time>2018-02-18T09:59:40Z</time>
      </trkpt>
      <trkpt lat="51.690629990771413" lon="0.623505972325802">
        <ele>49</ele>
        <time>2018-02-18T09:59:41Z</time>
      </trkpt>
      <trkpt lat="51.690611969679594" lon="0.623546959832311">
        <ele>49</ele>
        <time>2018-02-18T09:59:42Z</time>
      </trkpt>
      <trkpt lat="51.690593026578426" lon="0.62358601950109">
        <ele>49</ele>
        <time>2018-02-18T09:59:43Z</time>
      </trkpt>
      <trkpt lat="51.690578022971749" lon="0.623618960380554">
        <ele>49</ele>
        <time>2018-02-18T09:59:44Z</time>
      </trkpt>
      <trkpt lat="51.690562013536692" lon="0.623653996735811">
        <ele>49</ele>
        <time>2018-02-18T09:59:45Z</time>
      </trkpt>
      <trkpt lat="51.690546004101634" lon="0.623690038919449">
        <ele>49</ele>
        <time>2018-02-18T09:59:46Z</time>
      </trkpt>
      <trkpt lat="51.690528988838196" lon="0.623729014769197">
        <ele>49</ele>
        <time>2018-02-18T09:59:47Z</time>
      </trkpt>
      <trkpt lat="51.690511973574758" lon="0.623762961477041">
        <ele>49</ele>
        <time>2018-02-18T09:59:48Z</time>
      </trkpt>
      <trkpt lat="51.690492024645209" lon="0.623793974518776">
        <ele>49.030003200000003</ele>
        <time>2018-02-18T09:59:49Z</time>
      </trkpt>
      <trkpt lat="51.690469980239868" lon="0.623830016702414">
        <ele>50</ele>
        <time>2018-02-18T09:59:50Z</time>
      </trkpt>
      <trkpt lat="51.690449025481939" lon="0.6238669808954">
        <ele>50</ele>
        <time>2018-02-18T09:59:51Z</time>
      </trkpt>
      <trkpt lat="51.690427986904979" lon="0.623900005593896">
        <ele>50</ele>
        <time>2018-02-18T09:59:52Z</time>
      </trkpt>
      <trkpt lat="51.69040703214705" lon="0.623933030292392">
        <ele>50</ele>
        <time>2018-02-18T09:59:53Z</time>
      </trkpt>
      <trkpt lat="51.690384987741709" lon="0.623963959515095">
        <ele>49.069309440227102</ele>
        <time>2018-02-18T09:59:54Z</time>
      </trkpt>
      <trkpt lat="51.69036403298378" lon="0.62399597838521">
        <ele>49</ele>
        <time>2018-02-18T09:59:55Z</time>
      </trkpt>
      <trkpt lat="51.690345006063581" lon="0.624030008912086">
        <ele>49</ele>
        <time>2018-02-18T09:59:56Z</time>
      </trkpt>
      <trkpt lat="51.690326984971762" lon="0.624063033610582">
        <ele>49</ele>
        <time>2018-02-18T09:59:57Z</time>
      </trkpt>
      <trkpt lat="51.690313993021846" lon="0.624094968661666">
        <ele>49.9393876706661</ele>
        <time>2018-02-18T09:59:58Z</time>
      </trkpt>
      <trkpt lat="51.690295971930027" lon="0.624126987531781">
        <ele>50</ele>
        <time>2018-02-18T09:59:59Z</time>
      </trkpt>
      <trkpt lat="51.69028096832335" lon="0.624161018058658">
        <ele>50</ele>
        <time>2018-02-18T10:00:00Z</time>
      </trkpt>
      <trkpt lat="51.690263031050563" lon="0.624192031100392">
        <ele>50</ele>
        <time>2018-02-18T10:00:01Z</time>
      </trkpt>
      <trkpt lat="51.690246015787125" lon="0.624222038313746">
        <ele>50</ele>
        <time>2018-02-18T10:00:02Z</time>
      </trkpt>
      <trkpt lat="51.690225983038545" lon="0.62425103969872">
        <ele>50</ele>
        <time>2018-02-18T10:00:03Z</time>
      </trkpt>
      <trkpt lat="51.690208967775106" lon="0.624281968921423">
        <ele>50</ele>
        <time>2018-02-18T10:00:04Z</time>
      </trkpt>
      <trkpt lat="51.690187007188797" lon="0.624311976134777">
        <ele>49.084499170693</ele>
        <time>2018-02-18T10:00:05Z</time>
      </trkpt>
      <trkpt lat="51.69017200358212" lon="0.62433997169137">
        <ele>49</ele>
        <time>2018-02-18T10:00:06Z</time>
      </trkpt>
      <trkpt lat="51.690153982490301" lon="0.624371990561485">
        <ele>49</ele>
        <time>2018-02-18T10:00:07Z</time>
      </trkpt>
      <trkpt lat="51.690138978883624" lon="0.624401997774839">
        <ele>49</ele>
        <time>2018-02-18T10:00:08Z</time>
      </trkpt>
      <trkpt lat="51.690121041610837" lon="0.624429993331432">
        <ele>49</ele>
        <time>2018-02-18T10:00:09Z</time>
      </trkpt>
      <trkpt lat="51.690101008862257" lon="0.624454971402884">
        <ele>49.950498060984003</ele>
        <time>2018-02-18T10:00:10Z</time>
      </trkpt>
      <trkpt lat="51.690078964456916" lon="0.624478021636605">
        <ele>50</ele>
        <time>2018-02-18T10:00:11Z</time>
      </trkpt>
      <trkpt lat="51.690060021355748" lon="0.624502999708056">
        <ele>50</ele>
        <time>2018-02-18T10:00:12Z</time>
      </trkpt>
      <trkpt lat="51.690037976950407" lon="0.62453200109303">
        <ele>50</ele>
        <time>2018-02-18T10:00:13Z</time>
      </trkpt>
      <trkpt lat="51.690014004707336" lon="0.624563014134765">
        <ele>50</ele>
        <time>2018-02-18T10:00:14Z</time>
      </trkpt>
      <trkpt lat="51.689994977787137" lon="0.624594027176499">
        <ele>50</ele>
        <time>2018-02-18T10:00:15Z</time>
      </trkpt>
      <trkpt lat="51.689975028857589" lon="0.624624034389853">
        <ele>50</ele>
        <time>2018-02-18T10:00:16Z</time>
      </trkpt>
      <trkpt lat="51.689953990280628" lon="0.624651024118066">
        <ele>50</ele>
        <time>2018-02-18T10:00:17Z</time>
      </trkpt>
      <trkpt lat="51.689932029694319" lon="0.624674996361136">
        <ele>50</ele>
        <time>2018-02-18T10:00:18Z</time>
      </trkpt>
      <trkpt lat="51.689910991117358" lon="0.624701986089349">
        <ele>50</ele>
        <time>2018-02-18T10:00:19Z</time>
      </trkpt>
      <trkpt lat="51.689894981682301" lon="0.624729981645942">
        <ele>50</ele>
        <time>2018-02-18T10:00:20Z</time>
      </trkpt>
      <trkpt lat="51.689879978075624" lon="0.624754959717393">
        <ele>50</ele>
        <time>2018-02-18T10:00:21Z</time>
      </trkpt>
      <trkpt lat="51.689865980297327" lon="0.624778009951115">
        <ele>49.030306164666897</ele>
        <time>2018-02-18T10:00:22Z</time>
      </trkpt>
      <trkpt lat="51.689852988347411" lon="0.624800976365805">
        <ele>49</ele>
        <time>2018-02-18T10:00:23Z</time>
      </trkpt>
      <trkpt lat="51.689834967255592" lon="0.624825032427907">
        <ele>49.6666708496995</ele>
        <time>2018-02-18T10:00:24Z</time>
      </trkpt>
      <trkpt lat="51.689819963648915" lon="0.624847998842597">
        <ele>50</ele>
        <time>2018-02-18T10:00:25Z</time>
      </trkpt>
      <trkpt lat="51.689805965870619" lon="0.624872976914048">
        <ele>50</ele>
        <time>2018-02-18T10:00:26Z</time>
      </trkpt>
      <trkpt lat="51.689790962263942" lon="0.624897032976151">
        <ele>50</ele>
        <time>2018-02-18T10:00:27Z</time>
      </trkpt>
      <trkpt lat="51.689778976142406" lon="0.624927040189505">
        <ele>50</ele>
        <time>2018-02-18T10:00:28Z</time>
      </trkpt>
      <trkpt lat="51.689761038869619" lon="0.624957969412208">
        <ele>50</ele>
        <time>2018-02-18T10:00:29Z</time>
      </trkpt>
      <trkpt lat="51.689741006121039" lon="0.624989988282323">
        <ele>50</ele>
        <time>2018-02-18T10:00:30Z</time>
      </trkpt>
      <trkpt lat="51.689722985029221" lon="0.625014966353774">
        <ele>50</ele>
        <time>2018-02-18T10:00:31Z</time>
      </trkpt>
      <trkpt lat="51.689704963937402" lon="0.625042961910367">
        <ele>49.060005631927901</ele>
        <time>2018-02-18T10:00:32Z</time>
      </trkpt>
      <trkpt lat="51.689683003351092" lon="0.625069029629231">
        <ele>49</ele>
        <time>2018-02-18T10:00:33Z</time>
      </trkpt>
      <trkpt lat="51.689662970602512" lon="0.625099036842585">
        <ele>49.930690559772898</ele>
        <time>2018-02-18T10:00:34Z</time>
      </trkpt>
      <trkpt lat="51.689642015844584" lon="0.625128038227558">
        <ele>50</ele>
        <time>2018-02-18T10:00:35Z</time>
      </trkpt>
      <trkpt lat="51.689622988924384" lon="0.62515402212739">
        <ele>50</ele>
        <time>2018-02-18T10:00:36Z</time>
      </trkpt>
      <trkpt lat="51.689598010852933" lon="0.625184029340744">
        <ele>50</ele>
        <time>2018-02-18T10:00:37Z</time>
      </trkpt>
      <trkpt lat="51.689574038609862" lon="0.625210013240576">
        <ele>50</ele>
        <time>2018-02-18T10:00:38Z</time>
      </trkpt>
      <trkpt lat="51.689550988376141" lon="0.625239014625549">
        <ele>50</ele>
        <time>2018-02-18T10:00:39Z</time>
      </trkpt>
      <trkpt lat="51.689530033618212" lon="0.625269021838903">
        <ele>50</ele>
        <time>2018-02-18T10:00:40Z</time>
      </trkpt>
      <trkpt lat="51.689508995041251" lon="0.625300034880638">
        <ele>50</ele>
        <time>2018-02-18T10:00:41Z</time>
      </trkpt>
      <trkpt lat="51.689488040283322" lon="0.625332975760102">
        <ele>50</ele>
        <time>2018-02-18T10:00:42Z</time>
      </trkpt>
      <trkpt lat="51.689467001706362" lon="0.625361977145076">
        <ele>50</ele>
        <time>2018-02-18T10:00:43Z</time>
      </trkpt>
      <trkpt lat="51.689444035291672" lon="0.625390978530049">
        <ele>50</ele>
        <time>2018-02-18T10:00:44Z</time>
      </trkpt>
      <trkpt lat="51.689419979229569" lon="0.625421991571784">
        <ele>50</ele>
        <time>2018-02-18T10:00:45Z</time>
      </trkpt>
      <trkpt lat="51.689397012814879" lon="0.625449987128377">
        <ele>50</ele>
        <time>2018-02-18T10:00:46Z</time>
      </trkpt>
      <trkpt lat="51.689372034743428" lon="0.625481000170112">
        <ele>50</ele>
        <time>2018-02-18T10:00:47Z</time>
      </trkpt>
      <trkpt lat="51.689353007823229" lon="0.625514024868608">
        <ele>50</ele>
        <time>2018-02-18T10:00:48Z</time>
      </trkpt>
      <trkpt lat="51.689335992559791" lon="0.625540008768439">
        <ele>50</ele>
        <time>2018-02-18T10:00:49Z</time>
      </trkpt>
      <trkpt lat="51.689315959811211" lon="0.625566998496652">
        <ele>50</ele>
        <time>2018-02-18T10:00:50Z</time>
      </trkpt>
      <trkpt lat="51.689296010881662" lon="0.625592982396483">
        <ele>50</ele>
        <time>2018-02-18T10:00:51Z</time>
      </trkpt>
      <trkpt lat="51.689276983961463" lon="0.625617960467935">
        <ele>50</ele>
        <time>2018-02-18T10:00:52Z</time>
      </trkpt>
      <trkpt lat="51.689258962869644" lon="0.625646961852908">
        <ele>50</ele>
        <time>2018-02-18T10:00:53Z</time>
      </trkpt>
      <trkpt lat="51.689240019768476" lon="0.625674035400152">
        <ele>50</ele>
        <time>2018-02-18T10:00:54Z</time>
      </trkpt>
      <trkpt lat="51.689221998676658" lon="0.625697001814842">
        <ele>50</ele>
        <time>2018-02-18T10:00:55Z</time>
      </trkpt>
      <trkpt lat="51.689200960099697" lon="0.625723991543055">
        <ele>50</ele>
        <time>2018-02-18T10:00:56Z</time>
      </trkpt>
      <trkpt lat="51.689176987856627" lon="0.625750981271267">
        <ele>50</ele>
        <time>2018-02-18T10:00:57Z</time>
      </trkpt>
      <trkpt lat="51.689157960936427" lon="0.62577998265624">
        <ele>50.941741540220498</ele>
        <time>2018-02-18T10:00:58Z</time>
      </trkpt>
      <trkpt lat="51.689136000350118" lon="0.625812001526356">
        <ele>51</ele>
        <time>2018-02-18T10:00:59Z</time>
      </trkpt>
      <trkpt lat="51.689115967601538" lon="0.62584301456809">
        <ele>51</ele>
        <time>2018-02-18T10:01:00Z</time>
      </trkpt>
      <trkpt lat="51.689093001186848" lon="0.625870004296303">
        <ele>51</ele>
        <time>2018-02-18T10:01:01Z</time>
      </trkpt>
      <trkpt lat="51.689072968438268" lon="0.625899005681276">
        <ele>50.109589521488303</ele>
        <time>2018-02-18T10:01:02Z</time>
      </trkpt>
      <trkpt lat="51.689052013680339" lon="0.62592901289463">
        <ele>50</ele>
        <time>2018-02-18T10:01:03Z</time>
      </trkpt>
      <trkpt lat="51.689029969274998" lon="0.625954996794462">
        <ele>50</ele>
        <time>2018-02-18T10:01:04Z</time>
      </trkpt>
      <trkpt lat="51.689007002860308" lon="0.625980980694294">
        <ele>50</ele>
        <time>2018-02-18T10:01:05Z</time>
      </trkpt>
      <trkpt lat="51.688987975940108" lon="0.626005036756396">
        <ele>50</ele>
        <time>2018-02-18T10:01:06Z</time>
      </trkpt>
      <trkpt lat="51.688969032838941" lon="0.626029008999467">
        <ele>50</ele>
        <time>2018-02-18T10:01:07Z</time>
      </trkpt>
      <trkpt lat="51.688949000090361" lon="0.626055998727679">
        <ele>50</ele>
        <time>2018-02-18T10:01:08Z</time>
      </trkpt>
      <trkpt lat="51.688930978998542" lon="0.626086005941033">
        <ele>50</ele>
        <time>2018-02-18T10:01:09Z</time>
      </trkpt>
      <trkpt lat="51.688911030068994" lon="0.626114001497626">
        <ele>50</ele>
        <time>2018-02-18T10:01:10Z</time>
      </trkpt>
      <trkpt lat="51.688890997320414" lon="0.626140991225839">
        <ele>50</ele>
        <time>2018-02-18T10:01:11Z</time>
      </trkpt>
      <trkpt lat="51.688869958743453" lon="0.626168986782432">
        <ele>50</ele>
        <time>2018-02-18T10:01:12Z</time>
      </trkpt>
      <trkpt lat="51.688846992328763" lon="0.626201005652547">
        <ele>50</ele>
        <time>2018-02-18T10:01:13Z</time>
      </trkpt>
      <trkpt lat="51.688822014257312" lon="0.62622900120914">
        <ele>50</ele>
        <time>2018-02-18T10:01:14Z</time>
      </trkpt>
      <trkpt lat="51.688797036185861" lon="0.626259008422494">
        <ele>50</ele>
        <time>2018-02-18T10:01:15Z</time>
      </trkpt>
      <trkpt lat="51.688770968466997" lon="0.626284992322326">
        <ele>50</ele>
        <time>2018-02-18T10:01:16Z</time>
      </trkpt>
      <trkpt lat="51.688750013709068" lon="0.62631600536406">
        <ele>50</ele>
        <time>2018-02-18T10:01:17Z</time>
      </trkpt>
      <trkpt lat="51.688727969303727" lon="0.626345006749034">
        <ele>50</ele>
        <time>2018-02-18T10:01:18Z</time>
      </trkpt>
      <trkpt lat="51.688703997060657" lon="0.626375013962388">
        <ele>50</ele>
        <time>2018-02-18T10:01:19Z</time>
      </trkpt>
      <trkpt lat="51.688682958483696" lon="0.626397980377078">
        <ele>50</ele>
        <time>2018-02-18T10:01:20Z</time>
      </trkpt>
      <trkpt lat="51.688664015382528" lon="0.626422958448529">
        <ele>50</ele>
        <time>2018-02-18T10:01:21Z</time>
      </trkpt>
      <trkpt lat="51.688648005947471" lon="0.626449026167393">
        <ele>50</ele>
        <time>2018-02-18T10:01:22Z</time>
      </trkpt>
      <trkpt lat="51.688628979027271" lon="0.626479033380747">
        <ele>50</ele>
        <time>2018-02-18T10:01:23Z</time>
      </trkpt>
      <trkpt lat="51.688609030097723" lon="0.62650996260345">
        <ele>50</ele>
        <time>2018-02-18T10:01:24Z</time>
      </trkpt>
      <trkpt lat="51.688588997349143" lon="0.626542987301946">
        <ele>50</ele>
        <time>2018-02-18T10:01:25Z</time>
      </trkpt>
      <trkpt lat="51.688567036762834" lon="0.6265729945153">
        <ele>50</ele>
        <time>2018-02-18T10:01:26Z</time>
      </trkpt>
      <trkpt lat="51.688547004014254" lon="0.626604007557034">
        <ele>50</ele>
        <time>2018-02-18T10:01:27Z</time>
      </trkpt>
      <trkpt lat="51.688524037599564" lon="0.626635020598769">
        <ele>50</ele>
        <time>2018-02-18T10:01:28Z</time>
      </trkpt>
      <trkpt lat="51.688502999022603" lon="0.626667961478233">
        <ele>50</ele>
        <time>2018-02-18T10:01:29Z</time>
      </trkpt>
      <trkpt lat="51.688484977930784" lon="0.626700986176729">
        <ele>50.939994368072099</ele>
        <time>2018-02-18T10:01:30Z</time>
      </trkpt>
      <trkpt lat="51.688468968495727" lon="0.626734010875225">
        <ele>51</ele>
        <time>2018-02-18T10:01:31Z</time>
      </trkpt>
      <trkpt lat="51.688447007909417" lon="0.62676602974534">
        <ele>51</ele>
        <time>2018-02-18T10:01:32Z</time>
      </trkpt>
      <trkpt lat="51.688428986817598" lon="0.626796036958694">
        <ele>51</ele>
        <time>2018-02-18T10:01:33Z</time>
      </trkpt>
      <trkpt lat="51.68841197155416" lon="0.626829983666539">
        <ele>51</ele>
        <time>2018-02-18T10:01:34Z</time>
      </trkpt>
      <trkpt lat="51.68838900513947" lon="0.626866025850177">
        <ele>51</ele>
        <time>2018-02-18T10:01:35Z</time>
      </trkpt>
      <trkpt lat="51.688371989876032" lon="0.626902990043163">
        <ele>51</ele>
        <time>2018-02-18T10:01:36Z</time>
      </trkpt>
      <trkpt lat="51.688348017632961" lon="0.626939032226801">
        <ele>51</ele>
        <time>2018-02-18T10:01:37Z</time>
      </trkpt>
      <trkpt lat="51.68832597322762" lon="0.626974990591407">
        <ele>51</ele>
        <time>2018-02-18T10:01:38Z</time>
      </trkpt>
      <trkpt lat="51.688309963792562" lon="0.627009021118283">
        <ele>51</ele>
        <time>2018-02-18T10:01:39Z</time>
      </trkpt>
      <trkpt lat="51.688291020691395" lon="0.62704598531127">
        <ele>50.106666211557503</ele>
        <time>2018-02-18T10:01:40Z</time>
      </trkpt>
      <trkpt lat="51.688275011256337" lon="0.627083033323288">
        <ele>50</ele>
        <time>2018-02-18T10:01:41Z</time>
      </trkpt>
      <trkpt lat="51.688255984336138" lon="0.627117985859513">
        <ele>50</ele>
        <time>2018-02-18T10:01:42Z</time>
      </trkpt>
      <trkpt lat="51.688237963244319" lon="0.62715201638639">
        <ele>50</ele>
        <time>2018-02-18T10:01:43Z</time>
      </trkpt>
      <trkpt lat="51.688226982951164" lon="0.627185041084886">
        <ele>50</ele>
        <time>2018-02-18T10:01:44Z</time>
      </trkpt>
      <trkpt lat="51.688209967687726" lon="0.62721898779273">
        <ele>50</ele>
        <time>2018-02-18T10:01:45Z</time>
      </trkpt>
      <trkpt lat="51.68819303624332" lon="0.627254024147987">
        <ele>50</ele>
        <time>2018-02-18T10:01:46Z</time>
      </trkpt>
      <trkpt lat="51.68817400932312" lon="0.627292999997735">
        <ele>50</ele>
        <time>2018-02-18T10:01:47Z</time>
      </trkpt>
      <trkpt lat="51.68815297074616" lon="0.627329964190722">
        <ele>50</ele>
        <time>2018-02-18T10:01:48Z</time>
      </trkpt>
      <trkpt lat="51.688134027644992" lon="0.627363994717598">
        <ele>50</ele>
        <time>2018-02-18T10:01:49Z</time>
      </trkpt>
      <trkpt lat="51.688115000724792" lon="0.627399031072855">
        <ele>50</ele>
        <time>2018-02-18T10:01:50Z</time>
      </trkpt>
      <trkpt lat="51.688091028481722" lon="0.627434989437461">
        <ele>50</ele>
        <time>2018-02-18T10:01:51Z</time>
      </trkpt>
      <trkpt lat="51.688069989904761" lon="0.627468014135957">
        <ele>50</ele>
        <time>2018-02-18T10:01:52Z</time>
      </trkpt>
      <trkpt lat="51.688049035146832" lon="0.627501960843802">
        <ele>50</ele>
        <time>2018-02-18T10:01:53Z</time>
      </trkpt>
      <trkpt lat="51.688029002398252" lon="0.627533979713917">
        <ele>50</ele>
        <time>2018-02-18T10:01:54Z</time>
      </trkpt>
      <trkpt lat="51.688007963821292" lon="0.627568010240793">
        <ele>50</ele>
        <time>2018-02-18T10:01:55Z</time>
      </trkpt>
      <trkpt lat="51.687986003234982" lon="0.627597011625767">
        <ele>50</ele>
        <time>2018-02-18T10:01:56Z</time>
      </trkpt>
      <trkpt lat="51.687963958829641" lon="0.627633975818753">
        <ele>50</ele>
        <time>2018-02-18T10:01:57Z</time>
      </trkpt>
      <trkpt lat="51.687948033213615" lon="0.627671023830771">
        <ele>50</ele>
        <time>2018-02-18T10:01:58Z</time>
      </trkpt>
      <trkpt lat="51.687930012121797" lon="0.627706982195377">
        <ele>50</ele>
        <time>2018-02-18T10:01:59Z</time>
      </trkpt>
      <trkpt lat="51.687912996858358" lon="0.627739001065493">
        <ele>50</ele>
        <time>2018-02-18T10:02:00Z</time>
      </trkpt>
      <trkpt lat="51.687900004908442" lon="0.627774959430099">
        <ele>49.969996799999997</ele>
        <time>2018-02-18T10:02:01Z</time>
      </trkpt>
      <trkpt lat="51.687849964946508" lon="0.62790303491056">
        <ele>50</ele>
        <time>2018-02-18T10:02:05Z</time>
      </trkpt>
      <trkpt lat="51.687802020460367" lon="0.62801199965179">
        <ele>50</ele>
        <time>2018-02-18T10:02:08Z</time>
      </trkpt>
      <trkpt lat="51.687757009640336" lon="0.62811803072691">
        <ele>50</ele>
        <time>2018-02-18T10:02:11Z</time>
      </trkpt>
      <trkpt lat="51.687742006033659" lon="0.628152983263135">
        <ele>50</ele>
        <time>2018-02-18T10:02:12Z</time>
      </trkpt>
      <trkpt lat="51.687664976343513" lon="0.628295978531241">
        <ele>50</ele>
        <time>2018-02-18T10:02:16Z</time>
      </trkpt>
      <trkpt lat="51.687573026865721" lon="0.628418019041419">
        <ele>50</ele>
        <time>2018-02-18T10:02:20Z</time>
      </trkpt>
      <trkpt lat="51.687501026317477" lon="0.62854902818799">
        <ele>50</ele>
        <time>2018-02-18T10:02:24Z</time>
      </trkpt>
      <trkpt lat="51.687473030760884" lon="0.628641983494163">
        <ele>50</ele>
        <time>2018-02-18T10:02:27Z</time>
      </trkpt>
      <trkpt lat="51.687463978305459" lon="0.628683976829052">
        <ele>50</ele>
        <time>2018-02-18T10:02:29Z</time>
      </trkpt>
      <trkpt lat="51.68744302354753" lon="0.628735022619367">
        <ele>50</ele>
        <time>2018-02-18T10:02:32Z</time>
      </trkpt>
      <trkpt lat="51.687446041032672" lon="0.628769975155592">
        <ele>50</ele>
        <time>2018-02-18T10:02:36Z</time>
      </trkpt>
      <trkpt lat="51.687459032982588" lon="0.628795959055424">
        <ele>50</ele>
        <time>2018-02-18T10:02:38Z</time>
      </trkpt>
      <trkpt lat="51.687477976083755" lon="0.628832001239061">
        <ele>50</ele>
        <time>2018-02-18T10:02:40Z</time>
      </trkpt>
      <trkpt lat="51.687489040195942" lon="0.628867959603667">
        <ele>50</ele>
        <time>2018-02-18T10:02:42Z</time>
      </trkpt>
      <trkpt lat="51.687503037974238" lon="0.628905007615685">
        <ele>50</ele>
        <time>2018-02-18T10:02:44Z</time>
      </trkpt>
      <trkpt lat="51.687515024095774" lon="0.628934009000659">
        <ele>50</ele>
        <time>2018-02-18T10:02:46Z</time>
      </trkpt>
      <trkpt lat="51.687522986903787" lon="0.628968039527535">
        <ele>50</ele>
        <time>2018-02-18T10:02:48Z</time>
      </trkpt>
      <trkpt lat="51.687540002167225" lon="0.628993017598987">
        <ele>50</ele>
        <time>2018-02-18T10:02:50Z</time>
      </trkpt>
      <trkpt lat="51.687579983845353" lon="0.629038028419018">
        <ele>50</ele>
        <time>2018-02-18T10:02:54Z</time>
      </trkpt>
      <trkpt lat="51.687599010765553" lon="0.629080021753907">
        <ele>50</ele>
        <time>2018-02-18T10:02:56Z</time>
      </trkpt>
      <trkpt lat="51.687604039907455" lon="0.629121009260416">
        <ele>50</ele>
        <time>2018-02-18T10:02:58Z</time>
      </trkpt>
      <trkpt lat="51.687610996887088" lon="0.629147998988628">
        <ele>49</ele>
        <time>2018-02-18T10:03:07Z</time>
      </trkpt>
      <trkpt lat="51.687633041292429" lon="0.629199966788292">
        <ele>49</ele>
        <time>2018-02-18T10:03:09Z</time>
      </trkpt>
      <trkpt lat="51.687641004100442" lon="0.62923600897193">
        <ele>49.920000000000002</ele>
        <time>2018-02-18T10:03:10Z</time>
      </trkpt>
      <trkpt lat="51.687649972736835" lon="0.629271967336535">
        <ele>50</ele>
        <time>2018-02-18T10:03:11Z</time>
      </trkpt>
      <trkpt lat="51.687662964686751" lon="0.629309015348554">
        <ele>50</ele>
        <time>2018-02-18T10:03:12Z</time>
      </trkpt>
      <trkpt lat="51.687677968293428" lon="0.62934497371316">
        <ele>50</ele>
        <time>2018-02-18T10:03:13Z</time>
      </trkpt>
      <trkpt lat="51.687692971900105" lon="0.629376992583275">
        <ele>50</ele>
        <time>2018-02-18T10:03:14Z</time>
      </trkpt>
      <trkpt lat="51.687710992991924" lon="0.629403982311487">
        <ele>50</ele>
        <time>2018-02-18T10:03:15Z</time>
      </trkpt>
      <trkpt lat="51.687729014083743" lon="0.62943197786808">
        <ele>50</ele>
        <time>2018-02-18T10:03:16Z</time>
      </trkpt>
      <trkpt lat="51.687746029347181" lon="0.629457039758563">
        <ele>50</ele>
        <time>2018-02-18T10:03:17Z</time>
      </trkpt>
      <trkpt lat="51.687759021297097" lon="0.629477994516492">
        <ele>50</ele>
        <time>2018-02-18T10:03:18Z</time>
      </trkpt>
      <trkpt lat="51.687776036560535" lon="0.629526022821665">
        <ele>50</ele>
        <time>2018-02-18T10:03:20Z</time>
      </trkpt>
      <trkpt lat="51.687789028510451" lon="0.629555024206638">
        <ele>50</ele>
        <time>2018-02-18T10:03:21Z</time>
      </trkpt>
      <trkpt lat="51.687800008803606" lon="0.629586959257722">
        <ele>50</ele>
        <time>2018-02-18T10:03:22Z</time>
      </trkpt>
      <trkpt lat="51.687813000753522" lon="0.629620989784598">
        <ele>50</ele>
        <time>2018-02-18T10:03:23Z</time>
      </trkpt>
      <trkpt lat="51.687828004360199" lon="0.629659965634346">
        <ele>50</ele>
        <time>2018-02-18T10:03:24Z</time>
      </trkpt>
      <trkpt lat="51.687840996310115" lon="0.629697013646364">
        <ele>50</ele>
        <time>2018-02-18T10:03:25Z</time>
      </trkpt>
      <trkpt lat="51.687853988260031" lon="0.629733977839351">
        <ele>50</ele>
        <time>2018-02-18T10:03:26Z</time>
      </trkpt>
      <trkpt lat="51.687864968553185" lon="0.629769014194608">
        <ele>50</ele>
        <time>2018-02-18T10:03:27Z</time>
      </trkpt>
      <trkpt lat="51.687877038493752" lon="0.629804972559214">
        <ele>50</ele>
        <time>2018-02-18T10:03:28Z</time>
      </trkpt>
      <trkpt lat="51.687891958281398" lon="0.629841014742851">
        <ele>50</ele>
        <time>2018-02-18T10:03:29Z</time>
      </trkpt>
      <trkpt lat="51.687905034050345" lon="0.62988099642098">
        <ele>50</ele>
        <time>2018-02-18T10:03:30Z</time>
      </trkpt>
      <trkpt lat="51.6879160143435" lon="0.629919972270727">
        <ele>50</ele>
        <time>2018-02-18T10:03:31Z</time>
      </trkpt>
      <trkpt lat="51.687924982979894" lon="0.629955008625984">
        <ele>50</ele>
        <time>2018-02-18T10:03:32Z</time>
      </trkpt>
      <trkpt lat="51.687933029606938" lon="0.629989039152861">
        <ele>50</ele>
        <time>2018-02-18T10:03:33Z</time>
      </trkpt>
      <trkpt lat="51.687944009900093" lon="0.630021980032325">
        <ele>50</ele>
        <time>2018-02-18T10:03:34Z</time>
      </trkpt>
      <trkpt lat="51.687952978536487" lon="0.630057016387582">
        <ele>50</ele>
        <time>2018-02-18T10:03:35Z</time>
      </trkpt>
      <trkpt lat="51.687963958829641" lon="0.630091968923807">
        <ele>50</ele>
        <time>2018-02-18T10:03:36Z</time>
      </trkpt>
      <trkpt lat="51.687976028770208" lon="0.630129016935825">
        <ele>50</ele>
        <time>2018-02-18T10:03:37Z</time>
      </trkpt>
      <trkpt lat="51.687986003234982" lon="0.630166986957192">
        <ele>50</ele>
        <time>2018-02-18T10:03:38Z</time>
      </trkpt>
      <trkpt lat="51.687994971871376" lon="0.630205040797591">
        <ele>50</ele>
        <time>2018-02-18T10:03:39Z</time>
      </trkpt>
      <trkpt lat="51.688000001013279" lon="0.630245022475719">
        <ele>50</ele>
        <time>2018-02-18T10:03:40Z</time>
      </trkpt>
      <trkpt lat="51.688007041811943" lon="0.630280980840325">
        <ele>50</ele>
        <time>2018-02-18T10:03:41Z</time>
      </trkpt>
      <trkpt lat="51.688015004619956" lon="0.630318028852344">
        <ele>50</ele>
        <time>2018-02-18T10:03:42Z</time>
      </trkpt>
      <trkpt lat="51.68802397325635" lon="0.630357004702091">
        <ele>50</ele>
        <time>2018-02-18T10:03:43Z</time>
      </trkpt>
      <trkpt lat="51.688034031540155" lon="0.630392041057348">
        <ele>50</ele>
        <time>2018-02-18T10:03:44Z</time>
      </trkpt>
      <trkpt lat="51.688046017661691" lon="0.630429005250335">
        <ele>50</ele>
        <time>2018-02-18T10:03:45Z</time>
      </trkpt>
      <trkpt lat="51.688059009611607" lon="0.630460018292069">
        <ele>50</ele>
        <time>2018-02-18T10:03:46Z</time>
      </trkpt>
      <trkpt lat="51.688068984076381" lon="0.630492037162185">
        <ele>50</ele>
        <time>2018-02-18T10:03:47Z</time>
      </trkpt>
      <trkpt lat="51.688079964369535" lon="0.630524978041649">
        <ele>50</ele>
        <time>2018-02-18T10:03:48Z</time>
      </trkpt>
      <trkpt lat="51.688089016824961" lon="0.630556996911764">
        <ele>50</ele>
        <time>2018-02-18T10:03:49Z</time>
      </trkpt>
      <trkpt lat="51.688096979632974" lon="0.630589015781879">
        <ele>50</ele>
        <time>2018-02-18T10:03:50Z</time>
      </trkpt>
      <trkpt lat="51.688107959926128" lon="0.630617011338472">
        <ele>50</ele>
        <time>2018-02-18T10:03:51Z</time>
      </trkpt>
      <trkpt lat="51.68810997158289" lon="0.630648024380207">
        <ele>50</ele>
        <time>2018-02-18T10:03:52Z</time>
      </trkpt>
      <trkpt lat="51.688111983239651" lon="0.630681971088052">
        <ele>50</ele>
        <time>2018-02-18T10:03:53Z</time>
      </trkpt>
      <trkpt lat="51.688119024038315" lon="0.630714995786548">
        <ele>50</ele>
        <time>2018-02-18T10:03:54Z</time>
      </trkpt>
      <trkpt lat="51.688128998503089" lon="0.630751959979534">
        <ele>50</ele>
        <time>2018-02-18T10:03:55Z</time>
      </trkpt>
      <trkpt lat="51.688137967139482" lon="0.63078498467803">
        <ele>50</ele>
        <time>2018-02-18T10:03:56Z</time>
      </trkpt>
      <trkpt lat="51.688146013766527" lon="0.630820021033287">
        <ele>50</ele>
        <time>2018-02-18T10:03:57Z</time>
      </trkpt>
      <trkpt lat="51.688156994059682" lon="0.630853967741132">
        <ele>50</ele>
        <time>2018-02-18T10:03:58Z</time>
      </trkpt>
      <trkpt lat="51.688167974352837" lon="0.630884980782866">
        <ele>50</ele>
        <time>2018-02-18T10:03:59Z</time>
      </trkpt>
      <trkpt lat="51.688179038465023" lon="0.630920017138124">
        <ele>50</ele>
        <time>2018-02-18T10:04:00Z</time>
      </trkpt>
      <trkpt lat="51.68819303624332" lon="0.630955975502729">
        <ele>50</ele>
        <time>2018-02-18T10:04:01Z</time>
      </trkpt>
      <trkpt lat="51.688205022364855" lon="0.630994029343128">
        <ele>50</ele>
        <time>2018-02-18T10:04:02Z</time>
      </trkpt>
      <trkpt lat="51.68821700848639" lon="0.631030993536115">
        <ele>50</ele>
        <time>2018-02-18T10:04:03Z</time>
      </trkpt>
      <trkpt lat="51.688230000436306" lon="0.631068963557482">
        <ele>50</ele>
        <time>2018-02-18T10:04:04Z</time>
      </trkpt>
      <trkpt lat="51.688243998214602" lon="0.631110034883022">
        <ele>50</ele>
        <time>2018-02-18T10:04:05Z</time>
      </trkpt>
      <trkpt lat="51.688252966850996" lon="0.63114901073277">
        <ele>50</ele>
        <time>2018-02-18T10:04:06Z</time>
      </trkpt>
      <trkpt lat="51.688263025134802" lon="0.631191004067659">
        <ele>50</ele>
        <time>2018-02-18T10:04:07Z</time>
      </trkpt>
      <trkpt lat="51.688272999599576" lon="0.631232997402549">
        <ele>50</ele>
        <time>2018-02-18T10:04:08Z</time>
      </trkpt>
      <trkpt lat="51.68828004039824" lon="0.631271973252296">
        <ele>50</ele>
        <time>2018-02-18T10:04:09Z</time>
      </trkpt>
      <trkpt lat="51.688291020691395" lon="0.631312960758805">
        <ele>50</ele>
        <time>2018-02-18T10:04:10Z</time>
      </trkpt>
      <trkpt lat="51.68830200098455" lon="0.631349002942443">
        <ele>50</ele>
        <time>2018-02-18T10:04:11Z</time>
      </trkpt>
      <trkpt lat="51.688310969620943" lon="0.631384961307049">
        <ele>50</ele>
        <time>2018-02-18T10:04:12Z</time>
      </trkpt>
      <trkpt lat="51.68832203373313" lon="0.631418991833925">
        <ele>50</ele>
        <time>2018-02-18T10:04:13Z</time>
      </trkpt>
      <trkpt lat="51.688332008197904" lon="0.631456039845943">
        <ele>50</ele>
        <time>2018-02-18T10:04:14Z</time>
      </trkpt>
      <trkpt lat="51.688339971005917" lon="0.631489986553788">
        <ele>50</ele>
        <time>2018-02-18T10:04:15Z</time>
      </trkpt>
      <trkpt lat="51.6883460059762" lon="0.631520999595523">
        <ele>50</ele>
        <time>2018-02-18T10:04:16Z</time>
      </trkpt>
      <trkpt lat="51.688355980440974" lon="0.631553018465638">
        <ele>50</ele>
        <time>2018-02-18T10:04:17Z</time>
      </trkpt>
      <trkpt lat="51.688364027068019" lon="0.631583025678992">
        <ele>50</ele>
        <time>2018-02-18T10:04:18Z</time>
      </trkpt>
      <trkpt lat="51.688375007361174" lon="0.631615966558456">
        <ele>50</ele>
        <time>2018-02-18T10:04:19Z</time>
      </trkpt>
      <trkpt lat="51.68838799931109" lon="0.631649997085333">
        <ele>50</ele>
        <time>2018-02-18T10:04:20Z</time>
      </trkpt>
      <trkpt lat="51.688400991261005" lon="0.6316879671067">
        <ele>50</ele>
        <time>2018-02-18T10:04:21Z</time>
      </trkpt>
      <trkpt lat="51.688417000696063" lon="0.631723003461957">
        <ele>50</ele>
        <time>2018-02-18T10:04:22Z</time>
      </trkpt>
      <trkpt lat="51.688428986817598" lon="0.631761979311705">
        <ele>50</ele>
        <time>2018-02-18T10:04:23Z</time>
      </trkpt>
      <trkpt lat="51.688438039273024" lon="0.631804978474975">
        <ele>50</ele>
        <time>2018-02-18T10:04:24Z</time>
      </trkpt>
      <trkpt lat="51.688450025394559" lon="0.631844038143754">
        <ele>50</ele>
        <time>2018-02-18T10:04:25Z</time>
      </trkpt>
      <trkpt lat="51.688462011516094" lon="0.631882008165121">
        <ele>50</ele>
        <time>2018-02-18T10:04:26Z</time>
      </trkpt>
      <trkpt lat="51.688472991809249" lon="0.631918972358108">
        <ele>50</ele>
        <time>2018-02-18T10:04:27Z</time>
      </trkpt>
      <trkpt lat="51.688484977930784" lon="0.631959959864616">
        <ele>50</ele>
        <time>2018-02-18T10:04:28Z</time>
      </trkpt>
      <trkpt lat="51.688495958223939" lon="0.632000025361776">
        <ele>50</ele>
        <time>2018-02-18T10:04:29Z</time>
      </trkpt>
      <trkpt lat="51.688504004850984" lon="0.632032966241241">
        <ele>50</ele>
        <time>2018-02-18T10:04:30Z</time>
      </trkpt>
      <trkpt lat="51.688510961830616" lon="0.632069008424878">
        <ele>50</ele>
        <time>2018-02-18T10:04:31Z</time>
      </trkpt>
      <trkpt lat="51.688523031771183" lon="0.632104966789484">
        <ele>50</ele>
        <time>2018-02-18T10:04:32Z</time>
      </trkpt>
      <trkpt lat="51.688535017892718" lon="0.632144026458263">
        <ele>50</ele>
        <time>2018-02-18T10:04:33Z</time>
      </trkpt>
      <trkpt lat="51.688545998185873" lon="0.632179984822869">
        <ele>50</ele>
        <time>2018-02-18T10:04:34Z</time>
      </trkpt>
      <trkpt lat="51.688556978479028" lon="0.632217032834888">
        <ele>50</ele>
        <time>2018-02-18T10:04:35Z</time>
      </trkpt>
      <trkpt lat="51.688568964600563" lon="0.632253997027874">
        <ele>50</ele>
        <time>2018-02-18T10:04:36Z</time>
      </trkpt>
      <trkpt lat="51.688578017055988" lon="0.632290039211512">
        <ele>50</ele>
        <time>2018-02-18T10:04:37Z</time>
      </trkpt>
      <trkpt lat="51.688591009005904" lon="0.632328009232879">
        <ele>50</ele>
        <time>2018-02-18T10:04:38Z</time>
      </trkpt>
      <trkpt lat="51.688602995127439" lon="0.632364973425865">
        <ele>50</ele>
        <time>2018-02-18T10:04:39Z</time>
      </trkpt>
      <trkpt lat="51.688612969592214" lon="0.632404033094645">
        <ele>50</ele>
        <time>2018-02-18T10:04:40Z</time>
      </trkpt>
      <trkpt lat="51.688623027876019" lon="0.63243898563087">
        <ele>50</ele>
        <time>2018-02-18T10:04:41Z</time>
      </trkpt>
      <trkpt lat="51.688633002340794" lon="0.632475027814507">
        <ele>50</ele>
        <time>2018-02-18T10:04:42Z</time>
      </trkpt>
      <trkpt lat="51.688641970977187" lon="0.632510986179113">
        <ele>50</ele>
        <time>2018-02-18T10:04:43Z</time>
      </trkpt>
      <trkpt lat="51.688650017604232" lon="0.632547028362751">
        <ele>50</ele>
        <time>2018-02-18T10:04:44Z</time>
      </trkpt>
      <trkpt lat="51.688659992069006" lon="0.632583992555738">
        <ele>50</ele>
        <time>2018-02-18T10:04:45Z</time>
      </trkpt>
      <trkpt lat="51.68866996653378" lon="0.632618023082614">
        <ele>50</ele>
        <time>2018-02-18T10:04:46Z</time>
      </trkpt>
      <trkpt lat="51.688676001504064" lon="0.632650963962078">
        <ele>50</ele>
        <time>2018-02-18T10:04:47Z</time>
      </trkpt>
      <trkpt lat="51.688683964312077" lon="0.632682982832193">
        <ele>50</ele>
        <time>2018-02-18T10:04:48Z</time>
      </trkpt>
      <trkpt lat="51.688693016767502" lon="0.632720030844212">
        <ele>50</ele>
        <time>2018-02-18T10:04:49Z</time>
      </trkpt>
      <trkpt lat="51.688702991232276" lon="0.632755989208817">
        <ele>50</ele>
        <time>2018-02-18T10:04:50Z</time>
      </trkpt>
      <trkpt lat="51.688726963475347" lon="0.632833018898964">
        <ele>50</ele>
        <time>2018-02-18T10:04:52Z</time>
      </trkpt>
      <trkpt lat="51.688736015930772" lon="0.632866965606809">
        <ele>50</ele>
        <time>2018-02-18T10:04:53Z</time>
      </trkpt>
      <trkpt lat="51.688742972910404" lon="0.632902001962066">
        <ele>50</ele>
        <time>2018-02-18T10:04:54Z</time>
      </trkpt>
      <trkpt lat="51.688750013709068" lon="0.632939971983433">
        <ele>50</ele>
        <time>2018-02-18T10:04:55Z</time>
      </trkpt>
      <trkpt lat="51.688757976517081" lon="0.63297601416707">
        <ele>50</ele>
        <time>2018-02-18T10:04:56Z</time>
      </trkpt>
      <trkpt lat="51.688769962638617" lon="0.633013984188437">
        <ele>50</ele>
        <time>2018-02-18T10:04:57Z</time>
      </trkpt>
      <trkpt lat="51.688780020922422" lon="0.633048014715314">
        <ele>50</ele>
        <time>2018-02-18T10:04:58Z</time>
      </trkpt>
      <trkpt lat="51.688789995387197" lon="0.633082967251539">
        <ele>50</ele>
        <time>2018-02-18T10:04:59Z</time>
      </trkpt>
      <trkpt lat="51.688797036185861" lon="0.633114986121655">
        <ele>50</ele>
        <time>2018-02-18T10:05:00Z</time>
      </trkpt>
      <trkpt lat="51.688806004822254" lon="0.63314700499177">
        <ele>50</ele>
        <time>2018-02-18T10:05:02Z</time>
      </trkpt>
      <trkpt lat="51.688809022307396" lon="0.633175000548363">
        <ele>50</ele>
        <time>2018-02-18T10:05:04Z</time>
      </trkpt>
      <trkpt lat="51.688810028135777" lon="0.633206013590097">
        <ele>50</ele>
        <time>2018-02-18T10:05:06Z</time>
      </trkpt>
      <trkpt lat="51.688811033964157" lon="0.633239038288593">
        <ele>50</ele>
        <time>2018-02-18T10:05:08Z</time>
      </trkpt>
      <trkpt lat="51.688813967630267" lon="0.633269967511296">
        <ele>50</ele>
        <time>2018-02-18T10:05:13Z</time>
      </trkpt>
      <trkpt lat="51.688824025914073" lon="0.63329603523016">
        <ele>49.955359999999999</ele>
        <time>2018-02-18T10:05:15Z</time>
      </trkpt>
      <trkpt lat="51.688838023692369" lon="0.633335011079907">
        <ele>49</ele>
        <time>2018-02-18T10:05:17Z</time>
      </trkpt>
      <trkpt lat="51.688843974843621" lon="0.633360994979739">
        <ele>49</ele>
        <time>2018-02-18T10:05:18Z</time>
      </trkpt>
      <trkpt lat="51.688855038955808" lon="0.633392008021474">
        <ele>49</ele>
        <time>2018-02-18T10:05:19Z</time>
      </trkpt>
      <trkpt lat="51.688869036734104" lon="0.633415980264544">
        <ele>49</ele>
        <time>2018-02-18T10:05:20Z</time>
      </trkpt>
      <trkpt lat="51.688887979835272" lon="0.633440036326647">
        <ele>49.929996799999998</ele>
        <time>2018-02-18T10:05:21Z</time>
      </trkpt>
      <trkpt lat="51.688903989270329" lon="0.63347197137773">
        <ele>50</ele>
        <time>2018-02-18T10:05:22Z</time>
      </trkpt>
      <trkpt lat="51.688916981220245" lon="0.633504996076226">
        <ele>50</ele>
        <time>2018-02-18T10:05:23Z</time>
      </trkpt>
      <trkpt lat="51.688931984826922" lon="0.633541038259864">
        <ele>50</ele>
        <time>2018-02-18T10:05:24Z</time>
      </trkpt>
      <trkpt lat="51.688942965120077" lon="0.633575990796089">
        <ele>50</ele>
        <time>2018-02-18T10:05:25Z</time>
      </trkpt>
      <trkpt lat="51.688956040889025" lon="0.633613038808107">
        <ele>50</ele>
        <time>2018-02-18T10:05:26Z</time>
      </trkpt>
      <trkpt lat="51.68896802701056" lon="0.633648997172713">
        <ele>50</ele>
        <time>2018-02-18T10:05:27Z</time>
      </trkpt>
      <trkpt lat="51.688980013132095" lon="0.633681016042829">
        <ele>50</ele>
        <time>2018-02-18T10:05:28Z</time>
      </trkpt>
      <trkpt lat="51.688991999253631" lon="0.633713034912944">
        <ele>50</ele>
        <time>2018-02-18T10:05:29Z</time>
      </trkpt>
      <trkpt lat="51.689004991203547" lon="0.633746981620789">
        <ele>50</ele>
        <time>2018-02-18T10:05:30Z</time>
      </trkpt>
      <trkpt lat="51.689013037830591" lon="0.633779000490904">
        <ele>50</ele>
        <time>2018-02-18T10:05:31Z</time>
      </trkpt>
      <trkpt lat="51.689022006466985" lon="0.6338120251894">
        <ele>50</ele>
        <time>2018-02-18T10:05:32Z</time>
      </trkpt>
      <trkpt lat="51.689034998416901" lon="0.633845971897244">
        <ele>50</ele>
        <time>2018-02-18T10:05:33Z</time>
      </trkpt>
      <trkpt lat="51.689047990366817" lon="0.633881008252501">
        <ele>50</ele>
        <time>2018-02-18T10:05:34Z</time>
      </trkpt>
      <trkpt lat="51.689059976488352" lon="0.633914032950997">
        <ele>50</ele>
        <time>2018-02-18T10:05:35Z</time>
      </trkpt>
      <trkpt lat="51.689074980095029" lon="0.633948985487223">
        <ele>50</ele>
        <time>2018-02-18T10:05:36Z</time>
      </trkpt>
      <trkpt lat="51.689086966216564" lon="0.633983016014099">
        <ele>50</ele>
        <time>2018-02-18T10:05:37Z</time>
      </trkpt>
      <trkpt lat="51.689096018671989" lon="0.634017968550324">
        <ele>50</ele>
        <time>2018-02-18T10:05:38Z</time>
      </trkpt>
      <trkpt lat="51.689108004793525" lon="0.634056022390723">
        <ele>50</ele>
        <time>2018-02-18T10:05:39Z</time>
      </trkpt>
      <trkpt lat="51.689117979258299" lon="0.634090974926949">
        <ele>50</ele>
        <time>2018-02-18T10:05:40Z</time>
      </trkpt>
      <trkpt lat="51.689129965379834" lon="0.634129028767347">
        <ele>50</ele>
        <time>2018-02-18T10:05:41Z</time>
      </trkpt>
      <trkpt lat="51.689141029492021" lon="0.634163981303573">
        <ele>50</ele>
        <time>2018-02-18T10:05:42Z</time>
      </trkpt>
      <trkpt lat="51.689153015613556" lon="0.63419901765883">
        <ele>50</ele>
        <time>2018-02-18T10:05:43Z</time>
      </trkpt>
      <trkpt lat="51.689166007563472" lon="0.634233970195055">
        <ele>50</ele>
        <time>2018-02-18T10:05:44Z</time>
      </trkpt>
      <trkpt lat="51.689176987856627" lon="0.634268000721931">
        <ele>50</ele>
        <time>2018-02-18T10:05:45Z</time>
      </trkpt>
      <trkpt lat="51.689188973978162" lon="0.634303959086537">
        <ele>50</ele>
        <time>2018-02-18T10:05:46Z</time>
      </trkpt>
      <trkpt lat="51.689200038090348" lon="0.634336983785033">
        <ele>50</ele>
        <time>2018-02-18T10:05:47Z</time>
      </trkpt>
      <trkpt lat="51.689212024211884" lon="0.63437101431191">
        <ele>50</ele>
        <time>2018-02-18T10:05:48Z</time>
      </trkpt>
      <trkpt lat="51.68922602199018" lon="0.634407978504896">
        <ele>50</ele>
        <time>2018-02-18T10:05:49Z</time>
      </trkpt>
      <trkpt lat="51.689239013940096" lon="0.634441003203392">
        <ele>50</ele>
        <time>2018-02-18T10:05:50Z</time>
      </trkpt>
      <trkpt lat="51.689249994233251" lon="0.634472016245127">
        <ele>50</ele>
        <time>2018-02-18T10:05:51Z</time>
      </trkpt>
      <trkpt lat="51.689261980354786" lon="0.6345010176301">
        <ele>50</ele>
        <time>2018-02-18T10:05:52Z</time>
      </trkpt>
      <trkpt lat="51.689271032810211" lon="0.634530019015074">
        <ele>50</ele>
        <time>2018-02-18T10:05:53Z</time>
      </trkpt>
      <trkpt lat="51.689282013103366" lon="0.634562037885189">
        <ele>50</ele>
        <time>2018-02-18T10:05:54Z</time>
      </trkpt>
      <trkpt lat="51.689292993396521" lon="0.634593972936273">
        <ele>50</ele>
        <time>2018-02-18T10:05:55Z</time>
      </trkpt>
      <trkpt lat="51.689302967861295" lon="0.634624985978007">
        <ele>50</ele>
        <time>2018-02-18T10:05:56Z</time>
      </trkpt>
      <trkpt lat="51.68931202031672" lon="0.634657004848123">
        <ele>50</ele>
        <time>2018-02-18T10:05:57Z</time>
      </trkpt>
      <trkpt lat="51.689318977296352" lon="0.634687012061477">
        <ele>50</ele>
        <time>2018-02-18T10:05:58Z</time>
      </trkpt>
      <trkpt lat="51.689328029751778" lon="0.634718025103211">
        <ele>50</ele>
        <time>2018-02-18T10:05:59Z</time>
      </trkpt>
      <trkpt lat="51.689336998388171" lon="0.634748032316566">
        <ele>50</ele>
        <time>2018-02-18T10:06:00Z</time>
      </trkpt>
      <trkpt lat="51.689348984509706" lon="0.634778961539268">
        <ele>50</ele>
        <time>2018-02-18T10:06:01Z</time>
      </trkpt>
      <trkpt lat="51.689359964802861" lon="0.634810980409384">
        <ele>50</ele>
        <time>2018-02-18T10:06:02Z</time>
      </trkpt>
      <trkpt lat="51.689370023086667" lon="0.634840987622738">
        <ele>50</ele>
        <time>2018-02-18T10:06:03Z</time>
      </trkpt>
      <trkpt lat="51.689379997551441" lon="0.634870994836092">
        <ele>50</ele>
        <time>2018-02-18T10:06:04Z</time>
      </trkpt>
      <trkpt lat="51.689390977844596" lon="0.634901002049446">
        <ele>50</ele>
        <time>2018-02-18T10:06:05Z</time>
      </trkpt>
      <trkpt lat="51.689400030300021" lon="0.634928997606039">
        <ele>50</ele>
        <time>2018-02-18T10:06:06Z</time>
      </trkpt>
      <trkpt lat="51.689406987279654" lon="0.634960010647774">
        <ele>50</ele>
        <time>2018-02-18T10:06:07Z</time>
      </trkpt>
      <trkpt lat="51.689416961744428" lon="0.634992029517889">
        <ele>50</ele>
        <time>2018-02-18T10:06:08Z</time>
      </trkpt>
      <trkpt lat="51.689426014199853" lon="0.635022958740592">
        <ele>50</ele>
        <time>2018-02-18T10:06:09Z</time>
      </trkpt>
      <trkpt lat="51.689434982836246" lon="0.635056989267468">
        <ele>50</ele>
        <time>2018-02-18T10:06:10Z</time>
      </trkpt>
      <trkpt lat="51.689444035291672" lon="0.635090013965964">
        <ele>50</ele>
        <time>2018-02-18T10:06:11Z</time>
      </trkpt>
      <trkpt lat="51.689453003928065" lon="0.635121027007699">
        <ele>50</ele>
        <time>2018-02-18T10:06:12Z</time>
      </trkpt>
      <trkpt lat="51.689462978392839" lon="0.635150028392673">
        <ele>50</ele>
        <time>2018-02-18T10:06:13Z</time>
      </trkpt>
      <trkpt lat="51.689473036676645" lon="0.635180035606027">
        <ele>50</ele>
        <time>2018-02-18T10:06:14Z</time>
      </trkpt>
      <trkpt lat="51.689483011141419" lon="0.63521197065711">
        <ele>50</ele>
        <time>2018-02-18T10:06:15Z</time>
      </trkpt>
      <trkpt lat="51.689491979777813" lon="0.635241977870464">
        <ele>50</ele>
        <time>2018-02-18T10:06:16Z</time>
      </trkpt>
      <trkpt lat="51.689502960070968" lon="0.635271985083818">
        <ele>50</ele>
        <time>2018-02-18T10:06:17Z</time>
      </trkpt>
      <trkpt lat="51.689514024183154" lon="0.635305009782314">
        <ele>50</ele>
        <time>2018-02-18T10:06:18Z</time>
      </trkpt>
      <trkpt lat="51.689525004476309" lon="0.635334011167288">
        <ele>50</ele>
        <time>2018-02-18T10:06:19Z</time>
      </trkpt>
      <trkpt lat="51.689531961455941" lon="0.635362006723881">
        <ele>50</ele>
        <time>2018-02-18T10:06:20Z</time>
      </trkpt>
      <trkpt lat="51.689540008082986" lon="0.635393019765615">
        <ele>50</ele>
        <time>2018-02-18T10:06:21Z</time>
      </trkpt>
      <trkpt lat="51.689547970890999" lon="0.63542403280735">
        <ele>50</ele>
        <time>2018-02-18T10:06:22Z</time>
      </trkpt>
      <trkpt lat="51.689557023346424" lon="0.635456973686814">
        <ele>50</ele>
        <time>2018-02-18T10:06:23Z</time>
      </trkpt>
      <trkpt lat="51.689565991982818" lon="0.635484969243407">
        <ele>50</ele>
        <time>2018-02-18T10:06:24Z</time>
      </trkpt>
      <trkpt lat="51.689576972275972" lon="0.635514976456761">
        <ele>50</ele>
        <time>2018-02-18T10:06:25Z</time>
      </trkpt>
      <trkpt lat="51.689587030559778" lon="0.635544983670115">
        <ele>50</ele>
        <time>2018-02-18T10:06:26Z</time>
      </trkpt>
      <trkpt lat="51.689599016681314" lon="0.63557599671185">
        <ele>50</ele>
        <time>2018-02-18T10:06:27Z</time>
      </trkpt>
      <trkpt lat="51.689608991146088" lon="0.635610027238727">
        <ele>50</ele>
        <time>2018-02-18T10:06:28Z</time>
      </trkpt>
      <trkpt lat="51.689618965610862" lon="0.635641040280461">
        <ele>50</ele>
        <time>2018-02-18T10:06:29Z</time>
      </trkpt>
      <trkpt lat="51.689629023894668" lon="0.635671969503164">
        <ele>50</ele>
        <time>2018-02-18T10:06:30Z</time>
      </trkpt>
      <trkpt lat="51.689638998359442" lon="0.63570499420166">
        <ele>50</ele>
        <time>2018-02-18T10:06:31Z</time>
      </trkpt>
      <trkpt lat="51.689647966995835" lon="0.635735001415014">
        <ele>50</ele>
        <time>2018-02-18T10:06:32Z</time>
      </trkpt>
      <trkpt lat="51.689657019451261" lon="0.63576802611351">
        <ele>50</ele>
        <time>2018-02-18T10:06:33Z</time>
      </trkpt>
      <trkpt lat="51.689666993916035" lon="0.635799039155245">
        <ele>50</ele>
        <time>2018-02-18T10:06:34Z</time>
      </trkpt>
      <trkpt lat="51.689676968380809" lon="0.635830974206328">
        <ele>50</ele>
        <time>2018-02-18T10:06:35Z</time>
      </trkpt>
      <trkpt lat="51.689688032492995" lon="0.635862993076444">
        <ele>50</ele>
        <time>2018-02-18T10:06:36Z</time>
      </trkpt>
      <trkpt lat="51.689695995301008" lon="0.63589601777494">
        <ele>50</ele>
        <time>2018-02-18T10:06:37Z</time>
      </trkpt>
      <trkpt lat="51.689703958109021" lon="0.635928036645055">
        <ele>50</ele>
        <time>2018-02-18T10:06:38Z</time>
      </trkpt>
      <trkpt lat="51.689710998907685" lon="0.635957960039377">
        <ele>50</ele>
        <time>2018-02-18T10:06:39Z</time>
      </trkpt>
      <trkpt lat="51.689718961715698" lon="0.635987967252731">
        <ele>50</ele>
        <time>2018-02-18T10:06:40Z</time>
      </trkpt>
      <trkpt lat="51.689729019999504" lon="0.636020991951227">
        <ele>50</ele>
        <time>2018-02-18T10:06:41Z</time>
      </trkpt>
      <trkpt lat="51.68974201194942" lon="0.636050999164581">
        <ele>50</ele>
        <time>2018-02-18T10:06:42Z</time>
      </trkpt>
      <trkpt lat="51.689756009727716" lon="0.636081006377935">
        <ele>50</ele>
        <time>2018-02-18T10:06:43Z</time>
      </trkpt>
      <trkpt lat="51.689767995849252" lon="0.63611201941967">
        <ele>50</ele>
        <time>2018-02-18T10:06:44Z</time>
      </trkpt>
      <trkpt lat="51.689776964485645" lon="0.636141020804644">
        <ele>50</ele>
        <time>2018-02-18T10:06:45Z</time>
      </trkpt>
      <trkpt lat="51.689784005284309" lon="0.636172033846378">
        <ele>50</ele>
        <time>2018-02-18T10:06:46Z</time>
      </trkpt>
      <trkpt lat="51.689792973920703" lon="0.636201035231352">
        <ele>50</ele>
        <time>2018-02-18T10:06:47Z</time>
      </trkpt>
      <trkpt lat="51.689801020547748" lon="0.636232970282435">
        <ele>50</ele>
        <time>2018-02-18T10:06:48Z</time>
      </trkpt>
      <trkpt lat="51.689808983355761" lon="0.636265994980931">
        <ele>50</ele>
        <time>2018-02-18T10:06:49Z</time>
      </trkpt>
      <trkpt lat="51.689815018326044" lon="0.636293990537524">
        <ele>50</ele>
        <time>2018-02-18T10:06:50Z</time>
      </trkpt>
      <trkpt lat="51.689821975305676" lon="0.636322991922498">
        <ele>50</ele>
        <time>2018-02-18T10:06:51Z</time>
      </trkpt>
      <trkpt lat="51.689830021932721" lon="0.636351993307471">
        <ele>50</ele>
        <time>2018-02-18T10:06:52Z</time>
      </trkpt>
      <trkpt lat="51.689837984740734" lon="0.636382000520825">
        <ele>50</ele>
        <time>2018-02-18T10:06:53Z</time>
      </trkpt>
      <trkpt lat="51.689846031367779" lon="0.63641301356256">
        <ele>50</ele>
        <time>2018-02-18T10:06:54Z</time>
      </trkpt>
      <trkpt lat="51.689855000004172" lon="0.636443020775914">
        <ele>50</ele>
        <time>2018-02-18T10:06:55Z</time>
      </trkpt>
      <trkpt lat="51.689864974468946" lon="0.636474033817649">
        <ele>50</ele>
        <time>2018-02-18T10:06:56Z</time>
      </trkpt>
      <trkpt lat="51.689872015267611" lon="0.636503035202622">
        <ele>50</ele>
        <time>2018-02-18T10:06:57Z</time>
      </trkpt>
      <trkpt lat="51.689882995560765" lon="0.636532036587596">
        <ele>50</ele>
        <time>2018-02-18T10:06:58Z</time>
      </trkpt>
      <trkpt lat="51.689891964197159" lon="0.636562965810299">
        <ele>50</ele>
        <time>2018-02-18T10:06:59Z</time>
      </trkpt>
      <trkpt lat="51.689902022480965" lon="0.636593978852034">
        <ele>50</ele>
        <time>2018-02-18T10:07:00Z</time>
      </trkpt>
      <trkpt lat="51.689909985288978" lon="0.636622980237007">
        <ele>50</ele>
        <time>2018-02-18T10:07:01Z</time>
      </trkpt>
      <trkpt lat="51.689919037744403" lon="0.636654999107122">
        <ele>50</ele>
        <time>2018-02-18T10:07:02Z</time>
      </trkpt>
      <trkpt lat="51.689930018037558" lon="0.636686012148857">
        <ele>50</ele>
        <time>2018-02-18T10:07:03Z</time>
      </trkpt>
      <trkpt lat="51.689939992502332" lon="0.636718031018972">
        <ele>50</ele>
        <time>2018-02-18T10:07:04Z</time>
      </trkpt>
      <trkpt lat="51.689953990280628" lon="0.636751977726817">
        <ele>50</ele>
        <time>2018-02-18T10:07:05Z</time>
      </trkpt>
      <trkpt lat="51.689963964745402" lon="0.636780979111791">
        <ele>50</ele>
        <time>2018-02-18T10:07:06Z</time>
      </trkpt>
      <trkpt lat="51.689975028857589" lon="0.636811992153525">
        <ele>50</ele>
        <time>2018-02-18T10:07:07Z</time>
      </trkpt>
      <trkpt lat="51.689988020807505" lon="0.636839987710118">
        <ele>50</ele>
        <time>2018-02-18T10:07:08Z</time>
      </trkpt>
      <trkpt lat="51.689994977787137" lon="0.636867983266711">
        <ele>50</ele>
        <time>2018-02-18T10:07:09Z</time>
      </trkpt>
      <trkpt lat="51.690003024414182" lon="0.636898996308446">
        <ele>50</ele>
        <time>2018-02-18T10:07:10Z</time>
      </trkpt>
      <trkpt lat="51.690014004707336" lon="0.6369290035218">
        <ele>50</ele>
        <time>2018-02-18T10:07:11Z</time>
      </trkpt>
      <trkpt lat="51.690021967515349" lon="0.636961022391915">
        <ele>50</ele>
        <time>2018-02-18T10:07:12Z</time>
      </trkpt>
      <trkpt lat="51.690029008314013" lon="0.636991029605269">
        <ele>50</ele>
        <time>2018-02-18T10:07:13Z</time>
      </trkpt>
      <trkpt lat="51.690036971122026" lon="0.637019025161862">
        <ele>50</ele>
        <time>2018-02-18T10:07:14Z</time>
      </trkpt>
      <trkpt lat="51.690046023577452" lon="0.637052971869707">
        <ele>50.0283047347639</ele>
        <time>2018-02-18T10:07:15Z</time>
      </trkpt>
      <trkpt lat="51.690055998042226" lon="0.637085996568203">
        <ele>50.9716952652361</ele>
        <time>2018-02-18T10:07:16Z</time>
      </trkpt>
      <trkpt lat="51.690064966678619" lon="0.637118015438318">
        <ele>51</ele>
        <time>2018-02-18T10:07:17Z</time>
      </trkpt>
      <trkpt lat="51.690075024962425" lon="0.637151962146163">
        <ele>51</ele>
        <time>2018-02-18T10:07:18Z</time>
      </trkpt>
      <trkpt lat="51.690083993598819" lon="0.637183981016278">
        <ele>51</ele>
        <time>2018-02-18T10:07:19Z</time>
      </trkpt>
      <trkpt lat="51.690093968063593" lon="0.637218011543155">
        <ele>50.060005631927901</ele>
        <time>2018-02-18T10:07:20Z</time>
      </trkpt>
      <trkpt lat="51.690105032175779" lon="0.63725003041327">
        <ele>50</ele>
        <time>2018-02-18T10:07:21Z</time>
      </trkpt>
      <trkpt lat="51.690116012468934" lon="0.637280959635973">
        <ele>50</ele>
        <time>2018-02-18T10:07:22Z</time>
      </trkpt>
      <trkpt lat="51.690126992762089" lon="0.637313984334469">
        <ele>50</ele>
        <time>2018-02-18T10:07:23Z</time>
      </trkpt>
      <trkpt lat="51.690136967226863" lon="0.637343991547823">
        <ele>50</ele>
        <time>2018-02-18T10:07:24Z</time>
      </trkpt>
      <trkpt lat="51.690148031339049" lon="0.637371987104416">
        <ele>50</ele>
        <time>2018-02-18T10:07:25Z</time>
      </trkpt>
      <trkpt lat="51.690156999975443" lon="0.637400988489389">
        <ele>50</ele>
        <time>2018-02-18T10:07:26Z</time>
      </trkpt>
      <trkpt lat="51.69017200358212" lon="0.637437030673027">
        <ele>50</ele>
        <time>2018-02-18T10:07:28Z</time>
      </trkpt>
      <trkpt lat="51.690183989703655" lon="0.637464020401239">
        <ele>50</ele>
        <time>2018-02-18T10:07:30Z</time>
      </trkpt>
      <trkpt lat="51.690204022452235" lon="0.637497967109084">
        <ele>50</ele>
        <time>2018-02-18T10:07:33Z</time>
      </trkpt>
      <trkpt lat="51.690216008573771" lon="0.637528980150819">
        <ele>50</ele>
        <time>2018-02-18T10:07:35Z</time>
      </trkpt>
      <trkpt lat="51.690217014402151" lon="0.637566028162837">
        <ele>50</ele>
        <time>2018-02-18T10:07:37Z</time>
      </trkpt>
      <trkpt lat="51.690212991088629" lon="0.637595029547811">
        <ele>50</ele>
        <time>2018-02-18T10:07:39Z</time>
      </trkpt>
      <trkpt lat="51.690207961946726" lon="0.637623025104404">
        <ele>50</ele>
        <time>2018-02-18T10:07:44Z</time>
      </trkpt>
      <trkpt lat="51.690204022452235" lon="0.637657977640629">
        <ele>50</ele>
        <time>2018-02-18T10:07:47Z</time>
      </trkpt>
      <trkpt lat="51.690201004967093" lon="0.637696031481028">
        <ele>50</ele>
        <time>2018-02-18T10:07:50Z</time>
      </trkpt>
      <trkpt lat="51.690192958340049" lon="0.637737018987536">
        <ele>50</ele>
        <time>2018-02-18T10:07:53Z</time>
      </trkpt>
      <trkpt lat="51.690179966390133" lon="0.637769037857652">
        <ele>50.020624950516002</ele>
        <time>2018-02-18T10:07:55Z</time>
      </trkpt>
      <trkpt lat="51.690162029117346" lon="0.637808013707399">
        <ele>51</ele>
        <time>2018-02-18T10:07:57Z</time>
      </trkpt>
      <trkpt lat="51.690145013853908" lon="0.637846989557147">
        <ele>51</ele>
        <time>2018-02-18T10:07:59Z</time>
      </trkpt>
      <trkpt lat="51.690132021903992" lon="0.637889988720417">
        <ele>50.979375049483998</ele>
        <time>2018-02-18T10:08:01Z</time>
      </trkpt>
      <trkpt lat="51.690124981105328" lon="0.637916978448629">
        <ele>50</ele>
        <time>2018-02-18T10:08:02Z</time>
      </trkpt>
      <trkpt lat="51.690114000812173" lon="0.637961989268661">
        <ele>51</ele>
        <time>2018-02-18T10:08:04Z</time>
      </trkpt>
      <trkpt lat="51.690101008862257" lon="0.638001970946789">
        <ele>51</ele>
        <time>2018-02-18T10:08:06Z</time>
      </trkpt>
      <trkpt lat="51.690092040225863" lon="0.638038013130426">
        <ele>51</ele>
        <time>2018-02-18T10:08:08Z</time>
      </trkpt>
      <trkpt lat="51.69008600525558" lon="0.638075983151793">
        <ele>50.040403909805498</ele>
        <time>2018-02-18T10:08:10Z</time>
      </trkpt>
      <trkpt lat="51.690076030790806" lon="0.63811001367867">
        <ele>50</ele>
        <time>2018-02-18T10:08:12Z</time>
      </trkpt>
      <trkpt lat="51.690066978335381" lon="0.638146977871656">
        <ele>51.9009961219679</ele>
        <time>2018-02-18T10:08:14Z</time>
      </trkpt>
      <trkpt lat="51.690051974728703" lon="0.638188971206546">
        <ele>52</ele>
        <time>2018-02-18T10:08:16Z</time>
      </trkpt>
      <trkpt lat="51.690039988607168" lon="0.638227025046945">
        <ele>52</ele>
        <time>2018-02-18T10:08:18Z</time>
      </trkpt>
      <trkpt lat="51.690025990828872" lon="0.638266000896692">
        <ele>51.960395914125698</ele>
        <time>2018-02-18T10:08:20Z</time>
      </trkpt>
      <trkpt lat="51.690015010535717" lon="0.638305982574821">
        <ele>51</ele>
        <time>2018-02-18T10:08:22Z</time>
      </trkpt>
      <trkpt lat="51.690005036070943" lon="0.638345964252949">
        <ele>51</ele>
        <time>2018-02-18T10:08:24Z</time>
      </trkpt>
      <trkpt lat="51.689996989443898" lon="0.638386029750109">
        <ele>51</ele>
        <time>2018-02-18T10:08:26Z</time>
      </trkpt>
      <trkpt lat="51.689996989443898" lon="0.638421988114715">
        <ele>51</ele>
        <time>2018-02-18T10:08:28Z</time>
      </trkpt>
      <trkpt lat="51.689987014979124" lon="0.638459036126733">
        <ele>51</ele>
        <time>2018-02-18T10:08:30Z</time>
      </trkpt>
      <trkpt lat="51.689976034685969" lon="0.638501029461622">
        <ele>51</ele>
        <time>2018-02-18T10:08:32Z</time>
      </trkpt>
      <trkpt lat="51.689965976402164" lon="0.63854101113975">
        <ele>51</ele>
        <time>2018-02-18T10:08:34Z</time>
      </trkpt>
      <trkpt lat="51.689962036907673" lon="0.638577975332737">
        <ele>51</ele>
        <time>2018-02-18T10:08:36Z</time>
      </trkpt>
      <trkpt lat="51.689958013594151" lon="0.638617035001516">
        <ele>51</ele>
        <time>2018-02-18T10:08:38Z</time>
      </trkpt>
      <trkpt lat="51.689954996109009" lon="0.638659028336406">
        <ele>51</ele>
        <time>2018-02-18T10:08:40Z</time>
      </trkpt>
      <trkpt lat="51.689954996109009" lon="0.638704039156437">
        <ele>51</ele>
        <time>2018-02-18T10:08:42Z</time>
      </trkpt>
      <trkpt lat="51.689946027472615" lon="0.638747038319707">
        <ele>51</ele>
        <time>2018-02-18T10:08:44Z</time>
      </trkpt>
      <trkpt lat="51.689934963360429" lon="0.638788025826216">
        <ele>51.9176442242535</ele>
        <time>2018-02-18T10:08:46Z</time>
      </trkpt>
      <trkpt lat="51.689929012209177" lon="0.638830019161105">
        <ele>52</ele>
        <time>2018-02-18T10:08:48Z</time>
      </trkpt>
      <trkpt lat="51.689916020259261" lon="0.638875029981136">
        <ele>52</ele>
        <time>2018-02-18T10:08:50Z</time>
      </trkpt>
      <trkpt lat="51.689913002774119" lon="0.638917023316026">
        <ele>51</ele>
        <time>2018-02-18T10:08:52Z</time>
      </trkpt>
      <trkpt lat="51.689906967803836" lon="0.638963961973786">
        <ele>52</ele>
        <time>2018-02-18T10:08:54Z</time>
      </trkpt>
      <trkpt lat="51.68989397585392" lon="0.639009978622198">
        <ele>52</ele>
        <time>2018-02-18T10:08:56Z</time>
      </trkpt>
      <trkpt lat="51.689886013045907" lon="0.639047026634216">
        <ele>52</ele>
        <time>2018-02-18T10:08:58Z</time>
      </trkpt>
      <trkpt lat="51.689874026924372" lon="0.639090025797486">
        <ele>52</ele>
        <time>2018-02-18T10:09:00Z</time>
      </trkpt>
      <trkpt lat="51.689861034974456" lon="0.639131013303995">
        <ele>52</ele>
        <time>2018-02-18T10:09:02Z</time>
      </trkpt>
      <trkpt lat="51.689843013882637" lon="0.639175018295646">
        <ele>52</ele>
        <time>2018-02-18T10:09:04Z</time>
      </trkpt>
      <trkpt lat="51.68982801027596" lon="0.639217011630535">
        <ele>52</ele>
        <time>2018-02-18T10:09:06Z</time>
      </trkpt>
      <trkpt lat="51.689822981134057" lon="0.639255987480283">
        <ele>52</ele>
        <time>2018-02-18T10:09:08Z</time>
      </trkpt>
      <trkpt lat="51.689820969477296" lon="0.639295969158411">
        <ele>52</ele>
        <time>2018-02-18T10:09:10Z</time>
      </trkpt>
      <trkpt lat="51.689833039417863" lon="0.639332011342049">
        <ele>52</ele>
        <time>2018-02-18T10:09:12Z</time>
      </trkpt>
      <trkpt lat="51.689858017489314" lon="0.639354977756739">
        <ele>52</ele>
        <time>2018-02-18T10:09:14Z</time>
      </trkpt>
      <trkpt lat="51.689882995560765" lon="0.639366963878274">
        <ele>52</ele>
        <time>2018-02-18T10:09:16Z</time>
      </trkpt>
      <trkpt lat="51.689916020259261" lon="0.639380039647222">
        <ele>52</ele>
        <time>2018-02-18T10:09:18Z</time>
      </trkpt>
      <trkpt lat="51.689934963360429" lon="0.639386996626854">
        <ele>51.079999999999998</ele>
        <time>2018-02-18T10:09:19Z</time>
      </trkpt>
      <trkpt lat="51.689952984452248" lon="0.639395965263247">
        <ele>51</ele>
        <time>2018-02-18T10:09:20Z</time>
      </trkpt>
      <trkpt lat="51.689972011372447" lon="0.639405017718673">
        <ele>51</ele>
        <time>2018-02-18T10:09:21Z</time>
      </trkpt>
      <trkpt lat="51.689991038292646" lon="0.639410968869925">
        <ele>51</ele>
        <time>2018-02-18T10:09:22Z</time>
      </trkpt>
      <trkpt lat="51.690023979172111" lon="0.639429995790124">
        <ele>51</ele>
        <time>2018-02-18T10:09:24Z</time>
      </trkpt>
      <trkpt lat="51.690044011920691" lon="0.63944399356842">
        <ele>51</ele>
        <time>2018-02-18T10:09:25Z</time>
      </trkpt>
      <trkpt lat="51.690062033012509" lon="0.639454973861575">
        <ele>51</ele>
        <time>2018-02-18T10:09:26Z</time>
      </trkpt>
      <trkpt lat="51.690079970285296" lon="0.639465032145381">
        <ele>51</ele>
        <time>2018-02-18T10:09:27Z</time>
      </trkpt>
      <trkpt lat="51.690102014690638" lon="0.639476012438536">
        <ele>51.950003199999998</ele>
        <time>2018-02-18T10:09:28Z</time>
      </trkpt>
      <trkpt lat="51.690122969448566" lon="0.63948699273169">
        <ele>52</ele>
        <time>2018-02-18T10:09:29Z</time>
      </trkpt>
      <trkpt lat="51.690145013853908" lon="0.639497973024845">
        <ele>52</ele>
        <time>2018-02-18T10:09:30Z</time>
      </trkpt>
      <trkpt lat="51.690164962783456" lon="0.63950995914638">
        <ele>52</ele>
        <time>2018-02-18T10:09:31Z</time>
      </trkpt>
      <trkpt lat="51.690197987481952" lon="0.639538038522005">
        <ele>52</ele>
        <time>2018-02-18T10:09:33Z</time>
      </trkpt>
      <trkpt lat="51.690219026058912" lon="0.639553964138031">
        <ele>52</ele>
        <time>2018-02-18T10:09:34Z</time>
      </trkpt>
      <trkpt lat="51.69023796916008" lon="0.639567961916327">
        <ele>52</ele>
        <time>2018-02-18T10:09:35Z</time>
      </trkpt>
      <trkpt lat="51.690255990251899" lon="0.639582965523005">
        <ele>52</ele>
        <time>2018-02-18T10:09:36Z</time>
      </trkpt>
      <trkpt lat="51.690277028828859" lon="0.639597969129682">
        <ele>52</ele>
        <time>2018-02-18T10:09:37Z</time>
      </trkpt>
      <trkpt lat="51.690298989415169" lon="0.639613978564739">
        <ele>51.979387973238701</ele>
        <time>2018-02-18T10:09:38Z</time>
      </trkpt>
      <trkpt lat="51.690318016335368" lon="0.639626970514655">
        <ele>51</ele>
        <time>2018-02-18T10:09:39Z</time>
      </trkpt>
      <trkpt lat="51.690338971093297" lon="0.639643985778093">
        <ele>51.060005631927901</ele>
        <time>2018-02-18T10:09:40Z</time>
      </trkpt>
      <trkpt lat="51.690360009670258" lon="0.639661001041532">
        <ele>52</ele>
        <time>2018-02-18T10:09:41Z</time>
      </trkpt>
      <trkpt lat="51.690382976084948" lon="0.639676004648209">
        <ele>52</ele>
        <time>2018-02-18T10:09:42Z</time>
      </trkpt>
      <trkpt lat="51.690405020490289" lon="0.639693019911647">
        <ele>52</ele>
        <time>2018-02-18T10:09:43Z</time>
      </trkpt>
      <trkpt lat="51.690427986904979" lon="0.639711041003466">
        <ele>52</ele>
        <time>2018-02-18T10:09:44Z</time>
      </trkpt>
      <trkpt lat="51.69045003131032" lon="0.639731995761395">
        <ele>52</ele>
        <time>2018-02-18T10:09:45Z</time>
      </trkpt>
      <trkpt lat="51.690470986068249" lon="0.639750016853213">
        <ele>52</ele>
        <time>2018-02-18T10:09:46Z</time>
      </trkpt>
      <trkpt lat="51.690490012988448" lon="0.639767032116652">
        <ele>52</ele>
        <time>2018-02-18T10:09:47Z</time>
      </trkpt>
      <trkpt lat="51.690512979403138" lon="0.639783041551709">
        <ele>52</ele>
        <time>2018-02-18T10:09:48Z</time>
      </trkpt>
      <trkpt lat="51.690532006323338" lon="0.639797961339355">
        <ele>52</ele>
        <time>2018-02-18T10:09:49Z</time>
      </trkpt>
      <trkpt lat="51.690550027415156" lon="0.639816988259554">
        <ele>52</ele>
        <time>2018-02-18T10:09:50Z</time>
      </trkpt>
      <trkpt lat="51.690569976344705" lon="0.639832997694612">
        <ele>52</ele>
        <time>2018-02-18T10:09:51Z</time>
      </trkpt>
      <trkpt lat="51.690594032406807" lon="0.63985001295805">
        <ele>52.038757305444499</ele>
        <time>2018-02-18T10:09:52Z</time>
      </trkpt>
      <trkpt lat="51.690613981336355" lon="0.639869039878249">
        <ele>52.813953026860197</ele>
        <time>2018-02-18T10:09:53Z</time>
      </trkpt>
      <trkpt lat="51.690633008256555" lon="0.639888988807797">
        <ele>53</ele>
        <time>2018-02-18T10:09:54Z</time>
      </trkpt>
      <trkpt lat="51.690656980499625" lon="0.639911033213139">
        <ele>52.969068763938203</ele>
        <time>2018-02-18T10:09:55Z</time>
      </trkpt>
      <trkpt lat="51.690675001591444" lon="0.639933999627829">
        <ele>52</ele>
        <time>2018-02-18T10:09:56Z</time>
      </trkpt>
      <trkpt lat="51.690696962177753" lon="0.639955038204789">
        <ele>52</ele>
        <time>2018-02-18T10:09:57Z</time>
      </trkpt>
      <trkpt lat="51.690713977441192" lon="0.639975992962718">
        <ele>52</ele>
        <time>2018-02-18T10:09:58Z</time>
      </trkpt>
      <trkpt lat="51.690735016018152" lon="0.639995019882917">
        <ele>52</ele>
        <time>2018-02-18T10:09:59Z</time>
      </trkpt>
      <trkpt lat="51.69075395911932" lon="0.640014968812466">
        <ele>52</ele>
        <time>2018-02-18T10:10:00Z</time>
      </trkpt>
      <trkpt lat="51.690770974382758" lon="0.640033995732665">
        <ele>52</ele>
        <time>2018-02-18T10:10:01Z</time>
      </trkpt>
      <trkpt lat="51.690790001302958" lon="0.640047993510962">
        <ele>52</ele>
        <time>2018-02-18T10:10:02Z</time>
      </trkpt>
      <trkpt lat="51.690810034051538" lon="0.640064002946019">
        <ele>52</ele>
        <time>2018-02-18T10:10:03Z</time>
      </trkpt>
      <trkpt lat="51.690827971324325" lon="0.640078000724316">
        <ele>52</ele>
        <time>2018-02-18T10:10:04Z</time>
      </trkpt>
      <trkpt lat="51.690845992416143" lon="0.64008898101747">
        <ele>52</ele>
        <time>2018-02-18T10:10:05Z</time>
      </trkpt>
      <trkpt lat="51.6908810287714" lon="0.640113037079573">
        <ele>52</ele>
        <time>2018-02-18T10:10:07Z</time>
      </trkpt>
      <trkpt lat="51.690899971872568" lon="0.640129968523979">
        <ele>52</ele>
        <time>2018-02-18T10:10:08Z</time>
      </trkpt>
      <trkpt lat="51.690920004621148" lon="0.640148995444179">
        <ele>52</ele>
        <time>2018-02-18T10:10:09Z</time>
      </trkpt>
      <trkpt lat="51.690940037369728" lon="0.640169028192759">
        <ele>52.938769379465299</ele>
        <time>2018-02-18T10:10:10Z</time>
      </trkpt>
      <trkpt lat="51.690961997956038" lon="0.640189982950687">
        <ele>53</ele>
        <time>2018-02-18T10:10:11Z</time>
      </trkpt>
      <trkpt lat="51.690980019047856" lon="0.640204986557364">
        <ele>53</ele>
        <time>2018-02-18T10:10:12Z</time>
      </trkpt>
      <trkpt lat="51.690997034311295" lon="0.640222001820803">
        <ele>53</ele>
        <time>2018-02-18T10:10:13Z</time>
      </trkpt>
      <trkpt lat="51.691015977412462" lon="0.64023700542748">
        <ele>53</ele>
        <time>2018-02-18T10:10:14Z</time>
      </trkpt>
      <trkpt lat="51.691038021817803" lon="0.640254020690918">
        <ele>53</ele>
        <time>2018-02-18T10:10:15Z</time>
      </trkpt>
      <trkpt lat="51.69105595909059" lon="0.640272963792086">
        <ele>53</ele>
        <time>2018-02-18T10:10:16Z</time>
      </trkpt>
      <trkpt lat="51.691071968525648" lon="0.640292996540666">
        <ele>53</ele>
        <time>2018-02-18T10:10:17Z</time>
      </trkpt>
      <trkpt lat="51.69109501875937" lon="0.6403240095824">
        <ele>53</ele>
        <time>2018-02-18T10:10:19Z</time>
      </trkpt>
      <trkpt lat="51.691112034022808" lon="0.640358962118626">
        <ele>53</ele>
        <time>2018-02-18T10:10:21Z</time>
      </trkpt>
      <trkpt lat="51.691133994609118" lon="0.640393998473883">
        <ele>53</ele>
        <time>2018-02-18T10:10:23Z</time>
      </trkpt>
      <trkpt lat="51.69116199016571" lon="0.640414031222463">
        <ele>53</ele>
        <time>2018-02-18T10:10:25Z</time>
      </trkpt>
      <trkpt lat="51.691185962408781" lon="0.640433980152011">
        <ele>53</ele>
        <time>2018-02-18T10:10:27Z</time>
      </trkpt>
      <trkpt lat="51.691210018470883" lon="0.640449989587069">
        <ele>53</ele>
        <time>2018-02-18T10:10:29Z</time>
      </trkpt>
      <trkpt lat="51.691226027905941" lon="0.640470022335649">
        <ele>53</ele>
        <time>2018-02-18T10:10:31Z</time>
      </trkpt>
      <trkpt lat="51.691243965178728" lon="0.640499023720622">
        <ele>53</ele>
        <time>2018-02-18T10:10:33Z</time>
      </trkpt>
      <trkpt lat="51.691256035119295" lon="0.640530036762357">
        <ele>53</ele>
        <time>2018-02-18T10:10:35Z</time>
      </trkpt>
      <trkpt lat="51.691266009584069" lon="0.640567000955343">
        <ele>53</ele>
        <time>2018-02-18T10:10:37Z</time>
      </trkpt>
      <trkpt lat="51.691277995705605" lon="0.640607988461852">
        <ele>53</ele>
        <time>2018-02-18T10:10:39Z</time>
      </trkpt>
      <trkpt lat="51.691277995705605" lon="0.6406469643116">
        <ele>53</ele>
        <time>2018-02-18T10:10:41Z</time>
      </trkpt>
      <trkpt lat="51.691286964341998" lon="0.640683006495237">
        <ele>53</ele>
        <time>2018-02-18T10:10:43Z</time>
      </trkpt>
      <trkpt lat="51.691300962120295" lon="0.640717959031463">
        <ele>53</ele>
        <time>2018-02-18T10:10:46Z</time>
      </trkpt>
      <trkpt lat="51.691314959898591" lon="0.64075299538672">
        <ele>53</ele>
        <time>2018-02-18T10:10:48Z</time>
      </trkpt>
      <trkpt lat="51.691308002918959" lon="0.640790965408087">
        <ele>53</ele>
        <time>2018-02-18T10:10:50Z</time>
      </trkpt>
      <trkpt lat="51.691298028454185" lon="0.640832958742976">
        <ele>53</ele>
        <time>2018-02-18T10:10:52Z</time>
      </trkpt>
      <trkpt lat="51.691284030675888" lon="0.640874030068517">
        <ele>54</ele>
        <time>2018-02-18T10:10:54Z</time>
      </trkpt>
      <trkpt lat="51.691270032897592" lon="0.640907976776361">
        <ele>54</ele>
        <time>2018-02-18T10:10:56Z</time>
      </trkpt>
      <trkpt lat="51.691252011805773" lon="0.640943013131619">
        <ele>54</ele>
        <time>2018-02-18T10:10:58Z</time>
      </trkpt>
      <trkpt lat="51.691231979057193" lon="0.640982994809747">
        <ele>53</ele>
        <time>2018-02-18T10:11:00Z</time>
      </trkpt>
      <trkpt lat="51.691212030127645" lon="0.641016019508243">
        <ele>53</ele>
        <time>2018-02-18T10:11:02Z</time>
      </trkpt>
      <trkpt lat="51.691197026520967" lon="0.641044015064836">
        <ele>54</ele>
        <time>2018-02-18T10:11:04Z</time>
      </trkpt>
      <trkpt lat="51.691184034571052" lon="0.641076033934951">
        <ele>54</ele>
        <time>2018-02-18T10:11:06Z</time>
      </trkpt>
      <trkpt lat="51.691169030964375" lon="0.641107968986034">
        <ele>54</ele>
        <time>2018-02-18T10:11:08Z</time>
      </trkpt>
      <trkpt lat="51.691156039014459" lon="0.641138982027769">
        <ele>54</ele>
        <time>2018-02-18T10:11:10Z</time>
      </trkpt>
      <trkpt lat="51.691135000437498" lon="0.641173012554646">
        <ele>55</ele>
        <time>2018-02-18T10:11:12Z</time>
      </trkpt>
      <trkpt lat="51.691121002659202" lon="0.641192039474845">
        <ele>55</ele>
        <time>2018-02-18T10:11:13Z</time>
      </trkpt>
      <trkpt lat="51.691107004880905" lon="0.641209976747632">
        <ele>55</ele>
        <time>2018-02-18T10:11:14Z</time>
      </trkpt>
      <trkpt lat="51.691081020981073" lon="0.641243001446128">
        <ele>54.9494983450559</ele>
        <time>2018-02-18T10:11:16Z</time>
      </trkpt>
      <trkpt lat="51.691057970747352" lon="0.641276026144624">
        <ele>54</ele>
        <time>2018-02-18T10:11:18Z</time>
      </trkpt>
      <trkpt lat="51.691044978797436" lon="0.641296980902553">
        <ele>54</ele>
        <time>2018-02-18T10:11:19Z</time>
      </trkpt>
      <trkpt lat="51.691024024039507" lon="0.641339980065823">
        <ele>55</ele>
        <time>2018-02-18T10:11:21Z</time>
      </trkpt>
      <trkpt lat="51.691011032089591" lon="0.641380967572331">
        <ele>55</ele>
        <time>2018-02-18T10:11:23Z</time>
      </trkpt>
      <trkpt lat="51.69100902043283" lon="0.641430001705885">
        <ele>54</ele>
        <time>2018-02-18T10:11:25Z</time>
      </trkpt>
      <trkpt lat="51.69101002626121" lon="0.641474006697536">
        <ele>54</ele>
        <time>2018-02-18T10:11:27Z</time>
      </trkpt>
      <trkpt lat="51.691018994897604" lon="0.641516000032425">
        <ele>54</ele>
        <time>2018-02-18T10:11:29Z</time>
      </trkpt>
      <trkpt lat="51.691037015989423" lon="0.641552964225411">
        <ele>54</ele>
        <time>2018-02-18T10:11:31Z</time>
      </trkpt>
      <trkpt lat="51.69105595909059" lon="0.641585988923907">
        <ele>54</ele>
        <time>2018-02-18T10:11:33Z</time>
      </trkpt>
      <trkpt lat="51.691071968525648" lon="0.641611972823739">
        <ele>54.059994367927899</ele>
        <time>2018-02-18T10:11:35Z</time>
      </trkpt>
      <trkpt lat="51.691092001274228" lon="0.641638040542603">
        <ele>55</ele>
        <time>2018-02-18T10:11:37Z</time>
      </trkpt>
      <trkpt lat="51.691113039851189" lon="0.641665030270815">
        <ele>55.058817623953701</ele>
        <time>2018-02-18T10:11:39Z</time>
      </trkpt>
      <trkpt lat="51.691128965467215" lon="0.641689002513886">
        <ele>55.960000000000001</ele>
        <time>2018-02-18T10:11:41Z</time>
      </trkpt>
      <trkpt lat="51.691150004044175" lon="0.641723033040762">
        <ele>55</ele>
        <time>2018-02-18T10:11:43Z</time>
      </trkpt>
      <trkpt lat="51.691169030964375" lon="0.641749016940594">
        <ele>55</ele>
        <time>2018-02-18T10:11:45Z</time>
      </trkpt>
      <trkpt lat="51.691187974065542" lon="0.641775000840425">
        <ele>55</ele>
        <time>2018-02-18T10:11:47Z</time>
      </trkpt>
      <trkpt lat="51.691212030127645" lon="0.64180601388216">
        <ele>55</ele>
        <time>2018-02-18T10:11:49Z</time>
      </trkpt>
      <trkpt lat="51.691236002370715" lon="0.64182898029685">
        <ele>55</ele>
        <time>2018-02-18T10:11:51Z</time>
      </trkpt>
      <trkpt lat="51.691258968785405" lon="0.641852030530572">
        <ele>56</ele>
        <time>2018-02-18T10:11:53Z</time>
      </trkpt>
      <trkpt lat="51.691275984048843" lon="0.641877008602023">
        <ele>56</ele>
        <time>2018-02-18T10:11:55Z</time>
      </trkpt>
      <trkpt lat="51.691300040110946" lon="0.641908021643758">
        <ele>56</ele>
        <time>2018-02-18T10:11:57Z</time>
      </trkpt>
      <trkpt lat="51.691314037889242" lon="0.641925036907196">
        <ele>55.939994368072099</ele>
        <time>2018-02-18T10:11:58Z</time>
      </trkpt>
      <trkpt lat="51.691338010132313" lon="0.641963006928563">
        <ele>55</ele>
        <time>2018-02-18T10:12:00Z</time>
      </trkpt>
      <trkpt lat="51.691351002082229" lon="0.641983039677143">
        <ele>55</ele>
        <time>2018-02-18T10:12:01Z</time>
      </trkpt>
      <trkpt lat="51.691364999860525" lon="0.642001982778311">
        <ele>55</ele>
        <time>2018-02-18T10:12:02Z</time>
      </trkpt>
      <trkpt lat="51.691386960446835" lon="0.642029978334904">
        <ele>55</ele>
        <time>2018-02-18T10:12:04Z</time>
      </trkpt>
      <trkpt lat="51.691404981538653" lon="0.642055962234735">
        <ele>55</ele>
        <time>2018-02-18T10:12:06Z</time>
      </trkpt>
      <trkpt lat="51.691421996802092" lon="0.642082029953599">
        <ele>55</ele>
        <time>2018-02-18T10:12:08Z</time>
      </trkpt>
      <trkpt lat="51.69144001789391" lon="0.64210600219667">
        <ele>55</ele>
        <time>2018-02-18T10:12:10Z</time>
      </trkpt>
      <trkpt lat="51.691459966823459" lon="0.642131986096501">
        <ele>55</ele>
        <time>2018-02-18T10:12:12Z</time>
      </trkpt>
      <trkpt lat="51.691485028713942" lon="0.642160987481475">
        <ele>55</ele>
        <time>2018-02-18T10:12:14Z</time>
      </trkpt>
      <trkpt lat="51.691503971815109" lon="0.642187977209687">
        <ele>55</ele>
        <time>2018-02-18T10:12:16Z</time>
      </trkpt>
      <trkpt lat="51.69152501039207" lon="0.642217984423041">
        <ele>56</ele>
        <time>2018-02-18T10:12:18Z</time>
      </trkpt>
      <trkpt lat="51.69154898263514" lon="0.642248997464776">
        <ele>56</ele>
        <time>2018-02-18T10:12:20Z</time>
      </trkpt>
      <trkpt lat="51.691570021212101" lon="0.642284033820033">
        <ele>56</ele>
        <time>2018-02-18T10:12:22Z</time>
      </trkpt>
      <trkpt lat="51.691592987626791" lon="0.642314041033387">
        <ele>56</ele>
        <time>2018-02-18T10:12:24Z</time>
      </trkpt>
      <trkpt lat="51.691615032032132" lon="0.642340024933219">
        <ele>56</ele>
        <time>2018-02-18T10:12:26Z</time>
      </trkpt>
      <trkpt lat="51.691640010103583" lon="0.642369026318192">
        <ele>56</ele>
        <time>2018-02-18T10:12:28Z</time>
      </trkpt>
      <trkpt lat="51.691662976518273" lon="0.642405990511179">
        <ele>56</ele>
        <time>2018-02-18T10:12:30Z</time>
      </trkpt>
      <trkpt lat="51.691686026751995" lon="0.642438009381294">
        <ele>56</ele>
        <time>2018-02-18T10:12:32Z</time>
      </trkpt>
      <trkpt lat="51.691704969853163" lon="0.642469022423029">
        <ele>56</ele>
        <time>2018-02-18T10:12:34Z</time>
      </trkpt>
      <trkpt lat="51.691722990944982" lon="0.642496012151241">
        <ele>56</ele>
        <time>2018-02-18T10:12:36Z</time>
      </trkpt>
      <trkpt lat="51.691744029521942" lon="0.642517972737551">
        <ele>56</ele>
        <time>2018-02-18T10:12:38Z</time>
      </trkpt>
      <trkpt lat="51.691764984279871" lon="0.642542028799653">
        <ele>55</ele>
        <time>2018-02-18T10:12:40Z</time>
      </trkpt>
      <trkpt lat="51.691780993714929" lon="0.642568012699485">
        <ele>55</ele>
        <time>2018-02-18T10:12:42Z</time>
      </trkpt>
      <trkpt lat="51.691802032291889" lon="0.642589973285794">
        <ele>55</ele>
        <time>2018-02-18T10:12:44Z</time>
      </trkpt>
      <trkpt lat="51.691822987049818" lon="0.64262199215591">
        <ele>55</ele>
        <time>2018-02-18T10:12:46Z</time>
      </trkpt>
      <trkpt lat="51.691844025626779" lon="0.642649987712502">
        <ele>55.950003199999998</ele>
        <time>2018-02-18T10:12:48Z</time>
      </trkpt>
      <trkpt lat="51.691863974556327" lon="0.642672032117844">
        <ele>56</ele>
        <time>2018-02-18T10:12:50Z</time>
      </trkpt>
      <trkpt lat="51.691886018961668" lon="0.642693992704153">
        <ele>56</ele>
        <time>2018-02-18T10:12:52Z</time>
      </trkpt>
      <trkpt lat="51.691903034225106" lon="0.642721988260746">
        <ele>56</ele>
        <time>2018-02-18T10:12:54Z</time>
      </trkpt>
      <trkpt lat="51.691920971497893" lon="0.642759958282113">
        <ele>55</ele>
        <time>2018-02-18T10:12:56Z</time>
      </trkpt>
      <trkpt lat="51.691928012296557" lon="0.642800023779273">
        <ele>55</ele>
        <time>2018-02-18T10:12:58Z</time>
      </trkpt>
      <trkpt lat="51.69193496927619" lon="0.642842017114162">
        <ele>55</ele>
        <time>2018-02-18T10:13:00Z</time>
      </trkpt>
      <trkpt lat="51.691944021731615" lon="0.642893984913826">
        <ele>55</ele>
        <time>2018-02-18T10:13:02Z</time>
      </trkpt>
      <trkpt lat="51.691947039216757" lon="0.642949976027012">
        <ele>55</ele>
        <time>2018-02-18T10:13:04Z</time>
      </trkpt>
      <trkpt lat="51.691943015903234" lon="0.642978977411985">
        <ele>55</ele>
        <time>2018-02-18T10:13:05Z</time>
      </trkpt>
      <trkpt lat="51.691936980932951" lon="0.643006972968578">
        <ele>55</ele>
        <time>2018-02-18T10:13:06Z</time>
      </trkpt>
      <trkpt lat="51.69193304143846" lon="0.643059024587274">
        <ele>55.950003199999998</ele>
        <time>2018-02-18T10:13:08Z</time>
      </trkpt>
      <trkpt lat="51.691936980932951" lon="0.643104035407305">
        <ele>56</ele>
        <time>2018-02-18T10:13:10Z</time>
      </trkpt>
      <trkpt lat="51.69193203561008" lon="0.643152985721827">
        <ele>56</ele>
        <time>2018-02-18T10:13:12Z</time>
      </trkpt>
      <trkpt lat="51.691928012296557" lon="0.643192967399955">
        <ele>56</ele>
        <time>2018-02-18T10:13:14Z</time>
      </trkpt>
      <trkpt lat="51.691920971497893" lon="0.643237978219986">
        <ele>55.049501939015997</ele>
        <time>2018-02-18T10:13:16Z</time>
      </trkpt>
      <trkpt lat="51.691918959841132" lon="0.643286006525159">
        <ele>55</ele>
        <time>2018-02-18T10:13:18Z</time>
      </trkpt>
      <trkpt lat="51.691920971497893" lon="0.643335040658712">
        <ele>55</ele>
        <time>2018-02-18T10:13:20Z</time>
      </trkpt>
      <trkpt lat="51.691915020346642" lon="0.643384996801615">
        <ele>55</ele>
        <time>2018-02-18T10:13:22Z</time>
      </trkpt>
      <trkpt lat="51.691909991204739" lon="0.643432019278407">
        <ele>55</ele>
        <time>2018-02-18T10:13:24Z</time>
      </trkpt>
      <trkpt lat="51.691903034225106" lon="0.643481975421309">
        <ele>55</ele>
        <time>2018-02-18T10:13:26Z</time>
      </trkpt>
      <trkpt lat="51.69188903644681" lon="0.643530003726482">
        <ele>55</ele>
        <time>2018-02-18T10:13:28Z</time>
      </trkpt>
      <trkpt lat="51.691886018961668" lon="0.643576020374894">
        <ele>55.950498060984003</ele>
        <time>2018-02-18T10:13:30Z</time>
      </trkpt>
      <trkpt lat="51.691880989819765" lon="0.643620025366545">
        <ele>56</ele>
        <time>2018-02-18T10:13:32Z</time>
      </trkpt>
      <trkpt lat="51.691884007304907" lon="0.643662018701434">
        <ele>56</ele>
        <time>2018-02-18T10:13:34Z</time>
      </trkpt>
      <trkpt lat="51.691886018961668" lon="0.643706023693085">
        <ele>55.049501939015997</ele>
        <time>2018-02-18T10:13:36Z</time>
      </trkpt>
      <trkpt lat="51.691881995648146" lon="0.643751034513116">
        <ele>55</ele>
        <time>2018-02-18T10:13:38Z</time>
      </trkpt>
      <trkpt lat="51.691871015354991" lon="0.643796967342496">
        <ele>55.748032130942697</ele>
        <time>2018-02-18T10:13:40Z</time>
      </trkpt>
      <trkpt lat="51.691866992041469" lon="0.643838960677385">
        <ele>56</ele>
        <time>2018-02-18T10:13:42Z</time>
      </trkpt>
      <trkpt lat="51.691860035061836" lon="0.643878020346165">
        <ele>56</ele>
        <time>2018-02-18T10:13:44Z</time>
      </trkpt>
      <trkpt lat="51.691854000091553" lon="0.643926970660686">
        <ele>55</ele>
        <time>2018-02-18T10:13:46Z</time>
      </trkpt>
      <trkpt lat="51.691856011748314" lon="0.643978016451001">
        <ele>56</ele>
        <time>2018-02-18T10:13:48Z</time>
      </trkpt>
      <trkpt lat="51.691855005919933" lon="0.644026966765523">
        <ele>56</ele>
        <time>2018-02-18T10:13:50Z</time>
      </trkpt>
      <trkpt lat="51.691850982606411" lon="0.644073989242315">
        <ele>55</ele>
        <time>2018-02-18T10:13:52Z</time>
      </trkpt>
      <trkpt lat="51.69184897094965" lon="0.644115982577205">
        <ele>55</ele>
        <time>2018-02-18T10:13:54Z</time>
      </trkpt>
      <trkpt lat="51.691840002313256" lon="0.644161999225616">
        <ele>55</ele>
        <time>2018-02-18T10:13:56Z</time>
      </trkpt>
      <trkpt lat="51.69182600453496" lon="0.644208015874028">
        <ele>55</ele>
        <time>2018-02-18T10:13:58Z</time>
      </trkpt>
      <trkpt lat="51.691820975393057" lon="0.644247997552156">
        <ele>55</ele>
        <time>2018-02-18T10:14:00Z</time>
      </trkpt>
      <trkpt lat="51.691821981221437" lon="0.644283033907413">
        <ele>54.019993855921399</ele>
        <time>2018-02-18T10:14:02Z</time>
      </trkpt>
      <trkpt lat="51.691823992878199" lon="0.644327038899064">
        <ele>54.9393876706661</ele>
        <time>2018-02-18T10:14:04Z</time>
      </trkpt>
      <trkpt lat="51.691823992878199" lon="0.644371965900064">
        <ele>55</ele>
        <time>2018-02-18T10:14:06Z</time>
      </trkpt>
      <trkpt lat="51.691819969564676" lon="0.644418988376856">
        <ele>54.079208171748697</ele>
        <time>2018-02-18T10:14:08Z</time>
      </trkpt>
      <trkpt lat="51.691819969564676" lon="0.644470034167171">
        <ele>54.911767289520199</ele>
        <time>2018-02-18T10:14:10Z</time>
      </trkpt>
      <trkpt lat="51.691813012585044" lon="0.644525019451976">
        <ele>55</ele>
        <time>2018-02-18T10:14:12Z</time>
      </trkpt>
      <trkpt lat="51.691812006756663" lon="0.644554020836949">
        <ele>55</ele>
        <time>2018-02-18T10:14:13Z</time>
      </trkpt>
      <trkpt lat="51.691809995099902" lon="0.644599031656981">
        <ele>55</ele>
        <time>2018-02-18T10:14:15Z</time>
      </trkpt>
      <trkpt lat="51.691809995099902" lon="0.644643036648631">
        <ele>55</ele>
        <time>2018-02-18T10:14:17Z</time>
      </trkpt>
      <trkpt lat="51.691811000928283" lon="0.644686035811901">
        <ele>55</ele>
        <time>2018-02-18T10:14:19Z</time>
      </trkpt>
      <trkpt lat="51.69180597178638" lon="0.644732974469662">
        <ele>55</ele>
        <time>2018-02-18T10:14:21Z</time>
      </trkpt>
      <trkpt lat="51.691804965957999" lon="0.644776979461312">
        <ele>55</ele>
        <time>2018-02-18T10:14:23Z</time>
      </trkpt>
      <trkpt lat="51.691809995099902" lon="0.644824001938105">
        <ele>55</ele>
        <time>2018-02-18T10:14:25Z</time>
      </trkpt>
      <trkpt lat="51.691811000928283" lon="0.644867001101375">
        <ele>55</ele>
        <time>2018-02-18T10:14:27Z</time>
      </trkpt>
      <trkpt lat="51.691811000928283" lon="0.644914023578167">
        <ele>54</ele>
        <time>2018-02-18T10:14:29Z</time>
      </trkpt>
      <trkpt lat="51.691807983443141" lon="0.644960040226579">
        <ele>54</ele>
        <time>2018-02-18T10:14:31Z</time>
      </trkpt>
      <trkpt lat="51.691803960129619" lon="0.645003961399198">
        <ele>53.079208171748697</ele>
        <time>2018-02-18T10:14:33Z</time>
      </trkpt>
      <trkpt lat="51.691800020635128" lon="0.645049978047609">
        <ele>53</ele>
        <time>2018-02-18T10:14:35Z</time>
      </trkpt>
      <trkpt lat="51.691800020635128" lon="0.645100018009543">
        <ele>53</ele>
        <time>2018-02-18T10:14:37Z</time>
      </trkpt>
      <trkpt lat="51.691797003149986" lon="0.645150979980826">
        <ele>53</ele>
        <time>2018-02-18T10:14:39Z</time>
      </trkpt>
      <trkpt lat="51.691794991493225" lon="0.645203031599522">
        <ele>53</ele>
        <time>2018-02-18T10:14:41Z</time>
      </trkpt>
      <trkpt lat="51.691791974008083" lon="0.645251981914043">
        <ele>53</ele>
        <time>2018-02-18T10:14:43Z</time>
      </trkpt>
      <trkpt lat="51.691791974008083" lon="0.645295986905694">
        <ele>54</ele>
        <time>2018-02-18T10:14:45Z</time>
      </trkpt>
      <trkpt lat="51.691787028685212" lon="0.645340997725725">
        <ele>54</ele>
        <time>2018-02-18T10:14:47Z</time>
      </trkpt>
      <trkpt lat="51.691786022856832" lon="0.645390031859279">
        <ele>53</ele>
        <time>2018-02-18T10:14:49Z</time>
      </trkpt>
      <trkpt lat="51.691786022856832" lon="0.645436970517039">
        <ele>53</ele>
        <time>2018-02-18T10:14:51Z</time>
      </trkpt>
      <trkpt lat="51.69178401120007" lon="0.645483992993832">
        <ele>53</ele>
        <time>2018-02-18T10:14:53Z</time>
      </trkpt>
      <trkpt lat="51.691780993714929" lon="0.645533027127385">
        <ele>53</ele>
        <time>2018-02-18T10:14:55Z</time>
      </trkpt>
      <trkpt lat="51.691775964573026" lon="0.645583989098668">
        <ele>53</ele>
        <time>2018-02-18T10:14:57Z</time>
      </trkpt>
      <trkpt lat="51.691770013421774" lon="0.645636040717363">
        <ele>53</ele>
        <time>2018-02-18T10:14:59Z</time>
      </trkpt>
      <trkpt lat="51.691765990108252" lon="0.645687002688646">
        <ele>52</ele>
        <time>2018-02-18T10:15:01Z</time>
      </trkpt>
      <trkpt lat="51.69176397845149" lon="0.645732013508677">
        <ele>52</ele>
        <time>2018-02-18T10:15:03Z</time>
      </trkpt>
      <trkpt lat="51.691757021471858" lon="0.64578196965158">
        <ele>52</ele>
        <time>2018-02-18T10:15:05Z</time>
      </trkpt>
      <trkpt lat="51.691755009815097" lon="0.64582597464323">
        <ele>52</ele>
        <time>2018-02-18T10:15:07Z</time>
      </trkpt>
      <trkpt lat="51.691754003986716" lon="0.6458689738065">
        <ele>52.910893975109602</ele>
        <time>2018-02-18T10:15:09Z</time>
      </trkpt>
      <trkpt lat="51.691754003986716" lon="0.645907027646899">
        <ele>53</ele>
        <time>2018-02-18T10:15:11Z</time>
      </trkpt>
      <trkpt lat="51.691754003986716" lon="0.645949020981789">
        <ele>53</ele>
        <time>2018-02-18T10:15:13Z</time>
      </trkpt>
      <trkpt lat="51.691752998158336" lon="0.64599403180182">
        <ele>52</ele>
        <time>2018-02-18T10:15:15Z</time>
      </trkpt>
      <trkpt lat="51.691751992329955" lon="0.6460399646312">
        <ele>52</ele>
        <time>2018-02-18T10:15:17Z</time>
      </trkpt>
      <trkpt lat="51.691750986501575" lon="0.646085981279612">
        <ele>52</ele>
        <time>2018-02-18T10:15:19Z</time>
      </trkpt>
      <trkpt lat="51.691750986501575" lon="0.646131997928023">
        <ele>52</ele>
        <time>2018-02-18T10:15:21Z</time>
      </trkpt>
      <trkpt lat="51.691747969016433" lon="0.646179020404816">
        <ele>52</ele>
        <time>2018-02-18T10:15:23Z</time>
      </trkpt>
      <trkpt lat="51.691748974844813" lon="0.646224031224847">
        <ele>52</ele>
        <time>2018-02-18T10:15:25Z</time>
      </trkpt>
      <trkpt lat="51.69174000620842" lon="0.646270969882607">
        <ele>52</ele>
        <time>2018-02-18T10:15:27Z</time>
      </trkpt>
      <trkpt lat="51.691732965409756" lon="0.646315980702639">
        <ele>52</ele>
        <time>2018-02-18T10:15:29Z</time>
      </trkpt>
      <trkpt lat="51.691729025915265" lon="0.646364009007812">
        <ele>52</ele>
        <time>2018-02-18T10:15:31Z</time>
      </trkpt>
      <trkpt lat="51.691727014258504" lon="0.646412037312984">
        <ele>52</ele>
        <time>2018-02-18T10:15:33Z</time>
      </trkpt>
      <trkpt lat="51.691729025915265" lon="0.646458975970745">
        <ele>52</ele>
        <time>2018-02-18T10:15:35Z</time>
      </trkpt>
      <trkpt lat="51.691729025915265" lon="0.646507004275918">
        <ele>52</ele>
        <time>2018-02-18T10:15:37Z</time>
      </trkpt>
      <trkpt lat="51.691727014258504" lon="0.646555032581091">
        <ele>52</ele>
        <time>2018-02-18T10:15:39Z</time>
      </trkpt>
      <trkpt lat="51.691726008430123" lon="0.64659995958209">
        <ele>52</ele>
        <time>2018-02-18T10:15:41Z</time>
      </trkpt>
      <trkpt lat="51.691721985116601" lon="0.646642036736012">
        <ele>52</ele>
        <time>2018-02-18T10:15:43Z</time>
      </trkpt>
      <trkpt lat="51.69171997345984" lon="0.646685035899282">
        <ele>52</ele>
        <time>2018-02-18T10:15:45Z</time>
      </trkpt>
      <trkpt lat="51.691712010651827" lon="0.646733986213803">
        <ele>51.079999999999998</ele>
        <time>2018-02-18T10:15:47Z</time>
      </trkpt>
      <trkpt lat="51.691708993166685" lon="0.646783020347357">
        <ele>51</ele>
        <time>2018-02-18T10:15:49Z</time>
      </trkpt>
      <trkpt lat="51.691704969853163" lon="0.646831970661879">
        <ele>51</ele>
        <time>2018-02-18T10:15:51Z</time>
      </trkpt>
      <trkpt lat="51.691702036187053" lon="0.646881004795432">
        <ele>51</ele>
        <time>2018-02-18T10:15:53Z</time>
      </trkpt>
      <trkpt lat="51.691703964024782" lon="0.646915035322309">
        <ele>51</ele>
        <time>2018-02-18T10:15:55Z</time>
      </trkpt>
      <trkpt lat="51.691706981509924" lon="0.646954011172056">
        <ele>51</ele>
        <time>2018-02-18T10:15:57Z</time>
      </trkpt>
      <trkpt lat="51.691703964024782" lon="0.646993992850184">
        <ele>51</ele>
        <time>2018-02-18T10:15:59Z</time>
      </trkpt>
      <trkpt lat="51.691700024530292" lon="0.647034980356693">
        <ele>51</ele>
        <time>2018-02-18T10:16:01Z</time>
      </trkpt>
      <trkpt lat="51.691699018701911" lon="0.647080997005105">
        <ele>51</ele>
        <time>2018-02-18T10:16:03Z</time>
      </trkpt>
      <trkpt lat="51.69169801287353" lon="0.647125001996756">
        <ele>51</ele>
        <time>2018-02-18T10:16:05Z</time>
      </trkpt>
      <trkpt lat="51.691692983731627" lon="0.647163977846503">
        <ele>51</ele>
        <time>2018-02-18T10:16:07Z</time>
      </trkpt>
      <trkpt lat="51.691690972074866" lon="0.647204965353012">
        <ele>50.9693846897326</ele>
        <time>2018-02-18T10:16:09Z</time>
      </trkpt>
      <trkpt lat="51.691684015095234" lon="0.647250982001424">
        <ele>50</ele>
        <time>2018-02-18T10:16:11Z</time>
      </trkpt>
      <trkpt lat="51.69167404063046" lon="0.647290963679552">
        <ele>50</ele>
        <time>2018-02-18T10:16:13Z</time>
      </trkpt>
      <trkpt lat="51.691670017316937" lon="0.647329017519951">
        <ele>50</ele>
        <time>2018-02-18T10:16:15Z</time>
      </trkpt>
      <trkpt lat="51.691660964861512" lon="0.647364975884557">
        <ele>50</ele>
        <time>2018-02-18T10:16:17Z</time>
      </trkpt>
      <trkpt lat="51.691646967083216" lon="0.647401018068194">
        <ele>50</ele>
        <time>2018-02-18T10:16:19Z</time>
      </trkpt>
      <trkpt lat="51.691637998446822" lon="0.647434964776039">
        <ele>50</ele>
        <time>2018-02-18T10:16:21Z</time>
      </trkpt>
      <trkpt lat="51.691639004275203" lon="0.647474024444819">
        <ele>49.049996800000002</ele>
        <time>2018-02-18T10:16:23Z</time>
      </trkpt>
      <trkpt lat="51.69163104146719" lon="0.647520963102579">
        <ele>49</ele>
        <time>2018-02-18T10:16:25Z</time>
      </trkpt>
      <trkpt lat="51.69163104146719" lon="0.647551976144314">
        <ele>49</ele>
        <time>2018-02-18T10:16:26Z</time>
      </trkpt>
      <trkpt lat="51.691628023982048" lon="0.647583995014429">
        <ele>49</ele>
        <time>2018-02-18T10:16:27Z</time>
      </trkpt>
      <trkpt lat="51.691617965698242" lon="0.647635040804744">
        <ele>49</ele>
        <time>2018-02-18T10:16:29Z</time>
      </trkpt>
      <trkpt lat="51.691604973748326" lon="0.647690026089549">
        <ele>49</ele>
        <time>2018-02-18T10:16:31Z</time>
      </trkpt>
      <trkpt lat="51.691597010940313" lon="0.647742999717593">
        <ele>48.0821833739545</ele>
        <time>2018-02-18T10:16:33Z</time>
      </trkpt>
      <trkpt lat="51.691594999283552" lon="0.647796979174018">
        <ele>48</ele>
        <time>2018-02-18T10:16:35Z</time>
      </trkpt>
      <trkpt lat="51.691594999283552" lon="0.64784400165081">
        <ele>48</ele>
        <time>2018-02-18T10:16:37Z</time>
      </trkpt>
      <trkpt lat="51.691586030647159" lon="0.647890018299222">
        <ele>48</ele>
        <time>2018-02-18T10:16:39Z</time>
      </trkpt>
      <trkpt lat="51.691581001505256" lon="0.647938968613744">
        <ele>48</ele>
        <time>2018-02-18T10:16:41Z</time>
      </trkpt>
      <trkpt lat="51.691573038697243" lon="0.647988002747297">
        <ele>48</ele>
        <time>2018-02-18T10:16:43Z</time>
      </trkpt>
      <trkpt lat="51.691563986241817" lon="0.64803896471858">
        <ele>48</ele>
        <time>2018-02-18T10:16:45Z</time>
      </trkpt>
      <trkpt lat="51.691555017605424" lon="0.648085987195373">
        <ele>48</ele>
        <time>2018-02-18T10:16:47Z</time>
      </trkpt>
      <trkpt lat="51.691543031483889" lon="0.648134015500546">
        <ele>48</ele>
        <time>2018-02-18T10:16:49Z</time>
      </trkpt>
      <trkpt lat="51.691535990685225" lon="0.648177014663816">
        <ele>48</ele>
        <time>2018-02-18T10:16:51Z</time>
      </trkpt>
      <trkpt lat="51.691531967371702" lon="0.648216996341944">
        <ele>48</ele>
        <time>2018-02-18T10:16:53Z</time>
      </trkpt>
      <trkpt lat="51.691530961543322" lon="0.648262007161975">
        <ele>48</ele>
        <time>2018-02-18T10:16:55Z</time>
      </trkpt>
      <trkpt lat="51.69152501039207" lon="0.648306012153625">
        <ele>47.949497692098802</ele>
        <time>2018-02-18T10:16:57Z</time>
      </trkpt>
      <trkpt lat="51.691518975421786" lon="0.648352028802037">
        <ele>47.049996800000002</ele>
        <time>2018-02-18T10:16:59Z</time>
      </trkpt>
      <trkpt lat="51.691516041755676" lon="0.648395027965307">
        <ele>47.940600207842202</ele>
        <time>2018-02-18T10:17:01Z</time>
      </trkpt>
      <trkpt lat="51.691511012613773" lon="0.648438027128577">
        <ele>47</ele>
        <time>2018-02-18T10:17:03Z</time>
      </trkpt>
      <trkpt lat="51.691500032320619" lon="0.648483959957957">
        <ele>47</ele>
        <time>2018-02-18T10:17:05Z</time>
      </trkpt>
      <trkpt lat="51.691492991521955" lon="0.648532994091511">
        <ele>47</ele>
        <time>2018-02-18T10:17:07Z</time>
      </trkpt>
      <trkpt lat="51.69148301705718" lon="0.648579010739923">
        <ele>47</ele>
        <time>2018-02-18T10:17:09Z</time>
      </trkpt>
      <trkpt lat="51.691479999572039" lon="0.648623015731573">
        <ele>47</ele>
        <time>2018-02-18T10:17:11Z</time>
      </trkpt>
      <trkpt lat="51.691472036764026" lon="0.648672971874475">
        <ele>46</ele>
        <time>2018-02-18T10:17:13Z</time>
      </trkpt>
      <trkpt lat="51.691469019278884" lon="0.648701973259449">
        <ele>46</ele>
        <time>2018-02-18T10:17:14Z</time>
      </trkpt>
      <trkpt lat="51.691463990136981" lon="0.648752013221383">
        <ele>46</ele>
        <time>2018-02-18T10:17:16Z</time>
      </trkpt>
      <trkpt lat="51.691459966823459" lon="0.648800041526556">
        <ele>46</ele>
        <time>2018-02-18T10:17:18Z</time>
      </trkpt>
      <trkpt lat="51.691457033157349" lon="0.648846980184317">
        <ele>45.070003200000002</ele>
        <time>2018-02-18T10:17:20Z</time>
      </trkpt>
      <trkpt lat="51.691450998187065" lon="0.648894002661109">
        <ele>45</ele>
        <time>2018-02-18T10:17:22Z</time>
      </trkpt>
      <trkpt lat="51.691448986530304" lon="0.648942030966282">
        <ele>45</ele>
        <time>2018-02-18T10:17:24Z</time>
      </trkpt>
      <trkpt lat="51.691448986530304" lon="0.648987041786313">
        <ele>45</ele>
        <time>2018-02-18T10:17:26Z</time>
      </trkpt>
      <trkpt lat="51.691450998187065" lon="0.649030962958932">
        <ele>44.069309440227102</ele>
        <time>2018-02-18T10:17:28Z</time>
      </trkpt>
      <trkpt lat="51.691452004015446" lon="0.649072034284472">
        <ele>44</ele>
        <time>2018-02-18T10:17:30Z</time>
      </trkpt>
      <trkpt lat="51.691450998187065" lon="0.649116961285472">
        <ele>44</ele>
        <time>2018-02-18T10:17:32Z</time>
      </trkpt>
      <trkpt lat="51.691447980701923" lon="0.649165995419025">
        <ele>44</ele>
        <time>2018-02-18T10:17:34Z</time>
      </trkpt>
      <trkpt lat="51.691444963216782" lon="0.649220980703831">
        <ele>44</ele>
        <time>2018-02-18T10:17:36Z</time>
      </trkpt>
      <trkpt lat="51.691444963216782" lon="0.649250987917185">
        <ele>44</ele>
        <time>2018-02-18T10:17:37Z</time>
      </trkpt>
      <trkpt lat="51.691446974873543" lon="0.649278983473778">
        <ele>44</ele>
        <time>2018-02-18T10:17:38Z</time>
      </trkpt>
      <trkpt lat="51.691445969045162" lon="0.649332040920854">
        <ele>44</ele>
        <time>2018-02-18T10:17:40Z</time>
      </trkpt>
      <trkpt lat="51.691446974873543" lon="0.649360958486795">
        <ele>44</ele>
        <time>2018-02-18T10:17:41Z</time>
      </trkpt>
      <trkpt lat="51.691447980701923" lon="0.649393983185291">
        <ele>44</ele>
        <time>2018-02-18T10:17:42Z</time>
      </trkpt>
      <trkpt lat="51.691449992358685" lon="0.64943203702569">
        <ele>44</ele>
        <time>2018-02-18T10:17:43Z</time>
      </trkpt>
      <trkpt lat="51.691449992358685" lon="0.649471012875438">
        <ele>44</ele>
        <time>2018-02-18T10:17:44Z</time>
      </trkpt>
      <trkpt lat="51.691452004015446" lon="0.649509988725185">
        <ele>43.959596090194502</ele>
        <time>2018-02-18T10:17:45Z</time>
      </trkpt>
      <trkpt lat="51.691455021500587" lon="0.649548964574933">
        <ele>43</ele>
        <time>2018-02-18T10:17:46Z</time>
      </trkpt>
      <trkpt lat="51.691456027328968" lon="0.649589030072093">
        <ele>43</ele>
        <time>2018-02-18T10:17:47Z</time>
      </trkpt>
      <trkpt lat="51.691457033157349" lon="0.64962599426508">
        <ele>43</ele>
        <time>2018-02-18T10:17:48Z</time>
      </trkpt>
      <trkpt lat="51.691459966823459" lon="0.649660024791956">
        <ele>43</ele>
        <time>2018-02-18T10:17:49Z</time>
      </trkpt>
      <trkpt lat="51.69146197848022" lon="0.649694977328181">
        <ele>43</ele>
        <time>2018-02-18T10:17:50Z</time>
      </trkpt>
      <trkpt lat="51.691464995965362" lon="0.649730013683438">
        <ele>43</ele>
        <time>2018-02-18T10:17:51Z</time>
      </trkpt>
      <trkpt lat="51.691469019278884" lon="0.649771001189947">
        <ele>43</ele>
        <time>2018-02-18T10:17:52Z</time>
      </trkpt>
      <trkpt lat="51.691471030935645" lon="0.649807965382934">
        <ele>43</ele>
        <time>2018-02-18T10:17:53Z</time>
      </trkpt>
      <trkpt lat="51.691472036764026" lon="0.649848030880094">
        <ele>43</ele>
        <time>2018-02-18T10:17:54Z</time>
      </trkpt>
      <trkpt lat="51.691474970430136" lon="0.649888012558222">
        <ele>43</ele>
        <time>2018-02-18T10:17:55Z</time>
      </trkpt>
      <trkpt lat="51.691481005400419" lon="0.649925982579589">
        <ele>43</ele>
        <time>2018-02-18T10:17:56Z</time>
      </trkpt>
      <trkpt lat="51.691485028713942" lon="0.649966970086098">
        <ele>42.070003200000002</ele>
        <time>2018-02-18T10:17:57Z</time>
      </trkpt>
      <trkpt lat="51.691487962380052" lon="0.650007035583258">
        <ele>42</ele>
        <time>2018-02-18T10:17:58Z</time>
      </trkpt>
      <trkpt lat="51.691489974036813" lon="0.650048023089767">
        <ele>42</ele>
        <time>2018-02-18T10:17:59Z</time>
      </trkpt>
      <trkpt lat="51.691490979865193" lon="0.650086998939514">
        <ele>42</ele>
        <time>2018-02-18T10:18:00Z</time>
      </trkpt>
      <trkpt lat="51.691491985693574" lon="0.650125974789262">
        <ele>41.0606001835977</ele>
        <time>2018-02-18T10:18:01Z</time>
      </trkpt>
      <trkpt lat="51.691487040370703" lon="0.650164028629661">
        <ele>41</ele>
        <time>2018-02-18T10:18:02Z</time>
      </trkpt>
      <trkpt lat="51.691473964601755" lon="0.650196969509125">
        <ele>41</ele>
        <time>2018-02-18T10:18:03Z</time>
      </trkpt>
      <trkpt lat="51.691455021500587" lon="0.650221025571227">
        <ele>41</ele>
        <time>2018-02-18T10:18:04Z</time>
      </trkpt>
      <trkpt lat="51.691433982923627" lon="0.650238962844014">
        <ele>40.122639231029297</ele>
        <time>2018-02-18T10:18:05Z</time>
      </trkpt>
      <trkpt lat="51.691413028165698" lon="0.650252960622311">
        <ele>39.976741878510097</ele>
        <time>2018-02-18T10:18:06Z</time>
      </trkpt>
      <trkpt lat="51.691391989588737" lon="0.650265030562878">
        <ele>39.201553848901597</ele>
        <time>2018-02-18T10:18:07Z</time>
      </trkpt>
      <trkpt lat="51.691370029002428" lon="0.650272993370891">
        <ele>39</ele>
        <time>2018-02-18T10:18:08Z</time>
      </trkpt>
      <trkpt lat="51.691347984597087" lon="0.650279028341174">
        <ele>39</ele>
        <time>2018-02-18T10:18:09Z</time>
      </trkpt>
      <trkpt lat="51.691325018182397" lon="0.650285985320807">
        <ele>39</ele>
        <time>2018-02-18T10:18:10Z</time>
      </trkpt>
      <trkpt lat="51.691299034282565" lon="0.65029202029109">
        <ele>39</ele>
        <time>2018-02-18T10:18:11Z</time>
      </trkpt>
      <trkpt lat="51.691274978220463" lon="0.650303000584245">
        <ele>39</ele>
        <time>2018-02-18T10:18:12Z</time>
      </trkpt>
      <trkpt lat="51.691252011805773" lon="0.650310963392258">
        <ele>39</ele>
        <time>2018-02-18T10:18:13Z</time>
      </trkpt>
      <trkpt lat="51.691229967400432" lon="0.650322027504444">
        <ele>39</ele>
        <time>2018-02-18T10:18:14Z</time>
      </trkpt>
      <trkpt lat="51.691208006814122" lon="0.650333007797599">
        <ele>39</ele>
        <time>2018-02-18T10:18:15Z</time>
      </trkpt>
      <trkpt lat="51.691185040399432" lon="0.650344993919134">
        <ele>39</ele>
        <time>2018-02-18T10:18:16Z</time>
      </trkpt>
      <trkpt lat="51.69116098433733" lon="0.65035798586905">
        <ele>38.070003200000002</ele>
        <time>2018-02-18T10:18:17Z</time>
      </trkpt>
      <trkpt lat="51.69113902375102" lon="0.650370977818966">
        <ele>38</ele>
        <time>2018-02-18T10:18:18Z</time>
      </trkpt>
      <trkpt lat="51.691116979345679" lon="0.650384975597262">
        <ele>36.042118594968898</ele>
        <time>2018-02-18T10:18:19Z</time>
      </trkpt>
      <trkpt lat="51.691094012930989" lon="0.650398973375559">
        <ele>36</ele>
        <time>2018-02-18T10:18:20Z</time>
      </trkpt>
      <trkpt lat="51.691068029031157" lon="0.650410959497094">
        <ele>35</ele>
        <time>2018-02-18T10:18:21Z</time>
      </trkpt>
      <trkpt lat="51.691045984625816" lon="0.650423029437661">
        <ele>35</ele>
        <time>2018-02-18T10:18:22Z</time>
      </trkpt>
      <trkpt lat="51.691025029867887" lon="0.650430992245674">
        <ele>35</ele>
        <time>2018-02-18T10:18:23Z</time>
      </trkpt>
      <trkpt lat="51.691008014604449" lon="0.650442978367209">
        <ele>35</ele>
        <time>2018-02-18T10:18:24Z</time>
      </trkpt>
      <trkpt lat="51.690969038754702" lon="0.650457981973886">
        <ele>35</ele>
        <time>2018-02-18T10:18:26Z</time>
      </trkpt>
      <trkpt lat="51.690950011834502" lon="0.650468040257692">
        <ele>35</ele>
        <time>2018-02-18T10:18:27Z</time>
      </trkpt>
      <trkpt lat="51.690928973257542" lon="0.650481032207608">
        <ele>35</ele>
        <time>2018-02-18T10:18:28Z</time>
      </trkpt>
      <trkpt lat="51.690896032378078" lon="0.650500981137156">
        <ele>35</ele>
        <time>2018-02-18T10:18:30Z</time>
      </trkpt>
      <trkpt lat="51.690862001851201" lon="0.650522019714117">
        <ele>35</ele>
        <time>2018-02-18T10:18:32Z</time>
      </trkpt>
      <trkpt lat="51.690829982981086" lon="0.65052998252213">
        <ele>35</ele>
        <time>2018-02-18T10:18:34Z</time>
      </trkpt>
      <trkpt lat="51.690802993252873" lon="0.650530988350511">
        <ele>35</ele>
        <time>2018-02-18T10:18:35Z</time>
      </trkpt>
      <trkpt lat="51.690781032666564" lon="0.650533000007272">
        <ele>35</ele>
        <time>2018-02-18T10:18:36Z</time>
      </trkpt>
      <trkpt lat="51.690756976604462" lon="0.650530988350511">
        <ele>35</ele>
        <time>2018-02-18T10:18:37Z</time>
      </trkpt>
      <trkpt lat="51.690733004361391" lon="0.650526965036988">
        <ele>35</ele>
        <time>2018-02-18T10:18:38Z</time>
      </trkpt>
      <trkpt lat="51.69071095995605" lon="0.650521013885736">
        <ele>35</ele>
        <time>2018-02-18T10:18:39Z</time>
      </trkpt>
      <trkpt lat="51.690686987712979" lon="0.650513973087072">
        <ele>35</ele>
        <time>2018-02-18T10:18:40Z</time>
      </trkpt>
      <trkpt lat="51.69066502712667" lon="0.650501986965537">
        <ele>35</ele>
        <time>2018-02-18T10:18:41Z</time>
      </trkpt>
      <trkpt lat="51.690648011863232" lon="0.650482038035989">
        <ele>35</ele>
        <time>2018-02-18T10:18:42Z</time>
      </trkpt>
      <trkpt lat="51.69062496162951" lon="0.65046401694417">
        <ele>35</ele>
        <time>2018-02-18T10:18:43Z</time>
      </trkpt>
      <trkpt lat="51.690605012699962" lon="0.650451024994254">
        <ele>35</ele>
        <time>2018-02-18T10:18:44Z</time>
      </trkpt>
      <trkpt lat="51.690586991608143" lon="0.650435015559196">
        <ele>35</ele>
        <time>2018-02-18T10:18:45Z</time>
      </trkpt>
      <trkpt lat="51.690568970516324" lon="0.650414982810616">
        <ele>35</ele>
        <time>2018-02-18T10:18:46Z</time>
      </trkpt>
      <trkpt lat="51.690552039071918" lon="0.650394028052688">
        <ele>35</ele>
        <time>2018-02-18T10:18:47Z</time>
      </trkpt>
      <trkpt lat="51.690534017980099" lon="0.650373995304108">
        <ele>35</ele>
        <time>2018-02-18T10:18:48Z</time>
      </trkpt>
      <trkpt lat="51.69051599688828" lon="0.650351028889418">
        <ele>35</ele>
        <time>2018-02-18T10:18:49Z</time>
      </trkpt>
      <trkpt lat="51.690497975796461" lon="0.650327978655696">
        <ele>35</ele>
        <time>2018-02-18T10:18:50Z</time>
      </trkpt>
      <trkpt lat="51.69047299772501" lon="0.650308029726148">
        <ele>35</ele>
        <time>2018-02-18T10:18:51Z</time>
      </trkpt>
      <trkpt lat="51.690446007996798" lon="0.650287996977568">
        <ele>35</ele>
        <time>2018-02-18T10:18:52Z</time>
      </trkpt>
      <trkpt lat="51.690423963591456" lon="0.650267964228988">
        <ele>35</ele>
        <time>2018-02-18T10:18:53Z</time>
      </trkpt>
      <trkpt lat="51.690397979691625" lon="0.650250026956201">
        <ele>35</ele>
        <time>2018-02-18T10:18:54Z</time>
      </trkpt>
      <trkpt lat="51.690371995791793" lon="0.650231000036001">
        <ele>35</ele>
        <time>2018-02-18T10:18:55Z</time>
      </trkpt>
      <trkpt lat="51.690351041033864" lon="0.650212978944182">
        <ele>35.930690559772898</ele>
        <time>2018-02-18T10:18:56Z</time>
      </trkpt>
      <trkpt lat="51.690330002456903" lon="0.650196969509125">
        <ele>36</ele>
        <time>2018-02-18T10:18:57Z</time>
      </trkpt>
      <trkpt lat="51.690311981365085" lon="0.650182971730828">
        <ele>36</ele>
        <time>2018-02-18T10:18:58Z</time>
      </trkpt>
      <trkpt lat="51.690293038263917" lon="0.650166040286422">
        <ele>36</ele>
        <time>2018-02-18T10:18:59Z</time>
      </trkpt>
      <trkpt lat="51.69027803465724" lon="0.650146007537842">
        <ele>36</ele>
        <time>2018-02-18T10:19:00Z</time>
      </trkpt>
      <trkpt lat="51.690261019393802" lon="0.650117006152868">
        <ele>36</ele>
        <time>2018-02-18T10:19:01Z</time>
      </trkpt>
      <trkpt lat="51.690240986645222" lon="0.650094039738178">
        <ele>36</ele>
        <time>2018-02-18T10:19:02Z</time>
      </trkpt>
      <trkpt lat="51.690217014402151" lon="0.650073001161218">
        <ele>36</ele>
        <time>2018-02-18T10:19:03Z</time>
      </trkpt>
      <trkpt lat="51.69019496999681" lon="0.650051040574908">
        <ele>36.730768094680201</ele>
        <time>2018-02-18T10:19:04Z</time>
      </trkpt>
      <trkpt lat="51.690177032724023" lon="0.650032013654709">
        <ele>37</ele>
        <time>2018-02-18T10:19:05Z</time>
      </trkpt>
      <trkpt lat="51.690162029117346" lon="0.650009969249368">
        <ele>37</ele>
        <time>2018-02-18T10:19:06Z</time>
      </trkpt>
      <trkpt lat="51.690145013853908" lon="0.649990020319819">
        <ele>37</ele>
        <time>2018-02-18T10:19:07Z</time>
      </trkpt>
      <trkpt lat="51.690117018297315" lon="0.649962024763227">
        <ele>37</ele>
        <time>2018-02-18T10:19:09Z</time>
      </trkpt>
      <trkpt lat="51.69008600525558" lon="0.649939980357885">
        <ele>38</ele>
        <time>2018-02-18T10:19:11Z</time>
      </trkpt>
      <trkpt lat="51.690067984163761" lon="0.64992799423635">
        <ele>38</ele>
        <time>2018-02-18T10:19:12Z</time>
      </trkpt>
      <trkpt lat="51.690049041062593" lon="0.649919025599957">
        <ele>38</ele>
        <time>2018-02-18T10:19:13Z</time>
      </trkpt>
      <trkpt lat="51.690029008314013" lon="0.649913996458054">
        <ele>38</ele>
        <time>2018-02-18T10:19:14Z</time>
      </trkpt>
      <trkpt lat="51.690009981393814" lon="0.649911984801292">
        <ele>38</ele>
        <time>2018-02-18T10:19:15Z</time>
      </trkpt>
      <trkpt lat="51.689991038292646" lon="0.649909973144531">
        <ele>38</ele>
        <time>2018-02-18T10:19:16Z</time>
      </trkpt>
      <trkpt lat="51.689972011372447" lon="0.649915002286434">
        <ele>38</ele>
        <time>2018-02-18T10:19:17Z</time>
      </trkpt>
      <trkpt lat="51.689950972795486" lon="0.649922965094447">
        <ele>38.959596090194502</ele>
        <time>2018-02-18T10:19:18Z</time>
      </trkpt>
      <trkpt lat="51.689927000552416" lon="0.649930005893111">
        <ele>39</ele>
        <time>2018-02-18T10:19:19Z</time>
      </trkpt>
      <trkpt lat="51.689911996945739" lon="0.649940986186266">
        <ele>39</ele>
        <time>2018-02-18T10:19:20Z</time>
      </trkpt>
      <trkpt lat="51.689889030531049" lon="0.649951966479421">
        <ele>39</ele>
        <time>2018-02-18T10:19:21Z</time>
      </trkpt>
      <trkpt lat="51.689868997782469" lon="0.649963030591607">
        <ele>39</ele>
        <time>2018-02-18T10:19:22Z</time>
      </trkpt>
      <trkpt lat="51.689849970862269" lon="0.649976022541523">
        <ele>39</ele>
        <time>2018-02-18T10:19:23Z</time>
      </trkpt>
      <trkpt lat="51.689831027761102" lon="0.649989014491439">
        <ele>39</ele>
        <time>2018-02-18T10:19:24Z</time>
      </trkpt>
      <trkpt lat="51.689813006669283" lon="0.650002006441355">
        <ele>39</ele>
        <time>2018-02-18T10:19:25Z</time>
      </trkpt>
      <trkpt lat="51.689795991405845" lon="0.650011980906129">
        <ele>39</ele>
        <time>2018-02-18T10:19:26Z</time>
      </trkpt>
      <trkpt lat="51.68976497836411" lon="0.650031007826328">
        <ele>39</ele>
        <time>2018-02-18T10:19:28Z</time>
      </trkpt>
      <trkpt lat="51.689732959493995" lon="0.650043999776244">
        <ele>39</ele>
        <time>2018-02-18T10:19:30Z</time>
      </trkpt>
      <trkpt lat="51.689714016392827" lon="0.650050034746528">
        <ele>39.929996799999998</ele>
        <time>2018-02-18T10:19:31Z</time>
      </trkpt>
      <trkpt lat="51.689684009179473" lon="0.650060009211302">
        <ele>40</ele>
        <time>2018-02-18T10:19:33Z</time>
      </trkpt>
      <trkpt lat="51.689658025279641" lon="0.650075012817979">
        <ele>40</ele>
        <time>2018-02-18T10:19:35Z</time>
      </trkpt>
      <trkpt lat="51.689626006409526" lon="0.650089010596275">
        <ele>40</ele>
        <time>2018-02-18T10:19:37Z</time>
      </trkpt>
      <trkpt lat="51.689597005024552" lon="0.650106025859714">
        <ele>41</ele>
        <time>2018-02-18T10:19:39Z</time>
      </trkpt>
      <trkpt lat="51.689566997811198" lon="0.650121029466391">
        <ele>41</ele>
        <time>2018-02-18T10:19:41Z</time>
      </trkpt>
      <trkpt lat="51.689535984769464" lon="0.650133015587926">
        <ele>42</ele>
        <time>2018-02-18T10:19:43Z</time>
      </trkpt>
      <trkpt lat="51.689515030011535" lon="0.650149025022984">
        <ele>42</ele>
        <time>2018-02-18T10:19:45Z</time>
      </trkpt>
      <trkpt lat="51.689488040283322" lon="0.650165034458041">
        <ele>42.099993599999998</ele>
        <time>2018-02-18T10:19:47Z</time>
      </trkpt>
      <trkpt lat="51.689455015584826" lon="0.65018598921597">
        <ele>44</ele>
        <time>2018-02-18T10:19:49Z</time>
      </trkpt>
      <trkpt lat="51.689434982836246" lon="0.650193030014634">
        <ele>44</ele>
        <time>2018-02-18T10:19:50Z</time>
      </trkpt>
      <trkpt lat="51.689414028078318" lon="0.650201998651028">
        <ele>44</ele>
        <time>2018-02-18T10:19:51Z</time>
      </trkpt>
      <trkpt lat="51.689393995329738" lon="0.650212978944182">
        <ele>44</ele>
        <time>2018-02-18T10:19:52Z</time>
      </trkpt>
      <trkpt lat="51.689371028915048" lon="0.650224965065718">
        <ele>44</ele>
        <time>2018-02-18T10:19:53Z</time>
      </trkpt>
      <trkpt lat="51.689349990338087" lon="0.650236029177904">
        <ele>45</ele>
        <time>2018-02-18T10:19:54Z</time>
      </trkpt>
      <trkpt lat="51.689330041408539" lon="0.650243991985917">
        <ele>45</ele>
        <time>2018-02-18T10:19:55Z</time>
      </trkpt>
      <trkpt lat="51.689309002831578" lon="0.650253966450691">
        <ele>45.047616145115903</ele>
        <time>2018-02-18T10:19:56Z</time>
      </trkpt>
      <trkpt lat="51.68929198756814" lon="0.650264024734497">
        <ele>46</ele>
        <time>2018-02-18T10:19:57Z</time>
      </trkpt>
      <trkpt lat="51.689272038638592" lon="0.650277016684413">
        <ele>46.060005631927901</ele>
        <time>2018-02-18T10:19:58Z</time>
      </trkpt>
      <trkpt lat="51.689237002283335" lon="0.650293026119471">
        <ele>47</ele>
        <time>2018-02-18T10:20:00Z</time>
      </trkpt>
      <trkpt lat="51.689217975363135" lon="0.650297971442342">
        <ele>47</ele>
        <time>2018-02-18T10:20:01Z</time>
      </trkpt>
      <trkpt lat="51.689200960099697" lon="0.650306018069386">
        <ele>47</ele>
        <time>2018-02-18T10:20:02Z</time>
      </trkpt>
      <trkpt lat="51.68918302282691" lon="0.650327978655696">
        <ele>47</ele>
        <time>2018-02-18T10:20:04Z</time>
      </trkpt>
      <trkpt lat="51.689153015613556" lon="0.650339964777231">
        <ele>47</ele>
        <time>2018-02-18T10:20:06Z</time>
      </trkpt>
      <trkpt lat="51.689132982864976" lon="0.650348011404276">
        <ele>47</ele>
        <time>2018-02-18T10:20:07Z</time>
      </trkpt>
      <trkpt lat="51.689105993136764" lon="0.650356980040669">
        <ele>47.8718020250423</ele>
        <time>2018-02-18T10:20:08Z</time>
      </trkpt>
      <trkpt lat="51.689086966216564" lon="0.650365026667714">
        <ele>48</ele>
        <time>2018-02-18T10:20:09Z</time>
      </trkpt>
      <trkpt lat="51.689053019508719" lon="0.65037801861763">
        <ele>48</ele>
        <time>2018-02-18T10:20:11Z</time>
      </trkpt>
      <trkpt lat="51.689028963446617" lon="0.650386987254024">
        <ele>48.049996800000002</ele>
        <time>2018-02-18T10:20:12Z</time>
      </trkpt>
      <trkpt lat="51.689009014517069" lon="0.650395033881068">
        <ele>49</ele>
        <time>2018-02-18T10:20:13Z</time>
      </trkpt>
      <trkpt lat="51.688972972333431" lon="0.650414982810616">
        <ele>49</ele>
        <time>2018-02-18T10:20:15Z</time>
      </trkpt>
      <trkpt lat="51.688938019797206" lon="0.650428980588913">
        <ele>49</ele>
        <time>2018-02-18T10:20:17Z</time>
      </trkpt>
      <trkpt lat="51.688898960128427" lon="0.650450019165874">
        <ele>50</ele>
        <time>2018-02-18T10:20:19Z</time>
      </trkpt>
      <trkpt lat="51.688865013420582" lon="0.65046401694417">
        <ele>50</ele>
        <time>2018-02-18T10:20:21Z</time>
      </trkpt>
      <trkpt lat="51.688844980672002" lon="0.650472985580564">
        <ele>50</ele>
        <time>2018-02-18T10:20:22Z</time>
      </trkpt>
      <trkpt lat="51.688826037570834" lon="0.650484971702099">
        <ele>50</ele>
        <time>2018-02-18T10:20:23Z</time>
      </trkpt>
      <trkpt lat="51.688807010650635" lon="0.650497963652015">
        <ele>50</ele>
        <time>2018-02-18T10:20:24Z</time>
      </trkpt>
      <trkpt lat="51.688782032579184" lon="0.650511961430311">
        <ele>50</ele>
        <time>2018-02-18T10:20:25Z</time>
      </trkpt>
      <trkpt lat="51.688763005658984" lon="0.650523025542498">
        <ele>50.0505016549441</ele>
        <time>2018-02-18T10:20:26Z</time>
      </trkpt>
      <trkpt lat="51.688727969303727" lon="0.650545991957188">
        <ele>51</ele>
        <time>2018-02-18T10:20:28Z</time>
      </trkpt>
      <trkpt lat="51.688698967918754" lon="0.650564013049006">
        <ele>51</ele>
        <time>2018-02-18T10:20:30Z</time>
      </trkpt>
      <trkpt lat="51.688666027039289" lon="0.650580022484064">
        <ele>51</ele>
        <time>2018-02-18T10:20:32Z</time>
      </trkpt>
      <trkpt lat="51.688635013997555" lon="0.650596031919122">
        <ele>51.030003200000003</ele>
        <time>2018-02-18T10:20:34Z</time>
      </trkpt>
      <trkpt lat="51.688607018440962" lon="0.650613969191909">
        <ele>52</ele>
        <time>2018-02-18T10:20:36Z</time>
      </trkpt>
      <trkpt lat="51.688578017055988" lon="0.65063601359725">
        <ele>52</ele>
        <time>2018-02-18T10:20:38Z</time>
      </trkpt>
      <trkpt lat="51.688557984307408" lon="0.650657974183559">
        <ele>52</ele>
        <time>2018-02-18T10:20:40Z</time>
      </trkpt>
      <trkpt lat="51.688541974872351" lon="0.650673983618617">
        <ele>52</ele>
        <time>2018-02-18T10:20:42Z</time>
      </trkpt>
      <trkpt lat="51.688552033156157" lon="0.650704996660352">
        <ele>52</ele>
        <time>2018-02-18T10:20:54Z</time>
      </trkpt>
      <trkpt lat="51.688539041206241" lon="0.650699967518449">
        <ele>53</ele>
        <time>2018-02-18T10:21:16Z</time>
      </trkpt>
      <trkpt lat="51.688558990135789" lon="0.650706002488732">
        <ele>52</ele>
        <time>2018-02-18T10:21:22Z</time>
      </trkpt>
      <trkpt lat="51.68858296237886" lon="0.650713965296745">
        <ele>52</ele>
        <time>2018-02-18T10:21:25Z</time>
      </trkpt>
      <trkpt lat="51.688606012612581" lon="0.650713965296745">
        <ele>52</ele>
        <time>2018-02-18T10:21:27Z</time>
      </trkpt>
      <trkpt lat="51.688620010390878" lon="0.650739027187228">
        <ele>52</ele>
        <time>2018-02-18T10:21:30Z</time>
      </trkpt>
      <trkpt lat="51.688638031482697" lon="0.650753024965525">
        <ele>52</ele>
        <time>2018-02-18T10:21:33Z</time>
      </trkpt>
      <trkpt lat="51.688658986240625" lon="0.650766016915441">
        <ele>52</ele>
        <time>2018-02-18T10:21:36Z</time>
      </trkpt>
      <trkpt lat="51.688668038696051" lon="0.650794012472034">
        <ele>52</ele>
        <time>2018-02-18T10:21:38Z</time>
      </trkpt>
      <trkpt lat="51.688678013160825" lon="0.650822008028626">
        <ele>52</ele>
        <time>2018-02-18T10:21:40Z</time>
      </trkpt>
      <trkpt lat="51.688686981797218" lon="0.650853021070361">
        <ele>52</ele>
        <time>2018-02-18T10:21:42Z</time>
      </trkpt>
      <trkpt lat="51.688683964312077" lon="0.650891996920109">
        <ele>52</ele>
        <time>2018-02-18T10:21:44Z</time>
      </trkpt>
      <trkpt lat="51.688685975968838" lon="0.650928961113095">
        <ele>52</ele>
        <time>2018-02-18T10:21:46Z</time>
      </trkpt>
      <trkpt lat="51.688711037859321" lon="0.650941031053662">
        <ele>52</ele>
        <time>2018-02-18T10:21:57Z</time>
      </trkpt>
      <trkpt lat="51.688726963475347" lon="0.650956034660339">
        <ele>52</ele>
        <time>2018-02-18T10:21:59Z</time>
      </trkpt>
      <trkpt lat="51.688751019537449" lon="0.650955028831959">
        <ele>52</ele>
        <time>2018-02-18T10:22:02Z</time>
      </trkpt>
      <trkpt lat="51.688769040629268" lon="0.650973971933126">
        <ele>52</ele>
        <time>2018-02-18T10:22:06Z</time>
      </trkpt>
      <trkpt lat="51.688785972073674" lon="0.650995010510087">
        <ele>52</ele>
        <time>2018-02-18T10:22:08Z</time>
      </trkpt>
      <trkpt lat="51.688791001215577" lon="0.651028035208583">
        <ele>52</ele>
        <time>2018-02-18T10:22:12Z</time>
      </trkpt>
      <trkpt lat="51.688811033964157" lon="0.651048989966512">
        <ele>51</ele>
        <time>2018-02-18T10:22:15Z</time>
      </trkpt>
      <trkpt lat="51.688832994550467" lon="0.651072962209582">
        <ele>51</ele>
        <time>2018-02-18T10:22:18Z</time>
      </trkpt>
      <trkpt lat="51.688835006207228" lon="0.651104981079698">
        <ele>51</ele>
        <time>2018-02-18T10:22:23Z</time>
      </trkpt>
      <trkpt lat="51.688856966793537" lon="0.651118978857994">
        <ele>51</ele>
        <time>2018-02-18T10:22:26Z</time>
      </trkpt>
      <trkpt lat="51.688875993713737" lon="0.651128031313419">
        <ele>51</ele>
        <time>2018-02-18T10:22:28Z</time>
      </trkpt>
      <trkpt lat="51.688899965956807" lon="0.651144040748477">
        <ele>51</ele>
        <time>2018-02-18T10:22:30Z</time>
      </trkpt>
      <trkpt lat="51.688916981220245" lon="0.651166001334786">
        <ele>51</ele>
        <time>2018-02-18T10:22:32Z</time>
      </trkpt>
      <trkpt lat="51.688936008140445" lon="0.651183016598225">
        <ele>51</ele>
        <time>2018-02-18T10:22:34Z</time>
      </trkpt>
      <trkpt lat="51.688956040889025" lon="0.651200031861663">
        <ele>51</ele>
        <time>2018-02-18T10:22:36Z</time>
      </trkpt>
      <trkpt lat="51.688974983990192" lon="0.65121796913445">
        <ele>51</ele>
        <time>2018-02-18T10:22:38Z</time>
      </trkpt>
      <trkpt lat="51.688997028395534" lon="0.651233978569508">
        <ele>51</ele>
        <time>2018-02-18T10:22:40Z</time>
      </trkpt>
      <trkpt lat="51.68901395983994" lon="0.651256022974849">
        <ele>51</ele>
        <time>2018-02-18T10:22:42Z</time>
      </trkpt>
      <trkpt lat="51.689029969274998" lon="0.651272032409906">
        <ele>51</ele>
        <time>2018-02-18T10:22:44Z</time>
      </trkpt>
      <trkpt lat="51.689048996195197" lon="0.651291981339455">
        <ele>51</ele>
        <time>2018-02-18T10:22:46Z</time>
      </trkpt>
      <trkpt lat="51.689062993973494" lon="0.651317965239286">
        <ele>50</ele>
        <time>2018-02-18T10:22:48Z</time>
      </trkpt>
      <trkpt lat="51.689080009236932" lon="0.651336992159486">
        <ele>51</ele>
        <time>2018-02-18T10:22:50Z</time>
      </trkpt>
      <trkpt lat="51.689099036157131" lon="0.651361970230937">
        <ele>51</ele>
        <time>2018-02-18T10:22:52Z</time>
      </trkpt>
      <trkpt lat="51.689115967601538" lon="0.651380997151136">
        <ele>51</ele>
        <time>2018-02-18T10:22:54Z</time>
      </trkpt>
      <trkpt lat="51.689137006178498" lon="0.651397006586194">
        <ele>51</ele>
        <time>2018-02-18T10:22:56Z</time>
      </trkpt>
      <trkpt lat="51.689155027270317" lon="0.651412010192871">
        <ele>50.969996799999997</ele>
        <time>2018-02-18T10:22:58Z</time>
      </trkpt>
      <trkpt lat="51.689171036705375" lon="0.651427013799548">
        <ele>50</ele>
        <time>2018-02-18T10:23:00Z</time>
      </trkpt>
      <trkpt lat="51.689191991463304" lon="0.651442017406225">
        <ele>50</ele>
        <time>2018-02-18T10:23:02Z</time>
      </trkpt>
      <trkpt lat="51.689213030040264" lon="0.651459032669663">
        <ele>50</ele>
        <time>2018-02-18T10:23:04Z</time>
      </trkpt>
      <trkpt lat="51.689237002283335" lon="0.651474958285689">
        <ele>50</ele>
        <time>2018-02-18T10:23:06Z</time>
      </trkpt>
      <trkpt lat="51.689258962869644" lon="0.651489961892366">
        <ele>50</ele>
        <time>2018-02-18T10:23:08Z</time>
      </trkpt>
      <trkpt lat="51.689278995618224" lon="0.651507982984185">
        <ele>50</ele>
        <time>2018-02-18T10:23:10Z</time>
      </trkpt>
      <trkpt lat="51.689301962032914" lon="0.651521980762482">
        <ele>50</ele>
        <time>2018-02-18T10:23:12Z</time>
      </trkpt>
      <trkpt lat="51.689324006438255" lon="0.651536984369159">
        <ele>50</ele>
        <time>2018-02-18T10:23:14Z</time>
      </trkpt>
      <trkpt lat="51.689344961196184" lon="0.651543019339442">
        <ele>50</ele>
        <time>2018-02-18T10:23:16Z</time>
      </trkpt>
      <trkpt lat="51.689364993944764" lon="0.651550982147455">
        <ele>50</ele>
        <time>2018-02-18T10:23:18Z</time>
      </trkpt>
      <trkpt lat="51.689388966187835" lon="0.6515590287745">
        <ele>50</ele>
        <time>2018-02-18T10:23:21Z</time>
      </trkpt>
      <trkpt lat="51.689410004764795" lon="0.651562968268991">
        <ele>49</ele>
        <time>2018-02-18T10:23:23Z</time>
      </trkpt>
      <trkpt lat="51.689430959522724" lon="0.651572020724416">
        <ele>49</ele>
        <time>2018-02-18T10:23:25Z</time>
      </trkpt>
      <trkpt lat="51.689453003928065" lon="0.651580989360809">
        <ele>49</ele>
        <time>2018-02-18T10:23:27Z</time>
      </trkpt>
      <trkpt lat="51.689478987827897" lon="0.651585012674332">
        <ele>49</ele>
        <time>2018-02-18T10:23:29Z</time>
      </trkpt>
      <trkpt lat="51.689503965899348" lon="0.651589035987854">
        <ele>49</ele>
        <time>2018-02-18T10:23:31Z</time>
      </trkpt>
      <trkpt lat="51.689519975334406" lon="0.65160303376615">
        <ele>49</ele>
        <time>2018-02-18T10:23:33Z</time>
      </trkpt>
      <trkpt lat="51.689525004476309" lon="0.651641003787518">
        <ele>50</ele>
        <time>2018-02-18T10:23:43Z</time>
      </trkpt>
      <trkpt lat="51.689531961455941" lon="0.651670005172491">
        <ele>50</ele>
        <time>2018-02-18T10:23:46Z</time>
      </trkpt>
      <trkpt lat="51.689531039446592" lon="0.651698000729084">
        <ele>49</ele>
        <time>2018-02-18T10:24:06Z</time>
      </trkpt>
      <trkpt lat="51.689541013911366" lon="0.651724990457296">
        <ele>49</ele>
        <time>2018-02-18T10:24:27Z</time>
      </trkpt>
      <trkpt lat="51.689540008082986" lon="0.651756003499031">
        <ele>49</ele>
        <time>2018-02-18T10:24:29Z</time>
      </trkpt>
      <trkpt lat="51.689539002254605" lon="0.651791039854288">
        <ele>49</ele>
        <time>2018-02-18T10:24:31Z</time>
      </trkpt>
      <trkpt lat="51.689545037224889" lon="0.651830015704036">
        <ele>49</ele>
        <time>2018-02-18T10:24:34Z</time>
      </trkpt>
      <trkpt lat="51.689560040831566" lon="0.651863040402532">
        <ele>49</ele>
        <time>2018-02-18T10:24:36Z</time>
      </trkpt>
      <trkpt lat="51.689575966447592" lon="0.651892041787505">
        <ele>48</ele>
        <time>2018-02-18T10:24:38Z</time>
      </trkpt>
      <trkpt lat="51.689582001417875" lon="0.651924982666969">
        <ele>48</ele>
        <time>2018-02-18T10:24:40Z</time>
      </trkpt>
      <trkpt lat="51.689583007246256" lon="0.651961024850607">
        <ele>48</ele>
        <time>2018-02-18T10:24:42Z</time>
      </trkpt>
      <trkpt lat="51.689588036388159" lon="0.651998994871974">
        <ele>48.929996799999998</ele>
        <time>2018-02-18T10:24:44Z</time>
      </trkpt>
      <trkpt lat="51.689597005024552" lon="0.652035037055612">
        <ele>48.284614324255102</ele>
        <time>2018-02-18T10:24:46Z</time>
      </trkpt>
      <trkpt lat="51.68961301445961" lon="0.652074012905359">
        <ele>48</ele>
        <time>2018-02-18T10:24:48Z</time>
      </trkpt>
      <trkpt lat="51.689628018066287" lon="0.652107959613204">
        <ele>48</ele>
        <time>2018-02-18T10:24:50Z</time>
      </trkpt>
      <trkpt lat="51.689637992531061" lon="0.652134027332067">
        <ele>48</ele>
        <time>2018-02-18T10:24:52Z</time>
      </trkpt>
      <trkpt lat="51.689658025279641" lon="0.65216101706028">
        <ele>48</ele>
        <time>2018-02-18T10:24:54Z</time>
      </trkpt>
      <trkpt lat="51.689676968380809" lon="0.652194963768125">
        <ele>48</ele>
        <time>2018-02-18T10:24:56Z</time>
      </trkpt>
      <trkpt lat="51.689695995301008" lon="0.652232011780143">
        <ele>48</ele>
        <time>2018-02-18T10:24:58Z</time>
      </trkpt>
      <trkpt lat="51.689712004736066" lon="0.652263024821877">
        <ele>48</ele>
        <time>2018-02-18T10:25:00Z</time>
      </trkpt>
      <trkpt lat="51.689731031656265" lon="0.652303006500006">
        <ele>48</ele>
        <time>2018-02-18T10:25:02Z</time>
      </trkpt>
      <trkpt lat="51.68974201194942" lon="0.652327984571457">
        <ele>48</ele>
        <time>2018-02-18T10:25:03Z</time>
      </trkpt>
      <trkpt lat="51.689760033041239" lon="0.652380036190152">
        <ele>48</ele>
        <time>2018-02-18T10:25:05Z</time>
      </trkpt>
      <trkpt lat="51.689766990020871" lon="0.652409959584475">
        <ele>48</ele>
        <time>2018-02-18T10:25:06Z</time>
      </trkpt>
      <trkpt lat="51.689775958657265" lon="0.652437033131719">
        <ele>48</ele>
        <time>2018-02-18T10:25:07Z</time>
      </trkpt>
      <trkpt lat="51.689784005284309" lon="0.652464022859931">
        <ele>48</ele>
        <time>2018-02-18T10:25:08Z</time>
      </trkpt>
      <trkpt lat="51.689803032204509" lon="0.652515990659595">
        <ele>48</ele>
        <time>2018-02-18T10:25:10Z</time>
      </trkpt>
      <trkpt lat="51.689817029982805" lon="0.652538035064936">
        <ele>48</ele>
        <time>2018-02-18T10:25:11Z</time>
      </trkpt>
      <trkpt lat="51.689831027761102" lon="0.652564018964767">
        <ele>48</ele>
        <time>2018-02-18T10:25:12Z</time>
      </trkpt>
      <trkpt lat="51.689843013882637" lon="0.65259100869298">
        <ele>47.9799938560786</ele>
        <time>2018-02-18T10:25:13Z</time>
      </trkpt>
      <trkpt lat="51.689855000004172" lon="0.652616992592812">
        <ele>47</ele>
        <time>2018-02-18T10:25:14Z</time>
      </trkpt>
      <trkpt lat="51.689867991954088" lon="0.652645993977785">
        <ele>47</ele>
        <time>2018-02-18T10:25:15Z</time>
      </trkpt>
      <trkpt lat="51.689879978075624" lon="0.652672983705997">
        <ele>47</ele>
        <time>2018-02-18T10:25:16Z</time>
      </trkpt>
      <trkpt lat="51.689889030531049" lon="0.652697961777449">
        <ele>47</ele>
        <time>2018-02-18T10:25:17Z</time>
      </trkpt>
      <trkpt lat="51.689900010824203" lon="0.652722017839551">
        <ele>46.9702937672674</ele>
        <time>2018-02-18T10:25:18Z</time>
      </trkpt>
      <trkpt lat="51.689910991117358" lon="0.652745990082622">
        <ele>46</ele>
        <time>2018-02-18T10:25:19Z</time>
      </trkpt>
      <trkpt lat="51.689923983067274" lon="0.652768034487963">
        <ele>46</ele>
        <time>2018-02-18T10:25:20Z</time>
      </trkpt>
      <trkpt lat="51.689934963360429" lon="0.652795024216175">
        <ele>45.960395914125698</ele>
        <time>2018-02-18T10:25:21Z</time>
      </trkpt>
      <trkpt lat="51.689944015815854" lon="0.652822013944387">
        <ele>45</ele>
        <time>2018-02-18T10:25:22Z</time>
      </trkpt>
      <trkpt lat="51.689953990280628" lon="0.652855960652232">
        <ele>45</ele>
        <time>2018-02-18T10:25:23Z</time>
      </trkpt>
      <trkpt lat="51.689961031079292" lon="0.65289300866425">
        <ele>45</ele>
        <time>2018-02-18T10:25:24Z</time>
      </trkpt>
      <trkpt lat="51.689973017200828" lon="0.652926033362746">
        <ele>45</ele>
        <time>2018-02-18T10:25:25Z</time>
      </trkpt>
      <trkpt lat="51.689986009150743" lon="0.65295796841383">
        <ele>45</ele>
        <time>2018-02-18T10:25:26Z</time>
      </trkpt>
      <trkpt lat="51.689996989443898" lon="0.652989987283945">
        <ele>45</ele>
        <time>2018-02-18T10:25:27Z</time>
      </trkpt>
      <trkpt lat="51.690007969737053" lon="0.65302200615406">
        <ele>45</ele>
        <time>2018-02-18T10:25:28Z</time>
      </trkpt>
      <trkpt lat="51.690020961686969" lon="0.653051007539034">
        <ele>45</ele>
        <time>2018-02-18T10:25:29Z</time>
      </trkpt>
      <trkpt lat="51.690032025799155" lon="0.653075985610485">
        <ele>45</ele>
        <time>2018-02-18T10:25:30Z</time>
      </trkpt>
      <trkpt lat="51.690047029405832" lon="0.653100963681936">
        <ele>45</ele>
        <time>2018-02-18T10:25:31Z</time>
      </trkpt>
      <trkpt lat="51.690061027184129" lon="0.653125019744039">
        <ele>45</ele>
        <time>2018-02-18T10:25:32Z</time>
      </trkpt>
      <trkpt lat="51.690076030790806" lon="0.653155026957393">
        <ele>45</ele>
        <time>2018-02-18T10:25:33Z</time>
      </trkpt>
      <trkpt lat="51.690090028569102" lon="0.653187967836857">
        <ele>44.061230620534701</ele>
        <time>2018-02-18T10:25:34Z</time>
      </trkpt>
      <trkpt lat="51.690102014690638" lon="0.653219986706972">
        <ele>44</ele>
        <time>2018-02-18T10:25:35Z</time>
      </trkpt>
      <trkpt lat="51.690111989155412" lon="0.65325703471899">
        <ele>44</ele>
        <time>2018-02-18T10:25:36Z</time>
      </trkpt>
      <trkpt lat="51.690121963620186" lon="0.653290981426835">
        <ele>44</ele>
        <time>2018-02-18T10:25:37Z</time>
      </trkpt>
      <trkpt lat="51.690131016075611" lon="0.653325011953712">
        <ele>44</ele>
        <time>2018-02-18T10:25:38Z</time>
      </trkpt>
      <trkpt lat="51.690138978883624" lon="0.653358036652207">
        <ele>44</ele>
        <time>2018-02-18T10:25:39Z</time>
      </trkpt>
      <trkpt lat="51.690148031339049" lon="0.65338896587491">
        <ele>44</ele>
        <time>2018-02-18T10:25:40Z</time>
      </trkpt>
      <trkpt lat="51.690158005803823" lon="0.653420984745026">
        <ele>44</ele>
        <time>2018-02-18T10:25:41Z</time>
      </trkpt>
      <trkpt lat="51.690167980268598" lon="0.653457026928663">
        <ele>44</ele>
        <time>2018-02-18T10:25:42Z</time>
      </trkpt>
      <trkpt lat="51.690178960561752" lon="0.653490973636508">
        <ele>44</ele>
        <time>2018-02-18T10:25:43Z</time>
      </trkpt>
      <trkpt lat="51.690189018845558" lon="0.653527015820146">
        <ele>44</ele>
        <time>2018-02-18T10:25:44Z</time>
      </trkpt>
      <trkpt lat="51.690196981653571" lon="0.653560040518641">
        <ele>44</ele>
        <time>2018-02-18T10:25:45Z</time>
      </trkpt>
      <trkpt lat="51.690206034108996" lon="0.653589963912964">
        <ele>44</ele>
        <time>2018-02-18T10:25:46Z</time>
      </trkpt>
      <trkpt lat="51.690217014402151" lon="0.653621982783079">
        <ele>44</ele>
        <time>2018-02-18T10:25:47Z</time>
      </trkpt>
      <trkpt lat="51.690225983038545" lon="0.653651989996433">
        <ele>43.969996799999997</ele>
        <time>2018-02-18T10:25:48Z</time>
      </trkpt>
      <trkpt lat="51.690238974988461" lon="0.653683003038168">
        <ele>43</ele>
        <time>2018-02-18T10:25:49Z</time>
      </trkpt>
      <trkpt lat="51.690250039100647" lon="0.653717033565044">
        <ele>43</ele>
        <time>2018-02-18T10:25:50Z</time>
      </trkpt>
      <trkpt lat="51.690261019393802" lon="0.653749974444509">
        <ele>42.969996799999997</ele>
        <time>2018-02-18T10:25:51Z</time>
      </trkpt>
      <trkpt lat="51.690269988030195" lon="0.653785010799766">
        <ele>42</ele>
        <time>2018-02-18T10:25:52Z</time>
      </trkpt>
      <trkpt lat="51.69028096832335" lon="0.653818035498261">
        <ele>42</ele>
        <time>2018-02-18T10:25:53Z</time>
      </trkpt>
      <trkpt lat="51.690290020778775" lon="0.653847036883235">
        <ele>42</ele>
        <time>2018-02-18T10:25:54Z</time>
      </trkpt>
      <trkpt lat="51.690298989415169" lon="0.653879977762699">
        <ele>42</ele>
        <time>2018-02-18T10:25:55Z</time>
      </trkpt>
      <trkpt lat="51.690309969708323" lon="0.653915014117956">
        <ele>42</ele>
        <time>2018-02-18T10:25:56Z</time>
      </trkpt>
      <trkpt lat="51.690320027992129" lon="0.65394502133131">
        <ele>41</ele>
        <time>2018-02-18T10:25:57Z</time>
      </trkpt>
      <trkpt lat="51.690333019942045" lon="0.653975028544664">
        <ele>40.989799117055497</ele>
        <time>2018-02-18T10:25:58Z</time>
      </trkpt>
      <trkpt lat="51.6903440002352" lon="0.654004029929638">
        <ele>40</ele>
        <time>2018-02-18T10:25:59Z</time>
      </trkpt>
      <trkpt lat="51.690360009670258" lon="0.654029008001089">
        <ele>40</ele>
        <time>2018-02-18T10:26:00Z</time>
      </trkpt>
      <trkpt lat="51.690376019105315" lon="0.654049962759018">
        <ele>39.976741647731203</ele>
        <time>2018-02-18T10:26:01Z</time>
      </trkpt>
      <trkpt lat="51.690391022711992" lon="0.654067983850837">
        <ele>39.201545926315497</ele>
        <time>2018-02-18T10:26:02Z</time>
      </trkpt>
      <trkpt lat="51.690414994955063" lon="0.654100002720952">
        <ele>39</ele>
        <time>2018-02-18T10:26:04Z</time>
      </trkpt>
      <trkpt lat="51.690435027703643" lon="0.654140990227461">
        <ele>39</ele>
        <time>2018-02-18T10:26:06Z</time>
      </trkpt>
      <trkpt lat="51.690437961369753" lon="0.654170997440815">
        <ele>39</ele>
        <time>2018-02-18T10:26:07Z</time>
      </trkpt>
      <trkpt lat="51.690439973026514" lon="0.654226988554001">
        <ele>39</ele>
        <time>2018-02-18T10:26:09Z</time>
      </trkpt>
      <trkpt lat="51.690442990511656" lon="0.654256995767355">
        <ele>39</ele>
        <time>2018-02-18T10:26:10Z</time>
      </trkpt>
      <trkpt lat="51.6904510371387" lon="0.65428800880909">
        <ele>39</ele>
        <time>2018-02-18T10:26:11Z</time>
      </trkpt>
      <trkpt lat="51.690456988289952" lon="0.654319021850824">
        <ele>39</ele>
        <time>2018-02-18T10:26:12Z</time>
      </trkpt>
      <trkpt lat="51.690462017431855" lon="0.654351962730289">
        <ele>39</ele>
        <time>2018-02-18T10:26:13Z</time>
      </trkpt>
      <trkpt lat="51.690469980239868" lon="0.654381969943643">
        <ele>39</ele>
        <time>2018-02-18T10:26:14Z</time>
      </trkpt>
      <trkpt lat="51.690478026866913" lon="0.6544170062989">
        <ele>39</ele>
        <time>2018-02-18T10:26:15Z</time>
      </trkpt>
      <trkpt lat="51.690488001331687" lon="0.654452964663506">
        <ele>38.888878354034297</ele>
        <time>2018-02-18T10:26:16Z</time>
      </trkpt>
      <trkpt lat="51.690489007160068" lon="0.654488001018763">
        <ele>37.037048449796202</ele>
        <time>2018-02-18T10:26:17Z</time>
      </trkpt>
      <trkpt lat="51.690494958311319" lon="0.654522031545639">
        <ele>37</ele>
        <time>2018-02-18T10:26:18Z</time>
      </trkpt>
      <trkpt lat="51.690501999109983" lon="0.654554972425103">
        <ele>36</ele>
        <time>2018-02-18T10:26:19Z</time>
      </trkpt>
      <trkpt lat="51.690507028251886" lon="0.654587997123599">
        <ele>36</ele>
        <time>2018-02-18T10:26:20Z</time>
      </trkpt>
      <trkpt lat="51.690513985231519" lon="0.654622027650476">
        <ele>36</ele>
        <time>2018-02-18T10:26:21Z</time>
      </trkpt>
      <trkpt lat="51.690519014373422" lon="0.654653962701559">
        <ele>36</ele>
        <time>2018-02-18T10:26:22Z</time>
      </trkpt>
      <trkpt lat="51.690523037686944" lon="0.654688999056816">
        <ele>36</ele>
        <time>2018-02-18T10:26:23Z</time>
      </trkpt>
      <trkpt lat="51.690528988838196" lon="0.654722023755312">
        <ele>36</ele>
        <time>2018-02-18T10:26:24Z</time>
      </trkpt>
      <trkpt lat="51.690541980788112" lon="0.654753958806396">
        <ele>36</ele>
        <time>2018-02-18T10:26:25Z</time>
      </trkpt>
      <trkpt lat="51.690548015758395" lon="0.654786983504891">
        <ele>35</ele>
        <time>2018-02-18T10:26:26Z</time>
      </trkpt>
      <trkpt lat="51.690551033243537" lon="0.65482403151691">
        <ele>35</ele>
        <time>2018-02-18T10:26:27Z</time>
      </trkpt>
      <trkpt lat="51.690554972738028" lon="0.654857978224754">
        <ele>35</ele>
        <time>2018-02-18T10:26:28Z</time>
      </trkpt>
      <trkpt lat="51.690566036850214" lon="0.654912041500211">
        <ele>34.9702937672674</ele>
        <time>2018-02-18T10:26:30Z</time>
      </trkpt>
      <trkpt lat="51.690573999658227" lon="0.654941964894533">
        <ele>34</ele>
        <time>2018-02-18T10:26:31Z</time>
      </trkpt>
      <trkpt lat="51.690582968294621" lon="0.65497700124979">
        <ele>34</ele>
        <time>2018-02-18T10:26:32Z</time>
      </trkpt>
      <trkpt lat="51.690590009093285" lon="0.655015977099538">
        <ele>33.969996799999997</ele>
        <time>2018-02-18T10:26:33Z</time>
      </trkpt>
      <trkpt lat="51.690585985779762" lon="0.655100969597697">
        <ele>33</ele>
        <time>2018-02-18T10:26:35Z</time>
      </trkpt>
      <trkpt lat="51.690590009093285" lon="0.655141035094857">
        <ele>33</ele>
        <time>2018-02-18T10:26:36Z</time>
      </trkpt>
      <trkpt lat="51.690598977729678" lon="0.655177999287844">
        <ele>33</ele>
        <time>2018-02-18T10:26:37Z</time>
      </trkpt>
      <trkpt lat="51.690604006871581" lon="0.655215969309211">
        <ele>32.118812257622999</ele>
        <time>2018-02-18T10:26:38Z</time>
      </trkpt>
      <trkpt lat="51.690613981336355" lon="0.655253017321229">
        <ele>32</ele>
        <time>2018-02-18T10:26:39Z</time>
      </trkpt>
      <trkpt lat="51.690628984943032" lon="0.655290987342596">
        <ele>32</ele>
        <time>2018-02-18T10:26:40Z</time>
      </trkpt>
      <trkpt lat="51.690642982721329" lon="0.655328035354614">
        <ele>32</ele>
        <time>2018-02-18T10:26:41Z</time>
      </trkpt>
      <trkpt lat="51.690655974671245" lon="0.655364999547601">
        <ele>32</ele>
        <time>2018-02-18T10:26:42Z</time>
      </trkpt>
      <trkpt lat="51.690669972449541" lon="0.655399030074477">
        <ele>32</ele>
        <time>2018-02-18T10:26:43Z</time>
      </trkpt>
      <trkpt lat="51.690681958571076" lon="0.655437000095844">
        <ele>32</ele>
        <time>2018-02-18T10:26:44Z</time>
      </trkpt>
      <trkpt lat="51.690691011026502" lon="0.655478993430734">
        <ele>32</ele>
        <time>2018-02-18T10:26:45Z</time>
      </trkpt>
      <trkpt lat="51.690700985491276" lon="0.655521992594004">
        <ele>32</ele>
        <time>2018-02-18T10:26:46Z</time>
      </trkpt>
      <trkpt lat="51.690714983269572" lon="0.655558034777641">
        <ele>32</ele>
        <time>2018-02-18T10:26:47Z</time>
      </trkpt>
      <trkpt lat="51.690726969391108" lon="0.655591981485486">
        <ele>31.969996800000001</ele>
        <time>2018-02-18T10:26:48Z</time>
      </trkpt>
      <trkpt lat="51.690738033503294" lon="0.655628023669124">
        <ele>31</ele>
        <time>2018-02-18T10:26:49Z</time>
      </trkpt>
      <trkpt lat="51.690750019624829" lon="0.655661970376968">
        <ele>31</ele>
        <time>2018-02-18T10:26:50Z</time>
      </trkpt>
      <trkpt lat="51.690765023231506" lon="0.655698012560606">
        <ele>31</ele>
        <time>2018-02-18T10:26:51Z</time>
      </trkpt>
      <trkpt lat="51.690782038494945" lon="0.655733970925212">
        <ele>31</ele>
        <time>2018-02-18T10:26:52Z</time>
      </trkpt>
      <trkpt lat="51.690798969939351" lon="0.655772024765611">
        <ele>31</ele>
        <time>2018-02-18T10:26:53Z</time>
      </trkpt>
      <trkpt lat="51.690812967717648" lon="0.655807983130217">
        <ele>31</ele>
        <time>2018-02-18T10:26:54Z</time>
      </trkpt>
      <trkpt lat="51.690826965495944" lon="0.655846036970615">
        <ele>31</ele>
        <time>2018-02-18T10:26:55Z</time>
      </trkpt>
      <trkpt lat="51.690841969102621" lon="0.655887024477124">
        <ele>31</ele>
        <time>2018-02-18T10:26:56Z</time>
      </trkpt>
      <trkpt lat="51.690851021558046" lon="0.655924994498491">
        <ele>31</ele>
        <time>2018-02-18T10:26:57Z</time>
      </trkpt>
      <trkpt lat="51.690862001851201" lon="0.655951984226704">
        <ele>31</ele>
        <time>2018-02-18T10:26:58Z</time>
      </trkpt>
      <trkpt lat="51.690874993801117" lon="0.655973022803664">
        <ele>31</ele>
        <time>2018-02-18T10:26:59Z</time>
      </trkpt>
      <trkpt lat="51.6908810287714" lon="0.656002024188638">
        <ele>31</ele>
        <time>2018-02-18T10:27:01Z</time>
      </trkpt>
      <trkpt lat="51.690898966044188" lon="0.655994983389974">
        <ele>31</ele>
        <time>2018-02-18T10:27:03Z</time>
      </trkpt>
      <trkpt lat="51.690920004621148" lon="0.655978973954916">
        <ele>31</ele>
        <time>2018-02-18T10:27:05Z</time>
      </trkpt>
      <trkpt lat="51.690936014056206" lon="0.65596497617662">
        <ele>31</ele>
        <time>2018-02-18T10:27:07Z</time>
      </trkpt>
      <trkpt lat="51.690959986299276" lon="0.655946033075452">
        <ele>31</ele>
        <time>2018-02-18T10:27:09Z</time>
      </trkpt>
      <trkpt lat="51.690987981855869" lon="0.65592298284173">
        <ele>31</ele>
        <time>2018-02-18T10:27:11Z</time>
      </trkpt>
      <trkpt lat="51.691003991290927" lon="0.655903033912182">
        <ele>31</ele>
        <time>2018-02-18T10:27:13Z</time>
      </trkpt>
      <trkpt lat="51.691028969362378" lon="0.655903033912182">
        <ele>31</ele>
        <time>2018-02-18T10:27:16Z</time>
      </trkpt>
      <trkpt lat="51.691054031252861" lon="0.655901022255421">
        <ele>31</ele>
        <time>2018-02-18T10:27:18Z</time>
      </trkpt>
      <trkpt lat="51.691072974354029" lon="0.655902028083801">
        <ele>31</ele>
        <time>2018-02-18T10:27:20Z</time>
      </trkpt>
      <trkpt lat="51.691088983789086" lon="0.65592298284173">
        <ele>31</ele>
        <time>2018-02-18T10:27:22Z</time>
      </trkpt>
      <trkpt lat="51.691103987395763" lon="0.655947960913181">
        <ele>31</ele>
        <time>2018-02-18T10:27:24Z</time>
      </trkpt>
      <trkpt lat="51.691111028194427" lon="0.655974028632045">
        <ele>31</ele>
        <time>2018-02-18T10:27:27Z</time>
      </trkpt>
      <trkpt lat="51.69111899100244" lon="0.656006969511509">
        <ele>30.142851545152901</ele>
        <time>2018-02-18T10:27:29Z</time>
      </trkpt>
      <trkpt lat="51.691126031801105" lon="0.656048962846398">
        <ele>30</ele>
        <time>2018-02-18T10:27:31Z</time>
      </trkpt>
      <trkpt lat="51.691133994609118" lon="0.656092967838049">
        <ele>31</ele>
        <time>2018-02-18T10:27:33Z</time>
      </trkpt>
      <trkpt lat="51.691141035407782" lon="0.656132027506828">
        <ele>31</ele>
        <time>2018-02-18T10:27:35Z</time>
      </trkpt>
      <trkpt lat="51.691152015700936" lon="0.656175026670098">
        <ele>31</ele>
        <time>2018-02-18T10:27:37Z</time>
      </trkpt>
      <trkpt lat="51.691158972680569" lon="0.656212996691465">
        <ele>31</ele>
        <time>2018-02-18T10:27:39Z</time>
      </trkpt>
      <trkpt lat="51.691169030964375" lon="0.656250966712832">
        <ele>31</ele>
        <time>2018-02-18T10:27:41Z</time>
      </trkpt>
      <trkpt lat="51.69118101708591" lon="0.656292038038373">
        <ele>30.0792081717487</ele>
        <time>2018-02-18T10:27:43Z</time>
      </trkpt>
      <trkpt lat="51.691187974065542" lon="0.656319027766585">
        <ele>30</ele>
        <time>2018-02-18T10:27:44Z</time>
      </trkpt>
      <trkpt lat="51.691193003207445" lon="0.656344005838037">
        <ele>30</ele>
        <time>2018-02-18T10:27:45Z</time>
      </trkpt>
      <trkpt lat="51.6912039835006" lon="0.656397985294461">
        <ele>30</ele>
        <time>2018-02-18T10:27:47Z</time>
      </trkpt>
      <trkpt lat="51.691210018470883" lon="0.656426986679435">
        <ele>30</ele>
        <time>2018-02-18T10:27:48Z</time>
      </trkpt>
      <trkpt lat="51.691216975450516" lon="0.656454982236028">
        <ele>30</ele>
        <time>2018-02-18T10:27:49Z</time>
      </trkpt>
      <trkpt lat="51.691231979057193" lon="0.656507033854723">
        <ele>30</ele>
        <time>2018-02-18T10:27:51Z</time>
      </trkpt>
      <trkpt lat="51.691238014027476" lon="0.656539974734187">
        <ele>30</ele>
        <time>2018-02-18T10:27:52Z</time>
      </trkpt>
      <trkpt lat="51.69124698266387" lon="0.65658800303936">
        <ele>30</ele>
        <time>2018-02-18T10:27:54Z</time>
      </trkpt>
      <trkpt lat="51.691258968785405" lon="0.656637959182262">
        <ele>30</ele>
        <time>2018-02-18T10:27:56Z</time>
      </trkpt>
      <trkpt lat="51.691271038725972" lon="0.656686993315816">
        <ele>30</ele>
        <time>2018-02-18T10:27:58Z</time>
      </trkpt>
      <trkpt lat="51.691282019019127" lon="0.656736027449369">
        <ele>29</ele>
        <time>2018-02-18T10:28:00Z</time>
      </trkpt>
      <trkpt lat="51.691296016797423" lon="0.656784977763891">
        <ele>29</ele>
        <time>2018-02-18T10:28:02Z</time>
      </trkpt>
      <trkpt lat="51.691303979605436" lon="0.656820014119148">
        <ele>29</ele>
        <time>2018-02-18T10:28:03Z</time>
      </trkpt>
      <trkpt lat="51.6913110204041" lon="0.656850021332502">
        <ele>29</ele>
        <time>2018-02-18T10:28:04Z</time>
      </trkpt>
      <trkpt lat="51.691318983212113" lon="0.656876005232334">
        <ele>29</ele>
        <time>2018-02-18T10:28:05Z</time>
      </trkpt>
      <trkpt lat="51.691327029839158" lon="0.656907018274069">
        <ele>28.068630157614699</ele>
        <time>2018-02-18T10:28:06Z</time>
      </trkpt>
      <trkpt lat="51.691331975162029" lon="0.656938031315804">
        <ele>28</ele>
        <time>2018-02-18T10:28:07Z</time>
      </trkpt>
      <trkpt lat="51.691334992647171" lon="0.656955968588591">
        <ele>27</ele>
        <time>2018-02-18T10:28:13Z</time>
      </trkpt>
      <trkpt lat="51.691318983212113" lon="0.656950017437339">
        <ele>28</ele>
        <time>2018-02-18T10:28:43Z</time>
      </trkpt>
      <trkpt lat="51.691326024010777" lon="0.656993016600609">
        <ele>28</ele>
        <time>2018-02-18T10:28:53Z</time>
      </trkpt>
      <trkpt lat="51.691335998475552" lon="0.657026041299105">
        <ele>28</ele>
        <time>2018-02-18T10:28:55Z</time>
      </trkpt>
      <trkpt lat="51.691347984597087" lon="0.657069962471724">
        <ele>28</ele>
        <time>2018-02-18T10:28:57Z</time>
      </trkpt>
      <trkpt lat="51.691357037052512" lon="0.657115979120135">
        <ele>28</ele>
        <time>2018-02-18T10:28:59Z</time>
      </trkpt>
      <trkpt lat="51.691369023174047" lon="0.657164007425308">
        <ele>28</ele>
        <time>2018-02-18T10:29:01Z</time>
      </trkpt>
      <trkpt lat="51.691381009295583" lon="0.657201977446675">
        <ele>27.070003199999999</ele>
        <time>2018-02-18T10:29:03Z</time>
      </trkpt>
      <trkpt lat="51.691391989588737" lon="0.657241959124804">
        <ele>27</ele>
        <time>2018-02-18T10:29:05Z</time>
      </trkpt>
      <trkpt lat="51.691400036215782" lon="0.657284958288074">
        <ele>27</ele>
        <time>2018-02-18T10:29:07Z</time>
      </trkpt>
      <trkpt lat="51.691411016508937" lon="0.657326029613614">
        <ele>27</ele>
        <time>2018-02-18T10:29:09Z</time>
      </trkpt>
      <trkpt lat="51.69141998514533" lon="0.657365005463362">
        <ele>27</ele>
        <time>2018-02-18T10:29:11Z</time>
      </trkpt>
      <trkpt lat="51.691430965438485" lon="0.657409010455012">
        <ele>27</ele>
        <time>2018-02-18T10:29:13Z</time>
      </trkpt>
      <trkpt lat="51.691441023722291" lon="0.657454021275043">
        <ele>27</ele>
        <time>2018-02-18T10:29:15Z</time>
      </trkpt>
      <trkpt lat="51.691450998187065" lon="0.657500959932804">
        <ele>27</ele>
        <time>2018-02-18T10:29:17Z</time>
      </trkpt>
      <trkpt lat="51.6914629843086" lon="0.657541025429964">
        <ele>27</ele>
        <time>2018-02-18T10:29:19Z</time>
      </trkpt>
      <trkpt lat="51.691473964601755" lon="0.657581007108092">
        <ele>27</ele>
        <time>2018-02-18T10:29:21Z</time>
      </trkpt>
      <trkpt lat="51.691486034542322" lon="0.657617971301079">
        <ele>27</ele>
        <time>2018-02-18T10:29:23Z</time>
      </trkpt>
      <trkpt lat="51.691490979865193" lon="0.657657030969858">
        <ele>27</ele>
        <time>2018-02-18T10:29:25Z</time>
      </trkpt>
      <trkpt lat="51.691496009007096" lon="0.657696006819606">
        <ele>27</ele>
        <time>2018-02-18T10:29:27Z</time>
      </trkpt>
      <trkpt lat="51.69150497764349" lon="0.657730037346482">
        <ele>27</ele>
        <time>2018-02-18T10:29:29Z</time>
      </trkpt>
      <trkpt lat="51.691511012613773" lon="0.657761972397566">
        <ele>27</ele>
        <time>2018-02-18T10:29:31Z</time>
      </trkpt>
      <trkpt lat="51.691524004563689" lon="0.657822992652655">
        <ele>26.070003199999999</ele>
        <time>2018-02-18T10:29:34Z</time>
      </trkpt>
      <trkpt lat="51.691532973200083" lon="0.657856017351151">
        <ele>26</ele>
        <time>2018-02-18T10:29:36Z</time>
      </trkpt>
      <trkpt lat="51.691540013998747" lon="0.657891975715756">
        <ele>26</ele>
        <time>2018-02-18T10:29:38Z</time>
      </trkpt>
      <trkpt lat="51.69154898263514" lon="0.657932963222265">
        <ele>26</ele>
        <time>2018-02-18T10:29:40Z</time>
      </trkpt>
      <trkpt lat="51.691558035090566" lon="0.657966993749142">
        <ele>26</ele>
        <time>2018-02-18T10:29:42Z</time>
      </trkpt>
      <trkpt lat="51.691565997898579" lon="0.65800404176116">
        <ele>27</ele>
        <time>2018-02-18T10:29:44Z</time>
      </trkpt>
      <trkpt lat="51.691571027040482" lon="0.658042011782527">
        <ele>27</ele>
        <time>2018-02-18T10:29:46Z</time>
      </trkpt>
      <trkpt lat="51.691578989848495" lon="0.658075958490372">
        <ele>26.089106024890398</ele>
        <time>2018-02-18T10:29:48Z</time>
      </trkpt>
      <trkpt lat="51.691587036475539" lon="0.658110994845629">
        <ele>26</ele>
        <time>2018-02-18T10:29:50Z</time>
      </trkpt>
      <trkpt lat="51.691597010940313" lon="0.658147037029266">
        <ele>26</ele>
        <time>2018-02-18T10:29:52Z</time>
      </trkpt>
      <trkpt lat="51.691606985405087" lon="0.658188024535775">
        <ele>26</ele>
        <time>2018-02-18T10:29:54Z</time>
      </trkpt>
      <trkpt lat="51.691615032032132" lon="0.658228006213903">
        <ele>26</ele>
        <time>2018-02-18T10:29:56Z</time>
      </trkpt>
      <trkpt lat="51.691625006496906" lon="0.658266982063651">
        <ele>25.071431370244099</ele>
        <time>2018-02-18T10:29:58Z</time>
      </trkpt>
      <trkpt lat="51.691632969304919" lon="0.658300006762147">
        <ele>25</ele>
        <time>2018-02-18T10:30:00Z</time>
      </trkpt>
      <trkpt lat="51.691639004275203" lon="0.658338982611895">
        <ele>25</ele>
        <time>2018-02-18T10:30:02Z</time>
      </trkpt>
      <trkpt lat="51.691646967083216" lon="0.658375024795532">
        <ele>25</ele>
        <time>2018-02-18T10:30:04Z</time>
      </trkpt>
      <trkpt lat="51.691656019538641" lon="0.65841500647366">
        <ele>25</ele>
        <time>2018-02-18T10:30:06Z</time>
      </trkpt>
      <trkpt lat="51.691661970689893" lon="0.658455993980169">
        <ele>25</ele>
        <time>2018-02-18T10:30:08Z</time>
      </trkpt>
      <trkpt lat="51.691670017316937" lon="0.658496981486678">
        <ele>25</ele>
        <time>2018-02-18T10:30:10Z</time>
      </trkpt>
      <trkpt lat="51.691678985953331" lon="0.658540986478329">
        <ele>25</ele>
        <time>2018-02-18T10:30:12Z</time>
      </trkpt>
      <trkpt lat="51.691690972074866" lon="0.658582979813218">
        <ele>25</ele>
        <time>2018-02-18T10:30:14Z</time>
      </trkpt>
      <trkpt lat="51.691702036187053" lon="0.658623967319727">
        <ele>25</ele>
        <time>2018-02-18T10:30:16Z</time>
      </trkpt>
      <trkpt lat="51.691708993166685" lon="0.658659003674984">
        <ele>25</ele>
        <time>2018-02-18T10:30:18Z</time>
      </trkpt>
      <trkpt lat="51.691717961803079" lon="0.658690016716719">
        <ele>25</ele>
        <time>2018-02-18T10:30:20Z</time>
      </trkpt>
      <trkpt lat="51.691726008430123" lon="0.658727986738086">
        <ele>25</ele>
        <time>2018-02-18T10:30:22Z</time>
      </trkpt>
      <trkpt lat="51.691736988723278" lon="0.658770985901356">
        <ele>25</ele>
        <time>2018-02-18T10:30:24Z</time>
      </trkpt>
      <trkpt lat="51.691744029521942" lon="0.658812979236245">
        <ele>24</ele>
        <time>2018-02-18T10:30:26Z</time>
      </trkpt>
      <trkpt lat="51.691749980673194" lon="0.658852038905025">
        <ele>24</ele>
        <time>2018-02-18T10:30:28Z</time>
      </trkpt>
      <trkpt lat="51.691761966794729" lon="0.658898977562785">
        <ele>24</ele>
        <time>2018-02-18T10:30:30Z</time>
      </trkpt>
      <trkpt lat="51.691774036735296" lon="0.658939965069294">
        <ele>24</ele>
        <time>2018-02-18T10:30:32Z</time>
      </trkpt>
      <trkpt lat="51.691781999543309" lon="0.658980030566454">
        <ele>24</ele>
        <time>2018-02-18T10:30:34Z</time>
      </trkpt>
      <trkpt lat="51.691789962351322" lon="0.659018000587821">
        <ele>24</ele>
        <time>2018-02-18T10:30:36Z</time>
      </trkpt>
      <trkpt lat="51.691799014806747" lon="0.65905999392271">
        <ele>24</ele>
        <time>2018-02-18T10:30:38Z</time>
      </trkpt>
      <trkpt lat="51.69180697761476" lon="0.659097963944077">
        <ele>24</ele>
        <time>2018-02-18T10:30:40Z</time>
      </trkpt>
      <trkpt lat="51.691816030070186" lon="0.659134006127715">
        <ele>24</ele>
        <time>2018-02-18T10:30:42Z</time>
      </trkpt>
      <trkpt lat="51.691822987049818" lon="0.659174993634224">
        <ele>24</ele>
        <time>2018-02-18T10:30:44Z</time>
      </trkpt>
      <trkpt lat="51.691803960129619" lon="0.659225033596158">
        <ele>24</ele>
        <time>2018-02-18T10:30:46Z</time>
      </trkpt>
      <trkpt lat="51.691789962351322" lon="0.659248000010848">
        <ele>24</ele>
        <time>2018-02-18T10:30:47Z</time>
      </trkpt>
      <trkpt lat="51.691772025078535" lon="0.659277001395822">
        <ele>24</ele>
        <time>2018-02-18T10:30:49Z</time>
      </trkpt>
      <trkpt lat="51.691752998158336" lon="0.659292005002499">
        <ele>24</ele>
        <time>2018-02-18T10:30:51Z</time>
      </trkpt>
      <trkpt lat="51.691727014258504" lon="0.659303991124034">
        <ele>24</ele>
        <time>2018-02-18T10:30:53Z</time>
      </trkpt>
      <trkpt lat="51.691702958196402" lon="0.659314971417189">
        <ele>24</ele>
        <time>2018-02-18T10:30:55Z</time>
      </trkpt>
      <trkpt lat="51.691678985953331" lon="0.659327963367105">
        <ele>25</ele>
        <time>2018-02-18T10:30:57Z</time>
      </trkpt>
      <trkpt lat="51.691656019538641" lon="0.659340033307672">
        <ele>25</ele>
        <time>2018-02-18T10:30:59Z</time>
      </trkpt>
      <trkpt lat="51.691630035638809" lon="0.659347996115685">
        <ele>24</ele>
        <time>2018-02-18T10:31:01Z</time>
      </trkpt>
      <trkpt lat="51.691603967919946" lon="0.659358976408839">
        <ele>25</ele>
        <time>2018-02-18T10:31:03Z</time>
      </trkpt>
      <trkpt lat="51.691576978191733" lon="0.659372974187136">
        <ele>25</ele>
        <time>2018-02-18T10:31:05Z</time>
      </trkpt>
      <trkpt lat="51.69154797680676" lon="0.659386971965432">
        <ele>25</ele>
        <time>2018-02-18T10:31:07Z</time>
      </trkpt>
      <trkpt lat="51.691517969593406" lon="0.659404993057251">
        <ele>25</ele>
        <time>2018-02-18T10:31:09Z</time>
      </trkpt>
      <trkpt lat="51.691499026492238" lon="0.659416979178786">
        <ele>25.0297062327326</ele>
        <time>2018-02-18T10:31:10Z</time>
      </trkpt>
      <trkpt lat="51.691473964601755" lon="0.659427959471941">
        <ele>26</ele>
        <time>2018-02-18T10:31:11Z</time>
      </trkpt>
      <trkpt lat="51.691444963216782" lon="0.659437011927366">
        <ele>26</ele>
        <time>2018-02-18T10:31:12Z</time>
      </trkpt>
      <trkpt lat="51.691417973488569" lon="0.659447992220521">
        <ele>26</ele>
        <time>2018-02-18T10:31:13Z</time>
      </trkpt>
      <trkpt lat="51.691390983760357" lon="0.659460984170437">
        <ele>26</ele>
        <time>2018-02-18T10:31:14Z</time>
      </trkpt>
      <trkpt lat="51.691368017345667" lon="0.659472970291972">
        <ele>26</ele>
        <time>2018-02-18T10:31:15Z</time>
      </trkpt>
      <trkpt lat="51.691342033445835" lon="0.659484034404159">
        <ele>26</ele>
        <time>2018-02-18T10:31:16Z</time>
      </trkpt>
      <trkpt lat="51.691316971555352" lon="0.659496020525694">
        <ele>26</ele>
        <time>2018-02-18T10:31:17Z</time>
      </trkpt>
      <trkpt lat="51.69128998182714" lon="0.659508006647229">
        <ele>26</ele>
        <time>2018-02-18T10:31:18Z</time>
      </trkpt>
      <trkpt lat="51.691265003755689" lon="0.659518986940384">
        <ele>26</ele>
        <time>2018-02-18T10:31:19Z</time>
      </trkpt>
      <trkpt lat="51.691241031512618" lon="0.659530973061919">
        <ele>26</ele>
        <time>2018-02-18T10:31:20Z</time>
      </trkpt>
      <trkpt lat="51.691215969622135" lon="0.659543965011835">
        <ele>26</ele>
        <time>2018-02-18T10:31:21Z</time>
      </trkpt>
      <trkpt lat="51.691190991550684" lon="0.659558968618512">
        <ele>26</ele>
        <time>2018-02-18T10:31:22Z</time>
      </trkpt>
      <trkpt lat="51.691164001822472" lon="0.659573972225189">
        <ele>26</ele>
        <time>2018-02-18T10:31:23Z</time>
      </trkpt>
      <trkpt lat="51.69113902375102" lon="0.659587970003486">
        <ele>26</ele>
        <time>2018-02-18T10:31:24Z</time>
      </trkpt>
      <trkpt lat="51.691115973517299" lon="0.659599034115672">
        <ele>26</ele>
        <time>2018-02-18T10:31:25Z</time>
      </trkpt>
      <trkpt lat="51.691090995445848" lon="0.659613031893969">
        <ele>26</ele>
        <time>2018-02-18T10:31:26Z</time>
      </trkpt>
      <trkpt lat="51.691068029031157" lon="0.659623006358743">
        <ele>26</ele>
        <time>2018-02-18T10:31:27Z</time>
      </trkpt>
      <trkpt lat="51.691045984625816" lon="0.659631974995136">
        <ele>26</ele>
        <time>2018-02-18T10:31:28Z</time>
      </trkpt>
      <trkpt lat="51.691027963533998" lon="0.65963800996542">
        <ele>26</ele>
        <time>2018-02-18T10:31:29Z</time>
      </trkpt>
      <trkpt lat="51.69101002626121" lon="0.6596390157938">
        <ele>26</ele>
        <time>2018-02-18T10:31:30Z</time>
      </trkpt>
      <trkpt lat="51.69098898768425" lon="0.659635998308659">
        <ele>26</ele>
        <time>2018-02-18T10:31:31Z</time>
      </trkpt>
      <trkpt lat="51.69096602126956" lon="0.659635998308659">
        <ele>26</ele>
        <time>2018-02-18T10:31:32Z</time>
      </trkpt>
      <trkpt lat="51.690940959379077" lon="0.659640021622181">
        <ele>26</ele>
        <time>2018-02-18T10:31:33Z</time>
      </trkpt>
      <trkpt lat="51.690913969650865" lon="0.659644966945052">
        <ele>25.070003199999999</ele>
        <time>2018-02-18T10:31:34Z</time>
      </trkpt>
      <trkpt lat="51.690887985751033" lon="0.659652007743716">
        <ele>25</ele>
        <time>2018-02-18T10:31:35Z</time>
      </trkpt>
      <trkpt lat="51.690863007679582" lon="0.659657036885619">
        <ele>25.9687466666667</ele>
        <time>2018-02-18T10:31:36Z</time>
      </trkpt>
      <trkpt lat="51.69083802960813" lon="0.65966097638011">
        <ele>26</ele>
        <time>2018-02-18T10:31:37Z</time>
      </trkpt>
      <trkpt lat="51.690820008516312" lon="0.659662988036871">
        <ele>26.923809291609299</ele>
        <time>2018-02-18T10:31:38Z</time>
      </trkpt>
      <trkpt lat="51.690792012959719" lon="0.659672040492296">
        <ele>27</ele>
        <time>2018-02-18T10:31:40Z</time>
      </trkpt>
      <trkpt lat="51.690772986039519" lon="0.659669023007154">
        <ele>27</ele>
        <time>2018-02-18T10:31:41Z</time>
      </trkpt>
      <trkpt lat="51.690753037109971" lon="0.659675979986787">
        <ele>27</ele>
        <time>2018-02-18T10:31:43Z</time>
      </trkpt>
      <trkpt lat="51.690725963562727" lon="0.65966198220849">
        <ele>27</ele>
        <time>2018-02-18T10:31:45Z</time>
      </trkpt>
      <trkpt lat="51.690707020461559" lon="0.659629041329026">
        <ele>27</ele>
        <time>2018-02-18T10:31:47Z</time>
      </trkpt>
      <trkpt lat="51.690686987712979" lon="0.659602973610163">
        <ele>27</ele>
        <time>2018-02-18T10:31:49Z</time>
      </trkpt>
      <trkpt lat="51.690670978277922" lon="0.659570032730699">
        <ele>27</ele>
        <time>2018-02-18T10:31:51Z</time>
      </trkpt>
      <trkpt lat="51.690663015469909" lon="0.659522004425526">
        <ele>27</ele>
        <time>2018-02-18T10:31:53Z</time>
      </trkpt>
      <trkpt lat="51.690659997984767" lon="0.659474981948733">
        <ele>27</ele>
        <time>2018-02-18T10:31:55Z</time>
      </trkpt>
      <trkpt lat="51.690652035176754" lon="0.659425025805831">
        <ele>27</ele>
        <time>2018-02-18T10:31:57Z</time>
      </trkpt>
      <trkpt lat="51.690640971064568" lon="0.659389989450574">
        <ele>27</ele>
        <time>2018-02-18T10:31:59Z</time>
      </trkpt>
      <trkpt lat="51.690619010478258" lon="0.659350007772446">
        <ele>27</ele>
        <time>2018-02-18T10:32:01Z</time>
      </trkpt>
      <trkpt lat="51.690605012699962" lon="0.659329975023866">
        <ele>27</ele>
        <time>2018-02-18T10:32:02Z</time>
      </trkpt>
      <trkpt lat="51.690571988001466" lon="0.659303991124034">
        <ele>27</ele>
        <time>2018-02-18T10:32:04Z</time>
      </trkpt>
      <trkpt lat="51.690542986616492" lon="0.659290999174118">
        <ele>27.938769379465299</ele>
        <time>2018-02-18T10:32:06Z</time>
      </trkpt>
      <trkpt lat="51.690512979403138" lon="0.659271972253919">
        <ele>28</ele>
        <time>2018-02-18T10:32:08Z</time>
      </trkpt>
      <trkpt lat="51.6904959641397" lon="0.659261997789145">
        <ele>28</ele>
        <time>2018-02-18T10:32:09Z</time>
      </trkpt>
      <trkpt lat="51.690466962754726" lon="0.659240959212184">
        <ele>29</ele>
        <time>2018-02-18T10:32:11Z</time>
      </trkpt>
      <trkpt lat="51.690442990511656" lon="0.659225033596158">
        <ele>29</ele>
        <time>2018-02-18T10:32:13Z</time>
      </trkpt>
      <trkpt lat="51.690411977469921" lon="0.659212963655591">
        <ele>29.889996799999999</ele>
        <time>2018-02-18T10:32:15Z</time>
      </trkpt>
      <trkpt lat="51.69038699939847" lon="0.659194020554423">
        <ele>31</ele>
        <time>2018-02-18T10:32:17Z</time>
      </trkpt>
      <trkpt lat="51.690360009670258" lon="0.659178011119366">
        <ele>31</ele>
        <time>2018-02-18T10:32:19Z</time>
      </trkpt>
      <trkpt lat="51.690335031598806" lon="0.659160995855927">
        <ele>31</ele>
        <time>2018-02-18T10:32:21Z</time>
      </trkpt>
      <trkpt lat="51.690309969708323" lon="0.659138029441237">
        <ele>31</ele>
        <time>2018-02-18T10:32:23Z</time>
      </trkpt>
      <trkpt lat="51.690283985808492" lon="0.659120008349419">
        <ele>31</ele>
        <time>2018-02-18T10:32:25Z</time>
      </trkpt>
      <trkpt lat="51.690255990251899" lon="0.659099975600839">
        <ele>31</ele>
        <time>2018-02-18T10:32:27Z</time>
      </trkpt>
      <trkpt lat="51.690232018008828" lon="0.659084971994162">
        <ele>31</ele>
        <time>2018-02-18T10:32:29Z</time>
      </trkpt>
      <trkpt lat="51.690208967775106" lon="0.659064017236233">
        <ele>32</ele>
        <time>2018-02-18T10:32:31Z</time>
      </trkpt>
      <trkpt lat="51.690193964168429" lon="0.659051025286317">
        <ele>32.969996799999997</ele>
        <time>2018-02-18T10:32:32Z</time>
      </trkpt>
      <trkpt lat="51.69017200358212" lon="0.659034010022879">
        <ele>33</ele>
        <time>2018-02-18T10:32:34Z</time>
      </trkpt>
      <trkpt lat="51.690154988318682" lon="0.659014983102679">
        <ele>33</ele>
        <time>2018-02-18T10:32:36Z</time>
      </trkpt>
      <trkpt lat="51.690144008025527" lon="0.659013977274299">
        <ele>35</ele>
        <time>2018-02-18T10:32:42Z</time>
      </trkpt>
      <trkpt lat="51.690125986933708" lon="0.659018000587821">
        <ele>35</ele>
        <time>2018-02-18T10:32:51Z</time>
      </trkpt>
      <trkpt lat="51.690105032175779" lon="0.659042978659272">
        <ele>35</ele>
        <time>2018-02-18T10:32:54Z</time>
      </trkpt>
      <trkpt lat="51.690092962235212" lon="0.659068040549755">
        <ele>35</ele>
        <time>2018-02-18T10:32:57Z</time>
      </trkpt>
      <trkpt lat="51.690077958628535" lon="0.659103998914361">
        <ele>35</ele>
        <time>2018-02-18T10:32:59Z</time>
      </trkpt>
      <trkpt lat="51.690052980557084" lon="0.659120008349419">
        <ele>35</ele>
        <time>2018-02-18T10:33:02Z</time>
      </trkpt>
      <trkpt lat="51.690035965293646" lon="0.659134006127715">
        <ele>35</ele>
        <time>2018-02-18T10:33:04Z</time>
      </trkpt>
      <trkpt lat="51.690016016364098" lon="0.659154960885644">
        <ele>35</ele>
        <time>2018-02-18T10:33:06Z</time>
      </trkpt>
      <trkpt lat="51.689996989443898" lon="0.65916501916945">
        <ele>35</ele>
        <time>2018-02-18T10:33:08Z</time>
      </trkpt>
      <trkpt lat="51.689980980008841" lon="0.659185973927379">
        <ele>35</ele>
        <time>2018-02-18T10:33:10Z</time>
      </trkpt>
      <trkpt lat="51.689966982230544" lon="0.659207012504339">
        <ele>35</ele>
        <time>2018-02-18T10:33:12Z</time>
      </trkpt>
      <trkpt lat="51.689944015815854" lon="0.659223021939397">
        <ele>35</ele>
        <time>2018-02-18T10:33:14Z</time>
      </trkpt>
      <trkpt lat="51.689920965582132" lon="0.659225033596158">
        <ele>36</ele>
        <time>2018-02-18T10:33:16Z</time>
      </trkpt>
      <trkpt lat="51.689896993339062" lon="0.659235008060932">
        <ele>36</ele>
        <time>2018-02-18T10:33:18Z</time>
      </trkpt>
      <trkpt lat="51.689873021095991" lon="0.659241965040565">
        <ele>36</ele>
        <time>2018-02-18T10:33:20Z</time>
      </trkpt>
      <trkpt lat="51.689853994175792" lon="0.659245988354087">
        <ele>37</ele>
        <time>2018-02-18T10:33:22Z</time>
      </trkpt>
      <trkpt lat="51.689834967255592" lon="0.65925202332437">
        <ele>37</ele>
        <time>2018-02-18T10:33:24Z</time>
      </trkpt>
      <trkpt lat="51.689805965870619" lon="0.659263003617525">
        <ele>37</ele>
        <time>2018-02-18T10:33:27Z</time>
      </trkpt>
      <trkpt lat="51.689781993627548" lon="0.659280018880963">
        <ele>37</ele>
        <time>2018-02-18T10:33:29Z</time>
      </trkpt>
      <trkpt lat="51.689761960878968" lon="0.659281024709344">
        <ele>37</ele>
        <time>2018-02-18T10:33:31Z</time>
      </trkpt>
      <trkpt lat="51.689738994464278" lon="0.659261997789145">
        <ele>37.030003200000003</ele>
        <time>2018-02-18T10:33:33Z</time>
      </trkpt>
      <trkpt lat="51.689716028049588" lon="0.659242970868945">
        <ele>38</ele>
        <time>2018-02-18T10:33:35Z</time>
      </trkpt>
      <trkpt lat="51.689692977815866" lon="0.659224027767777">
        <ele>38.016004997081602</ele>
        <time>2018-02-18T10:33:37Z</time>
      </trkpt>
      <trkpt lat="51.689671017229557" lon="0.659205000847578">
        <ele>39</ele>
        <time>2018-02-18T10:33:39Z</time>
      </trkpt>
      <trkpt lat="51.689648972824216" lon="0.659186979755759">
        <ele>39</ele>
        <time>2018-02-18T10:33:41Z</time>
      </trkpt>
      <trkpt lat="51.689627012237906" lon="0.659171976149082">
        <ele>39</ele>
        <time>2018-02-18T10:33:43Z</time>
      </trkpt>
      <trkpt lat="51.689599016681314" lon="0.659153033047915">
        <ele>39</ele>
        <time>2018-02-18T10:33:45Z</time>
      </trkpt>
      <trkpt lat="51.689573032781482" lon="0.659138029441237">
        <ele>39</ele>
        <time>2018-02-18T10:33:47Z</time>
      </trkpt>
      <trkpt lat="51.689550988376141" lon="0.659124031662941">
        <ele>39</ele>
        <time>2018-02-18T10:33:49Z</time>
      </trkpt>
      <trkpt lat="51.689529027789831" lon="0.659108022227883">
        <ele>40</ele>
        <time>2018-02-18T10:33:51Z</time>
      </trkpt>
      <trkpt lat="51.689505977556109" lon="0.659090001136065">
        <ele>40</ele>
        <time>2018-02-18T10:33:53Z</time>
      </trkpt>
      <trkpt lat="51.6894840169698" lon="0.659078015014529">
        <ele>40</ele>
        <time>2018-02-18T10:33:55Z</time>
      </trkpt>
      <trkpt lat="51.689451998099685" lon="0.659056976437569">
        <ele>40</ele>
        <time>2018-02-18T10:33:57Z</time>
      </trkpt>
      <trkpt lat="51.689428025856614" lon="0.659039039164782">
        <ele>41</ele>
        <time>2018-02-18T10:33:59Z</time>
      </trkpt>
      <trkpt lat="51.689405981451273" lon="0.659025963395834">
        <ele>41</ele>
        <time>2018-02-18T10:34:01Z</time>
      </trkpt>
      <trkpt lat="51.689387960359454" lon="0.65901699475944">
        <ele>41</ele>
        <time>2018-02-18T10:34:03Z</time>
      </trkpt>
      <trkpt lat="51.689369017258286" lon="0.659005008637905">
        <ele>41</ele>
        <time>2018-02-18T10:34:05Z</time>
      </trkpt>
      <trkpt lat="51.689347978681326" lon="0.658992016687989">
        <ele>41</ele>
        <time>2018-02-18T10:34:07Z</time>
      </trkpt>
      <trkpt lat="51.689324006438255" lon="0.658976007252932">
        <ele>42</ele>
        <time>2018-02-18T10:34:09Z</time>
      </trkpt>
      <trkpt lat="51.689305985346437" lon="0.658966032788157">
        <ele>42</ele>
        <time>2018-02-18T10:34:11Z</time>
      </trkpt>
      <trkpt lat="51.689290981739759" lon="0.659000985324383">
        <ele>42</ele>
        <time>2018-02-18T10:34:14Z</time>
      </trkpt>
      <trkpt lat="51.689289975911379" lon="0.659045996144414">
        <ele>42</ele>
        <time>2018-02-18T10:34:16Z</time>
      </trkpt>
      <trkpt lat="51.689289975911379" lon="0.659093018621206">
        <ele>42</ele>
        <time>2018-02-18T10:34:18Z</time>
      </trkpt>
      <trkpt lat="51.689292993396521" lon="0.659138029441237">
        <ele>41.976559999999999</ele>
        <time>2018-02-18T10:34:20Z</time>
      </trkpt>
      <trkpt lat="51.689292993396521" lon="0.659180022776127">
        <ele>41</ele>
        <time>2018-02-18T10:34:22Z</time>
      </trkpt>
      <trkpt lat="51.689277989789844" lon="0.659214975312352">
        <ele>41</ele>
        <time>2018-02-18T10:34:24Z</time>
      </trkpt>
      <trkpt lat="51.689261980354786" lon="0.659240959212184">
        <ele>41</ele>
        <time>2018-02-18T10:34:26Z</time>
      </trkpt>
      <trkpt lat="51.689246976748109" lon="0.659263003617525">
        <ele>41</ele>
        <time>2018-02-18T10:34:28Z</time>
      </trkpt>
      <trkpt lat="51.689224010333419" lon="0.659270966425538">
        <ele>41</ele>
        <time>2018-02-18T10:34:30Z</time>
      </trkpt>
      <trkpt lat="51.689212024211884" lon="0.659289993345737">
        <ele>41</ele>
        <time>2018-02-18T10:34:32Z</time>
      </trkpt>
      <trkpt lat="51.689208000898361" lon="0.659341961145401">
        <ele>41</ele>
        <time>2018-02-18T10:34:34Z</time>
      </trkpt>
      <trkpt lat="51.689202971756458" lon="0.6593800149858">
        <ele>41</ele>
        <time>2018-02-18T10:34:36Z</time>
      </trkpt>
      <trkpt lat="51.689208000898361" lon="0.659415973350406">
        <ele>41</ele>
        <time>2018-02-18T10:34:38Z</time>
      </trkpt>
      <trkpt lat="51.689208000898361" lon="0.659456960856915">
        <ele>41</ele>
        <time>2018-02-18T10:34:40Z</time>
      </trkpt>
      <trkpt lat="51.689198026433587" lon="0.659493003040552">
        <ele>41</ele>
        <time>2018-02-18T10:34:42Z</time>
      </trkpt>
      <trkpt lat="51.689182016998529" lon="0.659514041617513">
        <ele>41</ele>
        <time>2018-02-18T10:34:44Z</time>
      </trkpt>
      <trkpt lat="51.689159972593188" lon="0.659502977505326">
        <ele>41</ele>
        <time>2018-02-18T10:35:11Z</time>
      </trkpt>
      <trkpt lat="51.689136000350118" lon="0.659503983333707">
        <ele>42</ele>
        <time>2018-02-18T10:35:14Z</time>
      </trkpt>
      <trkpt lat="51.689111022278666" lon="0.659504989162087">
        <ele>42</ele>
        <time>2018-02-18T10:35:17Z</time>
      </trkpt>
      <trkpt lat="51.689085038378835" lon="0.659514041617513">
        <ele>42</ele>
        <time>2018-02-18T10:35:20Z</time>
      </trkpt>
      <trkpt lat="51.689063999801874" lon="0.659518986940384">
        <ele>42.915789757339802</ele>
        <time>2018-02-18T10:35:22Z</time>
      </trkpt>
      <trkpt lat="51.689041033387184" lon="0.659522004425526">
        <ele>43</ele>
        <time>2018-02-18T10:35:24Z</time>
      </trkpt>
      <trkpt lat="51.689016977325082" lon="0.659526027739048">
        <ele>43</ele>
        <time>2018-02-18T10:35:26Z</time>
      </trkpt>
      <trkpt lat="51.688991999253631" lon="0.65953298471868">
        <ele>42.070003200000002</ele>
        <time>2018-02-18T10:35:28Z</time>
      </trkpt>
      <trkpt lat="51.68896802701056" lon="0.659534996375442">
        <ele>42</ele>
        <time>2018-02-18T10:35:30Z</time>
      </trkpt>
      <trkpt lat="51.688944976776838" lon="0.659537008032203">
        <ele>42</ele>
        <time>2018-02-18T10:35:32Z</time>
      </trkpt>
      <trkpt lat="51.688922010362148" lon="0.659545976668596">
        <ele>42</ele>
        <time>2018-02-18T10:35:34Z</time>
      </trkpt>
      <trkpt lat="51.688897032290697" lon="0.659554023295641">
        <ele>43</ele>
        <time>2018-02-18T10:35:36Z</time>
      </trkpt>
      <trkpt lat="51.688869958743453" lon="0.659571038559079">
        <ele>43</ele>
        <time>2018-02-18T10:35:38Z</time>
      </trkpt>
      <trkpt lat="51.68884196318686" lon="0.659584030508995">
        <ele>44</ele>
        <time>2018-02-18T10:35:40Z</time>
      </trkpt>
      <trkpt lat="51.688820002600551" lon="0.65959501080215">
        <ele>45</ele>
        <time>2018-02-18T10:35:42Z</time>
      </trkpt>
      <trkpt lat="51.688794018700719" lon="0.659605991095304">
        <ele>45</ele>
        <time>2018-02-18T10:35:44Z</time>
      </trkpt>
      <trkpt lat="51.688769962638617" lon="0.659622000530362">
        <ele>45</ele>
        <time>2018-02-18T10:35:46Z</time>
      </trkpt>
      <trkpt lat="51.688748002052307" lon="0.659633986651897">
        <ele>45</ele>
        <time>2018-02-18T10:35:48Z</time>
      </trkpt>
      <trkpt lat="51.688728975132108" lon="0.659645972773433">
        <ele>45</ele>
        <time>2018-02-18T10:35:50Z</time>
      </trkpt>
      <trkpt lat="51.688706008717418" lon="0.659657958894968">
        <ele>45</ele>
        <time>2018-02-18T10:35:52Z</time>
      </trkpt>
      <trkpt lat="51.688682958483696" lon="0.659671034663916">
        <ele>45</ele>
        <time>2018-02-18T10:35:54Z</time>
      </trkpt>
      <trkpt lat="51.688662003725767" lon="0.65968201495707">
        <ele>44</ele>
        <time>2018-02-18T10:35:56Z</time>
      </trkpt>
      <trkpt lat="51.688639037311077" lon="0.659694001078606">
        <ele>44</ele>
        <time>2018-02-18T10:35:58Z</time>
      </trkpt>
      <trkpt lat="51.688616992905736" lon="0.659715039655566">
        <ele>45</ele>
        <time>2018-02-18T10:36:00Z</time>
      </trkpt>
      <trkpt lat="51.688606012612581" lon="0.65972501412034">
        <ele>45</ele>
        <time>2018-02-18T10:36:01Z</time>
      </trkpt>
      <trkpt lat="51.68858396820724" lon="0.65974404104054">
        <ele>45</ele>
        <time>2018-02-18T10:36:03Z</time>
      </trkpt>
      <trkpt lat="51.68856100179255" lon="0.659758038818836">
        <ele>45</ele>
        <time>2018-02-18T10:36:05Z</time>
      </trkpt>
      <trkpt lat="51.688537029549479" lon="0.659772036597133">
        <ele>45</ele>
        <time>2018-02-18T10:36:07Z</time>
      </trkpt>
      <trkpt lat="51.688513979315758" lon="0.659792991355062">
        <ele>45</ele>
        <time>2018-02-18T10:36:09Z</time>
      </trkpt>
      <trkpt lat="51.688491012901068" lon="0.659819981083274">
        <ele>45</ele>
        <time>2018-02-18T10:36:11Z</time>
      </trkpt>
      <trkpt lat="51.688463017344475" lon="0.659835990518332">
        <ele>45</ele>
        <time>2018-02-18T10:36:13Z</time>
      </trkpt>
      <trkpt lat="51.688437033444643" lon="0.659858034923673">
        <ele>45</ele>
        <time>2018-02-18T10:36:15Z</time>
      </trkpt>
      <trkpt lat="51.68841197155416" lon="0.659877983853221">
        <ele>45</ele>
        <time>2018-02-18T10:36:17Z</time>
      </trkpt>
      <trkpt lat="51.688385987654328" lon="0.659900028258562">
        <ele>45</ele>
        <time>2018-02-18T10:36:19Z</time>
      </trkpt>
      <trkpt lat="51.688364027068019" lon="0.65991897135973">
        <ele>45</ele>
        <time>2018-02-18T10:36:21Z</time>
      </trkpt>
      <trkpt lat="51.688341982662678" lon="0.659944033250213">
        <ele>45</ele>
        <time>2018-02-18T10:36:23Z</time>
      </trkpt>
      <trkpt lat="51.688320022076368" lon="0.659970017150044">
        <ele>45</ele>
        <time>2018-02-18T10:36:25Z</time>
      </trkpt>
      <trkpt lat="51.68830300681293" lon="0.659984014928341">
        <ele>45</ele>
        <time>2018-02-18T10:36:27Z</time>
      </trkpt>
      <trkpt lat="51.68828297406435" lon="0.660007987171412">
        <ele>45</ele>
        <time>2018-02-18T10:36:29Z</time>
      </trkpt>
      <trkpt lat="51.68825900182128" lon="0.660040006041527">
        <ele>45</ele>
        <time>2018-02-18T10:36:31Z</time>
      </trkpt>
      <trkpt lat="51.68823704123497" lon="0.660063978284597">
        <ele>45</ele>
        <time>2018-02-18T10:36:33Z</time>
      </trkpt>
      <trkpt lat="51.68821700848639" lon="0.66009197384119">
        <ele>45</ele>
        <time>2018-02-18T10:36:35Z</time>
      </trkpt>
      <trkpt lat="51.688194964081049" lon="0.660116029903293">
        <ele>45</ele>
        <time>2018-02-18T10:36:37Z</time>
      </trkpt>
      <trkpt lat="51.688169986009598" lon="0.660140002146363">
        <ele>45</ele>
        <time>2018-02-18T10:36:39Z</time>
      </trkpt>
      <trkpt lat="51.688147019594908" lon="0.660160034894943">
        <ele>46</ele>
        <time>2018-02-18T10:36:41Z</time>
      </trkpt>
      <trkpt lat="51.688123969361186" lon="0.66017797216773">
        <ele>46</ele>
        <time>2018-02-18T10:36:43Z</time>
      </trkpt>
      <trkpt lat="51.688103014603257" lon="0.660199010744691">
        <ele>45</ele>
        <time>2018-02-18T10:36:45Z</time>
      </trkpt>
      <trkpt lat="51.688081976026297" lon="0.66021803766489">
        <ele>45</ele>
        <time>2018-02-18T10:36:47Z</time>
      </trkpt>
      <trkpt lat="51.688064960762858" lon="0.660232035443187">
        <ele>45</ele>
        <time>2018-02-18T10:36:49Z</time>
      </trkpt>
      <trkpt lat="51.68804501183331" lon="0.660250978544354">
        <ele>45</ele>
        <time>2018-02-18T10:36:51Z</time>
      </trkpt>
      <trkpt lat="51.68802397325635" lon="0.660271011292934">
        <ele>45</ele>
        <time>2018-02-18T10:36:53Z</time>
      </trkpt>
      <trkpt lat="51.688007963821292" lon="0.660298001021147">
        <ele>44</ele>
        <time>2018-02-18T10:36:55Z</time>
      </trkpt>
      <trkpt lat="51.687987009063363" lon="0.660318033769727">
        <ele>44</ele>
        <time>2018-02-18T10:36:57Z</time>
      </trkpt>
      <trkpt lat="51.687965970486403" lon="0.660345023497939">
        <ele>44</ele>
        <time>2018-02-18T10:36:59Z</time>
      </trkpt>
      <trkpt lat="51.687941998243332" lon="0.66037000156939">
        <ele>44</ele>
        <time>2018-02-18T10:37:01Z</time>
      </trkpt>
      <trkpt lat="51.687920959666371" lon="0.66039296798408">
        <ele>44</ele>
        <time>2018-02-18T10:37:03Z</time>
      </trkpt>
      <trkpt lat="51.687898999080062" lon="0.660415012389421">
        <ele>44</ele>
        <time>2018-02-18T10:37:05Z</time>
      </trkpt>
      <trkpt lat="51.687875026836991" lon="0.660436972975731">
        <ele>44</ele>
        <time>2018-02-18T10:37:07Z</time>
      </trkpt>
      <trkpt lat="51.687859017401934" lon="0.660453988239169">
        <ele>45</ele>
        <time>2018-02-18T10:37:09Z</time>
      </trkpt>
      <trkpt lat="51.687835967168212" lon="0.660483995452523">
        <ele>45</ele>
        <time>2018-02-18T10:37:11Z</time>
      </trkpt>
      <trkpt lat="51.687817024067044" lon="0.660509979352355">
        <ele>45</ele>
        <time>2018-02-18T10:37:13Z</time>
      </trkpt>
      <trkpt lat="51.687802020460367" lon="0.660528000444174">
        <ele>45</ele>
        <time>2018-02-18T10:37:15Z</time>
      </trkpt>
      <trkpt lat="51.687776958569884" lon="0.660551972687244">
        <ele>45</ele>
        <time>2018-02-18T10:37:17Z</time>
      </trkpt>
      <trkpt lat="51.687758015468717" lon="0.660575022920966">
        <ele>45</ele>
        <time>2018-02-18T10:37:19Z</time>
      </trkpt>
      <trkpt lat="51.687733037397265" lon="0.660606035962701">
        <ele>44</ele>
        <time>2018-02-18T10:37:21Z</time>
      </trkpt>
      <trkpt lat="51.687715016305447" lon="0.660622967407107">
        <ele>44</ele>
        <time>2018-02-18T10:37:23Z</time>
      </trkpt>
      <trkpt lat="51.687696995213628" lon="0.660645011812449">
        <ele>44</ele>
        <time>2018-02-18T10:37:25Z</time>
      </trkpt>
      <trkpt lat="51.68768098577857" lon="0.660675019025803">
        <ele>44</ele>
        <time>2018-02-18T10:37:27Z</time>
      </trkpt>
      <trkpt lat="51.687664976343513" lon="0.660707037895918">
        <ele>44</ele>
        <time>2018-02-18T10:37:29Z</time>
      </trkpt>
      <trkpt lat="51.687652990221977" lon="0.660738972947001">
        <ele>44</ele>
        <time>2018-02-18T10:37:31Z</time>
      </trkpt>
      <trkpt lat="51.687642009928823" lon="0.660769985988736">
        <ele>44</ele>
        <time>2018-02-18T10:37:33Z</time>
      </trkpt>
      <trkpt lat="51.687632035464048" lon="0.66079999320209">
        <ele>44</ele>
        <time>2018-02-18T10:37:35Z</time>
      </trkpt>
      <trkpt lat="51.687618959695101" lon="0.660832012072206">
        <ele>44</ele>
        <time>2018-02-18T10:37:37Z</time>
      </trkpt>
      <trkpt lat="51.687602028250694" lon="0.660856990143657">
        <ele>44</ele>
        <time>2018-02-18T10:37:39Z</time>
      </trkpt>
      <trkpt lat="51.687585012987256" lon="0.660876017063856">
        <ele>44</ele>
        <time>2018-02-18T10:37:41Z</time>
      </trkpt>
      <trkpt lat="51.68757101520896" lon="0.660899989306927">
        <ele>44</ele>
        <time>2018-02-18T10:37:43Z</time>
      </trkpt>
      <trkpt lat="51.687559029087424" lon="0.6609289906919">
        <ele>44</ele>
        <time>2018-02-18T10:37:45Z</time>
      </trkpt>
      <trkpt lat="51.687546959146857" lon="0.660963021218777">
        <ele>44</ele>
        <time>2018-02-18T10:37:47Z</time>
      </trkpt>
      <trkpt lat="51.687534973025322" lon="0.661000991240144">
        <ele>44</ele>
        <time>2018-02-18T10:37:49Z</time>
      </trkpt>
      <trkpt lat="51.687526004388928" lon="0.661039967089891">
        <ele>44</ele>
        <time>2018-02-18T10:37:51Z</time>
      </trkpt>
      <trkpt lat="51.687515024095774" lon="0.661081038415432">
        <ele>44</ele>
        <time>2018-02-18T10:37:53Z</time>
      </trkpt>
      <trkpt lat="51.68750798329711" lon="0.66112102009356">
        <ele>44</ele>
        <time>2018-02-18T10:37:55Z</time>
      </trkpt>
      <trkpt lat="51.687500020489097" lon="0.661158990114927">
        <ele>44</ele>
        <time>2018-02-18T10:37:57Z</time>
      </trkpt>
      <trkpt lat="51.687494991347194" lon="0.661196960136294">
        <ele>44</ele>
        <time>2018-02-18T10:37:59Z</time>
      </trkpt>
      <trkpt lat="51.687487028539181" lon="0.66122897900641">
        <ele>45</ele>
        <time>2018-02-18T10:38:01Z</time>
      </trkpt>
      <trkpt lat="51.687479987740517" lon="0.661265021190047">
        <ele>45</ele>
        <time>2018-02-18T10:38:03Z</time>
      </trkpt>
      <trkpt lat="51.687470013275743" lon="0.661300979554653">
        <ele>45</ele>
        <time>2018-02-18T10:38:05Z</time>
      </trkpt>
      <trkpt lat="51.687459032982588" lon="0.661334004253149">
        <ele>45</ele>
        <time>2018-02-18T10:38:07Z</time>
      </trkpt>
      <trkpt lat="51.687437994405627" lon="0.661349007859826">
        <ele>46</ele>
        <time>2018-02-18T10:38:09Z</time>
      </trkpt>
      <trkpt lat="51.687417961657047" lon="0.661350013688207">
        <ele>46</ele>
        <time>2018-02-18T10:38:11Z</time>
      </trkpt>
      <trkpt lat="51.687391977757215" lon="0.661361999809742">
        <ele>45</ele>
        <time>2018-02-18T10:38:14Z</time>
      </trkpt>
      <trkpt lat="51.687374962493777" lon="0.661372980102897">
        <ele>45</ele>
        <time>2018-02-18T10:38:16Z</time>
      </trkpt>
      <trkpt lat="51.68735702522099" lon="0.661381026729941">
        <ele>45</ele>
        <time>2018-02-18T10:38:18Z</time>
      </trkpt>
      <trkpt lat="51.687334980815649" lon="0.661381026729941">
        <ele>44.155739510874703</ele>
        <time>2018-02-18T10:38:21Z</time>
      </trkpt>
      <trkpt lat="51.687310002744198" lon="0.661388989537954">
        <ele>44</ele>
        <time>2018-02-18T10:38:26Z</time>
      </trkpt>
      <trkpt lat="51.687285024672747" lon="0.661402987316251">
        <ele>44</ele>
        <time>2018-02-18T10:38:29Z</time>
      </trkpt>
      <trkpt lat="51.687265997752547" lon="0.661404998973012">
        <ele>43</ele>
        <time>2018-02-18T10:38:31Z</time>
      </trkpt>
      <trkpt lat="51.687247976660728" lon="0.66140198148787">
        <ele>43</ele>
        <time>2018-02-18T10:38:34Z</time>
      </trkpt>
      <trkpt lat="51.687230039387941" lon="0.661389995366335">
        <ele>43</ele>
        <time>2018-02-18T10:38:36Z</time>
      </trkpt>
      <trkpt lat="51.687211012467742" lon="0.661392007023096">
        <ele>44</ele>
        <time>2018-02-18T10:38:53Z</time>
      </trkpt>
      <trkpt lat="51.687200032174587" lon="0.661412961781025">
        <ele>44</ele>
        <time>2018-02-18T10:38:56Z</time>
      </trkpt>
      <trkpt lat="51.687192991375923" lon="0.66144498065114">
        <ele>44</ele>
        <time>2018-02-18T10:38:58Z</time>
      </trkpt>
      <trkpt lat="51.687188968062401" lon="0.661506000906229">
        <ele>44</ele>
        <time>2018-02-18T10:39:00Z</time>
      </trkpt>
      <trkpt lat="51.687183016911149" lon="0.661544976755977">
        <ele>44</ele>
        <time>2018-02-18T10:39:01Z</time>
      </trkpt>
      <trkpt lat="51.687182011082768" lon="0.661583030596375">
        <ele>44</ele>
        <time>2018-02-18T10:39:02Z</time>
      </trkpt>
      <trkpt lat="51.687183016911149" lon="0.661625023931265">
        <ele>44</ele>
        <time>2018-02-18T10:39:03Z</time>
      </trkpt>
      <trkpt lat="51.687187040224671" lon="0.661669028922915">
        <ele>44</ele>
        <time>2018-02-18T10:39:04Z</time>
      </trkpt>
      <trkpt lat="51.687188968062401" lon="0.661713033914566">
        <ele>44</ele>
        <time>2018-02-18T10:39:05Z</time>
      </trkpt>
      <trkpt lat="51.687188968062401" lon="0.661754021421075">
        <ele>44</ele>
        <time>2018-02-18T10:39:06Z</time>
      </trkpt>
      <trkpt lat="51.687187040224671" lon="0.661795008927584">
        <ele>45.859993600000003</ele>
        <time>2018-02-18T10:39:07Z</time>
      </trkpt>
      <trkpt lat="51.68718502856791" lon="0.661832978948951">
        <ele>46</ele>
        <time>2018-02-18T10:39:08Z</time>
      </trkpt>
      <trkpt lat="51.68718402273953" lon="0.661869021132588">
        <ele>46.930689681392998</ele>
        <time>2018-02-18T10:39:09Z</time>
      </trkpt>
      <trkpt lat="51.687183016911149" lon="0.661904979497194">
        <ele>47</ele>
        <time>2018-02-18T10:39:10Z</time>
      </trkpt>
      <trkpt lat="51.687183016911149" lon="0.661940015852451">
        <ele>47</ele>
        <time>2018-02-18T10:39:11Z</time>
      </trkpt>
      <trkpt lat="51.687181005254388" lon="0.66197999753058">
        <ele>47</ele>
        <time>2018-02-18T10:39:12Z</time>
      </trkpt>
      <trkpt lat="51.687183016911149" lon="0.662018973380327">
        <ele>47.929996799999998</ele>
        <time>2018-02-18T10:39:13Z</time>
      </trkpt>
      <trkpt lat="51.68718402273953" lon="0.662059960886836">
        <ele>48</ele>
        <time>2018-02-18T10:39:14Z</time>
      </trkpt>
      <trkpt lat="51.687186034396291" lon="0.662102960050106">
        <ele>48</ele>
        <time>2018-02-18T10:39:15Z</time>
      </trkpt>
      <trkpt lat="51.68718796223402" lon="0.662145037204027">
        <ele>48</ele>
        <time>2018-02-18T10:39:16Z</time>
      </trkpt>
      <trkpt lat="51.687190979719162" lon="0.662188958376646">
        <ele>49</ele>
        <time>2018-02-18T10:39:17Z</time>
      </trkpt>
      <trkpt lat="51.687196008861065" lon="0.662227012217045">
        <ele>49</ele>
        <time>2018-02-18T10:39:18Z</time>
      </trkpt>
      <trkpt lat="51.687198020517826" lon="0.662264982238412">
        <ele>49</ele>
        <time>2018-02-18T10:39:19Z</time>
      </trkpt>
      <trkpt lat="51.687196008861065" lon="0.662304041907191">
        <ele>49</ele>
        <time>2018-02-18T10:39:20Z</time>
      </trkpt>
      <trkpt lat="51.687193997204304" lon="0.662343017756939">
        <ele>49</ele>
        <time>2018-02-18T10:39:21Z</time>
      </trkpt>
      <trkpt lat="51.687193997204304" lon="0.662384005263448">
        <ele>48.980006144078601</ele>
        <time>2018-02-18T10:39:22Z</time>
      </trkpt>
      <trkpt lat="51.687198020517826" lon="0.662422981113195">
        <ele>48</ele>
        <time>2018-02-18T10:39:23Z</time>
      </trkpt>
      <trkpt lat="51.687200032174587" lon="0.662464974448085">
        <ele>48</ele>
        <time>2018-02-18T10:39:24Z</time>
      </trkpt>
      <trkpt lat="51.687201960012317" lon="0.662504034116864">
        <ele>48</ele>
        <time>2018-02-18T10:39:25Z</time>
      </trkpt>
      <trkpt lat="51.687209000810981" lon="0.662547033280134">
        <ele>48</ele>
        <time>2018-02-18T10:39:26Z</time>
      </trkpt>
      <trkpt lat="51.687214029952884" lon="0.662593971937895">
        <ele>48</ele>
        <time>2018-02-18T10:39:27Z</time>
      </trkpt>
      <trkpt lat="51.687209000810981" lon="0.662635965272784">
        <ele>48</ele>
        <time>2018-02-18T10:39:28Z</time>
      </trkpt>
      <trkpt lat="51.687199026346207" lon="0.662676030769944">
        <ele>48</ele>
        <time>2018-02-18T10:39:29Z</time>
      </trkpt>
      <trkpt lat="51.687195003032684" lon="0.662716012448072">
        <ele>48</ele>
        <time>2018-02-18T10:39:30Z</time>
      </trkpt>
      <trkpt lat="51.687191985547543" lon="0.662761023268104">
        <ele>48</ele>
        <time>2018-02-18T10:39:31Z</time>
      </trkpt>
      <trkpt lat="51.68718402273953" lon="0.662806034088135">
        <ele>48</ele>
        <time>2018-02-18T10:39:32Z</time>
      </trkpt>
      <trkpt lat="51.687179999426007" lon="0.662851966917515">
        <ele>48</ele>
        <time>2018-02-18T10:39:33Z</time>
      </trkpt>
      <trkpt lat="51.687173964455724" lon="0.662897983565927">
        <ele>48</ele>
        <time>2018-02-18T10:39:34Z</time>
      </trkpt>
      <trkpt lat="51.687172958627343" lon="0.662940982729197">
        <ele>48</ele>
        <time>2018-02-18T10:39:35Z</time>
      </trkpt>
      <trkpt lat="51.687170024961233" lon="0.662983981892467">
        <ele>48</ele>
        <time>2018-02-18T10:39:36Z</time>
      </trkpt>
      <trkpt lat="51.68716499581933" lon="0.663024969398975">
        <ele>48</ele>
        <time>2018-02-18T10:39:37Z</time>
      </trkpt>
      <trkpt lat="51.687156027182937" lon="0.663067968562245">
        <ele>48</ele>
        <time>2018-02-18T10:39:38Z</time>
      </trkpt>
      <trkpt lat="51.687145968899131" lon="0.663109961897135">
        <ele>48</ele>
        <time>2018-02-18T10:39:39Z</time>
      </trkpt>
      <trkpt lat="51.687133982777596" lon="0.663151033222675">
        <ele>47.109589521488303</ele>
        <time>2018-02-18T10:39:40Z</time>
      </trkpt>
      <trkpt lat="51.68712099082768" lon="0.663187997415662">
        <ele>47</ele>
        <time>2018-02-18T10:39:41Z</time>
      </trkpt>
      <trkpt lat="51.687107998877764" lon="0.663221022114158">
        <ele>47</ele>
        <time>2018-02-18T10:39:42Z</time>
      </trkpt>
      <trkpt lat="51.687087966129184" lon="0.663252035155892">
        <ele>47</ele>
        <time>2018-02-18T10:39:43Z</time>
      </trkpt>
      <trkpt lat="51.687071034684777" lon="0.663278019055724">
        <ele>47</ele>
        <time>2018-02-18T10:39:44Z</time>
      </trkpt>
      <trkpt lat="51.6870560310781" lon="0.663299979642034">
        <ele>46.049501939015997</ele>
        <time>2018-02-18T10:39:45Z</time>
      </trkpt>
      <trkpt lat="51.687030969187617" lon="0.663331998512149">
        <ele>46</ele>
        <time>2018-02-18T10:39:47Z</time>
      </trkpt>
      <trkpt lat="51.687005991116166" lon="0.663359994068742">
        <ele>46</ele>
        <time>2018-02-18T10:39:49Z</time>
      </trkpt>
      <trkpt lat="51.686985036358237" lon="0.663370974361897">
        <ele>46</ele>
        <time>2018-02-18T10:39:51Z</time>
      </trkpt>
      <trkpt lat="51.686957962810993" lon="0.663382038474083">
        <ele>46</ele>
        <time>2018-02-18T10:39:53Z</time>
      </trkpt>
      <trkpt lat="51.686932984739542" lon="0.663395030423999">
        <ele>46</ele>
        <time>2018-02-18T10:39:55Z</time>
      </trkpt>
      <trkpt lat="51.686914041638374" lon="0.663407016545534">
        <ele>0</ele>
        <time>2018-02-18T10:39:57Z</time>
      </trkpt>
      <trkpt lat="51.68656200170517" lon="0.663353959098458">
        <ele>43.099998474121101</ele>
        <time>2018-02-17T08:28:58Z</time>
      </trkpt>
      <trkpt lat="51.686548003926873" lon="0.663326969370246">
        <ele>48</ele>
        <time>2018-02-17T08:29:00Z</time>
      </trkpt>
      <trkpt lat="51.686516990885139" lon="0.663285981863737">
        <ele>47.747748474959401</ele>
        <time>2018-02-17T08:29:02Z</time>
      </trkpt>
      <trkpt lat="51.68649603612721" lon="0.663266032934189">
        <ele>47</ele>
        <time>2018-02-17T08:29:03Z</time>
      </trkpt>
      <trkpt lat="51.686473991721869" lon="0.663247006013989">
        <ele>47.1699968</ele>
        <time>2018-02-17T08:29:04Z</time>
      </trkpt>
      <trkpt lat="51.686454964801669" lon="0.663221022114158">
        <ele>48</ele>
        <time>2018-02-17T08:29:05Z</time>
      </trkpt>
      <trkpt lat="51.686436021700501" lon="0.663198977708817">
        <ele>48</ele>
        <time>2018-02-17T08:29:06Z</time>
      </trkpt>
      <trkpt lat="51.68641297146678" lon="0.663182968273759">
        <ele>48</ele>
        <time>2018-02-17T08:29:07Z</time>
      </trkpt>
      <trkpt lat="51.686394028365612" lon="0.663163019344211">
        <ele>48</ele>
        <time>2018-02-17T08:29:08Z</time>
      </trkpt>
      <trkpt lat="51.686376007273793" lon="0.663144998252392">
        <ele>48</ele>
        <time>2018-02-17T08:29:09Z</time>
      </trkpt>
      <trkpt lat="51.686359997838736" lon="0.663123037666082">
        <ele>48</ele>
        <time>2018-02-17T08:29:10Z</time>
      </trkpt>
      <trkpt lat="51.686346000060439" lon="0.663097975775599">
        <ele>48</ele>
        <time>2018-02-17T08:29:11Z</time>
      </trkpt>
      <trkpt lat="51.686336025595665" lon="0.663069980219007">
        <ele>48</ele>
        <time>2018-02-17T08:29:12Z</time>
      </trkpt>
      <trkpt lat="51.68632797896862" lon="0.663036033511162">
        <ele>48</ele>
        <time>2018-02-17T08:29:13Z</time>
      </trkpt>
      <trkpt lat="51.686321021988988" lon="0.662997979670763">
        <ele>48</ele>
        <time>2018-02-17T08:29:14Z</time>
      </trkpt>
      <trkpt lat="51.686307024210691" lon="0.662965038791299">
        <ele>48</ele>
        <time>2018-02-17T08:29:15Z</time>
      </trkpt>
      <trkpt lat="51.686290008947253" lon="0.662937965244055">
        <ele>48</ele>
        <time>2018-02-17T08:29:16Z</time>
      </trkpt>
      <trkpt lat="51.686267964541912" lon="0.662912987172604">
        <ele>48</ele>
        <time>2018-02-17T08:29:17Z</time>
      </trkpt>
      <trkpt lat="51.686244998127222" lon="0.662885997444391">
        <ele>48.237117483274197</ele>
        <time>2018-02-17T08:29:18Z</time>
      </trkpt>
      <trkpt lat="51.686223959550261" lon="0.662855990231037">
        <ele>49</ele>
        <time>2018-02-17T08:29:19Z</time>
      </trkpt>
      <trkpt lat="51.686201998963952" lon="0.662835035473108">
        <ele>49</ele>
        <time>2018-02-17T08:29:20Z</time>
      </trkpt>
      <trkpt lat="51.686182972043753" lon="0.662809973582625">
        <ele>49</ele>
        <time>2018-02-17T08:29:21Z</time>
      </trkpt>
      <trkpt lat="51.686163023114204" lon="0.662795975804329">
        <ele>49.242423458833301</ele>
        <time>2018-02-17T08:29:22Z</time>
      </trkpt>
      <trkpt lat="51.686145002022386" lon="0.662782983854413">
        <ele>50</ele>
        <time>2018-02-17T08:29:23Z</time>
      </trkpt>
      <trkpt lat="51.686124969273806" lon="0.662768986076117">
        <ele>50</ele>
        <time>2018-02-17T08:29:24Z</time>
      </trkpt>
      <trkpt lat="51.686105020344257" lon="0.66275498829782">
        <ele>50</ele>
        <time>2018-02-17T08:29:25Z</time>
      </trkpt>
      <trkpt lat="51.686083981767297" lon="0.662740990519524">
        <ele>50</ele>
        <time>2018-02-17T08:29:26Z</time>
      </trkpt>
      <trkpt lat="51.686062021180987" lon="0.66273202188313">
        <ele>50</ele>
        <time>2018-02-17T08:29:27Z</time>
      </trkpt>
      <trkpt lat="51.686037965118885" lon="0.662722969427705">
        <ele>50</ele>
        <time>2018-02-17T08:29:28Z</time>
      </trkpt>
      <trkpt lat="51.686018016189337" lon="0.66271098330617">
        <ele>50</ele>
        <time>2018-02-17T08:29:29Z</time>
      </trkpt>
      <trkpt lat="51.685998989269137" lon="0.662702014669776">
        <ele>50</ele>
        <time>2018-02-17T08:29:30Z</time>
      </trkpt>
      <trkpt lat="51.68596001341939" lon="0.662683993577957">
        <ele>50</ele>
        <time>2018-02-17T08:29:32Z</time>
      </trkpt>
      <trkpt lat="51.68593998067081" lon="0.66266898997128">
        <ele>50</ele>
        <time>2018-02-17T08:29:33Z</time>
      </trkpt>
      <trkpt lat="51.685913996770978" lon="0.662660021334887">
        <ele>49.8499968</ele>
        <time>2018-02-17T08:29:34Z</time>
      </trkpt>
      <trkpt lat="51.685889018699527" lon="0.662654992192984">
        <ele>49</ele>
        <time>2018-02-17T08:29:35Z</time>
      </trkpt>
      <trkpt lat="51.685865968465805" lon="0.662647029384971">
        <ele>49</ele>
        <time>2018-02-17T08:29:36Z</time>
      </trkpt>
      <trkpt lat="51.685843002051115" lon="0.662636971101165">
        <ele>49</ele>
        <time>2018-02-17T08:29:37Z</time>
      </trkpt>
      <trkpt lat="51.685820035636425" lon="0.662632025778294">
        <ele>49</ele>
        <time>2018-02-17T08:29:38Z</time>
      </trkpt>
      <trkpt lat="51.685794973745942" lon="0.662617022171617">
        <ele>49</ele>
        <time>2018-02-17T08:29:39Z</time>
      </trkpt>
      <trkpt lat="51.685772007331252" lon="0.662607969716191">
        <ele>49</ele>
        <time>2018-02-17T08:29:40Z</time>
      </trkpt>
      <trkpt lat="51.685747029259801" lon="0.66260201856494">
        <ele>49.340002047973798</ele>
        <time>2018-02-17T08:29:41Z</time>
      </trkpt>
      <trkpt lat="51.685726996511221" lon="0.662597995251417">
        <ele>50</ele>
        <time>2018-02-17T08:29:42Z</time>
      </trkpt>
      <trkpt lat="51.685706041753292" lon="0.662591038271785">
        <ele>50</ele>
        <time>2018-02-17T08:29:43Z</time>
      </trkpt>
      <trkpt lat="51.685687014833093" lon="0.662586009129882">
        <ele>50</ele>
        <time>2018-02-17T08:29:44Z</time>
      </trkpt>
      <trkpt lat="51.685665976256132" lon="0.66258299164474">
        <ele>49.747478796028098</ele>
        <time>2018-02-17T08:29:45Z</time>
      </trkpt>
      <trkpt lat="51.685646027326584" lon="0.662573017179966">
        <ele>49</ele>
        <time>2018-02-17T08:29:46Z</time>
      </trkpt>
      <trkpt lat="51.685623982921243" lon="0.662556001916528">
        <ele>49</ele>
        <time>2018-02-17T08:29:47Z</time>
      </trkpt>
      <trkpt lat="51.685602022334933" lon="0.662548961117864">
        <ele>49</ele>
        <time>2018-02-17T08:29:48Z</time>
      </trkpt>
      <trkpt lat="51.685580983757973" lon="0.662535969167948">
        <ele>49</ele>
        <time>2018-02-17T08:29:49Z</time>
      </trkpt>
      <trkpt lat="51.685560029000044" lon="0.662519037723541">
        <ele>49</ele>
        <time>2018-02-17T08:29:50Z</time>
      </trkpt>
      <trkpt lat="51.685536978766322" lon="0.662508979439735">
        <ele>49</ele>
        <time>2018-02-17T08:29:51Z</time>
      </trkpt>
      <trkpt lat="51.685515018180013" lon="0.662504034116864">
        <ele>49</ele>
        <time>2018-02-17T08:29:52Z</time>
      </trkpt>
      <trkpt lat="51.68549096211791" lon="0.662492970004678">
        <ele>49</ele>
        <time>2018-02-17T08:29:53Z</time>
      </trkpt>
      <trkpt lat="51.685470007359982" lon="0.662487018853426">
        <ele>49</ele>
        <time>2018-02-17T08:29:54Z</time>
      </trkpt>
      <trkpt lat="51.685450980439782" lon="0.662477966398001">
        <ele>49</ele>
        <time>2018-02-17T08:29:55Z</time>
      </trkpt>
      <trkpt lat="51.685431031510234" lon="0.662462040781975">
        <ele>49</ele>
        <time>2018-02-17T08:29:56Z</time>
      </trkpt>
      <trkpt lat="51.685412004590034" lon="0.662441002205014">
        <ele>48.816321199534997</ele>
        <time>2018-02-17T08:29:57Z</time>
      </trkpt>
      <trkpt lat="51.685392977669835" lon="0.662421975284815">
        <ele>48</ele>
        <time>2018-02-17T08:29:58Z</time>
      </trkpt>
      <trkpt lat="51.685372022911906" lon="0.662402026355267">
        <ele>48</ele>
        <time>2018-02-17T08:29:59Z</time>
      </trkpt>
      <trkpt lat="51.685351990163326" lon="0.662385011091828">
        <ele>48</ele>
        <time>2018-02-17T08:30:00Z</time>
      </trkpt>
      <trkpt lat="51.685332041233778" lon="0.662360033020377">
        <ele>48</ele>
        <time>2018-02-17T08:30:01Z</time>
      </trkpt>
      <trkpt lat="51.685312008485198" lon="0.662335976958275">
        <ele>48</ele>
        <time>2018-02-17T08:30:02Z</time>
      </trkpt>
      <trkpt lat="51.685291975736618" lon="0.662319967523217">
        <ele>48</ele>
        <time>2018-02-17T08:30:03Z</time>
      </trkpt>
      <trkpt lat="51.68527303263545" lon="0.662305969744921">
        <ele>48</ele>
        <time>2018-02-17T08:30:04Z</time>
      </trkpt>
      <trkpt lat="51.685255011543632" lon="0.662299012765288">
        <ele>48</ele>
        <time>2018-02-17T08:30:05Z</time>
      </trkpt>
      <trkpt lat="51.685234978795052" lon="0.662299012765288">
        <ele>48</ele>
        <time>2018-02-17T08:30:06Z</time>
      </trkpt>
      <trkpt lat="51.685214024037123" lon="0.662293983623385">
        <ele>48</ele>
        <time>2018-02-17T08:30:07Z</time>
      </trkpt>
      <trkpt lat="51.685191979631782" lon="0.662288032472134">
        <ele>48</ele>
        <time>2018-02-17T08:30:08Z</time>
      </trkpt>
      <trkpt lat="51.685169013217092" lon="0.662284009158611">
        <ele>48</ele>
        <time>2018-02-17T08:30:09Z</time>
      </trkpt>
      <trkpt lat="51.68514696881175" lon="0.66228199750185">
        <ele>48</ele>
        <time>2018-02-17T08:30:10Z</time>
      </trkpt>
      <trkpt lat="51.685125008225441" lon="0.662275962531567">
        <ele>48</ele>
        <time>2018-02-17T08:30:11Z</time>
      </trkpt>
      <trkpt lat="51.685105981305242" lon="0.662272023037076">
        <ele>48</ele>
        <time>2018-02-17T08:30:12Z</time>
      </trkpt>
      <trkpt lat="51.685086032375693" lon="0.662265988066792">
        <ele>48</ele>
        <time>2018-02-17T08:30:13Z</time>
      </trkpt>
      <trkpt lat="51.685063987970352" lon="0.66226196475327">
        <ele>48</ele>
        <time>2018-02-17T08:30:14Z</time>
      </trkpt>
      <trkpt lat="51.685044039040804" lon="0.66225802525878">
        <ele>48</ele>
        <time>2018-02-17T08:30:15Z</time>
      </trkpt>
      <trkpt lat="51.685023000463843" lon="0.662249978631735">
        <ele>47.693069055977297</ele>
        <time>2018-02-17T08:30:16Z</time>
      </trkpt>
      <trkpt lat="51.685002967715263" lon="0.662247966974974">
        <ele>47</ele>
        <time>2018-02-17T08:30:17Z</time>
      </trkpt>
      <trkpt lat="51.684984024614096" lon="0.662244027480483">
        <ele>47.1500032</ele>
        <time>2018-02-17T08:30:18Z</time>
      </trkpt>
      <trkpt lat="51.684962986037135" lon="0.662241009995341">
        <ele>48</ele>
        <time>2018-02-17T08:30:19Z</time>
      </trkpt>
      <trkpt lat="51.684941025450826" lon="0.662235980853438">
        <ele>48</ele>
        <time>2018-02-17T08:30:20Z</time>
      </trkpt>
      <trkpt lat="51.684906994923949" lon="0.662233969196677">
        <ele>47.858579851054998</ele>
        <time>2018-02-17T08:30:22Z</time>
      </trkpt>
      <trkpt lat="51.684871958568692" lon="0.662230029702187">
        <ele>47</ele>
        <time>2018-02-17T08:30:24Z</time>
      </trkpt>
      <trkpt lat="51.68484304100275" lon="0.6622379925102">
        <ele>47</ele>
        <time>2018-02-17T08:30:26Z</time>
      </trkpt>
      <trkpt lat="51.684820996597409" lon="0.662251990288496">
        <ele>47</ele>
        <time>2018-02-17T08:30:28Z</time>
      </trkpt>
      <trkpt lat="51.684806998819113" lon="0.662223994731903">
        <ele>47</ele>
        <time>2018-02-17T08:30:32Z</time>
      </trkpt>
      <trkpt lat="51.684805992990732" lon="0.66219499334693">
        <ele>48</ele>
        <time>2018-02-17T08:30:36Z</time>
      </trkpt>
      <trkpt lat="51.684785038232803" lon="0.66219599917531">
        <ele>47.740740740740698</ele>
        <time>2018-02-17T08:30:39Z</time>
      </trkpt>
      <trkpt lat="51.684769028797746" lon="0.662212008610368">
        <ele>47</ele>
        <time>2018-02-17T08:30:41Z</time>
      </trkpt>
      <trkpt lat="51.684747990220785" lon="0.662229023873806">
        <ele>47</ele>
        <time>2018-02-17T08:30:44Z</time>
      </trkpt>
      <trkpt lat="51.684723012149334" lon="0.662247966974974">
        <ele>47</ele>
        <time>2018-02-17T08:30:46Z</time>
      </trkpt>
      <trkpt lat="51.684696022421122" lon="0.662279985845089">
        <ele>47</ele>
        <time>2018-02-17T08:30:48Z</time>
      </trkpt>
      <trkpt lat="51.684682024642825" lon="0.662297001108527">
        <ele>46.750003200000002</ele>
        <time>2018-02-17T08:30:49Z</time>
      </trkpt>
      <trkpt lat="51.684665009379387" lon="0.662321979179978">
        <ele>46</ele>
        <time>2018-02-17T08:30:50Z</time>
      </trkpt>
      <trkpt lat="51.684647994115949" lon="0.662347041070461">
        <ele>46</ele>
        <time>2018-02-17T08:30:51Z</time>
      </trkpt>
      <trkpt lat="51.68463097885251" lon="0.662365984171629">
        <ele>46</ele>
        <time>2018-02-17T08:30:52Z</time>
      </trkpt>
      <trkpt lat="51.684612035751343" lon="0.662384005263448">
        <ele>46</ele>
        <time>2018-02-17T08:30:53Z</time>
      </trkpt>
      <trkpt lat="51.684590997174382" lon="0.662398003041744">
        <ele>46</ele>
        <time>2018-02-17T08:30:54Z</time>
      </trkpt>
      <trkpt lat="51.684573981910944" lon="0.662407977506518">
        <ele>46</ele>
        <time>2018-02-17T08:30:55Z</time>
      </trkpt>
      <trkpt lat="51.684553027153015" lon="0.662414012476802">
        <ele>45.689996800000003</ele>
        <time>2018-02-17T08:30:56Z</time>
      </trkpt>
      <trkpt lat="51.684530982747674" lon="0.662421975284815">
        <ele>45</ele>
        <time>2018-02-17T08:30:57Z</time>
      </trkpt>
      <trkpt lat="51.684510027989745" lon="0.662432033568621">
        <ele>45</ele>
        <time>2018-02-17T08:30:58Z</time>
      </trkpt>
      <trkpt lat="51.684492006897926" lon="0.662437984719872">
        <ele>45</ele>
        <time>2018-02-17T08:30:59Z</time>
      </trkpt>
      <trkpt lat="51.684474991634488" lon="0.662449970841408">
        <ele>44.757809999999999</ele>
        <time>2018-02-17T08:31:00Z</time>
      </trkpt>
      <trkpt lat="51.684453031048179" lon="0.662462040781975">
        <ele>44</ele>
        <time>2018-02-17T08:31:01Z</time>
      </trkpt>
      <trkpt lat="51.684431992471218" lon="0.662470003589988">
        <ele>44</ele>
        <time>2018-02-17T08:31:02Z</time>
      </trkpt>
      <trkpt lat="51.68441497720778" lon="0.662478972226381">
        <ele>44</ele>
        <time>2018-02-17T08:31:03Z</time>
      </trkpt>
      <trkpt lat="51.684394022449851" lon="0.662490036338568">
        <ele>43.742579778470599</ele>
        <time>2018-02-17T08:31:04Z</time>
      </trkpt>
      <trkpt lat="51.684374995529652" lon="0.662501016631722">
        <ele>43</ele>
        <time>2018-02-17T08:31:05Z</time>
      </trkpt>
      <trkpt lat="51.684358986094594" lon="0.662511996924877">
        <ele>43</ele>
        <time>2018-02-17T08:31:06Z</time>
      </trkpt>
      <trkpt lat="51.684339959174395" lon="0.662522977218032">
        <ele>43</ele>
        <time>2018-02-17T08:31:07Z</time>
      </trkpt>
      <trkpt lat="51.684319004416466" lon="0.662535969167948">
        <ele>43</ele>
        <time>2018-02-17T08:31:08Z</time>
      </trkpt>
      <trkpt lat="51.684283968061209" lon="0.662551978603005">
        <ele>42.798454073684503</ele>
        <time>2018-02-17T08:31:10Z</time>
      </trkpt>
      <trkpt lat="51.684265024960041" lon="0.66256002523005">
        <ele>42.023258352268797</ele>
        <time>2018-02-17T08:31:11Z</time>
      </trkpt>
      <trkpt lat="51.684239041060209" lon="0.662572011351585">
        <ele>42</ele>
        <time>2018-02-17T08:31:13Z</time>
      </trkpt>
      <trkpt lat="51.684207022190094" lon="0.662590032443404">
        <ele>41.680412235095403</ele>
        <time>2018-02-17T08:31:15Z</time>
      </trkpt>
      <trkpt lat="51.684187995269895" lon="0.662596989423037">
        <ele>41</ele>
        <time>2018-02-17T08:31:16Z</time>
      </trkpt>
      <trkpt lat="51.68415698222816" lon="0.662614004686475">
        <ele>40</ele>
        <time>2018-02-17T08:31:18Z</time>
      </trkpt>
      <trkpt lat="51.684138961136341" lon="0.66262599080801">
        <ele>40</ele>
        <time>2018-02-17T08:31:19Z</time>
      </trkpt>
      <trkpt lat="51.684120018035173" lon="0.662640994414687">
        <ele>40</ele>
        <time>2018-02-17T08:31:20Z</time>
      </trkpt>
      <trkpt lat="51.684101996943355" lon="0.662653986364603">
        <ele>40</ele>
        <time>2018-02-17T08:31:21Z</time>
      </trkpt>
      <trkpt lat="51.684074001386762" lon="0.662674019113183">
        <ele>39.690905071097802</ele>
        <time>2018-02-17T08:31:23Z</time>
      </trkpt>
      <trkpt lat="51.684050029143691" lon="0.662691034376621">
        <ele>39</ele>
        <time>2018-02-17T08:31:25Z</time>
      </trkpt>
      <trkpt lat="51.684061009436846" lon="0.662735039368272">
        <ele>40</ele>
        <time>2018-02-17T08:31:37Z</time>
      </trkpt>
      <trkpt lat="51.684053968638182" lon="0.662767980247736">
        <ele>39.789474393349401</ele>
        <time>2018-02-17T08:31:38Z</time>
      </trkpt>
      <trkpt lat="51.684047011658549" lon="0.662802010774612">
        <ele>39</ele>
        <time>2018-02-17T08:31:39Z</time>
      </trkpt>
      <trkpt lat="51.684040976688266" lon="0.662834029644728">
        <ele>38.742579778470599</ele>
        <time>2018-02-17T08:31:40Z</time>
      </trkpt>
      <trkpt lat="51.684037037193775" lon="0.662868982180953">
        <ele>38</ele>
        <time>2018-02-17T08:31:41Z</time>
      </trkpt>
      <trkpt lat="51.684034019708633" lon="0.662906030192971">
        <ele>38</ele>
        <time>2018-02-17T08:31:42Z</time>
      </trkpt>
      <trkpt lat="51.684032008051872" lon="0.662938971072435">
        <ele>38</ele>
        <time>2018-02-17T08:31:43Z</time>
      </trkpt>
      <trkpt lat="51.684031002223492" lon="0.662974007427692">
        <ele>38</ele>
        <time>2018-02-17T08:31:44Z</time>
      </trkpt>
      <trkpt lat="51.68402798473835" lon="0.663011977449059">
        <ele>38</ele>
        <time>2018-02-17T08:31:45Z</time>
      </trkpt>
      <trkpt lat="51.684026978909969" lon="0.663045002147555">
        <ele>38</ele>
        <time>2018-02-17T08:31:46Z</time>
      </trkpt>
      <trkpt lat="51.684024967253208" lon="0.663078026846051">
        <ele>38</ele>
        <time>2018-02-17T08:31:47Z</time>
      </trkpt>
      <trkpt lat="51.684025973081589" lon="0.663110967725515">
        <ele>37.811024098207</ele>
        <time>2018-02-17T08:31:48Z</time>
      </trkpt>
      <trkpt lat="51.684026978909969" lon="0.66314198076725">
        <ele>37.023624507402801</ele>
        <time>2018-02-17T08:31:49Z</time>
      </trkpt>
      <trkpt lat="51.68402798473835" lon="0.663171987980604">
        <ele>37</ele>
        <time>2018-02-17T08:31:50Z</time>
      </trkpt>
      <trkpt lat="51.68402899056673" lon="0.663204006850719">
        <ele>36.777778906519799</ele>
        <time>2018-02-17T08:31:51Z</time>
      </trkpt>
      <trkpt lat="51.684029996395111" lon="0.663236025720835">
        <ele>36</ele>
        <time>2018-02-17T08:31:52Z</time>
      </trkpt>
      <trkpt lat="51.684031002223492" lon="0.663266032934189">
        <ele>36</ele>
        <time>2018-02-17T08:31:53Z</time>
      </trkpt>
      <trkpt lat="51.684029996395111" lon="0.663296962156892">
        <ele>36</ele>
        <time>2018-02-17T08:31:54Z</time>
      </trkpt>
      <trkpt lat="51.68402798473835" lon="0.663327975198627">
        <ele>36</ele>
        <time>2018-02-17T08:31:55Z</time>
      </trkpt>
      <trkpt lat="51.68402798473835" lon="0.663358988240361">
        <ele>36</ele>
        <time>2018-02-17T08:31:56Z</time>
      </trkpt>
      <trkpt lat="51.68402798473835" lon="0.663392012938857">
        <ele>36</ele>
        <time>2018-02-17T08:31:57Z</time>
      </trkpt>
      <trkpt lat="51.68402798473835" lon="0.663427971303463">
        <ele>36</ele>
        <time>2018-02-17T08:31:58Z</time>
      </trkpt>
      <trkpt lat="51.684026978909969" lon="0.663462001830339">
        <ele>36</ele>
        <time>2018-02-17T08:31:59Z</time>
      </trkpt>
      <trkpt lat="51.684025973081589" lon="0.663494020700455">
        <ele>36</ele>
        <time>2018-02-17T08:32:00Z</time>
      </trkpt>
      <trkpt lat="51.684024967253208" lon="0.663525033742189">
        <ele>36</ele>
        <time>2018-02-17T08:32:01Z</time>
      </trkpt>
      <trkpt lat="51.684023039415479" lon="0.663555040955544">
        <ele>35.750003200000002</ele>
        <time>2018-02-17T08:32:02Z</time>
      </trkpt>
      <trkpt lat="51.684021027758718" lon="0.663585970178247">
        <ele>35</ele>
        <time>2018-02-17T08:32:03Z</time>
      </trkpt>
      <trkpt lat="51.684019016101956" lon="0.663617989048362">
        <ele>35</ele>
        <time>2018-02-17T08:32:04Z</time>
      </trkpt>
      <trkpt lat="51.684018010273576" lon="0.663651013746858">
        <ele>35</ele>
        <time>2018-02-17T08:32:05Z</time>
      </trkpt>
      <trkpt lat="51.684017004445195" lon="0.663684960454702">
        <ele>35</ele>
        <time>2018-02-17T08:32:06Z</time>
      </trkpt>
      <trkpt lat="51.684015998616815" lon="0.663723014295101">
        <ele>35</ele>
        <time>2018-02-17T08:32:07Z</time>
      </trkpt>
      <trkpt lat="51.684015998616815" lon="0.663758972659707">
        <ele>35</ele>
        <time>2018-02-17T08:32:08Z</time>
      </trkpt>
      <trkpt lat="51.684014992788434" lon="0.663791997358203">
        <ele>35</ele>
        <time>2018-02-17T08:32:09Z</time>
      </trkpt>
      <trkpt lat="51.684015998616815" lon="0.663828039541841">
        <ele>35</ele>
        <time>2018-02-17T08:32:10Z</time>
      </trkpt>
      <trkpt lat="51.684015998616815" lon="0.663860980421305">
        <ele>34.691592698040502</ele>
        <time>2018-02-17T08:32:11Z</time>
      </trkpt>
      <trkpt lat="51.684017004445195" lon="0.663890987634659">
        <ele>34</ele>
        <time>2018-02-17T08:32:12Z</time>
      </trkpt>
      <trkpt lat="51.684023961424828" lon="0.663920994848013">
        <ele>34</ele>
        <time>2018-02-17T08:32:13Z</time>
      </trkpt>
      <trkpt lat="51.684034019708633" lon="0.663951002061367">
        <ele>34</ele>
        <time>2018-02-17T08:32:14Z</time>
      </trkpt>
      <trkpt lat="51.684045000001788" lon="0.663973968476057">
        <ele>34</ele>
        <time>2018-02-17T08:32:15Z</time>
      </trkpt>
      <trkpt lat="51.684058997780085" lon="0.66399903036654">
        <ele>34</ele>
        <time>2018-02-17T08:32:16Z</time>
      </trkpt>
      <trkpt lat="51.684072995558381" lon="0.664031971246004">
        <ele>34</ele>
        <time>2018-02-17T08:32:17Z</time>
      </trkpt>
      <trkpt lat="51.684082970023155" lon="0.664061978459358">
        <ele>34</ele>
        <time>2018-02-17T08:32:18Z</time>
      </trkpt>
      <trkpt lat="51.68409202247858" lon="0.664089974015951">
        <ele>34</ele>
        <time>2018-02-17T08:32:19Z</time>
      </trkpt>
      <trkpt lat="51.684101996943355" lon="0.664122998714447">
        <ele>34</ele>
        <time>2018-02-17T08:32:20Z</time>
      </trkpt>
      <trkpt lat="51.68411398306489" lon="0.664158035069704">
        <ele>34</ele>
        <time>2018-02-17T08:32:21Z</time>
      </trkpt>
      <trkpt lat="51.684124041348696" lon="0.664187036454678">
        <ele>34</ele>
        <time>2018-02-17T08:32:22Z</time>
      </trkpt>
      <trkpt lat="51.684133009985089" lon="0.664216959849">
        <ele>34</ele>
        <time>2018-02-17T08:32:23Z</time>
      </trkpt>
      <trkpt lat="51.684138961136341" lon="0.664248978719115">
        <ele>34</ele>
        <time>2018-02-17T08:32:24Z</time>
      </trkpt>
      <trkpt lat="51.684142984449863" lon="0.66427999176085">
        <ele>34</ele>
        <time>2018-02-17T08:32:25Z</time>
      </trkpt>
      <trkpt lat="51.684148013591766" lon="0.664307987317443">
        <ele>34</ele>
        <time>2018-02-17T08:32:26Z</time>
      </trkpt>
      <trkpt lat="51.684154970571399" lon="0.664337994530797">
        <ele>34</ele>
        <time>2018-02-17T08:32:27Z</time>
      </trkpt>
      <trkpt lat="51.684161005541682" lon="0.664368001744151">
        <ele>34</ele>
        <time>2018-02-17T08:32:28Z</time>
      </trkpt>
      <trkpt lat="51.684167962521315" lon="0.664395997300744">
        <ele>34</ele>
        <time>2018-02-17T08:32:29Z</time>
      </trkpt>
      <trkpt lat="51.684173997491598" lon="0.664427010342479">
        <ele>33.75</ele>
        <time>2018-02-17T08:32:30Z</time>
      </trkpt>
      <trkpt lat="51.684180032461882" lon="0.664480989798903">
        <ele>33</ele>
        <time>2018-02-17T08:32:32Z</time>
      </trkpt>
      <trkpt lat="51.684180032461882" lon="0.664513008669019">
        <ele>33</ele>
        <time>2018-02-17T08:32:33Z</time>
      </trkpt>
      <trkpt lat="51.684179026633501" lon="0.664544021710753">
        <ele>33</ele>
        <time>2018-02-17T08:32:34Z</time>
      </trkpt>
      <trkpt lat="51.684176009148359" lon="0.664603030309081">
        <ele>33</ele>
        <time>2018-02-17T08:32:36Z</time>
      </trkpt>
      <trkpt lat="51.684173997491598" lon="0.664643011987209">
        <ele>32.759999999999998</ele>
        <time>2018-02-17T08:32:38Z</time>
      </trkpt>
      <trkpt lat="51.68417701497674" lon="0.664676036685705">
        <ele>32</ele>
        <time>2018-02-17T08:32:41Z</time>
      </trkpt>
      <trkpt lat="51.684168968349695" lon="0.664702020585537">
        <ele>32</ele>
        <time>2018-02-17T08:32:49Z</time>
      </trkpt>
      <trkpt lat="51.684175003319979" lon="0.664739990606904">
        <ele>32</ele>
        <time>2018-02-17T08:32:54Z</time>
      </trkpt>
      <trkpt lat="51.684173997491598" lon="0.6647730153054">
        <ele>32</ele>
        <time>2018-02-17T08:32:56Z</time>
      </trkpt>
      <trkpt lat="51.684170980006456" lon="0.664802016690373">
        <ele>32.303026776825298</ele>
        <time>2018-02-17T08:32:59Z</time>
      </trkpt>
      <trkpt lat="51.684180032461882" lon="0.664825988933444">
        <ele>33</ele>
        <time>2018-02-17T08:33:05Z</time>
      </trkpt>
      <trkpt lat="51.684195036068559" lon="0.664855996146798">
        <ele>32</ele>
        <time>2018-02-17T08:33:09Z</time>
      </trkpt>
      <trkpt lat="51.684205010533333" lon="0.664901006966829">
        <ele>32</ele>
        <time>2018-02-17T08:33:12Z</time>
      </trkpt>
      <trkpt lat="51.684210039675236" lon="0.664943000301719">
        <ele>31.6874933333333</ele>
        <time>2018-02-17T08:33:14Z</time>
      </trkpt>
      <trkpt lat="51.684215990826488" lon="0.664983987808228">
        <ele>31</ele>
        <time>2018-02-17T08:33:16Z</time>
      </trkpt>
      <trkpt lat="51.684222025796771" lon="0.665028998628259">
        <ele>31</ele>
        <time>2018-02-17T08:33:18Z</time>
      </trkpt>
      <trkpt lat="51.684223031625152" lon="0.665088007226586">
        <ele>31.1500032</ele>
        <time>2018-02-17T08:33:20Z</time>
      </trkpt>
      <trkpt lat="51.684225965291262" lon="0.665119020268321">
        <ele>32</ele>
        <time>2018-02-17T08:33:21Z</time>
      </trkpt>
      <trkpt lat="51.684230994433165" lon="0.665149027481675">
        <ele>32</ele>
        <time>2018-02-17T08:33:22Z</time>
      </trkpt>
      <trkpt lat="51.684236023575068" lon="0.665180962532759">
        <ele>32</ele>
        <time>2018-02-17T08:33:23Z</time>
      </trkpt>
      <trkpt lat="51.684240968897939" lon="0.665210969746113">
        <ele>32</ele>
        <time>2018-02-17T08:33:24Z</time>
      </trkpt>
      <trkpt lat="51.684248009696603" lon="0.665265033021569">
        <ele>32</ele>
        <time>2018-02-17T08:33:26Z</time>
      </trkpt>
      <trkpt lat="51.684250021353364" lon="0.665295040234923">
        <ele>31.804343591741301</ele>
        <time>2018-02-17T08:33:27Z</time>
      </trkpt>
      <trkpt lat="51.684253960847855" lon="0.665351031348109">
        <ele>31</ele>
        <time>2018-02-17T08:33:29Z</time>
      </trkpt>
      <trkpt lat="51.684255972504616" lon="0.665381038561463">
        <ele>30.689996799999999</ele>
        <time>2018-02-17T08:33:30Z</time>
      </trkpt>
      <trkpt lat="51.68426301330328" lon="0.66544096916914">
        <ele>30</ele>
        <time>2018-02-17T08:33:32Z</time>
      </trkpt>
      <trkpt lat="51.684266030788422" lon="0.665473993867636">
        <ele>30</ele>
        <time>2018-02-17T08:33:33Z</time>
      </trkpt>
      <trkpt lat="51.684269970282912" lon="0.66550400108099">
        <ele>30</ele>
        <time>2018-02-17T08:33:34Z</time>
      </trkpt>
      <trkpt lat="51.684274999424815" lon="0.665533002465963">
        <ele>30</ele>
        <time>2018-02-17T08:33:35Z</time>
      </trkpt>
      <trkpt lat="51.684279022738338" lon="0.665565021336079">
        <ele>30</ele>
        <time>2018-02-17T08:33:36Z</time>
      </trkpt>
      <trkpt lat="51.684282962232828" lon="0.665594022721052">
        <ele>30</ele>
        <time>2018-02-17T08:33:37Z</time>
      </trkpt>
      <trkpt lat="51.68428597971797" lon="0.665623024106026">
        <ele>30</ele>
        <time>2018-02-17T08:33:38Z</time>
      </trkpt>
      <trkpt lat="51.684287991374731" lon="0.665654959157109">
        <ele>30</ele>
        <time>2018-02-17T08:33:39Z</time>
      </trkpt>
      <trkpt lat="51.684291008859873" lon="0.665684966370463">
        <ele>30</ele>
        <time>2018-02-17T08:33:40Z</time>
      </trkpt>
      <trkpt lat="51.684294026345015" lon="0.665715979412198">
        <ele>30</ele>
        <time>2018-02-17T08:33:41Z</time>
      </trkpt>
      <trkpt lat="51.684296960011125" lon="0.665747998282313">
        <ele>30</ele>
        <time>2018-02-17T08:33:42Z</time>
      </trkpt>
      <trkpt lat="51.684297965839505" lon="0.665779011324048">
        <ele>30</ele>
        <time>2018-02-17T08:33:43Z</time>
      </trkpt>
      <trkpt lat="51.684300983324647" lon="0.665811030194163">
        <ele>30</ele>
        <time>2018-02-17T08:33:44Z</time>
      </trkpt>
      <trkpt lat="51.684304000809789" lon="0.665842965245247">
        <ele>30</ele>
        <time>2018-02-17T08:33:45Z</time>
      </trkpt>
      <trkpt lat="51.684308024123311" lon="0.665902979671955">
        <ele>30</ele>
        <time>2018-02-17T08:33:47Z</time>
      </trkpt>
      <trkpt lat="51.684310035780072" lon="0.665936004370451">
        <ele>30</ele>
        <time>2018-02-17T08:33:48Z</time>
      </trkpt>
      <trkpt lat="51.684311963617802" lon="0.665966011583805">
        <ele>30</ele>
        <time>2018-02-17T08:33:49Z</time>
      </trkpt>
      <trkpt lat="51.684314981102943" lon="0.66599803045392">
        <ele>30</ele>
        <time>2018-02-17T08:33:50Z</time>
      </trkpt>
      <trkpt lat="51.684317998588085" lon="0.666030971333385">
        <ele>30</ele>
        <time>2018-02-17T08:33:51Z</time>
      </trkpt>
      <trkpt lat="51.684320010244846" lon="0.666060978546739">
        <ele>30</ele>
        <time>2018-02-17T08:33:52Z</time>
      </trkpt>
      <trkpt lat="51.684324033558369" lon="0.666090985760093">
        <ele>30</ele>
        <time>2018-02-17T08:33:53Z</time>
      </trkpt>
      <trkpt lat="51.684327973052859" lon="0.666123004630208">
        <ele>29.68</ele>
        <time>2018-02-17T08:33:54Z</time>
      </trkpt>
      <trkpt lat="51.684330990538001" lon="0.666155023500323">
        <ele>29</ele>
        <time>2018-02-17T08:33:55Z</time>
      </trkpt>
      <trkpt lat="51.684335013851523" lon="0.666188970208168">
        <ele>29</ele>
        <time>2018-02-17T08:33:56Z</time>
      </trkpt>
      <trkpt lat="51.684337025508285" lon="0.666219983249903">
        <ele>29</ele>
        <time>2018-02-17T08:33:57Z</time>
      </trkpt>
      <trkpt lat="51.684344988316298" lon="0.666279997676611">
        <ele>30</ele>
        <time>2018-02-17T08:33:59Z</time>
      </trkpt>
      <trkpt lat="51.68434901162982" lon="0.666311010718346">
        <ele>30</ele>
        <time>2018-02-17T08:34:00Z</time>
      </trkpt>
      <trkpt lat="51.684354040771723" lon="0.666345041245222">
        <ele>30</ele>
        <time>2018-02-17T08:34:01Z</time>
      </trkpt>
      <trkpt lat="51.684357980266213" lon="0.666378987953067">
        <ele>30</ele>
        <time>2018-02-17T08:34:02Z</time>
      </trkpt>
      <trkpt lat="51.684359991922975" lon="0.666412012651563">
        <ele>29</ele>
        <time>2018-02-17T08:34:03Z</time>
      </trkpt>
      <trkpt lat="51.684363009408116" lon="0.666447971016169">
        <ele>28.8484821059164</ele>
        <time>2018-02-17T08:34:04Z</time>
      </trkpt>
      <trkpt lat="51.684367032721639" lon="0.666483007371426">
        <ele>28</ele>
        <time>2018-02-17T08:34:05Z</time>
      </trkpt>
      <trkpt lat="51.684370972216129" lon="0.666517037898302">
        <ele>28</ele>
        <time>2018-02-17T08:34:06Z</time>
      </trkpt>
      <trkpt lat="51.684374995529652" lon="0.666552996262908">
        <ele>28</ele>
        <time>2018-02-17T08:34:07Z</time>
      </trkpt>
      <trkpt lat="51.684379018843174" lon="0.666588032618165">
        <ele>28</ele>
        <time>2018-02-17T08:34:08Z</time>
      </trkpt>
      <trkpt lat="51.684379018843174" lon="0.666624996811152">
        <ele>28</ele>
        <time>2018-02-17T08:34:09Z</time>
      </trkpt>
      <trkpt lat="51.684385975822806" lon="0.666661038994789">
        <ele>28</ele>
        <time>2018-02-17T08:34:10Z</time>
      </trkpt>
      <trkpt lat="51.68439301662147" lon="0.666694985702634">
        <ele>28</ele>
        <time>2018-02-17T08:34:11Z</time>
      </trkpt>
      <trkpt lat="51.684397961944342" lon="0.666730022057891">
        <ele>28</ele>
        <time>2018-02-17T08:34:12Z</time>
      </trkpt>
      <trkpt lat="51.684397039934993" lon="0.666767992079258">
        <ele>28</ele>
        <time>2018-02-17T08:34:13Z</time>
      </trkpt>
      <trkpt lat="51.684395028278232" lon="0.666805040091276">
        <ele>28</ele>
        <time>2018-02-17T08:34:14Z</time>
      </trkpt>
      <trkpt lat="51.684391004964709" lon="0.666835969313979">
        <ele>28</ele>
        <time>2018-02-17T08:34:15Z</time>
      </trkpt>
      <trkpt lat="51.684395028278232" lon="0.666864970698953">
        <ele>28</ele>
        <time>2018-02-17T08:34:16Z</time>
      </trkpt>
      <trkpt lat="51.684397961944342" lon="0.666896989569068">
        <ele>28</ele>
        <time>2018-02-17T08:34:17Z</time>
      </trkpt>
      <trkpt lat="51.684401985257864" lon="0.666932025924325">
        <ele>28</ele>
        <time>2018-02-17T08:34:18Z</time>
      </trkpt>
      <trkpt lat="51.684406008571386" lon="0.66696597263217">
        <ele>28</ele>
        <time>2018-02-17T08:34:19Z</time>
      </trkpt>
      <trkpt lat="51.684411037713289" lon="0.667002014815807">
        <ele>28</ele>
        <time>2018-02-17T08:34:20Z</time>
      </trkpt>
      <trkpt lat="51.684413971379399" lon="0.667040990665555">
        <ele>27.362321797927901</ele>
        <time>2018-02-17T08:34:21Z</time>
      </trkpt>
      <trkpt lat="51.684419000521302" lon="0.667113997042179">
        <ele>27</ele>
        <time>2018-02-17T08:34:23Z</time>
      </trkpt>
      <trkpt lat="51.684420006349683" lon="0.667150039225817">
        <ele>26.6600020480262</ele>
        <time>2018-02-17T08:34:24Z</time>
      </trkpt>
      <trkpt lat="51.684423023834825" lon="0.667185997590423">
        <ele>26.340002047973801</ele>
        <time>2018-02-17T08:34:25Z</time>
      </trkpt>
      <trkpt lat="51.684425035491586" lon="0.667220028117299">
        <ele>27</ele>
        <time>2018-02-17T08:34:26Z</time>
      </trkpt>
      <trkpt lat="51.684429980814457" lon="0.667254980653524">
        <ele>27</ele>
        <time>2018-02-17T08:34:27Z</time>
      </trkpt>
      <trkpt lat="51.684434004127979" lon="0.667291022837162">
        <ele>27</ele>
        <time>2018-02-17T08:34:28Z</time>
      </trkpt>
      <trkpt lat="51.684438027441502" lon="0.667325975373387">
        <ele>27</ele>
        <time>2018-02-17T08:34:29Z</time>
      </trkpt>
      <trkpt lat="51.684441966935992" lon="0.667362017557025">
        <ele>27</ele>
        <time>2018-02-17T08:34:30Z</time>
      </trkpt>
      <trkpt lat="51.684442972764373" lon="0.667399987578392">
        <ele>27</ele>
        <time>2018-02-17T08:34:31Z</time>
      </trkpt>
      <trkpt lat="51.684442972764373" lon="0.66743602976203">
        <ele>27</ele>
        <time>2018-02-17T08:34:32Z</time>
      </trkpt>
      <trkpt lat="51.684441966935992" lon="0.667473999783397">
        <ele>27</ele>
        <time>2018-02-17T08:34:33Z</time>
      </trkpt>
      <trkpt lat="51.684440961107612" lon="0.667509958148003">
        <ele>26.6600020480262</ele>
        <time>2018-02-17T08:34:34Z</time>
      </trkpt>
      <trkpt lat="51.684442972764373" lon="0.667542982846498">
        <ele>26</ele>
        <time>2018-02-17T08:34:35Z</time>
      </trkpt>
      <trkpt lat="51.684445990249515" lon="0.667577013373375">
        <ele>26</ele>
        <time>2018-02-17T08:34:36Z</time>
      </trkpt>
      <trkpt lat="51.684448001906276" lon="0.66760903224349">
        <ele>26</ele>
        <time>2018-02-17T08:34:37Z</time>
      </trkpt>
      <trkpt lat="51.684451019391418" lon="0.667641973122954">
        <ele>26</ele>
        <time>2018-02-17T08:34:38Z</time>
      </trkpt>
      <trkpt lat="51.684453031048179" lon="0.667676003649831">
        <ele>26</ele>
        <time>2018-02-17T08:34:39Z</time>
      </trkpt>
      <trkpt lat="51.684454036876559" lon="0.667708022519946">
        <ele>26</ele>
        <time>2018-02-17T08:34:40Z</time>
      </trkpt>
      <trkpt lat="51.684454958885908" lon="0.667741969227791">
        <ele>26</ele>
        <time>2018-02-17T08:34:41Z</time>
      </trkpt>
      <trkpt lat="51.684456970542669" lon="0.667773988097906">
        <ele>26</ele>
        <time>2018-02-17T08:34:42Z</time>
      </trkpt>
      <trkpt lat="51.68445898219943" lon="0.66780298948288">
        <ele>26</ele>
        <time>2018-02-17T08:34:43Z</time>
      </trkpt>
      <trkpt lat="51.684460993856192" lon="0.667836014181376">
        <ele>26</ele>
        <time>2018-02-17T08:34:44Z</time>
      </trkpt>
      <trkpt lat="51.684465017169714" lon="0.667869038879871">
        <ele>26</ele>
        <time>2018-02-17T08:34:45Z</time>
      </trkpt>
      <trkpt lat="51.684472979977727" lon="0.667899968102574">
        <ele>26</ele>
        <time>2018-02-17T08:34:46Z</time>
      </trkpt>
      <trkpt lat="51.68447901494801" lon="0.66793198697269">
        <ele>26</ele>
        <time>2018-02-17T08:34:47Z</time>
      </trkpt>
      <trkpt lat="51.684484966099262" lon="0.667959982529283">
        <ele>26</ele>
        <time>2018-02-17T08:34:48Z</time>
      </trkpt>
      <trkpt lat="51.684491001069546" lon="0.667988983914256">
        <ele>26</ele>
        <time>2018-02-17T08:34:49Z</time>
      </trkpt>
      <trkpt lat="51.68449804186821" lon="0.668021002784371">
        <ele>26</ele>
        <time>2018-02-17T08:34:50Z</time>
      </trkpt>
      <trkpt lat="51.684503993019462" lon="0.668053021654487">
        <ele>26</ele>
        <time>2018-02-17T08:34:51Z</time>
      </trkpt>
      <trkpt lat="51.684509022161365" lon="0.668085962533951">
        <ele>26</ele>
        <time>2018-02-17T08:34:52Z</time>
      </trkpt>
      <trkpt lat="51.684512039646506" lon="0.668120998889208">
        <ele>25.9493672937021</ele>
        <time>2018-02-17T08:34:53Z</time>
      </trkpt>
      <trkpt lat="51.684513967484236" lon="0.668153017759323">
        <ele>25</ele>
        <time>2018-02-17T08:34:54Z</time>
      </trkpt>
      <trkpt lat="51.684518996626139" lon="0.668184030801058">
        <ele>24.791669333333299</ele>
        <time>2018-02-17T08:34:55Z</time>
      </trkpt>
      <trkpt lat="51.6845210082829" lon="0.668215965852141">
        <ele>24</ele>
        <time>2018-02-17T08:34:56Z</time>
      </trkpt>
      <trkpt lat="51.684523019939661" lon="0.668244967237115">
        <ele>24</ele>
        <time>2018-02-17T08:34:57Z</time>
      </trkpt>
      <trkpt lat="51.684526959434152" lon="0.66827598027885">
        <ele>24</ele>
        <time>2018-02-17T08:34:58Z</time>
      </trkpt>
      <trkpt lat="51.684531988576055" lon="0.668306993320584">
        <ele>24</ele>
        <time>2018-02-17T08:34:59Z</time>
      </trkpt>
      <trkpt lat="51.684538023546338" lon="0.668338006362319">
        <ele>24</ele>
        <time>2018-02-17T08:35:00Z</time>
      </trkpt>
      <trkpt lat="51.684541963040829" lon="0.668372036889195">
        <ele>24</ele>
        <time>2018-02-17T08:35:01Z</time>
      </trkpt>
      <trkpt lat="51.68454498052597" lon="0.66840598359704">
        <ele>24</ele>
        <time>2018-02-17T08:35:02Z</time>
      </trkpt>
      <trkpt lat="51.684547998011112" lon="0.668439008295536">
        <ele>24</ele>
        <time>2018-02-17T08:35:03Z</time>
      </trkpt>
      <trkpt lat="51.684550009667873" lon="0.668473960831761">
        <ele>24</ele>
        <time>2018-02-17T08:35:04Z</time>
      </trkpt>
      <trkpt lat="51.684553027153015" lon="0.668506985530257">
        <ele>24</ele>
        <time>2018-02-17T08:35:05Z</time>
      </trkpt>
      <trkpt lat="51.684556966647506" lon="0.668541016057134">
        <ele>23.883718161161301</ele>
        <time>2018-02-17T08:35:06Z</time>
      </trkpt>
      <trkpt lat="51.684560989961028" lon="0.668574962764978">
        <ele>23.108522439745599</ele>
        <time>2018-02-17T08:35:07Z</time>
      </trkpt>
      <trkpt lat="51.68456501327455" lon="0.668606981635094">
        <ele>23.263162031371099</ele>
        <time>2018-02-17T08:35:08Z</time>
      </trkpt>
      <trkpt lat="51.684569958597422" lon="0.66864000633359">
        <ele>24</ele>
        <time>2018-02-17T08:35:09Z</time>
      </trkpt>
      <trkpt lat="51.684572976082563" lon="0.668674958869815">
        <ele>24</ele>
        <time>2018-02-17T08:35:10Z</time>
      </trkpt>
      <trkpt lat="51.684575993567705" lon="0.668707983568311">
        <ele>24</ele>
        <time>2018-02-17T08:35:11Z</time>
      </trkpt>
      <trkpt lat="51.684578005224466" lon="0.668745031580329">
        <ele>24</ele>
        <time>2018-02-17T08:35:12Z</time>
      </trkpt>
      <trkpt lat="51.684581022709608" lon="0.668779984116554">
        <ele>24</ele>
        <time>2018-02-17T08:35:13Z</time>
      </trkpt>
      <trkpt lat="51.68458404019475" lon="0.668814014643431">
        <ele>23.8499968</ele>
        <time>2018-02-17T08:35:14Z</time>
      </trkpt>
      <trkpt lat="51.68458697386086" lon="0.668850978836417">
        <ele>23</ele>
        <time>2018-02-17T08:35:15Z</time>
      </trkpt>
      <trkpt lat="51.684588985517621" lon="0.668885009363294">
        <ele>23</ele>
        <time>2018-02-17T08:35:16Z</time>
      </trkpt>
      <trkpt lat="51.684593008831143" lon="0.66891903989017">
        <ele>23</ele>
        <time>2018-02-17T08:35:17Z</time>
      </trkpt>
      <trkpt lat="51.684597032144666" lon="0.668952986598015">
        <ele>23</ele>
        <time>2018-02-17T08:35:18Z</time>
      </trkpt>
      <trkpt lat="51.684598959982395" lon="0.66898399963975">
        <ele>23</ele>
        <time>2018-02-17T08:35:19Z</time>
      </trkpt>
      <trkpt lat="51.684603989124298" lon="0.669019035995007">
        <ele>23</ele>
        <time>2018-02-17T08:35:20Z</time>
      </trkpt>
      <trkpt lat="51.68460801243782" lon="0.669052982702851">
        <ele>22.694741238766401</ele>
        <time>2018-02-17T08:35:21Z</time>
      </trkpt>
      <trkpt lat="51.684613041579723" lon="0.669083995744586">
        <ele>22</ele>
        <time>2018-02-17T08:35:22Z</time>
      </trkpt>
      <trkpt lat="51.684616981074214" lon="0.669118026271462">
        <ele>22</ele>
        <time>2018-02-17T08:35:23Z</time>
      </trkpt>
      <trkpt lat="51.684618992730975" lon="0.669149961322546">
        <ele>22</ele>
        <time>2018-02-17T08:35:24Z</time>
      </trkpt>
      <trkpt lat="51.684621004387736" lon="0.669180974364281">
        <ele>22</ele>
        <time>2018-02-17T08:35:25Z</time>
      </trkpt>
      <trkpt lat="51.684625027701259" lon="0.669215004891157">
        <ele>22</ele>
        <time>2018-02-17T08:35:26Z</time>
      </trkpt>
      <trkpt lat="51.68462997302413" lon="0.669249035418034">
        <ele>22</ele>
        <time>2018-02-17T08:35:27Z</time>
      </trkpt>
      <trkpt lat="51.684633996337652" lon="0.669282982125878">
        <ele>22</ele>
        <time>2018-02-17T08:35:28Z</time>
      </trkpt>
      <trkpt lat="51.684638019651175" lon="0.669320030137897">
        <ele>22.283338666666701</ele>
        <time>2018-02-17T08:35:29Z</time>
      </trkpt>
      <trkpt lat="51.684642964974046" lon="0.66935196518898">
        <ele>23</ele>
        <time>2018-02-17T08:35:30Z</time>
      </trkpt>
      <trkpt lat="51.684647994115949" lon="0.669385995715857">
        <ele>23</ele>
        <time>2018-02-17T08:35:31Z</time>
      </trkpt>
      <trkpt lat="51.684654029086232" lon="0.669422037899494">
        <ele>23</ele>
        <time>2018-02-17T08:35:32Z</time>
      </trkpt>
      <trkpt lat="51.684657968580723" lon="0.669455984607339">
        <ele>23</ele>
        <time>2018-02-17T08:35:33Z</time>
      </trkpt>
      <trkpt lat="51.684659980237484" lon="0.669490015134215">
        <ele>23</ele>
        <time>2018-02-17T08:35:34Z</time>
      </trkpt>
      <trkpt lat="51.684660986065865" lon="0.669522034004331">
        <ele>23</ele>
        <time>2018-02-17T08:35:35Z</time>
      </trkpt>
      <trkpt lat="51.684664003551006" lon="0.669557992368937">
        <ele>22</ele>
        <time>2018-02-17T08:35:36Z</time>
      </trkpt>
      <trkpt lat="51.684669032692909" lon="0.669595040380955">
        <ele>22</ele>
        <time>2018-02-17T08:35:37Z</time>
      </trkpt>
      <trkpt lat="51.684670960530639" lon="0.669625969603658">
        <ele>22</ele>
        <time>2018-02-17T08:35:38Z</time>
      </trkpt>
      <trkpt lat="51.684671966359019" lon="0.669658994302154">
        <ele>22</ele>
        <time>2018-02-17T08:35:39Z</time>
      </trkpt>
      <trkpt lat="51.684675989672542" lon="0.669690007343888">
        <ele>22</ele>
        <time>2018-02-17T08:35:40Z</time>
      </trkpt>
      <trkpt lat="51.684680012986064" lon="0.669720014557242">
        <ele>22</ele>
        <time>2018-02-17T08:35:41Z</time>
      </trkpt>
      <trkpt lat="51.684683030471206" lon="0.669753961265087">
        <ele>21.859995392059002</ele>
        <time>2018-02-17T08:35:42Z</time>
      </trkpt>
      <trkpt lat="51.684685964137316" lon="0.669790003448725">
        <ele>21</ele>
        <time>2018-02-17T08:35:43Z</time>
      </trkpt>
      <trkpt lat="51.684689987450838" lon="0.669825039803982">
        <ele>21</ele>
        <time>2018-02-17T08:35:44Z</time>
      </trkpt>
      <trkpt lat="51.68469300493598" lon="0.669859992340207">
        <ele>21</ele>
        <time>2018-02-17T08:35:45Z</time>
      </trkpt>
      <trkpt lat="51.684695016592741" lon="0.669891005381942">
        <ele>21</ele>
        <time>2018-02-17T08:35:46Z</time>
      </trkpt>
      <trkpt lat="51.684698034077883" lon="0.669926041737199">
        <ele>21</ele>
        <time>2018-02-17T08:35:47Z</time>
      </trkpt>
      <trkpt lat="51.684701973572373" lon="0.669959988445044">
        <ele>21</ele>
        <time>2018-02-17T08:35:48Z</time>
      </trkpt>
      <trkpt lat="51.684705996885896" lon="0.669992007315159">
        <ele>21</ele>
        <time>2018-02-17T08:35:49Z</time>
      </trkpt>
      <trkpt lat="51.684710020199418" lon="0.670025032013655">
        <ele>21</ele>
        <time>2018-02-17T08:35:50Z</time>
      </trkpt>
      <trkpt lat="51.684713959693909" lon="0.670056967064738">
        <ele>21</ele>
        <time>2018-02-17T08:35:51Z</time>
      </trkpt>
      <trkpt lat="51.684717983007431" lon="0.670086974278092">
        <ele>21</ele>
        <time>2018-02-17T08:35:52Z</time>
      </trkpt>
      <trkpt lat="51.684719994664192" lon="0.670117987319827">
        <ele>21</ele>
        <time>2018-02-17T08:35:53Z</time>
      </trkpt>
      <trkpt lat="51.684725023806095" lon="0.670147994533181">
        <ele>21</ele>
        <time>2018-02-17T08:35:54Z</time>
      </trkpt>
      <trkpt lat="51.684728041291237" lon="0.670179007574916">
        <ele>21</ele>
        <time>2018-02-17T08:35:55Z</time>
      </trkpt>
      <trkpt lat="51.684730974957347" lon="0.670211026445031">
        <ele>21</ele>
        <time>2018-02-17T08:35:56Z</time>
      </trkpt>
      <trkpt lat="51.684734998270869" lon="0.670244973152876">
        <ele>21</ele>
        <time>2018-02-17T08:35:57Z</time>
      </trkpt>
      <trkpt lat="51.68473700992763" lon="0.670279003679752">
        <ele>21</ele>
        <time>2018-02-17T08:35:58Z</time>
      </trkpt>
      <trkpt lat="51.684739021584392" lon="0.670312028378248">
        <ele>21</ele>
        <time>2018-02-17T08:35:59Z</time>
      </trkpt>
      <trkpt lat="51.684742039069533" lon="0.670344969257712">
        <ele>21</ele>
        <time>2018-02-17T08:36:00Z</time>
      </trkpt>
      <trkpt lat="51.684742961078882" lon="0.670380005612969">
        <ele>21</ele>
        <time>2018-02-17T08:36:01Z</time>
      </trkpt>
      <trkpt lat="51.684744972735643" lon="0.670413030311465">
        <ele>21</ele>
        <time>2018-02-17T08:36:02Z</time>
      </trkpt>
      <trkpt lat="51.684747990220785" lon="0.670445971190929">
        <ele>21</ele>
        <time>2018-02-17T08:36:03Z</time>
      </trkpt>
      <trkpt lat="51.684751007705927" lon="0.670480001717806">
        <ele>21</ele>
        <time>2018-02-17T08:36:04Z</time>
      </trkpt>
      <trkpt lat="51.684754025191069" lon="0.670511014759541">
        <ele>21</ele>
        <time>2018-02-17T08:36:05Z</time>
      </trkpt>
      <trkpt lat="51.68475603684783" lon="0.670544961467385">
        <ele>21</ele>
        <time>2018-02-17T08:36:06Z</time>
      </trkpt>
      <trkpt lat="51.684756958857179" lon="0.670578991994262">
        <ele>21</ele>
        <time>2018-02-17T08:36:07Z</time>
      </trkpt>
      <trkpt lat="51.684761987999082" lon="0.670611010864377">
        <ele>21</ele>
        <time>2018-02-17T08:36:08Z</time>
      </trkpt>
      <trkpt lat="51.684767017140985" lon="0.670643029734492">
        <ele>21</ele>
        <time>2018-02-17T08:36:09Z</time>
      </trkpt>
      <trkpt lat="51.684771040454507" lon="0.670674964785576">
        <ele>21</ele>
        <time>2018-02-17T08:36:10Z</time>
      </trkpt>
      <trkpt lat="51.684775985777378" lon="0.670707989484072">
        <ele>21</ele>
        <time>2018-02-17T08:36:11Z</time>
      </trkpt>
      <trkpt lat="51.684782020747662" lon="0.670742020010948">
        <ele>21</ele>
        <time>2018-02-17T08:36:12Z</time>
      </trkpt>
      <trkpt lat="51.684784032404423" lon="0.670774960890412">
        <ele>20.799996061557898</ele>
        <time>2018-02-17T08:36:13Z</time>
      </trkpt>
      <trkpt lat="51.684787971898913" lon="0.670808991417289">
        <ele>20.0307690792907</ele>
        <time>2018-02-17T08:36:14Z</time>
      </trkpt>
      <trkpt lat="51.684790989384055" lon="0.670844027772546">
        <ele>20</ele>
        <time>2018-02-17T08:36:15Z</time>
      </trkpt>
      <trkpt lat="51.684793001040816" lon="0.670875040814281">
        <ele>20</ele>
        <time>2018-02-17T08:36:16Z</time>
      </trkpt>
      <trkpt lat="51.684796018525958" lon="0.670906975865364">
        <ele>20</ele>
        <time>2018-02-17T08:36:17Z</time>
      </trkpt>
      <trkpt lat="51.684800963848829" lon="0.670938994735479">
        <ele>19.80208</ele>
        <time>2018-02-17T08:36:18Z</time>
      </trkpt>
      <trkpt lat="51.684804987162352" lon="0.670971013605595">
        <ele>19</ele>
        <time>2018-02-17T08:36:19Z</time>
      </trkpt>
      <trkpt lat="51.684808004647493" lon="0.671004960313439">
        <ele>19</ele>
        <time>2018-02-17T08:36:20Z</time>
      </trkpt>
      <trkpt lat="51.684812027961016" lon="0.671034967526793">
        <ele>19.252521203971899</ele>
        <time>2018-02-17T08:36:21Z</time>
      </trkpt>
      <trkpt lat="51.684814961627126" lon="0.671067992225289">
        <ele>20</ele>
        <time>2018-02-17T08:36:22Z</time>
      </trkpt>
      <trkpt lat="51.684816973283887" lon="0.671101016923785">
        <ele>20</ele>
        <time>2018-02-17T08:36:23Z</time>
      </trkpt>
      <trkpt lat="51.684817979112267" lon="0.671131024137139">
        <ele>20</ele>
        <time>2018-02-17T08:36:24Z</time>
      </trkpt>
      <trkpt lat="51.684820996597409" lon="0.671165976673365">
        <ele>19.747478796028101</ele>
        <time>2018-02-17T08:36:25Z</time>
      </trkpt>
      <trkpt lat="51.684824014082551" lon="0.671200007200241">
        <ele>19</ele>
        <time>2018-02-17T08:36:26Z</time>
      </trkpt>
      <trkpt lat="51.684827031567693" lon="0.671235965564847">
        <ele>18.747478796028101</ele>
        <time>2018-02-17T08:36:27Z</time>
      </trkpt>
      <trkpt lat="51.684830971062183" lon="0.671272007748485">
        <ele>18</ele>
        <time>2018-02-17T08:36:28Z</time>
      </trkpt>
      <trkpt lat="51.684834994375706" lon="0.671306038275361">
        <ele>18</ele>
        <time>2018-02-17T08:36:29Z</time>
      </trkpt>
      <trkpt lat="51.684838011860847" lon="0.671340990811586">
        <ele>18</ele>
        <time>2018-02-17T08:36:30Z</time>
      </trkpt>
      <trkpt lat="51.684841029345989" lon="0.671374015510082">
        <ele>18</ele>
        <time>2018-02-17T08:36:31Z</time>
      </trkpt>
      <trkpt lat="51.68484304100275" lon="0.671407962217927">
        <ele>18</ele>
        <time>2018-02-17T08:36:32Z</time>
      </trkpt>
      <trkpt lat="51.684843963012099" lon="0.671445010229945">
        <ele>18</ele>
        <time>2018-02-17T08:36:33Z</time>
      </trkpt>
      <trkpt lat="51.684846980497241" lon="0.671478034928441">
        <ele>18</ele>
        <time>2018-02-17T08:36:34Z</time>
      </trkpt>
      <trkpt lat="51.684851003810763" lon="0.671508964151144">
        <ele>18</ele>
        <time>2018-02-17T08:36:35Z</time>
      </trkpt>
      <trkpt lat="51.684855027124286" lon="0.671540983021259">
        <ele>18</ele>
        <time>2018-02-17T08:36:36Z</time>
      </trkpt>
      <trkpt lat="51.684859972447157" lon="0.671569984406233">
        <ele>18</ele>
        <time>2018-02-17T08:36:37Z</time>
      </trkpt>
      <trkpt lat="51.684867013245821" lon="0.671624969691038">
        <ele>18</ele>
        <time>2018-02-17T08:36:39Z</time>
      </trkpt>
      <trkpt lat="51.684875981882215" lon="0.671672997996211">
        <ele>18</ele>
        <time>2018-02-17T08:36:41Z</time>
      </trkpt>
      <trkpt lat="51.684883022680879" lon="0.671724965795875">
        <ele>18</ele>
        <time>2018-02-17T08:36:43Z</time>
      </trkpt>
      <trkpt lat="51.684897020459175" lon="0.67177802324295">
        <ele>18</ele>
        <time>2018-02-17T08:36:45Z</time>
      </trkpt>
      <trkpt lat="51.684904983267188" lon="0.671805012971163">
        <ele>18</ele>
        <time>2018-02-17T08:36:46Z</time>
      </trkpt>
      <trkpt lat="51.684913029894233" lon="0.671836026012897">
        <ele>18</ele>
        <time>2018-02-17T08:36:47Z</time>
      </trkpt>
      <trkpt lat="51.684923004359007" lon="0.671867961063981">
        <ele>18</ele>
        <time>2018-02-17T08:36:48Z</time>
      </trkpt>
      <trkpt lat="51.684934990480542" lon="0.671893022954464">
        <ele>18</ele>
        <time>2018-02-17T08:36:49Z</time>
      </trkpt>
      <trkpt lat="51.684946976602077" lon="0.671916995197535">
        <ele>18</ele>
        <time>2018-02-17T08:36:50Z</time>
      </trkpt>
      <trkpt lat="51.684959968551993" lon="0.671939961612225">
        <ele>17.787235491162601</ele>
        <time>2018-02-17T08:36:51Z</time>
      </trkpt>
      <trkpt lat="51.684990981593728" lon="0.671969968825579">
        <ele>17</ele>
        <time>2018-02-17T08:36:53Z</time>
      </trkpt>
      <trkpt lat="51.685009002685547" lon="0.671981032937765">
        <ele>17</ele>
        <time>2018-02-17T08:36:54Z</time>
      </trkpt>
      <trkpt lat="51.68503699824214" lon="0.672009028494358">
        <ele>17.175823557543499</ele>
        <time>2018-02-17T08:36:56Z</time>
      </trkpt>
      <trkpt lat="51.685064993798733" lon="0.672030989080668">
        <ele>18</ele>
        <time>2018-02-17T08:36:58Z</time>
      </trkpt>
      <trkpt lat="51.685090977698565" lon="0.672046998515725">
        <ele>18</ele>
        <time>2018-02-17T08:37:00Z</time>
      </trkpt>
      <trkpt lat="51.685116039589047" lon="0.672062002122402">
        <ele>18</ele>
        <time>2018-02-17T08:37:02Z</time>
      </trkpt>
      <trkpt lat="51.685138000175357" lon="0.67207901738584">
        <ele>18</ele>
        <time>2018-02-17T08:37:04Z</time>
      </trkpt>
      <trkpt lat="51.685156021267176" lon="0.672110030427575">
        <ele>18</ele>
        <time>2018-02-17T08:37:06Z</time>
      </trkpt>
      <trkpt lat="51.685159960761666" lon="0.672150012105703">
        <ele>18</ele>
        <time>2018-02-17T08:37:08Z</time>
      </trkpt>
      <trkpt lat="51.685160966590047" lon="0.672185970470309">
        <ele>18</ele>
        <time>2018-02-17T08:37:10Z</time>
      </trkpt>
      <trkpt lat="51.685160966590047" lon="0.672238022089005">
        <ele>18</ele>
        <time>2018-02-17T08:37:14Z</time>
      </trkpt>
      <trkpt lat="51.685159038752317" lon="0.67227297462523">
        <ele>18</ele>
        <time>2018-02-17T08:37:16Z</time>
      </trkpt>
      <trkpt lat="51.685162978246808" lon="0.672310022637248">
        <ele>17.2452875756222</ele>
        <time>2018-02-17T08:37:19Z</time>
      </trkpt>
      <trkpt lat="51.685170019045472" lon="0.672342963516712">
        <ele>18</ele>
        <time>2018-02-17T08:37:23Z</time>
      </trkpt>
      <trkpt lat="51.685177981853485" lon="0.672370037063956">
        <ele>19</ele>
        <time>2018-02-17T08:37:25Z</time>
      </trkpt>
      <trkpt lat="51.685180999338627" lon="0.672409012913704">
        <ele>19</ele>
        <time>2018-02-17T08:37:27Z</time>
      </trkpt>
      <trkpt lat="51.685180999338627" lon="0.672450000420213">
        <ele>19.2244847313289</ele>
        <time>2018-02-17T08:37:29Z</time>
      </trkpt>
      <trkpt lat="51.685183010995388" lon="0.672481013461947">
        <ele>20</ele>
        <time>2018-02-17T08:37:31Z</time>
      </trkpt>
      <trkpt lat="51.685190973803401" lon="0.672513032332063">
        <ele>20</ele>
        <time>2018-02-17T08:37:35Z</time>
      </trkpt>
      <trkpt lat="51.685197008773685" lon="0.672546979039907">
        <ele>19</ele>
        <time>2018-02-17T08:37:39Z</time>
      </trkpt>
      <trkpt lat="51.685205977410078" lon="0.6725749745965">
        <ele>18</ele>
        <time>2018-02-17T08:37:42Z</time>
      </trkpt>
      <trkpt lat="51.685215029865503" lon="0.672607999294996">
        <ele>17</ele>
        <time>2018-02-17T08:37:44Z</time>
      </trkpt>
      <trkpt lat="51.685221986845136" lon="0.672640018165112">
        <ele>17</ele>
        <time>2018-02-17T08:37:46Z</time>
      </trkpt>
      <trkpt lat="51.685220981016755" lon="0.672673964872956">
        <ele>17</ele>
        <time>2018-02-17T08:37:49Z</time>
      </trkpt>
      <trkpt lat="51.685225004330277" lon="0.672711012884974">
        <ele>17</ele>
        <time>2018-02-17T08:37:51Z</time>
      </trkpt>
      <trkpt lat="51.685234978795052" lon="0.672760969027877">
        <ele>17</ele>
        <time>2018-02-17T08:37:53Z</time>
      </trkpt>
      <trkpt lat="51.685239002108574" lon="0.672794999554753">
        <ele>17</ele>
        <time>2018-02-17T08:37:54Z</time>
      </trkpt>
      <trkpt lat="51.685245037078857" lon="0.672831041738391">
        <ele>17</ele>
        <time>2018-02-17T08:37:55Z</time>
      </trkpt>
      <trkpt lat="51.685248976573348" lon="0.672863982617855">
        <ele>17</ele>
        <time>2018-02-17T08:37:56Z</time>
      </trkpt>
      <trkpt lat="51.68525199405849" lon="0.672900024801493">
        <ele>17</ele>
        <time>2018-02-17T08:37:57Z</time>
      </trkpt>
      <trkpt lat="51.685255011543632" lon="0.672935983166099">
        <ele>17</ele>
        <time>2018-02-17T08:37:58Z</time>
      </trkpt>
      <trkpt lat="51.685258029028773" lon="0.672968002036214">
        <ele>17</ele>
        <time>2018-02-17T08:37:59Z</time>
      </trkpt>
      <trkpt lat="51.685260040685534" lon="0.6730049662292">
        <ele>17</ele>
        <time>2018-02-17T08:38:00Z</time>
      </trkpt>
      <trkpt lat="51.685262974351645" lon="0.673040002584457">
        <ele>16.831685803361001</ele>
        <time>2018-02-17T08:38:01Z</time>
      </trkpt>
      <trkpt lat="51.685264986008406" lon="0.673074033111334">
        <ele>16</ele>
        <time>2018-02-17T08:38:02Z</time>
      </trkpt>
      <trkpt lat="51.685269009321928" lon="0.673108985647559">
        <ele>16</ele>
        <time>2018-02-17T08:38:03Z</time>
      </trkpt>
      <trkpt lat="51.685274038463831" lon="0.673141004517674">
        <ele>17</ele>
        <time>2018-02-17T08:38:04Z</time>
      </trkpt>
      <trkpt lat="51.685280995443463" lon="0.673176040872931">
        <ele>17</ele>
        <time>2018-02-17T08:38:05Z</time>
      </trkpt>
      <trkpt lat="51.685284012928605" lon="0.673215016722679">
        <ele>17</ele>
        <time>2018-02-17T08:38:06Z</time>
      </trkpt>
      <trkpt lat="51.685286024585366" lon="0.673250975087285">
        <ele>16.936713167744099</ele>
        <time>2018-02-17T08:38:07Z</time>
      </trkpt>
      <trkpt lat="51.685288036242127" lon="0.673288023099303">
        <ele>16</ele>
        <time>2018-02-17T08:38:08Z</time>
      </trkpt>
      <trkpt lat="51.685289964079857" lon="0.67332498729229">
        <ele>16</ele>
        <time>2018-02-17T08:38:09Z</time>
      </trkpt>
      <trkpt lat="51.685293987393379" lon="0.673361029475927">
        <ele>16</ele>
        <time>2018-02-17T08:38:10Z</time>
      </trkpt>
      <trkpt lat="51.68529599905014" lon="0.673398999497294">
        <ele>16</ele>
        <time>2018-02-17T08:38:11Z</time>
      </trkpt>
      <trkpt lat="51.685298010706902" lon="0.67343101836741">
        <ele>16</ele>
        <time>2018-02-17T08:38:12Z</time>
      </trkpt>
      <trkpt lat="51.685302034020424" lon="0.673463037237525">
        <ele>15.937504000000001</ele>
        <time>2018-02-17T08:38:13Z</time>
      </trkpt>
      <trkpt lat="51.685305973514915" lon="0.673500001430511">
        <ele>15</ele>
        <time>2018-02-17T08:38:14Z</time>
      </trkpt>
      <trkpt lat="51.685307985171676" lon="0.673534031957388">
        <ele>15.247522368387701</ele>
        <time>2018-02-17T08:38:15Z</time>
      </trkpt>
      <trkpt lat="51.685311002656817" lon="0.673564039170742">
        <ele>16</ele>
        <time>2018-02-17T08:38:16Z</time>
      </trkpt>
      <trkpt lat="51.685313014313579" lon="0.673596980050206">
        <ele>16</ele>
        <time>2018-02-17T08:38:17Z</time>
      </trkpt>
      <trkpt lat="51.68531502597034" lon="0.673627993091941">
        <ele>16</ele>
        <time>2018-02-17T08:38:18Z</time>
      </trkpt>
      <trkpt lat="51.685317037627101" lon="0.673661017790437">
        <ele>16</ele>
        <time>2018-02-17T08:38:19Z</time>
      </trkpt>
      <trkpt lat="51.68531795963645" lon="0.673695970326662">
        <ele>16</ele>
        <time>2018-02-17T08:38:20Z</time>
      </trkpt>
      <trkpt lat="51.68531896546483" lon="0.673727989196777">
        <ele>15.7500032</ele>
        <time>2018-02-17T08:38:21Z</time>
      </trkpt>
      <trkpt lat="51.685321982949972" lon="0.673762019723654">
        <ele>15</ele>
        <time>2018-02-17T08:38:22Z</time>
      </trkpt>
      <trkpt lat="51.685325000435114" lon="0.673795966431499">
        <ele>15</ele>
        <time>2018-02-17T08:38:23Z</time>
      </trkpt>
      <trkpt lat="51.685328017920256" lon="0.673827985301614">
        <ele>15</ele>
        <time>2018-02-17T08:38:24Z</time>
      </trkpt>
      <trkpt lat="51.685332041233778" lon="0.67386201582849">
        <ele>15</ele>
        <time>2018-02-17T08:38:25Z</time>
      </trkpt>
      <trkpt lat="51.685333969071507" lon="0.673895040526986">
        <ele>15</ele>
        <time>2018-02-17T08:38:26Z</time>
      </trkpt>
      <trkpt lat="51.685335980728269" lon="0.673925969749689">
        <ele>15</ele>
        <time>2018-02-17T08:38:27Z</time>
      </trkpt>
      <trkpt lat="51.685341009870172" lon="0.673958994448185">
        <ele>15</ele>
        <time>2018-02-17T08:38:28Z</time>
      </trkpt>
      <trkpt lat="51.685343021526933" lon="0.6739910133183">
        <ele>15</ele>
        <time>2018-02-17T08:38:29Z</time>
      </trkpt>
      <trkpt lat="51.685344027355313" lon="0.674026971682906">
        <ele>14.6874933333333</ele>
        <time>2018-02-17T08:38:30Z</time>
      </trkpt>
      <trkpt lat="51.685346961021423" lon="0.674059996381402">
        <ele>14</ele>
        <time>2018-02-17T08:38:31Z</time>
      </trkpt>
      <trkpt lat="51.685348972678185" lon="0.674091009423137">
        <ele>14</ele>
        <time>2018-02-17T08:38:32Z</time>
      </trkpt>
      <trkpt lat="51.685352995991707" lon="0.674124034121633">
        <ele>14</ele>
        <time>2018-02-17T08:38:33Z</time>
      </trkpt>
      <trkpt lat="51.685357019305229" lon="0.674154963344336">
        <ele>14</ele>
        <time>2018-02-17T08:38:34Z</time>
      </trkpt>
      <trkpt lat="51.68535903096199" lon="0.674183964729309">
        <ele>14</ele>
        <time>2018-02-17T08:38:35Z</time>
      </trkpt>
      <trkpt lat="51.68536095879972" lon="0.674215983599424">
        <ele>14</ele>
        <time>2018-02-17T08:38:36Z</time>
      </trkpt>
      <trkpt lat="51.685363976284862" lon="0.674272980540991">
        <ele>14</ele>
        <time>2018-02-17T08:38:38Z</time>
      </trkpt>
      <trkpt lat="51.685365987941623" lon="0.674307011067867">
        <ele>14</ele>
        <time>2018-02-17T08:38:39Z</time>
      </trkpt>
      <trkpt lat="51.685365987941623" lon="0.674336012452841">
        <ele>14</ele>
        <time>2018-02-17T08:38:40Z</time>
      </trkpt>
      <trkpt lat="51.685370011255145" lon="0.674368031322956">
        <ele>14</ele>
        <time>2018-02-17T08:38:41Z</time>
      </trkpt>
      <trkpt lat="51.685372022911906" lon="0.674401978030801">
        <ele>14</ele>
        <time>2018-02-17T08:38:42Z</time>
      </trkpt>
      <trkpt lat="51.685373028740287" lon="0.674432991072536">
        <ele>14</ele>
        <time>2018-02-17T08:38:43Z</time>
      </trkpt>
      <trkpt lat="51.685376968234777" lon="0.674461992457509">
        <ele>14</ele>
        <time>2018-02-17T08:38:44Z</time>
      </trkpt>
      <trkpt lat="51.685377974063158" lon="0.674491999670863">
        <ele>14</ele>
        <time>2018-02-17T08:38:45Z</time>
      </trkpt>
      <trkpt lat="51.685377974063158" lon="0.674523012712598">
        <ele>14</ele>
        <time>2018-02-17T08:38:46Z</time>
      </trkpt>
      <trkpt lat="51.6853809915483" lon="0.674556959420443">
        <ele>14</ele>
        <time>2018-02-17T08:38:47Z</time>
      </trkpt>
      <trkpt lat="51.685384009033442" lon="0.6745919957757">
        <ele>14</ele>
        <time>2018-02-17T08:38:48Z</time>
      </trkpt>
      <trkpt lat="51.685387026518583" lon="0.674626026302576">
        <ele>14</ele>
        <time>2018-02-17T08:38:49Z</time>
      </trkpt>
      <trkpt lat="51.685390966013074" lon="0.67465796135366">
        <ele>14</ele>
        <time>2018-02-17T08:38:50Z</time>
      </trkpt>
      <trkpt lat="51.685393983498216" lon="0.674688974395394">
        <ele>14</ele>
        <time>2018-02-17T08:38:51Z</time>
      </trkpt>
      <trkpt lat="51.685399012640119" lon="0.674723004922271">
        <ele>14</ele>
        <time>2018-02-17T08:38:52Z</time>
      </trkpt>
      <trkpt lat="51.68540203012526" lon="0.674757035449147">
        <ele>13.742570367648</ele>
        <time>2018-02-17T08:38:53Z</time>
      </trkpt>
      <trkpt lat="51.68540496379137" lon="0.674786036834121">
        <ele>13</ele>
        <time>2018-02-17T08:38:54Z</time>
      </trkpt>
      <trkpt lat="51.685408987104893" lon="0.674815960228443">
        <ele>13</ele>
        <time>2018-02-17T08:38:55Z</time>
      </trkpt>
      <trkpt lat="51.685414016246796" lon="0.674847979098558">
        <ele>13</ele>
        <time>2018-02-17T08:38:56Z</time>
      </trkpt>
      <trkpt lat="51.685418039560318" lon="0.674881003797054">
        <ele>13</ele>
        <time>2018-02-17T08:38:57Z</time>
      </trkpt>
      <trkpt lat="51.685422984883189" lon="0.67491696216166">
        <ele>13</ele>
        <time>2018-02-17T08:38:58Z</time>
      </trkpt>
      <trkpt lat="51.685426002368331" lon="0.674951998516917">
        <ele>13</ele>
        <time>2018-02-17T08:38:59Z</time>
      </trkpt>
      <trkpt lat="51.685428014025092" lon="0.674986029043794">
        <ele>13</ele>
        <time>2018-02-17T08:39:00Z</time>
      </trkpt>
      <trkpt lat="51.685430025681853" lon="0.675017964094877">
        <ele>13</ele>
        <time>2018-02-17T08:39:01Z</time>
      </trkpt>
      <trkpt lat="51.685432959347963" lon="0.675049982964993">
        <ele>13</ele>
        <time>2018-02-17T08:39:02Z</time>
      </trkpt>
      <trkpt lat="51.685436982661486" lon="0.675084013491869">
        <ele>13</ele>
        <time>2018-02-17T08:39:03Z</time>
      </trkpt>
      <trkpt lat="51.685440000146627" lon="0.675117960199714">
        <ele>13</ele>
        <time>2018-02-17T08:39:04Z</time>
      </trkpt>
      <trkpt lat="51.685443017631769" lon="0.675149979069829">
        <ele>13</ele>
        <time>2018-02-17T08:39:05Z</time>
      </trkpt>
      <trkpt lat="51.68544502928853" lon="0.675183003768325">
        <ele>13</ele>
        <time>2018-02-17T08:39:06Z</time>
      </trkpt>
      <trkpt lat="51.685446035116911" lon="0.675218040123582">
        <ele>13</ele>
        <time>2018-02-17T08:39:07Z</time>
      </trkpt>
      <trkpt lat="51.68544796295464" lon="0.675249975174665">
        <ele>13</ele>
        <time>2018-02-17T08:39:08Z</time>
      </trkpt>
      <trkpt lat="51.685449974611402" lon="0.675284005701542">
        <ele>13</ele>
        <time>2018-02-17T08:39:09Z</time>
      </trkpt>
      <trkpt lat="51.685453997924924" lon="0.675315018743277">
        <ele>13</ele>
        <time>2018-02-17T08:39:10Z</time>
      </trkpt>
      <trkpt lat="51.685459027066827" lon="0.675346031785011">
        <ele>13</ele>
        <time>2018-02-17T08:39:11Z</time>
      </trkpt>
      <trkpt lat="51.685461038723588" lon="0.675377966836095">
        <ele>13</ele>
        <time>2018-02-17T08:39:12Z</time>
      </trkpt>
      <trkpt lat="51.685463972389698" lon="0.67540998570621">
        <ele>13</ele>
        <time>2018-02-17T08:39:13Z</time>
      </trkpt>
      <trkpt lat="51.685465984046459" lon="0.675440998747945">
        <ele>13</ele>
        <time>2018-02-17T08:39:14Z</time>
      </trkpt>
      <trkpt lat="51.685470007359982" lon="0.67547301761806">
        <ele>13</ele>
        <time>2018-02-17T08:39:15Z</time>
      </trkpt>
      <trkpt lat="51.685472019016743" lon="0.675505036488175">
        <ele>13</ele>
        <time>2018-02-17T08:39:16Z</time>
      </trkpt>
      <trkpt lat="51.685473024845123" lon="0.675534959882498">
        <ele>13</ele>
        <time>2018-02-17T08:39:17Z</time>
      </trkpt>
      <trkpt lat="51.685476964339614" lon="0.675567984580994">
        <ele>13</ele>
        <time>2018-02-17T08:39:18Z</time>
      </trkpt>
      <trkpt lat="51.685477970167994" lon="0.675597991794348">
        <ele>13</ele>
        <time>2018-02-17T08:39:19Z</time>
      </trkpt>
      <trkpt lat="51.685478975996375" lon="0.675630010664463">
        <ele>13</ele>
        <time>2018-02-17T08:39:20Z</time>
      </trkpt>
      <trkpt lat="51.685481993481517" lon="0.675662029534578">
        <ele>13</ele>
        <time>2018-02-17T08:39:21Z</time>
      </trkpt>
      <trkpt lat="51.68548702262342" lon="0.675715003162622">
        <ele>13</ele>
        <time>2018-02-17T08:39:23Z</time>
      </trkpt>
      <trkpt lat="51.685489034280181" lon="0.675741992890835">
        <ele>13</ele>
        <time>2018-02-17T08:39:30Z</time>
      </trkpt>
      <trkpt lat="51.6854880284518" lon="0.675789015367627">
        <ele>13</ele>
        <time>2018-02-17T08:39:33Z</time>
      </trkpt>
      <trkpt lat="51.685484005138278" lon="0.675827991217375">
        <ele>13</ele>
        <time>2018-02-17T08:39:35Z</time>
      </trkpt>
      <trkpt lat="51.685480987653136" lon="0.675862021744251">
        <ele>13</ele>
        <time>2018-02-17T08:39:37Z</time>
      </trkpt>
      <trkpt lat="51.685473024845123" lon="0.67590300925076">
        <ele>13</ele>
        <time>2018-02-17T08:39:39Z</time>
      </trkpt>
      <trkpt lat="51.685464978218079" lon="0.675939973443747">
        <ele>13</ele>
        <time>2018-02-17T08:39:41Z</time>
      </trkpt>
      <trkpt lat="51.685457015410066" lon="0.675976015627384">
        <ele>13</ele>
        <time>2018-02-17T08:39:43Z</time>
      </trkpt>
      <trkpt lat="51.685442011803389" lon="0.676021026447415">
        <ele>13</ele>
        <time>2018-02-17T08:39:45Z</time>
      </trkpt>
      <trkpt lat="51.685430025681853" lon="0.67605203948915">
        <ele>13</ele>
        <time>2018-02-17T08:39:46Z</time>
      </trkpt>
      <trkpt lat="51.685418961569667" lon="0.676082968711853">
        <ele>13</ele>
        <time>2018-02-17T08:39:47Z</time>
      </trkpt>
      <trkpt lat="51.685405969619751" lon="0.676112975925207">
        <ele>13</ele>
        <time>2018-02-17T08:39:48Z</time>
      </trkpt>
      <trkpt lat="51.685393983498216" lon="0.676143988966942">
        <ele>13</ele>
        <time>2018-02-17T08:39:49Z</time>
      </trkpt>
      <trkpt lat="51.685383003205061" lon="0.676175002008677">
        <ele>13</ele>
        <time>2018-02-17T08:39:50Z</time>
      </trkpt>
      <trkpt lat="51.685371017083526" lon="0.676209032535553">
        <ele>13</ele>
        <time>2018-02-17T08:39:51Z</time>
      </trkpt>
      <trkpt lat="51.685360036790371" lon="0.676239039748907">
        <ele>13</ele>
        <time>2018-02-17T08:39:52Z</time>
      </trkpt>
      <trkpt lat="51.685346039012074" lon="0.67626996897161">
        <ele>13</ele>
        <time>2018-02-17T08:39:53Z</time>
      </trkpt>
      <trkpt lat="51.685333969071507" lon="0.676305005326867">
        <ele>13</ele>
        <time>2018-02-17T08:39:54Z</time>
      </trkpt>
      <trkpt lat="51.685326006263494" lon="0.676336018368602">
        <ele>13</ele>
        <time>2018-02-17T08:39:55Z</time>
      </trkpt>
      <trkpt lat="51.68531603179872" lon="0.676366025581956">
        <ele>12.7400030720393</ele>
        <time>2018-02-17T08:39:56Z</time>
      </trkpt>
      <trkpt lat="51.685303039848804" lon="0.67639896646142">
        <ele>12</ele>
        <time>2018-02-17T08:39:57Z</time>
      </trkpt>
      <trkpt lat="51.685292981564999" lon="0.676427967846394">
        <ele>12</ele>
        <time>2018-02-17T08:39:58Z</time>
      </trkpt>
      <trkpt lat="51.685284012928605" lon="0.676455041393638">
        <ele>12</ele>
        <time>2018-02-17T08:39:59Z</time>
      </trkpt>
      <trkpt lat="51.68527303263545" lon="0.676480019465089">
        <ele>12</ele>
        <time>2018-02-17T08:40:00Z</time>
      </trkpt>
      <trkpt lat="51.685260040685534" lon="0.676508015021682">
        <ele>12</ele>
        <time>2018-02-17T08:40:01Z</time>
      </trkpt>
      <trkpt lat="51.685246964916587" lon="0.676538022235036">
        <ele>12</ele>
        <time>2018-02-17T08:40:02Z</time>
      </trkpt>
      <trkpt lat="51.685233972966671" lon="0.676569035276771">
        <ele>12</ele>
        <time>2018-02-17T08:40:03Z</time>
      </trkpt>
      <trkpt lat="51.685220981016755" lon="0.676597030833364">
        <ele>12</ele>
        <time>2018-02-17T08:40:04Z</time>
      </trkpt>
      <trkpt lat="51.6852100007236" lon="0.676627038046718">
        <ele>12</ele>
        <time>2018-02-17T08:40:05Z</time>
      </trkpt>
      <trkpt lat="51.685200026258826" lon="0.67665402777493">
        <ele>12</ele>
        <time>2018-02-17T08:40:06Z</time>
      </trkpt>
      <trkpt lat="51.68518996797502" lon="0.676684034988284">
        <ele>12</ele>
        <time>2018-02-17T08:40:07Z</time>
      </trkpt>
      <trkpt lat="51.685175970196724" lon="0.676717981696129">
        <ele>11.8484821059164</ele>
        <time>2018-02-17T08:40:08Z</time>
      </trkpt>
      <trkpt lat="51.685164989903569" lon="0.676751006394625">
        <ele>11</ele>
        <time>2018-02-17T08:40:09Z</time>
      </trkpt>
      <trkpt lat="51.685154009610415" lon="0.67678302526474">
        <ele>11</ele>
        <time>2018-02-17T08:40:10Z</time>
      </trkpt>
      <trkpt lat="51.68514302931726" lon="0.676814038306475">
        <ele>11</ele>
        <time>2018-02-17T08:40:11Z</time>
      </trkpt>
      <trkpt lat="51.685135988518596" lon="0.676841028034687">
        <ele>11</ele>
        <time>2018-02-17T08:40:12Z</time>
      </trkpt>
      <trkpt lat="51.68512299656868" lon="0.676870029419661">
        <ele>11</ele>
        <time>2018-02-17T08:40:13Z</time>
      </trkpt>
      <trkpt lat="51.685113022103906" lon="0.676900036633015">
        <ele>11.2016801299358</ele>
        <time>2018-02-17T08:40:14Z</time>
      </trkpt>
      <trkpt lat="51.68510396964848" lon="0.676930965855718">
        <ele>12</ele>
        <time>2018-02-17T08:40:15Z</time>
      </trkpt>
      <trkpt lat="51.685092989355326" lon="0.676963990554214">
        <ele>12</ele>
        <time>2018-02-17T08:40:16Z</time>
      </trkpt>
      <trkpt lat="51.68508100323379" lon="0.676993997767568">
        <ele>12</ele>
        <time>2018-02-17T08:40:17Z</time>
      </trkpt>
      <trkpt lat="51.685068011283875" lon="0.677022999152541">
        <ele>12</ele>
        <time>2018-02-17T08:40:18Z</time>
      </trkpt>
      <trkpt lat="51.685056025162339" lon="0.677052000537515">
        <ele>12</ele>
        <time>2018-02-17T08:40:19Z</time>
      </trkpt>
      <trkpt lat="51.685044961050153" lon="0.677081001922488">
        <ele>12.2066094720251</ele>
        <time>2018-02-17T08:40:20Z</time>
      </trkpt>
      <trkpt lat="51.685031969100237" lon="0.677110003307462">
        <ele>13</ele>
        <time>2018-02-17T08:40:21Z</time>
      </trkpt>
      <trkpt lat="51.68501797132194" lon="0.677141016349196">
        <ele>13</ele>
        <time>2018-02-17T08:40:22Z</time>
      </trkpt>
      <trkpt lat="51.685007996857166" lon="0.677167000249028">
        <ele>13</ele>
        <time>2018-02-17T08:40:23Z</time>
      </trkpt>
      <trkpt lat="51.684990981593728" lon="0.677221985533834">
        <ele>13</ele>
        <time>2018-02-17T08:40:25Z</time>
      </trkpt>
      <trkpt lat="51.684977989643812" lon="0.677254004403949">
        <ele>13</ele>
        <time>2018-02-17T08:40:26Z</time>
      </trkpt>
      <trkpt lat="51.684963991865516" lon="0.677285017445683">
        <ele>13</ele>
        <time>2018-02-17T08:40:27Z</time>
      </trkpt>
      <trkpt lat="51.68495200574398" lon="0.677317958325148">
        <ele>13</ele>
        <time>2018-02-17T08:40:28Z</time>
      </trkpt>
      <trkpt lat="51.684939013794065" lon="0.677351988852024">
        <ele>13</ele>
        <time>2018-02-17T08:40:29Z</time>
      </trkpt>
      <trkpt lat="51.684925016015768" lon="0.677384007722139">
        <ele>13</ele>
        <time>2018-02-17T08:40:30Z</time>
      </trkpt>
      <trkpt lat="51.684914035722613" lon="0.677416026592255">
        <ele>13</ele>
        <time>2018-02-17T08:40:31Z</time>
      </trkpt>
      <trkpt lat="51.684900959953666" lon="0.677448967471719">
        <ele>13</ele>
        <time>2018-02-17T08:40:32Z</time>
      </trkpt>
      <trkpt lat="51.684889979660511" lon="0.677479980513453">
        <ele>13</ele>
        <time>2018-02-17T08:40:33Z</time>
      </trkpt>
      <trkpt lat="51.684882016852498" lon="0.677505964413285">
        <ele>13</ele>
        <time>2018-02-17T08:40:34Z</time>
      </trkpt>
      <trkpt lat="51.684871036559343" lon="0.677533037960529">
        <ele>12.7399969280393</ele>
        <time>2018-02-17T08:40:35Z</time>
      </trkpt>
      <trkpt lat="51.684859972447157" lon="0.677563967183232">
        <ele>12</ele>
        <time>2018-02-17T08:40:36Z</time>
      </trkpt>
      <trkpt lat="51.684851003810763" lon="0.677591962739825">
        <ele>12</ele>
        <time>2018-02-17T08:40:37Z</time>
      </trkpt>
      <trkpt lat="51.684840023517609" lon="0.677619958296418">
        <ele>12</ele>
        <time>2018-02-17T08:40:38Z</time>
      </trkpt>
      <trkpt lat="51.684830971062183" lon="0.677646026015282">
        <ele>12.2600030719607</ele>
        <time>2018-02-17T08:40:39Z</time>
      </trkpt>
      <trkpt lat="51.684820996597409" lon="0.677677039057016">
        <ele>13</ele>
        <time>2018-02-17T08:40:40Z</time>
      </trkpt>
      <trkpt lat="51.684811022132635" lon="0.677706962451339">
        <ele>13</ele>
        <time>2018-02-17T08:40:41Z</time>
      </trkpt>
      <trkpt lat="51.68480004183948" lon="0.677737975493073">
        <ele>13</ele>
        <time>2018-02-17T08:40:42Z</time>
      </trkpt>
      <trkpt lat="51.684787971898913" lon="0.677767982706428">
        <ele>13</ele>
        <time>2018-02-17T08:40:43Z</time>
      </trkpt>
      <trkpt lat="51.684777997434139" lon="0.67779203876853">
        <ele>13</ele>
        <time>2018-02-17T08:40:44Z</time>
      </trkpt>
      <trkpt lat="51.684769028797746" lon="0.677824979647994">
        <ele>13</ele>
        <time>2018-02-17T08:40:46Z</time>
      </trkpt>
      <trkpt lat="51.68475897051394" lon="0.677852975204587">
        <ele>13</ele>
        <time>2018-02-17T08:40:48Z</time>
      </trkpt>
      <trkpt lat="51.68475897051394" lon="0.677883988246322">
        <ele>13</ele>
        <time>2018-02-17T08:40:52Z</time>
      </trkpt>
      <trkpt lat="51.6847800090909" lon="0.677890023216605">
        <ele>13</ele>
        <time>2018-02-17T08:40:55Z</time>
      </trkpt>
      <trkpt lat="51.684804987162352" lon="0.677885999903083">
        <ele>13</ele>
        <time>2018-02-17T08:40:58Z</time>
      </trkpt>
      <trkpt lat="51.684827031567693" lon="0.677876025438309">
        <ele>13</ele>
        <time>2018-02-17T08:41:00Z</time>
      </trkpt>
      <trkpt lat="51.684856032952666" lon="0.677868984639645">
        <ele>13</ele>
        <time>2018-02-17T08:41:02Z</time>
      </trkpt>
      <trkpt lat="51.68488604016602" lon="0.677854986861348">
        <ele>13</ele>
        <time>2018-02-17T08:41:04Z</time>
      </trkpt>
      <trkpt lat="51.684905989095569" lon="0.677847024053335">
        <ele>13</ele>
        <time>2018-02-17T08:41:05Z</time>
      </trkpt>
      <trkpt lat="51.68492803350091" lon="0.677838977426291">
        <ele>13</ele>
        <time>2018-02-17T08:41:06Z</time>
      </trkpt>
      <trkpt lat="51.684949994087219" lon="0.677835959941149">
        <ele>13</ele>
        <time>2018-02-17T08:41:07Z</time>
      </trkpt>
      <trkpt lat="51.684972960501909" lon="0.677834032103419">
        <ele>13</ele>
        <time>2018-02-17T08:41:08Z</time>
      </trkpt>
      <trkpt lat="51.684998022392392" lon="0.6778350379318">
        <ele>13</ele>
        <time>2018-02-17T08:41:09Z</time>
      </trkpt>
      <trkpt lat="51.685020988807082" lon="0.677833026275039">
        <ele>13</ele>
        <time>2018-02-17T08:41:10Z</time>
      </trkpt>
      <trkpt lat="51.685044961050153" lon="0.677830008789897">
        <ele>13</ele>
        <time>2018-02-17T08:41:11Z</time>
      </trkpt>
      <trkpt lat="51.685068011283875" lon="0.677824979647994">
        <ele>13</ele>
        <time>2018-02-17T08:41:12Z</time>
      </trkpt>
      <trkpt lat="51.685090977698565" lon="0.677823973819613">
        <ele>13</ele>
        <time>2018-02-17T08:41:13Z</time>
      </trkpt>
      <trkpt lat="51.685113022103906" lon="0.677821962162852">
        <ele>13</ele>
        <time>2018-02-17T08:41:14Z</time>
      </trkpt>
      <trkpt lat="51.685136994346976" lon="0.677819028496742">
        <ele>12.6875066666667</ele>
        <time>2018-02-17T08:41:15Z</time>
      </trkpt>
      <trkpt lat="51.685160966590047" lon="0.677820034325123">
        <ele>12</ele>
        <time>2018-02-17T08:41:16Z</time>
      </trkpt>
      <trkpt lat="51.685183010995388" lon="0.677822967991233">
        <ele>12</ele>
        <time>2018-02-17T08:41:17Z</time>
      </trkpt>
      <trkpt lat="51.685202959924936" lon="0.677821962162852">
        <ele>12</ele>
        <time>2018-02-17T08:41:18Z</time>
      </trkpt>
      <trkpt lat="51.685225004330277" lon="0.677821962162852">
        <ele>12</ele>
        <time>2018-02-17T08:41:19Z</time>
      </trkpt>
      <trkpt lat="51.685245037078857" lon="0.6778160110116">
        <ele>12</ele>
        <time>2018-02-17T08:41:20Z</time>
      </trkpt>
      <trkpt lat="51.685262974351645" lon="0.677810981869698">
        <ele>12</ele>
        <time>2018-02-17T08:41:21Z</time>
      </trkpt>
      <trkpt lat="51.685299016535282" lon="0.677808970212936">
        <ele>12</ele>
        <time>2018-02-17T08:41:23Z</time>
      </trkpt>
      <trkpt lat="51.68531896546483" lon="0.677807964384556">
        <ele>12</ele>
        <time>2018-02-17T08:41:24Z</time>
      </trkpt>
      <trkpt lat="51.68533799238503" lon="0.677810981869698">
        <ele>12</ele>
        <time>2018-02-17T08:41:25Z</time>
      </trkpt>
      <trkpt lat="51.685360036790371" lon="0.67781500518322">
        <ele>12</ele>
        <time>2018-02-17T08:41:26Z</time>
      </trkpt>
      <trkpt lat="51.68538199737668" lon="0.677817016839981">
        <ele>12</ele>
        <time>2018-02-17T08:41:27Z</time>
      </trkpt>
      <trkpt lat="51.685404041782022" lon="0.6778160110116">
        <ele>12</ele>
        <time>2018-02-17T08:41:28Z</time>
      </trkpt>
      <trkpt lat="51.685429019853473" lon="0.677812993526459">
        <ele>12</ele>
        <time>2018-02-17T08:41:29Z</time>
      </trkpt>
      <trkpt lat="51.685455003753304" lon="0.677812993526459">
        <ele>12</ele>
        <time>2018-02-17T08:41:30Z</time>
      </trkpt>
      <trkpt lat="51.685480987653136" lon="0.677813999354839">
        <ele>12</ele>
        <time>2018-02-17T08:41:31Z</time>
      </trkpt>
      <trkpt lat="51.685505965724587" lon="0.677812993526459">
        <ele>12</ele>
        <time>2018-02-17T08:41:32Z</time>
      </trkpt>
      <trkpt lat="51.685529015958309" lon="0.677817016839981">
        <ele>12</ele>
        <time>2018-02-17T08:41:33Z</time>
      </trkpt>
      <trkpt lat="51.685550976544619" lon="0.677818022668362">
        <ele>12</ele>
        <time>2018-02-17T08:41:34Z</time>
      </trkpt>
      <trkpt lat="51.685575032606721" lon="0.677819028496742">
        <ele>12</ele>
        <time>2018-02-17T08:41:35Z</time>
      </trkpt>
      <trkpt lat="51.685601016506553" lon="0.677825985476375">
        <ele>12</ele>
        <time>2018-02-17T08:41:36Z</time>
      </trkpt>
      <trkpt lat="51.685624988749623" lon="0.677834032103419">
        <ele>12</ele>
        <time>2018-02-17T08:41:37Z</time>
      </trkpt>
      <trkpt lat="51.685648960992694" lon="0.677846018224955">
        <ele>12</ele>
        <time>2018-02-17T08:41:38Z</time>
      </trkpt>
      <trkpt lat="51.685673017054796" lon="0.677856998518109">
        <ele>12</ele>
        <time>2018-02-17T08:41:39Z</time>
      </trkpt>
      <trkpt lat="51.685695983469486" lon="0.677865967154503">
        <ele>12</ele>
        <time>2018-02-17T08:41:40Z</time>
      </trkpt>
      <trkpt lat="51.685718027874827" lon="0.677873007953167">
        <ele>12</ele>
        <time>2018-02-17T08:41:41Z</time>
      </trkpt>
      <trkpt lat="51.685742000117898" lon="0.677879964932799">
        <ele>12</ele>
        <time>2018-02-17T08:41:42Z</time>
      </trkpt>
      <trkpt lat="51.685766978189349" lon="0.677885999903083">
        <ele>12</ele>
        <time>2018-02-17T08:41:43Z</time>
      </trkpt>
      <trkpt lat="51.685791034251451" lon="0.677887005731463">
        <ele>12</ele>
        <time>2018-02-17T08:41:44Z</time>
      </trkpt>
      <trkpt lat="51.685815006494522" lon="0.677893040701747">
        <ele>12</ele>
        <time>2018-02-17T08:41:45Z</time>
      </trkpt>
      <trkpt lat="51.685837972909212" lon="0.677893962711096">
        <ele>12</ele>
        <time>2018-02-17T08:41:46Z</time>
      </trkpt>
      <trkpt lat="51.685861023142934" lon="0.67790100350976">
        <ele>12</ele>
        <time>2018-02-17T08:41:47Z</time>
      </trkpt>
      <trkpt lat="51.685883989557624" lon="0.677906032651663">
        <ele>12</ele>
        <time>2018-02-17T08:41:48Z</time>
      </trkpt>
      <trkpt lat="51.685907961800694" lon="0.677910977974534">
        <ele>12</ele>
        <time>2018-02-17T08:41:49Z</time>
      </trkpt>
      <trkpt lat="51.685932017862797" lon="0.677918018773198">
        <ele>12</ele>
        <time>2018-02-17T08:41:50Z</time>
      </trkpt>
      <trkpt lat="51.685955990105867" lon="0.677927993237972">
        <ele>12</ele>
        <time>2018-02-17T08:41:51Z</time>
      </trkpt>
      <trkpt lat="51.685979040339589" lon="0.677938973531127">
        <ele>12</ele>
        <time>2018-02-17T08:41:52Z</time>
      </trkpt>
      <trkpt lat="51.686002006754279" lon="0.677953977137804">
        <ele>12</ele>
        <time>2018-02-17T08:41:53Z</time>
      </trkpt>
      <trkpt lat="51.68602597899735" lon="0.67796403542161">
        <ele>12</ele>
        <time>2018-02-17T08:41:54Z</time>
      </trkpt>
      <trkpt lat="51.686051040887833" lon="0.677970992401242">
        <ele>11.925008</ele>
        <time>2018-02-17T08:41:55Z</time>
      </trkpt>
      <trkpt lat="51.686073001474142" lon="0.677974009886384">
        <ele>11</ele>
        <time>2018-02-17T08:41:56Z</time>
      </trkpt>
      <trkpt lat="51.686094040051103" lon="0.677977027371526">
        <ele>11</ele>
        <time>2018-02-17T08:41:57Z</time>
      </trkpt>
      <trkpt lat="51.686118012294173" lon="0.677984990179539">
        <ele>12</ele>
        <time>2018-02-17T08:41:58Z</time>
      </trkpt>
      <trkpt lat="51.686141984537244" lon="0.677994964644313">
        <ele>12</ele>
        <time>2018-02-17T08:41:59Z</time>
      </trkpt>
      <trkpt lat="51.686166040599346" lon="0.677998987957835">
        <ele>12</ele>
        <time>2018-02-17T08:42:00Z</time>
      </trkpt>
      <trkpt lat="51.686191018670797" lon="0.67800703458488">
        <ele>11.8499968</ele>
        <time>2018-02-17T08:42:01Z</time>
      </trkpt>
      <trkpt lat="51.686215996742249" lon="0.678017009049654">
        <ele>11</ele>
        <time>2018-02-17T08:42:02Z</time>
      </trkpt>
      <trkpt lat="51.6862409748137" lon="0.678027989342809">
        <ele>11.158416343497301</ele>
        <time>2018-02-17T08:42:03Z</time>
      </trkpt>
      <trkpt lat="51.686264025047421" lon="0.678037041798234">
        <ele>12</ele>
        <time>2018-02-17T08:42:04Z</time>
      </trkpt>
      <trkpt lat="51.686286991462111" lon="0.678043998777866">
        <ele>12</ele>
        <time>2018-02-17T08:42:05Z</time>
      </trkpt>
      <trkpt lat="51.686310041695833" lon="0.678055984899402">
        <ele>12</ele>
        <time>2018-02-17T08:42:06Z</time>
      </trkpt>
      <trkpt lat="51.686333008110523" lon="0.678065959364176">
        <ele>12</ele>
        <time>2018-02-17T08:42:07Z</time>
      </trkpt>
      <trkpt lat="51.686353962868452" lon="0.678075011819601">
        <ele>12</ele>
        <time>2018-02-17T08:42:08Z</time>
      </trkpt>
      <trkpt lat="51.686371983960271" lon="0.678082974627614">
        <ele>12</ele>
        <time>2018-02-17T08:42:09Z</time>
      </trkpt>
      <trkpt lat="51.686394028365612" lon="0.67809303291142">
        <ele>11.795182209336399</ele>
        <time>2018-02-17T08:42:10Z</time>
      </trkpt>
      <trkpt lat="51.686419006437063" lon="0.678107030689716">
        <ele>11</ele>
        <time>2018-02-17T08:42:11Z</time>
      </trkpt>
      <trkpt lat="51.686439961194992" lon="0.678118010982871">
        <ele>11</ele>
        <time>2018-02-17T08:42:12Z</time>
      </trkpt>
      <trkpt lat="51.68645597063005" lon="0.678124967962503">
        <ele>11</ele>
        <time>2018-02-17T08:42:13Z</time>
      </trkpt>
      <trkpt lat="51.686485977843404" lon="0.678150029852986">
        <ele>11</ele>
        <time>2018-02-17T08:42:15Z</time>
      </trkpt>
      <trkpt lat="51.686502993106842" lon="0.678180959075689">
        <ele>11</ele>
        <time>2018-02-17T08:42:17Z</time>
      </trkpt>
      <trkpt lat="51.686497963964939" lon="0.678218007087708">
        <ele>11</ele>
        <time>2018-02-17T08:42:19Z</time>
      </trkpt>
      <trkpt lat="51.686487989500165" lon="0.678247008472681">
        <ele>11</ele>
        <time>2018-02-17T08:42:21Z</time>
      </trkpt>
      <trkpt lat="51.686478015035391" lon="0.67828799597919">
        <ele>11</ele>
        <time>2018-02-17T08:42:24Z</time>
      </trkpt>
      <trkpt lat="51.686469968408346" lon="0.678320014849305">
        <ele>11</ele>
        <time>2018-02-17T08:42:26Z</time>
      </trkpt>
      <trkpt lat="51.686462005600333" lon="0.67835396155715">
        <ele>11</ele>
        <time>2018-02-17T08:42:29Z</time>
      </trkpt>
      <trkpt lat="51.686473991721869" lon="0.678383968770504">
        <ele>12</ele>
        <time>2018-02-17T08:42:32Z</time>
      </trkpt>
      <trkpt lat="51.686491006985307" lon="0.678399978205562">
        <ele>12</ele>
        <time>2018-02-17T08:42:35Z</time>
      </trkpt>
      <trkpt lat="51.686509028077126" lon="0.678414981812239">
        <ele>12</ele>
        <time>2018-02-17T08:42:38Z</time>
      </trkpt>
      <trkpt lat="51.686525959521532" lon="0.678434008732438">
        <ele>12</ele>
        <time>2018-02-17T08:42:40Z</time>
      </trkpt>
      <trkpt lat="51.686546998098493" lon="0.678453035652637">
        <ele>12</ele>
        <time>2018-02-17T08:42:42Z</time>
      </trkpt>
      <trkpt lat="51.686568036675453" lon="0.678466027602553">
        <ele>12</ele>
        <time>2018-02-17T08:42:44Z</time>
      </trkpt>
      <trkpt lat="51.686595026403666" lon="0.678494023159146">
        <ele>12</ele>
        <time>2018-02-17T08:42:46Z</time>
      </trkpt>
      <trkpt lat="51.686611035838723" lon="0.67852302454412">
        <ele>12</ele>
        <time>2018-02-17T08:42:47Z</time>
      </trkpt>
      <trkpt lat="51.68662503361702" lon="0.678555965423584">
        <ele>12</ele>
        <time>2018-02-17T08:42:48Z</time>
      </trkpt>
      <trkpt lat="51.686640959233046" lon="0.67858899012208">
        <ele>12</ele>
        <time>2018-02-17T08:42:49Z</time>
      </trkpt>
      <trkpt lat="51.686650011688471" lon="0.678627965971828">
        <ele>12</ele>
        <time>2018-02-17T08:42:50Z</time>
      </trkpt>
      <trkpt lat="51.686655962839723" lon="0.678667025640607">
        <ele>12</ele>
        <time>2018-02-17T08:42:51Z</time>
      </trkpt>
      <trkpt lat="51.686659986153245" lon="0.678703989833593">
        <ele>12</ele>
        <time>2018-02-17T08:42:52Z</time>
      </trkpt>
      <trkpt lat="51.686665015295148" lon="0.67874195985496">
        <ele>12</ele>
        <time>2018-02-17T08:42:53Z</time>
      </trkpt>
      <trkpt lat="51.6866709664464" lon="0.678774984553456">
        <ele>12</ele>
        <time>2018-02-17T08:42:54Z</time>
      </trkpt>
      <trkpt lat="51.686675995588303" lon="0.678807003423572">
        <ele>12</ele>
        <time>2018-02-17T08:42:55Z</time>
      </trkpt>
      <trkpt lat="51.686680018901825" lon="0.678842039778829">
        <ele>12</ele>
        <time>2018-02-17T08:42:56Z</time>
      </trkpt>
      <trkpt lat="51.686684964224696" lon="0.678876992315054">
        <ele>11.6633631997161</ele>
        <time>2018-02-17T08:42:57Z</time>
      </trkpt>
      <trkpt lat="51.68669099919498" lon="0.678914962336421">
        <ele>11</ele>
        <time>2018-02-17T08:42:58Z</time>
      </trkpt>
      <trkpt lat="51.686697034165263" lon="0.678952010348439">
        <ele>11.333329023583</ele>
        <time>2018-02-17T08:42:59Z</time>
      </trkpt>
      <trkpt lat="51.686708014458418" lon="0.678987968713045">
        <ele>12</ele>
        <time>2018-02-17T08:43:00Z</time>
      </trkpt>
      <trkpt lat="51.68671396560967" lon="0.679027028381824">
        <ele>12</ele>
        <time>2018-02-17T08:43:01Z</time>
      </trkpt>
      <trkpt lat="51.686721006408334" lon="0.679067010059953">
        <ele>12</ele>
        <time>2018-02-17T08:43:02Z</time>
      </trkpt>
      <trkpt lat="51.686727041378617" lon="0.679106991738081">
        <ele>12</ele>
        <time>2018-02-17T08:43:03Z</time>
      </trkpt>
      <trkpt lat="51.68673500418663" lon="0.679143033921719">
        <ele>12</ele>
        <time>2018-02-17T08:43:04Z</time>
      </trkpt>
      <trkpt lat="51.686741961166263" lon="0.679176980629563">
        <ele>12</ele>
        <time>2018-02-17T08:43:05Z</time>
      </trkpt>
      <trkpt lat="51.686745984479785" lon="0.679213022813201">
        <ele>12</ele>
        <time>2018-02-17T08:43:06Z</time>
      </trkpt>
      <trkpt lat="51.686751013621688" lon="0.679245963692665">
        <ele>12</ele>
        <time>2018-02-17T08:43:07Z</time>
      </trkpt>
      <trkpt lat="51.68675403110683" lon="0.679275970906019">
        <ele>12</ele>
        <time>2018-02-17T08:43:08Z</time>
      </trkpt>
      <trkpt lat="51.686765011399984" lon="0.679330034181476">
        <ele>12</ele>
        <time>2018-02-17T08:43:10Z</time>
      </trkpt>
      <trkpt lat="51.686772974207997" lon="0.679358029738069">
        <ele>12</ele>
        <time>2018-02-17T08:43:11Z</time>
      </trkpt>
      <trkpt lat="51.686786971986294" lon="0.679411003366113">
        <ele>12</ele>
        <time>2018-02-17T08:43:13Z</time>
      </trkpt>
      <trkpt lat="51.686795018613338" lon="0.679443022236228">
        <ele>12</ele>
        <time>2018-02-17T08:43:14Z</time>
      </trkpt>
      <trkpt lat="51.68679996393621" lon="0.679475963115692">
        <ele>12</ele>
        <time>2018-02-17T08:43:15Z</time>
      </trkpt>
      <trkpt lat="51.686807004734874" lon="0.679504964500666">
        <ele>12</ele>
        <time>2018-02-17T08:43:16Z</time>
      </trkpt>
      <trkpt lat="51.686814967542887" lon="0.67953497171402">
        <ele>12</ele>
        <time>2018-02-17T08:43:17Z</time>
      </trkpt>
      <trkpt lat="51.686822008341551" lon="0.679566990584135">
        <ele>12</ele>
        <time>2018-02-17T08:43:18Z</time>
      </trkpt>
      <trkpt lat="51.686825025826693" lon="0.679602026939392">
        <ele>12.340002047973799</ele>
        <time>2018-02-17T08:43:19Z</time>
      </trkpt>
      <trkpt lat="51.686827037483454" lon="0.679637985303998">
        <ele>13</ele>
        <time>2018-02-17T08:43:20Z</time>
      </trkpt>
      <trkpt lat="51.686830976977944" lon="0.679670004174113">
        <ele>13</ele>
        <time>2018-02-17T08:43:21Z</time>
      </trkpt>
      <trkpt lat="51.686833994463086" lon="0.679702023044229">
        <ele>13</ele>
        <time>2018-02-17T08:43:22Z</time>
      </trkpt>
      <trkpt lat="51.686839023604989" lon="0.679732030257583">
        <ele>13</ele>
        <time>2018-02-17T08:43:23Z</time>
      </trkpt>
      <trkpt lat="51.686845980584621" lon="0.679762959480286">
        <ele>13</ele>
        <time>2018-02-17T08:43:24Z</time>
      </trkpt>
      <trkpt lat="51.686853021383286" lon="0.679797995835543">
        <ele>13</ele>
        <time>2018-02-17T08:43:25Z</time>
      </trkpt>
      <trkpt lat="51.686857966706157" lon="0.679832026362419">
        <ele>13</ele>
        <time>2018-02-17T08:43:26Z</time>
      </trkpt>
      <trkpt lat="51.686865007504821" lon="0.679864967241883">
        <ele>13</ele>
        <time>2018-02-17T08:43:27Z</time>
      </trkpt>
      <trkpt lat="51.686868024989963" lon="0.67989899776876">
        <ele>13</ele>
        <time>2018-02-17T08:43:28Z</time>
      </trkpt>
      <trkpt lat="51.686871964484453" lon="0.679932022467256">
        <ele>13</ele>
        <time>2018-02-17T08:43:29Z</time>
      </trkpt>
      <trkpt lat="51.686879005283117" lon="0.67996496334672">
        <ele>13</ele>
        <time>2018-02-17T08:43:30Z</time>
      </trkpt>
      <trkpt lat="51.686885040253401" lon="0.679997988045216">
        <ele>13</ele>
        <time>2018-02-17T08:43:31Z</time>
      </trkpt>
      <trkpt lat="51.686890991404653" lon="0.68002900108695">
        <ele>13</ele>
        <time>2018-02-17T08:43:32Z</time>
      </trkpt>
      <trkpt lat="51.686897026374936" lon="0.680061019957066">
        <ele>13</ele>
        <time>2018-02-17T08:43:33Z</time>
      </trkpt>
      <trkpt lat="51.686900965869427" lon="0.68009396083653">
        <ele>13</ele>
        <time>2018-02-17T08:43:34Z</time>
      </trkpt>
      <trkpt lat="51.68690700083971" lon="0.680125979706645">
        <ele>12.7500032</ele>
        <time>2018-02-17T08:43:35Z</time>
      </trkpt>
      <trkpt lat="51.686913035809994" lon="0.68015799857676">
        <ele>12</ele>
        <time>2018-02-17T08:43:36Z</time>
      </trkpt>
      <trkpt lat="51.686916975304484" lon="0.680189011618495">
        <ele>12</ele>
        <time>2018-02-17T08:43:37Z</time>
      </trkpt>
      <trkpt lat="51.686923010274768" lon="0.680219018831849">
        <ele>12</ele>
        <time>2018-02-17T08:43:38Z</time>
      </trkpt>
      <trkpt lat="51.686932984739542" lon="0.680247014388442">
        <ele>12</ele>
        <time>2018-02-17T08:43:39Z</time>
      </trkpt>
      <trkpt lat="51.686939019709826" lon="0.680281966924667">
        <ele>12</ele>
        <time>2018-02-17T08:43:40Z</time>
      </trkpt>
      <trkpt lat="51.686945976689458" lon="0.680312979966402">
        <ele>12</ele>
        <time>2018-02-17T08:43:41Z</time>
      </trkpt>
      <trkpt lat="51.686951005831361" lon="0.680347010493279">
        <ele>12</ele>
        <time>2018-02-17T08:43:42Z</time>
      </trkpt>
      <trkpt lat="51.686954023316503" lon="0.680380035191774">
        <ele>12</ele>
        <time>2018-02-17T08:43:43Z</time>
      </trkpt>
      <trkpt lat="51.686959974467754" lon="0.680409036576748">
        <ele>12</ele>
        <time>2018-02-17T08:43:44Z</time>
      </trkpt>
      <trkpt lat="51.686966009438038" lon="0.680439965799451">
        <ele>12</ele>
        <time>2018-02-17T08:43:45Z</time>
      </trkpt>
      <trkpt lat="51.68696902692318" lon="0.680470978841186">
        <ele>12</ele>
        <time>2018-02-17T08:43:46Z</time>
      </trkpt>
      <trkpt lat="51.68697296641767" lon="0.680499980226159">
        <ele>12</ele>
        <time>2018-02-17T08:43:47Z</time>
      </trkpt>
      <trkpt lat="51.686976989731193" lon="0.680531999096274">
        <ele>12</ele>
        <time>2018-02-17T08:43:48Z</time>
      </trkpt>
      <trkpt lat="51.686980007216334" lon="0.680559994652867">
        <ele>12</ele>
        <time>2018-02-17T08:43:49Z</time>
      </trkpt>
      <trkpt lat="51.686994004994631" lon="0.680609028786421">
        <ele>12</ele>
        <time>2018-02-17T08:43:51Z</time>
      </trkpt>
      <trkpt lat="51.687001967802644" lon="0.680638030171394">
        <ele>12</ele>
        <time>2018-02-17T08:43:52Z</time>
      </trkpt>
      <trkpt lat="51.68701202608645" lon="0.680666025727987">
        <ele>12.208330666666701</ele>
        <time>2018-02-17T08:43:53Z</time>
      </trkpt>
      <trkpt lat="51.687018983066082" lon="0.680695027112961">
        <ele>13</ele>
        <time>2018-02-17T08:43:54Z</time>
      </trkpt>
      <trkpt lat="51.687028035521507" lon="0.680726962164044">
        <ele>13</ele>
        <time>2018-02-17T08:43:55Z</time>
      </trkpt>
      <trkpt lat="51.68703599832952" lon="0.680756969377398">
        <ele>13</ele>
        <time>2018-02-17T08:43:56Z</time>
      </trkpt>
      <trkpt lat="51.687045972794294" lon="0.680788988247514">
        <ele>13</ele>
        <time>2018-02-17T08:43:57Z</time>
      </trkpt>
      <trkpt lat="51.68705502524972" lon="0.680820001289248">
        <ele>13</ele>
        <time>2018-02-17T08:43:58Z</time>
      </trkpt>
      <trkpt lat="51.687062988057733" lon="0.680849002674222">
        <ele>13</ele>
        <time>2018-02-17T08:43:59Z</time>
      </trkpt>
      <trkpt lat="51.687071034684777" lon="0.680879009887576">
        <ele>13</ele>
        <time>2018-02-17T08:44:00Z</time>
      </trkpt>
      <trkpt lat="51.687080003321171" lon="0.68090801127255">
        <ele>13</ele>
        <time>2018-02-17T08:44:01Z</time>
      </trkpt>
      <trkpt lat="51.687086038291454" lon="0.680940030142665">
        <ele>13</ele>
        <time>2018-02-17T08:44:02Z</time>
      </trkpt>
      <trkpt lat="51.687095006927848" lon="0.680972971022129">
        <ele>13</ele>
        <time>2018-02-17T08:44:03Z</time>
      </trkpt>
      <trkpt lat="51.687102969735861" lon="0.681005995720625">
        <ele>13</ele>
        <time>2018-02-17T08:44:04Z</time>
      </trkpt>
      <trkpt lat="51.687110010534525" lon="0.68103801459074">
        <ele>13</ele>
        <time>2018-02-17T08:44:05Z</time>
      </trkpt>
      <trkpt lat="51.687119984999299" lon="0.681070033460855">
        <ele>13</ele>
        <time>2018-02-17T08:44:06Z</time>
      </trkpt>
      <trkpt lat="51.687128031626344" lon="0.681099034845829">
        <ele>13</ele>
        <time>2018-02-17T08:44:07Z</time>
      </trkpt>
      <trkpt lat="51.687135994434357" lon="0.681131975725293">
        <ele>13</ele>
        <time>2018-02-17T08:44:08Z</time>
      </trkpt>
      <trkpt lat="51.687143035233021" lon="0.68116600625217">
        <ele>13</ele>
        <time>2018-02-17T08:44:09Z</time>
      </trkpt>
      <trkpt lat="51.687147980555892" lon="0.681198025122285">
        <ele>13</ele>
        <time>2018-02-17T08:44:10Z</time>
      </trkpt>
      <trkpt lat="51.687156027182937" lon="0.68123197183013">
        <ele>13</ele>
        <time>2018-02-17T08:44:11Z</time>
      </trkpt>
      <trkpt lat="51.687162984162569" lon="0.681261979043484">
        <ele>13</ele>
        <time>2018-02-17T08:44:12Z</time>
      </trkpt>
      <trkpt lat="51.687172958627343" lon="0.681290980428457">
        <ele>13</ele>
        <time>2018-02-17T08:44:13Z</time>
      </trkpt>
      <trkpt lat="51.687182011082768" lon="0.681319981813431">
        <ele>13</ele>
        <time>2018-02-17T08:44:14Z</time>
      </trkpt>
      <trkpt lat="51.687191985547543" lon="0.681349989026785">
        <ele>13</ele>
        <time>2018-02-17T08:44:15Z</time>
      </trkpt>
      <trkpt lat="51.687201960012317" lon="0.68138100206852">
        <ele>13</ele>
        <time>2018-02-17T08:44:16Z</time>
      </trkpt>
      <trkpt lat="51.687209000810981" lon="0.681414026767015">
        <ele>13</ele>
        <time>2018-02-17T08:44:17Z</time>
      </trkpt>
      <trkpt lat="51.687216963618994" lon="0.68144503980875">
        <ele>13</ele>
        <time>2018-02-17T08:44:18Z</time>
      </trkpt>
      <trkpt lat="51.687222998589277" lon="0.681473035365343">
        <ele>13</ele>
        <time>2018-02-17T08:44:19Z</time>
      </trkpt>
      <trkpt lat="51.687229033559561" lon="0.681503964588046">
        <ele>13</ele>
        <time>2018-02-17T08:44:20Z</time>
      </trkpt>
      <trkpt lat="51.687234984710813" lon="0.68153296597302">
        <ele>13</ele>
        <time>2018-02-17T08:44:21Z</time>
      </trkpt>
      <trkpt lat="51.687244037166238" lon="0.681562973186374">
        <ele>13</ele>
        <time>2018-02-17T08:44:22Z</time>
      </trkpt>
      <trkpt lat="51.687251999974251" lon="0.681589962914586">
        <ele>13</ele>
        <time>2018-02-17T08:44:23Z</time>
      </trkpt>
      <trkpt lat="51.687259040772915" lon="0.681617958471179">
        <ele>13</ele>
        <time>2018-02-17T08:44:24Z</time>
      </trkpt>
      <trkpt lat="51.687264991924167" lon="0.681646959856153">
        <ele>13</ele>
        <time>2018-02-17T08:44:25Z</time>
      </trkpt>
      <trkpt lat="51.687268009409308" lon="0.681676967069507">
        <ele>13</ele>
        <time>2018-02-17T08:44:26Z</time>
      </trkpt>
      <trkpt lat="51.687274966388941" lon="0.681706974282861">
        <ele>13</ele>
        <time>2018-02-17T08:44:27Z</time>
      </trkpt>
      <trkpt lat="51.687282007187605" lon="0.681739998981357">
        <ele>13</ele>
        <time>2018-02-17T08:44:28Z</time>
      </trkpt>
      <trkpt lat="51.687287036329508" lon="0.681770006194711">
        <ele>13</ele>
        <time>2018-02-17T08:44:29Z</time>
      </trkpt>
      <trkpt lat="51.687294999137521" lon="0.681796995922923">
        <ele>13</ele>
        <time>2018-02-17T08:44:30Z</time>
      </trkpt>
      <trkpt lat="51.687302961945534" lon="0.681827003136277">
        <ele>13</ele>
        <time>2018-02-17T08:44:31Z</time>
      </trkpt>
      <trkpt lat="51.687311008572578" lon="0.681857010349631">
        <ele>13</ele>
        <time>2018-02-17T08:44:32Z</time>
      </trkpt>
      <trkpt lat="51.687316037714481" lon="0.681887017562985">
        <ele>13</ele>
        <time>2018-02-17T08:44:33Z</time>
      </trkpt>
      <trkpt lat="51.687324000522494" lon="0.68191803060472">
        <ele>13</ele>
        <time>2018-02-17T08:44:34Z</time>
      </trkpt>
      <trkpt lat="51.687331963330507" lon="0.681948959827423">
        <ele>13</ele>
        <time>2018-02-17T08:44:35Z</time>
      </trkpt>
      <trkpt lat="51.687339004129171" lon="0.681978967040777">
        <ele>13</ele>
        <time>2018-02-17T08:44:36Z</time>
      </trkpt>
      <trkpt lat="51.687344033271074" lon="0.682009980082512">
        <ele>13</ele>
        <time>2018-02-17T08:44:37Z</time>
      </trkpt>
      <trkpt lat="51.687355013564229" lon="0.682064965367317">
        <ele>13</ele>
        <time>2018-02-17T08:44:39Z</time>
      </trkpt>
      <trkpt lat="51.687363982200623" lon="0.682095978409052">
        <ele>13</ele>
        <time>2018-02-17T08:44:40Z</time>
      </trkpt>
      <trkpt lat="51.687372028827667" lon="0.682124979794025">
        <ele>13</ele>
        <time>2018-02-17T08:44:41Z</time>
      </trkpt>
      <trkpt lat="51.687376974150538" lon="0.682158004492521">
        <ele>13</ele>
        <time>2018-02-17T08:44:42Z</time>
      </trkpt>
      <trkpt lat="51.687383009120822" lon="0.682190023362637">
        <ele>13</ele>
        <time>2018-02-17T08:44:43Z</time>
      </trkpt>
      <trkpt lat="51.687390971928835" lon="0.68221902474761">
        <ele>13</ele>
        <time>2018-02-17T08:44:44Z</time>
      </trkpt>
      <trkpt lat="51.68740002438426" lon="0.682247020304203">
        <ele>13</ele>
        <time>2018-02-17T08:44:45Z</time>
      </trkpt>
      <trkpt lat="51.687423996627331" lon="0.682287001982331">
        <ele>13</ele>
        <time>2018-02-17T08:44:47Z</time>
      </trkpt>
      <trkpt lat="51.687439000234008" lon="0.682308040559292">
        <ele>13</ele>
        <time>2018-02-17T08:44:48Z</time>
      </trkpt>
      <trkpt lat="51.687455009669065" lon="0.682328995317221">
        <ele>13</ele>
        <time>2018-02-17T08:44:49Z</time>
      </trkpt>
      <trkpt lat="51.687478981912136" lon="0.682368976995349">
        <ele>13</ele>
        <time>2018-02-17T08:44:51Z</time>
      </trkpt>
      <trkpt lat="51.687490968033671" lon="0.68239102140069">
        <ele>13</ele>
        <time>2018-02-17T08:44:52Z</time>
      </trkpt>
      <trkpt lat="51.687512006610632" lon="0.682439971715212">
        <ele>13</ele>
        <time>2018-02-17T08:44:54Z</time>
      </trkpt>
      <trkpt lat="51.687521981075406" lon="0.682466039434075">
        <ele>13</ele>
        <time>2018-02-17T08:44:55Z</time>
      </trkpt>
      <trkpt lat="51.687531033530831" lon="0.682492023333907">
        <ele>13</ele>
        <time>2018-02-17T08:44:56Z</time>
      </trkpt>
      <trkpt lat="51.687541007995605" lon="0.682521024718881">
        <ele>13</ele>
        <time>2018-02-17T08:44:57Z</time>
      </trkpt>
      <trkpt lat="51.687548970803618" lon="0.682550026103854">
        <ele>13</ele>
        <time>2018-02-17T08:44:58Z</time>
      </trkpt>
      <trkpt lat="51.687563974410295" lon="0.682604005560279">
        <ele>13</ele>
        <time>2018-02-17T08:45:00Z</time>
      </trkpt>
      <trkpt lat="51.68757202103734" lon="0.682629989460111">
        <ele>13</ele>
        <time>2018-02-17T08:45:01Z</time>
      </trkpt>
      <trkpt lat="51.687581995502114" lon="0.682656979188323">
        <ele>12.712764508837401</ele>
        <time>2018-02-17T08:45:02Z</time>
      </trkpt>
      <trkpt lat="51.687589958310127" lon="0.682687992230058">
        <ele>12</ele>
        <time>2018-02-17T08:45:03Z</time>
      </trkpt>
      <trkpt lat="51.687600016593933" lon="0.682715987786651">
        <ele>12.2990645261622</ele>
        <time>2018-02-17T08:45:04Z</time>
      </trkpt>
      <trkpt lat="51.687607979401946" lon="0.682741971686482">
        <ele>13</ele>
        <time>2018-02-17T08:45:05Z</time>
      </trkpt>
      <trkpt lat="51.687617031857371" lon="0.682771978899837">
        <ele>13</ele>
        <time>2018-02-17T08:45:06Z</time>
      </trkpt>
      <trkpt lat="51.687627006322145" lon="0.682799974456429">
        <ele>13</ele>
        <time>2018-02-17T08:45:07Z</time>
      </trkpt>
      <trkpt lat="51.6876379866153" lon="0.682828975841403">
        <ele>13</ele>
        <time>2018-02-17T08:45:08Z</time>
      </trkpt>
      <trkpt lat="51.687647961080074" lon="0.682859988883138">
        <ele>13</ele>
        <time>2018-02-17T08:45:09Z</time>
      </trkpt>
      <trkpt lat="51.687656007707119" lon="0.682885972782969">
        <ele>13</ele>
        <time>2018-02-17T08:45:10Z</time>
      </trkpt>
      <trkpt lat="51.687663970515132" lon="0.682914974167943">
        <ele>12.6981150302489</ele>
        <time>2018-02-17T08:45:11Z</time>
      </trkpt>
      <trkpt lat="51.687673022970557" lon="0.682941963896155">
        <ele>12</ele>
        <time>2018-02-17T08:45:12Z</time>
      </trkpt>
      <trkpt lat="51.687681991606951" lon="0.682968031615019">
        <ele>12</ele>
        <time>2018-02-17T08:45:13Z</time>
      </trkpt>
      <trkpt lat="51.687691966071725" lon="0.682998038828373">
        <ele>12</ele>
        <time>2018-02-17T08:45:14Z</time>
      </trkpt>
      <trkpt lat="51.687699006870389" lon="0.683025028556585">
        <ele>12</ele>
        <time>2018-02-17T08:45:15Z</time>
      </trkpt>
      <trkpt lat="51.687715016305447" lon="0.683076996356249">
        <ele>12</ele>
        <time>2018-02-17T08:45:17Z</time>
      </trkpt>
      <trkpt lat="51.687732031568885" lon="0.683129969984293">
        <ele>12.2499968</ele>
        <time>2018-02-17T08:45:19Z</time>
      </trkpt>
      <trkpt lat="51.687739994376898" lon="0.683159977197647">
        <ele>13</ele>
        <time>2018-02-17T08:45:20Z</time>
      </trkpt>
      <trkpt lat="51.687748041003942" lon="0.683186966925859">
        <ele>13</ele>
        <time>2018-02-17T08:45:21Z</time>
      </trkpt>
      <trkpt lat="51.687756003811955" lon="0.683214962482452">
        <ele>13</ele>
        <time>2018-02-17T08:45:22Z</time>
      </trkpt>
      <trkpt lat="51.68776597827673" lon="0.683244969695807">
        <ele>13</ele>
        <time>2018-02-17T08:45:23Z</time>
      </trkpt>
      <trkpt lat="51.687776036560535" lon="0.683272965252399">
        <ele>13</ele>
        <time>2018-02-17T08:45:24Z</time>
      </trkpt>
      <trkpt lat="51.687782993540168" lon="0.683301966637373">
        <ele>12.953706666666699</ele>
        <time>2018-02-17T08:45:25Z</time>
      </trkpt>
      <trkpt lat="51.687791040167212" lon="0.683329040184617">
        <ele>12.027780740740701</ele>
        <time>2018-02-17T08:45:26Z</time>
      </trkpt>
      <trkpt lat="51.687800008803606" lon="0.683355024084449">
        <ele>12</ele>
        <time>2018-02-17T08:45:27Z</time>
      </trkpt>
      <trkpt lat="51.687805959954858" lon="0.683383019641042">
        <ele>12</ele>
        <time>2018-02-17T08:45:28Z</time>
      </trkpt>
      <trkpt lat="51.687816018238664" lon="0.683412021026015">
        <ele>12</ele>
        <time>2018-02-17T08:45:29Z</time>
      </trkpt>
      <trkpt lat="51.687823981046677" lon="0.683439010754228">
        <ele>12.2499968</ele>
        <time>2018-02-17T08:45:30Z</time>
      </trkpt>
      <trkpt lat="51.687833033502102" lon="0.68346600048244">
        <ele>13</ele>
        <time>2018-02-17T08:45:31Z</time>
      </trkpt>
      <trkpt lat="51.687844013795257" lon="0.683492990210652">
        <ele>13</ele>
        <time>2018-02-17T08:45:32Z</time>
      </trkpt>
      <trkpt lat="51.687860023230314" lon="0.683546969667077">
        <ele>13</ele>
        <time>2018-02-17T08:45:34Z</time>
      </trkpt>
      <trkpt lat="51.687869997695088" lon="0.68357496522367">
        <ele>13</ele>
        <time>2018-02-17T08:45:35Z</time>
      </trkpt>
      <trkpt lat="51.687890030443668" lon="0.683616036549211">
        <ele>13</ele>
        <time>2018-02-17T08:45:37Z</time>
      </trkpt>
      <trkpt lat="51.687902016565204" lon="0.683646965771914">
        <ele>12</ele>
        <time>2018-02-17T08:45:39Z</time>
      </trkpt>
      <trkpt lat="51.687918026000261" lon="0.68368099629879">
        <ele>12</ele>
        <time>2018-02-17T08:45:41Z</time>
      </trkpt>
      <trkpt lat="51.687925988808274" lon="0.683721983805299">
        <ele>12</ele>
        <time>2018-02-17T08:45:43Z</time>
      </trkpt>
      <trkpt lat="51.687925988808274" lon="0.683763977140188">
        <ele>12</ele>
        <time>2018-02-17T08:45:45Z</time>
      </trkpt>
      <trkpt lat="51.687931017950177" lon="0.683794990181923">
        <ele>12</ele>
        <time>2018-02-17T08:45:48Z</time>
      </trkpt>
      <trkpt lat="51.687935963273048" lon="0.683824997395277">
        <ele>12</ele>
        <time>2018-02-17T08:45:51Z</time>
      </trkpt>
      <trkpt lat="51.687941998243332" lon="0.683859027922153">
        <ele>12</ele>
        <time>2018-02-17T08:45:54Z</time>
      </trkpt>
      <trkpt lat="51.687953984364867" lon="0.683898003771901">
        <ele>12</ele>
        <time>2018-02-17T08:45:57Z</time>
      </trkpt>
      <trkpt lat="51.687962030991912" lon="0.683927005156875">
        <ele>12</ele>
        <time>2018-02-17T08:45:59Z</time>
      </trkpt>
      <trkpt lat="51.687972005456686" lon="0.683967992663383">
        <ele>12.267330747978599</ele>
        <time>2018-02-17T08:46:02Z</time>
      </trkpt>
      <trkpt lat="51.68798097409308" lon="0.684000011533499">
        <ele>13</ele>
        <time>2018-02-17T08:46:04Z</time>
      </trkpt>
      <trkpt lat="51.687990026548505" lon="0.684033036231995">
        <ele>13</ele>
        <time>2018-02-17T08:46:06Z</time>
      </trkpt>
      <trkpt lat="51.687995977699757" lon="0.684066982939839">
        <ele>13</ele>
        <time>2018-02-17T08:46:08Z</time>
      </trkpt>
      <trkpt lat="51.688007041811943" lon="0.684101013466716">
        <ele>12</ele>
        <time>2018-02-17T08:46:10Z</time>
      </trkpt>
      <trkpt lat="51.688021961599588" lon="0.684138983488083">
        <ele>12</ele>
        <time>2018-02-17T08:46:12Z</time>
      </trkpt>
      <trkpt lat="51.688032019883394" lon="0.684178965166211">
        <ele>12</ele>
        <time>2018-02-17T08:46:14Z</time>
      </trkpt>
      <trkpt lat="51.68804400600493" lon="0.68421701900661">
        <ele>12</ele>
        <time>2018-02-17T08:46:16Z</time>
      </trkpt>
      <trkpt lat="51.688050962984562" lon="0.684257000684738">
        <ele>12</ele>
        <time>2018-02-17T08:46:18Z</time>
      </trkpt>
      <trkpt lat="51.688060015439987" lon="0.684292037039995">
        <ele>12</ele>
        <time>2018-02-17T08:46:20Z</time>
      </trkpt>
      <trkpt lat="51.688069989904761" lon="0.68432598374784">
        <ele>13</ele>
        <time>2018-02-17T08:46:22Z</time>
      </trkpt>
      <trkpt lat="51.688078958541155" lon="0.684364959597588">
        <ele>13</ele>
        <time>2018-02-17T08:46:24Z</time>
      </trkpt>
      <trkpt lat="51.688092034310102" lon="0.684407958760858">
        <ele>13</ele>
        <time>2018-02-17T08:46:26Z</time>
      </trkpt>
      <trkpt lat="51.688101002946496" lon="0.684438971802592">
        <ele>12</ele>
        <time>2018-02-17T08:46:28Z</time>
      </trkpt>
      <trkpt lat="51.688107959926128" lon="0.684473002329469">
        <ele>12</ele>
        <time>2018-02-17T08:46:30Z</time>
      </trkpt>
      <trkpt lat="51.688115000724792" lon="0.684507032856345">
        <ele>12</ele>
        <time>2018-02-17T08:46:32Z</time>
      </trkpt>
      <trkpt lat="51.688121035695076" lon="0.684547014534473">
        <ele>12</ele>
        <time>2018-02-17T08:46:34Z</time>
      </trkpt>
      <trkpt lat="51.688127992674708" lon="0.684582972899079">
        <ele>12</ele>
        <time>2018-02-17T08:46:36Z</time>
      </trkpt>
      <trkpt lat="51.688136961311102" lon="0.684619015082717">
        <ele>12</ele>
        <time>2018-02-17T08:46:38Z</time>
      </trkpt>
      <trkpt lat="51.68815003708005" lon="0.684658996760845">
        <ele>12</ele>
        <time>2018-02-17T08:46:40Z</time>
      </trkpt>
      <trkpt lat="51.688165040686727" lon="0.684699984267354">
        <ele>12</ele>
        <time>2018-02-17T08:46:42Z</time>
      </trkpt>
      <trkpt lat="51.688179960474372" lon="0.684740971773863">
        <ele>12</ele>
        <time>2018-02-17T08:46:44Z</time>
      </trkpt>
      <trkpt lat="51.688187001273036" lon="0.684782965108752">
        <ele>12</ele>
        <time>2018-02-17T08:46:46Z</time>
      </trkpt>
      <trkpt lat="51.688197981566191" lon="0.684824036434293">
        <ele>12</ele>
        <time>2018-02-17T08:46:48Z</time>
      </trkpt>
      <trkpt lat="51.688207034021616" lon="0.684861000627279">
        <ele>12</ele>
        <time>2018-02-17T08:46:50Z</time>
      </trkpt>
      <trkpt lat="51.688212985172868" lon="0.684897964820266">
        <ele>12</ele>
        <time>2018-02-17T08:46:52Z</time>
      </trkpt>
      <trkpt lat="51.688220025971532" lon="0.684936018660665">
        <ele>12</ele>
        <time>2018-02-17T08:46:54Z</time>
      </trkpt>
      <trkpt lat="51.688228994607925" lon="0.684973988682032">
        <ele>12</ele>
        <time>2018-02-17T08:46:56Z</time>
      </trkpt>
      <trkpt lat="51.68823704123497" lon="0.685012964531779">
        <ele>12</ele>
        <time>2018-02-17T08:46:58Z</time>
      </trkpt>
      <trkpt lat="51.688246009871364" lon="0.685051018372178">
        <ele>12</ele>
        <time>2018-02-17T08:47:00Z</time>
      </trkpt>
      <trkpt lat="51.68825900182128" lon="0.685084965080023">
        <ele>12</ele>
        <time>2018-02-17T08:47:02Z</time>
      </trkpt>
      <trkpt lat="51.688266964629292" lon="0.685125030577183">
        <ele>12</ele>
        <time>2018-02-17T08:47:04Z</time>
      </trkpt>
      <trkpt lat="51.688270987942815" lon="0.685159983113408">
        <ele>11.6915890086491</ele>
        <time>2018-02-17T08:47:06Z</time>
      </trkpt>
      <trkpt lat="51.68828004039824" lon="0.685198036953807">
        <ele>11</ele>
        <time>2018-02-17T08:47:08Z</time>
      </trkpt>
      <trkpt lat="51.688291020691395" lon="0.685239024460316">
        <ele>11</ele>
        <time>2018-02-17T08:47:10Z</time>
      </trkpt>
      <trkpt lat="51.68830300681293" lon="0.685278000310063">
        <ele>11</ele>
        <time>2018-02-17T08:47:12Z</time>
      </trkpt>
      <trkpt lat="51.688311975449324" lon="0.685310019180179">
        <ele>11</ele>
        <time>2018-02-17T08:47:14Z</time>
      </trkpt>
      <trkpt lat="51.68832203373313" lon="0.685342038050294">
        <ele>11</ele>
        <time>2018-02-17T08:47:16Z</time>
      </trkpt>
      <trkpt lat="51.688334019854665" lon="0.685370033606887">
        <ele>11</ele>
        <time>2018-02-17T08:47:18Z</time>
      </trkpt>
      <trkpt lat="51.688343994319439" lon="0.685406997799873">
        <ele>11</ele>
        <time>2018-02-17T08:47:20Z</time>
      </trkpt>
      <trkpt lat="51.688350029289722" lon="0.68544203415513">
        <ele>11</ele>
        <time>2018-02-17T08:47:22Z</time>
      </trkpt>
      <trkpt lat="51.688348017632961" lon="0.685472963377833">
        <ele>11</ele>
        <time>2018-02-17T08:47:24Z</time>
      </trkpt>
      <trkpt lat="51.688355980440974" lon="0.685500958934426">
        <ele>12</ele>
        <time>2018-02-17T08:47:27Z</time>
      </trkpt>
      <trkpt lat="51.688381964340806" lon="0.685543036088347">
        <ele>12</ele>
        <time>2018-02-17T08:47:29Z</time>
      </trkpt>
      <trkpt lat="51.688405014574528" lon="0.685556028038263">
        <ele>12</ele>
        <time>2018-02-17T08:47:31Z</time>
      </trkpt>
      <trkpt lat="51.688422029837966" lon="0.685541024431586">
        <ele>12</ele>
        <time>2018-02-17T08:47:33Z</time>
      </trkpt>
      <trkpt lat="51.688441978767514" lon="0.685531971976161">
        <ele>11</ele>
        <time>2018-02-17T08:47:36Z</time>
      </trkpt>
      <trkpt lat="51.688464023172855" lon="0.685502970591187">
        <ele>11</ele>
        <time>2018-02-17T08:47:45Z</time>
      </trkpt>
      <trkpt lat="51.688487995415926" lon="0.685494001954794">
        <ele>11</ele>
        <time>2018-02-17T08:47:47Z</time>
      </trkpt>
      <trkpt lat="51.688510961830616" lon="0.685478998348117">
        <ele>11</ele>
        <time>2018-02-17T08:47:49Z</time>
      </trkpt>
      <trkpt lat="51.688536023721099" lon="0.685469023883343">
        <ele>11</ele>
        <time>2018-02-17T08:47:51Z</time>
      </trkpt>
      <trkpt lat="51.688558990135789" lon="0.685459971427917">
        <ele>11</ele>
        <time>2018-02-17T08:47:53Z</time>
      </trkpt>
      <trkpt lat="51.688584974035621" lon="0.685446979478002">
        <ele>11</ele>
        <time>2018-02-17T08:47:55Z</time>
      </trkpt>
      <trkpt lat="51.688611041754484" lon="0.685432981699705">
        <ele>11</ele>
        <time>2018-02-17T08:47:57Z</time>
      </trkpt>
      <trkpt lat="51.688636019825935" lon="0.685418983921409">
        <ele>11</ele>
        <time>2018-02-17T08:47:59Z</time>
      </trkpt>
      <trkpt lat="51.688659992069006" lon="0.685408003628254">
        <ele>11</ele>
        <time>2018-02-17T08:48:01Z</time>
      </trkpt>
      <trkpt lat="51.688682958483696" lon="0.68539903499186">
        <ele>11</ele>
        <time>2018-02-17T08:48:03Z</time>
      </trkpt>
      <trkpt lat="51.688705002889037" lon="0.68539802916348">
        <ele>11</ele>
        <time>2018-02-17T08:48:05Z</time>
      </trkpt>
      <trkpt lat="51.688727969303727" lon="0.685414038598537">
        <ele>11</ele>
        <time>2018-02-17T08:48:07Z</time>
      </trkpt>
      <trkpt lat="51.688728975132108" lon="0.685457959771156">
        <ele>11</ele>
        <time>2018-02-17T08:48:10Z</time>
      </trkpt>
      <trkpt lat="51.688727969303727" lon="0.685494001954794">
        <ele>11</ele>
        <time>2018-02-17T08:48:12Z</time>
      </trkpt>
      <trkpt lat="51.688731992617249" lon="0.685521997511387">
        <ele>11</ele>
        <time>2018-02-17T08:48:14Z</time>
      </trkpt>
      <trkpt lat="51.688742972910404" lon="0.685559967532754">
        <ele>11</ele>
        <time>2018-02-17T08:48:17Z</time>
      </trkpt>
      <trkpt lat="51.688743978738785" lon="0.685590980574489">
        <ele>11</ele>
        <time>2018-02-17T08:48:21Z</time>
      </trkpt>
      <trkpt lat="51.68875596486032" lon="0.685615036636591">
        <ele>11</ele>
        <time>2018-02-17T08:48:25Z</time>
      </trkpt>
      <trkpt lat="51.688770968466997" lon="0.685652000829577">
        <ele>11</ele>
        <time>2018-02-17T08:48:28Z</time>
      </trkpt>
      <trkpt lat="51.688779015094042" lon="0.685677984729409">
        <ele>11</ele>
        <time>2018-02-17T08:48:30Z</time>
      </trkpt>
      <trkpt lat="51.688785972073674" lon="0.685707991942763">
        <ele>11</ele>
        <time>2018-02-17T08:48:32Z</time>
      </trkpt>
      <trkpt lat="51.688797036185861" lon="0.685747973620892">
        <ele>11</ele>
        <time>2018-02-17T08:48:34Z</time>
      </trkpt>
      <trkpt lat="51.688809022307396" lon="0.685803964734077">
        <ele>11</ele>
        <time>2018-02-17T08:48:36Z</time>
      </trkpt>
      <trkpt lat="51.688814973458648" lon="0.685833971947432">
        <ele>11</ele>
        <time>2018-02-17T08:48:37Z</time>
      </trkpt>
      <trkpt lat="51.688828971236944" lon="0.685888035222888">
        <ele>11</ele>
        <time>2018-02-17T08:48:39Z</time>
      </trkpt>
      <trkpt lat="51.688831988722086" lon="0.685919970273972">
        <ele>11</ele>
        <time>2018-02-17T08:48:40Z</time>
      </trkpt>
      <trkpt lat="51.688836012035608" lon="0.685950983315706">
        <ele>11</ele>
        <time>2018-02-17T08:48:41Z</time>
      </trkpt>
      <trkpt lat="51.688841041177511" lon="0.685981996357441">
        <ele>11</ele>
        <time>2018-02-17T08:48:42Z</time>
      </trkpt>
      <trkpt lat="51.688845986500382" lon="0.686012003570795">
        <ele>11</ele>
        <time>2018-02-17T08:48:43Z</time>
      </trkpt>
      <trkpt lat="51.688852021470666" lon="0.686042010784149">
        <ele>11</ele>
        <time>2018-02-17T08:48:44Z</time>
      </trkpt>
      <trkpt lat="51.688858978450298" lon="0.686070006340742">
        <ele>11</ele>
        <time>2018-02-17T08:48:45Z</time>
      </trkpt>
      <trkpt lat="51.688866019248962" lon="0.686101019382477">
        <ele>11</ele>
        <time>2018-02-17T08:48:46Z</time>
      </trkpt>
      <trkpt lat="51.688872976228595" lon="0.68613002076745">
        <ele>11</ele>
        <time>2018-02-17T08:48:47Z</time>
      </trkpt>
      <trkpt lat="51.688879011198878" lon="0.686162961646914">
        <ele>11</ele>
        <time>2018-02-17T08:48:48Z</time>
      </trkpt>
      <trkpt lat="51.688884040340781" lon="0.686193974688649">
        <ele>11</ele>
        <time>2018-02-17T08:48:49Z</time>
      </trkpt>
      <trkpt lat="51.688887979835272" lon="0.686221970245242">
        <ele>11</ele>
        <time>2018-02-17T08:48:50Z</time>
      </trkpt>
      <trkpt lat="51.688895020633936" lon="0.686253989115357">
        <ele>11</ele>
        <time>2018-02-17T08:48:51Z</time>
      </trkpt>
      <trkpt lat="51.688899965956807" lon="0.686283996328712">
        <ele>11</ele>
        <time>2018-02-17T08:48:52Z</time>
      </trkpt>
      <trkpt lat="51.688910024240613" lon="0.686311991885304">
        <ele>11</ele>
        <time>2018-02-17T08:48:53Z</time>
      </trkpt>
      <trkpt lat="51.688917987048626" lon="0.686339987441897">
        <ele>11</ele>
        <time>2018-02-17T08:48:54Z</time>
      </trkpt>
      <trkpt lat="51.6889279615134" lon="0.686392039060593">
        <ele>11</ele>
        <time>2018-02-17T08:48:56Z</time>
      </trkpt>
      <trkpt lat="51.688933996483684" lon="0.686421962454915">
        <ele>11</ele>
        <time>2018-02-17T08:48:57Z</time>
      </trkpt>
      <trkpt lat="51.688941037282348" lon="0.686451969668269">
        <ele>11</ele>
        <time>2018-02-17T08:48:58Z</time>
      </trkpt>
      <trkpt lat="51.688946988433599" lon="0.686482982710004">
        <ele>11</ele>
        <time>2018-02-17T08:48:59Z</time>
      </trkpt>
      <trkpt lat="51.688952017575502" lon="0.6865160074085">
        <ele>11</ele>
        <time>2018-02-17T08:49:00Z</time>
      </trkpt>
      <trkpt lat="51.688960986211896" lon="0.686571998521686">
        <ele>11</ele>
        <time>2018-02-17T08:49:02Z</time>
      </trkpt>
      <trkpt lat="51.688967021182179" lon="0.686604017391801">
        <ele>11.257429632352</ele>
        <time>2018-02-17T08:49:03Z</time>
      </trkpt>
      <trkpt lat="51.688971966505051" lon="0.686635030433536">
        <ele>12</ele>
        <time>2018-02-17T08:49:04Z</time>
      </trkpt>
      <trkpt lat="51.688978001475334" lon="0.68666503764689">
        <ele>12</ele>
        <time>2018-02-17T08:49:05Z</time>
      </trkpt>
      <trkpt lat="51.688991999253631" lon="0.686719017103314">
        <ele>12</ele>
        <time>2018-02-17T08:49:07Z</time>
      </trkpt>
      <trkpt lat="51.688999040052295" lon="0.686746006831527">
        <ele>11</ele>
        <time>2018-02-17T08:49:08Z</time>
      </trkpt>
      <trkpt lat="51.689007002860308" lon="0.686776014044881">
        <ele>11</ele>
        <time>2018-02-17T08:49:09Z</time>
      </trkpt>
      <trkpt lat="51.689019994810224" lon="0.686807027086616">
        <ele>11</ele>
        <time>2018-02-17T08:49:10Z</time>
      </trkpt>
      <trkpt lat="51.689031980931759" lon="0.686836028471589">
        <ele>11</ele>
        <time>2018-02-17T08:49:11Z</time>
      </trkpt>
      <trkpt lat="51.689043967053294" lon="0.686867041513324">
        <ele>11</ele>
        <time>2018-02-17T08:49:12Z</time>
      </trkpt>
      <trkpt lat="51.689053019508719" lon="0.686896964907646">
        <ele>11</ele>
        <time>2018-02-17T08:49:13Z</time>
      </trkpt>
      <trkpt lat="51.689061988145113" lon="0.686926972121">
        <ele>11</ele>
        <time>2018-02-17T08:49:14Z</time>
      </trkpt>
      <trkpt lat="51.689071962609887" lon="0.686957985162735">
        <ele>11</ele>
        <time>2018-02-17T08:49:15Z</time>
      </trkpt>
      <trkpt lat="51.689081015065312" lon="0.68698899820447">
        <ele>11</ele>
        <time>2018-02-17T08:49:16Z</time>
      </trkpt>
      <trkpt lat="51.689088977873325" lon="0.687019005417824">
        <ele>11</ele>
        <time>2018-02-17T08:49:17Z</time>
      </trkpt>
      <trkpt lat="51.689099036157131" lon="0.687051024287939">
        <ele>11</ele>
        <time>2018-02-17T08:49:18Z</time>
      </trkpt>
      <trkpt lat="51.689109010621905" lon="0.687080025672913">
        <ele>11</ele>
        <time>2018-02-17T08:49:19Z</time>
      </trkpt>
      <trkpt lat="51.689118985086679" lon="0.687110032886267">
        <ele>11</ele>
        <time>2018-02-17T08:49:20Z</time>
      </trkpt>
      <trkpt lat="51.689127031713724" lon="0.68714096210897">
        <ele>11</ele>
        <time>2018-02-17T08:49:21Z</time>
      </trkpt>
      <trkpt lat="51.689133988693357" lon="0.687169963493943">
        <ele>11</ele>
        <time>2018-02-17T08:49:22Z</time>
      </trkpt>
      <trkpt lat="51.689143041148782" lon="0.687198964878917">
        <ele>11</ele>
        <time>2018-02-17T08:49:23Z</time>
      </trkpt>
      <trkpt lat="51.689152009785175" lon="0.687230983749032">
        <ele>11</ele>
        <time>2018-02-17T08:49:24Z</time>
      </trkpt>
      <trkpt lat="51.689159972593188" lon="0.687261996790767">
        <ele>11</ele>
        <time>2018-02-17T08:49:25Z</time>
      </trkpt>
      <trkpt lat="51.689167013391852" lon="0.687294015660882">
        <ele>11</ele>
        <time>2018-02-17T08:49:26Z</time>
      </trkpt>
      <trkpt lat="51.689173970371485" lon="0.687323017045856">
        <ele>11</ele>
        <time>2018-02-17T08:49:27Z</time>
      </trkpt>
      <trkpt lat="51.689181011170149" lon="0.687352018430829">
        <ele>11</ele>
        <time>2018-02-17T08:49:28Z</time>
      </trkpt>
      <trkpt lat="51.689188973978162" lon="0.687384037300944">
        <ele>11</ele>
        <time>2018-02-17T08:49:29Z</time>
      </trkpt>
      <trkpt lat="51.689198026433587" lon="0.687413960695267">
        <ele>11</ele>
        <time>2018-02-17T08:49:30Z</time>
      </trkpt>
      <trkpt lat="51.689204983413219" lon="0.68744296208024">
        <ele>11</ele>
        <time>2018-02-17T08:49:31Z</time>
      </trkpt>
      <trkpt lat="51.689212024211884" lon="0.687473975121975">
        <ele>11</ele>
        <time>2018-02-17T08:49:32Z</time>
      </trkpt>
      <trkpt lat="51.689219987019897" lon="0.687503982335329">
        <ele>11</ele>
        <time>2018-02-17T08:49:33Z</time>
      </trkpt>
      <trkpt lat="51.689225016161799" lon="0.687532983720303">
        <ele>11</ele>
        <time>2018-02-17T08:49:34Z</time>
      </trkpt>
      <trkpt lat="51.689232978969812" lon="0.687561985105276">
        <ele>11</ele>
        <time>2018-02-17T08:49:35Z</time>
      </trkpt>
      <trkpt lat="51.689242031425238" lon="0.68759098649025">
        <ele>11</ele>
        <time>2018-02-17T08:49:36Z</time>
      </trkpt>
      <trkpt lat="51.689251000061631" lon="0.687623005360365">
        <ele>11</ele>
        <time>2018-02-17T08:49:37Z</time>
      </trkpt>
      <trkpt lat="51.689260974526405" lon="0.6876540184021">
        <ele>11</ele>
        <time>2018-02-17T08:49:38Z</time>
      </trkpt>
      <trkpt lat="51.689270026981831" lon="0.687685031443834">
        <ele>11</ele>
        <time>2018-02-17T08:49:39Z</time>
      </trkpt>
      <trkpt lat="51.689277989789844" lon="0.687716966494918">
        <ele>11</ele>
        <time>2018-02-17T08:49:40Z</time>
      </trkpt>
      <trkpt lat="51.689286036416888" lon="0.687745967879891">
        <ele>11</ele>
        <time>2018-02-17T08:49:41Z</time>
      </trkpt>
      <trkpt lat="51.689293999224901" lon="0.687776980921626">
        <ele>11</ele>
        <time>2018-02-17T08:49:42Z</time>
      </trkpt>
      <trkpt lat="51.689302967861295" lon="0.687808999791741">
        <ele>11</ele>
        <time>2018-02-17T08:49:43Z</time>
      </trkpt>
      <trkpt lat="51.689313026145101" lon="0.687838001176715">
        <ele>11</ele>
        <time>2018-02-17T08:49:44Z</time>
      </trkpt>
      <trkpt lat="51.689320988953114" lon="0.687868008390069">
        <ele>11</ele>
        <time>2018-02-17T08:49:45Z</time>
      </trkpt>
      <trkpt lat="51.689329035580158" lon="0.687897009775043">
        <ele>11</ele>
        <time>2018-02-17T08:49:46Z</time>
      </trkpt>
      <trkpt lat="51.689336998388171" lon="0.687926011160016">
        <ele>11</ele>
        <time>2018-02-17T08:49:47Z</time>
      </trkpt>
      <trkpt lat="51.689344039186835" lon="0.687958030030131">
        <ele>11</ele>
        <time>2018-02-17T08:49:48Z</time>
      </trkpt>
      <trkpt lat="51.689353007823229" lon="0.687988037243485">
        <ele>11</ele>
        <time>2018-02-17T08:49:49Z</time>
      </trkpt>
      <trkpt lat="51.689360970631242" lon="0.688015026971698">
        <ele>11</ele>
        <time>2018-02-17T08:49:50Z</time>
      </trkpt>
      <trkpt lat="51.689368011429906" lon="0.688046040013433">
        <ele>11</ele>
        <time>2018-02-17T08:49:51Z</time>
      </trkpt>
      <trkpt lat="51.689374968409538" lon="0.688076969236135">
        <ele>11</ele>
        <time>2018-02-17T08:49:52Z</time>
      </trkpt>
      <trkpt lat="51.689381003379822" lon="0.68810798227787">
        <ele>11</ele>
        <time>2018-02-17T08:49:53Z</time>
      </trkpt>
      <trkpt lat="51.689387960359454" lon="0.688141006976366">
        <ele>11</ele>
        <time>2018-02-17T08:49:54Z</time>
      </trkpt>
      <trkpt lat="51.689395001158118" lon="0.688173025846481">
        <ele>11</ele>
        <time>2018-02-17T08:49:55Z</time>
      </trkpt>
      <trkpt lat="51.689401958137751" lon="0.688202027231455">
        <ele>11</ele>
        <time>2018-02-17T08:49:56Z</time>
      </trkpt>
      <trkpt lat="51.689408998936415" lon="0.688230022788048">
        <ele>11</ele>
        <time>2018-02-17T08:49:57Z</time>
      </trkpt>
      <trkpt lat="51.689421990886331" lon="0.688285008072853">
        <ele>11</ele>
        <time>2018-02-17T08:49:59Z</time>
      </trkpt>
      <trkpt lat="51.689430037513375" lon="0.688315015286207">
        <ele>11</ele>
        <time>2018-02-17T08:50:00Z</time>
      </trkpt>
      <trkpt lat="51.689439006149769" lon="0.6883430108428">
        <ele>11</ele>
        <time>2018-02-17T08:50:01Z</time>
      </trkpt>
      <trkpt lat="51.689447974786162" lon="0.688374023884535">
        <ele>11</ele>
        <time>2018-02-17T08:50:02Z</time>
      </trkpt>
      <trkpt lat="51.689459038898349" lon="0.68840503692627">
        <ele>11</ele>
        <time>2018-02-17T08:50:03Z</time>
      </trkpt>
      <trkpt lat="51.689468007534742" lon="0.688432026654482">
        <ele>11</ele>
        <time>2018-02-17T08:50:04Z</time>
      </trkpt>
      <trkpt lat="51.689476976171136" lon="0.688461028039455">
        <ele>11</ele>
        <time>2018-02-17T08:50:05Z</time>
      </trkpt>
      <trkpt lat="51.689488040283322" lon="0.688490029424429">
        <ele>11</ele>
        <time>2018-02-17T08:50:06Z</time>
      </trkpt>
      <trkpt lat="51.689497008919716" lon="0.688519030809402">
        <ele>10.7387423747968</ele>
        <time>2018-02-17T08:50:07Z</time>
      </trkpt>
      <trkpt lat="51.689508995041251" lon="0.688549038022757">
        <ele>10</ele>
        <time>2018-02-17T08:50:08Z</time>
      </trkpt>
      <trkpt lat="51.689518969506025" lon="0.68857703357935">
        <ele>10.1954007768362</ele>
        <time>2018-02-17T08:50:09Z</time>
      </trkpt>
      <trkpt lat="51.689528021961451" lon="0.688607962802053">
        <ele>11</ele>
        <time>2018-02-17T08:50:10Z</time>
      </trkpt>
      <trkpt lat="51.689536990597844" lon="0.688638975843787">
        <ele>11</ele>
        <time>2018-02-17T08:50:11Z</time>
      </trkpt>
      <trkpt lat="51.689545037224889" lon="0.688669988885522">
        <ele>11</ele>
        <time>2018-02-17T08:50:12Z</time>
      </trkpt>
      <trkpt lat="51.689551994204521" lon="0.688703013584018">
        <ele>11</ele>
        <time>2018-02-17T08:50:13Z</time>
      </trkpt>
      <trkpt lat="51.689560962840915" lon="0.688735032454133">
        <ele>10.800000000000001</ele>
        <time>2018-02-17T08:50:14Z</time>
      </trkpt>
      <trkpt lat="51.689568003639579" lon="0.688765961676836">
        <ele>10</ele>
        <time>2018-02-17T08:50:15Z</time>
      </trkpt>
      <trkpt lat="51.689574038609862" lon="0.688796974718571">
        <ele>10</ele>
        <time>2018-02-17T08:50:16Z</time>
      </trkpt>
      <trkpt lat="51.689582001417875" lon="0.688825976103544">
        <ele>10</ele>
        <time>2018-02-17T08:50:17Z</time>
      </trkpt>
      <trkpt lat="51.689589964225888" lon="0.688855983316898">
        <ele>10</ele>
        <time>2018-02-17T08:50:18Z</time>
      </trkpt>
      <trkpt lat="51.689599016681314" lon="0.688885990530252">
        <ele>10</ele>
        <time>2018-02-17T08:50:19Z</time>
      </trkpt>
      <trkpt lat="51.689609996974468" lon="0.688913986086845">
        <ele>9.72917333333333</ele>
        <time>2018-02-17T08:50:20Z</time>
      </trkpt>
      <trkpt lat="51.689618965610862" lon="0.68894499912858">
        <ele>9</ele>
        <time>2018-02-17T08:50:21Z</time>
      </trkpt>
      <trkpt lat="51.689628018066287" lon="0.688976012170315">
        <ele>9</ele>
        <time>2018-02-17T08:50:22Z</time>
      </trkpt>
      <trkpt lat="51.689636986702681" lon="0.689007025212049">
        <ele>9</ele>
        <time>2018-02-17T08:50:23Z</time>
      </trkpt>
      <trkpt lat="51.689645033329725" lon="0.689038960263133">
        <ele>9</ele>
        <time>2018-02-17T08:50:24Z</time>
      </trkpt>
      <trkpt lat="51.689651990309358" lon="0.689069973304868">
        <ele>9</ele>
        <time>2018-02-17T08:50:25Z</time>
      </trkpt>
      <trkpt lat="51.689660036936402" lon="0.689101992174983">
        <ele>9</ele>
        <time>2018-02-17T08:50:26Z</time>
      </trkpt>
      <trkpt lat="51.689667999744415" lon="0.689134011045098">
        <ele>9</ele>
        <time>2018-02-17T08:50:27Z</time>
      </trkpt>
      <trkpt lat="51.689675962552428" lon="0.689164018258452">
        <ele>9</ele>
        <time>2018-02-17T08:50:28Z</time>
      </trkpt>
      <trkpt lat="51.689683003351092" lon="0.689196959137917">
        <ele>9</ele>
        <time>2018-02-17T08:50:29Z</time>
      </trkpt>
      <trkpt lat="51.689689960330725" lon="0.689229983836412">
        <ele>9</ele>
        <time>2018-02-17T08:50:30Z</time>
      </trkpt>
      <trkpt lat="51.689697001129389" lon="0.689262002706528">
        <ele>10</ele>
        <time>2018-02-17T08:50:31Z</time>
      </trkpt>
      <trkpt lat="51.689703958109021" lon="0.689296033233404">
        <ele>10</ele>
        <time>2018-02-17T08:50:32Z</time>
      </trkpt>
      <trkpt lat="51.689712004736066" lon="0.689325034618378">
        <ele>10</ele>
        <time>2018-02-17T08:50:33Z</time>
      </trkpt>
      <trkpt lat="51.689719967544079" lon="0.689355963841081">
        <ele>10</ele>
        <time>2018-02-17T08:50:34Z</time>
      </trkpt>
      <trkpt lat="51.689728014171124" lon="0.689385971054435">
        <ele>10</ele>
        <time>2018-02-17T08:50:35Z</time>
      </trkpt>
      <trkpt lat="51.689734971150756" lon="0.689414972439408">
        <ele>10</ele>
        <time>2018-02-17T08:50:36Z</time>
      </trkpt>
      <trkpt lat="51.689743017777801" lon="0.689447997137904">
        <ele>10</ele>
        <time>2018-02-17T08:50:37Z</time>
      </trkpt>
      <trkpt lat="51.689750980585814" lon="0.689478004351258">
        <ele>10</ele>
        <time>2018-02-17T08:50:38Z</time>
      </trkpt>
      <trkpt lat="51.689759027212858" lon="0.689511029049754">
        <ele>10</ele>
        <time>2018-02-17T08:50:39Z</time>
      </trkpt>
      <trkpt lat="51.689767995849252" lon="0.689543969929218">
        <ele>10</ele>
        <time>2018-02-17T08:50:40Z</time>
      </trkpt>
      <trkpt lat="51.689776964485645" lon="0.689571965485811">
        <ele>10</ele>
        <time>2018-02-17T08:50:41Z</time>
      </trkpt>
      <trkpt lat="51.68978501111269" lon="0.689601972699165">
        <ele>9.660002048026209</ele>
        <time>2018-02-17T08:50:42Z</time>
      </trkpt>
      <trkpt lat="51.689791968092322" lon="0.689629968255758">
        <ele>9</ele>
        <time>2018-02-17T08:50:43Z</time>
      </trkpt>
      <trkpt lat="51.689801020547748" lon="0.689657041803002">
        <ele>9</ele>
        <time>2018-02-17T08:50:44Z</time>
      </trkpt>
      <trkpt lat="51.689808983355761" lon="0.689687971025705">
        <ele>9</ele>
        <time>2018-02-17T08:50:45Z</time>
      </trkpt>
      <trkpt lat="51.689817029982805" lon="0.689716972410679">
        <ele>9</ele>
        <time>2018-02-17T08:50:46Z</time>
      </trkpt>
      <trkpt lat="51.689827004447579" lon="0.689746979624033">
        <ele>9</ele>
        <time>2018-02-17T08:50:47Z</time>
      </trkpt>
      <trkpt lat="51.689835973083973" lon="0.689778998494148">
        <ele>9</ele>
        <time>2018-02-17T08:50:48Z</time>
      </trkpt>
      <trkpt lat="51.689846031367779" lon="0.689809005707502">
        <ele>9</ele>
        <time>2018-02-17T08:50:49Z</time>
      </trkpt>
      <trkpt lat="51.689851982519031" lon="0.689840018749237">
        <ele>9</ele>
        <time>2018-02-17T08:50:50Z</time>
      </trkpt>
      <trkpt lat="51.689859023317695" lon="0.689872037619352">
        <ele>9</ele>
        <time>2018-02-17T08:50:51Z</time>
      </trkpt>
      <trkpt lat="51.689866986125708" lon="0.689903972670436">
        <ele>9</ele>
        <time>2018-02-17T08:50:52Z</time>
      </trkpt>
      <trkpt lat="51.689876038581133" lon="0.689935991540551">
        <ele>9</ele>
        <time>2018-02-17T08:50:53Z</time>
      </trkpt>
      <trkpt lat="51.689882995560765" lon="0.689964992925525">
        <ele>9</ele>
        <time>2018-02-17T08:50:54Z</time>
      </trkpt>
      <trkpt lat="51.689891964197159" lon="0.689998017624021">
        <ele>9</ele>
        <time>2018-02-17T08:50:55Z</time>
      </trkpt>
      <trkpt lat="51.689901016652584" lon="0.690031964331865">
        <ele>9</ele>
        <time>2018-02-17T08:50:56Z</time>
      </trkpt>
      <trkpt lat="51.689910991117358" lon="0.690063983201981">
        <ele>9</ele>
        <time>2018-02-17T08:50:57Z</time>
      </trkpt>
      <trkpt lat="51.689920965582132" lon="0.690098013728857">
        <ele>9</ele>
        <time>2018-02-17T08:50:58Z</time>
      </trkpt>
      <trkpt lat="51.689929012209177" lon="0.690128020942211">
        <ele>9</ele>
        <time>2018-02-17T08:50:59Z</time>
      </trkpt>
      <trkpt lat="51.68993697501719" lon="0.690157022327185">
        <ele>9</ele>
        <time>2018-02-17T08:51:00Z</time>
      </trkpt>
      <trkpt lat="51.689945021644235" lon="0.690186023712158">
        <ele>8.943930711901711</ele>
        <time>2018-02-17T08:51:01Z</time>
      </trkpt>
      <trkpt lat="51.689951978623867" lon="0.690215025097132">
        <ele>8.00934288756236</ele>
        <time>2018-02-17T08:51:02Z</time>
      </trkpt>
      <trkpt lat="51.689958013594151" lon="0.690246960148215">
        <ele>8</ele>
        <time>2018-02-17T08:51:03Z</time>
      </trkpt>
      <trkpt lat="51.689965976402164" lon="0.690278979018331">
        <ele>8</ele>
        <time>2018-02-17T08:51:04Z</time>
      </trkpt>
      <trkpt lat="51.689974023029208" lon="0.690309992060065">
        <ele>8</ele>
        <time>2018-02-17T08:51:05Z</time>
      </trkpt>
      <trkpt lat="51.689980980008841" lon="0.690343016758561">
        <ele>8</ele>
        <time>2018-02-17T08:51:06Z</time>
      </trkpt>
      <trkpt lat="51.689988020807505" lon="0.690371012315154">
        <ele>8</ele>
        <time>2018-02-17T08:51:07Z</time>
      </trkpt>
      <trkpt lat="51.689996989443898" lon="0.690402025356889">
        <ele>8</ele>
        <time>2018-02-17T08:51:08Z</time>
      </trkpt>
      <trkpt lat="51.690007969737053" lon="0.690433960407972">
        <ele>8</ele>
        <time>2018-02-17T08:51:09Z</time>
      </trkpt>
      <trkpt lat="51.690018028020859" lon="0.690463967621326">
        <ele>8</ele>
        <time>2018-02-17T08:51:10Z</time>
      </trkpt>
      <trkpt lat="51.690026996657252" lon="0.690496992319822">
        <ele>8</ele>
        <time>2018-02-17T08:51:11Z</time>
      </trkpt>
      <trkpt lat="51.690034959465265" lon="0.690528005361557">
        <ele>8</ele>
        <time>2018-02-17T08:51:12Z</time>
      </trkpt>
      <trkpt lat="51.690044011920691" lon="0.690560024231672">
        <ele>8</ele>
        <time>2018-02-17T08:51:13Z</time>
      </trkpt>
      <trkpt lat="51.690051974728703" lon="0.690591037273407">
        <ele>8</ele>
        <time>2018-02-17T08:51:14Z</time>
      </trkpt>
      <trkpt lat="51.690060021355748" lon="0.69061903283">
        <ele>8</ele>
        <time>2018-02-17T08:51:15Z</time>
      </trkpt>
      <trkpt lat="51.690069995820522" lon="0.690649040043354">
        <ele>8</ele>
        <time>2018-02-17T08:51:16Z</time>
      </trkpt>
      <trkpt lat="51.690079970285296" lon="0.690678041428328">
        <ele>8</ele>
        <time>2018-02-17T08:51:17Z</time>
      </trkpt>
      <trkpt lat="51.690090028569102" lon="0.690706036984921">
        <ele>8</ele>
        <time>2018-02-17T08:51:18Z</time>
      </trkpt>
      <trkpt lat="51.690100003033876" lon="0.690736966207623">
        <ele>8</ele>
        <time>2018-02-17T08:51:19Z</time>
      </trkpt>
      <trkpt lat="51.690109977498651" lon="0.690764961764216">
        <ele>8</ele>
        <time>2018-02-17T08:51:20Z</time>
      </trkpt>
      <trkpt lat="51.690119029954076" lon="0.690794968977571">
        <ele>8</ele>
        <time>2018-02-17T08:51:21Z</time>
      </trkpt>
      <trkpt lat="51.690127998590469" lon="0.690828999504447">
        <ele>8</ele>
        <time>2018-02-17T08:51:22Z</time>
      </trkpt>
      <trkpt lat="51.690135961398482" lon="0.690859006717801">
        <ele>8</ele>
        <time>2018-02-17T08:51:23Z</time>
      </trkpt>
      <trkpt lat="51.690144008025527" lon="0.690891025587916">
        <ele>8</ele>
        <time>2018-02-17T08:51:24Z</time>
      </trkpt>
      <trkpt lat="51.69015197083354" lon="0.690922038629651">
        <ele>8</ele>
        <time>2018-02-17T08:51:25Z</time>
      </trkpt>
      <trkpt lat="51.690160017460585" lon="0.690952967852354">
        <ele>8</ele>
        <time>2018-02-17T08:51:26Z</time>
      </trkpt>
      <trkpt lat="51.690164040774107" lon="0.690983980894089">
        <ele>8</ele>
        <time>2018-02-17T08:51:27Z</time>
      </trkpt>
      <trkpt lat="51.690177032724023" lon="0.691025974228978">
        <ele>8</ele>
        <time>2018-02-17T08:51:29Z</time>
      </trkpt>
      <trkpt lat="51.690178038552403" lon="0.691061010584235">
        <ele>8</ele>
        <time>2018-02-17T08:51:31Z</time>
      </trkpt>
      <trkpt lat="51.690174015238881" lon="0.691096968948841">
        <ele>8</ele>
        <time>2018-02-17T08:51:35Z</time>
      </trkpt>
      <trkpt lat="51.690180972218513" lon="0.691130999475718">
        <ele>8</ele>
        <time>2018-02-17T08:51:38Z</time>
      </trkpt>
      <trkpt lat="51.690191030502319" lon="0.691169975325465">
        <ele>8</ele>
        <time>2018-02-17T08:51:41Z</time>
      </trkpt>
      <trkpt lat="51.690202010795474" lon="0.691193025559187">
        <ele>8.26666477038385</ele>
        <time>2018-02-17T08:51:43Z</time>
      </trkpt>
      <trkpt lat="51.690212991088629" lon="0.69122102111578">
        <ele>9</ele>
        <time>2018-02-17T08:51:45Z</time>
      </trkpt>
      <trkpt lat="51.690223971381783" lon="0.691256979480386">
        <ele>9</ele>
        <time>2018-02-17T08:51:47Z</time>
      </trkpt>
      <trkpt lat="51.690236041322351" lon="0.691296039149165">
        <ele>9</ele>
        <time>2018-02-17T08:51:49Z</time>
      </trkpt>
      <trkpt lat="51.690246015787125" lon="0.691334009170532">
        <ele>9</ele>
        <time>2018-02-17T08:51:51Z</time>
      </trkpt>
      <trkpt lat="51.690256996080279" lon="0.691363010555506">
        <ele>8.796609066354261</ele>
        <time>2018-02-17T08:51:53Z</time>
      </trkpt>
      <trkpt lat="51.690273005515337" lon="0.691378014162183">
        <ele>8</ele>
        <time>2018-02-17T08:51:55Z</time>
      </trkpt>
      <trkpt lat="51.690284991636872" lon="0.691405003890395">
        <ele>8</ele>
        <time>2018-02-17T08:51:57Z</time>
      </trkpt>
      <trkpt lat="51.690293038263917" lon="0.691440962255001">
        <ele>8</ele>
        <time>2018-02-17T08:51:59Z</time>
      </trkpt>
      <trkpt lat="51.690293960273266" lon="0.691482033580542">
        <ele>8</ele>
        <time>2018-02-17T08:52:01Z</time>
      </trkpt>
      <trkpt lat="51.690299995243549" lon="0.691521009430289">
        <ele>8</ele>
        <time>2018-02-17T08:52:03Z</time>
      </trkpt>
      <trkpt lat="51.690307036042213" lon="0.691560991108418">
        <ele>8</ele>
        <time>2018-02-17T08:52:05Z</time>
      </trkpt>
      <trkpt lat="51.690313993021846" lon="0.691602984443307">
        <ele>8</ele>
        <time>2018-02-17T08:52:07Z</time>
      </trkpt>
      <trkpt lat="51.690316004678607" lon="0.691645983606577">
        <ele>9</ele>
        <time>2018-02-17T08:52:09Z</time>
      </trkpt>
      <trkpt lat="51.69032103382051" lon="0.691686971113086">
        <ele>9</ele>
        <time>2018-02-17T08:52:11Z</time>
      </trkpt>
      <trkpt lat="51.690327990800142" lon="0.691727958619595">
        <ele>8</ele>
        <time>2018-02-17T08:52:13Z</time>
      </trkpt>
      <trkpt lat="51.690334025770426" lon="0.691768024116755">
        <ele>9</ele>
        <time>2018-02-17T08:52:15Z</time>
      </trkpt>
      <trkpt lat="51.690340982750058" lon="0.691804988309741">
        <ele>9</ele>
        <time>2018-02-17T08:52:17Z</time>
      </trkpt>
      <trkpt lat="51.690351041033864" lon="0.691842036321759">
        <ele>9</ele>
        <time>2018-02-17T08:52:19Z</time>
      </trkpt>
      <trkpt lat="51.690363027155399" lon="0.691874977201223">
        <ele>9</ele>
        <time>2018-02-17T08:52:21Z</time>
      </trkpt>
      <trkpt lat="51.690375013276935" lon="0.691906996071339">
        <ele>9</ele>
        <time>2018-02-17T08:52:23Z</time>
      </trkpt>
      <trkpt lat="51.690384987741709" lon="0.691941026598215">
        <ele>8</ele>
        <time>2018-02-17T08:52:25Z</time>
      </trkpt>
      <trkpt lat="51.690397979691625" lon="0.69197597913444">
        <ele>8</ele>
        <time>2018-02-17T08:52:27Z</time>
      </trkpt>
      <trkpt lat="51.69040803797543" lon="0.692014032974839">
        <ele>8</ele>
        <time>2018-02-17T08:52:29Z</time>
      </trkpt>
      <trkpt lat="51.690421029925346" lon="0.692044962197542">
        <ele>8</ele>
        <time>2018-02-17T08:52:31Z</time>
      </trkpt>
      <trkpt lat="51.690433016046882" lon="0.69208100438118">
        <ele>8</ele>
        <time>2018-02-17T08:52:33Z</time>
      </trkpt>
      <trkpt lat="51.690447013825178" lon="0.692118974402547">
        <ele>8</ele>
        <time>2018-02-17T08:52:35Z</time>
      </trkpt>
      <trkpt lat="51.690456988289952" lon="0.692159039899707">
        <ele>8</ele>
        <time>2018-02-17T08:52:37Z</time>
      </trkpt>
      <trkpt lat="51.690465034916997" lon="0.692199021577835">
        <ele>8</ele>
        <time>2018-02-17T08:52:39Z</time>
      </trkpt>
      <trkpt lat="51.69047299772501" lon="0.692235985770822">
        <ele>8.200005688848441</ele>
        <time>2018-02-17T08:52:41Z</time>
      </trkpt>
      <trkpt lat="51.690480960533023" lon="0.69227303378284">
        <ele>9</ele>
        <time>2018-02-17T08:52:43Z</time>
      </trkpt>
      <trkpt lat="51.690489007160068" lon="0.692311003804207">
        <ele>9</ele>
        <time>2018-02-17T08:52:45Z</time>
      </trkpt>
      <trkpt lat="51.690501999109983" lon="0.692348973825574">
        <ele>9</ele>
        <time>2018-02-17T08:52:47Z</time>
      </trkpt>
      <trkpt lat="51.690513985231519" lon="0.692386021837592">
        <ele>9</ele>
        <time>2018-02-17T08:52:49Z</time>
      </trkpt>
      <trkpt lat="51.690524965524673" lon="0.692422986030579">
        <ele>9</ele>
        <time>2018-02-17T08:52:51Z</time>
      </trkpt>
      <trkpt lat="51.69053703546524" lon="0.692456010729074">
        <ele>9</ele>
        <time>2018-02-17T08:52:53Z</time>
      </trkpt>
      <trkpt lat="51.690552039071918" lon="0.69248802959919">
        <ele>9</ele>
        <time>2018-02-17T08:52:55Z</time>
      </trkpt>
      <trkpt lat="51.690565031021833" lon="0.692520970478654">
        <ele>9</ele>
        <time>2018-02-17T08:52:57Z</time>
      </trkpt>
      <trkpt lat="51.690578022971749" lon="0.692556006833911">
        <ele>9</ele>
        <time>2018-02-17T08:52:59Z</time>
      </trkpt>
      <trkpt lat="51.690587997436523" lon="0.692592971026897">
        <ele>8.78985641672541</ele>
        <time>2018-02-17T08:53:01Z</time>
      </trkpt>
      <trkpt lat="51.690595960244536" lon="0.692628007382154">
        <ele>8</ele>
        <time>2018-02-17T08:53:03Z</time>
      </trkpt>
      <trkpt lat="51.690609036013484" lon="0.692667989060283">
        <ele>8</ele>
        <time>2018-02-17T08:53:05Z</time>
      </trkpt>
      <trkpt lat="51.690620016306639" lon="0.692707970738411">
        <ele>8</ele>
        <time>2018-02-17T08:53:07Z</time>
      </trkpt>
      <trkpt lat="51.690632002428174" lon="0.6927499640733">
        <ele>8</ele>
        <time>2018-02-17T08:53:09Z</time>
      </trkpt>
      <trkpt lat="51.690641976892948" lon="0.69279002957046">
        <ele>8</ele>
        <time>2018-02-17T08:53:11Z</time>
      </trkpt>
      <trkpt lat="51.690652035176754" lon="0.692830011248589">
        <ele>8</ele>
        <time>2018-02-17T08:53:13Z</time>
      </trkpt>
      <trkpt lat="51.690657986328006" lon="0.692872004583478">
        <ele>8</ele>
        <time>2018-02-17T08:53:15Z</time>
      </trkpt>
      <trkpt lat="51.690662009641528" lon="0.692912992089987">
        <ele>8</ele>
        <time>2018-02-17T08:53:17Z</time>
      </trkpt>
      <trkpt lat="51.690670978277922" lon="0.692952973768115">
        <ele>9</ele>
        <time>2018-02-17T08:53:19Z</time>
      </trkpt>
      <trkpt lat="51.690681036561728" lon="0.692993961274624">
        <ele>8.093023486569891</ele>
        <time>2018-02-17T08:53:21Z</time>
      </trkpt>
      <trkpt lat="51.690691011026502" lon="0.693032015115023">
        <ele>8</ele>
        <time>2018-02-17T08:53:23Z</time>
      </trkpt>
      <trkpt lat="51.690701991319656" lon="0.693065961822867">
        <ele>8</ele>
        <time>2018-02-17T08:53:25Z</time>
      </trkpt>
      <trkpt lat="51.690713977441192" lon="0.693094041198492">
        <ele>8</ele>
        <time>2018-02-17T08:53:27Z</time>
      </trkpt>
      <trkpt lat="51.690727975219488" lon="0.693122958764434">
        <ele>8</ele>
        <time>2018-02-17T08:53:29Z</time>
      </trkpt>
      <trkpt lat="51.690740967169404" lon="0.693159000948071">
        <ele>8</ele>
        <time>2018-02-17T08:53:31Z</time>
      </trkpt>
      <trkpt lat="51.69075102545321" lon="0.693196970969439">
        <ele>8</ele>
        <time>2018-02-17T08:53:33Z</time>
      </trkpt>
      <trkpt lat="51.690760999917984" lon="0.693237958475947">
        <ele>8</ele>
        <time>2018-02-17T08:53:35Z</time>
      </trkpt>
      <trkpt lat="51.690768962725997" lon="0.693281963467598">
        <ele>8</ele>
        <time>2018-02-17T08:53:37Z</time>
      </trkpt>
      <trkpt lat="51.690777009353042" lon="0.693325968459249">
        <ele>8</ele>
        <time>2018-02-17T08:53:39Z</time>
      </trkpt>
      <trkpt lat="51.690787989646196" lon="0.693362010642886">
        <ele>8</ele>
        <time>2018-02-17T08:53:41Z</time>
      </trkpt>
      <trkpt lat="51.69079503044486" lon="0.693395035341382">
        <ele>8</ele>
        <time>2018-02-17T08:53:43Z</time>
      </trkpt>
      <trkpt lat="51.690802993252873" lon="0.693438034504652">
        <ele>8</ele>
        <time>2018-02-17T08:53:45Z</time>
      </trkpt>
      <trkpt lat="51.690811039879918" lon="0.693488996475935">
        <ele>8</ele>
        <time>2018-02-17T08:53:47Z</time>
      </trkpt>
      <trkpt lat="51.690825037658215" lon="0.69354297593236">
        <ele>8</ele>
        <time>2018-02-17T08:53:49Z</time>
      </trkpt>
      <trkpt lat="51.690831994637847" lon="0.693571977317333">
        <ele>8</ele>
        <time>2018-02-17T08:53:50Z</time>
      </trkpt>
      <trkpt lat="51.690840041264892" lon="0.693599972873926">
        <ele>8</ele>
        <time>2018-02-17T08:53:51Z</time>
      </trkpt>
      <trkpt lat="51.690848004072905" lon="0.693627968430519">
        <ele>8</ele>
        <time>2018-02-17T08:53:52Z</time>
      </trkpt>
      <trkpt lat="51.690855966880918" lon="0.693657975643873">
        <ele>8</ele>
        <time>2018-02-17T08:53:53Z</time>
      </trkpt>
      <trkpt lat="51.690862001851201" lon="0.693687982857227">
        <ele>8</ele>
        <time>2018-02-17T08:53:54Z</time>
      </trkpt>
      <trkpt lat="51.690869964659214" lon="0.693716984242201">
        <ele>8</ele>
        <time>2018-02-17T08:53:55Z</time>
      </trkpt>
      <trkpt lat="51.690879017114639" lon="0.693747997283936">
        <ele>8</ele>
        <time>2018-02-17T08:53:56Z</time>
      </trkpt>
      <trkpt lat="51.690889997407794" lon="0.693803988397121">
        <ele>8</ele>
        <time>2018-02-17T08:53:58Z</time>
      </trkpt>
      <trkpt lat="51.690895026549697" lon="0.693836007267237">
        <ele>8</ele>
        <time>2018-02-17T08:53:59Z</time>
      </trkpt>
      <trkpt lat="51.690901983529329" lon="0.693866014480591">
        <ele>8</ele>
        <time>2018-02-17T08:54:00Z</time>
      </trkpt>
      <trkpt lat="51.690910030156374" lon="0.693897027522326">
        <ele>8</ele>
        <time>2018-02-17T08:54:01Z</time>
      </trkpt>
      <trkpt lat="51.690918998792768" lon="0.69393097423017">
        <ele>8</ele>
        <time>2018-02-17T08:54:02Z</time>
      </trkpt>
      <trkpt lat="51.690925033763051" lon="0.693961987271905">
        <ele>8</ele>
        <time>2018-02-17T08:54:03Z</time>
      </trkpt>
      <trkpt lat="51.690930984914303" lon="0.693990988656878">
        <ele>8</ele>
        <time>2018-02-17T08:54:04Z</time>
      </trkpt>
      <trkpt lat="51.690938025712967" lon="0.694022001698613">
        <ele>8</ele>
        <time>2018-02-17T08:54:05Z</time>
      </trkpt>
      <trkpt lat="51.690944982692599" lon="0.694049997255206">
        <ele>8</ele>
        <time>2018-02-17T08:54:06Z</time>
      </trkpt>
      <trkpt lat="51.690951017662883" lon="0.69408000446856">
        <ele>8</ele>
        <time>2018-02-17T08:54:07Z</time>
      </trkpt>
      <trkpt lat="51.690954035148025" lon="0.694111017510295">
        <ele>8</ele>
        <time>2018-02-17T08:54:08Z</time>
      </trkpt>
      <trkpt lat="51.690959986299276" lon="0.694139013066888">
        <ele>8</ele>
        <time>2018-02-17T08:54:09Z</time>
      </trkpt>
      <trkpt lat="51.69096702709794" lon="0.694171031937003">
        <ele>8</ele>
        <time>2018-02-17T08:54:10Z</time>
      </trkpt>
      <trkpt lat="51.690975995734334" lon="0.694201961159706">
        <ele>8</ele>
        <time>2018-02-17T08:54:11Z</time>
      </trkpt>
      <trkpt lat="51.690983958542347" lon="0.69423196837306">
        <ele>8</ele>
        <time>2018-02-17T08:54:12Z</time>
      </trkpt>
      <trkpt lat="51.69098999351263" lon="0.694265998899937">
        <ele>8</ele>
        <time>2018-02-17T08:54:13Z</time>
      </trkpt>
      <trkpt lat="51.690992005169392" lon="0.694298017770052">
        <ele>8</ele>
        <time>2018-02-17T08:54:14Z</time>
      </trkpt>
      <trkpt lat="51.690998962149024" lon="0.694329030811787">
        <ele>8</ele>
        <time>2018-02-17T08:54:15Z</time>
      </trkpt>
      <trkpt lat="51.691003991290927" lon="0.694359038025141">
        <ele>8</ele>
        <time>2018-02-17T08:54:16Z</time>
      </trkpt>
      <trkpt lat="51.691011032089591" lon="0.694416034966707">
        <ele>8</ele>
        <time>2018-02-17T08:54:18Z</time>
      </trkpt>
      <trkpt lat="51.691013965755701" lon="0.69444696418941">
        <ele>8</ele>
        <time>2018-02-17T08:54:19Z</time>
      </trkpt>
      <trkpt lat="51.691015977412462" lon="0.694476971402764">
        <ele>8.219779446929421</ele>
        <time>2018-02-17T08:54:20Z</time>
      </trkpt>
      <trkpt lat="51.691020000725985" lon="0.69450899027288">
        <ele>9</ele>
        <time>2018-02-17T08:54:21Z</time>
      </trkpt>
      <trkpt lat="51.691024024039507" lon="0.694543020799756">
        <ele>9</ele>
        <time>2018-02-17T08:54:22Z</time>
      </trkpt>
      <trkpt lat="51.691028969362378" lon="0.69457302801311">
        <ele>9</ele>
        <time>2018-02-17T08:54:23Z</time>
      </trkpt>
      <trkpt lat="51.691036010161042" lon="0.69461602717638">
        <ele>9</ele>
        <time>2018-02-17T08:54:25Z</time>
      </trkpt>
      <trkpt lat="51.691046990454197" lon="0.694639999419451">
        <ele>9</ele>
        <time>2018-02-17T08:54:28Z</time>
      </trkpt>
      <trkpt lat="51.691065011546016" lon="0.694650979712605">
        <ele>8</ele>
        <time>2018-02-17T08:54:31Z</time>
      </trkpt>
      <trkpt lat="51.691084960475564" lon="0.694661037996411">
        <ele>9</ele>
        <time>2018-02-17T08:54:37Z</time>
      </trkpt>
      <trkpt lat="51.691097030416131" lon="0.694678975269198">
        <ele>8</ele>
        <time>2018-02-17T08:54:44Z</time>
      </trkpt>
      <trkpt lat="51.691112034022808" lon="0.694706970825791">
        <ele>8</ele>
        <time>2018-02-17T08:54:46Z</time>
      </trkpt>
      <trkpt lat="51.691132988780737" lon="0.694742007181048">
        <ele>9</ele>
        <time>2018-02-17T08:54:48Z</time>
      </trkpt>
      <trkpt lat="51.691142041236162" lon="0.694764973595738">
        <ele>9</ele>
        <time>2018-02-17T08:54:49Z</time>
      </trkpt>
      <trkpt lat="51.691151009872556" lon="0.694790035486221">
        <ele>9</ele>
        <time>2018-02-17T08:54:50Z</time>
      </trkpt>
      <trkpt lat="51.691162995994091" lon="0.694815013557673">
        <ele>9</ele>
        <time>2018-02-17T08:54:51Z</time>
      </trkpt>
      <trkpt lat="51.691173976287246" lon="0.694842003285885">
        <ele>9</ele>
        <time>2018-02-17T08:54:52Z</time>
      </trkpt>
      <trkpt lat="51.691185040399432" lon="0.694865975528955">
        <ele>9</ele>
        <time>2018-02-17T08:54:53Z</time>
      </trkpt>
      <trkpt lat="51.691210018470883" lon="0.694906041026115">
        <ele>9</ele>
        <time>2018-02-17T08:54:55Z</time>
      </trkpt>
      <trkpt lat="51.691232984885573" lon="0.694948034361005">
        <ele>9</ele>
        <time>2018-02-17T08:54:57Z</time>
      </trkpt>
      <trkpt lat="51.691245976835489" lon="0.694974018260837">
        <ele>9</ele>
        <time>2018-02-17T08:54:58Z</time>
      </trkpt>
      <trkpt lat="51.691259974613786" lon="0.694996984675527">
        <ele>9</ele>
        <time>2018-02-17T08:54:59Z</time>
      </trkpt>
      <trkpt lat="51.691272966563702" lon="0.695020034909248">
        <ele>9</ele>
        <time>2018-02-17T08:55:00Z</time>
      </trkpt>
      <trkpt lat="51.691285958513618" lon="0.695044007152319">
        <ele>9</ele>
        <time>2018-02-17T08:55:01Z</time>
      </trkpt>
      <trkpt lat="51.691300040110946" lon="0.695065967738628">
        <ele>9</ele>
        <time>2018-02-17T08:55:02Z</time>
      </trkpt>
      <trkpt lat="51.691314037889242" lon="0.695090023800731">
        <ele>9</ele>
        <time>2018-02-17T08:55:03Z</time>
      </trkpt>
      <trkpt lat="51.691329041495919" lon="0.695113996043801">
        <ele>9</ele>
        <time>2018-02-17T08:55:04Z</time>
      </trkpt>
      <trkpt lat="51.691342033445835" lon="0.695136962458491">
        <ele>9</ele>
        <time>2018-02-17T08:55:05Z</time>
      </trkpt>
      <trkpt lat="51.691356031224132" lon="0.695158001035452">
        <ele>9</ele>
        <time>2018-02-17T08:55:06Z</time>
      </trkpt>
      <trkpt lat="51.691372040659189" lon="0.695179039612412">
        <ele>9</ele>
        <time>2018-02-17T08:55:07Z</time>
      </trkpt>
      <trkpt lat="51.691386038437486" lon="0.695199994370341">
        <ele>9</ele>
        <time>2018-02-17T08:55:08Z</time>
      </trkpt>
      <trkpt lat="51.691399030387402" lon="0.695225978270173">
        <ele>9</ele>
        <time>2018-02-17T08:55:09Z</time>
      </trkpt>
      <trkpt lat="51.691413028165698" lon="0.695251040160656">
        <ele>9</ele>
        <time>2018-02-17T08:55:10Z</time>
      </trkpt>
      <trkpt lat="51.691426020115614" lon="0.695273000746965">
        <ele>9</ele>
        <time>2018-02-17T08:55:11Z</time>
      </trkpt>
      <trkpt lat="51.691442029550672" lon="0.695294961333275">
        <ele>9</ele>
        <time>2018-02-17T08:55:12Z</time>
      </trkpt>
      <trkpt lat="51.691459966823459" lon="0.695313988253474">
        <ele>9</ele>
        <time>2018-02-17T08:55:13Z</time>
      </trkpt>
      <trkpt lat="51.691474970430136" lon="0.695336032658815">
        <ele>9</ele>
        <time>2018-02-17T08:55:14Z</time>
      </trkpt>
      <trkpt lat="51.691487962380052" lon="0.695357993245125">
        <ele>9</ele>
        <time>2018-02-17T08:55:15Z</time>
      </trkpt>
      <trkpt lat="51.691500032320619" lon="0.695381965488195">
        <ele>9</ele>
        <time>2018-02-17T08:55:16Z</time>
      </trkpt>
      <trkpt lat="51.691515035927296" lon="0.695408033207059">
        <ele>9</ele>
        <time>2018-02-17T08:55:17Z</time>
      </trkpt>
      <trkpt lat="51.691530961543322" lon="0.695435022935271">
        <ele>9</ele>
        <time>2018-02-17T08:55:18Z</time>
      </trkpt>
      <trkpt lat="51.691544037312269" lon="0.695461006835103">
        <ele>9</ele>
        <time>2018-02-17T08:55:19Z</time>
      </trkpt>
      <trkpt lat="51.691557029262185" lon="0.695484979078174">
        <ele>9</ele>
        <time>2018-02-17T08:55:20Z</time>
      </trkpt>
      <trkpt lat="51.691576978191733" lon="0.695524960756302">
        <ele>9</ele>
        <time>2018-02-17T08:55:22Z</time>
      </trkpt>
      <trkpt lat="51.69159198179841" lon="0.695554967969656">
        <ele>9</ele>
        <time>2018-02-17T08:55:24Z</time>
      </trkpt>
      <trkpt lat="51.691604973748326" lon="0.6955820415169">
        <ele>8</ele>
        <time>2018-02-17T08:55:32Z</time>
      </trkpt>
      <trkpt lat="51.691616037860513" lon="0.695639038458467">
        <ele>8</ele>
        <time>2018-02-17T08:55:35Z</time>
      </trkpt>
      <trkpt lat="51.691620983183384" lon="0.695676002651453">
        <ele>8.279573888269541</ele>
        <time>2018-02-17T08:55:37Z</time>
      </trkpt>
      <trkpt lat="51.691627018153667" lon="0.695725036785007">
        <ele>9</ele>
        <time>2018-02-17T08:55:39Z</time>
      </trkpt>
      <trkpt lat="51.691625006496906" lon="0.695759989321232">
        <ele>9</ele>
        <time>2018-02-17T08:55:40Z</time>
      </trkpt>
      <trkpt lat="51.691625006496906" lon="0.695791002362967">
        <ele>9.34000204797379</ele>
        <time>2018-02-17T08:55:41Z</time>
      </trkpt>
      <trkpt lat="51.691625006496906" lon="0.695823021233082">
        <ele>10</ele>
        <time>2018-02-17T08:55:42Z</time>
      </trkpt>
      <trkpt lat="51.691622994840145" lon="0.695858979597688">
        <ele>10</ele>
        <time>2018-02-17T08:55:43Z</time>
      </trkpt>
      <trkpt lat="51.691620983183384" lon="0.695895021781325">
        <ele>10</ele>
        <time>2018-02-17T08:55:44Z</time>
      </trkpt>
      <trkpt lat="51.691618971526623" lon="0.69592896848917">
        <ele>10</ele>
        <time>2018-02-17T08:55:45Z</time>
      </trkpt>
      <trkpt lat="51.691616959869862" lon="0.695964004844427">
        <ele>10</ele>
        <time>2018-02-17T08:55:46Z</time>
      </trkpt>
      <trkpt lat="51.691615032032132" lon="0.695999041199684">
        <ele>10</ele>
        <time>2018-02-17T08:55:47Z</time>
      </trkpt>
      <trkpt lat="51.69161201454699" lon="0.696032987907529">
        <ele>10</ele>
        <time>2018-02-17T08:55:48Z</time>
      </trkpt>
      <trkpt lat="51.691608997061849" lon="0.696066012606025">
        <ele>10</ele>
        <time>2018-02-17T08:55:49Z</time>
      </trkpt>
      <trkpt lat="51.691605979576707" lon="0.696099037304521">
        <ele>10</ele>
        <time>2018-02-17T08:55:50Z</time>
      </trkpt>
      <trkpt lat="51.691604973748326" lon="0.696132984012365">
        <ele>10</ele>
        <time>2018-02-17T08:55:51Z</time>
      </trkpt>
      <trkpt lat="51.691602962091565" lon="0.696165002882481">
        <ele>10</ele>
        <time>2018-02-17T08:55:52Z</time>
      </trkpt>
      <trkpt lat="51.691602040082216" lon="0.696195010095835">
        <ele>10</ele>
        <time>2018-02-17T08:55:53Z</time>
      </trkpt>
      <trkpt lat="51.691598016768694" lon="0.696248989552259">
        <ele>10</ele>
        <time>2018-02-17T08:55:55Z</time>
      </trkpt>
      <trkpt lat="51.691596005111933" lon="0.696280002593994">
        <ele>10</ele>
        <time>2018-02-17T08:55:56Z</time>
      </trkpt>
      <trkpt lat="51.69159198179841" lon="0.696314033120871">
        <ele>10</ele>
        <time>2018-02-17T08:55:57Z</time>
      </trkpt>
      <trkpt lat="51.691588964313269" lon="0.696345968171954">
        <ele>10</ele>
        <time>2018-02-17T08:55:58Z</time>
      </trkpt>
      <trkpt lat="51.691586030647159" lon="0.69637899287045">
        <ele>10</ele>
        <time>2018-02-17T08:55:59Z</time>
      </trkpt>
      <trkpt lat="51.691584018990397" lon="0.696412017568946">
        <ele>10</ele>
        <time>2018-02-17T08:56:00Z</time>
      </trkpt>
      <trkpt lat="51.691582007333636" lon="0.6964420247823">
        <ele>10</ele>
        <time>2018-02-17T08:56:01Z</time>
      </trkpt>
      <trkpt lat="51.691577984020114" lon="0.696499021723866">
        <ele>10</ele>
        <time>2018-02-17T08:56:03Z</time>
      </trkpt>
      <trkpt lat="51.691575972363353" lon="0.696556018665433">
        <ele>10</ele>
        <time>2018-02-17T08:56:05Z</time>
      </trkpt>
      <trkpt lat="51.691573960706592" lon="0.696587031707168">
        <ele>10.2700032</ele>
        <time>2018-02-17T08:56:06Z</time>
      </trkpt>
      <trkpt lat="51.691572032868862" lon="0.696619972586632">
        <ele>11</ele>
        <time>2018-02-17T08:56:07Z</time>
      </trkpt>
      <trkpt lat="51.691572032868862" lon="0.696652997285128">
        <ele>11</ele>
        <time>2018-02-17T08:56:08Z</time>
      </trkpt>
      <trkpt lat="51.691570021212101" lon="0.696686021983624">
        <ele>11</ele>
        <time>2018-02-17T08:56:09Z</time>
      </trkpt>
      <trkpt lat="51.691565997898579" lon="0.696720974519849">
        <ele>11</ele>
        <time>2018-02-17T08:56:10Z</time>
      </trkpt>
      <trkpt lat="51.691564992070198" lon="0.696751987561584">
        <ele>11</ele>
        <time>2018-02-17T08:56:11Z</time>
      </trkpt>
      <trkpt lat="51.691562980413437" lon="0.696781994774938">
        <ele>11</ele>
        <time>2018-02-17T08:56:12Z</time>
      </trkpt>
      <trkpt lat="51.691559040918946" lon="0.696813007816672">
        <ele>11</ele>
        <time>2018-02-17T08:56:13Z</time>
      </trkpt>
      <trkpt lat="51.691556023433805" lon="0.696844020858407">
        <ele>11</ele>
        <time>2018-02-17T08:56:14Z</time>
      </trkpt>
      <trkpt lat="51.691553005948663" lon="0.696876039728522">
        <ele>11</ele>
        <time>2018-02-17T08:56:15Z</time>
      </trkpt>
      <trkpt lat="51.691549988463521" lon="0.696910992264748">
        <ele>11</ele>
        <time>2018-02-17T08:56:16Z</time>
      </trkpt>
      <trkpt lat="51.69154797680676" lon="0.696946028620005">
        <ele>11</ele>
        <time>2018-02-17T08:56:17Z</time>
      </trkpt>
      <trkpt lat="51.691544037312269" lon="0.696978969499469">
        <ele>11</ele>
        <time>2018-02-17T08:56:18Z</time>
      </trkpt>
      <trkpt lat="51.691542025655508" lon="0.697014005854726">
        <ele>11</ele>
        <time>2018-02-17T08:56:19Z</time>
      </trkpt>
      <trkpt lat="51.691540013998747" lon="0.697045018896461">
        <ele>11</ele>
        <time>2018-02-17T08:56:20Z</time>
      </trkpt>
      <trkpt lat="51.691539008170366" lon="0.697077037766576">
        <ele>11</ele>
        <time>2018-02-17T08:56:21Z</time>
      </trkpt>
      <trkpt lat="51.691536996513605" lon="0.69710997864604">
        <ele>11</ele>
        <time>2018-02-17T08:56:22Z</time>
      </trkpt>
      <trkpt lat="51.691536996513605" lon="0.697146020829678">
        <ele>11.195309999999999</ele>
        <time>2018-02-17T08:56:23Z</time>
      </trkpt>
      <trkpt lat="51.691535990685225" lon="0.697182985022664">
        <ele>11.976559999999999</ele>
        <time>2018-02-17T08:56:24Z</time>
      </trkpt>
      <trkpt lat="51.691534984856844" lon="0.697218021377921">
        <ele>12</ele>
        <time>2018-02-17T08:56:25Z</time>
      </trkpt>
      <trkpt lat="51.691534984856844" lon="0.697252973914146">
        <ele>12</ele>
        <time>2018-02-17T08:56:26Z</time>
      </trkpt>
      <trkpt lat="51.691539008170366" lon="0.697285998612642">
        <ele>12</ele>
        <time>2018-02-17T08:56:27Z</time>
      </trkpt>
      <trkpt lat="51.691543031483889" lon="0.697318017482758">
        <ele>12</ele>
        <time>2018-02-17T08:56:28Z</time>
      </trkpt>
      <trkpt lat="51.691545965149999" lon="0.697351964190602">
        <ele>12</ele>
        <time>2018-02-17T08:56:29Z</time>
      </trkpt>
      <trkpt lat="51.69154898263514" lon="0.697384988889098">
        <ele>12</ele>
        <time>2018-02-17T08:56:30Z</time>
      </trkpt>
      <trkpt lat="51.691552000120282" lon="0.697421031072736">
        <ele>12</ele>
        <time>2018-02-17T08:56:31Z</time>
      </trkpt>
      <trkpt lat="51.691556023433805" lon="0.697456989437342">
        <ele>13</ele>
        <time>2018-02-17T08:56:32Z</time>
      </trkpt>
      <trkpt lat="51.691560968756676" lon="0.697489008307457">
        <ele>13</ele>
        <time>2018-02-17T08:56:33Z</time>
      </trkpt>
      <trkpt lat="51.69156800955534" lon="0.697523038834333">
        <ele>13</ele>
        <time>2018-02-17T08:56:34Z</time>
      </trkpt>
      <trkpt lat="51.691573038697243" lon="0.697556985542178">
        <ele>13</ele>
        <time>2018-02-17T08:56:35Z</time>
      </trkpt>
      <trkpt lat="51.691576978191733" lon="0.697587998583913">
        <ele>13</ele>
        <time>2018-02-17T08:56:36Z</time>
      </trkpt>
      <trkpt lat="51.691581001505256" lon="0.697622029110789">
        <ele>13</ele>
        <time>2018-02-17T08:56:37Z</time>
      </trkpt>
      <trkpt lat="51.691585024818778" lon="0.697650024667382">
        <ele>13</ele>
        <time>2018-02-17T08:56:38Z</time>
      </trkpt>
      <trkpt lat="51.691589970141649" lon="0.697680031880736">
        <ele>13</ele>
        <time>2018-02-17T08:56:39Z</time>
      </trkpt>
      <trkpt lat="51.691597010940313" lon="0.69771196693182">
        <ele>13.2499968</ele>
        <time>2018-02-17T08:56:40Z</time>
      </trkpt>
      <trkpt lat="51.691603967919946" lon="0.697739962488413">
        <ele>14</ele>
        <time>2018-02-17T08:56:41Z</time>
      </trkpt>
      <trkpt lat="51.691606985405087" lon="0.697769969701767">
        <ele>14</ele>
        <time>2018-02-17T08:56:42Z</time>
      </trkpt>
      <trkpt lat="51.691610002890229" lon="0.697799976915121">
        <ele>14</ele>
        <time>2018-02-17T08:56:43Z</time>
      </trkpt>
      <trkpt lat="51.691619977355003" lon="0.697859991341829">
        <ele>14</ele>
        <time>2018-02-17T08:56:45Z</time>
      </trkpt>
      <trkpt lat="51.691629029810429" lon="0.69790399633348">
        <ele>15</ele>
        <time>2018-02-17T08:56:47Z</time>
      </trkpt>
      <trkpt lat="51.691637998446822" lon="0.697937021031976">
        <ele>15</ele>
        <time>2018-02-17T08:56:49Z</time>
      </trkpt>
      <trkpt lat="51.691645961254835" lon="0.697964010760188">
        <ele>15</ele>
        <time>2018-02-17T08:56:51Z</time>
      </trkpt>
      <trkpt lat="51.691651996225119" lon="0.698001980781555">
        <ele>15</ele>
        <time>2018-02-17T08:56:54Z</time>
      </trkpt>
      <trkpt lat="51.691662976518273" lon="0.698038022965193">
        <ele>15</ele>
        <time>2018-02-17T08:56:58Z</time>
      </trkpt>
      <trkpt lat="51.69167697429657" lon="0.698072975501418">
        <ele>15</ele>
        <time>2018-02-17T08:57:01Z</time>
      </trkpt>
      <trkpt lat="51.691688960418105" lon="0.69809996522963">
        <ele>15</ele>
        <time>2018-02-17T08:57:03Z</time>
      </trkpt>
      <trkpt lat="51.691703964024782" lon="0.69811999797821">
        <ele>15</ele>
        <time>2018-02-17T08:57:05Z</time>
      </trkpt>
      <trkpt lat="51.691717961803079" lon="0.6981429643929">
        <ele>15</ele>
        <time>2018-02-17T08:57:07Z</time>
      </trkpt>
      <trkpt lat="51.691734977066517" lon="0.698173977434635">
        <ele>15</ele>
        <time>2018-02-17T08:57:09Z</time>
      </trkpt>
      <trkpt lat="51.691748974844813" lon="0.698201972991228">
        <ele>15</ele>
        <time>2018-02-17T08:57:11Z</time>
      </trkpt>
      <trkpt lat="51.691755009815097" lon="0.698233991861343">
        <ele>15</ele>
        <time>2018-02-17T08:57:13Z</time>
      </trkpt>
      <trkpt lat="51.69176397845149" lon="0.698263999074697">
        <ele>15</ele>
        <time>2018-02-17T08:57:15Z</time>
      </trkpt>
      <trkpt lat="51.691766995936632" lon="0.698298029601574">
        <ele>15</ele>
        <time>2018-02-17T08:57:17Z</time>
      </trkpt>
      <trkpt lat="51.691759033128619" lon="0.698331976309419">
        <ele>15.2499968</ele>
        <time>2018-02-17T08:57:19Z</time>
      </trkpt>
      <trkpt lat="51.691744029521942" lon="0.698367012664676">
        <ele>16</ele>
        <time>2018-02-17T08:57:22Z</time>
      </trkpt>
      <trkpt lat="51.691723996773362" lon="0.698383022099733">
        <ele>16</ele>
        <time>2018-02-17T08:57:24Z</time>
      </trkpt>
      <trkpt lat="51.691702036187053" lon="0.69839701987803">
        <ele>16</ele>
        <time>2018-02-17T08:57:26Z</time>
      </trkpt>
      <trkpt lat="51.691684015095234" lon="0.698406994342804">
        <ele>16</ele>
        <time>2018-02-17T08:57:28Z</time>
      </trkpt>
      <trkpt lat="51.691663982346654" lon="0.698426021263003">
        <ele>17</ele>
        <time>2018-02-17T08:57:30Z</time>
      </trkpt>
      <trkpt lat="51.691642021760345" lon="0.698448987677693">
        <ele>17</ele>
        <time>2018-02-17T08:57:32Z</time>
      </trkpt>
      <trkpt lat="51.691628023982048" lon="0.698474971577525">
        <ele>17</ele>
        <time>2018-02-17T08:57:34Z</time>
      </trkpt>
      <trkpt lat="51.691621989011765" lon="0.698512019589543">
        <ele>17</ele>
        <time>2018-02-17T08:57:36Z</time>
      </trkpt>
      <trkpt lat="51.691617965698242" lon="0.698540015146136">
        <ele>17</ele>
        <time>2018-02-17T08:57:38Z</time>
      </trkpt>
      <trkpt lat="51.691613020375371" lon="0.698586031794548">
        <ele>17</ele>
        <time>2018-02-17T08:57:40Z</time>
      </trkpt>
      <trkpt lat="51.691615032032132" lon="0.698626013472676">
        <ele>17</ele>
        <time>2018-02-17T08:57:42Z</time>
      </trkpt>
      <trkpt lat="51.691610002890229" lon="0.698667000979185">
        <ele>17</ele>
        <time>2018-02-17T08:57:44Z</time>
      </trkpt>
      <trkpt lat="51.691602962091565" lon="0.698711005970836">
        <ele>17</ele>
        <time>2018-02-17T08:57:46Z</time>
      </trkpt>
      <trkpt lat="51.691598016768694" lon="0.698745958507061">
        <ele>17</ele>
        <time>2018-02-17T08:57:48Z</time>
      </trkpt>
      <trkpt lat="51.691601034253836" lon="0.698779989033937">
        <ele>17</ele>
        <time>2018-02-17T08:57:50Z</time>
      </trkpt>
      <trkpt lat="51.691603967919946" lon="0.698817959055305">
        <ele>17</ele>
        <time>2018-02-17T08:57:52Z</time>
      </trkpt>
      <trkpt lat="51.691610002890229" lon="0.6988509837538">
        <ele>17</ele>
        <time>2018-02-17T08:57:54Z</time>
      </trkpt>
      <trkpt lat="51.691618971526623" lon="0.698891971260309">
        <ele>18</ele>
        <time>2018-02-17T08:57:56Z</time>
      </trkpt>
      <trkpt lat="51.69163104146719" lon="0.69893597625196">
        <ele>18</ele>
        <time>2018-02-17T08:57:58Z</time>
      </trkpt>
      <trkpt lat="51.691639004275203" lon="0.698980987071991">
        <ele>18</ele>
        <time>2018-02-17T08:58:00Z</time>
      </trkpt>
      <trkpt lat="51.691649984568357" lon="0.699019962921739">
        <ele>18</ele>
        <time>2018-02-17T08:58:02Z</time>
      </trkpt>
      <trkpt lat="51.691665994003415" lon="0.699059022590518">
        <ele>18</ele>
        <time>2018-02-17T08:58:04Z</time>
      </trkpt>
      <trkpt lat="51.691678985953331" lon="0.699099004268646">
        <ele>17.100772963157699</ele>
        <time>2018-02-17T08:58:06Z</time>
      </trkpt>
      <trkpt lat="51.691689966246486" lon="0.699139991775155">
        <ele>17</ele>
        <time>2018-02-17T08:58:08Z</time>
      </trkpt>
      <trkpt lat="51.691701030358672" lon="0.699182990938425">
        <ele>17</ele>
        <time>2018-02-17T08:58:10Z</time>
      </trkpt>
      <trkpt lat="51.691714022308588" lon="0.699220960959792">
        <ele>17</ele>
        <time>2018-02-17T08:58:12Z</time>
      </trkpt>
      <trkpt lat="51.691730031743646" lon="0.699260020628572">
        <ele>17</ele>
        <time>2018-02-17T08:58:14Z</time>
      </trkpt>
      <trkpt lat="51.691742017865181" lon="0.699297990649939">
        <ele>17</ele>
        <time>2018-02-17T08:58:16Z</time>
      </trkpt>
      <trkpt lat="51.691750986501575" lon="0.699331015348434">
        <ele>17</ele>
        <time>2018-02-17T08:58:18Z</time>
      </trkpt>
      <trkpt lat="51.691759033128619" lon="0.699361022561789">
        <ele>17</ele>
        <time>2018-02-17T08:58:20Z</time>
      </trkpt>
      <trkpt lat="51.691771019250154" lon="0.699394969269633">
        <ele>17</ele>
        <time>2018-02-17T08:58:22Z</time>
      </trkpt>
      <trkpt lat="51.69178401120007" lon="0.69943000562489">
        <ele>17</ele>
        <time>2018-02-17T08:58:24Z</time>
      </trkpt>
      <trkpt lat="51.691791974008083" lon="0.699469987303019">
        <ele>17</ele>
        <time>2018-02-17T08:58:26Z</time>
      </trkpt>
      <trkpt lat="51.69180303812027" lon="0.699510974809527">
        <ele>16</ele>
        <time>2018-02-17T08:58:28Z</time>
      </trkpt>
      <trkpt lat="51.691816030070186" lon="0.699551040306687">
        <ele>16</ele>
        <time>2018-02-17T08:58:30Z</time>
      </trkpt>
      <trkpt lat="51.691834973171353" lon="0.699585992842913">
        <ele>16</ele>
        <time>2018-02-17T08:58:32Z</time>
      </trkpt>
      <trkpt lat="51.691850982606411" lon="0.699623040854931">
        <ele>16.285712419837299</ele>
        <time>2018-02-17T08:58:34Z</time>
      </trkpt>
      <trkpt lat="51.691867997869849" lon="0.69966503418982">
        <ele>17</ele>
        <time>2018-02-17T08:58:36Z</time>
      </trkpt>
      <trkpt lat="51.691875960677862" lon="0.69968800060451">
        <ele>17</ele>
        <time>2018-02-17T08:58:37Z</time>
      </trkpt>
      <trkpt lat="51.691893981769681" lon="0.699735023081303">
        <ele>17</ele>
        <time>2018-02-17T08:58:39Z</time>
      </trkpt>
      <trkpt lat="51.6919120028615" lon="0.699777016416192">
        <ele>16</ele>
        <time>2018-02-17T08:58:41Z</time>
      </trkpt>
      <trkpt lat="51.691927006468177" lon="0.699820015579462">
        <ele>16</ele>
        <time>2018-02-17T08:58:43Z</time>
      </trkpt>
      <trkpt lat="51.691939998418093" lon="0.699861003085971">
        <ele>16</ele>
        <time>2018-02-17T08:58:45Z</time>
      </trkpt>
      <trkpt lat="51.691950978711247" lon="0.699897967278957">
        <ele>16</ele>
        <time>2018-02-17T08:58:47Z</time>
      </trkpt>
      <trkpt lat="51.691962964832783" lon="0.699936021119356">
        <ele>16</ele>
        <time>2018-02-17T08:58:49Z</time>
      </trkpt>
      <trkpt lat="51.691976962611079" lon="0.699970973655581">
        <ele>16</ele>
        <time>2018-02-17T08:58:51Z</time>
      </trkpt>
      <trkpt lat="51.691990038380027" lon="0.700006010010839">
        <ele>16</ele>
        <time>2018-02-17T08:58:53Z</time>
      </trkpt>
      <trkpt lat="51.692004036158323" lon="0.700042974203825">
        <ele>16</ele>
        <time>2018-02-17T08:58:55Z</time>
      </trkpt>
      <trkpt lat="51.692016022279859" lon="0.700081028044224">
        <ele>16</ele>
        <time>2018-02-17T08:58:57Z</time>
      </trkpt>
      <trkpt lat="51.692030020058155" lon="0.700120003893971">
        <ele>16</ele>
        <time>2018-02-17T08:58:59Z</time>
      </trkpt>
      <trkpt lat="51.69204200617969" lon="0.7001599855721">
        <ele>16</ele>
        <time>2018-02-17T08:59:01Z</time>
      </trkpt>
      <trkpt lat="51.692049968987703" lon="0.700194016098976">
        <ele>16</ele>
        <time>2018-02-17T08:59:03Z</time>
      </trkpt>
      <trkpt lat="51.692057009786367" lon="0.700230980291963">
        <ele>16</ele>
        <time>2018-02-17T08:59:05Z</time>
      </trkpt>
      <trkpt lat="51.69206497259438" lon="0.700261993333697">
        <ele>16</ele>
        <time>2018-02-17T08:59:07Z</time>
      </trkpt>
      <trkpt lat="51.692076958715916" lon="0.700298035517335">
        <ele>16</ele>
        <time>2018-02-17T08:59:09Z</time>
      </trkpt>
      <trkpt lat="51.692087016999722" lon="0.700334999710321">
        <ele>16</ele>
        <time>2018-02-17T08:59:11Z</time>
      </trkpt>
      <trkpt lat="51.692093973979354" lon="0.70037498138845">
        <ele>16</ele>
        <time>2018-02-17T08:59:13Z</time>
      </trkpt>
      <trkpt lat="51.69210503809154" lon="0.700414041057229">
        <ele>16</ele>
        <time>2018-02-17T08:59:15Z</time>
      </trkpt>
      <trkpt lat="51.692116018384695" lon="0.700454022735357">
        <ele>16</ele>
        <time>2018-02-17T08:59:17Z</time>
      </trkpt>
      <trkpt lat="51.692129010334611" lon="0.700490986928344">
        <ele>16</ele>
        <time>2018-02-17T08:59:19Z</time>
      </trkpt>
      <trkpt lat="51.692142002284527" lon="0.700529962778091">
        <ele>16</ele>
        <time>2018-02-17T08:59:21Z</time>
      </trkpt>
      <trkpt lat="51.69215097092092" lon="0.700566004961729">
        <ele>16</ele>
        <time>2018-02-17T08:59:23Z</time>
      </trkpt>
      <trkpt lat="51.692158011719584" lon="0.700607998296618">
        <ele>16</ele>
        <time>2018-02-17T08:59:25Z</time>
      </trkpt>
      <trkpt lat="51.692162035033107" lon="0.700656026601791">
        <ele>16</ele>
        <time>2018-02-17T08:59:27Z</time>
      </trkpt>
      <trkpt lat="51.6921710036695" lon="0.700691984966397">
        <ele>16</ele>
        <time>2018-02-17T08:59:29Z</time>
      </trkpt>
      <trkpt lat="51.692181983962655" lon="0.700731966644526">
        <ele>16</ele>
        <time>2018-02-17T08:59:31Z</time>
      </trkpt>
      <trkpt lat="51.692188018932939" lon="0.700775971636176">
        <ele>16</ele>
        <time>2018-02-17T08:59:33Z</time>
      </trkpt>
      <trkpt lat="51.692198999226093" lon="0.700821988284588">
        <ele>16</ele>
        <time>2018-02-17T08:59:35Z</time>
      </trkpt>
      <trkpt lat="51.692206962034106" lon="0.700868004933">
        <ele>16</ele>
        <time>2018-02-17T08:59:37Z</time>
      </trkpt>
      <trkpt lat="51.692217020317912" lon="0.700909998267889">
        <ele>16</ele>
        <time>2018-02-17T08:59:39Z</time>
      </trkpt>
      <trkpt lat="51.692223977297544" lon="0.70095400325954">
        <ele>16</ele>
        <time>2018-02-17T08:59:41Z</time>
      </trkpt>
      <trkpt lat="51.692231018096209" lon="0.700992979109287">
        <ele>16</ele>
        <time>2018-02-17T08:59:43Z</time>
      </trkpt>
      <trkpt lat="51.69223596341908" lon="0.701032038778067">
        <ele>16</ele>
        <time>2018-02-17T08:59:45Z</time>
      </trkpt>
      <trkpt lat="51.692247027531266" lon="0.701070008799434">
        <ele>16</ele>
        <time>2018-02-17T08:59:47Z</time>
      </trkpt>
      <trkpt lat="51.69225700199604" lon="0.70110596716404">
        <ele>15</ele>
        <time>2018-02-17T08:59:49Z</time>
      </trkpt>
      <trkpt lat="51.692266976460814" lon="0.701138991862535">
        <ele>16</ele>
        <time>2018-02-17T08:59:51Z</time>
      </trkpt>
      <trkpt lat="51.692278040573001" lon="0.701176039874554">
        <ele>16</ele>
        <time>2018-02-17T08:59:53Z</time>
      </trkpt>
      <trkpt lat="51.692286003381014" lon="0.70121300406754">
        <ele>16</ele>
        <time>2018-02-17T08:59:55Z</time>
      </trkpt>
      <trkpt lat="51.692293966189027" lon="0.701258014887571">
        <ele>15</ele>
        <time>2018-02-17T08:59:57Z</time>
      </trkpt>
      <trkpt lat="51.692297989502549" lon="0.701288022100925">
        <ele>15</ele>
        <time>2018-02-17T08:59:59Z</time>
      </trkpt>
      <trkpt lat="51.692306958138943" lon="0.701324986293912">
        <ele>15</ele>
        <time>2018-02-17T09:00:01Z</time>
      </trkpt>
      <trkpt lat="51.692316010594368" lon="0.701366979628801">
        <ele>15</ele>
        <time>2018-02-17T09:00:03Z</time>
      </trkpt>
      <trkpt lat="51.692324979230762" lon="0.701414002105594">
        <ele>15</ele>
        <time>2018-02-17T09:00:05Z</time>
      </trkpt>
      <trkpt lat="51.692335037514567" lon="0.701457001268864">
        <ele>15</ele>
        <time>2018-02-17T09:00:07Z</time>
      </trkpt>
      <trkpt lat="51.692348029464483" lon="0.70149295963347">
        <ele>15</ele>
        <time>2018-02-17T09:00:09Z</time>
      </trkpt>
      <trkpt lat="51.692359009757638" lon="0.701529001817107">
        <ele>15</ele>
        <time>2018-02-17T09:00:11Z</time>
      </trkpt>
      <trkpt lat="51.692372001707554" lon="0.701567977666855">
        <ele>15</ele>
        <time>2018-02-17T09:00:13Z</time>
      </trkpt>
      <trkpt lat="51.69238499365747" lon="0.701608965173364">
        <ele>15</ele>
        <time>2018-02-17T09:00:15Z</time>
      </trkpt>
      <trkpt lat="51.692395973950624" lon="0.701644001528621">
        <ele>14.6700032</ele>
        <time>2018-02-17T09:00:17Z</time>
      </trkpt>
      <trkpt lat="51.69240896590054" lon="0.701680965721607">
        <ele>14</ele>
        <time>2018-02-17T09:00:19Z</time>
      </trkpt>
      <trkpt lat="51.692421035841107" lon="0.701724970713258">
        <ele>14</ele>
        <time>2018-02-17T09:00:21Z</time>
      </trkpt>
      <trkpt lat="51.692430004477501" lon="0.701765036210418">
        <ele>14</ele>
        <time>2018-02-17T09:00:23Z</time>
      </trkpt>
      <trkpt lat="51.692439978942275" lon="0.701802000403404">
        <ele>14</ele>
        <time>2018-02-17T09:00:25Z</time>
      </trkpt>
      <trkpt lat="51.69245196506381" lon="0.701843993738294">
        <ele>14</ele>
        <time>2018-02-17T09:00:27Z</time>
      </trkpt>
      <trkpt lat="51.692463029175997" lon="0.701880035921931">
        <ele>15</ele>
        <time>2018-02-17T09:00:29Z</time>
      </trkpt>
      <trkpt lat="51.692475015297532" lon="0.70192001760006">
        <ele>15</ele>
        <time>2018-02-17T09:00:31Z</time>
      </trkpt>
      <trkpt lat="51.692487001419067" lon="0.701961005106568">
        <ele>15</ele>
        <time>2018-02-17T09:00:33Z</time>
      </trkpt>
      <trkpt lat="51.692499993368983" lon="0.702000986784697">
        <ele>15</ele>
        <time>2018-02-17T09:00:35Z</time>
      </trkpt>
      <trkpt lat="51.69251399114728" lon="0.702045997604728">
        <ele>14</ele>
        <time>2018-02-17T09:00:37Z</time>
      </trkpt>
      <trkpt lat="51.692525977268815" lon="0.702096037566662">
        <ele>14</ele>
        <time>2018-02-17T09:00:39Z</time>
      </trkpt>
      <trkpt lat="51.69253402389586" lon="0.702139036729932">
        <ele>14</ele>
        <time>2018-02-17T09:00:41Z</time>
      </trkpt>
      <trkpt lat="51.692542992532253" lon="0.702174995094538">
        <ele>14</ele>
        <time>2018-02-17T09:00:43Z</time>
      </trkpt>
      <trkpt lat="51.692551039159298" lon="0.702215982601047">
        <ele>14</ele>
        <time>2018-02-17T09:00:45Z</time>
      </trkpt>
      <trkpt lat="51.692555984482169" lon="0.702254036441445">
        <ele>14</ele>
        <time>2018-02-17T09:00:47Z</time>
      </trkpt>
      <trkpt lat="51.692561013624072" lon="0.702293012291193">
        <ele>14</ele>
        <time>2018-02-17T09:00:49Z</time>
      </trkpt>
      <trkpt lat="51.692571993917227" lon="0.70233098231256">
        <ele>14</ele>
        <time>2018-02-17T09:00:51Z</time>
      </trkpt>
      <trkpt lat="51.692583980038762" lon="0.702368030324578">
        <ele>14</ele>
        <time>2018-02-17T09:00:53Z</time>
      </trkpt>
      <trkpt lat="51.692593032494187" lon="0.702407006174326">
        <ele>14</ele>
        <time>2018-02-17T09:00:55Z</time>
      </trkpt>
      <trkpt lat="51.692603006958961" lon="0.702450005337596">
        <ele>14</ele>
        <time>2018-02-17T09:00:57Z</time>
      </trkpt>
      <trkpt lat="51.692612981423736" lon="0.702485041692853">
        <ele>14</ele>
        <time>2018-02-17T09:00:59Z</time>
      </trkpt>
      <trkpt lat="51.692622033879161" lon="0.70252301171422">
        <ele>14</ele>
        <time>2018-02-17T09:01:01Z</time>
      </trkpt>
      <trkpt lat="51.692627985030413" lon="0.702562993392348">
        <ele>14</ele>
        <time>2018-02-17T09:01:03Z</time>
      </trkpt>
      <trkpt lat="51.692640976980329" lon="0.702601969242096">
        <ele>14</ele>
        <time>2018-02-17T09:01:05Z</time>
      </trkpt>
      <trkpt lat="51.692653968930244" lon="0.702633988112211">
        <ele>14</ele>
        <time>2018-02-17T09:01:07Z</time>
      </trkpt>
      <trkpt lat="51.692666038870811" lon="0.702676987275481">
        <ele>14</ele>
        <time>2018-02-17T09:01:09Z</time>
      </trkpt>
      <trkpt lat="51.692671990022063" lon="0.702714035287499">
        <ele>14</ele>
        <time>2018-02-17T09:01:11Z</time>
      </trkpt>
      <trkpt lat="51.692679030820727" lon="0.702753011137247">
        <ele>14</ele>
        <time>2018-02-17T09:01:13Z</time>
      </trkpt>
      <trkpt lat="51.692684981971979" lon="0.702789975330234">
        <ele>14</ele>
        <time>2018-02-17T09:01:15Z</time>
      </trkpt>
      <trkpt lat="51.692683976143599" lon="0.702830040827394">
        <ele>14</ele>
        <time>2018-02-17T09:01:17Z</time>
      </trkpt>
      <trkpt lat="51.692683976143599" lon="0.702860970050097">
        <ele>14</ele>
        <time>2018-02-17T09:01:19Z</time>
      </trkpt>
      <trkpt lat="51.692682970315218" lon="0.702902963384986">
        <ele>14</ele>
        <time>2018-02-17T09:01:21Z</time>
      </trkpt>
      <trkpt lat="51.692674001678824" lon="0.702936993911862">
        <ele>14</ele>
        <time>2018-02-17T09:01:23Z</time>
      </trkpt>
      <trkpt lat="51.692654974758625" lon="0.702963983640075">
        <ele>14</ele>
        <time>2018-02-17T09:01:25Z</time>
      </trkpt>
      <trkpt lat="51.692628990858793" lon="0.702977981418371">
        <ele>14</ele>
        <time>2018-02-17T09:01:27Z</time>
      </trkpt>
      <trkpt lat="51.692602001130581" lon="0.703000025823712">
        <ele>14</ele>
        <time>2018-02-17T09:01:29Z</time>
      </trkpt>
      <trkpt lat="51.692579034715891" lon="0.703012011945248">
        <ele>14</ele>
        <time>2018-02-17T09:01:31Z</time>
      </trkpt>
      <trkpt lat="51.692553972825408" lon="0.703020980581641">
        <ele>14</ele>
        <time>2018-02-17T09:01:33Z</time>
      </trkpt>
      <trkpt lat="51.692520026117563" lon="0.703034978359938">
        <ele>14</ele>
        <time>2018-02-17T09:01:35Z</time>
      </trkpt>
      <trkpt lat="51.692493036389351" lon="0.703036990016699">
        <ele>14</ele>
        <time>2018-02-17T09:01:37Z</time>
      </trkpt>
      <trkpt lat="51.692468980327249" lon="0.703044030815363">
        <ele>14</ele>
        <time>2018-02-17T09:01:39Z</time>
      </trkpt>
      <trkpt lat="51.692450037226081" lon="0.703055011108518">
        <ele>14</ele>
        <time>2018-02-17T09:01:41Z</time>
      </trkpt>
      <trkpt lat="51.692422041669488" lon="0.703058028593659">
        <ele>14</ele>
        <time>2018-02-17T09:01:44Z</time>
      </trkpt>
      <trkpt lat="51.692393040284514" lon="0.703068003058434">
        <ele>14</ele>
        <time>2018-02-17T09:01:46Z</time>
      </trkpt>
      <trkpt lat="51.692367978394032" lon="0.703070014715195">
        <ele>14</ele>
        <time>2018-02-17T09:01:48Z</time>
      </trkpt>
      <trkpt lat="51.692339982837439" lon="0.703078983351588">
        <ele>14</ele>
        <time>2018-02-17T09:01:51Z</time>
      </trkpt>
      <trkpt lat="51.692312993109226" lon="0.703085018321872">
        <ele>14</ele>
        <time>2018-02-17T09:01:53Z</time>
      </trkpt>
      <trkpt lat="51.692286003381014" lon="0.703092981129885">
        <ele>14</ele>
        <time>2018-02-17T09:01:55Z</time>
      </trkpt>
      <trkpt lat="51.692258007824421" lon="0.703097004443407">
        <ele>14</ele>
        <time>2018-02-17T09:01:57Z</time>
      </trkpt>
      <trkpt lat="51.692235041409731" lon="0.703101027756929">
        <ele>14</ele>
        <time>2018-02-17T09:01:59Z</time>
      </trkpt>
      <trkpt lat="51.692206962034106" lon="0.703111002221704">
        <ele>14</ele>
        <time>2018-02-17T09:02:01Z</time>
      </trkpt>
      <trkpt lat="51.692180978134274" lon="0.703117037191987">
        <ele>14</ele>
        <time>2018-02-17T09:02:03Z</time>
      </trkpt>
      <trkpt lat="51.692157005891204" lon="0.703121982514858">
        <ele>14</ele>
        <time>2018-02-17T09:02:05Z</time>
      </trkpt>
      <trkpt lat="51.692133033648133" lon="0.703128017485142">
        <ele>14</ele>
        <time>2018-02-17T09:02:07Z</time>
      </trkpt>
      <trkpt lat="51.692105960100889" lon="0.703142015263438">
        <ele>14</ele>
        <time>2018-02-17T09:02:09Z</time>
      </trkpt>
      <trkpt lat="51.692076958715916" lon="0.703155007213354">
        <ele>14</ele>
        <time>2018-02-17T09:02:11Z</time>
      </trkpt>
      <trkpt lat="51.692048963159323" lon="0.703171016648412">
        <ele>14</ele>
        <time>2018-02-17T09:02:13Z</time>
      </trkpt>
      <trkpt lat="51.692031025886536" lon="0.703179985284805">
        <ele>14</ele>
        <time>2018-02-17T09:02:14Z</time>
      </trkpt>
      <trkpt lat="51.692005963996053" lon="0.703187026083469">
        <ele>14</ele>
        <time>2018-02-17T09:02:16Z</time>
      </trkpt>
      <trkpt lat="51.691984003409743" lon="0.703194988891482">
        <ele>14</ele>
        <time>2018-02-17T09:02:18Z</time>
      </trkpt>
      <trkpt lat="51.69195500202477" lon="0.703205969184637">
        <ele>14</ele>
        <time>2018-02-17T09:02:20Z</time>
      </trkpt>
      <trkpt lat="51.691926000639796" lon="0.703214015811682">
        <ele>14</ele>
        <time>2018-02-17T09:02:22Z</time>
      </trkpt>
      <trkpt lat="51.691898005083203" lon="0.703216027468443">
        <ele>13.6700032</ele>
        <time>2018-02-17T09:02:24Z</time>
      </trkpt>
      <trkpt lat="51.691874032840133" lon="0.703216027468443">
        <ele>13.3399979519738</ele>
        <time>2018-02-17T09:02:26Z</time>
      </trkpt>
      <trkpt lat="51.69184897094965" lon="0.703218039125204">
        <ele>14</ele>
        <time>2018-02-17T09:02:28Z</time>
      </trkpt>
      <trkpt lat="51.691822987049818" lon="0.703226001933217">
        <ele>14</ele>
        <time>2018-02-17T09:02:30Z</time>
      </trkpt>
      <trkpt lat="51.691790968179703" lon="0.703239999711514">
        <ele>14</ele>
        <time>2018-02-17T09:02:32Z</time>
      </trkpt>
      <trkpt lat="51.691761966794729" lon="0.703251985833049">
        <ele>14</ele>
        <time>2018-02-17T09:02:34Z</time>
      </trkpt>
      <trkpt lat="51.691731037572026" lon="0.703257014974952">
        <ele>14</ele>
        <time>2018-02-17T09:02:36Z</time>
      </trkpt>
      <trkpt lat="51.691703964024782" lon="0.703259026631713">
        <ele>14</ele>
        <time>2018-02-17T09:02:38Z</time>
      </trkpt>
      <trkpt lat="51.69167697429657" lon="0.703261960297823">
        <ele>14</ele>
        <time>2018-02-17T09:02:40Z</time>
      </trkpt>
      <trkpt lat="51.691651996225119" lon="0.703269001096487">
        <ele>14</ele>
        <time>2018-02-17T09:02:42Z</time>
      </trkpt>
      <trkpt lat="51.691624000668526" lon="0.703273024410009">
        <ele>14</ele>
        <time>2018-02-17T09:02:44Z</time>
      </trkpt>
      <trkpt lat="51.691594999283552" lon="0.703269001096487">
        <ele>14</ele>
        <time>2018-02-17T09:02:46Z</time>
      </trkpt>
      <trkpt lat="51.691570021212101" lon="0.70327403023839">
        <ele>14</ele>
        <time>2018-02-17T09:02:48Z</time>
      </trkpt>
      <trkpt lat="51.691545965149999" lon="0.703275036066771">
        <ele>14</ele>
        <time>2018-02-17T09:02:50Z</time>
      </trkpt>
      <trkpt lat="51.691519981250167" lon="0.703275036066771">
        <ele>14</ele>
        <time>2018-02-17T09:02:52Z</time>
      </trkpt>
      <trkpt lat="51.691491985693574" lon="0.703285010531545">
        <ele>14</ele>
        <time>2018-02-17T09:02:54Z</time>
      </trkpt>
      <trkpt lat="51.691460972651839" lon="0.703288028016686">
        <ele>14</ele>
        <time>2018-02-17T09:02:56Z</time>
      </trkpt>
      <trkpt lat="51.691433982923627" lon="0.703294984996319">
        <ele>14</ele>
        <time>2018-02-17T09:02:58Z</time>
      </trkpt>
      <trkpt lat="51.691404981538653" lon="0.703303031623363">
        <ele>14</ele>
        <time>2018-02-17T09:03:00Z</time>
      </trkpt>
      <trkpt lat="51.691382015123963" lon="0.703309988602996">
        <ele>14</ele>
        <time>2018-02-17T09:03:02Z</time>
      </trkpt>
      <trkpt lat="51.691357959061861" lon="0.703319041058421">
        <ele>14</ele>
        <time>2018-02-17T09:03:04Z</time>
      </trkpt>
      <trkpt lat="51.69133398681879" lon="0.703338989987969">
        <ele>14</ele>
        <time>2018-02-17T09:03:06Z</time>
      </trkpt>
      <trkpt lat="51.691313032060862" lon="0.703353993594646">
        <ele>14</ele>
        <time>2018-02-17T09:03:08Z</time>
      </trkpt>
      <trkpt lat="51.691291993483901" lon="0.703370003029704">
        <ele>14</ele>
        <time>2018-02-17T09:03:10Z</time>
      </trkpt>
      <trkpt lat="51.69126802124083" lon="0.703391041606665">
        <ele>14</ele>
        <time>2018-02-17T09:03:12Z</time>
      </trkpt>
      <trkpt lat="51.691243965178728" lon="0.703413002192974">
        <ele>14</ele>
        <time>2018-02-17T09:03:14Z</time>
      </trkpt>
      <trkpt lat="51.691218987107277" lon="0.703439991921186">
        <ele>14</ele>
        <time>2018-02-17T09:03:16Z</time>
      </trkpt>
      <trkpt lat="51.691195014864206" lon="0.703462958335876">
        <ele>14</ele>
        <time>2018-02-17T09:03:18Z</time>
      </trkpt>
      <trkpt lat="51.691177999600768" lon="0.703494977205992">
        <ele>14</ele>
        <time>2018-02-17T09:03:20Z</time>
      </trkpt>
      <trkpt lat="51.691153021529317" lon="0.703520961105824">
        <ele>14</ele>
        <time>2018-02-17T09:03:22Z</time>
      </trkpt>
      <trkpt lat="51.691128965467215" lon="0.703544011339545">
        <ele>14</ele>
        <time>2018-02-17T09:03:24Z</time>
      </trkpt>
      <trkpt lat="51.691101975739002" lon="0.703563960269094">
        <ele>14</ele>
        <time>2018-02-17T09:03:26Z</time>
      </trkpt>
      <trkpt lat="51.691070962697268" lon="0.703579969704151">
        <ele>14</ele>
        <time>2018-02-17T09:03:28Z</time>
      </trkpt>
      <trkpt lat="51.691042967140675" lon="0.703590027987957">
        <ele>14</ele>
        <time>2018-02-17T09:03:30Z</time>
      </trkpt>
      <trkpt lat="51.691018994897604" lon="0.703600002452731">
        <ele>14</ele>
        <time>2018-02-17T09:03:32Z</time>
      </trkpt>
      <trkpt lat="51.690996028482914" lon="0.703614000231028">
        <ele>14</ele>
        <time>2018-02-17T09:03:34Z</time>
      </trkpt>
      <trkpt lat="51.690970966592431" lon="0.703634032979608">
        <ele>14</ele>
        <time>2018-02-17T09:03:36Z</time>
      </trkpt>
      <trkpt lat="51.690944982692599" lon="0.703651970252395">
        <ele>14</ele>
        <time>2018-02-17T09:03:38Z</time>
      </trkpt>
      <trkpt lat="51.690921010449529" lon="0.703669991344213">
        <ele>14</ele>
        <time>2018-02-17T09:03:40Z</time>
      </trkpt>
      <trkpt lat="51.690897038206458" lon="0.703688012436032">
        <ele>14</ele>
        <time>2018-02-17T09:03:42Z</time>
      </trkpt>
      <trkpt lat="51.690871976315975" lon="0.703705027699471">
        <ele>13.7410742857143</ele>
        <time>2018-02-17T09:03:44Z</time>
      </trkpt>
      <trkpt lat="51.690851021558046" lon="0.703722964972258">
        <ele>13</ele>
        <time>2018-02-17T09:03:46Z</time>
      </trkpt>
      <trkpt lat="51.690825959667563" lon="0.703744003549218">
        <ele>13</ele>
        <time>2018-02-17T09:03:48Z</time>
      </trkpt>
      <trkpt lat="51.690800981596112" lon="0.703762024641037">
        <ele>13</ele>
        <time>2018-02-17T09:03:50Z</time>
      </trkpt>
      <trkpt lat="51.690777009353042" lon="0.703784991055727">
        <ele>13</ele>
        <time>2018-02-17T09:03:52Z</time>
      </trkpt>
      <trkpt lat="51.69075102545321" lon="0.703804017975926">
        <ele>13</ele>
        <time>2018-02-17T09:03:54Z</time>
      </trkpt>
      <trkpt lat="51.690728981047869" lon="0.703821033239365">
        <ele>13</ele>
        <time>2018-02-17T09:03:56Z</time>
      </trkpt>
      <trkpt lat="51.690707020461559" lon="0.703837964683771">
        <ele>13</ele>
        <time>2018-02-17T09:03:58Z</time>
      </trkpt>
      <trkpt lat="51.690684976056218" lon="0.70385598577559">
        <ele>13</ele>
        <time>2018-02-17T09:04:00Z</time>
      </trkpt>
      <trkpt lat="51.690664021298289" lon="0.703878030180931">
        <ele>14</ele>
        <time>2018-02-17T09:04:02Z</time>
      </trkpt>
      <trkpt lat="51.690642982721329" lon="0.703907031565905">
        <ele>14</ele>
        <time>2018-02-17T09:04:04Z</time>
      </trkpt>
      <trkpt lat="51.690621022135019" lon="0.703937038779259">
        <ele>14</ele>
        <time>2018-02-17T09:04:06Z</time>
      </trkpt>
      <trkpt lat="51.690593026578426" lon="0.703965034335852">
        <ele>13</ele>
        <time>2018-02-17T09:04:08Z</time>
      </trkpt>
      <trkpt lat="51.690557990223169" lon="0.703979032114148">
        <ele>13</ele>
        <time>2018-02-17T09:04:10Z</time>
      </trkpt>
      <trkpt lat="51.690539969131351" lon="0.703985989093781">
        <ele>13</ele>
        <time>2018-02-17T09:04:11Z</time>
      </trkpt>
      <trkpt lat="51.690512979403138" lon="0.704003004357219">
        <ele>13</ele>
        <time>2018-02-17T09:04:13Z</time>
      </trkpt>
      <trkpt lat="51.690482972189784" lon="0.704015996307135">
        <ele>13</ele>
        <time>2018-02-17T09:04:15Z</time>
      </trkpt>
      <trkpt lat="51.690460005775094" lon="0.704024964943528">
        <ele>13</ele>
        <time>2018-02-17T09:04:17Z</time>
      </trkpt>
      <trkpt lat="51.690436033532023" lon="0.704025970771909">
        <ele>14</ele>
        <time>2018-02-17T09:04:19Z</time>
      </trkpt>
      <trkpt lat="51.690416000783443" lon="0.704037034884095">
        <ele>14</ele>
        <time>2018-02-17T09:04:21Z</time>
      </trkpt>
      <trkpt lat="51.690394040197134" lon="0.704054972156882">
        <ele>13</ele>
        <time>2018-02-17T09:04:23Z</time>
      </trkpt>
      <trkpt lat="51.69036696664989" lon="0.704077016562223">
        <ele>13</ele>
        <time>2018-02-17T09:04:25Z</time>
      </trkpt>
      <trkpt lat="51.690340982750058" lon="0.704098977148533">
        <ele>13</ele>
        <time>2018-02-17T09:04:27Z</time>
      </trkpt>
      <trkpt lat="51.690320027992129" lon="0.704115992411971">
        <ele>13</ele>
        <time>2018-02-17T09:04:29Z</time>
      </trkpt>
      <trkpt lat="51.690293960273266" lon="0.70413501933217">
        <ele>12.793813752787599</ele>
        <time>2018-02-17T09:04:31Z</time>
      </trkpt>
      <trkpt lat="51.690266970545053" lon="0.704147005453706">
        <ele>12</ele>
        <time>2018-02-17T09:04:33Z</time>
      </trkpt>
      <trkpt lat="51.690242998301983" lon="0.704157985746861">
        <ele>12</ele>
        <time>2018-02-17T09:04:35Z</time>
      </trkpt>
      <trkpt lat="51.690219026058912" lon="0.704169971868396">
        <ele>12</ele>
        <time>2018-02-17T09:04:38Z</time>
      </trkpt>
      <trkpt lat="51.69019496999681" lon="0.704186987131834">
        <ele>12</ele>
        <time>2018-02-17T09:04:41Z</time>
      </trkpt>
      <trkpt lat="51.690177032724023" lon="0.704209031537175">
        <ele>12</ele>
        <time>2018-02-17T09:04:43Z</time>
      </trkpt>
      <trkpt lat="51.690161023288965" lon="0.704225040972233">
        <ele>12</ele>
        <time>2018-02-17T09:04:45Z</time>
      </trkpt>
      <trkpt lat="51.690145013853908" lon="0.704241972416639">
        <ele>12</ele>
        <time>2018-02-17T09:04:47Z</time>
      </trkpt>
      <trkpt lat="51.690121963620186" lon="0.7042630109936">
        <ele>12</ele>
        <time>2018-02-17T09:04:49Z</time>
      </trkpt>
      <trkpt lat="51.690094973891973" lon="0.704284971579909">
        <ele>12</ele>
        <time>2018-02-17T09:04:51Z</time>
      </trkpt>
      <trkpt lat="51.690079970285296" lon="0.704302992671728">
        <ele>12</ele>
        <time>2018-02-17T09:04:52Z</time>
      </trkpt>
      <trkpt lat="51.69006303884089" lon="0.704317996278405">
        <ele>12</ele>
        <time>2018-02-17T09:04:53Z</time>
      </trkpt>
      <trkpt lat="51.690037976950407" lon="0.704345991834998">
        <ele>12</ele>
        <time>2018-02-17T09:04:55Z</time>
      </trkpt>
      <trkpt lat="51.690008975565434" lon="0.704383039847016">
        <ele>12</ele>
        <time>2018-02-17T09:04:57Z</time>
      </trkpt>
      <trkpt lat="51.689992966130376" lon="0.704398965463042">
        <ele>12</ele>
        <time>2018-02-17T09:04:58Z</time>
      </trkpt>
      <trkpt lat="51.689962958917022" lon="0.704413969069719">
        <ele>12</ele>
        <time>2018-02-17T09:05:00Z</time>
      </trkpt>
      <trkpt lat="51.689932029694319" lon="0.704428972676396">
        <ele>12</ele>
        <time>2018-02-17T09:05:02Z</time>
      </trkpt>
      <trkpt lat="51.689917026087642" lon="0.704443976283073">
        <ele>12</ele>
        <time>2018-02-17T09:05:04Z</time>
      </trkpt>
      <trkpt lat="51.689910991117358" lon="0.704482030123472">
        <ele>12</ele>
        <time>2018-02-17T09:05:07Z</time>
      </trkpt>
      <trkpt lat="51.6899140086025" lon="0.704512959346175">
        <ele>11.788137155998101</ele>
        <time>2018-02-17T09:05:09Z</time>
      </trkpt>
      <trkpt lat="51.689922977238894" lon="0.7045410387218">
        <ele>11</ele>
        <time>2018-02-17T09:05:11Z</time>
      </trkpt>
      <trkpt lat="51.68993404135108" lon="0.704584959894419">
        <ele>11</ele>
        <time>2018-02-17T09:05:13Z</time>
      </trkpt>
      <trkpt lat="51.689938986673951" lon="0.704614967107773">
        <ele>11</ele>
        <time>2018-02-17T09:05:14Z</time>
      </trkpt>
      <trkpt lat="51.689946027472615" lon="0.704644974321127">
        <ele>11</ele>
        <time>2018-02-17T09:05:15Z</time>
      </trkpt>
      <trkpt lat="51.68995700776577" lon="0.704674981534481">
        <ele>11</ele>
        <time>2018-02-17T09:05:16Z</time>
      </trkpt>
      <trkpt lat="51.689966982230544" lon="0.704700965434313">
        <ele>11</ele>
        <time>2018-02-17T09:05:17Z</time>
      </trkpt>
      <trkpt lat="51.689974023029208" lon="0.704727033153176">
        <ele>11</ele>
        <time>2018-02-17T09:05:18Z</time>
      </trkpt>
      <trkpt lat="51.689986009150743" lon="0.704775983467698">
        <ele>11</ele>
        <time>2018-02-17T09:05:20Z</time>
      </trkpt>
      <trkpt lat="51.689993971958756" lon="0.704829040914774">
        <ele>11</ele>
        <time>2018-02-17T09:05:22Z</time>
      </trkpt>
      <trkpt lat="51.690008975565434" lon="0.704872962087393">
        <ele>11</ele>
        <time>2018-02-17T09:05:24Z</time>
      </trkpt>
      <trkpt lat="51.690025990828872" lon="0.704910010099411">
        <ele>11</ele>
        <time>2018-02-17T09:05:26Z</time>
      </trkpt>
      <trkpt lat="51.690038982778788" lon="0.704942028969526">
        <ele>11</ele>
        <time>2018-02-17T09:05:28Z</time>
      </trkpt>
      <trkpt lat="51.690052980557084" lon="0.704960972070694">
        <ele>11</ele>
        <time>2018-02-17T09:05:30Z</time>
      </trkpt>
      <trkpt lat="51.690064966678619" lon="0.70499399676919">
        <ele>11</ele>
        <time>2018-02-17T09:05:32Z</time>
      </trkpt>
      <trkpt lat="51.690076030790806" lon="0.705031966790557">
        <ele>11</ele>
        <time>2018-02-17T09:05:34Z</time>
      </trkpt>
      <trkpt lat="51.690088016912341" lon="0.705072032287717">
        <ele>11</ele>
        <time>2018-02-17T09:05:36Z</time>
      </trkpt>
      <trkpt lat="51.690093968063593" lon="0.705114025622606">
        <ele>11</ele>
        <time>2018-02-17T09:05:38Z</time>
      </trkpt>
      <trkpt lat="51.690100003033876" lon="0.705151995643973">
        <ele>11</ele>
        <time>2018-02-17T09:05:40Z</time>
      </trkpt>
      <trkpt lat="51.690110983327031" lon="0.70518602617085">
        <ele>11</ele>
        <time>2018-02-17T09:05:42Z</time>
      </trkpt>
      <trkpt lat="51.690125986933708" lon="0.705217039212585">
        <ele>11</ele>
        <time>2018-02-17T09:05:44Z</time>
      </trkpt>
      <trkpt lat="51.690141996368766" lon="0.705247968435287">
        <ele>11</ele>
        <time>2018-02-17T09:05:46Z</time>
      </trkpt>
      <trkpt lat="51.690160017460585" lon="0.705279987305403">
        <ele>11.2380929160927</ele>
        <time>2018-02-17T09:05:48Z</time>
      </trkpt>
      <trkpt lat="51.690178038552403" lon="0.705303959548473">
        <ele>12</ele>
        <time>2018-02-17T09:05:50Z</time>
      </trkpt>
      <trkpt lat="51.690189018845558" lon="0.705334972590208">
        <ele>11.757892183942101</ele>
        <time>2018-02-17T09:05:52Z</time>
      </trkpt>
      <trkpt lat="51.690190024673939" lon="0.705366991460323">
        <ele>11</ele>
        <time>2018-02-17T09:05:54Z</time>
      </trkpt>
      <trkpt lat="51.690191030502319" lon="0.705404039472342">
        <ele>10.701033240521999</ele>
        <time>2018-02-17T09:05:56Z</time>
      </trkpt>
      <trkpt lat="51.690199999138713" lon="0.705436980351806">
        <ele>10.3131335333058</ele>
        <time>2018-02-17T09:05:58Z</time>
      </trkpt>
      <trkpt lat="51.690208967775106" lon="0.705477967858315">
        <ele>11</ele>
        <time>2018-02-17T09:06:00Z</time>
      </trkpt>
      <trkpt lat="51.690222965553403" lon="0.705523984506726">
        <ele>11</ele>
        <time>2018-02-17T09:06:02Z</time>
      </trkpt>
      <trkpt lat="51.690234029665589" lon="0.705550974234939">
        <ele>11</ele>
        <time>2018-02-17T09:06:03Z</time>
      </trkpt>
      <trkpt lat="51.690246015787125" lon="0.705578969791532">
        <ele>11</ele>
        <time>2018-02-17T09:06:04Z</time>
      </trkpt>
      <trkpt lat="51.690255990251899" lon="0.705606965348125">
        <ele>11</ele>
        <time>2018-02-17T09:06:05Z</time>
      </trkpt>
      <trkpt lat="51.690268982201815" lon="0.705635966733098">
        <ele>11</ele>
        <time>2018-02-17T09:06:06Z</time>
      </trkpt>
      <trkpt lat="51.690279962494969" lon="0.705665973946452">
        <ele>11</ele>
        <time>2018-02-17T09:06:07Z</time>
      </trkpt>
      <trkpt lat="51.690288009122014" lon="0.705697992816567">
        <ele>11</ele>
        <time>2018-02-17T09:06:08Z</time>
      </trkpt>
      <trkpt lat="51.690297983586788" lon="0.705734035000205">
        <ele>11</ele>
        <time>2018-02-17T09:06:09Z</time>
      </trkpt>
      <trkpt lat="51.690308041870594" lon="0.705765970051289">
        <ele>11</ele>
        <time>2018-02-17T09:06:10Z</time>
      </trkpt>
      <trkpt lat="51.690319022163749" lon="0.705797988921404">
        <ele>11</ele>
        <time>2018-02-17T09:06:11Z</time>
      </trkpt>
      <trkpt lat="51.690331008285284" lon="0.705830007791519">
        <ele>11</ele>
        <time>2018-02-17T09:06:12Z</time>
      </trkpt>
      <trkpt lat="51.690341988578439" lon="0.705861020833254">
        <ele>11</ele>
        <time>2018-02-17T09:06:13Z</time>
      </trkpt>
      <trkpt lat="51.690351963043213" lon="0.705894967541099">
        <ele>11</ele>
        <time>2018-02-17T09:06:14Z</time>
      </trkpt>
      <trkpt lat="51.690365960821509" lon="0.705928998067975">
        <ele>11</ele>
        <time>2018-02-17T09:06:15Z</time>
      </trkpt>
      <trkpt lat="51.690378030762076" lon="0.705964034423232">
        <ele>11</ele>
        <time>2018-02-17T09:06:16Z</time>
      </trkpt>
      <trkpt lat="51.690388005226851" lon="0.705997981131077">
        <ele>11</ele>
        <time>2018-02-17T09:06:17Z</time>
      </trkpt>
      <trkpt lat="51.690395968034863" lon="0.706030000001192">
        <ele>11</ele>
        <time>2018-02-17T09:06:18Z</time>
      </trkpt>
      <trkpt lat="51.690405020490289" lon="0.706061013042927">
        <ele>11</ele>
        <time>2018-02-17T09:06:19Z</time>
      </trkpt>
      <trkpt lat="51.690411977469921" lon="0.706091020256281">
        <ele>11</ele>
        <time>2018-02-17T09:06:20Z</time>
      </trkpt>
      <trkpt lat="51.690421029925346" lon="0.706126978620887">
        <ele>11.22916</ele>
        <time>2018-02-17T09:06:21Z</time>
      </trkpt>
      <trkpt lat="51.690426981076598" lon="0.706160003319383">
        <ele>12</ele>
        <time>2018-02-17T09:06:22Z</time>
      </trkpt>
      <trkpt lat="51.690433016046882" lon="0.706193028017879">
        <ele>12</ele>
        <time>2018-02-17T09:06:23Z</time>
      </trkpt>
      <trkpt lat="51.690438967198133" lon="0.706226974725723">
        <ele>12</ele>
        <time>2018-02-17T09:06:24Z</time>
      </trkpt>
      <trkpt lat="51.690447013825178" lon="0.7062610052526">
        <ele>12</ele>
        <time>2018-02-17T09:06:25Z</time>
      </trkpt>
      <trkpt lat="51.690456988289952" lon="0.706294029951096">
        <ele>12</ele>
        <time>2018-02-17T09:06:26Z</time>
      </trkpt>
      <trkpt lat="51.690466962754726" lon="0.70632697083056">
        <ele>12</ele>
        <time>2018-02-17T09:06:27Z</time>
      </trkpt>
      <trkpt lat="51.69047299772501" lon="0.706361001357436">
        <ele>12</ele>
        <time>2018-02-17T09:06:28Z</time>
      </trkpt>
      <trkpt lat="51.690477021038532" lon="0.70639100857079">
        <ele>12</ele>
        <time>2018-02-17T09:06:29Z</time>
      </trkpt>
      <trkpt lat="51.690475009381771" lon="0.706415986642241">
        <ele>10</ele>
        <time>2018-02-17T09:06:43Z</time>
      </trkpt>
      <trkpt lat="51.690481966361403" lon="0.706462003290653">
        <ele>11</ele>
        <time>2018-02-17T09:07:15Z</time>
      </trkpt>
      <trkpt lat="51.690489007160068" lon="0.706495027989149">
        <ele>11</ele>
        <time>2018-02-17T09:07:16Z</time>
      </trkpt>
      <trkpt lat="51.690498981624842" lon="0.706535009667277">
        <ele>11</ele>
        <time>2018-02-17T09:07:17Z</time>
      </trkpt>
      <trkpt lat="51.690507028251886" lon="0.706573985517025">
        <ele>11</ele>
        <time>2018-02-17T09:07:18Z</time>
      </trkpt>
      <trkpt lat="51.69051700271666" lon="0.706609021872282">
        <ele>11.323528304491299</ele>
        <time>2018-02-17T09:07:19Z</time>
      </trkpt>
      <trkpt lat="51.690529994666576" lon="0.70664900355041">
        <ele>12</ele>
        <time>2018-02-17T09:07:20Z</time>
      </trkpt>
      <trkpt lat="51.690542986616492" lon="0.706686973571777">
        <ele>12</ele>
        <time>2018-02-17T09:07:21Z</time>
      </trkpt>
      <trkpt lat="51.690554972738028" lon="0.706726033240557">
        <ele>12</ele>
        <time>2018-02-17T09:07:22Z</time>
      </trkpt>
      <trkpt lat="51.690564025193453" lon="0.706764003261924">
        <ele>12</ele>
        <time>2018-02-17T09:07:23Z</time>
      </trkpt>
      <trkpt lat="51.690571988001466" lon="0.706801973283291">
        <ele>12</ele>
        <time>2018-02-17T09:07:24Z</time>
      </trkpt>
      <trkpt lat="51.69058003462851" lon="0.706839021295309">
        <ele>12</ele>
        <time>2018-02-17T09:07:25Z</time>
      </trkpt>
      <trkpt lat="51.690589003264904" lon="0.706875985488296">
        <ele>12</ele>
        <time>2018-02-17T09:07:26Z</time>
      </trkpt>
      <trkpt lat="51.690596966072917" lon="0.706915967166424">
        <ele>12</ele>
        <time>2018-02-17T09:07:27Z</time>
      </trkpt>
      <trkpt lat="51.690604006871581" lon="0.706954021006823">
        <ele>12</ele>
        <time>2018-02-17T09:07:28Z</time>
      </trkpt>
      <trkpt lat="51.690610041841865" lon="0.70699199102819">
        <ele>12</ele>
        <time>2018-02-17T09:07:29Z</time>
      </trkpt>
      <trkpt lat="51.690618004649878" lon="0.707025015726686">
        <ele>12</ele>
        <time>2018-02-17T09:07:30Z</time>
      </trkpt>
      <trkpt lat="51.690627979114652" lon="0.70705896243453">
        <ele>12</ele>
        <time>2018-02-17T09:07:31Z</time>
      </trkpt>
      <trkpt lat="51.690637031570077" lon="0.707092992961407">
        <ele>12</ele>
        <time>2018-02-17T09:07:32Z</time>
      </trkpt>
      <trkpt lat="51.69064600020647" lon="0.707129035145044">
        <ele>12</ele>
        <time>2018-02-17T09:07:33Z</time>
      </trkpt>
      <trkpt lat="51.690657986328006" lon="0.707162981852889">
        <ele>12</ele>
        <time>2018-02-17T09:07:34Z</time>
      </trkpt>
      <trkpt lat="51.690668966621161" lon="0.707199024036527">
        <ele>12</ele>
        <time>2018-02-17T09:07:35Z</time>
      </trkpt>
      <trkpt lat="51.690679024904966" lon="0.707236994057894">
        <ele>12</ele>
        <time>2018-02-17T09:07:36Z</time>
      </trkpt>
      <trkpt lat="51.690690005198121" lon="0.70727395825088">
        <ele>12</ele>
        <time>2018-02-17T09:07:37Z</time>
      </trkpt>
      <trkpt lat="51.690699979662895" lon="0.707311006262898">
        <ele>12</ele>
        <time>2018-02-17T09:07:38Z</time>
      </trkpt>
      <trkpt lat="51.690710037946701" lon="0.707347970455885">
        <ele>12</ele>
        <time>2018-02-17T09:07:39Z</time>
      </trkpt>
      <trkpt lat="51.690718000754714" lon="0.707385018467903">
        <ele>12</ele>
        <time>2018-02-17T09:07:40Z</time>
      </trkpt>
      <trkpt lat="51.690726969391108" lon="0.707420976832509">
        <ele>12</ele>
        <time>2018-02-17T09:07:41Z</time>
      </trkpt>
      <trkpt lat="51.690735016018152" lon="0.707456013187766">
        <ele>12</ele>
        <time>2018-02-17T09:07:42Z</time>
      </trkpt>
      <trkpt lat="51.690743984654546" lon="0.707491971552372">
        <ele>12.2680451822332</ele>
        <time>2018-02-17T09:07:43Z</time>
      </trkpt>
      <trkpt lat="51.690753037109971" lon="0.707530025392771">
        <ele>13</ele>
        <time>2018-02-17T09:07:44Z</time>
      </trkpt>
      <trkpt lat="51.690763011574745" lon="0.707567995414138">
        <ele>13</ele>
        <time>2018-02-17T09:07:45Z</time>
      </trkpt>
      <trkpt lat="51.690770974382758" lon="0.707603031769395">
        <ele>13</ele>
        <time>2018-02-17T09:07:46Z</time>
      </trkpt>
      <trkpt lat="51.690781032666564" lon="0.707639995962381">
        <ele>13</ele>
        <time>2018-02-17T09:07:47Z</time>
      </trkpt>
      <trkpt lat="51.690791007131338" lon="0.70767997764051">
        <ele>13</ele>
        <time>2018-02-17T09:07:48Z</time>
      </trkpt>
      <trkpt lat="51.690799975767732" lon="0.707718031480908">
        <ele>13</ele>
        <time>2018-02-17T09:07:49Z</time>
      </trkpt>
      <trkpt lat="51.690810034051538" lon="0.707756001502275">
        <ele>12.7456154139813</ele>
        <time>2018-02-17T09:07:50Z</time>
      </trkpt>
      <trkpt lat="51.69081799685955" lon="0.707792965695262">
        <ele>12</ele>
        <time>2018-02-17T09:07:51Z</time>
      </trkpt>
      <trkpt lat="51.690825959667563" lon="0.707831019535661">
        <ele>12</ele>
        <time>2018-02-17T09:07:52Z</time>
      </trkpt>
      <trkpt lat="51.690836017951369" lon="0.707865972071886">
        <ele>12</ele>
        <time>2018-02-17T09:07:53Z</time>
      </trkpt>
      <trkpt lat="51.690844986587763" lon="0.707903020083904">
        <ele>12</ele>
        <time>2018-02-17T09:07:54Z</time>
      </trkpt>
      <trkpt lat="51.690854961052537" lon="0.70793897844851">
        <ele>12</ele>
        <time>2018-02-17T09:07:55Z</time>
      </trkpt>
      <trkpt lat="51.690863007679582" lon="0.707976026460528">
        <ele>12</ele>
        <time>2018-02-17T09:07:56Z</time>
      </trkpt>
      <trkpt lat="51.690869964659214" lon="0.708012990653515">
        <ele>12</ele>
        <time>2018-02-17T09:07:57Z</time>
      </trkpt>
      <trkpt lat="51.690878011286259" lon="0.708050038665533">
        <ele>12</ele>
        <time>2018-02-17T09:07:58Z</time>
      </trkpt>
      <trkpt lat="51.690886979922652" lon="0.708085997030139">
        <ele>12</ele>
        <time>2018-02-17T09:07:59Z</time>
      </trkpt>
      <trkpt lat="51.690894020721316" lon="0.708119021728635">
        <ele>12</ele>
        <time>2018-02-17T09:08:00Z</time>
      </trkpt>
      <trkpt lat="51.690901983529329" lon="0.708154980093241">
        <ele>11.8118798078751</ele>
        <time>2018-02-17T09:08:01Z</time>
      </trkpt>
      <trkpt lat="51.690910030156374" lon="0.708190016448498">
        <ele>11</ele>
        <time>2018-02-17T09:08:02Z</time>
      </trkpt>
      <trkpt lat="51.690920004621148" lon="0.708224968984723">
        <ele>11</ele>
        <time>2018-02-17T09:08:03Z</time>
      </trkpt>
      <trkpt lat="51.690928973257542" lon="0.708261011168361">
        <ele>11</ele>
        <time>2018-02-17T09:08:04Z</time>
      </trkpt>
      <trkpt lat="51.690938025712967" lon="0.708294035866857">
        <ele>11</ele>
        <time>2018-02-17T09:08:05Z</time>
      </trkpt>
      <trkpt lat="51.69094699434936" lon="0.708328988403082">
        <ele>11</ele>
        <time>2018-02-17T09:08:06Z</time>
      </trkpt>
      <trkpt lat="51.690955040976405" lon="0.708363018929958">
        <ele>11</ele>
        <time>2018-02-17T09:08:07Z</time>
      </trkpt>
      <trkpt lat="51.690963003784418" lon="0.708398977294564">
        <ele>11</ele>
        <time>2018-02-17T09:08:08Z</time>
      </trkpt>
      <trkpt lat="51.690973984077573" lon="0.708433007821441">
        <ele>11</ele>
        <time>2018-02-17T09:08:09Z</time>
      </trkpt>
      <trkpt lat="51.690983036532998" lon="0.708467960357666">
        <ele>11</ele>
        <time>2018-02-17T09:08:10Z</time>
      </trkpt>
      <trkpt lat="51.690990999341011" lon="0.708505008369684">
        <ele>11</ele>
        <time>2018-02-17T09:08:11Z</time>
      </trkpt>
      <trkpt lat="51.690998962149024" lon="0.70853996090591">
        <ele>11</ele>
        <time>2018-02-17T09:08:12Z</time>
      </trkpt>
      <trkpt lat="51.691007008776069" lon="0.708576003089547">
        <ele>11</ele>
        <time>2018-02-17T09:08:13Z</time>
      </trkpt>
      <trkpt lat="51.691015977412462" lon="0.708608021959662">
        <ele>11</ele>
        <time>2018-02-17T09:08:14Z</time>
      </trkpt>
      <trkpt lat="51.691026035696268" lon="0.708640962839127">
        <ele>11</ele>
        <time>2018-02-17T09:08:15Z</time>
      </trkpt>
      <trkpt lat="51.691036010161042" lon="0.708672981709242">
        <ele>11</ele>
        <time>2018-02-17T09:08:16Z</time>
      </trkpt>
      <trkpt lat="51.691046990454197" lon="0.708707012236118">
        <ele>11</ele>
        <time>2018-02-17T09:08:17Z</time>
      </trkpt>
      <trkpt lat="51.691057970747352" lon="0.708740958943963">
        <ele>11</ele>
        <time>2018-02-17T09:08:18Z</time>
      </trkpt>
      <trkpt lat="51.691067023202777" lon="0.708771971985698">
        <ele>11</ele>
        <time>2018-02-17T09:08:19Z</time>
      </trkpt>
      <trkpt lat="51.691078003495932" lon="0.708806002512574">
        <ele>11</ele>
        <time>2018-02-17T09:08:20Z</time>
      </trkpt>
      <trkpt lat="51.691087977960706" lon="0.708840033039451">
        <ele>11</ele>
        <time>2018-02-17T09:08:21Z</time>
      </trkpt>
      <trkpt lat="51.69109895825386" lon="0.708874985575676">
        <ele>11</ele>
        <time>2018-02-17T09:08:22Z</time>
      </trkpt>
      <trkpt lat="51.691109016537666" lon="0.708910021930933">
        <ele>11</ele>
        <time>2018-02-17T09:08:23Z</time>
      </trkpt>
      <trkpt lat="51.69111899100244" lon="0.708943968638778">
        <ele>11</ele>
        <time>2018-02-17T09:08:24Z</time>
      </trkpt>
      <trkpt lat="51.691127959638834" lon="0.708977999165654">
        <ele>11</ele>
        <time>2018-02-17T09:08:25Z</time>
      </trkpt>
      <trkpt lat="51.691136006265879" lon="0.709012029692531">
        <ele>11</ele>
        <time>2018-02-17T09:08:26Z</time>
      </trkpt>
      <trkpt lat="51.691144974902272" lon="0.709047988057137">
        <ele>11</ele>
        <time>2018-02-17T09:08:27Z</time>
      </trkpt>
      <trkpt lat="51.691154027357697" lon="0.709082018584013">
        <ele>11</ele>
        <time>2018-02-17T09:08:28Z</time>
      </trkpt>
      <trkpt lat="51.69116199016571" lon="0.709117976948619">
        <ele>11</ele>
        <time>2018-02-17T09:08:29Z</time>
      </trkpt>
      <trkpt lat="51.691170036792755" lon="0.709154019132257">
        <ele>11</ele>
        <time>2018-02-17T09:08:30Z</time>
      </trkpt>
      <trkpt lat="51.691175987944007" lon="0.709189977496862">
        <ele>11</ele>
        <time>2018-02-17T09:08:31Z</time>
      </trkpt>
      <trkpt lat="51.691184034571052" lon="0.7092260196805">
        <ele>11</ele>
        <time>2018-02-17T09:08:32Z</time>
      </trkpt>
      <trkpt lat="51.691190991550684" lon="0.709261978045106">
        <ele>11</ele>
        <time>2018-02-17T09:08:33Z</time>
      </trkpt>
      <trkpt lat="51.691197026520967" lon="0.709299026057124">
        <ele>11</ele>
        <time>2018-02-17T09:08:34Z</time>
      </trkpt>
      <trkpt lat="51.69120498932898" lon="0.709330039098859">
        <ele>11</ele>
        <time>2018-02-17T09:08:35Z</time>
      </trkpt>
      <trkpt lat="51.691214041784406" lon="0.709362979978323">
        <ele>11</ele>
        <time>2018-02-17T09:08:36Z</time>
      </trkpt>
      <trkpt lat="51.69122401624918" lon="0.709400027990341">
        <ele>11</ele>
        <time>2018-02-17T09:08:37Z</time>
      </trkpt>
      <trkpt lat="51.691233990713954" lon="0.709435986354947">
        <ele>11</ele>
        <time>2018-02-17T09:08:38Z</time>
      </trkpt>
      <trkpt lat="51.691242959350348" lon="0.709472028538585">
        <ele>11</ele>
        <time>2018-02-17T09:08:39Z</time>
      </trkpt>
      <trkpt lat="51.691252011805773" lon="0.709508992731571">
        <ele>11</ele>
        <time>2018-02-17T09:08:40Z</time>
      </trkpt>
      <trkpt lat="51.691259974613786" lon="0.709544029086828">
        <ele>11</ele>
        <time>2018-02-17T09:08:41Z</time>
      </trkpt>
      <trkpt lat="51.69126701541245" lon="0.709574958309531">
        <ele>11</ele>
        <time>2018-02-17T09:08:42Z</time>
      </trkpt>
      <trkpt lat="51.691274978220463" lon="0.709609994664788">
        <ele>10</ele>
        <time>2018-02-17T09:08:43Z</time>
      </trkpt>
      <trkpt lat="51.691281013190746" lon="0.709645031020045">
        <ele>10</ele>
        <time>2018-02-17T09:08:44Z</time>
      </trkpt>
      <trkpt lat="51.691287970170379" lon="0.709679983556271">
        <ele>10</ele>
        <time>2018-02-17T09:08:45Z</time>
      </trkpt>
      <trkpt lat="51.691295010969043" lon="0.709717031568289">
        <ele>10</ele>
        <time>2018-02-17T09:08:46Z</time>
      </trkpt>
      <trkpt lat="51.691302973777056" lon="0.709753995761275">
        <ele>10</ele>
        <time>2018-02-17T09:08:47Z</time>
      </trkpt>
      <trkpt lat="51.691309008747339" lon="0.709790037944913">
        <ele>10</ele>
        <time>2018-02-17T09:08:48Z</time>
      </trkpt>
      <trkpt lat="51.691318983212113" lon="0.709824990481138">
        <ele>10</ele>
        <time>2018-02-17T09:08:49Z</time>
      </trkpt>
      <trkpt lat="51.691329041495919" lon="0.709859021008015">
        <ele>10.5799936</ele>
        <time>2018-02-17T09:08:50Z</time>
      </trkpt>
      <trkpt lat="51.691335998475552" lon="0.709892967715859">
        <ele>12</ele>
        <time>2018-02-17T09:08:51Z</time>
      </trkpt>
      <trkpt lat="51.691343961283565" lon="0.709928004071116">
        <ele>12</ele>
        <time>2018-02-17T09:08:52Z</time>
      </trkpt>
      <trkpt lat="51.691349996253848" lon="0.709965974092484">
        <ele>12</ele>
        <time>2018-02-17T09:08:53Z</time>
      </trkpt>
      <trkpt lat="51.691356031224132" lon="0.710004027932882">
        <ele>12</ele>
        <time>2018-02-17T09:08:54Z</time>
      </trkpt>
      <trkpt lat="51.691361982375383" lon="0.710041997954249">
        <ele>12</ele>
        <time>2018-02-17T09:08:55Z</time>
      </trkpt>
      <trkpt lat="51.691370029002428" lon="0.710077034309506">
        <ele>11.717172631361199</ele>
        <time>2018-02-17T09:08:56Z</time>
      </trkpt>
      <trkpt lat="51.691377991810441" lon="0.710112992674112">
        <ele>11</ele>
        <time>2018-02-17T09:08:57Z</time>
      </trkpt>
      <trkpt lat="51.691386960446835" lon="0.710147023200989">
        <ele>11</ele>
        <time>2018-02-17T09:08:58Z</time>
      </trkpt>
      <trkpt lat="51.691394001245499" lon="0.710179964080453">
        <ele>11</ele>
        <time>2018-02-17T09:08:59Z</time>
      </trkpt>
      <trkpt lat="51.691403975710273" lon="0.710213994607329">
        <ele>11</ele>
        <time>2018-02-17T09:09:00Z</time>
      </trkpt>
      <trkpt lat="51.691415961831808" lon="0.710246013477445">
        <ele>11</ele>
        <time>2018-02-17T09:09:01Z</time>
      </trkpt>
      <trkpt lat="51.691425014287233" lon="0.710281971842051">
        <ele>11</ele>
        <time>2018-02-17T09:09:02Z</time>
      </trkpt>
      <trkpt lat="51.691434988752007" lon="0.710313990712166">
        <ele>11</ele>
        <time>2018-02-17T09:09:03Z</time>
      </trkpt>
      <trkpt lat="51.691443035379052" lon="0.710350032895803">
        <ele>11</ele>
        <time>2018-02-17T09:09:04Z</time>
      </trkpt>
      <trkpt lat="51.691448986530304" lon="0.710383979603648">
        <ele>11</ele>
        <time>2018-02-17T09:09:05Z</time>
      </trkpt>
      <trkpt lat="51.691456027328968" lon="0.710420021787286">
        <ele>11</ele>
        <time>2018-02-17T09:09:06Z</time>
      </trkpt>
      <trkpt lat="51.6914629843086" lon="0.710457991808653">
        <ele>11</ele>
        <time>2018-02-17T09:09:07Z</time>
      </trkpt>
      <trkpt lat="51.691468013450503" lon="0.71049596183002">
        <ele>11</ele>
        <time>2018-02-17T09:09:08Z</time>
      </trkpt>
      <trkpt lat="51.691474970430136" lon="0.710532004013658">
        <ele>11</ele>
        <time>2018-02-17T09:09:09Z</time>
      </trkpt>
      <trkpt lat="51.691478993743658" lon="0.710567962378263">
        <ele>11.2357691427144</ele>
        <time>2018-02-17T09:09:10Z</time>
      </trkpt>
      <trkpt lat="51.691486034542322" lon="0.710604004561901">
        <ele>12</ele>
        <time>2018-02-17T09:09:11Z</time>
      </trkpt>
      <trkpt lat="51.691492991521955" lon="0.710639962926507">
        <ele>12</ele>
        <time>2018-02-17T09:09:12Z</time>
      </trkpt>
      <trkpt lat="51.691500032320619" lon="0.710673993453383">
        <ele>12</ele>
        <time>2018-02-17T09:09:13Z</time>
      </trkpt>
      <trkpt lat="51.691506989300251" lon="0.710711963474751">
        <ele>12</ele>
        <time>2018-02-17T09:09:14Z</time>
      </trkpt>
      <trkpt lat="51.691513024270535" lon="0.710748005658388">
        <ele>12</ele>
        <time>2018-02-17T09:09:15Z</time>
      </trkpt>
      <trkpt lat="51.691516963765025" lon="0.710782036185265">
        <ele>12</ele>
        <time>2018-02-17T09:09:16Z</time>
      </trkpt>
      <trkpt lat="51.691522998735309" lon="0.710812965407968">
        <ele>12</ele>
        <time>2018-02-17T09:09:17Z</time>
      </trkpt>
      <trkpt lat="51.691529033705592" lon="0.710845990106463">
        <ele>12</ele>
        <time>2018-02-17T09:09:18Z</time>
      </trkpt>
      <trkpt lat="51.691534984856844" lon="0.71088002063334">
        <ele>12</ele>
        <time>2018-02-17T09:09:19Z</time>
      </trkpt>
      <trkpt lat="51.691543031483889" lon="0.710913967341185">
        <ele>12</ele>
        <time>2018-02-17T09:09:20Z</time>
      </trkpt>
      <trkpt lat="51.69154898263514" lon="0.710947997868061">
        <ele>12</ele>
        <time>2018-02-17T09:09:21Z</time>
      </trkpt>
      <trkpt lat="51.691556023433805" lon="0.710980016738176">
        <ele>12</ele>
        <time>2018-02-17T09:09:22Z</time>
      </trkpt>
      <trkpt lat="51.691561974585056" lon="0.711012035608292">
        <ele>12</ele>
        <time>2018-02-17T09:09:23Z</time>
      </trkpt>
      <trkpt lat="51.69156901538372" lon="0.711045982316136">
        <ele>12</ele>
        <time>2018-02-17T09:09:24Z</time>
      </trkpt>
      <trkpt lat="51.691574966534972" lon="0.711078001186252">
        <ele>12</ele>
        <time>2018-02-17T09:09:25Z</time>
      </trkpt>
      <trkpt lat="51.691581001505256" lon="0.711112031713128">
        <ele>12</ele>
        <time>2018-02-17T09:09:26Z</time>
      </trkpt>
      <trkpt lat="51.691587958484888" lon="0.711143966764212">
        <ele>12</ele>
        <time>2018-02-17T09:09:27Z</time>
      </trkpt>
      <trkpt lat="51.691596005111933" lon="0.711171962320805">
        <ele>12</ele>
        <time>2018-02-17T09:09:28Z</time>
      </trkpt>
      <trkpt lat="51.691604973748326" lon="0.71120398119092">
        <ele>12</ele>
        <time>2018-02-17T09:09:29Z</time>
      </trkpt>
      <trkpt lat="51.69161100871861" lon="0.711236000061035">
        <ele>12</ele>
        <time>2018-02-17T09:09:30Z</time>
      </trkpt>
      <trkpt lat="51.691617965698242" lon="0.711270030587912">
        <ele>12</ele>
        <time>2018-02-17T09:09:31Z</time>
      </trkpt>
      <trkpt lat="51.691627018153667" lon="0.711300037801266">
        <ele>12</ele>
        <time>2018-02-17T09:09:32Z</time>
      </trkpt>
      <trkpt lat="51.691635986790061" lon="0.711335996165872">
        <ele>12</ele>
        <time>2018-02-17T09:09:33Z</time>
      </trkpt>
      <trkpt lat="51.691645039245486" lon="0.711370026692748">
        <ele>12</ele>
        <time>2018-02-17T09:09:34Z</time>
      </trkpt>
      <trkpt lat="51.69165501371026" lon="0.711404979228973">
        <ele>12</ele>
        <time>2018-02-17T09:09:35Z</time>
      </trkpt>
      <trkpt lat="51.691662976518273" lon="0.71144001558423">
        <ele>12</ele>
        <time>2018-02-17T09:09:36Z</time>
      </trkpt>
      <trkpt lat="51.691669011488557" lon="0.711473962292075">
        <ele>12</ele>
        <time>2018-02-17T09:09:37Z</time>
      </trkpt>
      <trkpt lat="51.69167697429657" lon="0.711512016132474">
        <ele>12</ele>
        <time>2018-02-17T09:09:38Z</time>
      </trkpt>
      <trkpt lat="51.691685020923615" lon="0.711546968668699">
        <ele>12</ele>
        <time>2018-02-17T09:09:39Z</time>
      </trkpt>
      <trkpt lat="51.691691977903247" lon="0.711583010852337">
        <ele>12</ele>
        <time>2018-02-17T09:09:40Z</time>
      </trkpt>
      <trkpt lat="51.691699018701911" lon="0.711617963388562">
        <ele>12</ele>
        <time>2018-02-17T09:09:41Z</time>
      </trkpt>
      <trkpt lat="51.691705975681543" lon="0.711651993915439">
        <ele>12</ele>
        <time>2018-02-17T09:09:42Z</time>
      </trkpt>
      <trkpt lat="51.691713016480207" lon="0.711685018613935">
        <ele>12</ele>
        <time>2018-02-17T09:09:43Z</time>
      </trkpt>
      <trkpt lat="51.691718967631459" lon="0.711717959493399">
        <ele>12</ele>
        <time>2018-02-17T09:09:44Z</time>
      </trkpt>
      <trkpt lat="51.691728020086884" lon="0.711751990020275">
        <ele>12</ele>
        <time>2018-02-17T09:09:45Z</time>
      </trkpt>
      <trkpt lat="51.691736988723278" lon="0.711788032203913">
        <ele>11.818186519788499</ele>
        <time>2018-02-17T09:09:46Z</time>
      </trkpt>
      <trkpt lat="51.691746041178703" lon="0.711823990568519">
        <ele>11</ele>
        <time>2018-02-17T09:09:47Z</time>
      </trkpt>
      <trkpt lat="51.691755009815097" lon="0.711860032752156">
        <ele>11</ele>
        <time>2018-02-17T09:09:48Z</time>
      </trkpt>
      <trkpt lat="51.691761966794729" lon="0.711895991116762">
        <ele>11</ele>
        <time>2018-02-17T09:09:49Z</time>
      </trkpt>
      <trkpt lat="51.691769007593393" lon="0.7119320333004">
        <ele>11</ele>
        <time>2018-02-17T09:09:50Z</time>
      </trkpt>
      <trkpt lat="51.691774036735296" lon="0.711963968351483">
        <ele>11</ele>
        <time>2018-02-17T09:09:51Z</time>
      </trkpt>
      <trkpt lat="51.691781999543309" lon="0.71199799887836">
        <ele>11</ele>
        <time>2018-02-17T09:09:52Z</time>
      </trkpt>
      <trkpt lat="51.691791974008083" lon="0.712030017748475">
        <ele>11</ele>
        <time>2018-02-17T09:09:53Z</time>
      </trkpt>
      <trkpt lat="51.691800020635128" lon="0.71206203661859">
        <ele>11</ele>
        <time>2018-02-17T09:09:54Z</time>
      </trkpt>
      <trkpt lat="51.691808989271522" lon="0.712095983326435">
        <ele>11.174421027564399</ele>
        <time>2018-02-17T09:09:55Z</time>
      </trkpt>
      <trkpt lat="51.691817035898566" lon="0.71212699636817">
        <ele>12</ele>
        <time>2018-02-17T09:09:56Z</time>
      </trkpt>
      <trkpt lat="51.69182600453496" lon="0.712161026895046">
        <ele>12</ele>
        <time>2018-02-17T09:09:57Z</time>
      </trkpt>
      <trkpt lat="51.691833967342973" lon="0.71219296194613">
        <ele>12</ele>
        <time>2018-02-17T09:09:58Z</time>
      </trkpt>
      <trkpt lat="51.691841008141637" lon="0.712227998301387">
        <ele>12</ele>
        <time>2018-02-17T09:09:59Z</time>
      </trkpt>
      <trkpt lat="51.691847965121269" lon="0.712265968322754">
        <ele>12</ele>
        <time>2018-02-17T09:10:00Z</time>
      </trkpt>
      <trkpt lat="51.691851988434792" lon="0.712302010506392">
        <ele>12</ele>
        <time>2018-02-17T09:10:01Z</time>
      </trkpt>
      <trkpt lat="51.691860035061836" lon="0.712337968870997">
        <ele>12</ele>
        <time>2018-02-17T09:10:02Z</time>
      </trkpt>
      <trkpt lat="51.691865986213088" lon="0.712370993569493">
        <ele>12</ele>
        <time>2018-02-17T09:10:03Z</time>
      </trkpt>
      <trkpt lat="51.69187000952661" lon="0.71240502409637">
        <ele>12</ele>
        <time>2018-02-17T09:10:04Z</time>
      </trkpt>
      <trkpt lat="51.691875960677862" lon="0.712439976632595">
        <ele>12</ele>
        <time>2018-02-17T09:10:05Z</time>
      </trkpt>
      <trkpt lat="51.691881995648146" lon="0.712474007159472">
        <ele>12</ele>
        <time>2018-02-17T09:10:06Z</time>
      </trkpt>
      <trkpt lat="51.691888030618429" lon="0.712507031857967">
        <ele>12</ele>
        <time>2018-02-17T09:10:07Z</time>
      </trkpt>
      <trkpt lat="51.691893981769681" lon="0.712539972737432">
        <ele>12</ele>
        <time>2018-02-17T09:10:08Z</time>
      </trkpt>
      <trkpt lat="51.691902028396726" lon="0.712572997435927">
        <ele>12</ele>
        <time>2018-02-17T09:10:09Z</time>
      </trkpt>
      <trkpt lat="51.691907979547977" lon="0.712606022134423">
        <ele>12</ele>
        <time>2018-02-17T09:10:10Z</time>
      </trkpt>
      <trkpt lat="51.691914014518261" lon="0.712641980499029">
        <ele>12</ele>
        <time>2018-02-17T09:10:11Z</time>
      </trkpt>
      <trkpt lat="51.691919965669513" lon="0.712679028511047">
        <ele>12</ele>
        <time>2018-02-17T09:10:12Z</time>
      </trkpt>
      <trkpt lat="51.691928012296557" lon="0.712712975218892">
        <ele>12</ele>
        <time>2018-02-17T09:10:13Z</time>
      </trkpt>
      <trkpt lat="51.691933963447809" lon="0.712748011574149">
        <ele>12</ele>
        <time>2018-02-17T09:10:14Z</time>
      </trkpt>
      <trkpt lat="51.691942010074854" lon="0.712780030444264">
        <ele>12</ele>
        <time>2018-02-17T09:10:15Z</time>
      </trkpt>
      <trkpt lat="51.691947961226106" lon="0.71281598880887">
        <ele>11.793474782608699</ele>
        <time>2018-02-17T09:10:16Z</time>
      </trkpt>
      <trkpt lat="51.691953996196389" lon="0.712850019335747">
        <ele>11</ele>
        <time>2018-02-17T09:10:17Z</time>
      </trkpt>
      <trkpt lat="51.691961959004402" lon="0.712881032377481">
        <ele>11.181813480211501</ele>
        <time>2018-02-17T09:10:18Z</time>
      </trkpt>
      <trkpt lat="51.691972017288208" lon="0.712913973256946">
        <ele>12</ele>
        <time>2018-02-17T09:10:19Z</time>
      </trkpt>
      <trkpt lat="51.691981991752982" lon="0.71294498629868">
        <ele>12</ele>
        <time>2018-02-17T09:10:20Z</time>
      </trkpt>
      <trkpt lat="51.691990038380027" lon="0.712979016825557">
        <ele>12</ele>
        <time>2018-02-17T09:10:21Z</time>
      </trkpt>
      <trkpt lat="51.691995989531279" lon="0.713013969361782">
        <ele>12</ele>
        <time>2018-02-17T09:10:22Z</time>
      </trkpt>
      <trkpt lat="51.692004036158323" lon="0.713049005717039">
        <ele>12</ele>
        <time>2018-02-17T09:10:23Z</time>
      </trkpt>
      <trkpt lat="51.692011998966336" lon="0.713083036243916">
        <ele>12</ele>
        <time>2018-02-17T09:10:24Z</time>
      </trkpt>
      <trkpt lat="51.69201803393662" lon="0.71311597712338">
        <ele>12</ele>
        <time>2018-02-17T09:10:25Z</time>
      </trkpt>
      <trkpt lat="51.692025996744633" lon="0.713147995993495">
        <ele>12</ele>
        <time>2018-02-17T09:10:26Z</time>
      </trkpt>
      <trkpt lat="51.692031025886536" lon="0.713178003206849">
        <ele>11.925008</ele>
        <time>2018-02-17T09:10:27Z</time>
      </trkpt>
      <trkpt lat="51.692035971209407" lon="0.713213961571455">
        <ele>11</ele>
        <time>2018-02-17T09:10:28Z</time>
      </trkpt>
      <trkpt lat="51.69204200617969" lon="0.713252015411854">
        <ele>11</ele>
        <time>2018-02-17T09:10:29Z</time>
      </trkpt>
      <trkpt lat="51.692048041149974" lon="0.71328797377646">
        <ele>11</ele>
        <time>2018-02-17T09:10:30Z</time>
      </trkpt>
      <trkpt lat="51.692057009786367" lon="0.713324015960097">
        <ele>11</ele>
        <time>2018-02-17T09:10:31Z</time>
      </trkpt>
      <trkpt lat="51.692065978422761" lon="0.713357962667942">
        <ele>11.3232312784444</ele>
        <time>2018-02-17T09:10:32Z</time>
      </trkpt>
      <trkpt lat="51.692074025049806" lon="0.71339501067996">
        <ele>12</ele>
        <time>2018-02-17T09:10:33Z</time>
      </trkpt>
      <trkpt lat="51.69208399951458" lon="0.713429963216186">
        <ele>12</ele>
        <time>2018-02-17T09:10:34Z</time>
      </trkpt>
      <trkpt lat="51.692092968150973" lon="0.713467011228204">
        <ele>12</ele>
        <time>2018-02-17T09:10:35Z</time>
      </trkpt>
      <trkpt lat="51.692100008949637" lon="0.713501963764429">
        <ele>12</ele>
        <time>2018-02-17T09:10:36Z</time>
      </trkpt>
      <trkpt lat="51.69210797175765" lon="0.713539011776447">
        <ele>12</ele>
        <time>2018-02-17T09:10:37Z</time>
      </trkpt>
      <trkpt lat="51.692113000899553" lon="0.713575975969434">
        <ele>12</ele>
        <time>2018-02-17T09:10:38Z</time>
      </trkpt>
      <trkpt lat="51.692121969535947" lon="0.71361000649631">
        <ele>12</ele>
        <time>2018-02-17T09:10:39Z</time>
      </trkpt>
      <trkpt lat="51.692130016162992" lon="0.713643031194806">
        <ele>11.820004096052401</ele>
        <time>2018-02-17T09:10:40Z</time>
      </trkpt>
      <trkpt lat="51.692137978971004" lon="0.71367496624589">
        <ele>11</ele>
        <time>2018-02-17T09:10:41Z</time>
      </trkpt>
      <trkpt lat="51.692145019769669" lon="0.713711008429527">
        <ele>11.1953979019847</ele>
        <time>2018-02-17T09:10:42Z</time>
      </trkpt>
      <trkpt lat="51.69215097092092" lon="0.713745960965753">
        <ele>12</ele>
        <time>2018-02-17T09:10:43Z</time>
      </trkpt>
      <trkpt lat="51.692158011719584" lon="0.713779991492629">
        <ele>12</ele>
        <time>2018-02-17T09:10:44Z</time>
      </trkpt>
      <trkpt lat="51.692163962870836" lon="0.713811004534364">
        <ele>12</ele>
        <time>2018-02-17T09:10:45Z</time>
      </trkpt>
      <trkpt lat="51.692173015326262" lon="0.713843023404479">
        <ele>12</ele>
        <time>2018-02-17T09:10:46Z</time>
      </trkpt>
      <trkpt lat="51.692183995619416" lon="0.713876970112324">
        <ele>12</ele>
        <time>2018-02-17T09:10:47Z</time>
      </trkpt>
      <trkpt lat="51.692191958427429" lon="0.7139110006392">
        <ele>11.801979570628299</ele>
        <time>2018-02-17T09:10:48Z</time>
      </trkpt>
      <trkpt lat="51.692197993397713" lon="0.713945031166077">
        <ele>11</ele>
        <time>2018-02-17T09:10:49Z</time>
      </trkpt>
      <trkpt lat="51.692204028367996" lon="0.713978977873921">
        <ele>11.257420221529401</ele>
        <time>2018-02-17T09:10:50Z</time>
      </trkpt>
      <trkpt lat="51.692209979519248" lon="0.714015020057559">
        <ele>12</ele>
        <time>2018-02-17T09:10:51Z</time>
      </trkpt>
      <trkpt lat="51.692216014489532" lon="0.714052990078926">
        <ele>12</ele>
        <time>2018-02-17T09:10:52Z</time>
      </trkpt>
      <trkpt lat="51.692225988954306" lon="0.714089032262564">
        <ele>12</ele>
        <time>2018-02-17T09:10:53Z</time>
      </trkpt>
      <trkpt lat="51.69223403558135" lon="0.71412599645555">
        <ele>12</ele>
        <time>2018-02-17T09:10:54Z</time>
      </trkpt>
      <trkpt lat="51.692241998389363" lon="0.714160026982427">
        <ele>12</ele>
        <time>2018-02-17T09:10:55Z</time>
      </trkpt>
      <trkpt lat="51.692249961197376" lon="0.714197997003794">
        <ele>12</ele>
        <time>2018-02-17T09:10:56Z</time>
      </trkpt>
      <trkpt lat="51.692254990339279" lon="0.71423496119678">
        <ele>12</ele>
        <time>2018-02-17T09:10:57Z</time>
      </trkpt>
      <trkpt lat="51.692262031137943" lon="0.714268991723657">
        <ele>12</ele>
        <time>2018-02-17T09:10:58Z</time>
      </trkpt>
      <trkpt lat="51.692268988117576" lon="0.714305033907294">
        <ele>12</ele>
        <time>2018-02-17T09:10:59Z</time>
      </trkpt>
      <trkpt lat="51.69227602891624" lon="0.714336968958378">
        <ele>12</ele>
        <time>2018-02-17T09:11:00Z</time>
      </trkpt>
      <trkpt lat="51.692282985895872" lon="0.714370999485254">
        <ele>11.6700032</ele>
        <time>2018-02-17T09:11:01Z</time>
      </trkpt>
      <trkpt lat="51.692291032522917" lon="0.71440402418375">
        <ele>11</ele>
        <time>2018-02-17T09:11:02Z</time>
      </trkpt>
      <trkpt lat="51.69229899533093" lon="0.714437970891595">
        <ele>11</ele>
        <time>2018-02-17T09:11:03Z</time>
      </trkpt>
      <trkpt lat="51.692306958138943" lon="0.714472001418471">
        <ele>11</ele>
        <time>2018-02-17T09:11:04Z</time>
      </trkpt>
      <trkpt lat="51.692313998937607" lon="0.714507959783077">
        <ele>11</ele>
        <time>2018-02-17T09:11:05Z</time>
      </trkpt>
      <trkpt lat="51.692322967574" lon="0.714546013623476">
        <ele>11</ele>
        <time>2018-02-17T09:11:06Z</time>
      </trkpt>
      <trkpt lat="51.692326990887523" lon="0.714581971988082">
        <ele>11</ele>
        <time>2018-02-17T09:11:07Z</time>
      </trkpt>
      <trkpt lat="51.692332020029426" lon="0.714617008343339">
        <ele>11</ele>
        <time>2018-02-17T09:11:08Z</time>
      </trkpt>
      <trkpt lat="51.692338977009058" lon="0.714649027213454">
        <ele>11</ele>
        <time>2018-02-17T09:11:09Z</time>
      </trkpt>
      <trkpt lat="51.692345011979342" lon="0.71468397974968">
        <ele>11</ele>
        <time>2018-02-17T09:11:10Z</time>
      </trkpt>
      <trkpt lat="51.692353980615735" lon="0.714717004448175">
        <ele>11</ele>
        <time>2018-02-17T09:11:11Z</time>
      </trkpt>
      <trkpt lat="51.69236202724278" lon="0.714750029146671">
        <ele>11</ele>
        <time>2018-02-17T09:11:12Z</time>
      </trkpt>
      <trkpt lat="51.692370995879173" lon="0.714785987511277">
        <ele>11</ele>
        <time>2018-02-17T09:11:13Z</time>
      </trkpt>
      <trkpt lat="51.692378036677837" lon="0.714819012209773">
        <ele>11</ele>
        <time>2018-02-17T09:11:14Z</time>
      </trkpt>
      <trkpt lat="51.69238499365747" lon="0.714852958917618">
        <ele>11</ele>
        <time>2018-02-17T09:11:15Z</time>
      </trkpt>
      <trkpt lat="51.692393962293863" lon="0.714883971959352">
        <ele>11</ele>
        <time>2018-02-17T09:11:16Z</time>
      </trkpt>
      <trkpt lat="51.692402008920908" lon="0.714915990829468">
        <ele>11</ele>
        <time>2018-02-17T09:11:17Z</time>
      </trkpt>
      <trkpt lat="51.69240896590054" lon="0.714949015527964">
        <ele>11</ele>
        <time>2018-02-17T09:11:18Z</time>
      </trkpt>
      <trkpt lat="51.692417012527585" lon="0.714982962235808">
        <ele>11</ele>
        <time>2018-02-17T09:11:19Z</time>
      </trkpt>
      <trkpt lat="51.692426986992359" lon="0.715017998591065">
        <ele>11</ele>
        <time>2018-02-17T09:11:20Z</time>
      </trkpt>
      <trkpt lat="51.692435033619404" lon="0.715051023289561">
        <ele>11</ele>
        <time>2018-02-17T09:11:21Z</time>
      </trkpt>
      <trkpt lat="51.692441990599036" lon="0.715086981654167">
        <ele>11</ele>
        <time>2018-02-17T09:11:22Z</time>
      </trkpt>
      <trkpt lat="51.692450037226081" lon="0.715122018009424">
        <ele>11</ele>
        <time>2018-02-17T09:11:23Z</time>
      </trkpt>
      <trkpt lat="51.692455988377333" lon="0.71515697054565">
        <ele>11</ele>
        <time>2018-02-17T09:11:24Z</time>
      </trkpt>
      <trkpt lat="51.692463029175997" lon="0.715189995244145">
        <ele>11</ele>
        <time>2018-02-17T09:11:25Z</time>
      </trkpt>
      <trkpt lat="51.692469986155629" lon="0.715223019942641">
        <ele>11</ele>
        <time>2018-02-17T09:11:26Z</time>
      </trkpt>
      <trkpt lat="51.692476021125913" lon="0.715255960822105">
        <ele>11</ele>
        <time>2018-02-17T09:11:27Z</time>
      </trkpt>
      <trkpt lat="51.692483983933926" lon="0.71528697386384">
        <ele>11</ele>
        <time>2018-02-17T09:11:28Z</time>
      </trkpt>
      <trkpt lat="51.692488007247448" lon="0.715321004390717">
        <ele>11</ele>
        <time>2018-02-17T09:11:29Z</time>
      </trkpt>
      <trkpt lat="51.69249496422708" lon="0.715356040745974">
        <ele>11</ele>
        <time>2018-02-17T09:11:30Z</time>
      </trkpt>
      <trkpt lat="51.692500999197364" lon="0.715390993282199">
        <ele>11</ele>
        <time>2018-02-17T09:11:31Z</time>
      </trkpt>
      <trkpt lat="51.692505022510886" lon="0.715428963303566">
        <ele>11</ele>
        <time>2018-02-17T09:11:32Z</time>
      </trkpt>
      <trkpt lat="51.692509967833757" lon="0.715467017143965">
        <ele>11</ele>
        <time>2018-02-17T09:11:33Z</time>
      </trkpt>
      <trkpt lat="51.692508962005377" lon="0.715505992993712">
        <ele>11</ele>
        <time>2018-02-17T09:11:34Z</time>
      </trkpt>
      <trkpt lat="51.692508039996028" lon="0.71554396301508">
        <ele>11</ele>
        <time>2018-02-17T09:11:35Z</time>
      </trkpt>
      <trkpt lat="51.692502005025744" lon="0.715584028512239">
        <ele>11</ele>
        <time>2018-02-17T09:11:36Z</time>
      </trkpt>
      <trkpt lat="51.692495970055461" lon="0.715621998533607">
        <ele>11</ele>
        <time>2018-02-17T09:11:37Z</time>
      </trkpt>
      <trkpt lat="51.692489013075829" lon="0.715657034888864">
        <ele>11</ele>
        <time>2018-02-17T09:11:38Z</time>
      </trkpt>
      <trkpt lat="51.692477026954293" lon="0.715689975768328">
        <ele>11</ele>
        <time>2018-02-17T09:11:39Z</time>
      </trkpt>
      <trkpt lat="51.692465962842107" lon="0.715720988810062">
        <ele>10</ele>
        <time>2018-02-17T09:11:40Z</time>
      </trkpt>
      <trkpt lat="51.69245196506381" lon="0.715750996023417">
        <ele>10.1699968</ele>
        <time>2018-02-17T09:11:41Z</time>
      </trkpt>
      <trkpt lat="51.692436961457133" lon="0.715777985751629">
        <ele>11</ele>
        <time>2018-02-17T09:11:42Z</time>
      </trkpt>
      <trkpt lat="51.692422041669488" lon="0.71580296382308">
        <ele>11</ele>
        <time>2018-02-17T09:11:43Z</time>
      </trkpt>
      <trkpt lat="51.692403014749289" lon="0.715825008228421">
        <ele>11</ele>
        <time>2018-02-17T09:11:44Z</time>
      </trkpt>
      <trkpt lat="51.692383987829089" lon="0.715848980471492">
        <ele>11</ele>
        <time>2018-02-17T09:11:45Z</time>
      </trkpt>
      <trkpt lat="51.69236496090889" lon="0.715873958542943">
        <ele>11</ele>
        <time>2018-02-17T09:11:46Z</time>
      </trkpt>
      <trkpt lat="51.692345011979342" lon="0.715898014605045">
        <ele>11</ele>
        <time>2018-02-17T09:11:47Z</time>
      </trkpt>
      <trkpt lat="51.692322967574" lon="0.715920981019735">
        <ele>11</ele>
        <time>2018-02-17T09:11:48Z</time>
      </trkpt>
      <trkpt lat="51.692303018644452" lon="0.715941013768315">
        <ele>11</ele>
        <time>2018-02-17T09:11:49Z</time>
      </trkpt>
      <trkpt lat="51.692280974239111" lon="0.715961968526244">
        <ele>11</ele>
        <time>2018-02-17T09:11:50Z</time>
      </trkpt>
      <trkpt lat="51.692261025309563" lon="0.715978983789682">
        <ele>11</ele>
        <time>2018-02-17T09:11:51Z</time>
      </trkpt>
      <trkpt lat="51.692239986732602" lon="0.715999016538262">
        <ele>11</ele>
        <time>2018-02-17T09:11:52Z</time>
      </trkpt>
      <trkpt lat="51.692220037803054" lon="0.716017037630081">
        <ele>11</ele>
        <time>2018-02-17T09:11:53Z</time>
      </trkpt>
      <trkpt lat="51.692197993397713" lon="0.716036986559629">
        <ele>11</ele>
        <time>2018-02-17T09:11:54Z</time>
      </trkpt>
      <trkpt lat="51.692177038639784" lon="0.716056013479829">
        <ele>11</ele>
        <time>2018-02-17T09:11:55Z</time>
      </trkpt>
      <trkpt lat="51.692156000062823" lon="0.716074034571648">
        <ele>11</ele>
        <time>2018-02-17T09:11:56Z</time>
      </trkpt>
      <trkpt lat="51.692133033648133" lon="0.716091971844435">
        <ele>11</ele>
        <time>2018-02-17T09:11:57Z</time>
      </trkpt>
      <trkpt lat="51.692110989242792" lon="0.716109992936254">
        <ele>11</ele>
        <time>2018-02-17T09:11:58Z</time>
      </trkpt>
      <trkpt lat="51.692088022828102" lon="0.716129019856453">
        <ele>11</ele>
        <time>2018-02-17T09:11:59Z</time>
      </trkpt>
      <trkpt lat="51.692065978422761" lon="0.716149974614382">
        <ele>11</ele>
        <time>2018-02-17T09:12:00Z</time>
      </trkpt>
      <trkpt lat="51.692044017836452" lon="0.716167995706201">
        <ele>11</ele>
        <time>2018-02-17T09:12:01Z</time>
      </trkpt>
      <trkpt lat="51.692022979259491" lon="0.716186016798019">
        <ele>11</ele>
        <time>2018-02-17T09:12:02Z</time>
      </trkpt>
      <trkpt lat="51.692003030329943" lon="0.716204959899187">
        <ele>11</ele>
        <time>2018-02-17T09:12:03Z</time>
      </trkpt>
      <trkpt lat="51.691984003409743" lon="0.716222980991006">
        <ele>11</ele>
        <time>2018-02-17T09:12:04Z</time>
      </trkpt>
      <trkpt lat="51.691962964832783" lon="0.716242007911205">
        <ele>10.7528152910213</ele>
        <time>2018-02-17T09:12:05Z</time>
      </trkpt>
      <trkpt lat="51.691939998418093" lon="0.716262962669134">
        <ele>10</ele>
        <time>2018-02-17T09:12:06Z</time>
      </trkpt>
      <trkpt lat="51.691920971497893" lon="0.716282995417714">
        <ele>10</ele>
        <time>2018-02-17T09:12:07Z</time>
      </trkpt>
      <trkpt lat="51.691901022568345" lon="0.716302022337914">
        <ele>10</ele>
        <time>2018-02-17T09:12:08Z</time>
      </trkpt>
      <trkpt lat="51.691879983991385" lon="0.716319959610701">
        <ele>10</ele>
        <time>2018-02-17T09:12:09Z</time>
      </trkpt>
      <trkpt lat="51.691858023405075" lon="0.7163389865309">
        <ele>10</ele>
        <time>2018-02-17T09:12:10Z</time>
      </trkpt>
      <trkpt lat="51.691837990656495" lon="0.716356001794338">
        <ele>10</ele>
        <time>2018-02-17T09:12:11Z</time>
      </trkpt>
      <trkpt lat="51.691815024241805" lon="0.716374022886157">
        <ele>10</ele>
        <time>2018-02-17T09:12:12Z</time>
      </trkpt>
      <trkpt lat="51.691792979836464" lon="0.716391038149595">
        <ele>10</ele>
        <time>2018-02-17T09:12:13Z</time>
      </trkpt>
      <trkpt lat="51.691770013421774" lon="0.716408975422382">
        <ele>10</ele>
        <time>2018-02-17T09:12:14Z</time>
      </trkpt>
      <trkpt lat="51.691747969016433" lon="0.716425990685821">
        <ele>10</ele>
        <time>2018-02-17T09:12:15Z</time>
      </trkpt>
      <trkpt lat="51.691725002601743" lon="0.716444011777639">
        <ele>10</ele>
        <time>2018-02-17T09:12:16Z</time>
      </trkpt>
      <trkpt lat="51.691702958196402" lon="0.716463960707188">
        <ele>10</ele>
        <time>2018-02-17T09:12:17Z</time>
      </trkpt>
      <trkpt lat="51.691682003438473" lon="0.716483993455768">
        <ele>10</ele>
        <time>2018-02-17T09:12:18Z</time>
      </trkpt>
      <trkpt lat="51.691662976518273" lon="0.716506037861109">
        <ele>10</ele>
        <time>2018-02-17T09:12:19Z</time>
      </trkpt>
      <trkpt lat="51.691645039245486" lon="0.716530010104179">
        <ele>10</ele>
        <time>2018-02-17T09:12:20Z</time>
      </trkpt>
      <trkpt lat="51.691626012325287" lon="0.716555994004011">
        <ele>10</ele>
        <time>2018-02-17T09:12:21Z</time>
      </trkpt>
      <trkpt lat="51.691607991233468" lon="0.716583989560604">
        <ele>10</ele>
        <time>2018-02-17T09:12:22Z</time>
      </trkpt>
      <trkpt lat="51.69159097597003" lon="0.716611985117197">
        <ele>10</ele>
        <time>2018-02-17T09:12:23Z</time>
      </trkpt>
      <trkpt lat="51.691577984020114" lon="0.716638974845409">
        <ele>10</ele>
        <time>2018-02-17T09:12:24Z</time>
      </trkpt>
      <trkpt lat="51.691563986241817" lon="0.716671999543905">
        <ele>10</ele>
        <time>2018-02-17T09:12:25Z</time>
      </trkpt>
      <trkpt lat="51.691549988463521" lon="0.716704018414021">
        <ele>10</ele>
        <time>2018-02-17T09:12:26Z</time>
      </trkpt>
      <trkpt lat="51.691534984856844" lon="0.716736037284136">
        <ele>10</ele>
        <time>2018-02-17T09:12:27Z</time>
      </trkpt>
      <trkpt lat="51.691520987078547" lon="0.7167689781636">
        <ele>10</ele>
        <time>2018-02-17T09:12:28Z</time>
      </trkpt>
      <trkpt lat="51.691509000957012" lon="0.716804014518857">
        <ele>10</ele>
        <time>2018-02-17T09:12:29Z</time>
      </trkpt>
      <trkpt lat="51.691498020663857" lon="0.716836033388972">
        <ele>10</ele>
        <time>2018-02-17T09:12:30Z</time>
      </trkpt>
      <trkpt lat="51.691488968208432" lon="0.716867968440056">
        <ele>10</ele>
        <time>2018-02-17T09:12:31Z</time>
      </trkpt>
      <trkpt lat="51.691474970430136" lon="0.71689797565341">
        <ele>10</ele>
        <time>2018-02-17T09:12:32Z</time>
      </trkpt>
      <trkpt lat="51.691456027328968" lon="0.716927982866764">
        <ele>10</ele>
        <time>2018-02-17T09:12:33Z</time>
      </trkpt>
      <trkpt lat="51.691434988752007" lon="0.716952960938215">
        <ele>10</ele>
        <time>2018-02-17T09:12:34Z</time>
      </trkpt>
      <trkpt lat="51.691415039822459" lon="0.716972993686795">
        <ele>10</ele>
        <time>2018-02-17T09:12:35Z</time>
      </trkpt>
      <trkpt lat="51.691392995417118" lon="0.716991014778614">
        <ele>10</ele>
        <time>2018-02-17T09:12:36Z</time>
      </trkpt>
      <trkpt lat="51.691372040659189" lon="0.717006018385291">
        <ele>10</ele>
        <time>2018-02-17T09:12:37Z</time>
      </trkpt>
      <trkpt lat="51.691347984597087" lon="0.717015992850065">
        <ele>9.693873019604769</ele>
        <time>2018-02-17T09:12:38Z</time>
      </trkpt>
      <trkpt lat="51.691323006525636" lon="0.717021021991968">
        <ele>9</ele>
        <time>2018-02-17T09:12:39Z</time>
      </trkpt>
      <trkpt lat="51.691301967948675" lon="0.717028984799981">
        <ele>9</ele>
        <time>2018-02-17T09:12:40Z</time>
      </trkpt>
      <trkpt lat="51.691280007362366" lon="0.717040970921516">
        <ele>9</ele>
        <time>2018-02-17T09:12:41Z</time>
      </trkpt>
      <trkpt lat="51.691256035119295" lon="0.717054968699813">
        <ele>9</ele>
        <time>2018-02-17T09:12:42Z</time>
      </trkpt>
      <trkpt lat="51.691233990713954" lon="0.717066032811999">
        <ele>9</ele>
        <time>2018-02-17T09:12:43Z</time>
      </trkpt>
      <trkpt lat="51.691213035956025" lon="0.717078018933535">
        <ele>9</ele>
        <time>2018-02-17T09:12:44Z</time>
      </trkpt>
      <trkpt lat="51.691194009035826" lon="0.717094028368592">
        <ele>9</ele>
        <time>2018-02-17T09:12:45Z</time>
      </trkpt>
      <trkpt lat="51.691173976287246" lon="0.717114983126521">
        <ele>8.86821920798563</ele>
        <time>2018-02-17T09:12:46Z</time>
      </trkpt>
      <trkpt lat="51.691156961023808" lon="0.717136021703482">
        <ele>8.093023486569891</ele>
        <time>2018-02-17T09:12:47Z</time>
      </trkpt>
      <trkpt lat="51.69113902375102" lon="0.717153958976269">
        <ele>8</ele>
        <time>2018-02-17T09:12:48Z</time>
      </trkpt>
      <trkpt lat="51.691121002659202" lon="0.717173991724849">
        <ele>8</ele>
        <time>2018-02-17T09:12:49Z</time>
      </trkpt>
      <trkpt lat="51.691101975739002" lon="0.717217996716499">
        <ele>8</ele>
        <time>2018-02-17T09:12:51Z</time>
      </trkpt>
      <trkpt lat="51.691097030416131" lon="0.717274993658066">
        <ele>8</ele>
        <time>2018-02-17T09:12:53Z</time>
      </trkpt>
      <trkpt lat="51.691094012930989" lon="0.7173060066998">
        <ele>8</ele>
        <time>2018-02-17T09:12:54Z</time>
      </trkpt>
      <trkpt lat="51.691087977960706" lon="0.717336013913155">
        <ele>8</ele>
        <time>2018-02-17T09:12:55Z</time>
      </trkpt>
      <trkpt lat="51.691082026809454" lon="0.71736903861165">
        <ele>8</ele>
        <time>2018-02-17T09:12:56Z</time>
      </trkpt>
      <trkpt lat="51.691079009324312" lon="0.717399967834353">
        <ele>8</ele>
        <time>2018-02-17T09:12:57Z</time>
      </trkpt>
      <trkpt lat="51.691080015152693" lon="0.717429975047708">
        <ele>8</ele>
        <time>2018-02-17T09:12:58Z</time>
      </trkpt>
      <trkpt lat="51.691086972132325" lon="0.717488983646035">
        <ele>8</ele>
        <time>2018-02-17T09:13:00Z</time>
      </trkpt>
      <trkpt lat="51.691094012930989" lon="0.717516979202628">
        <ele>8</ele>
        <time>2018-02-17T09:13:01Z</time>
      </trkpt>
      <trkpt lat="51.69109895825386" lon="0.717544974759221">
        <ele>8</ele>
        <time>2018-02-17T09:13:02Z</time>
      </trkpt>
      <trkpt lat="51.691104993224144" lon="0.717573976144195">
        <ele>7.73999692803932</ele>
        <time>2018-02-17T09:13:03Z</time>
      </trkpt>
      <trkpt lat="51.691113039851189" lon="0.717600965872407">
        <ele>7</ele>
        <time>2018-02-17T09:13:04Z</time>
      </trkpt>
      <trkpt lat="51.69111899100244" lon="0.717628961429">
        <ele>7.20212968762766</ele>
        <time>2018-02-17T09:13:05Z</time>
      </trkpt>
      <trkpt lat="51.691122008487582" lon="0.717662991955876">
        <ele>8</ele>
        <time>2018-02-17T09:13:06Z</time>
      </trkpt>
      <trkpt lat="51.691126031801105" lon="0.717697022482753">
        <ele>8</ele>
        <time>2018-02-17T09:13:07Z</time>
      </trkpt>
      <trkpt lat="51.691127037629485" lon="0.71773499250412">
        <ele>8</ele>
        <time>2018-02-17T09:13:08Z</time>
      </trkpt>
      <trkpt lat="51.691128965467215" lon="0.717771034687757">
        <ele>8</ele>
        <time>2018-02-17T09:13:09Z</time>
      </trkpt>
      <trkpt lat="51.691135000437498" lon="0.717800036072731">
        <ele>8</ele>
        <time>2018-02-17T09:13:10Z</time>
      </trkpt>
      <trkpt lat="51.691152015700936" lon="0.717846974730492">
        <ele>8</ele>
        <time>2018-02-17T09:13:12Z</time>
      </trkpt>
      <trkpt lat="51.691159978508949" lon="0.717872958630323">
        <ele>8</ele>
        <time>2018-02-17T09:13:13Z</time>
      </trkpt>
      <trkpt lat="51.691169030964375" lon="0.717898020520806">
        <ele>8</ele>
        <time>2018-02-17T09:13:14Z</time>
      </trkpt>
      <trkpt lat="51.691179005429149" lon="0.717943031340837">
        <ele>8</ele>
        <time>2018-02-17T09:13:16Z</time>
      </trkpt>
      <trkpt lat="51.691185040399432" lon="0.71797102689743">
        <ele>8</ele>
        <time>2018-02-17T09:13:18Z</time>
      </trkpt>
      <trkpt lat="51.691193003207445" lon="0.718000028282404">
        <ele>8.160490510579789</ele>
        <time>2018-02-17T09:13:20Z</time>
      </trkpt>
      <trkpt lat="51.691200966015458" lon="0.718026012182236">
        <ele>9</ele>
        <time>2018-02-17T09:13:30Z</time>
      </trkpt>
      <trkpt lat="51.691199960187078" lon="0.718058031052351">
        <ele>9</ele>
        <time>2018-02-17T09:13:38Z</time>
      </trkpt>
      <trkpt lat="51.6912039835006" lon="0.718087032437325">
        <ele>9</ele>
        <time>2018-02-17T09:13:41Z</time>
      </trkpt>
      <trkpt lat="51.691228961572051" lon="0.718201026320457">
        <ele>9</ele>
        <time>2018-02-17T09:14:02Z</time>
      </trkpt>
      <trkpt lat="51.691205995157361" lon="0.71805601939559">
        <ele>8.781066567700011</ele>
        <time>2018-02-17T09:14:48Z</time>
      </trkpt>
      <trkpt lat="51.691172970458865" lon="0.718019977211952">
        <ele>9</ele>
        <time>2018-02-17T09:15:21Z</time>
      </trkpt>
      <trkpt lat="51.691156039014459" lon="0.718006985262036">
        <ele>9</ele>
        <time>2018-02-17T09:15:25Z</time>
      </trkpt>
      <trkpt lat="51.691179005429149" lon="0.718015031889081">
        <ele>8.90434530964783</ele>
        <time>2018-02-17T09:15:38Z</time>
      </trkpt>
      <trkpt lat="51.6912039835006" lon="0.718021988868713">
        <ele>8</ele>
        <time>2018-02-17T09:15:40Z</time>
      </trkpt>
      <trkpt lat="51.691220998764038" lon="0.718040009960532">
        <ele>8</ele>
        <time>2018-02-17T09:15:42Z</time>
      </trkpt>
      <trkpt lat="51.691239019855857" lon="0.718046966940165">
        <ele>8</ele>
        <time>2018-02-17T09:15:45Z</time>
      </trkpt>
      <trkpt lat="51.691253017634153" lon="0.71805995889008">
        <ele>9</ele>
        <time>2018-02-17T09:15:52Z</time>
      </trkpt>
      <trkpt lat="51.691274978220463" lon="0.718082003295422">
        <ele>9</ele>
        <time>2018-02-17T09:15:59Z</time>
      </trkpt>
      <trkpt lat="51.691279001533985" lon="0.718117039650679">
        <ele>9</ele>
        <time>2018-02-17T09:16:02Z</time>
      </trkpt>
      <trkpt lat="51.691287970170379" lon="0.718156015500426">
        <ele>9</ele>
        <time>2018-02-17T09:16:05Z</time>
      </trkpt>
      <trkpt lat="51.691296016797423" lon="0.718187028542161">
        <ele>9</ele>
        <time>2018-02-17T09:16:07Z</time>
      </trkpt>
      <trkpt lat="51.691301967948675" lon="0.718223992735147">
        <ele>9</ele>
        <time>2018-02-17T09:16:09Z</time>
      </trkpt>
      <trkpt lat="51.691303979605436" lon="0.718260034918785">
        <ele>10</ele>
        <time>2018-02-17T09:16:11Z</time>
      </trkpt>
      <trkpt lat="51.691308002918959" lon="0.71829398162663">
        <ele>10</ele>
        <time>2018-02-17T09:16:13Z</time>
      </trkpt>
      <trkpt lat="51.69131001457572" lon="0.718324994668365">
        <ele>9.80219146482122</ele>
        <time>2018-02-17T09:16:15Z</time>
      </trkpt>
      <trkpt lat="51.691301967948675" lon="0.718362964689732">
        <ele>9</ele>
        <time>2018-02-17T09:16:17Z</time>
      </trkpt>
      <trkpt lat="51.691296016797423" lon="0.718393977731466">
        <ele>9</ele>
        <time>2018-02-17T09:16:19Z</time>
      </trkpt>
      <trkpt lat="51.691295010969043" lon="0.71842398494482">
        <ele>9</ele>
        <time>2018-02-17T09:16:21Z</time>
      </trkpt>
      <trkpt lat="51.691300040110946" lon="0.718457009643316">
        <ele>10</ele>
        <time>2018-02-17T09:16:23Z</time>
      </trkpt>
      <trkpt lat="51.691303979605436" lon="0.71848601102829">
        <ele>11</ele>
        <time>2018-02-17T09:16:25Z</time>
      </trkpt>
      <trkpt lat="51.691308002918959" lon="0.718515012413263">
        <ele>11</ele>
        <time>2018-02-17T09:16:27Z</time>
      </trkpt>
      <trkpt lat="51.691314037889242" lon="0.718546025454998">
        <ele>11</ele>
        <time>2018-02-17T09:16:29Z</time>
      </trkpt>
      <trkpt lat="51.691317977383733" lon="0.718578966334462">
        <ele>10.8181759412495</ele>
        <time>2018-02-17T09:16:31Z</time>
      </trkpt>
      <trkpt lat="51.691324012354016" lon="0.718610985204577">
        <ele>10</ele>
        <time>2018-02-17T09:16:33Z</time>
      </trkpt>
      <trkpt lat="51.691326024010777" lon="0.718640992417932">
        <ele>8.90163882826926</ele>
        <time>2018-02-17T09:16:37Z</time>
      </trkpt>
      <trkpt lat="51.691325018182397" lon="0.718666976317763">
        <ele>8</ele>
        <time>2018-02-17T09:16:40Z</time>
      </trkpt>
      <trkpt lat="51.691318983212113" lon="0.718707041814923">
        <ele>8</ele>
        <time>2018-02-17T09:16:44Z</time>
      </trkpt>
      <trkpt lat="51.691323006525636" lon="0.718736965209246">
        <ele>8</ele>
        <time>2018-02-17T09:16:46Z</time>
      </trkpt>
      <trkpt lat="51.691328035667539" lon="0.718769989907742">
        <ele>8</ele>
        <time>2018-02-17T09:16:48Z</time>
      </trkpt>
      <trkpt lat="51.691331975162029" lon="0.718805026262999">
        <ele>8</ele>
        <time>2018-02-17T09:16:50Z</time>
      </trkpt>
      <trkpt lat="51.691338010132313" lon="0.718851964920759">
        <ele>8</ele>
        <time>2018-02-17T09:16:52Z</time>
      </trkpt>
      <trkpt lat="51.691343039274216" lon="0.718884989619255">
        <ele>8</ele>
        <time>2018-02-17T09:16:53Z</time>
      </trkpt>
      <trkpt lat="51.691351002082229" lon="0.718919020146132">
        <ele>8</ele>
        <time>2018-02-17T09:16:54Z</time>
      </trkpt>
      <trkpt lat="51.691357959061861" lon="0.718953972682357">
        <ele>8</ele>
        <time>2018-02-17T09:16:55Z</time>
      </trkpt>
      <trkpt lat="51.691363994032145" lon="0.718990014865994">
        <ele>8</ele>
        <time>2018-02-17T09:16:56Z</time>
      </trkpt>
      <trkpt lat="51.691371034830809" lon="0.71902303956449">
        <ele>8</ele>
        <time>2018-02-17T09:16:57Z</time>
      </trkpt>
      <trkpt lat="51.691378997638822" lon="0.719054974615574">
        <ele>8</ele>
        <time>2018-02-17T09:16:58Z</time>
      </trkpt>
      <trkpt lat="51.691389977931976" lon="0.719091016799212">
        <ele>8</ele>
        <time>2018-02-17T09:16:59Z</time>
      </trkpt>
      <trkpt lat="51.691400958225131" lon="0.719128986820579">
        <ele>8</ele>
        <time>2018-02-17T09:17:00Z</time>
      </trkpt>
      <trkpt lat="51.691409004852176" lon="0.719164023175836">
        <ele>8</ele>
        <time>2018-02-17T09:17:01Z</time>
      </trkpt>
      <trkpt lat="51.691416967660189" lon="0.719201993197203">
        <ele>8</ele>
        <time>2018-02-17T09:17:02Z</time>
      </trkpt>
      <trkpt lat="51.691423002630472" lon="0.71924096904695">
        <ele>8</ele>
        <time>2018-02-17T09:17:03Z</time>
      </trkpt>
      <trkpt lat="51.691426020115614" lon="0.719277011230588">
        <ele>8</ele>
        <time>2018-02-17T09:17:04Z</time>
      </trkpt>
      <trkpt lat="51.691428031772375" lon="0.719313975423574">
        <ele>8</ele>
        <time>2018-02-17T09:17:05Z</time>
      </trkpt>
      <trkpt lat="51.691431971266866" lon="0.719348005950451">
        <ele>8</ele>
        <time>2018-02-17T09:17:06Z</time>
      </trkpt>
      <trkpt lat="51.691437000408769" lon="0.719384970143437">
        <ele>8</ele>
        <time>2018-02-17T09:17:07Z</time>
      </trkpt>
      <trkpt lat="51.691443035379052" lon="0.719419000670314">
        <ele>8</ele>
        <time>2018-02-17T09:17:08Z</time>
      </trkpt>
      <trkpt lat="51.691448986530304" lon="0.71945202536881">
        <ele>8</ele>
        <time>2018-02-17T09:17:09Z</time>
      </trkpt>
      <trkpt lat="51.691454015672207" lon="0.719488989561796">
        <ele>8</ele>
        <time>2018-02-17T09:17:10Z</time>
      </trkpt>
      <trkpt lat="51.691460972651839" lon="0.719522014260292">
        <ele>8</ele>
        <time>2018-02-17T09:17:11Z</time>
      </trkpt>
      <trkpt lat="51.691468013450503" lon="0.719553027302027">
        <ele>8</ele>
        <time>2018-02-17T09:17:12Z</time>
      </trkpt>
      <trkpt lat="51.691474970430136" lon="0.719585968181491">
        <ele>8</ele>
        <time>2018-02-17T09:17:13Z</time>
      </trkpt>
      <trkpt lat="51.6914820112288" lon="0.719613963738084">
        <ele>8</ele>
        <time>2018-02-17T09:17:14Z</time>
      </trkpt>
      <trkpt lat="51.691487962380052" lon="0.719656040892005">
        <ele>8</ele>
        <time>2018-02-17T09:17:16Z</time>
      </trkpt>
      <trkpt lat="51.691487040370703" lon="0.719699040055275">
        <ele>8</ele>
        <time>2018-02-17T09:17:18Z</time>
      </trkpt>
      <trkpt lat="51.691473964601755" lon="0.719748996198177">
        <ele>8</ele>
        <time>2018-02-17T09:17:20Z</time>
      </trkpt>
      <trkpt lat="51.69146197848022" lon="0.719771040603518">
        <ele>8</ele>
        <time>2018-02-17T09:17:21Z</time>
      </trkpt>
      <trkpt lat="51.691428031772375" lon="0.719789983704686">
        <ele>8</ele>
        <time>2018-02-17T09:17:23Z</time>
      </trkpt>
      <trkpt lat="51.691410010680556" lon="0.719795012846589">
        <ele>8</ele>
        <time>2018-02-17T09:17:24Z</time>
      </trkpt>
      <trkpt lat="51.691391989588737" lon="0.719799036160111">
        <ele>8</ele>
        <time>2018-02-17T09:17:25Z</time>
      </trkpt>
      <trkpt lat="51.691372040659189" lon="0.719803981482983">
        <ele>8</ele>
        <time>2018-02-17T09:17:26Z</time>
      </trkpt>
      <trkpt lat="51.691339015960693" lon="0.719815967604518">
        <ele>8</ele>
        <time>2018-02-17T09:17:28Z</time>
      </trkpt>
      <trkpt lat="51.691319989040494" lon="0.719825020059943">
        <ele>8</ele>
        <time>2018-02-17T09:17:29Z</time>
      </trkpt>
      <trkpt lat="51.691300962120295" lon="0.719833988696337">
        <ele>8</ele>
        <time>2018-02-17T09:17:30Z</time>
      </trkpt>
      <trkpt lat="51.691266009584069" lon="0.719848992303014">
        <ele>8</ele>
        <time>2018-02-17T09:17:32Z</time>
      </trkpt>
      <trkpt lat="51.69124798849225" lon="0.719852009788156">
        <ele>8</ele>
        <time>2018-02-17T09:17:33Z</time>
      </trkpt>
      <trkpt lat="51.691219992935658" lon="0.719860978424549">
        <ele>8</ele>
        <time>2018-02-17T09:17:34Z</time>
      </trkpt>
      <trkpt lat="51.691196020692587" lon="0.719871036708355">
        <ele>8</ele>
        <time>2018-02-17T09:17:35Z</time>
      </trkpt>
      <trkpt lat="51.691172970458865" lon="0.71988201700151">
        <ele>7</ele>
        <time>2018-02-17T09:17:36Z</time>
      </trkpt>
      <trkpt lat="51.691155033186078" lon="0.719888973981142">
        <ele>7</ele>
        <time>2018-02-17T09:17:37Z</time>
      </trkpt>
      <trkpt lat="51.691137012094259" lon="0.719899032264948">
        <ele>7</ele>
        <time>2018-02-17T09:17:38Z</time>
      </trkpt>
      <trkpt lat="51.69111899100244" lon="0.719908000901341">
        <ele>7</ele>
        <time>2018-02-17T09:17:39Z</time>
      </trkpt>
      <trkpt lat="51.691099964082241" lon="0.719916969537735">
        <ele>7</ele>
        <time>2018-02-17T09:17:40Z</time>
      </trkpt>
      <trkpt lat="51.691080015152693" lon="0.719928033649921">
        <ele>7</ele>
        <time>2018-02-17T09:17:41Z</time>
      </trkpt>
      <trkpt lat="51.691059982404113" lon="0.719937002286315">
        <ele>7</ele>
        <time>2018-02-17T09:17:42Z</time>
      </trkpt>
      <trkpt lat="51.691039027646184" lon="0.719944965094328">
        <ele>7</ele>
        <time>2018-02-17T09:17:43Z</time>
      </trkpt>
      <trkpt lat="51.691016983240843" lon="0.719951000064611">
        <ele>7</ele>
        <time>2018-02-17T09:17:44Z</time>
      </trkpt>
      <trkpt lat="51.690984964370728" lon="0.719967009499669">
        <ele>7</ele>
        <time>2018-02-17T09:17:46Z</time>
      </trkpt>
      <trkpt lat="51.690951017662883" lon="0.719978995621204">
        <ele>7</ele>
        <time>2018-02-17T09:17:48Z</time>
      </trkpt>
      <trkpt lat="51.690915981307626" lon="0.719999028369784">
        <ele>7</ele>
        <time>2018-02-17T09:17:50Z</time>
      </trkpt>
      <trkpt lat="51.690895026549697" lon="0.720019983127713">
        <ele>7</ele>
        <time>2018-02-17T09:17:52Z</time>
      </trkpt>
      <trkpt lat="51.690886979922652" lon="0.720073040574789">
        <ele>7</ele>
        <time>2018-02-17T09:17:54Z</time>
      </trkpt>
      <trkpt lat="51.690884968265891" lon="0.720128025859594">
        <ele>7</ele>
        <time>2018-02-17T09:17:56Z</time>
      </trkpt>
      <trkpt lat="51.69088002294302" lon="0.720176976174116">
        <ele>7</ele>
        <time>2018-02-17T09:17:58Z</time>
      </trkpt>
      <trkpt lat="51.690882034599781" lon="0.720231039449573">
        <ele>7</ele>
        <time>2018-02-17T09:18:00Z</time>
      </trkpt>
      <trkpt lat="51.690854039043188" lon="0.72027001529932">
        <ele>7</ele>
        <time>2018-02-17T09:18:02Z</time>
      </trkpt>
      <trkpt lat="51.690830988809466" lon="0.720278983935714">
        <ele>7</ele>
        <time>2018-02-17T09:18:03Z</time>
      </trkpt>
      <trkpt lat="51.690808022394776" lon="0.720287030562758">
        <ele>7</ele>
        <time>2018-02-17T09:18:04Z</time>
      </trkpt>
      <trkpt lat="51.690786983817816" lon="0.720298010855913">
        <ele>7</ele>
        <time>2018-02-17T09:18:05Z</time>
      </trkpt>
      <trkpt lat="51.690768040716648" lon="0.720307985320687">
        <ele>7</ele>
        <time>2018-02-17T09:18:06Z</time>
      </trkpt>
      <trkpt lat="51.690747002139688" lon="0.720317959785461">
        <ele>7</ele>
        <time>2018-02-17T09:18:07Z</time>
      </trkpt>
      <trkpt lat="51.690723029896617" lon="0.720328018069267">
        <ele>6.67346725529636</ele>
        <time>2018-02-17T09:18:08Z</time>
      </trkpt>
      <trkpt lat="51.690698973834515" lon="0.720343021675944">
        <ele>6</ele>
        <time>2018-02-17T09:18:09Z</time>
      </trkpt>
      <trkpt lat="51.690673995763063" lon="0.72035500779748">
        <ele>6</ele>
        <time>2018-02-17T09:18:10Z</time>
      </trkpt>
      <trkpt lat="51.690648011863232" lon="0.720367999747396">
        <ele>6</ele>
        <time>2018-02-17T09:18:11Z</time>
      </trkpt>
      <trkpt lat="51.690624039620161" lon="0.720376968383789">
        <ele>6</ele>
        <time>2018-02-17T09:18:12Z</time>
      </trkpt>
      <trkpt lat="51.69060199521482" lon="0.720387026667595">
        <ele>6</ele>
        <time>2018-02-17T09:18:13Z</time>
      </trkpt>
      <trkpt lat="51.69057902880013" lon="0.720400018617511">
        <ele>6</ele>
        <time>2018-02-17T09:18:14Z</time>
      </trkpt>
      <trkpt lat="51.690554972738028" lon="0.720408987253904">
        <ele>6</ele>
        <time>2018-02-17T09:18:15Z</time>
      </trkpt>
      <trkpt lat="51.690534017980099" lon="0.720417033880949">
        <ele>6</ele>
        <time>2018-02-17T09:18:16Z</time>
      </trkpt>
      <trkpt lat="51.690513985231519" lon="0.720427008345723">
        <ele>6</ele>
        <time>2018-02-17T09:18:17Z</time>
      </trkpt>
      <trkpt lat="51.690492024645209" lon="0.720437988638878">
        <ele>6</ele>
        <time>2018-02-17T09:18:18Z</time>
      </trkpt>
      <trkpt lat="51.690471991896629" lon="0.720445029437542">
        <ele>6</ele>
        <time>2018-02-17T09:18:19Z</time>
      </trkpt>
      <trkpt lat="51.69045296497643" lon="0.720453998073936">
        <ele>6</ele>
        <time>2018-02-17T09:18:20Z</time>
      </trkpt>
      <trkpt lat="51.690432010218501" lon="0.720461960881948">
        <ele>5.75572578754006</ele>
        <time>2018-02-17T09:18:21Z</time>
      </trkpt>
      <trkpt lat="51.690413989126682" lon="0.720470007508993">
        <ele>5</ele>
        <time>2018-02-17T09:18:22Z</time>
      </trkpt>
      <trkpt lat="51.690389011055231" lon="0.720473024994135">
        <ele>5</ele>
        <time>2018-02-17T09:18:26Z</time>
      </trkpt>
      <trkpt lat="51.690370989963412" lon="0.720482999458909">
        <ele>5</ele>
        <time>2018-02-17T09:18:27Z</time>
      </trkpt>
      <trkpt lat="51.690342994406819" lon="0.72050797753036">
        <ele>5</ele>
        <time>2018-02-17T09:18:29Z</time>
      </trkpt>
      <trkpt lat="51.690324973315001" lon="0.720520969480276">
        <ele>5</ele>
        <time>2018-02-17T09:18:30Z</time>
      </trkpt>
      <trkpt lat="51.690303012728691" lon="0.720533961430192">
        <ele>5</ele>
        <time>2018-02-17T09:18:31Z</time>
      </trkpt>
      <trkpt lat="51.690283985808492" lon="0.720545025542378">
        <ele>5</ele>
        <time>2018-02-17T09:18:32Z</time>
      </trkpt>
      <trkpt lat="51.690262025222182" lon="0.720558017492294">
        <ele>5</ele>
        <time>2018-02-17T09:18:33Z</time>
      </trkpt>
      <trkpt lat="51.690241992473602" lon="0.720573021098971">
        <ele>5</ele>
        <time>2018-02-17T09:18:34Z</time>
      </trkpt>
      <trkpt lat="51.690219026058912" lon="0.720590958371758">
        <ele>5</ele>
        <time>2018-02-17T09:18:35Z</time>
      </trkpt>
      <trkpt lat="51.69019496999681" lon="0.720605039969087">
        <ele>5</ele>
        <time>2018-02-17T09:18:36Z</time>
      </trkpt>
      <trkpt lat="51.690173009410501" lon="0.720619959756732">
        <ele>5</ele>
        <time>2018-02-17T09:18:37Z</time>
      </trkpt>
      <trkpt lat="51.690152976661921" lon="0.72063697502017">
        <ele>5</ele>
        <time>2018-02-17T09:18:38Z</time>
      </trkpt>
      <trkpt lat="51.690134033560753" lon="0.720654996111989">
        <ele>5</ele>
        <time>2018-02-17T09:18:39Z</time>
      </trkpt>
      <trkpt lat="51.690114000812173" lon="0.720669999718666">
        <ele>5</ele>
        <time>2018-02-17T09:18:40Z</time>
      </trkpt>
      <trkpt lat="51.690092962235212" lon="0.720680980011821">
        <ele>5</ele>
        <time>2018-02-17T09:18:41Z</time>
      </trkpt>
      <trkpt lat="51.690069995820522" lon="0.720691960304976">
        <ele>5</ele>
        <time>2018-02-17T09:18:42Z</time>
      </trkpt>
      <trkpt lat="51.690049963071942" lon="0.720706963911653">
        <ele>5</ele>
        <time>2018-02-17T09:18:43Z</time>
      </trkpt>
      <trkpt lat="51.690029008314013" lon="0.720724985003471">
        <ele>5</ele>
        <time>2018-02-17T09:18:44Z</time>
      </trkpt>
      <trkpt lat="51.690011993050575" lon="0.720744011923671">
        <ele>5</ele>
        <time>2018-02-17T09:18:45Z</time>
      </trkpt>
      <trkpt lat="51.689991960301995" lon="0.720759015530348">
        <ele>5</ele>
        <time>2018-02-17T09:18:46Z</time>
      </trkpt>
      <trkpt lat="51.689966982230544" lon="0.720769995823503">
        <ele>5</ele>
        <time>2018-02-17T09:18:47Z</time>
      </trkpt>
      <trkpt lat="51.689944015815854" lon="0.720780976116657">
        <ele>5</ele>
        <time>2018-02-17T09:18:48Z</time>
      </trkpt>
      <trkpt lat="51.689919959753752" lon="0.720794973894954">
        <ele>5</ele>
        <time>2018-02-17T09:18:49Z</time>
      </trkpt>
      <trkpt lat="51.689897999167442" lon="0.72080897167325">
        <ele>4.69071811248054</ele>
        <time>2018-02-17T09:18:50Z</time>
      </trkpt>
      <trkpt lat="51.689876038581133" lon="0.720821963623166">
        <ele>4</ele>
        <time>2018-02-17T09:18:51Z</time>
      </trkpt>
      <trkpt lat="51.689852988347411" lon="0.720834033563733">
        <ele>4</ele>
        <time>2018-02-17T09:18:52Z</time>
      </trkpt>
      <trkpt lat="51.689830021932721" lon="0.72084903717041">
        <ele>4</ele>
        <time>2018-02-17T09:18:53Z</time>
      </trkpt>
      <trkpt lat="51.689804960042238" lon="0.720864040777087">
        <ele>4</ele>
        <time>2018-02-17T09:18:54Z</time>
      </trkpt>
      <trkpt lat="51.689781993627548" lon="0.720874015241861">
        <ele>4</ele>
        <time>2018-02-17T09:18:55Z</time>
      </trkpt>
      <trkpt lat="51.689757015556097" lon="0.720884995535016">
        <ele>4.20408029988376</ele>
        <time>2018-02-17T09:18:56Z</time>
      </trkpt>
      <trkpt lat="51.689730025827885" lon="0.72089496999979">
        <ele>5</ele>
        <time>2018-02-17T09:18:57Z</time>
      </trkpt>
      <trkpt lat="51.689704963937402" lon="0.720906034111977">
        <ele>5</ele>
        <time>2018-02-17T09:18:58Z</time>
      </trkpt>
      <trkpt lat="51.689679985865951" lon="0.72091500274837">
        <ele>5</ele>
        <time>2018-02-17T09:18:59Z</time>
      </trkpt>
      <trkpt lat="51.689657019451261" lon="0.720924977213144">
        <ele>5</ele>
        <time>2018-02-17T09:19:00Z</time>
      </trkpt>
      <trkpt lat="51.689633969217539" lon="0.72093696333468">
        <ele>4</ele>
        <time>2018-02-17T09:19:01Z</time>
      </trkpt>
      <trkpt lat="51.689612008631229" lon="0.720948027446866">
        <ele>4</ele>
        <time>2018-02-17T09:19:02Z</time>
      </trkpt>
      <trkpt lat="51.689591975882649" lon="0.720961019396782">
        <ele>4</ele>
        <time>2018-02-17T09:19:03Z</time>
      </trkpt>
      <trkpt lat="51.689572026953101" lon="0.720973005518317">
        <ele>4</ele>
        <time>2018-02-17T09:19:04Z</time>
      </trkpt>
      <trkpt lat="51.689554005861282" lon="0.720981974154711">
        <ele>4</ele>
        <time>2018-02-17T09:19:05Z</time>
      </trkpt>
      <trkpt lat="51.689531961455941" lon="0.720993960276246">
        <ele>4</ele>
        <time>2018-02-17T09:19:06Z</time>
      </trkpt>
      <trkpt lat="51.689511006698012" lon="0.721007036045194">
        <ele>4</ele>
        <time>2018-02-17T09:19:07Z</time>
      </trkpt>
      <trkpt lat="51.689489968121052" lon="0.72102103382349">
        <ele>4</ele>
        <time>2018-02-17T09:19:08Z</time>
      </trkpt>
      <trkpt lat="51.689464990049601" lon="0.721032014116645">
        <ele>4</ele>
        <time>2018-02-17T09:19:09Z</time>
      </trkpt>
      <trkpt lat="51.689445963129401" lon="0.721045006066561">
        <ele>4</ele>
        <time>2018-02-17T09:19:10Z</time>
      </trkpt>
      <trkpt lat="51.689424002543092" lon="0.721060009673238">
        <ele>4</ele>
        <time>2018-02-17T09:19:11Z</time>
      </trkpt>
      <trkpt lat="51.689400030300021" lon="0.721073001623154">
        <ele>3.67308307692308</ele>
        <time>2018-02-17T09:19:12Z</time>
      </trkpt>
      <trkpt lat="51.689381003379822" lon="0.721084987744689">
        <ele>3</ele>
        <time>2018-02-17T09:19:13Z</time>
      </trkpt>
      <trkpt lat="51.689358958974481" lon="0.721094040200114">
        <ele>3</ele>
        <time>2018-02-17T09:19:14Z</time>
      </trkpt>
      <trkpt lat="51.689338004216552" lon="0.721103008836508">
        <ele>3</ele>
        <time>2018-02-17T09:19:15Z</time>
      </trkpt>
      <trkpt lat="51.689314031973481" lon="0.721116000786424">
        <ele>3</ele>
        <time>2018-02-17T09:19:16Z</time>
      </trkpt>
      <trkpt lat="51.689293999224901" lon="0.721126981079578">
        <ele>3</ele>
        <time>2018-02-17T09:19:17Z</time>
      </trkpt>
      <trkpt lat="51.689272038638592" lon="0.721141984686255">
        <ele>3</ele>
        <time>2018-02-17T09:19:18Z</time>
      </trkpt>
      <trkpt lat="51.68924898840487" lon="0.721155982464552">
        <ele>3</ele>
        <time>2018-02-17T09:19:19Z</time>
      </trkpt>
      <trkpt lat="51.689227027818561" lon="0.721169980242848">
        <ele>3</ele>
        <time>2018-02-17T09:19:20Z</time>
      </trkpt>
      <trkpt lat="51.6892059892416" lon="0.721181966364384">
        <ele>3</ele>
        <time>2018-02-17T09:19:21Z</time>
      </trkpt>
      <trkpt lat="51.689185034483671" lon="0.721196969971061">
        <ele>3</ele>
        <time>2018-02-17T09:19:22Z</time>
      </trkpt>
      <trkpt lat="51.68916299007833" lon="0.721210967749357">
        <ele>3</ele>
        <time>2018-02-17T09:19:23Z</time>
      </trkpt>
      <trkpt lat="51.689142035320401" lon="0.721223037689924">
        <ele>3</ele>
        <time>2018-02-17T09:19:24Z</time>
      </trkpt>
      <trkpt lat="51.68911999091506" lon="0.72123602963984">
        <ele>3</ele>
        <time>2018-02-17T09:19:25Z</time>
      </trkpt>
      <trkpt lat="51.689096018671989" lon="0.721247009932995">
        <ele>3</ele>
        <time>2018-02-17T09:19:26Z</time>
      </trkpt>
      <trkpt lat="51.689075985923409" lon="0.72125799022615">
        <ele>3</ele>
        <time>2018-02-17T09:19:27Z</time>
      </trkpt>
      <trkpt lat="51.689056036993861" lon="0.721270982176065">
        <ele>3</ele>
        <time>2018-02-17T09:19:28Z</time>
      </trkpt>
      <trkpt lat="51.689034998416901" lon="0.721284979954362">
        <ele>3.18000409594757</ele>
        <time>2018-02-17T09:19:29Z</time>
      </trkpt>
      <trkpt lat="51.68901395983994" lon="0.721298977732658">
        <ele>3.82178795021925</ele>
        <time>2018-02-17T09:19:30Z</time>
      </trkpt>
      <trkpt lat="51.688991999253631" lon="0.721313981339335">
        <ele>3</ele>
        <time>2018-02-17T09:19:31Z</time>
      </trkpt>
      <trkpt lat="51.68897096067667" lon="0.721329990774393">
        <ele>3</ele>
        <time>2018-02-17T09:19:32Z</time>
      </trkpt>
      <trkpt lat="51.688954029232264" lon="0.72134499438107">
        <ele>3</ele>
        <time>2018-02-17T09:19:33Z</time>
      </trkpt>
      <trkpt lat="51.688930978998542" lon="0.721357986330986">
        <ele>3</ele>
        <time>2018-02-17T09:19:34Z</time>
      </trkpt>
      <trkpt lat="51.688912035897374" lon="0.72136402130127">
        <ele>3</ele>
        <time>2018-02-17T09:19:35Z</time>
      </trkpt>
      <trkpt lat="51.688892003148794" lon="0.721371984109282">
        <ele>3</ele>
        <time>2018-02-17T09:19:36Z</time>
      </trkpt>
      <trkpt lat="51.688871970400214" lon="0.721381958574057">
        <ele>3</ele>
        <time>2018-02-17T09:19:37Z</time>
      </trkpt>
      <trkpt lat="51.688852021470666" lon="0.721393022686243">
        <ele>3</ele>
        <time>2018-02-17T09:19:38Z</time>
      </trkpt>
      <trkpt lat="51.688831988722086" lon="0.721406014636159">
        <ele>3</ele>
        <time>2018-02-17T09:19:39Z</time>
      </trkpt>
      <trkpt lat="51.688812039792538" lon="0.721414983272552">
        <ele>3</ele>
        <time>2018-02-17T09:19:40Z</time>
      </trkpt>
      <trkpt lat="51.688793012872338" lon="0.721424035727978">
        <ele>3</ele>
        <time>2018-02-17T09:19:41Z</time>
      </trkpt>
      <trkpt lat="51.688773985952139" lon="0.721433004364371">
        <ele>3</ele>
        <time>2018-02-17T09:19:42Z</time>
      </trkpt>
      <trkpt lat="51.688752025365829" lon="0.721445996314287">
        <ele>3</ele>
        <time>2018-02-17T09:19:43Z</time>
      </trkpt>
      <trkpt lat="51.688734004274011" lon="0.721456976607442">
        <ele>3</ele>
        <time>2018-02-17T09:19:44Z</time>
      </trkpt>
      <trkpt lat="51.688713971525431" lon="0.721466029062867">
        <ele>3</ele>
        <time>2018-02-17T09:19:45Z</time>
      </trkpt>
      <trkpt lat="51.688692010939121" lon="0.721477009356022">
        <ele>3.25742022152941</ele>
        <time>2018-02-17T09:19:46Z</time>
      </trkpt>
      <trkpt lat="51.68866996653378" lon="0.721487989649177">
        <ele>4</ele>
        <time>2018-02-17T09:19:47Z</time>
      </trkpt>
      <trkpt lat="51.68864700011909" lon="0.721500981599092">
        <ele>4</ele>
        <time>2018-02-17T09:19:48Z</time>
      </trkpt>
      <trkpt lat="51.6886240337044" lon="0.721511039882898">
        <ele>4</ele>
        <time>2018-02-17T09:19:49Z</time>
      </trkpt>
      <trkpt lat="51.68860400095582" lon="0.721519002690911">
        <ele>4</ele>
        <time>2018-02-17T09:19:50Z</time>
      </trkpt>
      <trkpt lat="51.688580028712749" lon="0.721528977155685">
        <ele>4</ele>
        <time>2018-02-17T09:19:51Z</time>
      </trkpt>
      <trkpt lat="51.688556978479028" lon="0.721540963277221">
        <ele>3.72277139887968</ele>
        <time>2018-02-17T09:19:52Z</time>
      </trkpt>
      <trkpt lat="51.688534012064338" lon="0.721551021561027">
        <ele>3</ele>
        <time>2018-02-17T09:19:53Z</time>
      </trkpt>
      <trkpt lat="51.688510039821267" lon="0.721564013510942">
        <ele>3.27272962350021</ele>
        <time>2018-02-17T09:19:54Z</time>
      </trkpt>
      <trkpt lat="51.688489001244307" lon="0.721573987975717">
        <ele>4</ele>
        <time>2018-02-17T09:19:55Z</time>
      </trkpt>
      <trkpt lat="51.688467040657997" lon="0.721583962440491">
        <ele>4</ele>
        <time>2018-02-17T09:19:56Z</time>
      </trkpt>
      <trkpt lat="51.688450025394559" lon="0.721593014895916">
        <ele>4</ele>
        <time>2018-02-17T09:19:57Z</time>
      </trkpt>
      <trkpt lat="51.688429992645979" lon="0.721614975482225">
        <ele>4</ele>
        <time>2018-02-17T09:19:59Z</time>
      </trkpt>
      <trkpt lat="51.688425969332457" lon="0.721652023494244">
        <ele>3.72277139887968</ele>
        <time>2018-02-17T09:20:02Z</time>
      </trkpt>
      <trkpt lat="51.688433010131121" lon="0.721684964373708">
        <ele>3.26530132441681</ele>
        <time>2018-02-17T09:20:04Z</time>
      </trkpt>
      <trkpt lat="51.688439967110753" lon="0.721721006557345">
        <ele>4</ele>
        <time>2018-02-17T09:20:06Z</time>
      </trkpt>
      <trkpt lat="51.688443990424275" lon="0.721760988235474">
        <ele>4</ele>
        <time>2018-02-17T09:20:08Z</time>
      </trkpt>
      <trkpt lat="51.688450025394559" lon="0.721804993227124">
        <ele>4</ele>
        <time>2018-02-17T09:20:10Z</time>
      </trkpt>
      <trkpt lat="51.68845203705132" lon="0.721846986562014">
        <ele>4</ele>
        <time>2018-02-17T09:20:12Z</time>
      </trkpt>
      <trkpt lat="51.688464023172855" lon="0.721897026523948">
        <ele>4</ele>
        <time>2018-02-17T09:20:14Z</time>
      </trkpt>
      <trkpt lat="51.688471985980868" lon="0.721942037343979">
        <ele>4</ele>
        <time>2018-02-17T09:20:16Z</time>
      </trkpt>
      <trkpt lat="51.688481038436294" lon="0.721992999315262">
        <ele>3.68749333333333</ele>
        <time>2018-02-17T09:20:18Z</time>
      </trkpt>
      <trkpt lat="51.688485983759165" lon="0.722044967114925">
        <ele>3</ele>
        <time>2018-02-17T09:20:20Z</time>
      </trkpt>
      <trkpt lat="51.688489001244307" lon="0.722090983763337">
        <ele>3</ele>
        <time>2018-02-17T09:20:22Z</time>
      </trkpt>
      <trkpt lat="51.68849503621459" lon="0.722134988754988">
        <ele>4</ele>
        <time>2018-02-17T09:20:24Z</time>
      </trkpt>
      <trkpt lat="51.688500987365842" lon="0.722178993746638">
        <ele>4</ele>
        <time>2018-02-17T09:20:26Z</time>
      </trkpt>
      <trkpt lat="51.688508028164506" lon="0.722221992909908">
        <ele>4</ele>
        <time>2018-02-17T09:20:28Z</time>
      </trkpt>
      <trkpt lat="51.688510039821267" lon="0.722259040921927">
        <ele>4</ele>
        <time>2018-02-17T09:20:30Z</time>
      </trkpt>
      <trkpt lat="51.6885169968009" lon="0.722297010943294">
        <ele>4</ele>
        <time>2018-02-17T09:20:32Z</time>
      </trkpt>
      <trkpt lat="51.688522025942802" lon="0.722340010106564">
        <ele>3</ele>
        <time>2018-02-17T09:20:34Z</time>
      </trkpt>
      <trkpt lat="51.688525965437293" lon="0.722383009269834">
        <ele>4</ele>
        <time>2018-02-17T09:20:36Z</time>
      </trkpt>
      <trkpt lat="51.688532000407577" lon="0.722426008433104">
        <ele>4</ele>
        <time>2018-02-17T09:20:38Z</time>
      </trkpt>
      <trkpt lat="51.688536023721099" lon="0.722472025081515">
        <ele>4</ele>
        <time>2018-02-17T09:20:40Z</time>
      </trkpt>
      <trkpt lat="51.688541974872351" lon="0.72252600453794">
        <ele>4</ele>
        <time>2018-02-17T09:20:42Z</time>
      </trkpt>
      <trkpt lat="51.688545998185873" lon="0.722575038671494">
        <ele>4</ele>
        <time>2018-02-17T09:20:44Z</time>
      </trkpt>
      <trkpt lat="51.688550021499395" lon="0.722619965672493">
        <ele>4</ele>
        <time>2018-02-17T09:20:46Z</time>
      </trkpt>
      <trkpt lat="51.688556978479028" lon="0.722663970664144">
        <ele>3.80460209801527</ele>
        <time>2018-02-17T09:20:48Z</time>
      </trkpt>
      <trkpt lat="51.688565025106072" lon="0.722706969827414">
        <ele>3</ele>
        <time>2018-02-17T09:20:50Z</time>
      </trkpt>
      <trkpt lat="51.688573993742466" lon="0.722754998132586">
        <ele>3</ele>
        <time>2018-02-17T09:20:52Z</time>
      </trkpt>
      <trkpt lat="51.688580028712749" lon="0.72280403226614">
        <ele>3</ele>
        <time>2018-02-17T09:20:54Z</time>
      </trkpt>
      <trkpt lat="51.68858396820724" lon="0.722850970923901">
        <ele>3</ele>
        <time>2018-02-17T09:20:56Z</time>
      </trkpt>
      <trkpt lat="51.688590003177524" lon="0.722902016714215">
        <ele>3</ele>
        <time>2018-02-17T09:20:58Z</time>
      </trkpt>
      <trkpt lat="51.688597965985537" lon="0.722952978685498">
        <ele>3</ele>
        <time>2018-02-17T09:21:00Z</time>
      </trkpt>
      <trkpt lat="51.688607018440962" lon="0.72299899533391">
        <ele>3</ele>
        <time>2018-02-17T09:21:02Z</time>
      </trkpt>
      <trkpt lat="51.688614981248975" lon="0.723043000325561">
        <ele>3</ele>
        <time>2018-02-17T09:21:04Z</time>
      </trkpt>
      <trkpt lat="51.688620010390878" lon="0.72308499366045">
        <ele>3.24</ele>
        <time>2018-02-17T09:21:06Z</time>
      </trkpt>
      <trkpt lat="51.688620010390878" lon="0.72312799282372">
        <ele>4</ele>
        <time>2018-02-17T09:21:08Z</time>
      </trkpt>
      <trkpt lat="51.688625039532781" lon="0.723174009472132">
        <ele>4</ele>
        <time>2018-02-17T09:21:10Z</time>
      </trkpt>
      <trkpt lat="51.688630990684032" lon="0.723230000585318">
        <ele>4</ele>
        <time>2018-02-17T09:21:12Z</time>
      </trkpt>
      <trkpt lat="51.688637025654316" lon="0.723261013627052">
        <ele>4</ele>
        <time>2018-02-17T09:21:13Z</time>
      </trkpt>
      <trkpt lat="51.688640965148807" lon="0.723294038325548">
        <ele>4</ele>
        <time>2018-02-17T09:21:14Z</time>
      </trkpt>
      <trkpt lat="51.688644988462329" lon="0.723325973376632">
        <ele>4</ele>
        <time>2018-02-17T09:21:15Z</time>
      </trkpt>
      <trkpt lat="51.688650017604232" lon="0.723354974761605">
        <ele>4.25742022152942</ele>
        <time>2018-02-17T09:21:16Z</time>
      </trkpt>
      <trkpt lat="51.688654040917754" lon="0.72338598780334">
        <ele>5</ele>
        <time>2018-02-17T09:21:17Z</time>
      </trkpt>
      <trkpt lat="51.688658986240625" lon="0.723420018330216">
        <ele>5</ele>
        <time>2018-02-17T09:21:18Z</time>
      </trkpt>
      <trkpt lat="51.688664015382528" lon="0.723450025543571">
        <ele>5</ele>
        <time>2018-02-17T09:21:19Z</time>
      </trkpt>
      <trkpt lat="51.688668038696051" lon="0.723481960594654">
        <ele>5</ele>
        <time>2018-02-17T09:21:20Z</time>
      </trkpt>
      <trkpt lat="51.688674995675683" lon="0.723515991121531">
        <ele>5</ele>
        <time>2018-02-17T09:21:21Z</time>
      </trkpt>
      <trkpt lat="51.688680024817586" lon="0.723548009991646">
        <ele>5</ele>
        <time>2018-02-17T09:21:22Z</time>
      </trkpt>
      <trkpt lat="51.688683964312077" lon="0.723580028861761">
        <ele>5</ele>
        <time>2018-02-17T09:21:23Z</time>
      </trkpt>
      <trkpt lat="51.688687987625599" lon="0.723611041903496">
        <ele>5</ele>
        <time>2018-02-17T09:21:24Z</time>
      </trkpt>
      <trkpt lat="51.68868999928236" lon="0.723639959469438">
        <ele>5</ele>
        <time>2018-02-17T09:21:25Z</time>
      </trkpt>
      <trkpt lat="51.688693016767502" lon="0.723670972511172">
        <ele>5</ele>
        <time>2018-02-17T09:21:26Z</time>
      </trkpt>
      <trkpt lat="51.688697040081024" lon="0.723705003038049">
        <ele>5</ele>
        <time>2018-02-17T09:21:27Z</time>
      </trkpt>
      <trkpt lat="51.688700979575515" lon="0.723738027736545">
        <ele>5</ele>
        <time>2018-02-17T09:21:28Z</time>
      </trkpt>
      <trkpt lat="51.688703997060657" lon="0.723769040778279">
        <ele>5</ele>
        <time>2018-02-17T09:21:29Z</time>
      </trkpt>
      <trkpt lat="51.688706008717418" lon="0.723798964172602">
        <ele>5</ele>
        <time>2018-02-17T09:21:30Z</time>
      </trkpt>
      <trkpt lat="51.688713971525431" lon="0.723857972770929">
        <ele>4</ele>
        <time>2018-02-17T09:21:32Z</time>
      </trkpt>
      <trkpt lat="51.688720006495714" lon="0.723889991641045">
        <ele>4</ele>
        <time>2018-02-17T09:21:33Z</time>
      </trkpt>
      <trkpt lat="51.688725035637617" lon="0.723918993026018">
        <ele>4</ele>
        <time>2018-02-17T09:21:34Z</time>
      </trkpt>
      <trkpt lat="51.688728975132108" lon="0.723951011896133">
        <ele>4</ele>
        <time>2018-02-17T09:21:35Z</time>
      </trkpt>
      <trkpt lat="51.688735010102391" lon="0.723984958603978">
        <ele>4</ele>
        <time>2018-02-17T09:21:36Z</time>
      </trkpt>
      <trkpt lat="51.688740039244294" lon="0.724014965817332">
        <ele>4.21999641595412</ele>
        <time>2018-02-17T09:21:37Z</time>
      </trkpt>
      <trkpt lat="51.688742972910404" lon="0.724044973030686">
        <ele>5</ele>
        <time>2018-02-17T09:21:38Z</time>
      </trkpt>
      <trkpt lat="51.688746996223927" lon="0.724076991900802">
        <ele>5</ele>
        <time>2018-02-17T09:21:39Z</time>
      </trkpt>
      <trkpt lat="51.688749007880688" lon="0.724106999114156">
        <ele>5</ele>
        <time>2018-02-17T09:21:40Z</time>
      </trkpt>
      <trkpt lat="51.688752025365829" lon="0.724139017984271">
        <ele>5</ele>
        <time>2018-02-17T09:21:41Z</time>
      </trkpt>
      <trkpt lat="51.688756970688701" lon="0.724172964692116">
        <ele>5</ele>
        <time>2018-02-17T09:21:42Z</time>
      </trkpt>
      <trkpt lat="51.688761999830604" lon="0.724204983562231">
        <ele>5</ele>
        <time>2018-02-17T09:21:43Z</time>
      </trkpt>
      <trkpt lat="51.688766023144126" lon="0.724239014089108">
        <ele>5</ele>
        <time>2018-02-17T09:21:44Z</time>
      </trkpt>
      <trkpt lat="51.688770968466997" lon="0.724272960796952">
        <ele>5</ele>
        <time>2018-02-17T09:21:45Z</time>
      </trkpt>
      <trkpt lat="51.688773985952139" lon="0.724304979667068">
        <ele>5</ele>
        <time>2018-02-17T09:21:46Z</time>
      </trkpt>
      <trkpt lat="51.6887759976089" lon="0.724336998537183">
        <ele>5</ele>
        <time>2018-02-17T09:21:47Z</time>
      </trkpt>
      <trkpt lat="51.688779015094042" lon="0.724370023235679">
        <ele>5</ele>
        <time>2018-02-17T09:21:48Z</time>
      </trkpt>
      <trkpt lat="51.688782032579184" lon="0.724401036277413">
        <ele>5</ele>
        <time>2018-02-17T09:21:49Z</time>
      </trkpt>
      <trkpt lat="51.688783960416913" lon="0.724432971328497">
        <ele>5</ele>
        <time>2018-02-17T09:21:50Z</time>
      </trkpt>
      <trkpt lat="51.688786977902055" lon="0.724465996026993">
        <ele>5</ele>
        <time>2018-02-17T09:21:51Z</time>
      </trkpt>
      <trkpt lat="51.68879603035748" lon="0.724531039595604">
        <ele>5</ele>
        <time>2018-02-17T09:21:53Z</time>
      </trkpt>
      <trkpt lat="51.688799969851971" lon="0.724565992131829">
        <ele>5</ele>
        <time>2018-02-17T09:21:54Z</time>
      </trkpt>
      <trkpt lat="51.688804998993874" lon="0.724598011001945">
        <ele>5</ele>
        <time>2018-02-17T09:21:55Z</time>
      </trkpt>
      <trkpt lat="51.688808016479015" lon="0.72463103570044">
        <ele>5</ele>
        <time>2018-02-17T09:21:56Z</time>
      </trkpt>
      <trkpt lat="51.688812039792538" lon="0.724664982408285">
        <ele>5</ele>
        <time>2018-02-17T09:21:57Z</time>
      </trkpt>
      <trkpt lat="51.688814973458648" lon="0.724694989621639">
        <ele>5</ele>
        <time>2018-02-17T09:21:58Z</time>
      </trkpt>
      <trkpt lat="51.688817990943789" lon="0.724724996834993">
        <ele>5</ele>
        <time>2018-02-17T09:21:59Z</time>
      </trkpt>
      <trkpt lat="51.688822014257312" lon="0.724755004048347">
        <ele>5.1900032</ele>
        <time>2018-02-17T09:22:00Z</time>
      </trkpt>
      <trkpt lat="51.688826959580183" lon="0.724809989333153">
        <ele>6</ele>
        <time>2018-02-17T09:22:02Z</time>
      </trkpt>
      <trkpt lat="51.688831988722086" lon="0.724841002374887">
        <ele>6</ele>
        <time>2018-02-17T09:22:03Z</time>
      </trkpt>
      <trkpt lat="51.688837017863989" lon="0.72486899793148">
        <ele>6</ele>
        <time>2018-02-17T09:22:04Z</time>
      </trkpt>
      <trkpt lat="51.688838023692369" lon="0.724897999316454">
        <ele>6</ele>
        <time>2018-02-17T09:22:05Z</time>
      </trkpt>
      <trkpt lat="51.68884196318686" lon="0.724929012358189">
        <ele>5.76415253827948</ele>
        <time>2018-02-17T09:22:06Z</time>
      </trkpt>
      <trkpt lat="51.688845986500382" lon="0.724959019571543">
        <ele>5</ele>
        <time>2018-02-17T09:22:07Z</time>
      </trkpt>
      <trkpt lat="51.688850009813905" lon="0.724990032613277">
        <ele>5</ele>
        <time>2018-02-17T09:22:08Z</time>
      </trkpt>
      <trkpt lat="51.688852021470666" lon="0.72501802816987">
        <ele>5</ele>
        <time>2018-02-17T09:22:09Z</time>
      </trkpt>
      <trkpt lat="51.688849003985524" lon="0.72506002150476">
        <ele>5</ele>
        <time>2018-02-17T09:22:11Z</time>
      </trkpt>
      <trkpt lat="51.688844980672002" lon="0.725097991526127">
        <ele>5</ele>
        <time>2018-02-17T09:22:13Z</time>
      </trkpt>
      <trkpt lat="51.688843974843621" lon="0.725135961547494">
        <ele>6</ele>
        <time>2018-02-17T09:22:15Z</time>
      </trkpt>
      <trkpt lat="51.688846992328763" lon="0.72516898624599">
        <ele>6</ele>
        <time>2018-02-17T09:22:17Z</time>
      </trkpt>
      <trkpt lat="51.688849003985524" lon="0.725206034258008">
        <ele>6</ele>
        <time>2018-02-17T09:22:19Z</time>
      </trkpt>
      <trkpt lat="51.688844980672002" lon="0.725236041471362">
        <ele>5.79787031237234</ele>
        <time>2018-02-17T09:22:21Z</time>
      </trkpt>
      <trkpt lat="51.68884196318686" lon="0.725264959037304">
        <ele>5.19192180388912</ele>
        <time>2018-02-17T09:22:23Z</time>
      </trkpt>
      <trkpt lat="51.688847998157144" lon="0.725307036191225">
        <ele>6</ele>
        <time>2018-02-17T09:22:27Z</time>
      </trkpt>
      <trkpt lat="51.688847998157144" lon="0.725337965413928">
        <ele>6</ele>
        <time>2018-02-17T09:22:31Z</time>
      </trkpt>
      <trkpt lat="51.688826037570834" lon="0.725338971242309">
        <ele>5</ele>
        <time>2018-02-17T09:33:46Z</time>
      </trkpt>
      <trkpt lat="51.688832994550467" lon="0.725377025082707">
        <ele>6</ele>
        <time>2018-02-17T09:33:48Z</time>
      </trkpt>
      <trkpt lat="51.688840035349131" lon="0.725419018417597">
        <ele>6</ele>
        <time>2018-02-17T09:33:50Z</time>
      </trkpt>
      <trkpt lat="51.688849003985524" lon="0.725476015359163">
        <ele>6</ele>
        <time>2018-02-17T09:33:52Z</time>
      </trkpt>
      <trkpt lat="51.688852021470666" lon="0.725519014522433">
        <ele>6</ele>
        <time>2018-02-17T09:33:53Z</time>
      </trkpt>
      <trkpt lat="51.688855038955808" lon="0.725557990372181">
        <ele>6</ele>
        <time>2018-02-17T09:33:54Z</time>
      </trkpt>
      <trkpt lat="51.688860990107059" lon="0.725595038384199">
        <ele>6</ele>
        <time>2018-02-17T09:33:55Z</time>
      </trkpt>
      <trkpt lat="51.688867025077343" lon="0.725629990920424">
        <ele>6</ele>
        <time>2018-02-17T09:33:56Z</time>
      </trkpt>
      <trkpt lat="51.688873982056975" lon="0.72566200979054">
        <ele>6</ele>
        <time>2018-02-17T09:33:57Z</time>
      </trkpt>
      <trkpt lat="51.688880017027259" lon="0.725695034489036">
        <ele>6</ele>
        <time>2018-02-17T09:33:58Z</time>
      </trkpt>
      <trkpt lat="51.688884040340781" lon="0.725730992853642">
        <ele>6</ele>
        <time>2018-02-17T09:33:59Z</time>
      </trkpt>
      <trkpt lat="51.688886974006891" lon="0.725765023380518">
        <ele>6</ele>
        <time>2018-02-17T09:34:00Z</time>
      </trkpt>
      <trkpt lat="51.688889991492033" lon="0.725798970088363">
        <ele>6</ele>
        <time>2018-02-17T09:34:01Z</time>
      </trkpt>
      <trkpt lat="51.688894014805555" lon="0.725831994786859">
        <ele>6</ele>
        <time>2018-02-17T09:34:02Z</time>
      </trkpt>
      <trkpt lat="51.688899965956807" lon="0.725864013656974">
        <ele>6</ele>
        <time>2018-02-17T09:34:03Z</time>
      </trkpt>
      <trkpt lat="51.688909018412232" lon="0.72589703835547">
        <ele>5.83907369536112</ele>
        <time>2018-02-17T09:34:04Z</time>
      </trkpt>
      <trkpt lat="51.688914969563484" lon="0.725927967578173">
        <ele>5</ele>
        <time>2018-02-17T09:34:05Z</time>
      </trkpt>
      <trkpt lat="51.688922010362148" lon="0.725957974791527">
        <ele>5.27551167012787</ele>
        <time>2018-02-17T09:34:06Z</time>
      </trkpt>
      <trkpt lat="51.688928967341781" lon="0.725990999490023">
        <ele>6</ele>
        <time>2018-02-17T09:34:07Z</time>
      </trkpt>
      <trkpt lat="51.688935002312064" lon="0.726021006703377">
        <ele>6</ele>
        <time>2018-02-17T09:34:08Z</time>
      </trkpt>
      <trkpt lat="51.688940031453967" lon="0.726054031401873">
        <ele>6</ele>
        <time>2018-02-17T09:34:09Z</time>
      </trkpt>
      <trkpt lat="51.68894799426198" lon="0.726085966452956">
        <ele>6</ele>
        <time>2018-02-17T09:34:10Z</time>
      </trkpt>
      <trkpt lat="51.688956040889025" lon="0.726116979494691">
        <ele>5.89147756025441</ele>
        <time>2018-02-17T09:34:11Z</time>
      </trkpt>
      <trkpt lat="51.688961992040277" lon="0.726152015849948">
        <ele>5.11628183883867</ele>
        <time>2018-02-17T09:34:12Z</time>
      </trkpt>
      <trkpt lat="51.688966015353799" lon="0.726190991699696">
        <ele>5</ele>
        <time>2018-02-17T09:34:13Z</time>
      </trkpt>
      <trkpt lat="51.68896802701056" lon="0.726228961721063">
        <ele>4.67619558459607</ele>
        <time>2018-02-17T09:34:14Z</time>
      </trkpt>
      <trkpt lat="51.688970038667321" lon="0.726271960884333">
        <ele>4</ele>
        <time>2018-02-17T09:34:15Z</time>
      </trkpt>
      <trkpt lat="51.688973978161812" lon="0.726310014724731">
        <ele>4</ele>
        <time>2018-02-17T09:34:16Z</time>
      </trkpt>
      <trkpt lat="51.688979007303715" lon="0.726344967260957">
        <ele>4</ele>
        <time>2018-02-17T09:34:17Z</time>
      </trkpt>
      <trkpt lat="51.688984958454967" lon="0.726382015272975">
        <ele>4</ele>
        <time>2018-02-17T09:34:18Z</time>
      </trkpt>
      <trkpt lat="51.688989987596869" lon="0.72641403414309">
        <ele>4.25861802612994</ele>
        <time>2018-02-17T09:34:19Z</time>
      </trkpt>
      <trkpt lat="51.688996022567153" lon="0.726449992507696">
        <ele>5</ele>
        <time>2018-02-17T09:34:20Z</time>
      </trkpt>
      <trkpt lat="51.689001973718405" lon="0.726482011377811">
        <ele>5</ele>
        <time>2018-02-17T09:34:21Z</time>
      </trkpt>
      <trkpt lat="51.689009014517069" lon="0.726512018591166">
        <ele>5</ele>
        <time>2018-02-17T09:34:22Z</time>
      </trkpt>
      <trkpt lat="51.68901395983994" lon="0.726547976955771">
        <ele>5</ele>
        <time>2018-02-17T09:34:23Z</time>
      </trkpt>
      <trkpt lat="51.689018988981843" lon="0.72658603079617">
        <ele>4.6899968</ele>
        <time>2018-02-17T09:34:24Z</time>
      </trkpt>
      <trkpt lat="51.689025023952127" lon="0.726622994989157">
        <ele>4</ele>
        <time>2018-02-17T09:34:25Z</time>
      </trkpt>
      <trkpt lat="51.689028963446617" lon="0.726662976667285">
        <ele>4</ele>
        <time>2018-02-17T09:34:26Z</time>
      </trkpt>
      <trkpt lat="51.689034998416901" lon="0.726696001365781">
        <ele>4</ele>
        <time>2018-02-17T09:34:27Z</time>
      </trkpt>
      <trkpt lat="51.689042039215565" lon="0.726727014407516">
        <ele>4.25641362258908</ele>
        <time>2018-02-17T09:34:28Z</time>
      </trkpt>
      <trkpt lat="51.689050002023578" lon="0.72676096111536">
        <ele>5</ele>
        <time>2018-02-17T09:34:29Z</time>
      </trkpt>
      <trkpt lat="51.689057964831591" lon="0.726792979985476">
        <ele>5</ele>
        <time>2018-02-17T09:34:30Z</time>
      </trkpt>
      <trkpt lat="51.689065005630255" lon="0.726827010512352">
        <ele>5</ele>
        <time>2018-02-17T09:34:31Z</time>
      </trkpt>
      <trkpt lat="51.689069028943777" lon="0.726864980533719">
        <ele>5</ele>
        <time>2018-02-17T09:34:32Z</time>
      </trkpt>
      <trkpt lat="51.689072968438268" lon="0.726901022717357">
        <ele>5</ele>
        <time>2018-02-17T09:34:33Z</time>
      </trkpt>
      <trkpt lat="51.689075985923409" lon="0.726935975253582">
        <ele>5</ele>
        <time>2018-02-17T09:34:34Z</time>
      </trkpt>
      <trkpt lat="51.689079003408551" lon="0.726964976638556">
        <ele>5</ele>
        <time>2018-02-17T09:34:35Z</time>
      </trkpt>
      <trkpt lat="51.689083026722074" lon="0.726993978023529">
        <ele>5</ele>
        <time>2018-02-17T09:34:36Z</time>
      </trkpt>
      <trkpt lat="51.689085038378835" lon="0.727031026035547">
        <ele>4.67618734152526</ele>
        <time>2018-02-17T09:34:37Z</time>
      </trkpt>
      <trkpt lat="51.689089983701706" lon="0.727065978571773">
        <ele>4</ele>
        <time>2018-02-17T09:34:38Z</time>
      </trkpt>
      <trkpt lat="51.689095012843609" lon="0.72710202075541">
        <ele>4</ele>
        <time>2018-02-17T09:34:39Z</time>
      </trkpt>
      <trkpt lat="51.68909995816648" lon="0.727138984948397">
        <ele>4</ele>
        <time>2018-02-17T09:34:40Z</time>
      </trkpt>
      <trkpt lat="51.689103981480002" lon="0.727176032960415">
        <ele>4</ele>
        <time>2018-02-17T09:34:41Z</time>
      </trkpt>
      <trkpt lat="51.689106998965144" lon="0.727216014638543">
        <ele>4</ele>
        <time>2018-02-17T09:34:42Z</time>
      </trkpt>
      <trkpt lat="51.689110016450286" lon="0.72725297883153">
        <ele>4</ele>
        <time>2018-02-17T09:34:43Z</time>
      </trkpt>
      <trkpt lat="51.689114961773157" lon="0.727289021015167">
        <ele>4</ele>
        <time>2018-02-17T09:34:44Z</time>
      </trkpt>
      <trkpt lat="51.689118985086679" lon="0.727324979379773">
        <ele>4</ele>
        <time>2018-02-17T09:34:45Z</time>
      </trkpt>
      <trkpt lat="51.689122002571821" lon="0.72736001573503">
        <ele>4</ele>
        <time>2018-02-17T09:34:46Z</time>
      </trkpt>
      <trkpt lat="51.689125020056963" lon="0.727398991584778">
        <ele>4</ele>
        <time>2018-02-17T09:34:47Z</time>
      </trkpt>
      <trkpt lat="51.689128959551454" lon="0.727434027940035">
        <ele>4</ele>
        <time>2018-02-17T09:34:48Z</time>
      </trkpt>
      <trkpt lat="51.689136000350118" lon="0.727466968819499">
        <ele>4</ele>
        <time>2018-02-17T09:34:49Z</time>
      </trkpt>
      <trkpt lat="51.689143041148782" lon="0.727499993517995">
        <ele>4</ele>
        <time>2018-02-17T09:34:50Z</time>
      </trkpt>
      <trkpt lat="51.689148992300034" lon="0.727536035701633">
        <ele>4</ele>
        <time>2018-02-17T09:34:51Z</time>
      </trkpt>
      <trkpt lat="51.689154021441936" lon="0.727574005723">
        <ele>4</ele>
        <time>2018-02-17T09:34:52Z</time>
      </trkpt>
      <trkpt lat="51.689158966764808" lon="0.727611975744367">
        <ele>4</ele>
        <time>2018-02-17T09:34:53Z</time>
      </trkpt>
      <trkpt lat="51.689167013391852" lon="0.727645000442863">
        <ele>4.19387955017437</ele>
        <time>2018-02-17T09:34:54Z</time>
      </trkpt>
      <trkpt lat="51.689172964543104" lon="0.727680958807468">
        <ele>5</ele>
        <time>2018-02-17T09:34:55Z</time>
      </trkpt>
      <trkpt lat="51.689176987856627" lon="0.727712977677584">
        <ele>5</ele>
        <time>2018-02-17T09:34:56Z</time>
      </trkpt>
      <trkpt lat="51.689181011170149" lon="0.72774600237608">
        <ele>5</ele>
        <time>2018-02-17T09:34:57Z</time>
      </trkpt>
      <trkpt lat="51.689188973978162" lon="0.727778021246195">
        <ele>4.8300032</ele>
        <time>2018-02-17T09:34:58Z</time>
      </trkpt>
      <trkpt lat="51.689195008948445" lon="0.72780903428793">
        <ele>4</ele>
        <time>2018-02-17T09:34:59Z</time>
      </trkpt>
      <trkpt lat="51.689202971756458" lon="0.727842980995774">
        <ele>4</ele>
        <time>2018-02-17T09:35:00Z</time>
      </trkpt>
      <trkpt lat="51.689208000898361" lon="0.727878017351031">
        <ele>4</ele>
        <time>2018-02-17T09:35:01Z</time>
      </trkpt>
      <trkpt lat="51.689216969534755" lon="0.727906012907624">
        <ele>4</ele>
        <time>2018-02-17T09:35:02Z</time>
      </trkpt>
      <trkpt lat="51.689223004505038" lon="0.72793803177774">
        <ele>4</ele>
        <time>2018-02-17T09:35:03Z</time>
      </trkpt>
      <trkpt lat="51.689228033646941" lon="0.727969966828823">
        <ele>4</ele>
        <time>2018-02-17T09:35:04Z</time>
      </trkpt>
      <trkpt lat="51.689231973141432" lon="0.728001985698938">
        <ele>3.82653274470364</ele>
        <time>2018-02-17T09:35:05Z</time>
      </trkpt>
      <trkpt lat="51.689235996454954" lon="0.728035010397434">
        <ele>3</ele>
        <time>2018-02-17T09:35:06Z</time>
      </trkpt>
      <trkpt lat="51.689237002283335" lon="0.728066023439169">
        <ele>3</ele>
        <time>2018-02-17T09:35:07Z</time>
      </trkpt>
      <trkpt lat="51.689241025596857" lon="0.728096030652523">
        <ele>3.1142855053065</ele>
        <time>2018-02-17T09:35:08Z</time>
      </trkpt>
      <trkpt lat="51.689244965091348" lon="0.728125032037497">
        <ele>3.68571303183903</ele>
        <time>2018-02-17T09:35:09Z</time>
      </trkpt>
      <trkpt lat="51.689249994233251" lon="0.7281559612602">
        <ele>4</ele>
        <time>2018-02-17T09:35:10Z</time>
      </trkpt>
      <trkpt lat="51.689256029203534" lon="0.728187980130315">
        <ele>4</ele>
        <time>2018-02-17T09:35:11Z</time>
      </trkpt>
      <trkpt lat="51.689263992011547" lon="0.728216981515288">
        <ele>4</ele>
        <time>2018-02-17T09:35:12Z</time>
      </trkpt>
      <trkpt lat="51.68926902115345" lon="0.728250006213784">
        <ele>4</ele>
        <time>2018-02-17T09:35:13Z</time>
      </trkpt>
      <trkpt lat="51.689272038638592" lon="0.72828495875001">
        <ele>4</ele>
        <time>2018-02-17T09:35:14Z</time>
      </trkpt>
      <trkpt lat="51.689274972304702" lon="0.728317983448505">
        <ele>3.95402315761597</ele>
        <time>2018-02-17T09:35:15Z</time>
      </trkpt>
      <trkpt lat="51.689276983961463" lon="0.728353019803762">
        <ele>3</ele>
        <time>2018-02-17T09:35:16Z</time>
      </trkpt>
      <trkpt lat="51.689281007274985" lon="0.728387972339988">
        <ele>3</ele>
        <time>2018-02-17T09:35:17Z</time>
      </trkpt>
      <trkpt lat="51.689284024760127" lon="0.728422002866864">
        <ele>3</ele>
        <time>2018-02-17T09:35:18Z</time>
      </trkpt>
      <trkpt lat="51.689287964254618" lon="0.728456033393741">
        <ele>3</ele>
        <time>2018-02-17T09:35:19Z</time>
      </trkpt>
      <trkpt lat="51.689293999224901" lon="0.728486962616444">
        <ele>3</ele>
        <time>2018-02-17T09:35:20Z</time>
      </trkpt>
      <trkpt lat="51.689303973689675" lon="0.728544965386391">
        <ele>3</ele>
        <time>2018-02-17T09:35:22Z</time>
      </trkpt>
      <trkpt lat="51.689304979518056" lon="0.728581007570028">
        <ele>3</ele>
        <time>2018-02-17T09:35:23Z</time>
      </trkpt>
      <trkpt lat="51.689304979518056" lon="0.728618977591395">
        <ele>3.03488718223492</ele>
        <time>2018-02-17T09:35:24Z</time>
      </trkpt>
      <trkpt lat="51.689309002831578" lon="0.728652002289891">
        <ele>4</ele>
        <time>2018-02-17T09:35:25Z</time>
      </trkpt>
      <trkpt lat="51.689314031973481" lon="0.728683015331626">
        <ele>4</ele>
        <time>2018-02-17T09:35:26Z</time>
      </trkpt>
      <trkpt lat="51.689320988953114" lon="0.728719979524612">
        <ele>4</ele>
        <time>2018-02-17T09:35:27Z</time>
      </trkpt>
      <trkpt lat="51.689328029751778" lon="0.728753004223108">
        <ele>4</ele>
        <time>2018-02-17T09:35:28Z</time>
      </trkpt>
      <trkpt lat="51.689335992559791" lon="0.728786028921604">
        <ele>4</ele>
        <time>2018-02-17T09:35:29Z</time>
      </trkpt>
      <trkpt lat="51.689342027530074" lon="0.72882198728621">
        <ele>4</ele>
        <time>2018-02-17T09:35:30Z</time>
      </trkpt>
      <trkpt lat="51.689346972852945" lon="0.728855011984706">
        <ele>4</ele>
        <time>2018-02-17T09:35:31Z</time>
      </trkpt>
      <trkpt lat="51.689353007823229" lon="0.728888958692551">
        <ele>4</ele>
        <time>2018-02-17T09:35:32Z</time>
      </trkpt>
      <trkpt lat="51.689357031136751" lon="0.72892801836133">
        <ele>4</ele>
        <time>2018-02-17T09:35:33Z</time>
      </trkpt>
      <trkpt lat="51.689361976459622" lon="0.728961965069175">
        <ele>4</ele>
        <time>2018-02-17T09:35:34Z</time>
      </trkpt>
      <trkpt lat="51.689365999773145" lon="0.728998007252812">
        <ele>3.80807819611088</ele>
        <time>2018-02-17T09:35:35Z</time>
      </trkpt>
      <trkpt lat="51.689368011429906" lon="0.729031031951308">
        <ele>3</ele>
        <time>2018-02-17T09:35:36Z</time>
      </trkpt>
      <trkpt lat="51.689372034743428" lon="0.729061961174011">
        <ele>3</ele>
        <time>2018-02-17T09:35:37Z</time>
      </trkpt>
      <trkpt lat="51.689376980066299" lon="0.72910001501441">
        <ele>3.17346725529636</ele>
        <time>2018-02-17T09:35:38Z</time>
      </trkpt>
      <trkpt lat="51.689378991723061" lon="0.729136979207397">
        <ele>4</ele>
        <time>2018-02-17T09:35:39Z</time>
      </trkpt>
      <trkpt lat="51.689383015036583" lon="0.729175033047795">
        <ele>4</ele>
        <time>2018-02-17T09:35:40Z</time>
      </trkpt>
      <trkpt lat="51.689387960359454" lon="0.729211997240782">
        <ele>4</ele>
        <time>2018-02-17T09:35:41Z</time>
      </trkpt>
      <trkpt lat="51.689393995329738" lon="0.729246027767658">
        <ele>4</ele>
        <time>2018-02-17T09:35:42Z</time>
      </trkpt>
      <trkpt lat="51.689400030300021" lon="0.729281986132264">
        <ele>3.8300032</ele>
        <time>2018-02-17T09:35:43Z</time>
      </trkpt>
      <trkpt lat="51.689404975622892" lon="0.729317022487521">
        <ele>3</ele>
        <time>2018-02-17T09:35:44Z</time>
      </trkpt>
      <trkpt lat="51.689408998936415" lon="0.729353986680508">
        <ele>3</ele>
        <time>2018-02-17T09:35:45Z</time>
      </trkpt>
      <trkpt lat="51.689416039735079" lon="0.729390028864145">
        <ele>3</ele>
        <time>2018-02-17T09:35:46Z</time>
      </trkpt>
      <trkpt lat="51.68942098505795" lon="0.72942397557199">
        <ele>3</ele>
        <time>2018-02-17T09:35:47Z</time>
      </trkpt>
      <trkpt lat="51.689425008371472" lon="0.729463035240769">
        <ele>3</ele>
        <time>2018-02-17T09:35:48Z</time>
      </trkpt>
      <trkpt lat="51.689428025856614" lon="0.729497987776995">
        <ele>3</ele>
        <time>2018-02-17T09:35:49Z</time>
      </trkpt>
      <trkpt lat="51.689430959522724" lon="0.729532018303871">
        <ele>3</ele>
        <time>2018-02-17T09:35:50Z</time>
      </trkpt>
      <trkpt lat="51.689434982836246" lon="0.729567976668477">
        <ele>3</ele>
        <time>2018-02-17T09:35:51Z</time>
      </trkpt>
      <trkpt lat="51.689440011978149" lon="0.729604018852115">
        <ele>3</ele>
        <time>2018-02-17T09:35:52Z</time>
      </trkpt>
      <trkpt lat="51.689445041120052" lon="0.729637965559959">
        <ele>3</ele>
        <time>2018-02-17T09:35:53Z</time>
      </trkpt>
      <trkpt lat="51.689450992271304" lon="0.729674007743597">
        <ele>3</ele>
        <time>2018-02-17T09:35:54Z</time>
      </trkpt>
      <trkpt lat="51.689455015584826" lon="0.729710971936584">
        <ele>3</ele>
        <time>2018-02-17T09:35:55Z</time>
      </trkpt>
      <trkpt lat="51.689459960907698" lon="0.729750031605363">
        <ele>3</ele>
        <time>2018-02-17T09:35:56Z</time>
      </trkpt>
      <trkpt lat="51.689465995877981" lon="0.729785989969969">
        <ele>3</ele>
        <time>2018-02-17T09:35:57Z</time>
      </trkpt>
      <trkpt lat="51.689470019191504" lon="0.729823959991336">
        <ele>3</ele>
        <time>2018-02-17T09:35:58Z</time>
      </trkpt>
      <trkpt lat="51.689473958685994" lon="0.729861008003354">
        <ele>3</ele>
        <time>2018-02-17T09:35:59Z</time>
      </trkpt>
      <trkpt lat="51.689476976171136" lon="0.729898978024721">
        <ele>3</ele>
        <time>2018-02-17T09:36:00Z</time>
      </trkpt>
      <trkpt lat="51.689479993656278" lon="0.729940971359611">
        <ele>3</ele>
        <time>2018-02-17T09:36:01Z</time>
      </trkpt>
      <trkpt lat="51.6894840169698" lon="0.729977013543248">
        <ele>3.08334222222222</ele>
        <time>2018-02-17T09:36:02Z</time>
      </trkpt>
      <trkpt lat="51.689486028626561" lon="0.730014983564615">
        <ele>4</ele>
        <time>2018-02-17T09:36:03Z</time>
      </trkpt>
      <trkpt lat="51.689489968121052" lon="0.730052031576633">
        <ele>4</ele>
        <time>2018-02-17T09:36:04Z</time>
      </trkpt>
      <trkpt lat="51.689496003091335" lon="0.730086984112859">
        <ele>4</ele>
        <time>2018-02-17T09:36:05Z</time>
      </trkpt>
      <trkpt lat="51.689501032233238" lon="0.730125959962606">
        <ele>4</ele>
        <time>2018-02-17T09:36:06Z</time>
      </trkpt>
      <trkpt lat="51.689504971727729" lon="0.730159990489483">
        <ele>4</ele>
        <time>2018-02-17T09:36:07Z</time>
      </trkpt>
      <trkpt lat="51.689510000869632" lon="0.730193015187979">
        <ele>4</ele>
        <time>2018-02-17T09:36:08Z</time>
      </trkpt>
      <trkpt lat="51.689514024183154" lon="0.730226961895823">
        <ele>4</ele>
        <time>2018-02-17T09:36:09Z</time>
      </trkpt>
      <trkpt lat="51.689520981162786" lon="0.730257974937558">
        <ele>4</ele>
        <time>2018-02-17T09:36:10Z</time>
      </trkpt>
      <trkpt lat="51.68952701613307" lon="0.730285970494151">
        <ele>4</ele>
        <time>2018-02-17T09:36:11Z</time>
      </trkpt>
      <trkpt lat="51.689531039446592" lon="0.730339027941227">
        <ele>4</ele>
        <time>2018-02-17T09:36:13Z</time>
      </trkpt>
      <trkpt lat="51.689528021961451" lon="0.730381021276116">
        <ele>4</ele>
        <time>2018-02-17T09:36:15Z</time>
      </trkpt>
      <trkpt lat="51.689500026404858" lon="0.730402981862426">
        <ele>4</ele>
        <time>2018-02-17T09:36:17Z</time>
      </trkpt>
      <trkpt lat="51.689483011141419" lon="0.730414967983961">
        <ele>4</ele>
        <time>2018-02-17T09:36:18Z</time>
      </trkpt>
      <trkpt lat="51.68946398422122" lon="0.730429971590638">
        <ele>4</ele>
        <time>2018-02-17T09:36:19Z</time>
      </trkpt>
      <trkpt lat="51.689443029463291" lon="0.730444975197315">
        <ele>4</ele>
        <time>2018-02-17T09:36:20Z</time>
      </trkpt>
      <trkpt lat="51.689422996714711" lon="0.730458972975612">
        <ele>4</ele>
        <time>2018-02-17T09:36:21Z</time>
      </trkpt>
      <trkpt lat="51.689399024471641" lon="0.730473976582289">
        <ele>4</ele>
        <time>2018-02-17T09:36:22Z</time>
      </trkpt>
      <trkpt lat="51.689376980066299" lon="0.730485962703824">
        <ele>3.78260869565217</ele>
        <time>2018-02-17T09:36:23Z</time>
      </trkpt>
      <trkpt lat="51.68935501947999" lon="0.730500966310501">
        <ele>3</ele>
        <time>2018-02-17T09:36:24Z</time>
      </trkpt>
      <trkpt lat="51.689330041408539" lon="0.730513958260417">
        <ele>3</ele>
        <time>2018-02-17T09:36:25Z</time>
      </trkpt>
      <trkpt lat="51.689306991174817" lon="0.730524016544223">
        <ele>3</ele>
        <time>2018-02-17T09:36:26Z</time>
      </trkpt>
      <trkpt lat="51.689283018931746" lon="0.730536002665758">
        <ele>3</ele>
        <time>2018-02-17T09:36:27Z</time>
      </trkpt>
      <trkpt lat="51.689258962869644" lon="0.730550000444055">
        <ele>3</ele>
        <time>2018-02-17T09:36:28Z</time>
      </trkpt>
      <trkpt lat="51.689239013940096" lon="0.73056198656559">
        <ele>3</ele>
        <time>2018-02-17T09:36:29Z</time>
      </trkpt>
      <trkpt lat="51.689214035868645" lon="0.730577996000648">
        <ele>3</ele>
        <time>2018-02-17T09:36:30Z</time>
      </trkpt>
      <trkpt lat="51.689188973978162" lon="0.730588976293802">
        <ele>3</ele>
        <time>2018-02-17T09:36:31Z</time>
      </trkpt>
      <trkpt lat="51.689166007563472" lon="0.730602974072099">
        <ele>3</ele>
        <time>2018-02-17T09:36:32Z</time>
      </trkpt>
      <trkpt lat="51.689144968986511" lon="0.730616971850395">
        <ele>3</ele>
        <time>2018-02-17T09:36:33Z</time>
      </trkpt>
      <trkpt lat="51.689126025885344" lon="0.730632981285453">
        <ele>3</ele>
        <time>2018-02-17T09:36:34Z</time>
      </trkpt>
      <trkpt lat="51.689100963994861" lon="0.73064798489213">
        <ele>3</ele>
        <time>2018-02-17T09:36:35Z</time>
      </trkpt>
      <trkpt lat="51.68907699175179" lon="0.730660976842046">
        <ele>3</ele>
        <time>2018-02-17T09:36:36Z</time>
      </trkpt>
      <trkpt lat="51.6890540253371" lon="0.730677992105484">
        <ele>3</ele>
        <time>2018-02-17T09:36:37Z</time>
      </trkpt>
      <trkpt lat="51.689030975103378" lon="0.730694001540542">
        <ele>3</ele>
        <time>2018-02-17T09:36:38Z</time>
      </trkpt>
      <trkpt lat="51.689009014517069" lon="0.730707999318838">
        <ele>3</ele>
        <time>2018-02-17T09:36:39Z</time>
      </trkpt>
      <trkpt lat="51.688984958454967" lon="0.730718979611993">
        <ele>3</ele>
        <time>2018-02-17T09:36:40Z</time>
      </trkpt>
      <trkpt lat="51.688964003697038" lon="0.730729959905148">
        <ele>3</ele>
        <time>2018-02-17T09:36:41Z</time>
      </trkpt>
      <trkpt lat="51.688942965120077" lon="0.730743035674095">
        <ele>3</ele>
        <time>2018-02-17T09:36:42Z</time>
      </trkpt>
      <trkpt lat="51.688918992877007" lon="0.730757033452392">
        <ele>3</ele>
        <time>2018-02-17T09:36:43Z</time>
      </trkpt>
      <trkpt lat="51.688898038119078" lon="0.730770025402308">
        <ele>3</ele>
        <time>2018-02-17T09:36:44Z</time>
      </trkpt>
      <trkpt lat="51.688878005370498" lon="0.730783017352223">
        <ele>3</ele>
        <time>2018-02-17T09:36:45Z</time>
      </trkpt>
      <trkpt lat="51.688856966793537" lon="0.730795003473759">
        <ele>3</ele>
        <time>2018-02-17T09:36:46Z</time>
      </trkpt>
      <trkpt lat="51.688838023692369" lon="0.730807995423675">
        <ele>3</ele>
        <time>2018-02-17T09:36:47Z</time>
      </trkpt>
      <trkpt lat="51.688815979287028" lon="0.730822999030352">
        <ele>3</ele>
        <time>2018-02-17T09:36:48Z</time>
      </trkpt>
      <trkpt lat="51.688794018700719" lon="0.730834985151887">
        <ele>3</ele>
        <time>2018-02-17T09:36:49Z</time>
      </trkpt>
      <trkpt lat="51.688771974295378" lon="0.730846971273422">
        <ele>3</ele>
        <time>2018-02-17T09:36:50Z</time>
      </trkpt>
      <trkpt lat="51.688749007880688" lon="0.730856023728848">
        <ele>3</ele>
        <time>2018-02-17T09:36:51Z</time>
      </trkpt>
      <trkpt lat="51.688728975132108" lon="0.73086398653686">
        <ele>3</ele>
        <time>2018-02-17T09:36:52Z</time>
      </trkpt>
      <trkpt lat="51.688706008717418" lon="0.730876978486776">
        <ele>2.7500032</ele>
        <time>2018-02-17T09:36:53Z</time>
      </trkpt>
      <trkpt lat="51.688684970140457" lon="0.730888964608312">
        <ele>2</ele>
        <time>2018-02-17T09:36:54Z</time>
      </trkpt>
      <trkpt lat="51.688665021210909" lon="0.730901034548879">
        <ele>2</ele>
        <time>2018-02-17T09:36:55Z</time>
      </trkpt>
      <trkpt lat="51.688641970977187" lon="0.730914026498795">
        <ele>2</ele>
        <time>2018-02-17T09:36:56Z</time>
      </trkpt>
      <trkpt lat="51.688622022047639" lon="0.730928024277091">
        <ele>2</ele>
        <time>2018-02-17T09:36:57Z</time>
      </trkpt>
      <trkpt lat="51.688599977642298" lon="0.730944033712149">
        <ele>3</ele>
        <time>2018-02-17T09:36:58Z</time>
      </trkpt>
      <trkpt lat="51.688579022884369" lon="0.730957025662065">
        <ele>3</ele>
        <time>2018-02-17T09:36:59Z</time>
      </trkpt>
      <trkpt lat="51.688558990135789" lon="0.7309690117836">
        <ele>3</ele>
        <time>2018-02-17T09:37:00Z</time>
      </trkpt>
      <trkpt lat="51.688537029549479" lon="0.730983009561896">
        <ele>3</ele>
        <time>2018-02-17T09:37:01Z</time>
      </trkpt>
      <trkpt lat="51.6885169968009" lon="0.730996001511812">
        <ele>3</ele>
        <time>2018-02-17T09:37:02Z</time>
      </trkpt>
      <trkpt lat="51.688494030386209" lon="0.731006981804967">
        <ele>3</ele>
        <time>2018-02-17T09:37:03Z</time>
      </trkpt>
      <trkpt lat="51.688471985980868" lon="0.731018967926502">
        <ele>3</ele>
        <time>2018-02-17T09:37:04Z</time>
      </trkpt>
      <trkpt lat="51.688451031222939" lon="0.731031959876418">
        <ele>3</ele>
        <time>2018-02-17T09:37:05Z</time>
      </trkpt>
      <trkpt lat="51.688428986817598" lon="0.731046963483095">
        <ele>3</ele>
        <time>2018-02-17T09:37:06Z</time>
      </trkpt>
      <trkpt lat="51.688406020402908" lon="0.731059033423662">
        <ele>2.79798045097228</ele>
        <time>2018-02-17T09:37:07Z</time>
      </trkpt>
      <trkpt lat="51.688383975997567" lon="0.731073031201959">
        <ele>2</ele>
        <time>2018-02-17T09:37:08Z</time>
      </trkpt>
      <trkpt lat="51.688362015411258" lon="0.731085017323494">
        <ele>2.20201954902772</ele>
        <time>2018-02-17T09:37:09Z</time>
      </trkpt>
      <trkpt lat="51.688341982662678" lon="0.731093985959888">
        <ele>3</ele>
        <time>2018-02-17T09:37:10Z</time>
      </trkpt>
      <trkpt lat="51.688320022076368" lon="0.731105972081423">
        <ele>3</ele>
        <time>2018-02-17T09:37:11Z</time>
      </trkpt>
      <trkpt lat="51.688296971842647" lon="0.731117036193609">
        <ele>3</ele>
        <time>2018-02-17T09:37:12Z</time>
      </trkpt>
      <trkpt lat="51.688274005427957" lon="0.731124999001622">
        <ele>2.8</ele>
        <time>2018-02-17T09:37:13Z</time>
      </trkpt>
      <trkpt lat="51.688251039013267" lon="0.731136985123158">
        <ele>2</ele>
        <time>2018-02-17T09:37:14Z</time>
      </trkpt>
      <trkpt lat="51.688228994607925" lon="0.731148971244693">
        <ele>2</ele>
        <time>2018-02-17T09:37:15Z</time>
      </trkpt>
      <trkpt lat="51.688207034021616" lon="0.73116397485137">
        <ele>2</ele>
        <time>2018-02-17T09:37:16Z</time>
      </trkpt>
      <trkpt lat="51.688184989616275" lon="0.731176966801286">
        <ele>2</ele>
        <time>2018-02-17T09:37:17Z</time>
      </trkpt>
      <trkpt lat="51.688165040686727" lon="0.731189036741853">
        <ele>2</ele>
        <time>2018-02-17T09:37:18Z</time>
      </trkpt>
      <trkpt lat="51.688144002109766" lon="0.731203034520149">
        <ele>2</ele>
        <time>2018-02-17T09:37:19Z</time>
      </trkpt>
      <trkpt lat="51.688124975189567" lon="0.731213008984923">
        <ele>2</ele>
        <time>2018-02-17T09:37:20Z</time>
      </trkpt>
      <trkpt lat="51.688104020431638" lon="0.731221977621317">
        <ele>2</ele>
        <time>2018-02-17T09:37:21Z</time>
      </trkpt>
      <trkpt lat="51.688082981854677" lon="0.731232035905123">
        <ele>2</ele>
        <time>2018-02-17T09:37:22Z</time>
      </trkpt>
      <trkpt lat="51.688062027096748" lon="0.731246033683419">
        <ele>2</ele>
        <time>2018-02-17T09:37:23Z</time>
      </trkpt>
      <trkpt lat="51.688038976863027" lon="0.731260031461716">
        <ele>2</ele>
        <time>2018-02-17T09:37:24Z</time>
      </trkpt>
      <trkpt lat="51.688016010448337" lon="0.731274029240012">
        <ele>2</ele>
        <time>2018-02-17T09:37:25Z</time>
      </trkpt>
      <trkpt lat="51.687992960214615" lon="0.731285009533167">
        <ele>2</ele>
        <time>2018-02-17T09:37:26Z</time>
      </trkpt>
      <trkpt lat="51.687970999628305" lon="0.731300013139844">
        <ele>2</ele>
        <time>2018-02-17T09:37:27Z</time>
      </trkpt>
      <trkpt lat="51.687950966879725" lon="0.731311999261379">
        <ele>2</ele>
        <time>2018-02-17T09:37:28Z</time>
      </trkpt>
      <trkpt lat="51.687930012121797" lon="0.731325997039676">
        <ele>2</ele>
        <time>2018-02-17T09:37:29Z</time>
      </trkpt>
      <trkpt lat="51.687908973544836" lon="0.731337983161211">
        <ele>2</ele>
        <time>2018-02-17T09:37:30Z</time>
      </trkpt>
      <trkpt lat="51.687890030443668" lon="0.731349969282746">
        <ele>2</ele>
        <time>2018-02-17T09:37:31Z</time>
      </trkpt>
      <trkpt lat="51.687867986038327" lon="0.731362039223313">
        <ele>2</ele>
        <time>2018-02-17T09:37:32Z</time>
      </trkpt>
      <trkpt lat="51.687848959118128" lon="0.731373019516468">
        <ele>2</ele>
        <time>2018-02-17T09:37:33Z</time>
      </trkpt>
      <trkpt lat="51.68782901018858" lon="0.731385005638003">
        <ele>2</ele>
        <time>2018-02-17T09:37:34Z</time>
      </trkpt>
      <trkpt lat="51.68780897744" lon="0.731393974274397">
        <ele>2</ele>
        <time>2018-02-17T09:37:35Z</time>
      </trkpt>
      <trkpt lat="51.687788022682071" lon="0.731405960395932">
        <ele>2</ele>
        <time>2018-02-17T09:37:36Z</time>
      </trkpt>
      <trkpt lat="51.68776597827673" lon="0.731416018679738">
        <ele>2</ele>
        <time>2018-02-17T09:37:37Z</time>
      </trkpt>
      <trkpt lat="51.68774301186204" lon="0.731424987316132">
        <ele>2</ele>
        <time>2018-02-17T09:37:38Z</time>
      </trkpt>
      <trkpt lat="51.687721973285079" lon="0.731436973437667">
        <ele>2</ele>
        <time>2018-02-17T09:37:39Z</time>
      </trkpt>
      <trkpt lat="51.68770001269877" lon="0.731452982872725">
        <ele>2</ele>
        <time>2018-02-17T09:37:40Z</time>
      </trkpt>
      <trkpt lat="51.687678974121809" lon="0.73146496899426">
        <ele>2</ele>
        <time>2018-02-17T09:37:41Z</time>
      </trkpt>
      <trkpt lat="51.6876570135355" lon="0.731478966772556">
        <ele>2</ele>
        <time>2018-02-17T09:37:42Z</time>
      </trkpt>
      <trkpt lat="51.687635974958539" lon="0.731491958722472">
        <ele>2</ele>
        <time>2018-02-17T09:37:43Z</time>
      </trkpt>
      <trkpt lat="51.68761502020061" lon="0.731500005349517">
        <ele>2</ele>
        <time>2018-02-17T09:37:44Z</time>
      </trkpt>
      <trkpt lat="51.68759398162365" lon="0.731510985642672">
        <ele>2</ele>
        <time>2018-02-17T09:37:45Z</time>
      </trkpt>
      <trkpt lat="51.687573026865721" lon="0.731523977592587">
        <ele>2</ele>
        <time>2018-02-17T09:37:46Z</time>
      </trkpt>
      <trkpt lat="51.687552994117141" lon="0.731537975370884">
        <ele>2</ele>
        <time>2018-02-17T09:37:47Z</time>
      </trkpt>
      <trkpt lat="51.687530027702451" lon="0.731549961492419">
        <ele>2</ele>
        <time>2018-02-17T09:37:48Z</time>
      </trkpt>
      <trkpt lat="51.687506977468729" lon="0.731561025604606">
        <ele>2</ele>
        <time>2018-02-17T09:37:49Z</time>
      </trkpt>
      <trkpt lat="51.687484011054039" lon="0.73157200589776">
        <ele>2</ele>
        <time>2018-02-17T09:37:50Z</time>
      </trkpt>
      <trkpt lat="51.68746498413384" lon="0.731582986190915">
        <ele>2</ele>
        <time>2018-02-17T09:37:51Z</time>
      </trkpt>
      <trkpt lat="51.687444029375911" lon="0.731595978140831">
        <ele>2</ele>
        <time>2018-02-17T09:37:52Z</time>
      </trkpt>
      <trkpt lat="51.68742299079895" lon="0.731607964262366">
        <ele>2</ele>
        <time>2018-02-17T09:37:53Z</time>
      </trkpt>
      <trkpt lat="51.687401030212641" lon="0.731620034202933">
        <ele>2</ele>
        <time>2018-02-17T09:37:54Z</time>
      </trkpt>
      <trkpt lat="51.6873789858073" lon="0.731633026152849">
        <ele>2</ele>
        <time>2018-02-17T09:37:55Z</time>
      </trkpt>
      <trkpt lat="51.6873599588871" lon="0.731645012274385">
        <ele>2</ele>
        <time>2018-02-17T09:37:56Z</time>
      </trkpt>
      <trkpt lat="51.687339004129171" lon="0.731654986739159">
        <ele>2</ele>
        <time>2018-02-17T09:37:57Z</time>
      </trkpt>
      <trkpt lat="51.687316037714481" lon="0.731666972860694">
        <ele>2</ele>
        <time>2018-02-17T09:37:58Z</time>
      </trkpt>
      <trkpt lat="51.687296004965901" lon="0.731678958982229">
        <ele>2</ele>
        <time>2018-02-17T09:37:59Z</time>
      </trkpt>
      <trkpt lat="51.687273038551211" lon="0.731693962588906">
        <ele>2</ele>
        <time>2018-02-17T09:38:00Z</time>
      </trkpt>
      <trkpt lat="51.687251999974251" lon="0.731706032529473">
        <ele>2</ele>
        <time>2018-02-17T09:38:01Z</time>
      </trkpt>
      <trkpt lat="51.687229033559561" lon="0.731719024479389">
        <ele>2</ele>
        <time>2018-02-17T09:38:02Z</time>
      </trkpt>
      <trkpt lat="51.68720698915422" lon="0.731731010600924">
        <ele>2</ele>
        <time>2018-02-17T09:38:03Z</time>
      </trkpt>
      <trkpt lat="51.687187040224671" lon="0.731741990894079">
        <ele>2</ele>
        <time>2018-02-17T09:38:04Z</time>
      </trkpt>
      <trkpt lat="51.687166001647711" lon="0.731754982843995">
        <ele>2</ele>
        <time>2018-02-17T09:38:05Z</time>
      </trkpt>
      <trkpt lat="51.68714496307075" lon="0.73176596313715">
        <ele>2</ele>
        <time>2018-02-17T09:38:06Z</time>
      </trkpt>
      <trkpt lat="51.687123002484441" lon="0.731779960915446">
        <ele>2</ele>
        <time>2018-02-17T09:38:07Z</time>
      </trkpt>
      <trkpt lat="51.68710196390748" lon="0.731791025027633">
        <ele>2</ele>
        <time>2018-02-17T09:38:08Z</time>
      </trkpt>
      <trkpt lat="51.687081009149551" lon="0.731804016977549">
        <ele>2</ele>
        <time>2018-02-17T09:38:09Z</time>
      </trkpt>
      <trkpt lat="51.68705896474421" lon="0.731818014755845">
        <ele>2</ele>
        <time>2018-02-17T09:38:10Z</time>
      </trkpt>
      <trkpt lat="51.687041027471423" lon="0.731832012534142">
        <ele>2</ele>
        <time>2018-02-17T09:38:11Z</time>
      </trkpt>
      <trkpt lat="51.687022000551224" lon="0.731845004484057">
        <ele>2</ele>
        <time>2018-02-17T09:38:12Z</time>
      </trkpt>
      <trkpt lat="51.687000039964914" lon="0.731857996433973">
        <ele>2</ele>
        <time>2018-02-17T09:38:13Z</time>
      </trkpt>
      <trkpt lat="51.686980007216334" lon="0.731869982555509">
        <ele>2</ele>
        <time>2018-02-17T09:38:14Z</time>
      </trkpt>
      <trkpt lat="51.686957962810993" lon="0.731884986162186">
        <ele>2</ele>
        <time>2018-02-17T09:38:15Z</time>
      </trkpt>
      <trkpt lat="51.686936002224684" lon="0.731898983940482">
        <ele>2</ele>
        <time>2018-02-17T09:38:16Z</time>
      </trkpt>
      <trkpt lat="51.686915969476104" lon="0.731910970062017">
        <ele>2</ele>
        <time>2018-02-17T09:38:17Z</time>
      </trkpt>
      <trkpt lat="51.686894008889794" lon="0.731923040002584">
        <ele>2</ele>
        <time>2018-02-17T09:38:18Z</time>
      </trkpt>
      <trkpt lat="51.686875987797976" lon="0.731933014467359">
        <ele>2</ele>
        <time>2018-02-17T09:38:19Z</time>
      </trkpt>
      <trkpt lat="51.686855033040047" lon="0.731943994760513">
        <ele>2</ele>
        <time>2018-02-17T09:38:20Z</time>
      </trkpt>
      <trkpt lat="51.686835000291467" lon="0.731953969225287">
        <ele>2</ele>
        <time>2018-02-17T09:38:21Z</time>
      </trkpt>
      <trkpt lat="51.686813961714506" lon="0.731963021680713">
        <ele>2</ele>
        <time>2018-02-17T09:38:22Z</time>
      </trkpt>
      <trkpt lat="51.686792001128197" lon="0.731975007802248">
        <ele>2</ele>
        <time>2018-02-17T09:38:23Z</time>
      </trkpt>
      <trkpt lat="51.686770962551236" lon="0.731985988095403">
        <ele>2</ele>
        <time>2018-02-17T09:38:24Z</time>
      </trkpt>
      <trkpt lat="51.686751013621688" lon="0.731995962560177">
        <ele>2</ele>
        <time>2018-02-17T09:38:25Z</time>
      </trkpt>
      <trkpt lat="51.686729975044727" lon="0.732009038329124">
        <ele>2</ele>
        <time>2018-02-17T09:38:26Z</time>
      </trkpt>
      <trkpt lat="51.686707008630037" lon="0.73202395811677">
        <ele>2</ele>
        <time>2018-02-17T09:38:27Z</time>
      </trkpt>
      <trkpt lat="51.686684964224696" lon="0.732037033885717">
        <ele>2</ele>
        <time>2018-02-17T09:38:28Z</time>
      </trkpt>
      <trkpt lat="51.686664009466767" lon="0.732050025835633">
        <ele>2</ele>
        <time>2018-02-17T09:38:29Z</time>
      </trkpt>
      <trkpt lat="51.686640959233046" lon="0.732058994472027">
        <ele>2</ele>
        <time>2018-02-17T09:38:30Z</time>
      </trkpt>
      <trkpt lat="51.686620004475117" lon="0.732069974765182">
        <ele>2</ele>
        <time>2018-02-17T09:38:31Z</time>
      </trkpt>
      <trkpt lat="51.686600977554917" lon="0.732083972543478">
        <ele>2</ele>
        <time>2018-02-17T09:38:32Z</time>
      </trkpt>
      <trkpt lat="51.686580022796988" lon="0.732099981978536">
        <ele>2</ele>
        <time>2018-02-17T09:38:33Z</time>
      </trkpt>
      <trkpt lat="51.686560995876789" lon="0.73211096227169">
        <ele>2</ele>
        <time>2018-02-17T09:38:34Z</time>
      </trkpt>
      <trkpt lat="51.686543980613351" lon="0.732123032212257">
        <ele>2</ele>
        <time>2018-02-17T09:38:35Z</time>
      </trkpt>
      <trkpt lat="51.686524031683803" lon="0.732136024162173">
        <ele>2</ele>
        <time>2018-02-17T09:38:36Z</time>
      </trkpt>
      <trkpt lat="51.686503998935223" lon="0.732148010283709">
        <ele>2</ele>
        <time>2018-02-17T09:38:37Z</time>
      </trkpt>
      <trkpt lat="51.686482960358262" lon="0.732161002233624">
        <ele>2</ele>
        <time>2018-02-17T09:38:38Z</time>
      </trkpt>
      <trkpt lat="51.686458988115191" lon="0.732175000011921">
        <ele>2</ele>
        <time>2018-02-17T09:38:39Z</time>
      </trkpt>
      <trkpt lat="51.686439961194992" lon="0.732185980305076">
        <ele>2</ele>
        <time>2018-02-17T09:38:40Z</time>
      </trkpt>
      <trkpt lat="51.686416994780302" lon="0.732198972254992">
        <ele>2</ele>
        <time>2018-02-17T09:38:41Z</time>
      </trkpt>
      <trkpt lat="51.686396040022373" lon="0.732210958376527">
        <ele>2</ele>
        <time>2018-02-17T09:38:42Z</time>
      </trkpt>
      <trkpt lat="51.686376007273793" lon="0.732223028317094">
        <ele>2</ele>
        <time>2018-02-17T09:38:43Z</time>
      </trkpt>
      <trkpt lat="51.686354968696833" lon="0.73223702609539">
        <ele>2</ele>
        <time>2018-02-17T09:38:44Z</time>
      </trkpt>
      <trkpt lat="51.686335019767284" lon="0.732249012216926">
        <ele>2</ele>
        <time>2018-02-17T09:38:45Z</time>
      </trkpt>
      <trkpt lat="51.686312975361943" lon="0.732260998338461">
        <ele>2</ele>
        <time>2018-02-17T09:38:46Z</time>
      </trkpt>
      <trkpt lat="51.686291014775634" lon="0.732271978631616">
        <ele>2</ele>
        <time>2018-02-17T09:38:47Z</time>
      </trkpt>
      <trkpt lat="51.686269976198673" lon="0.732283964753151">
        <ele>2</ele>
        <time>2018-02-17T09:38:48Z</time>
      </trkpt>
      <trkpt lat="51.686248015612364" lon="0.732297040522099">
        <ele>1.7319491042603</ele>
        <time>2018-02-17T09:38:49Z</time>
      </trkpt>
      <trkpt lat="51.686228988692164" lon="0.732308020815253">
        <ele>1</ele>
        <time>2018-02-17T09:38:50Z</time>
      </trkpt>
      <trkpt lat="51.686207028105855" lon="0.732321012765169">
        <ele>1</ele>
        <time>2018-02-17T09:38:51Z</time>
      </trkpt>
      <trkpt lat="51.686183977872133" lon="0.732331993058324">
        <ele>1</ele>
        <time>2018-02-17T09:38:52Z</time>
      </trkpt>
      <trkpt lat="51.686163023114204" lon="0.732343979179859">
        <ele>1</ele>
        <time>2018-02-17T09:38:53Z</time>
      </trkpt>
      <trkpt lat="51.686143996194005" lon="0.732355965301394">
        <ele>1</ele>
        <time>2018-02-17T09:38:54Z</time>
      </trkpt>
      <trkpt lat="51.686125975102186" lon="0.732367029413581">
        <ele>1.24137474436876</ele>
        <time>2018-02-17T09:38:55Z</time>
      </trkpt>
      <trkpt lat="51.686108959838748" lon="0.732380021363497">
        <ele>2</ele>
        <time>2018-02-17T09:38:56Z</time>
      </trkpt>
      <trkpt lat="51.686091022565961" lon="0.732392007485032">
        <ele>2</ele>
        <time>2018-02-17T09:38:57Z</time>
      </trkpt>
      <trkpt lat="51.686073001474142" lon="0.732403993606567">
        <ele>2</ele>
        <time>2018-02-17T09:38:58Z</time>
      </trkpt>
      <trkpt lat="51.686053974553943" lon="0.732415979728103">
        <ele>2</ele>
        <time>2018-02-17T09:38:59Z</time>
      </trkpt>
      <trkpt lat="51.686034025624394" lon="0.732425032183528">
        <ele>1.66000204802621</ele>
        <time>2018-02-17T09:39:00Z</time>
      </trkpt>
      <trkpt lat="51.686016004532576" lon="0.732434000819921">
        <ele>1</ele>
        <time>2018-02-17T09:39:01Z</time>
      </trkpt>
      <trkpt lat="51.685997983440757" lon="0.732444981113076">
        <ele>1</ele>
        <time>2018-02-17T09:39:02Z</time>
      </trkpt>
      <trkpt lat="51.685979962348938" lon="0.732455039396882">
        <ele>1</ele>
        <time>2018-02-17T09:39:03Z</time>
      </trkpt>
      <trkpt lat="51.685959007591009" lon="0.732480017468333">
        <ele>1</ele>
        <time>2018-02-17T09:39:05Z</time>
      </trkpt>
      <trkpt lat="51.685962025076151" lon="0.732530979439616">
        <ele>1</ele>
        <time>2018-02-17T09:39:07Z</time>
      </trkpt>
      <trkpt lat="51.685975017026067" lon="0.732584036886692">
        <ele>1</ele>
        <time>2018-02-17T09:39:09Z</time>
      </trkpt>
      <trkpt lat="51.685990020632744" lon="0.732637010514736">
        <ele>1</ele>
        <time>2018-02-17T09:39:11Z</time>
      </trkpt>
      <trkpt lat="51.685997983440757" lon="0.73266701772809">
        <ele>1</ele>
        <time>2018-02-17T09:39:12Z</time>
      </trkpt>
      <trkpt lat="51.686013992875814" lon="0.732718985527754">
        <ele>1</ele>
        <time>2018-02-17T09:39:14Z</time>
      </trkpt>
      <trkpt lat="51.68602597899735" lon="0.732747986912727">
        <ele>1</ele>
        <time>2018-02-17T09:39:15Z</time>
      </trkpt>
      <trkpt lat="51.686036037281156" lon="0.732776988297701">
        <ele>1.07041898031297</ele>
        <time>2018-02-17T09:39:16Z</time>
      </trkpt>
      <trkpt lat="51.686049029231071" lon="0.732802972197533">
        <ele>2</ele>
        <time>2018-02-17T09:39:17Z</time>
      </trkpt>
      <trkpt lat="51.686060009524226" lon="0.732832979410887">
        <ele>2</ele>
        <time>2018-02-17T09:39:18Z</time>
      </trkpt>
      <trkpt lat="51.686070989817381" lon="0.732863992452621">
        <ele>1.84693650980238</ele>
        <time>2018-02-17T09:39:19Z</time>
      </trkpt>
      <trkpt lat="51.686078030616045" lon="0.732896011322737">
        <ele>1</ele>
        <time>2018-02-17T09:39:20Z</time>
      </trkpt>
      <trkpt lat="51.686088005080819" lon="0.73292400687933">
        <ele>1</ele>
        <time>2018-02-17T09:39:21Z</time>
      </trkpt>
      <trkpt lat="51.686097979545593" lon="0.732952002435923">
        <ele>1</ele>
        <time>2018-02-17T09:39:22Z</time>
      </trkpt>
      <trkpt lat="51.686105020344257" lon="0.732985027134418">
        <ele>1</ele>
        <time>2018-02-17T09:39:23Z</time>
      </trkpt>
      <trkpt lat="51.68611197732389" lon="0.733015034347773">
        <ele>1</ele>
        <time>2018-02-17T09:39:24Z</time>
      </trkpt>
      <trkpt lat="51.686122035607696" lon="0.733042024075985">
        <ele>1</ele>
        <time>2018-02-17T09:39:25Z</time>
      </trkpt>
      <trkpt lat="51.686131004244089" lon="0.733087034896016">
        <ele>1</ele>
        <time>2018-02-17T09:39:27Z</time>
      </trkpt>
      <trkpt lat="51.686137961223722" lon="0.733122993260622">
        <ele>1</ele>
        <time>2018-02-17T09:39:29Z</time>
      </trkpt>
      <trkpt lat="51.686148019507527" lon="0.73316004127264">
        <ele>1</ele>
        <time>2018-02-17T09:39:31Z</time>
      </trkpt>
      <trkpt lat="51.686158999800682" lon="0.733203962445259">
        <ele>1</ele>
        <time>2018-02-17T09:39:33Z</time>
      </trkpt>
      <trkpt lat="51.686166962608695" lon="0.733240004628897">
        <ele>1</ele>
        <time>2018-02-17T09:39:35Z</time>
      </trkpt>
      <trkpt lat="51.686180960386992" lon="0.733280992135406">
        <ele>1</ele>
        <time>2018-02-17T09:39:37Z</time>
      </trkpt>
      <trkpt lat="51.686194036155939" lon="0.733322985470295">
        <ele>1</ele>
        <time>2018-02-17T09:39:39Z</time>
      </trkpt>
      <trkpt lat="51.686206022277474" lon="0.733364978805184">
        <ele>1</ele>
        <time>2018-02-17T09:39:41Z</time>
      </trkpt>
      <trkpt lat="51.68621800839901" lon="0.733404960483313">
        <ele>1</ele>
        <time>2018-02-17T09:39:43Z</time>
      </trkpt>
      <trkpt lat="51.686225971207023" lon="0.733443014323711">
        <ele>1</ele>
        <time>2018-02-17T09:39:45Z</time>
      </trkpt>
      <trkpt lat="51.686235023662448" lon="0.733481990173459">
        <ele>1</ele>
        <time>2018-02-17T09:39:47Z</time>
      </trkpt>
      <trkpt lat="51.68623804114759" lon="0.733517026528716">
        <ele>1</ele>
        <time>2018-02-17T09:39:49Z</time>
      </trkpt>
      <trkpt lat="51.686243992298841" lon="0.733562959358096">
        <ele>1</ele>
        <time>2018-02-17T09:39:51Z</time>
      </trkpt>
      <trkpt lat="51.686253966763616" lon="0.733604030683637">
        <ele>1</ele>
        <time>2018-02-17T09:39:53Z</time>
      </trkpt>
      <trkpt lat="51.68626201339066" lon="0.733634037896991">
        <ele>1</ele>
        <time>2018-02-17T09:39:55Z</time>
      </trkpt>
      <trkpt lat="51.686268970370293" lon="0.733668990433216">
        <ele>1</ele>
        <time>2018-02-17T09:39:57Z</time>
      </trkpt>
      <trkpt lat="51.686277016997337" lon="0.733704026788473">
        <ele>1</ele>
        <time>2018-02-17T09:39:59Z</time>
      </trkpt>
      <trkpt lat="51.686285985633731" lon="0.733731016516685">
        <ele>2</ele>
        <time>2018-02-17T09:40:01Z</time>
      </trkpt>
      <trkpt lat="51.686300989240408" lon="0.73376496322453">
        <ele>2</ele>
        <time>2018-02-17T09:40:03Z</time>
      </trkpt>
      <trkpt lat="51.686311969533563" lon="0.733801005408168">
        <ele>2</ele>
        <time>2018-02-17T09:40:05Z</time>
      </trkpt>
      <trkpt lat="51.686316998675466" lon="0.733838975429535">
        <ele>2</ele>
        <time>2018-02-17T09:40:07Z</time>
      </trkpt>
      <trkpt lat="51.686323033645749" lon="0.733876023441553">
        <ele>2</ele>
        <time>2018-02-17T09:40:09Z</time>
      </trkpt>
      <trkpt lat="51.686332002282143" lon="0.733914999291301">
        <ele>1</ele>
        <time>2018-02-17T09:40:11Z</time>
      </trkpt>
      <trkpt lat="51.686343988403678" lon="0.733946012333035">
        <ele>1</ele>
        <time>2018-02-17T09:40:13Z</time>
      </trkpt>
      <trkpt lat="51.686356980353594" lon="0.733979037031531">
        <ele>1.18750666666667</ele>
        <time>2018-02-17T09:40:15Z</time>
      </trkpt>
      <trkpt lat="51.686364021152258" lon="0.734010972082615">
        <ele>2</ele>
        <time>2018-02-17T09:40:17Z</time>
      </trkpt>
      <trkpt lat="51.686376007273793" lon="0.734050031751394">
        <ele>2</ele>
        <time>2018-02-17T09:40:19Z</time>
      </trkpt>
      <trkpt lat="51.686382964253426" lon="0.734088001772761">
        <ele>2</ele>
        <time>2018-02-17T09:40:21Z</time>
      </trkpt>
      <trkpt lat="51.686392016708851" lon="0.734123960137367">
        <ele>2</ele>
        <time>2018-02-17T09:40:23Z</time>
      </trkpt>
      <trkpt lat="51.686400985345244" lon="0.734158996492624">
        <ele>1.7900032</ele>
        <time>2018-02-17T09:40:25Z</time>
      </trkpt>
      <trkpt lat="51.686409031972289" lon="0.734195038676262">
        <ele>1</ele>
        <time>2018-02-17T09:40:27Z</time>
      </trkpt>
      <trkpt lat="51.686414983123541" lon="0.734228985384107">
        <ele>1</ele>
        <time>2018-02-17T09:40:29Z</time>
      </trkpt>
      <trkpt lat="51.686424035578966" lon="0.734262010082603">
        <ele>1</ele>
        <time>2018-02-17T09:40:31Z</time>
      </trkpt>
      <trkpt lat="51.686431998386979" lon="0.734295034781098">
        <ele>1</ele>
        <time>2018-02-17T09:40:33Z</time>
      </trkpt>
      <trkpt lat="51.686438033357263" lon="0.734330993145704">
        <ele>1.1500032</ele>
        <time>2018-02-17T09:40:35Z</time>
      </trkpt>
      <trkpt lat="51.686441972851753" lon="0.73436301201582">
        <ele>2</ele>
        <time>2018-02-17T09:40:37Z</time>
      </trkpt>
      <trkpt lat="51.686451025307178" lon="0.734394025057554">
        <ele>2</ele>
        <time>2018-02-17T09:40:39Z</time>
      </trkpt>
      <trkpt lat="51.686462005600333" lon="0.73442897759378">
        <ele>1.8499968</ele>
        <time>2018-02-17T09:40:41Z</time>
      </trkpt>
      <trkpt lat="51.686474997550249" lon="0.734456973150373">
        <ele>1</ele>
        <time>2018-02-17T09:40:43Z</time>
      </trkpt>
      <trkpt lat="51.686491006985307" lon="0.734486980363727">
        <ele>1</ele>
        <time>2018-02-17T09:40:45Z</time>
      </trkpt>
      <trkpt lat="51.686506010591984" lon="0.734516987577081">
        <ele>1</ele>
        <time>2018-02-17T09:40:47Z</time>
      </trkpt>
      <trkpt lat="51.686495030298829" lon="0.734545988962054">
        <ele>0</ele>
        <time>2018-02-17T09:41:16Z</time>
      </trkpt>
      <trkpt lat="51.686486983671784" lon="0.734572978690267">
        <ele>0.183668138240903</ele>
        <time>2018-02-17T09:41:18Z</time>
      </trkpt>
      <trkpt lat="51.686473991721869" lon="0.734609020873904">
        <ele>1</ele>
        <time>2018-02-17T09:41:21Z</time>
      </trkpt>
      <trkpt lat="51.686460999771953" lon="0.73464397341013">
        <ele>1</ele>
        <time>2018-02-17T09:41:24Z</time>
      </trkpt>
      <trkpt lat="51.686458988115191" lon="0.734682027250528">
        <ele>2</ele>
        <time>2018-02-17T09:41:28Z</time>
      </trkpt>
      <trkpt lat="51.686451025307178" lon="0.734713040292263">
        <ele>2</ele>
        <time>2018-02-17T09:41:31Z</time>
      </trkpt>
      <trkpt lat="51.686467034742236" lon="0.734741035848856">
        <ele>2</ele>
        <time>2018-02-17T09:41:34Z</time>
      </trkpt>
      <trkpt lat="51.686490001156926" lon="0.734753021970391">
        <ele>2</ele>
        <time>2018-02-17T09:41:37Z</time>
      </trkpt>
      <trkpt lat="51.686506010591984" lon="0.734767019748688">
        <ele>2</ele>
        <time>2018-02-17T09:41:39Z</time>
      </trkpt>
      <trkpt lat="51.686526965349913" lon="0.734785040840507">
        <ele>2</ele>
        <time>2018-02-17T09:41:41Z</time>
      </trkpt>
      <trkpt lat="51.686551021412015" lon="0.734802978113294">
        <ele>2</ele>
        <time>2018-02-17T09:41:43Z</time>
      </trkpt>
      <trkpt lat="51.686570970341563" lon="0.734820999205112">
        <ele>2</ele>
        <time>2018-02-17T09:41:45Z</time>
      </trkpt>
      <trkpt lat="51.686589997261763" lon="0.73483600281179">
        <ele>2</ele>
        <time>2018-02-17T09:41:47Z</time>
      </trkpt>
      <trkpt lat="51.686613969504833" lon="0.734861986711621">
        <ele>2</ele>
        <time>2018-02-17T09:41:49Z</time>
      </trkpt>
      <trkpt lat="51.686631990596652" lon="0.734895011410117">
        <ele>2</ele>
        <time>2018-02-17T09:41:51Z</time>
      </trkpt>
      <trkpt lat="51.686644982546568" lon="0.734924012795091">
        <ele>2</ele>
        <time>2018-02-17T09:41:53Z</time>
      </trkpt>
      <trkpt lat="51.686657974496484" lon="0.734951002523303">
        <ele>2</ele>
        <time>2018-02-17T09:41:55Z</time>
      </trkpt>
      <trkpt lat="51.6866709664464" lon="0.734980003908277">
        <ele>2</ele>
        <time>2018-02-17T09:41:57Z</time>
      </trkpt>
      <trkpt lat="51.686682030558586" lon="0.735011016950011">
        <ele>2</ele>
        <time>2018-02-17T09:41:59Z</time>
      </trkpt>
      <trkpt lat="51.686697034165263" lon="0.735058961436152">
        <ele>2</ele>
        <time>2018-02-17T09:42:01Z</time>
      </trkpt>
      <trkpt lat="51.686703991144896" lon="0.735088968649507">
        <ele>2</ele>
        <time>2018-02-17T09:42:02Z</time>
      </trkpt>
      <trkpt lat="51.68671103194356" lon="0.735120987519622">
        <ele>2</ele>
        <time>2018-02-17T09:42:03Z</time>
      </trkpt>
      <trkpt lat="51.686718994751573" lon="0.735153006389737">
        <ele>2</ele>
        <time>2018-02-17T09:42:04Z</time>
      </trkpt>
      <trkpt lat="51.686726035550237" lon="0.735186031088233">
        <ele>2</ele>
        <time>2018-02-17T09:42:05Z</time>
      </trkpt>
      <trkpt lat="51.68673399835825" lon="0.735219977796078">
        <ele>2</ele>
        <time>2018-02-17T09:42:06Z</time>
      </trkpt>
      <trkpt lat="51.686741961166263" lon="0.735253002494574">
        <ele>2</ele>
        <time>2018-02-17T09:42:07Z</time>
      </trkpt>
      <trkpt lat="51.686749001964927" lon="0.735286027193069">
        <ele>2</ele>
        <time>2018-02-17T09:42:08Z</time>
      </trkpt>
      <trkpt lat="51.686755958944559" lon="0.735318968072534">
        <ele>2</ele>
        <time>2018-02-17T09:42:09Z</time>
      </trkpt>
      <trkpt lat="51.686762999743223" lon="0.735354004427791">
        <ele>2</ele>
        <time>2018-02-17T09:42:10Z</time>
      </trkpt>
      <trkpt lat="51.686770962551236" lon="0.735389962792397">
        <ele>2</ele>
        <time>2018-02-17T09:42:11Z</time>
      </trkpt>
      <trkpt lat="51.686779009178281" lon="0.73541896417737">
        <ele>2</ele>
        <time>2018-02-17T09:42:12Z</time>
      </trkpt>
      <trkpt lat="51.686786971986294" lon="0.735446959733963">
        <ele>2</ele>
        <time>2018-02-17T09:42:13Z</time>
      </trkpt>
      <trkpt lat="51.686793006956577" lon="0.735476966947317">
        <ele>2</ele>
        <time>2018-02-17T09:42:14Z</time>
      </trkpt>
      <trkpt lat="51.686810022220016" lon="0.735530024394393">
        <ele>2</ele>
        <time>2018-02-17T09:42:16Z</time>
      </trkpt>
      <trkpt lat="51.686817985028028" lon="0.735562965273857">
        <ele>2</ele>
        <time>2018-02-17T09:42:17Z</time>
      </trkpt>
      <trkpt lat="51.686830976977944" lon="0.735620968043804">
        <ele>2</ele>
        <time>2018-02-17T09:42:19Z</time>
      </trkpt>
      <trkpt lat="51.68684002943337" lon="0.735651981085539">
        <ele>2</ele>
        <time>2018-02-17T09:42:20Z</time>
      </trkpt>
      <trkpt lat="51.686847992241383" lon="0.735682994127274">
        <ele>2</ele>
        <time>2018-02-17T09:42:21Z</time>
      </trkpt>
      <trkpt lat="51.686859978362918" lon="0.735718030482531">
        <ele>2</ele>
        <time>2018-02-17T09:42:22Z</time>
      </trkpt>
      <trkpt lat="51.686867019161582" lon="0.735749965533614">
        <ele>2</ele>
        <time>2018-02-17T09:42:23Z</time>
      </trkpt>
      <trkpt lat="51.686871964484453" lon="0.73578299023211">
        <ele>2</ele>
        <time>2018-02-17T09:42:24Z</time>
      </trkpt>
      <trkpt lat="51.686877999454737" lon="0.735816014930606">
        <ele>2</ele>
        <time>2018-02-17T09:42:25Z</time>
      </trkpt>
      <trkpt lat="51.686882022768259" lon="0.735849961638451">
        <ele>2</ele>
        <time>2018-02-17T09:42:26Z</time>
      </trkpt>
      <trkpt lat="51.68688403442502" lon="0.735883992165327">
        <ele>2</ele>
        <time>2018-02-17T09:42:27Z</time>
      </trkpt>
      <trkpt lat="51.686887973919511" lon="0.735918022692204">
        <ele>2</ele>
        <time>2018-02-17T09:42:28Z</time>
      </trkpt>
      <trkpt lat="51.686891997233033" lon="0.735952975228429">
        <ele>2</ele>
        <time>2018-02-17T09:42:29Z</time>
      </trkpt>
      <trkpt lat="51.686890991404653" lon="0.735989017412066">
        <ele>2</ele>
        <time>2018-02-17T09:42:30Z</time>
      </trkpt>
      <trkpt lat="51.686896020546556" lon="0.736021958291531">
        <ele>2</ele>
        <time>2018-02-17T09:42:31Z</time>
      </trkpt>
      <trkpt lat="51.686899960041046" lon="0.736055988818407">
        <ele>2</ele>
        <time>2018-02-17T09:42:32Z</time>
      </trkpt>
      <trkpt lat="51.686900965869427" lon="0.736090019345284">
        <ele>2</ele>
        <time>2018-02-17T09:42:33Z</time>
      </trkpt>
      <trkpt lat="51.686900965869427" lon="0.736122038215399">
        <ele>2</ele>
        <time>2018-02-17T09:42:34Z</time>
      </trkpt>
      <trkpt lat="51.686899960041046" lon="0.736154979094863">
        <ele>2</ele>
        <time>2018-02-17T09:42:35Z</time>
      </trkpt>
      <trkpt lat="51.686899038031697" lon="0.736191021278501">
        <ele>2</ele>
        <time>2018-02-17T09:42:36Z</time>
      </trkpt>
      <trkpt lat="51.686896020546556" lon="0.736228991299868">
        <ele>2</ele>
        <time>2018-02-17T09:42:37Z</time>
      </trkpt>
      <trkpt lat="51.686894008889794" lon="0.736266961321235">
        <ele>2</ele>
        <time>2018-02-17T09:42:38Z</time>
      </trkpt>
      <trkpt lat="51.686894008889794" lon="0.736303003504872">
        <ele>2</ele>
        <time>2018-02-17T09:42:39Z</time>
      </trkpt>
      <trkpt lat="51.686894008889794" lon="0.736340973526239">
        <ele>2</ele>
        <time>2018-02-17T09:42:40Z</time>
      </trkpt>
      <trkpt lat="51.686893003061414" lon="0.736377015709877">
        <ele>2</ele>
        <time>2018-02-17T09:42:41Z</time>
      </trkpt>
      <trkpt lat="51.686893003061414" lon="0.736412974074483">
        <ele>2</ele>
        <time>2018-02-17T09:42:42Z</time>
      </trkpt>
      <trkpt lat="51.686890991404653" lon="0.736451027914882">
        <ele>2</ele>
        <time>2018-02-17T09:42:43Z</time>
      </trkpt>
      <trkpt lat="51.686889985576272" lon="0.736484974622726">
        <ele>2</ele>
        <time>2018-02-17T09:42:44Z</time>
      </trkpt>
      <trkpt lat="51.686888979747891" lon="0.736521016806364">
        <ele>2</ele>
        <time>2018-02-17T09:42:45Z</time>
      </trkpt>
      <trkpt lat="51.686888979747891" lon="0.736554963514209">
        <ele>2</ele>
        <time>2018-02-17T09:42:46Z</time>
      </trkpt>
      <trkpt lat="51.68688696809113" lon="0.736586982384324">
        <ele>2</ele>
        <time>2018-02-17T09:42:47Z</time>
      </trkpt>
      <trkpt lat="51.686889985576272" lon="0.736622018739581">
        <ele>2</ele>
        <time>2018-02-17T09:42:48Z</time>
      </trkpt>
      <trkpt lat="51.686897026374936" lon="0.736655965447426">
        <ele>2</ele>
        <time>2018-02-17T09:42:49Z</time>
      </trkpt>
      <trkpt lat="51.686904989182949" lon="0.736687984317541">
        <ele>2</ele>
        <time>2018-02-17T09:42:50Z</time>
      </trkpt>
      <trkpt lat="51.686913035809994" lon="0.736717991530895">
        <ele>2</ele>
        <time>2018-02-17T09:42:51Z</time>
      </trkpt>
      <trkpt lat="51.686924016103148" lon="0.736743975430727">
        <ele>2</ele>
        <time>2018-02-17T09:42:52Z</time>
      </trkpt>
      <trkpt lat="51.686932984739542" lon="0.73676903732121">
        <ele>2</ele>
        <time>2018-02-17T09:42:53Z</time>
      </trkpt>
      <trkpt lat="51.686944970861077" lon="0.736795021221042">
        <ele>2</ele>
        <time>2018-02-17T09:42:54Z</time>
      </trkpt>
      <trkpt lat="51.686955029144883" lon="0.736822010949254">
        <ele>2</ele>
        <time>2018-02-17T09:42:55Z</time>
      </trkpt>
      <trkpt lat="51.686967015266418" lon="0.736846989020705">
        <ele>2</ele>
        <time>2018-02-17T09:42:56Z</time>
      </trkpt>
      <trkpt lat="51.686979001387954" lon="0.736872972920537">
        <ele>2</ele>
        <time>2018-02-17T09:42:57Z</time>
      </trkpt>
      <trkpt lat="51.686987970024347" lon="0.7368990406394">
        <ele>2</ele>
        <time>2018-02-17T09:42:58Z</time>
      </trkpt>
      <trkpt lat="51.686999034136534" lon="0.736925024539232">
        <ele>2</ele>
        <time>2018-02-17T09:42:59Z</time>
      </trkpt>
      <trkpt lat="51.687005991116166" lon="0.736953020095825">
        <ele>2</ele>
        <time>2018-02-17T09:43:00Z</time>
      </trkpt>
      <trkpt lat="51.687022000551224" lon="0.737004987895489">
        <ele>2</ele>
        <time>2018-02-17T09:43:02Z</time>
      </trkpt>
      <trkpt lat="51.687031975015998" lon="0.737030971795321">
        <ele>2</ele>
        <time>2018-02-17T09:43:03Z</time>
      </trkpt>
      <trkpt lat="51.687041027471423" lon="0.737057961523533">
        <ele>2</ele>
        <time>2018-02-17T09:43:04Z</time>
      </trkpt>
      <trkpt lat="51.687049996107817" lon="0.737086040899158">
        <ele>2</ele>
        <time>2018-02-17T09:43:05Z</time>
      </trkpt>
      <trkpt lat="51.68705896474421" lon="0.73711403645575">
        <ele>2</ele>
        <time>2018-02-17T09:43:06Z</time>
      </trkpt>
      <trkpt lat="51.687067011371255" lon="0.737143959850073">
        <ele>2</ele>
        <time>2018-02-17T09:43:07Z</time>
      </trkpt>
      <trkpt lat="51.687076985836029" lon="0.73717899620533">
        <ele>2</ele>
        <time>2018-02-17T09:43:08Z</time>
      </trkpt>
      <trkpt lat="51.687084026634693" lon="0.737211015075445">
        <ele>2</ele>
        <time>2018-02-17T09:43:09Z</time>
      </trkpt>
      <trkpt lat="51.687100036069751" lon="0.737274968996644">
        <ele>2</ele>
        <time>2018-02-17T09:43:11Z</time>
      </trkpt>
      <trkpt lat="51.687106993049383" lon="0.737303970381618">
        <ele>2</ele>
        <time>2018-02-17T09:43:12Z</time>
      </trkpt>
      <trkpt lat="51.687118979170918" lon="0.737334983423352">
        <ele>2</ele>
        <time>2018-02-17T09:43:13Z</time>
      </trkpt>
      <trkpt lat="51.687132976949215" lon="0.737362978979945">
        <ele>2</ele>
        <time>2018-02-17T09:43:14Z</time>
      </trkpt>
      <trkpt lat="51.687144041061401" lon="0.737389968708158">
        <ele>2</ele>
        <time>2018-02-17T09:43:15Z</time>
      </trkpt>
      <trkpt lat="51.687154015526175" lon="0.73741796426475">
        <ele>2</ele>
        <time>2018-02-17T09:43:16Z</time>
      </trkpt>
      <trkpt lat="51.687167007476091" lon="0.737463980913162">
        <ele>2</ele>
        <time>2018-02-17T09:43:18Z</time>
      </trkpt>
      <trkpt lat="51.687179999426007" lon="0.737503040581942">
        <ele>2</ele>
        <time>2018-02-17T09:43:21Z</time>
      </trkpt>
      <trkpt lat="51.68718796223402" lon="0.737530030310154">
        <ele>2</ele>
        <time>2018-02-17T09:43:27Z</time>
      </trkpt>
      <trkpt lat="51.687190979719162" lon="0.737571017816663">
        <ele>2</ele>
        <time>2018-02-17T09:43:31Z</time>
      </trkpt>
      <trkpt lat="51.687187040224671" lon="0.737606976181269">
        <ele>2</ele>
        <time>2018-02-17T09:43:34Z</time>
      </trkpt>
      <trkpt lat="51.687187040224671" lon="0.737641006708145">
        <ele>3</ele>
        <time>2018-02-17T09:43:37Z</time>
      </trkpt>
      <trkpt lat="51.687181005254388" lon="0.737657016143203">
        <ele>4</ele>
        <time>2018-02-17T09:43:56Z</time>
      </trkpt>
      <trkpt lat="51.687161978334188" lon="0.737675037235022">
        <ele>4</ele>
        <time>2018-02-17T09:44:00Z</time>
      </trkpt>
      <trkpt lat="51.68714496307075" lon="0.737698003649712">
        <ele>4</ele>
        <time>2018-02-17T09:44:03Z</time>
      </trkpt>
      <trkpt lat="51.687129959464073" lon="0.737717030569911">
        <ele>4.28261172018476</ele>
        <time>2018-02-17T09:44:05Z</time>
      </trkpt>
      <trkpt lat="51.687117973342538" lon="0.737735973671079">
        <ele>5</ele>
        <time>2018-02-17T09:44:07Z</time>
      </trkpt>
      <trkpt lat="51.687105987221003" lon="0.737762041389942">
        <ele>5</ele>
        <time>2018-02-17T09:44:09Z</time>
      </trkpt>
      <trkpt lat="51.687091989442706" lon="0.737792970612645">
        <ele>5</ele>
        <time>2018-02-17T09:44:11Z</time>
      </trkpt>
      <trkpt lat="51.68707799166441" lon="0.737815015017986">
        <ele>4.95</ele>
        <time>2018-02-17T09:44:13Z</time>
      </trkpt>
      <trkpt lat="51.687067011371255" lon="0.737835969775915">
        <ele>4</ele>
        <time>2018-02-17T09:44:15Z</time>
      </trkpt>
      <trkpt lat="51.687049996107817" lon="0.737864971160889">
        <ele>4</ele>
        <time>2018-02-17T09:44:18Z</time>
      </trkpt>
      <trkpt lat="51.687031975015998" lon="0.737896990031004">
        <ele>5</ele>
        <time>2018-02-17T09:44:21Z</time>
      </trkpt>
      <trkpt lat="51.687020994722843" lon="0.737923979759216">
        <ele>5</ele>
        <time>2018-02-17T09:44:23Z</time>
      </trkpt>
      <trkpt lat="51.687005991116166" lon="0.737948035821319">
        <ele>4.78947439334941</ele>
        <time>2018-02-17T09:44:25Z</time>
      </trkpt>
      <trkpt lat="51.686994004994631" lon="0.737978965044022">
        <ele>4</ele>
        <time>2018-02-17T09:44:27Z</time>
      </trkpt>
      <trkpt lat="51.686984030529857" lon="0.73801701888442">
        <ele>4</ele>
        <time>2018-02-17T09:44:29Z</time>
      </trkpt>
      <trkpt lat="51.686960980296135" lon="0.738061023876071">
        <ele>4.0506327062979</ele>
        <time>2018-02-17T09:44:31Z</time>
      </trkpt>
      <trkpt lat="51.6869489941746" lon="0.73808298446238">
        <ele>5</ele>
        <time>2018-02-17T09:44:32Z</time>
      </trkpt>
      <trkpt lat="51.686934996396303" lon="0.73812598362565">
        <ele>5</ele>
        <time>2018-02-17T09:44:34Z</time>
      </trkpt>
      <trkpt lat="51.68692602775991" lon="0.738166971132159">
        <ele>5</ele>
        <time>2018-02-17T09:44:36Z</time>
      </trkpt>
      <trkpt lat="51.686922004446387" lon="0.73821198195219">
        <ele>5</ele>
        <time>2018-02-17T09:44:38Z</time>
      </trkpt>
      <trkpt lat="51.686917981132865" lon="0.73825104162097">
        <ele>5</ele>
        <time>2018-02-17T09:44:40Z</time>
      </trkpt>
      <trkpt lat="51.686913035809994" lon="0.738290017470717">
        <ele>5</ele>
        <time>2018-02-17T09:44:42Z</time>
      </trkpt>
      <trkpt lat="51.686912029981613" lon="0.738329999148846">
        <ele>5</ele>
        <time>2018-02-17T09:44:44Z</time>
      </trkpt>
      <trkpt lat="51.686913035809994" lon="0.738371992483735">
        <ele>4</ele>
        <time>2018-02-17T09:44:48Z</time>
      </trkpt>
      <trkpt lat="51.686913035809994" lon="0.738418009132147">
        <ele>4</ele>
        <time>2018-02-17T09:44:50Z</time>
      </trkpt>
      <trkpt lat="51.686913035809994" lon="0.738463019952178">
        <ele>4</ele>
        <time>2018-02-17T09:44:52Z</time>
      </trkpt>
      <trkpt lat="51.686914041638374" lon="0.738503001630306">
        <ele>5</ele>
        <time>2018-02-17T09:44:54Z</time>
      </trkpt>
      <trkpt lat="51.686919992789626" lon="0.738546000793576">
        <ele>5</ele>
        <time>2018-02-17T09:44:56Z</time>
      </trkpt>
      <trkpt lat="51.686925021931529" lon="0.738593023270369">
        <ele>5</ele>
        <time>2018-02-17T09:44:58Z</time>
      </trkpt>
      <trkpt lat="51.68692896142602" lon="0.738634010776877">
        <ele>5</ele>
        <time>2018-02-17T09:45:00Z</time>
      </trkpt>
      <trkpt lat="51.686936002224684" lon="0.73868103325367">
        <ele>4</ele>
        <time>2018-02-17T09:45:02Z</time>
      </trkpt>
      <trkpt lat="51.686942959204316" lon="0.738725960254669">
        <ele>4</ele>
        <time>2018-02-17T09:45:04Z</time>
      </trkpt>
      <trkpt lat="51.68695000000298" lon="0.738772982731462">
        <ele>4</ele>
        <time>2018-02-17T09:45:06Z</time>
      </trkpt>
      <trkpt lat="51.686952011659741" lon="0.738818999379873">
        <ele>4</ele>
        <time>2018-02-17T09:45:08Z</time>
      </trkpt>
      <trkpt lat="51.686962991952896" lon="0.738861998543143">
        <ele>4</ele>
        <time>2018-02-17T09:45:10Z</time>
      </trkpt>
      <trkpt lat="51.686971038579941" lon="0.738906003534794">
        <ele>4</ele>
        <time>2018-02-17T09:45:12Z</time>
      </trkpt>
      <trkpt lat="51.686981013044715" lon="0.738944979384542">
        <ele>5</ele>
        <time>2018-02-17T09:45:14Z</time>
      </trkpt>
      <trkpt lat="51.686989981681108" lon="0.73898202739656">
        <ele>5</ele>
        <time>2018-02-17T09:45:16Z</time>
      </trkpt>
      <trkpt lat="51.686996016651392" lon="0.739024020731449">
        <ele>5</ele>
        <time>2018-02-17T09:45:18Z</time>
      </trkpt>
      <trkpt lat="51.687000961974263" lon="0.739064002409577">
        <ele>5</ele>
        <time>2018-02-17T09:45:20Z</time>
      </trkpt>
      <trkpt lat="51.687006996944547" lon="0.739102978259325">
        <ele>4.96</ele>
        <time>2018-02-17T09:45:22Z</time>
      </trkpt>
      <trkpt lat="51.687010014429688" lon="0.739147989079356">
        <ele>4</ele>
        <time>2018-02-17T09:45:24Z</time>
      </trkpt>
      <trkpt lat="51.687014037743211" lon="0.739184031262994">
        <ele>4</ele>
        <time>2018-02-17T09:45:26Z</time>
      </trkpt>
      <trkpt lat="51.68701596558094" lon="0.739226024597883">
        <ele>4.0499968</ele>
        <time>2018-02-17T09:45:28Z</time>
      </trkpt>
      <trkpt lat="51.687016971409321" lon="0.739272041246295">
        <ele>5</ele>
        <time>2018-02-17T09:45:30Z</time>
      </trkpt>
      <trkpt lat="51.687019988894463" lon="0.739314034581184">
        <ele>5</ele>
        <time>2018-02-17T09:45:32Z</time>
      </trkpt>
      <trkpt lat="51.687023006379604" lon="0.739356027916074">
        <ele>5</ele>
        <time>2018-02-17T09:45:34Z</time>
      </trkpt>
      <trkpt lat="51.687023006379604" lon="0.739401038736105">
        <ele>4.83221655241139</ele>
        <time>2018-02-17T09:45:36Z</time>
      </trkpt>
      <trkpt lat="51.687024012207985" lon="0.739445965737104">
        <ele>4</ele>
        <time>2018-02-17T09:45:38Z</time>
      </trkpt>
      <trkpt lat="51.687024012207985" lon="0.739484019577503">
        <ele>4</ele>
        <time>2018-02-17T09:45:40Z</time>
      </trkpt>
      <trkpt lat="51.687023006379604" lon="0.739526012912393">
        <ele>4</ele>
        <time>2018-02-17T09:45:42Z</time>
      </trkpt>
      <trkpt lat="51.687023006379604" lon="0.739576974883676">
        <ele>4</ele>
        <time>2018-02-17T09:45:44Z</time>
      </trkpt>
      <trkpt lat="51.687027029693127" lon="0.739617040380836">
        <ele>4</ele>
        <time>2018-02-17T09:45:46Z</time>
      </trkpt>
      <trkpt lat="51.687031975015998" lon="0.739654004573822">
        <ele>3.76</ele>
        <time>2018-02-17T09:45:48Z</time>
      </trkpt>
      <trkpt lat="51.687033986672759" lon="0.739698009565473">
        <ele>3.0506327062979</ele>
        <time>2018-02-17T09:45:50Z</time>
      </trkpt>
      <trkpt lat="51.68703599832952" lon="0.739741008728743">
        <ele>4</ele>
        <time>2018-02-17T09:45:52Z</time>
      </trkpt>
      <trkpt lat="51.687041027471423" lon="0.739785013720393">
        <ele>4</ele>
        <time>2018-02-17T09:45:54Z</time>
      </trkpt>
      <trkpt lat="51.687047984451056" lon="0.739827007055283">
        <ele>4</ele>
        <time>2018-02-17T09:45:56Z</time>
      </trkpt>
      <trkpt lat="51.687053013592958" lon="0.73986497707665">
        <ele>4</ele>
        <time>2018-02-17T09:45:58Z</time>
      </trkpt>
      <trkpt lat="51.687060976400971" lon="0.7399089820683">
        <ele>3</ele>
        <time>2018-02-17T09:46:00Z</time>
      </trkpt>
      <trkpt lat="51.687070028856397" lon="0.739945024251938">
        <ele>4</ele>
        <time>2018-02-17T09:46:02Z</time>
      </trkpt>
      <trkpt lat="51.68707799166441" lon="0.739988023415208">
        <ele>4</ele>
        <time>2018-02-17T09:46:04Z</time>
      </trkpt>
      <trkpt lat="51.687086038291454" lon="0.740029010921717">
        <ele>4</ele>
        <time>2018-02-17T09:46:06Z</time>
      </trkpt>
      <trkpt lat="51.687097018584609" lon="0.740067986771464">
        <ele>4</ele>
        <time>2018-02-17T09:46:08Z</time>
      </trkpt>
      <trkpt lat="51.687105987221003" lon="0.740104028955102">
        <ele>4</ele>
        <time>2018-02-17T09:46:10Z</time>
      </trkpt>
      <trkpt lat="51.687115039676428" lon="0.740141998976469">
        <ele>4</ele>
        <time>2018-02-17T09:46:12Z</time>
      </trkpt>
      <trkpt lat="51.687125014141202" lon="0.740172006189823">
        <ele>4</ele>
        <time>2018-02-17T09:46:14Z</time>
      </trkpt>
      <trkpt lat="51.687138006091118" lon="0.740210982039571">
        <ele>4</ele>
        <time>2018-02-17T09:46:16Z</time>
      </trkpt>
      <trkpt lat="51.687150998041034" lon="0.74025196954608">
        <ele>3.67676872155565</ele>
        <time>2018-02-17T09:46:18Z</time>
      </trkpt>
      <trkpt lat="51.687160972505808" lon="0.74029304087162">
        <ele>3</ele>
        <time>2018-02-17T09:46:20Z</time>
      </trkpt>
      <trkpt lat="51.687168013304472" lon="0.740334028378129">
        <ele>3</ele>
        <time>2018-02-17T09:46:22Z</time>
      </trkpt>
      <trkpt lat="51.687173964455724" lon="0.740376021713018">
        <ele>3</ele>
        <time>2018-02-17T09:46:24Z</time>
      </trkpt>
      <trkpt lat="51.687183016911149" lon="0.740420026704669">
        <ele>3</ele>
        <time>2018-02-17T09:46:26Z</time>
      </trkpt>
      <trkpt lat="51.687188968062401" lon="0.74046797119081">
        <ele>3</ele>
        <time>2018-02-17T09:46:28Z</time>
      </trkpt>
      <trkpt lat="51.687192991375923" lon="0.740511976182461">
        <ele>3</ele>
        <time>2018-02-17T09:46:30Z</time>
      </trkpt>
      <trkpt lat="51.687195003032684" lon="0.74055396951735">
        <ele>3</ele>
        <time>2018-02-17T09:46:32Z</time>
      </trkpt>
      <trkpt lat="51.687195003032684" lon="0.74059596285224">
        <ele>3</ele>
        <time>2018-02-17T09:46:34Z</time>
      </trkpt>
      <trkpt lat="51.687191985547543" lon="0.74063996784389">
        <ele>3</ele>
        <time>2018-02-17T09:46:36Z</time>
      </trkpt>
      <trkpt lat="51.68718402273953" lon="0.74068296700716">
        <ele>3</ele>
        <time>2018-02-17T09:46:38Z</time>
      </trkpt>
      <trkpt lat="51.687172958627343" lon="0.74072202667594">
        <ele>3</ele>
        <time>2018-02-17T09:46:40Z</time>
      </trkpt>
      <trkpt lat="51.687161978334188" lon="0.740757985040545">
        <ele>3</ele>
        <time>2018-02-17T09:46:42Z</time>
      </trkpt>
      <trkpt lat="51.687152003869414" lon="0.740801990032196">
        <ele>3</ele>
        <time>2018-02-17T09:46:44Z</time>
      </trkpt>
      <trkpt lat="51.687143035233021" lon="0.740844989195466">
        <ele>3</ele>
        <time>2018-02-17T09:46:46Z</time>
      </trkpt>
      <trkpt lat="51.687143035233021" lon="0.740885976701975">
        <ele>3</ele>
        <time>2018-02-17T09:46:48Z</time>
      </trkpt>
      <trkpt lat="51.687149992212653" lon="0.740925958380103">
        <ele>3</ele>
        <time>2018-02-17T09:46:50Z</time>
      </trkpt>
      <trkpt lat="51.687167007476091" lon="0.740962000563741">
        <ele>3</ele>
        <time>2018-02-17T09:46:52Z</time>
      </trkpt>
      <trkpt lat="51.68718502856791" lon="0.740999970585108">
        <ele>2</ele>
        <time>2018-02-17T09:46:54Z</time>
      </trkpt>
      <trkpt lat="51.687201038002968" lon="0.741040036082268">
        <ele>3</ele>
        <time>2018-02-17T09:46:56Z</time>
      </trkpt>
      <trkpt lat="51.687211012467742" lon="0.741079011932015">
        <ele>3</ele>
        <time>2018-02-17T09:46:58Z</time>
      </trkpt>
      <trkpt lat="51.687222998589277" lon="0.741115976125002">
        <ele>3</ele>
        <time>2018-02-17T09:47:00Z</time>
      </trkpt>
      <trkpt lat="51.687229033559561" lon="0.741156041622162">
        <ele>2</ele>
        <time>2018-02-17T09:47:02Z</time>
      </trkpt>
      <trkpt lat="51.687233978882432" lon="0.741189988330007">
        <ele>3</ele>
        <time>2018-02-17T09:47:04Z</time>
      </trkpt>
      <trkpt lat="51.687238002195954" lon="0.741228964179754">
        <ele>3</ele>
        <time>2018-02-17T09:47:06Z</time>
      </trkpt>
      <trkpt lat="51.687236996367574" lon="0.741265006363392">
        <ele>3</ele>
        <time>2018-02-17T09:47:08Z</time>
      </trkpt>
      <trkpt lat="51.687236996367574" lon="0.741310017183423">
        <ele>3</ele>
        <time>2018-02-17T09:47:10Z</time>
      </trkpt>
      <trkpt lat="51.687238002195954" lon="0.741357039660215">
        <ele>3</ele>
        <time>2018-02-17T09:47:12Z</time>
      </trkpt>
      <trkpt lat="51.687242025509477" lon="0.741395009681582">
        <ele>3</ele>
        <time>2018-02-17T09:47:14Z</time>
      </trkpt>
      <trkpt lat="51.687239008024335" lon="0.741439014673233">
        <ele>3</ele>
        <time>2018-02-17T09:47:16Z</time>
      </trkpt>
      <trkpt lat="51.687239008024335" lon="0.74147597886622">
        <ele>3</ele>
        <time>2018-02-17T09:47:18Z</time>
      </trkpt>
      <trkpt lat="51.687239008024335" lon="0.741515960544348">
        <ele>3</ele>
        <time>2018-02-17T09:47:20Z</time>
      </trkpt>
      <trkpt lat="51.687238002195954" lon="0.741557031869888">
        <ele>3</ele>
        <time>2018-02-17T09:47:22Z</time>
      </trkpt>
      <trkpt lat="51.687232973054051" lon="0.741598019376397">
        <ele>2.68</ele>
        <time>2018-02-17T09:47:24Z</time>
      </trkpt>
      <trkpt lat="51.687226016074419" lon="0.741639006882906">
        <ele>2.32673054013636</ele>
        <time>2018-02-17T09:47:26Z</time>
      </trkpt>
      <trkpt lat="51.687215035781264" lon="0.741683011874557">
        <ele>3</ele>
        <time>2018-02-17T09:47:28Z</time>
      </trkpt>
      <trkpt lat="51.687202965840697" lon="0.741721987724304">
        <ele>3</ele>
        <time>2018-02-17T09:47:30Z</time>
      </trkpt>
      <trkpt lat="51.687187040224671" lon="0.741756018251181">
        <ele>3</ele>
        <time>2018-02-17T09:47:32Z</time>
      </trkpt>
      <trkpt lat="51.687167007476091" lon="0.741788959130645">
        <ele>3</ele>
        <time>2018-02-17T09:47:34Z</time>
      </trkpt>
      <trkpt lat="51.687146974727511" lon="0.741814021021128">
        <ele>3</ele>
        <time>2018-02-17T09:47:36Z</time>
      </trkpt>
      <trkpt lat="51.687123002484441" lon="0.741847967728972">
        <ele>3</ele>
        <time>2018-02-17T09:47:38Z</time>
      </trkpt>
      <trkpt lat="51.687107998877764" lon="0.741868000477552">
        <ele>3</ele>
        <time>2018-02-17T09:47:39Z</time>
      </trkpt>
      <trkpt lat="51.687089977785945" lon="0.741885015740991">
        <ele>3</ele>
        <time>2018-02-17T09:47:40Z</time>
      </trkpt>
      <trkpt lat="51.687074974179268" lon="0.741901025176048">
        <ele>3</ele>
        <time>2018-02-17T09:47:41Z</time>
      </trkpt>
      <trkpt lat="51.687054019421339" lon="0.741918040439487">
        <ele>3</ele>
        <time>2018-02-17T09:47:42Z</time>
      </trkpt>
      <trkpt lat="51.687031975015998" lon="0.741932038217783">
        <ele>3</ele>
        <time>2018-02-17T09:47:43Z</time>
      </trkpt>
      <trkpt lat="51.687009008601308" lon="0.741945030167699">
        <ele>3</ele>
        <time>2018-02-17T09:47:44Z</time>
      </trkpt>
      <trkpt lat="51.686985958367586" lon="0.741955004632473">
        <ele>3</ele>
        <time>2018-02-17T09:47:45Z</time>
      </trkpt>
      <trkpt lat="51.686965003609657" lon="0.741961039602757">
        <ele>3</ele>
        <time>2018-02-17T09:47:46Z</time>
      </trkpt>
      <trkpt lat="51.686944970861077" lon="0.741966990754008">
        <ele>3</ele>
        <time>2018-02-17T09:47:47Z</time>
      </trkpt>
      <trkpt lat="51.686923010274768" lon="0.741971014067531">
        <ele>3</ele>
        <time>2018-02-17T09:47:48Z</time>
      </trkpt>
      <trkpt lat="51.686903983354568" lon="0.741976965218782">
        <ele>3</ele>
        <time>2018-02-17T09:47:49Z</time>
      </trkpt>
      <trkpt lat="51.68688302859664" lon="0.741984006017447">
        <ele>3</ele>
        <time>2018-02-17T09:47:50Z</time>
      </trkpt>
      <trkpt lat="51.68686299584806" lon="0.741989035159349">
        <ele>3</ele>
        <time>2018-02-17T09:47:51Z</time>
      </trkpt>
      <trkpt lat="51.686842041090131" lon="0.741996997967362">
        <ele>3</ele>
        <time>2018-02-17T09:47:52Z</time>
      </trkpt>
      <trkpt lat="51.686817985028028" lon="0.742005966603756">
        <ele>3</ele>
        <time>2018-02-17T09:47:53Z</time>
      </trkpt>
      <trkpt lat="51.686796024441719" lon="0.742014013230801">
        <ele>3</ele>
        <time>2018-02-17T09:47:54Z</time>
      </trkpt>
      <trkpt lat="51.686772974207997" lon="0.742018958553672">
        <ele>3</ele>
        <time>2018-02-17T09:47:55Z</time>
      </trkpt>
      <trkpt lat="51.686751013621688" lon="0.742023987695575">
        <ele>3</ele>
        <time>2018-02-17T09:47:56Z</time>
      </trkpt>
      <trkpt lat="51.686730980873108" lon="0.742031028494239">
        <ele>3</ele>
        <time>2018-02-17T09:47:57Z</time>
      </trkpt>
      <trkpt lat="51.686710026115179" lon="0.742037985473871">
        <ele>3</ele>
        <time>2018-02-17T09:47:58Z</time>
      </trkpt>
      <trkpt lat="51.686689993366599" lon="0.742045026272535">
        <ele>3</ele>
        <time>2018-02-17T09:47:59Z</time>
      </trkpt>
      <trkpt lat="51.68666903860867" lon="0.742052989080548">
        <ele>3</ele>
        <time>2018-02-17T09:48:00Z</time>
      </trkpt>
      <trkpt lat="51.686638025566936" lon="0.742063969373703">
        <ele>3</ele>
        <time>2018-02-17T09:48:04Z</time>
      </trkpt>
      <trkpt lat="51.686616986989975" lon="0.742074027657509">
        <ele>3</ele>
        <time>2018-02-17T09:48:05Z</time>
      </trkpt>
      <trkpt lat="51.686595026403666" lon="0.742084002122283">
        <ele>3</ele>
        <time>2018-02-17T09:48:06Z</time>
      </trkpt>
      <trkpt lat="51.686572981998324" lon="0.742093976587057">
        <ele>3</ele>
        <time>2018-02-17T09:48:07Z</time>
      </trkpt>
      <trkpt lat="51.686553033068776" lon="0.742107974365354">
        <ele>3</ele>
        <time>2018-02-17T09:48:08Z</time>
      </trkpt>
      <trkpt lat="51.686534006148577" lon="0.742127001285553">
        <ele>3</ele>
        <time>2018-02-17T09:48:09Z</time>
      </trkpt>
      <trkpt lat="51.686514979228377" lon="0.742148961871862">
        <ele>3</ele>
        <time>2018-02-17T09:48:10Z</time>
      </trkpt>
      <trkpt lat="51.686501987278461" lon="0.742176035419106">
        <ele>3</ele>
        <time>2018-02-17T09:48:11Z</time>
      </trkpt>
      <trkpt lat="51.68649603612721" lon="0.742205958813429">
        <ele>3</ele>
        <time>2018-02-17T09:48:12Z</time>
      </trkpt>
      <trkpt lat="51.686493018642068" lon="0.742238983511925">
        <ele>3</ele>
        <time>2018-02-17T09:48:13Z</time>
      </trkpt>
      <trkpt lat="51.686492012813687" lon="0.742275025695562">
        <ele>3</ele>
        <time>2018-02-17T09:48:14Z</time>
      </trkpt>
      <trkpt lat="51.686493018642068" lon="0.742309978231788">
        <ele>3</ele>
        <time>2018-02-17T09:48:15Z</time>
      </trkpt>
      <trkpt lat="51.68649603612721" lon="0.742343002930284">
        <ele>3</ele>
        <time>2018-02-17T09:48:16Z</time>
      </trkpt>
      <trkpt lat="51.686497963964939" lon="0.74237996712327">
        <ele>3</ele>
        <time>2018-02-17T09:48:17Z</time>
      </trkpt>
      <trkpt lat="51.686500981450081" lon="0.742413997650146">
        <ele>3</ele>
        <time>2018-02-17T09:48:18Z</time>
      </trkpt>
      <trkpt lat="51.686506010591984" lon="0.74244299903512">
        <ele>3</ele>
        <time>2018-02-17T09:48:19Z</time>
      </trkpt>
      <trkpt lat="51.686509028077126" lon="0.742473006248474">
        <ele>3</ele>
        <time>2018-02-17T09:48:20Z</time>
      </trkpt>
      <trkpt lat="51.686513973399997" lon="0.74250603094697">
        <ele>3</ele>
        <time>2018-02-17T09:48:21Z</time>
      </trkpt>
      <trkpt lat="51.6865190025419" lon="0.742539977654815">
        <ele>3</ele>
        <time>2018-02-17T09:48:22Z</time>
      </trkpt>
      <trkpt lat="51.686524031683803" lon="0.742573002353311">
        <ele>3</ele>
        <time>2018-02-17T09:48:23Z</time>
      </trkpt>
      <trkpt lat="51.686528977006674" lon="0.742603009566665">
        <ele>3</ele>
        <time>2018-02-17T09:48:24Z</time>
      </trkpt>
      <trkpt lat="51.686533000320196" lon="0.742634022608399">
        <ele>3</ele>
        <time>2018-02-17T09:48:25Z</time>
      </trkpt>
      <trkpt lat="51.686538029462099" lon="0.742662018164992">
        <ele>3</ele>
        <time>2018-02-17T09:48:26Z</time>
      </trkpt>
      <trkpt lat="51.68654297478497" lon="0.742691019549966">
        <ele>3</ele>
        <time>2018-02-17T09:48:27Z</time>
      </trkpt>
      <trkpt lat="51.686545992270112" lon="0.742723038420081">
        <ele>3</ele>
        <time>2018-02-17T09:48:28Z</time>
      </trkpt>
      <trkpt lat="51.686551021412015" lon="0.742753967642784">
        <ele>3</ele>
        <time>2018-02-17T09:48:29Z</time>
      </trkpt>
      <trkpt lat="51.686554960906506" lon="0.742789003998041">
        <ele>3</ele>
        <time>2018-02-17T09:48:30Z</time>
      </trkpt>
      <trkpt lat="51.686558984220028" lon="0.742823034524918">
        <ele>3</ele>
        <time>2018-02-17T09:48:31Z</time>
      </trkpt>
      <trkpt lat="51.68656300753355" lon="0.742855975404382">
        <ele>3</ele>
        <time>2018-02-17T09:48:32Z</time>
      </trkpt>
      <trkpt lat="51.686566025018692" lon="0.742891011759639">
        <ele>3</ele>
        <time>2018-02-17T09:48:33Z</time>
      </trkpt>
      <trkpt lat="51.686568958684802" lon="0.742924036458135">
        <ele>3</ele>
        <time>2018-02-17T09:48:34Z</time>
      </trkpt>
      <trkpt lat="51.686573987826705" lon="0.742954965680838">
        <ele>3</ele>
        <time>2018-02-17T09:48:35Z</time>
      </trkpt>
      <trkpt lat="51.686579016968608" lon="0.742986984550953">
        <ele>3</ele>
        <time>2018-02-17T09:48:36Z</time>
      </trkpt>
      <trkpt lat="51.686583962291479" lon="0.743017997592688">
        <ele>3</ele>
        <time>2018-02-17T09:48:37Z</time>
      </trkpt>
      <trkpt lat="51.686587985605001" lon="0.743050016462803">
        <ele>3</ele>
        <time>2018-02-17T09:48:38Z</time>
      </trkpt>
      <trkpt lat="51.686592008918524" lon="0.743083963170648">
        <ele>3</ele>
        <time>2018-02-17T09:48:39Z</time>
      </trkpt>
      <trkpt lat="51.686597038060427" lon="0.743113970384002">
        <ele>3</ele>
        <time>2018-02-17T09:48:40Z</time>
      </trkpt>
      <trkpt lat="51.686600977554917" lon="0.743143977597356">
        <ele>3</ele>
        <time>2018-02-17T09:48:41Z</time>
      </trkpt>
      <trkpt lat="51.68660600669682" lon="0.74317398481071">
        <ele>3</ele>
        <time>2018-02-17T09:48:42Z</time>
      </trkpt>
      <trkpt lat="51.686610030010343" lon="0.743204997852445">
        <ele>3</ele>
        <time>2018-02-17T09:48:43Z</time>
      </trkpt>
      <trkpt lat="51.686616986989975" lon="0.74323701672256">
        <ele>3</ele>
        <time>2018-02-17T09:48:44Z</time>
      </trkpt>
      <trkpt lat="51.686622016131878" lon="0.743266018107533">
        <ele>3</ele>
        <time>2018-02-17T09:48:45Z</time>
      </trkpt>
      <trkpt lat="51.68662796728313" lon="0.743296025320888">
        <ele>3.19999606151907</ele>
        <time>2018-02-17T09:48:46Z</time>
      </trkpt>
      <trkpt lat="51.686640959233046" lon="0.743322009220719">
        <ele>3.96923061775073</ele>
        <time>2018-02-17T09:48:47Z</time>
      </trkpt>
      <trkpt lat="51.686656968668103" lon="0.743344975635409">
        <ele>4</ele>
        <time>2018-02-17T09:48:48Z</time>
      </trkpt>
      <trkpt lat="51.686672978103161" lon="0.743364002555609">
        <ele>4</ele>
        <time>2018-02-17T09:48:49Z</time>
      </trkpt>
      <trkpt lat="51.686687981709838" lon="0.743382023647428">
        <ele>3.85148339184103</ele>
        <time>2018-02-17T09:48:50Z</time>
      </trkpt>
      <trkpt lat="51.686704996973276" lon="0.743401972576976">
        <ele>3</ele>
        <time>2018-02-17T09:48:51Z</time>
      </trkpt>
      <trkpt lat="51.686721006408334" lon="0.743423011153936">
        <ele>3</ele>
        <time>2018-02-17T09:48:52Z</time>
      </trkpt>
      <trkpt lat="51.68673500418663" lon="0.743442960083485">
        <ele>3</ele>
        <time>2018-02-17T09:48:53Z</time>
      </trkpt>
      <trkpt lat="51.686750007793307" lon="0.743465004488826">
        <ele>3.14851660815897</ele>
        <time>2018-02-17T09:48:54Z</time>
      </trkpt>
      <trkpt lat="51.686761993914843" lon="0.743488976731896">
        <ele>4</ele>
        <time>2018-02-17T09:48:55Z</time>
      </trkpt>
      <trkpt lat="51.686772974207997" lon="0.743513032793999">
        <ele>4</ele>
        <time>2018-02-17T09:48:56Z</time>
      </trkpt>
      <trkpt lat="51.686784960329533" lon="0.74353801086545">
        <ele>4</ele>
        <time>2018-02-17T09:48:57Z</time>
      </trkpt>
      <trkpt lat="51.686809016391635" lon="0.743572041392326">
        <ele>4</ele>
        <time>2018-02-17T09:48:59Z</time>
      </trkpt>
      <trkpt lat="51.686832988634706" lon="0.743610011413693">
        <ele>4</ele>
        <time>2018-02-17T09:49:01Z</time>
      </trkpt>
      <trkpt lat="51.686851009726524" lon="0.743650998920202">
        <ele>4</ele>
        <time>2018-02-17T09:49:03Z</time>
      </trkpt>
      <trkpt lat="51.686869030818343" lon="0.743685029447079">
        <ele>3.88371931495704</ele>
        <time>2018-02-17T09:49:05Z</time>
      </trkpt>
      <trkpt lat="51.686895014718175" lon="0.743714030832052">
        <ele>3</ele>
        <time>2018-02-17T09:49:07Z</time>
      </trkpt>
      <trkpt lat="51.686913035809994" lon="0.743755018338561">
        <ele>3</ele>
        <time>2018-02-17T09:49:09Z</time>
      </trkpt>
      <trkpt lat="51.686923010274768" lon="0.743778990581632">
        <ele>3</ele>
        <time>2018-02-17T09:49:10Z</time>
      </trkpt>
      <trkpt lat="51.686939019709826" lon="0.743824001401663">
        <ele>3</ele>
        <time>2018-02-17T09:49:12Z</time>
      </trkpt>
      <trkpt lat="51.686955029144883" lon="0.743869012221694">
        <ele>3</ele>
        <time>2018-02-17T09:49:14Z</time>
      </trkpt>
      <trkpt lat="51.686968021094799" lon="0.743891978636384">
        <ele>3</ele>
        <time>2018-02-17T09:49:15Z</time>
      </trkpt>
      <trkpt lat="51.686983024701476" lon="0.743912011384964">
        <ele>3</ele>
        <time>2018-02-17T09:49:16Z</time>
      </trkpt>
      <trkpt lat="51.686997022479773" lon="0.743931038305163">
        <ele>3</ele>
        <time>2018-02-17T09:49:17Z</time>
      </trkpt>
      <trkpt lat="51.687011020258069" lon="0.743954004719853">
        <ele>3</ele>
        <time>2018-02-17T09:49:18Z</time>
      </trkpt>
      <trkpt lat="51.687026023864746" lon="0.743975965306163">
        <ele>3</ele>
        <time>2018-02-17T09:49:19Z</time>
      </trkpt>
      <trkpt lat="51.687040021643043" lon="0.743995998054743">
        <ele>3</ele>
        <time>2018-02-17T09:49:20Z</time>
      </trkpt>
      <trkpt lat="51.687053013592958" lon="0.744020976126194">
        <ele>3</ele>
        <time>2018-02-17T09:49:21Z</time>
      </trkpt>
      <trkpt lat="51.687066005542874" lon="0.744046038016677">
        <ele>3</ele>
        <time>2018-02-17T09:49:22Z</time>
      </trkpt>
      <trkpt lat="51.68707799166441" lon="0.744070010259748">
        <ele>3</ele>
        <time>2018-02-17T09:49:23Z</time>
      </trkpt>
      <trkpt lat="51.687089977785945" lon="0.744092976674438">
        <ele>3</ele>
        <time>2018-02-17T09:49:24Z</time>
      </trkpt>
      <trkpt lat="51.687102969735861" lon="0.744116026908159">
        <ele>3</ele>
        <time>2018-02-17T09:49:25Z</time>
      </trkpt>
      <trkpt lat="51.687129959464073" lon="0.744153996929526">
        <ele>3</ele>
        <time>2018-02-17T09:49:27Z</time>
      </trkpt>
      <trkpt lat="51.68714102357626" lon="0.744177969172597">
        <ele>3.21052560665059</ele>
        <time>2018-02-17T09:49:28Z</time>
      </trkpt>
      <trkpt lat="51.687150998041034" lon="0.74420303106308">
        <ele>4</ele>
        <time>2018-02-17T09:49:29Z</time>
      </trkpt>
      <trkpt lat="51.687160972505808" lon="0.744228009134531">
        <ele>4</ele>
        <time>2018-02-17T09:49:30Z</time>
      </trkpt>
      <trkpt lat="51.687181005254388" lon="0.744258016347885">
        <ele>4</ele>
        <time>2018-02-17T09:49:33Z</time>
      </trkpt>
      <trkpt lat="51.687193997204304" lon="0.744280982762575">
        <ele>3</ele>
        <time>2018-02-17T09:49:34Z</time>
      </trkpt>
      <trkpt lat="51.68720698915422" lon="0.744305038824677">
        <ele>3.0506327062979</ele>
        <time>2018-02-17T09:49:35Z</time>
      </trkpt>
      <trkpt lat="51.687217969447374" lon="0.744330016896129">
        <ele>4</ele>
        <time>2018-02-17T09:49:36Z</time>
      </trkpt>
      <trkpt lat="51.68723096139729" lon="0.744352983310819">
        <ele>4</ele>
        <time>2018-02-17T09:49:37Z</time>
      </trkpt>
      <trkpt lat="51.687244037166238" lon="0.744374021887779">
        <ele>4</ele>
        <time>2018-02-17T09:49:38Z</time>
      </trkpt>
      <trkpt lat="51.687259040772915" lon="0.744393970817328">
        <ele>4</ele>
        <time>2018-02-17T09:49:39Z</time>
      </trkpt>
      <trkpt lat="51.687285024672747" lon="0.744429007172585">
        <ele>4</ele>
        <time>2018-02-17T09:49:41Z</time>
      </trkpt>
      <trkpt lat="51.687299022451043" lon="0.744447028264403">
        <ele>4</ele>
        <time>2018-02-17T09:49:42Z</time>
      </trkpt>
      <trkpt lat="51.687315031886101" lon="0.74446395970881">
        <ele>4</ele>
        <time>2018-02-17T09:49:43Z</time>
      </trkpt>
      <trkpt lat="51.687331963330507" lon="0.744481980800629">
        <ele>4</ele>
        <time>2018-02-17T09:49:44Z</time>
      </trkpt>
      <trkpt lat="51.687347972765565" lon="0.744500001892447">
        <ele>4</ele>
        <time>2018-02-17T09:49:45Z</time>
      </trkpt>
      <trkpt lat="51.687361970543861" lon="0.744520034641027">
        <ele>4</ele>
        <time>2018-02-17T09:49:46Z</time>
      </trkpt>
      <trkpt lat="51.687375968322158" lon="0.744541995227337">
        <ele>3.8499968</ele>
        <time>2018-02-17T09:49:47Z</time>
      </trkpt>
      <trkpt lat="51.687391977757215" lon="0.744560016319156">
        <ele>3</ele>
        <time>2018-02-17T09:49:48Z</time>
      </trkpt>
      <trkpt lat="51.68742198497057" lon="0.744593041017652">
        <ele>3</ele>
        <time>2018-02-17T09:49:50Z</time>
      </trkpt>
      <trkpt lat="51.687435982748866" lon="0.744611984118819">
        <ele>3.14851849035561</ele>
        <time>2018-02-17T09:49:51Z</time>
      </trkpt>
      <trkpt lat="51.68746498413384" lon="0.744645008817315">
        <ele>4</ele>
        <time>2018-02-17T09:49:53Z</time>
      </trkpt>
      <trkpt lat="51.687479987740517" lon="0.744659006595612">
        <ele>4</ele>
        <time>2018-02-17T09:49:54Z</time>
      </trkpt>
      <trkpt lat="51.68750898912549" lon="0.744688007980585">
        <ele>4</ele>
        <time>2018-02-17T09:49:56Z</time>
      </trkpt>
      <trkpt lat="51.687533967196941" lon="0.744710974395275">
        <ele>4</ele>
        <time>2018-02-17T09:49:58Z</time>
      </trkpt>
      <trkpt lat="51.687563974410295" lon="0.744736036285758">
        <ele>3</ele>
        <time>2018-02-17T09:50:00Z</time>
      </trkpt>
      <trkpt lat="51.687592975795269" lon="0.744759002700448">
        <ele>3</ele>
        <time>2018-02-17T09:50:02Z</time>
      </trkpt>
      <trkpt lat="51.687607979401946" lon="0.744774006307125">
        <ele>3</ele>
        <time>2018-02-17T09:50:03Z</time>
      </trkpt>
      <trkpt lat="51.687623988837004" lon="0.744788004085422">
        <ele>3</ele>
        <time>2018-02-17T09:50:04Z</time>
      </trkpt>
      <trkpt lat="51.687639998272061" lon="0.744803007692099">
        <ele>3</ele>
        <time>2018-02-17T09:50:05Z</time>
      </trkpt>
      <trkpt lat="51.68765801936388" lon="0.744823040440679">
        <ele>3</ele>
        <time>2018-02-17T09:50:06Z</time>
      </trkpt>
      <trkpt lat="51.687672017142177" lon="0.744839971885085">
        <ele>3</ele>
        <time>2018-02-17T09:50:07Z</time>
      </trkpt>
      <trkpt lat="51.687690038233995" lon="0.744855981320143">
        <ele>3</ele>
        <time>2018-02-17T09:50:08Z</time>
      </trkpt>
      <trkpt lat="51.687704036012292" lon="0.744876014068723">
        <ele>3</ele>
        <time>2018-02-17T09:50:09Z</time>
      </trkpt>
      <trkpt lat="51.687732031568885" lon="0.744919013231993">
        <ele>3</ele>
        <time>2018-02-17T09:50:11Z</time>
      </trkpt>
      <trkpt lat="51.68774401769042" lon="0.744946002960205">
        <ele>3.25999692796068</ele>
        <time>2018-02-17T09:50:12Z</time>
      </trkpt>
      <trkpt lat="51.687767989933491" lon="0.744983972981572">
        <ele>4</ele>
        <time>2018-02-17T09:50:14Z</time>
      </trkpt>
      <trkpt lat="51.687790034338832" lon="0.745025966316462">
        <ele>4</ele>
        <time>2018-02-17T09:50:16Z</time>
      </trkpt>
      <trkpt lat="51.687814006581903" lon="0.745070977136493">
        <ele>3.937504</ele>
        <time>2018-02-17T09:50:18Z</time>
      </trkpt>
      <trkpt lat="51.687828004360199" lon="0.745093021541834">
        <ele>3</ele>
        <time>2018-02-17T09:50:19Z</time>
      </trkpt>
      <trkpt lat="51.687838984653354" lon="0.745117999613285">
        <ele>3</ele>
        <time>2018-02-17T09:50:20Z</time>
      </trkpt>
      <trkpt lat="51.687849964946508" lon="0.745141971856356">
        <ele>3</ele>
        <time>2018-02-17T09:50:21Z</time>
      </trkpt>
      <trkpt lat="51.68787200935185" lon="0.745190000161529">
        <ele>3</ele>
        <time>2018-02-17T09:50:23Z</time>
      </trkpt>
      <trkpt lat="51.687888018786907" lon="0.745238028466702">
        <ele>3</ele>
        <time>2018-02-17T09:50:25Z</time>
      </trkpt>
      <trkpt lat="51.687904028221965" lon="0.745280021801591">
        <ele>2</ele>
        <time>2018-02-17T09:50:27Z</time>
      </trkpt>
      <trkpt lat="51.687925988808274" lon="0.745318997651339">
        <ele>3</ele>
        <time>2018-02-17T09:50:29Z</time>
      </trkpt>
      <trkpt lat="51.68793797492981" lon="0.745341964066029">
        <ele>3</ele>
        <time>2018-02-17T09:50:30Z</time>
      </trkpt>
      <trkpt lat="51.687946021556854" lon="0.745370965451002">
        <ele>3</ele>
        <time>2018-02-17T09:50:31Z</time>
      </trkpt>
      <trkpt lat="51.687962030991912" lon="0.745418993756175">
        <ele>4</ele>
        <time>2018-02-17T09:50:33Z</time>
      </trkpt>
      <trkpt lat="51.687968987971544" lon="0.745447995141149">
        <ele>4</ele>
        <time>2018-02-17T09:50:34Z</time>
      </trkpt>
      <trkpt lat="51.687977034598589" lon="0.745475990697742">
        <ele>4</ele>
        <time>2018-02-17T09:50:35Z</time>
      </trkpt>
      <trkpt lat="51.687993966042995" lon="0.745527958497405">
        <ele>3</ele>
        <time>2018-02-17T09:50:37Z</time>
      </trkpt>
      <trkpt lat="51.688013998791575" lon="0.745575986802578">
        <ele>4</ele>
        <time>2018-02-17T09:50:39Z</time>
      </trkpt>
      <trkpt lat="51.688021961599588" lon="0.745603982359171">
        <ele>4</ele>
        <time>2018-02-17T09:50:40Z</time>
      </trkpt>
      <trkpt lat="51.688030008226633" lon="0.745631977915764">
        <ele>4</ele>
        <time>2018-02-17T09:50:41Z</time>
      </trkpt>
      <trkpt lat="51.688037971034646" lon="0.745659973472357">
        <ele>4.25742022152942</ele>
        <time>2018-02-17T09:50:42Z</time>
      </trkpt>
      <trkpt lat="51.68804400600493" lon="0.74568897485733">
        <ele>5</ele>
        <time>2018-02-17T09:50:43Z</time>
      </trkpt>
      <trkpt lat="51.688050040975213" lon="0.745716970413923">
        <ele>5</ele>
        <time>2018-02-17T09:50:44Z</time>
      </trkpt>
      <trkpt lat="51.688058003783226" lon="0.745745971798897">
        <ele>5</ele>
        <time>2018-02-17T09:50:45Z</time>
      </trkpt>
      <trkpt lat="51.688065966591239" lon="0.745775979012251">
        <ele>5</ele>
        <time>2018-02-17T09:50:46Z</time>
      </trkpt>
      <trkpt lat="51.688076024875045" lon="0.745803974568844">
        <ele>5</ele>
        <time>2018-02-17T09:50:47Z</time>
      </trkpt>
      <trkpt lat="51.688081976026297" lon="0.745833981782198">
        <ele>4.84848210591643</ele>
        <time>2018-02-17T09:50:48Z</time>
      </trkpt>
      <trkpt lat="51.688090022653341" lon="0.745863988995552">
        <ele>4</ele>
        <time>2018-02-17T09:50:49Z</time>
      </trkpt>
      <trkpt lat="51.688097985461354" lon="0.745890978723764">
        <ele>4</ele>
        <time>2018-02-17T09:50:50Z</time>
      </trkpt>
      <trkpt lat="51.688106032088399" lon="0.745919980108738">
        <ele>4</ele>
        <time>2018-02-17T09:50:51Z</time>
      </trkpt>
      <trkpt lat="51.68810997158289" lon="0.745947975665331">
        <ele>4</ele>
        <time>2018-02-17T09:50:52Z</time>
      </trkpt>
      <trkpt lat="51.688118018209934" lon="0.745975971221924">
        <ele>4</ele>
        <time>2018-02-17T09:50:53Z</time>
      </trkpt>
      <trkpt lat="51.688125981017947" lon="0.746005978435278">
        <ele>4</ele>
        <time>2018-02-17T09:50:54Z</time>
      </trkpt>
      <trkpt lat="51.688132015988231" lon="0.746034979820251">
        <ele>4</ele>
        <time>2018-02-17T09:50:55Z</time>
      </trkpt>
      <trkpt lat="51.688139978796244" lon="0.746061969548464">
        <ele>4</ele>
        <time>2018-02-17T09:50:56Z</time>
      </trkpt>
      <trkpt lat="51.688148025423288" lon="0.746092982590199">
        <ele>4</ele>
        <time>2018-02-17T09:50:57Z</time>
      </trkpt>
      <trkpt lat="51.688154982402921" lon="0.746120978146791">
        <ele>4</ele>
        <time>2018-02-17T09:50:58Z</time>
      </trkpt>
      <trkpt lat="51.688162023201585" lon="0.746148973703384">
        <ele>4</ele>
        <time>2018-02-17T09:50:59Z</time>
      </trkpt>
      <trkpt lat="51.688167974352837" lon="0.746179986745119">
        <ele>4</ele>
        <time>2018-02-17T09:51:00Z</time>
      </trkpt>
      <trkpt lat="51.68817400932312" lon="0.746208988130093">
        <ele>4</ele>
        <time>2018-02-17T09:51:01Z</time>
      </trkpt>
      <trkpt lat="51.688179960474372" lon="0.746238995343447">
        <ele>4</ele>
        <time>2018-02-17T09:51:02Z</time>
      </trkpt>
      <trkpt lat="51.688185995444655" lon="0.746269002556801">
        <ele>4</ele>
        <time>2018-02-17T09:51:03Z</time>
      </trkpt>
      <trkpt lat="51.688194964081049" lon="0.746322982013226">
        <ele>4</ele>
        <time>2018-02-17T09:51:05Z</time>
      </trkpt>
      <trkpt lat="51.688203010708094" lon="0.746375033631921">
        <ele>3</ele>
        <time>2018-02-17T09:51:07Z</time>
      </trkpt>
      <trkpt lat="51.688208039849997" lon="0.746401017531753">
        <ele>3</ele>
        <time>2018-02-17T09:51:08Z</time>
      </trkpt>
      <trkpt lat="51.68821700848639" lon="0.746448962017894">
        <ele>3.33999795197379</ele>
        <time>2018-02-17T09:51:10Z</time>
      </trkpt>
      <trkpt lat="51.688225977122784" lon="0.746495984494686">
        <ele>4</ele>
        <time>2018-02-17T09:51:12Z</time>
      </trkpt>
      <trkpt lat="51.68823997490108" lon="0.746548036113381">
        <ele>4.33662839327808</ele>
        <time>2018-02-17T09:51:14Z</time>
      </trkpt>
      <trkpt lat="51.688251961022615" lon="0.746598998084664">
        <ele>5</ele>
        <time>2018-02-17T09:51:16Z</time>
      </trkpt>
      <trkpt lat="51.688262019306421" lon="0.746649960055947">
        <ele>5</ele>
        <time>2018-02-17T09:51:18Z</time>
      </trkpt>
      <trkpt lat="51.688267970457673" lon="0.746692959219217">
        <ele>5</ele>
        <time>2018-02-17T09:51:20Z</time>
      </trkpt>
      <trkpt lat="51.688278028741479" lon="0.746746016666293">
        <ele>4</ele>
        <time>2018-02-17T09:51:22Z</time>
      </trkpt>
      <trkpt lat="51.68828297406435" lon="0.746775018051267">
        <ele>4</ele>
        <time>2018-02-17T09:51:23Z</time>
      </trkpt>
      <trkpt lat="51.688286997377872" lon="0.74680401943624">
        <ele>4</ele>
        <time>2018-02-17T09:51:24Z</time>
      </trkpt>
      <trkpt lat="51.688292026519775" lon="0.746833020821214">
        <ele>4</ele>
        <time>2018-02-17T09:51:25Z</time>
      </trkpt>
      <trkpt lat="51.68830200098455" lon="0.746891023591161">
        <ele>4</ele>
        <time>2018-02-17T09:51:27Z</time>
      </trkpt>
      <trkpt lat="51.688307030126452" lon="0.746922958642244">
        <ele>4</ele>
        <time>2018-02-17T09:51:28Z</time>
      </trkpt>
      <trkpt lat="51.688311975449324" lon="0.746952965855598">
        <ele>4</ele>
        <time>2018-02-17T09:51:29Z</time>
      </trkpt>
      <trkpt lat="51.688318010419607" lon="0.746982973068953">
        <ele>4</ele>
        <time>2018-02-17T09:51:30Z</time>
      </trkpt>
      <trkpt lat="51.68832203373313" lon="0.747014991939068">
        <ele>4</ele>
        <time>2018-02-17T09:51:31Z</time>
      </trkpt>
      <trkpt lat="51.688323961570859" lon="0.747043993324041">
        <ele>4</ele>
        <time>2018-02-17T09:51:32Z</time>
      </trkpt>
      <trkpt lat="51.68832496739924" lon="0.747077018022537">
        <ele>4</ele>
        <time>2018-02-17T09:51:33Z</time>
      </trkpt>
      <trkpt lat="51.688323961570859" lon="0.747111970558763">
        <ele>4</ele>
        <time>2018-02-17T09:51:34Z</time>
      </trkpt>
      <trkpt lat="51.68832496739924" lon="0.747141977772117">
        <ele>4</ele>
        <time>2018-02-17T09:51:35Z</time>
      </trkpt>
      <trkpt lat="51.688326979056001" lon="0.747175002470613">
        <ele>4</ele>
        <time>2018-02-17T09:51:36Z</time>
      </trkpt>
      <trkpt lat="51.688326979056001" lon="0.747208027169108">
        <ele>4</ele>
        <time>2018-02-17T09:51:37Z</time>
      </trkpt>
      <trkpt lat="51.688326979056001" lon="0.747243985533714">
        <ele>4</ele>
        <time>2018-02-17T09:51:38Z</time>
      </trkpt>
      <trkpt lat="51.688328990712762" lon="0.747279021888971">
        <ele>4</ele>
        <time>2018-02-17T09:51:39Z</time>
      </trkpt>
      <trkpt lat="51.688331002369523" lon="0.747309029102325">
        <ele>4</ele>
        <time>2018-02-17T09:51:40Z</time>
      </trkpt>
      <trkpt lat="51.688333014026284" lon="0.747339958325028">
        <ele>4</ele>
        <time>2018-02-17T09:51:41Z</time>
      </trkpt>
      <trkpt lat="51.688333014026284" lon="0.747371977195144">
        <ele>4</ele>
        <time>2018-02-17T09:51:42Z</time>
      </trkpt>
      <trkpt lat="51.688333014026284" lon="0.747401984408498">
        <ele>4</ele>
        <time>2018-02-17T09:51:43Z</time>
      </trkpt>
      <trkpt lat="51.688331002369523" lon="0.747434003278613">
        <ele>4</ele>
        <time>2018-02-17T09:51:44Z</time>
      </trkpt>
      <trkpt lat="51.688331002369523" lon="0.747467027977109">
        <ele>4</ele>
        <time>2018-02-17T09:51:45Z</time>
      </trkpt>
      <trkpt lat="51.688331002369523" lon="0.747499968856573">
        <ele>4</ele>
        <time>2018-02-17T09:51:46Z</time>
      </trkpt>
      <trkpt lat="51.688327984884381" lon="0.747531987726688">
        <ele>4</ele>
        <time>2018-02-17T09:51:47Z</time>
      </trkpt>
      <trkpt lat="51.68832597322762" lon="0.747560989111662">
        <ele>4</ele>
        <time>2018-02-17T09:51:48Z</time>
      </trkpt>
      <trkpt lat="51.68832597322762" lon="0.747592002153397">
        <ele>4</ele>
        <time>2018-02-17T09:51:49Z</time>
      </trkpt>
      <trkpt lat="51.688329996541142" lon="0.747625026851892">
        <ele>4</ele>
        <time>2018-02-17T09:51:50Z</time>
      </trkpt>
      <trkpt lat="51.688335025683045" lon="0.747654028236866">
        <ele>4</ele>
        <time>2018-02-17T09:51:51Z</time>
      </trkpt>
      <trkpt lat="51.688339971005917" lon="0.747685041278601">
        <ele>4</ele>
        <time>2018-02-17T09:51:52Z</time>
      </trkpt>
      <trkpt lat="51.688348017632961" lon="0.747742960229516">
        <ele>4</ele>
        <time>2018-02-17T09:51:54Z</time>
      </trkpt>
      <trkpt lat="51.688352040946484" lon="0.747776990756392">
        <ele>4</ele>
        <time>2018-02-17T09:51:55Z</time>
      </trkpt>
      <trkpt lat="51.688353968784213" lon="0.747806997969747">
        <ele>4</ele>
        <time>2018-02-17T09:51:56Z</time>
      </trkpt>
      <trkpt lat="51.688358997926116" lon="0.747838011011481">
        <ele>4</ele>
        <time>2018-02-17T09:51:57Z</time>
      </trkpt>
      <trkpt lat="51.688363021239638" lon="0.747869024053216">
        <ele>4</ele>
        <time>2018-02-17T09:51:58Z</time>
      </trkpt>
      <trkpt lat="51.688366960734129" lon="0.74789802543819">
        <ele>4</ele>
        <time>2018-02-17T09:51:59Z</time>
      </trkpt>
      <trkpt lat="51.68836897239089" lon="0.747929960489273">
        <ele>4</ele>
        <time>2018-02-17T09:52:00Z</time>
      </trkpt>
      <trkpt lat="51.68836796656251" lon="0.747960973531008">
        <ele>4</ele>
        <time>2018-02-17T09:52:01Z</time>
      </trkpt>
      <trkpt lat="51.68836796656251" lon="0.747993998229504">
        <ele>4</ele>
        <time>2018-02-17T09:52:02Z</time>
      </trkpt>
      <trkpt lat="51.688371989876032" lon="0.748027022928">
        <ele>4</ele>
        <time>2018-02-17T09:52:03Z</time>
      </trkpt>
      <trkpt lat="51.688376013189554" lon="0.748059041798115">
        <ele>4</ele>
        <time>2018-02-17T09:52:04Z</time>
      </trkpt>
      <trkpt lat="51.688380036503077" lon="0.748090976849198">
        <ele>4</ele>
        <time>2018-02-17T09:52:05Z</time>
      </trkpt>
      <trkpt lat="51.688382970169187" lon="0.748125007376075">
        <ele>4</ele>
        <time>2018-02-17T09:52:06Z</time>
      </trkpt>
      <trkpt lat="51.688384981825948" lon="0.748156020417809">
        <ele>4</ele>
        <time>2018-02-17T09:52:07Z</time>
      </trkpt>
      <trkpt lat="51.688384981825948" lon="0.748190972954035">
        <ele>4</ele>
        <time>2018-02-17T09:52:08Z</time>
      </trkpt>
      <trkpt lat="51.68838900513947" lon="0.748223997652531">
        <ele>4</ele>
        <time>2018-02-17T09:52:09Z</time>
      </trkpt>
      <trkpt lat="51.68838900513947" lon="0.748258028179407">
        <ele>4</ele>
        <time>2018-02-17T09:52:10Z</time>
      </trkpt>
      <trkpt lat="51.688390010967851" lon="0.748291974887252">
        <ele>4</ele>
        <time>2018-02-17T09:52:11Z</time>
      </trkpt>
      <trkpt lat="51.688391016796231" lon="0.748326005414128">
        <ele>4</ele>
        <time>2018-02-17T09:52:12Z</time>
      </trkpt>
      <trkpt lat="51.688391016796231" lon="0.748360035941005">
        <ele>4</ele>
        <time>2018-02-17T09:52:13Z</time>
      </trkpt>
      <trkpt lat="51.688391016796231" lon="0.748391970992088">
        <ele>4</ele>
        <time>2018-02-17T09:52:14Z</time>
      </trkpt>
      <trkpt lat="51.688390010967851" lon="0.748444022610784">
        <ele>4</ele>
        <time>2018-02-17T09:52:16Z</time>
      </trkpt>
      <trkpt lat="51.688393028452992" lon="0.748496996238828">
        <ele>4</ele>
        <time>2018-02-17T09:52:18Z</time>
      </trkpt>
      <trkpt lat="51.688401997089386" lon="0.748545024544001">
        <ele>4</ele>
        <time>2018-02-17T09:52:20Z</time>
      </trkpt>
      <trkpt lat="51.688408032059669" lon="0.748591041192412">
        <ele>4</ele>
        <time>2018-02-17T09:52:22Z</time>
      </trkpt>
      <trkpt lat="51.688413983210921" lon="0.748637979850173">
        <ele>4</ele>
        <time>2018-02-17T09:52:24Z</time>
      </trkpt>
      <trkpt lat="51.688418006524444" lon="0.748690031468868">
        <ele>4</ele>
        <time>2018-02-17T09:52:26Z</time>
      </trkpt>
      <trkpt lat="51.688422029837966" lon="0.748747028410435">
        <ele>4</ele>
        <time>2018-02-17T09:52:28Z</time>
      </trkpt>
      <trkpt lat="51.688422029837966" lon="0.748778963461518">
        <ele>4</ele>
        <time>2018-02-17T09:52:29Z</time>
      </trkpt>
      <trkpt lat="51.688423035666347" lon="0.748810982331634">
        <ele>4</ele>
        <time>2018-02-17T09:52:30Z</time>
      </trkpt>
      <trkpt lat="51.688424041494727" lon="0.748843001201749">
        <ele>4</ele>
        <time>2018-02-17T09:52:31Z</time>
      </trkpt>
      <trkpt lat="51.688425969332457" lon="0.748876025900245">
        <ele>4</ele>
        <time>2018-02-17T09:52:32Z</time>
      </trkpt>
      <trkpt lat="51.688429992645979" lon="0.748933022841811">
        <ele>4</ele>
        <time>2018-02-17T09:52:34Z</time>
      </trkpt>
      <trkpt lat="51.68843099847436" lon="0.748987002298236">
        <ele>4</ele>
        <time>2018-02-17T09:52:36Z</time>
      </trkpt>
      <trkpt lat="51.68843200430274" lon="0.74901700951159">
        <ele>4</ele>
        <time>2018-02-17T09:52:37Z</time>
      </trkpt>
      <trkpt lat="51.68843200430274" lon="0.749050034210086">
        <ele>4</ele>
        <time>2018-02-17T09:52:38Z</time>
      </trkpt>
      <trkpt lat="51.688429992645979" lon="0.74908004142344">
        <ele>4</ele>
        <time>2018-02-17T09:52:39Z</time>
      </trkpt>
      <trkpt lat="51.688427980989218" lon="0.749111976474524">
        <ele>4</ele>
        <time>2018-02-17T09:52:40Z</time>
      </trkpt>
      <trkpt lat="51.688426975160837" lon="0.749142989516258">
        <ele>4</ele>
        <time>2018-02-17T09:52:41Z</time>
      </trkpt>
      <trkpt lat="51.688424963504076" lon="0.749176014214754">
        <ele>4</ele>
        <time>2018-02-17T09:52:42Z</time>
      </trkpt>
      <trkpt lat="51.688420018181205" lon="0.74920903891325">
        <ele>4</ele>
        <time>2018-02-17T09:52:43Z</time>
      </trkpt>
      <trkpt lat="51.688414989039302" lon="0.749239968135953">
        <ele>4</ele>
        <time>2018-02-17T09:52:44Z</time>
      </trkpt>
      <trkpt lat="51.688408032059669" lon="0.749268969520926">
        <ele>4</ele>
        <time>2018-02-17T09:52:45Z</time>
      </trkpt>
      <trkpt lat="51.688399985432625" lon="0.749298976734281">
        <ele>4</ele>
        <time>2018-02-17T09:52:46Z</time>
      </trkpt>
      <trkpt lat="51.688393028452992" lon="0.749328983947635">
        <ele>4</ele>
        <time>2018-02-17T09:52:47Z</time>
      </trkpt>
      <trkpt lat="51.688385987654328" lon="0.749359996989369">
        <ele>4</ele>
        <time>2018-02-17T09:52:48Z</time>
      </trkpt>
      <trkpt lat="51.688378024846315" lon="0.749390004202724">
        <ele>4</ele>
        <time>2018-02-17T09:52:49Z</time>
      </trkpt>
      <trkpt lat="51.688372995704412" lon="0.749450018629432">
        <ele>4</ele>
        <time>2018-02-17T09:52:51Z</time>
      </trkpt>
      <trkpt lat="51.688371989876032" lon="0.749480025842786">
        <ele>4</ele>
        <time>2018-02-17T09:52:52Z</time>
      </trkpt>
      <trkpt lat="51.688372995704412" lon="0.74951003305614">
        <ele>4</ele>
        <time>2018-02-17T09:52:53Z</time>
      </trkpt>
      <trkpt lat="51.688376013189554" lon="0.749540962278843">
        <ele>4</ele>
        <time>2018-02-17T09:52:54Z</time>
      </trkpt>
      <trkpt lat="51.688380036503077" lon="0.749570969492197">
        <ele>4</ele>
        <time>2018-02-17T09:52:55Z</time>
      </trkpt>
      <trkpt lat="51.688382970169187" lon="0.749603994190693">
        <ele>4</ele>
        <time>2018-02-17T09:52:56Z</time>
      </trkpt>
      <trkpt lat="51.688385987654328" lon="0.749636013060808">
        <ele>4</ele>
        <time>2018-02-17T09:52:57Z</time>
      </trkpt>
      <trkpt lat="51.68838900513947" lon="0.749669037759304">
        <ele>4</ele>
        <time>2018-02-17T09:52:58Z</time>
      </trkpt>
      <trkpt lat="51.688391016796231" lon="0.749701978638768">
        <ele>4</ele>
        <time>2018-02-17T09:52:59Z</time>
      </trkpt>
      <trkpt lat="51.688395040109754" lon="0.749732991680503">
        <ele>4</ele>
        <time>2018-02-17T09:53:00Z</time>
      </trkpt>
      <trkpt lat="51.688398979604244" lon="0.749766016378999">
        <ele>4</ele>
        <time>2018-02-17T09:53:01Z</time>
      </trkpt>
      <trkpt lat="51.688404008746147" lon="0.749798035249114">
        <ele>4</ele>
        <time>2018-02-17T09:53:02Z</time>
      </trkpt>
      <trkpt lat="51.68840903788805" lon="0.749831981956959">
        <ele>4</ele>
        <time>2018-02-17T09:53:03Z</time>
      </trkpt>
      <trkpt lat="51.688413983210921" lon="0.749864000827074">
        <ele>4</ele>
        <time>2018-02-17T09:53:04Z</time>
      </trkpt>
      <trkpt lat="51.688417000696063" lon="0.749898031353951">
        <ele>4.1699968</ele>
        <time>2018-02-17T09:53:05Z</time>
      </trkpt>
      <trkpt lat="51.688421024009585" lon="0.749928038567305">
        <ele>5</ele>
        <time>2018-02-17T09:53:06Z</time>
      </trkpt>
      <trkpt lat="51.688424041494727" lon="0.749959973618388">
        <ele>5</ele>
        <time>2018-02-17T09:53:07Z</time>
      </trkpt>
      <trkpt lat="51.688426975160837" lon="0.749990986660123">
        <ele>5</ele>
        <time>2018-02-17T09:53:08Z</time>
      </trkpt>
      <trkpt lat="51.688429992645979" lon="0.750024011358619">
        <ele>5</ele>
        <time>2018-02-17T09:53:09Z</time>
      </trkpt>
      <trkpt lat="51.68843200430274" lon="0.750056030228734">
        <ele>5</ele>
        <time>2018-02-17T09:53:10Z</time>
      </trkpt>
      <trkpt lat="51.688436027616262" lon="0.750090982764959">
        <ele>5</ele>
        <time>2018-02-17T09:53:11Z</time>
      </trkpt>
      <trkpt lat="51.688439967110753" lon="0.750128030776978">
        <ele>5</ele>
        <time>2018-02-17T09:53:12Z</time>
      </trkpt>
      <trkpt lat="51.688440972939134" lon="0.750160971656442">
        <ele>5</ele>
        <time>2018-02-17T09:53:13Z</time>
      </trkpt>
      <trkpt lat="51.688441978767514" lon="0.75019801966846">
        <ele>5</ele>
        <time>2018-02-17T09:53:14Z</time>
      </trkpt>
      <trkpt lat="51.688444996252656" lon="0.750230038538575">
        <ele>5</ele>
        <time>2018-02-17T09:53:15Z</time>
      </trkpt>
      <trkpt lat="51.688450025394559" lon="0.75026398524642">
        <ele>5</ele>
        <time>2018-02-17T09:53:16Z</time>
      </trkpt>
      <trkpt lat="51.68845203705132" lon="0.750300027430058">
        <ele>5</ele>
        <time>2018-02-17T09:53:17Z</time>
      </trkpt>
      <trkpt lat="51.688452959060669" lon="0.750334979966283">
        <ele>5</ele>
        <time>2018-02-17T09:53:18Z</time>
      </trkpt>
      <trkpt lat="51.68845396488905" lon="0.75037001632154">
        <ele>5</ele>
        <time>2018-02-17T09:53:19Z</time>
      </trkpt>
      <trkpt lat="51.68845497071743" lon="0.750403963029385">
        <ele>5</ele>
        <time>2018-02-17T09:53:20Z</time>
      </trkpt>
      <trkpt lat="51.68845497071743" lon="0.750442016869783">
        <ele>5</ele>
        <time>2018-02-17T09:53:21Z</time>
      </trkpt>
      <trkpt lat="51.688452959060669" lon="0.750475963577628">
        <ele>5</ele>
        <time>2018-02-17T09:53:22Z</time>
      </trkpt>
      <trkpt lat="51.688452959060669" lon="0.750507982447743">
        <ele>5</ele>
        <time>2018-02-17T09:53:23Z</time>
      </trkpt>
      <trkpt lat="51.688452959060669" lon="0.750543018803">
        <ele>5</ele>
        <time>2018-02-17T09:53:24Z</time>
      </trkpt>
      <trkpt lat="51.68845203705132" lon="0.750577971339226">
        <ele>5</ele>
        <time>2018-02-17T09:53:25Z</time>
      </trkpt>
      <trkpt lat="51.68845396488905" lon="0.750612001866102">
        <ele>5</ele>
        <time>2018-02-17T09:53:26Z</time>
      </trkpt>
      <trkpt lat="51.688458994030952" lon="0.750649971887469">
        <ele>5</ele>
        <time>2018-02-17T09:53:27Z</time>
      </trkpt>
      <trkpt lat="51.688463017344475" lon="0.750684002414346">
        <ele>5</ele>
        <time>2018-02-17T09:53:28Z</time>
      </trkpt>
      <trkpt lat="51.688469974324107" lon="0.750719960778952">
        <ele>5</ele>
        <time>2018-02-17T09:53:29Z</time>
      </trkpt>
      <trkpt lat="51.688476009294391" lon="0.750753991305828">
        <ele>5</ele>
        <time>2018-02-17T09:53:30Z</time>
      </trkpt>
      <trkpt lat="51.688481960445642" lon="0.750783998519182">
        <ele>5</ele>
        <time>2018-02-17T09:53:31Z</time>
      </trkpt>
      <trkpt lat="51.688490007072687" lon="0.750818029046059">
        <ele>5</ele>
        <time>2018-02-17T09:53:32Z</time>
      </trkpt>
      <trkpt lat="51.688495958223939" lon="0.750849964097142">
        <ele>5</ele>
        <time>2018-02-17T09:53:33Z</time>
      </trkpt>
      <trkpt lat="51.688499981537461" lon="0.750883994624019">
        <ele>5</ele>
        <time>2018-02-17T09:53:34Z</time>
      </trkpt>
      <trkpt lat="51.688500987365842" lon="0.750920036807656">
        <ele>5</ele>
        <time>2018-02-17T09:53:35Z</time>
      </trkpt>
      <trkpt lat="51.688502999022603" lon="0.750953983515501">
        <ele>5</ele>
        <time>2018-02-17T09:53:36Z</time>
      </trkpt>
      <trkpt lat="51.688505010679364" lon="0.750992959365249">
        <ele>5</ele>
        <time>2018-02-17T09:53:37Z</time>
      </trkpt>
      <trkpt lat="51.688506016507745" lon="0.751030007377267">
        <ele>5</ele>
        <time>2018-02-17T09:53:38Z</time>
      </trkpt>
      <trkpt lat="51.688508028164506" lon="0.751064959913492">
        <ele>5</ele>
        <time>2018-02-17T09:53:39Z</time>
      </trkpt>
      <trkpt lat="51.688507022336125" lon="0.75110200792551">
        <ele>5</ele>
        <time>2018-02-17T09:53:40Z</time>
      </trkpt>
      <trkpt lat="51.688507022336125" lon="0.751136038452387">
        <ele>5</ele>
        <time>2018-02-17T09:53:41Z</time>
      </trkpt>
      <trkpt lat="51.688508028164506" lon="0.751173002645373">
        <ele>5</ele>
        <time>2018-02-17T09:53:42Z</time>
      </trkpt>
      <trkpt lat="51.688510961830616" lon="0.75121097266674">
        <ele>5</ele>
        <time>2018-02-17T09:53:43Z</time>
      </trkpt>
      <trkpt lat="51.688513979315758" lon="0.751246009021997">
        <ele>5</ele>
        <time>2018-02-17T09:53:44Z</time>
      </trkpt>
      <trkpt lat="51.688514985144138" lon="0.751280039548874">
        <ele>5</ele>
        <time>2018-02-17T09:53:45Z</time>
      </trkpt>
      <trkpt lat="51.6885169968009" lon="0.751313986256719">
        <ele>5</ele>
        <time>2018-02-17T09:53:46Z</time>
      </trkpt>
      <trkpt lat="51.688519008457661" lon="0.751348016783595">
        <ele>5</ele>
        <time>2018-02-17T09:53:47Z</time>
      </trkpt>
      <trkpt lat="51.688522025942802" lon="0.751381041482091">
        <ele>5</ele>
        <time>2018-02-17T09:53:48Z</time>
      </trkpt>
      <trkpt lat="51.688525965437293" lon="0.751411970704794">
        <ele>5</ele>
        <time>2018-02-17T09:53:49Z</time>
      </trkpt>
      <trkpt lat="51.688526971265674" lon="0.751448012888432">
        <ele>5</ele>
        <time>2018-02-17T09:53:50Z</time>
      </trkpt>
      <trkpt lat="51.688528982922435" lon="0.751481959596276">
        <ele>5</ele>
        <time>2018-02-17T09:53:51Z</time>
      </trkpt>
      <trkpt lat="51.688530994579196" lon="0.751518001779914">
        <ele>5</ele>
        <time>2018-02-17T09:53:52Z</time>
      </trkpt>
      <trkpt lat="51.688535017892718" lon="0.75155396014452">
        <ele>5</ele>
        <time>2018-02-17T09:53:53Z</time>
      </trkpt>
      <trkpt lat="51.68853996321559" lon="0.751585979014635">
        <ele>5</ele>
        <time>2018-02-17T09:53:54Z</time>
      </trkpt>
      <trkpt lat="51.688542980700731" lon="0.751620009541512">
        <ele>5</ele>
        <time>2018-02-17T09:53:55Z</time>
      </trkpt>
      <trkpt lat="51.688545998185873" lon="0.751654040068388">
        <ele>5</ele>
        <time>2018-02-17T09:53:56Z</time>
      </trkpt>
      <trkpt lat="51.688550021499395" lon="0.751687986776233">
        <ele>5</ele>
        <time>2018-02-17T09:53:57Z</time>
      </trkpt>
      <trkpt lat="51.688553960993886" lon="0.751721011474729">
        <ele>5</ele>
        <time>2018-02-17T09:53:58Z</time>
      </trkpt>
      <trkpt lat="51.688558990135789" lon="0.751754036173224">
        <ele>5</ele>
        <time>2018-02-17T09:53:59Z</time>
      </trkpt>
      <trkpt lat="51.688566030934453" lon="0.751787982881069">
        <ele>5</ele>
        <time>2018-02-17T09:54:00Z</time>
      </trkpt>
      <trkpt lat="51.688573993742466" lon="0.751816984266043">
        <ele>5</ele>
        <time>2018-02-17T09:54:01Z</time>
      </trkpt>
      <trkpt lat="51.688579022884369" lon="0.751850008964539">
        <ele>5</ele>
        <time>2018-02-17T09:54:02Z</time>
      </trkpt>
      <trkpt lat="51.688585979864001" lon="0.751884039491415">
        <ele>5</ele>
        <time>2018-02-17T09:54:03Z</time>
      </trkpt>
      <trkpt lat="51.688594026491046" lon="0.751915974542499">
        <ele>5</ele>
        <time>2018-02-17T09:54:04Z</time>
      </trkpt>
      <trkpt lat="51.68860400095582" lon="0.751947993412614">
        <ele>5</ele>
        <time>2018-02-17T09:54:05Z</time>
      </trkpt>
      <trkpt lat="51.688610035926104" lon="0.751976994797587">
        <ele>5</ele>
        <time>2018-02-17T09:54:06Z</time>
      </trkpt>
      <trkpt lat="51.688614981248975" lon="0.752008007839322">
        <ele>5</ele>
        <time>2018-02-17T09:54:07Z</time>
      </trkpt>
      <trkpt lat="51.6886240337044" lon="0.752039020881057">
        <ele>5</ele>
        <time>2018-02-17T09:54:08Z</time>
      </trkpt>
      <trkpt lat="51.688631996512413" lon="0.752070033922791">
        <ele>5</ele>
        <time>2018-02-17T09:54:09Z</time>
      </trkpt>
      <trkpt lat="51.688641970977187" lon="0.752102974802256">
        <ele>5</ele>
        <time>2018-02-17T09:54:10Z</time>
      </trkpt>
      <trkpt lat="51.688648005947471" lon="0.752131976187229">
        <ele>5</ele>
        <time>2018-02-17T09:54:11Z</time>
      </trkpt>
      <trkpt lat="51.688655968755484" lon="0.752161983400583">
        <ele>5</ele>
        <time>2018-02-17T09:54:12Z</time>
      </trkpt>
      <trkpt lat="51.688664015382528" lon="0.752191990613937">
        <ele>5</ele>
        <time>2018-02-17T09:54:13Z</time>
      </trkpt>
      <trkpt lat="51.688676001504064" lon="0.752220991998911">
        <ele>5</ele>
        <time>2018-02-17T09:54:14Z</time>
      </trkpt>
      <trkpt lat="51.688688993453979" lon="0.752252005040646">
        <ele>5</ele>
        <time>2018-02-17T09:54:15Z</time>
      </trkpt>
      <trkpt lat="51.688699973747134" lon="0.752284023910761">
        <ele>5</ele>
        <time>2018-02-17T09:54:16Z</time>
      </trkpt>
      <trkpt lat="51.688706008717418" lon="0.752315958961844">
        <ele>5</ele>
        <time>2018-02-17T09:54:17Z</time>
      </trkpt>
      <trkpt lat="51.688715983182192" lon="0.752344960346818">
        <ele>5</ele>
        <time>2018-02-17T09:54:18Z</time>
      </trkpt>
      <trkpt lat="51.688726041465998" lon="0.752372033894062">
        <ele>5</ele>
        <time>2018-02-17T09:54:19Z</time>
      </trkpt>
      <trkpt lat="51.688734004274011" lon="0.752403968945146">
        <ele>5</ele>
        <time>2018-02-17T09:54:20Z</time>
      </trkpt>
      <trkpt lat="51.688743978738785" lon="0.752431964501739">
        <ele>5</ele>
        <time>2018-02-17T09:54:21Z</time>
      </trkpt>
      <trkpt lat="51.688752025365829" lon="0.752459038048983">
        <ele>5</ele>
        <time>2018-02-17T09:54:22Z</time>
      </trkpt>
      <trkpt lat="51.688764011487365" lon="0.752487033605576">
        <ele>5</ele>
        <time>2018-02-17T09:54:23Z</time>
      </trkpt>
      <trkpt lat="51.688773985952139" lon="0.752512011677027">
        <ele>5</ele>
        <time>2018-02-17T09:54:24Z</time>
      </trkpt>
      <trkpt lat="51.688787983730435" lon="0.752554005011916">
        <ele>5</ele>
        <time>2018-02-17T09:54:26Z</time>
      </trkpt>
      <trkpt lat="51.68879896402359" lon="0.752588035538793">
        <ele>5</ele>
        <time>2018-02-17T09:54:28Z</time>
      </trkpt>
      <trkpt lat="51.688808016479015" lon="0.752613013610244">
        <ele>5</ele>
        <time>2018-02-17T09:54:30Z</time>
      </trkpt>
      <trkpt lat="51.688817990943789" lon="0.752644026651978">
        <ele>5</ele>
        <time>2018-02-17T09:54:33Z</time>
      </trkpt>
      <trkpt lat="51.688829977065325" lon="0.752666993066669">
        <ele>5</ele>
        <time>2018-02-17T09:54:36Z</time>
      </trkpt>
      <trkpt lat="51.688841041177511" lon="0.75269197113812">
        <ele>5</ele>
        <time>2018-02-17T09:55:16Z</time>
      </trkpt>
      <trkpt lat="51.688851015642285" lon="0.752724995836616">
        <ele>5</ele>
        <time>2018-02-17T09:55:24Z</time>
      </trkpt>
      <trkpt lat="51.688855960965157" lon="0.75275600887835">
        <ele>5</ele>
        <time>2018-02-17T09:55:26Z</time>
      </trkpt>
      <trkpt lat="51.688858978450298" lon="0.752785010263324">
        <ele>5</ele>
        <time>2018-02-17T09:55:29Z</time>
      </trkpt>
      <trkpt lat="51.688883034512401" lon="0.75279800221324">
        <ele>5</ele>
        <time>2018-02-17T09:55:32Z</time>
      </trkpt>
      <trkpt lat="51.688907006755471" lon="0.752803031355143">
        <ele>5</ele>
        <time>2018-02-17T09:55:34Z</time>
      </trkpt>
      <trkpt lat="51.688923016190529" lon="0.752823986113071">
        <ele>5</ele>
        <time>2018-02-17T09:55:36Z</time>
      </trkpt>
      <trkpt lat="51.688924022018909" lon="0.7528639677912">
        <ele>5</ele>
        <time>2018-02-17T09:55:40Z</time>
      </trkpt>
      <trkpt lat="51.688914969563484" lon="0.75290403328836">
        <ele>5</ele>
        <time>2018-02-17T09:55:43Z</time>
      </trkpt>
      <trkpt lat="51.688926033675671" lon="0.752940997481346">
        <ele>5</ele>
        <time>2018-02-17T09:55:46Z</time>
      </trkpt>
      <trkpt lat="51.688939025625587" lon="0.7529710046947">
        <ele>5</ele>
        <time>2018-02-17T09:55:48Z</time>
      </trkpt>
      <trkpt lat="51.688952017575502" lon="0.752997994422913">
        <ele>5</ele>
        <time>2018-02-17T09:55:50Z</time>
      </trkpt>
      <trkpt lat="51.688958974555135" lon="0.753030013293028">
        <ele>5</ele>
        <time>2018-02-17T09:55:52Z</time>
      </trkpt>
      <trkpt lat="51.688969032838941" lon="0.753059014678001">
        <ele>5</ele>
        <time>2018-02-17T09:55:54Z</time>
      </trkpt>
      <trkpt lat="51.688984958454967" lon="0.753090027719736">
        <ele>5</ele>
        <time>2018-02-17T09:55:57Z</time>
      </trkpt>
      <trkpt lat="51.689001973718405" lon="0.753110982477665">
        <ele>5</ele>
        <time>2018-02-17T09:56:00Z</time>
      </trkpt>
      <trkpt lat="51.689023012295365" lon="0.753106959164143">
        <ele>5</ele>
        <time>2018-02-17T09:56:03Z</time>
      </trkpt>
      <trkpt lat="51.689039021730423" lon="0.753091033548117">
        <ele>5</ele>
        <time>2018-02-17T09:56:05Z</time>
      </trkpt>
      <trkpt lat="51.689053019508719" lon="0.753064965829253">
        <ele>5</ele>
        <time>2018-02-17T09:56:07Z</time>
      </trkpt>
      <trkpt lat="51.689034998416901" lon="0.75303303077817">
        <ele>5</ele>
        <time>2018-02-17T09:56:11Z</time>
      </trkpt>
      <trkpt lat="51.689047990366817" lon="0.753010986372828">
        <ele>5</ele>
        <time>2018-02-17T09:56:15Z</time>
      </trkpt>
      <trkpt lat="51.689068023115396" lon="0.752985002472997">
        <ele>5</ele>
        <time>2018-02-17T09:56:18Z</time>
      </trkpt>
      <trkpt lat="51.689098030328751" lon="0.752997994422913">
        <ele>5</ele>
        <time>2018-02-17T09:56:20Z</time>
      </trkpt>
      <trkpt lat="51.689120996743441" lon="0.753020038828254">
        <ele>5</ele>
        <time>2018-02-17T09:56:22Z</time>
      </trkpt>
      <trkpt lat="51.68914002366364" lon="0.753044011071324">
        <ele>5</ele>
        <time>2018-02-17T09:56:24Z</time>
      </trkpt>
      <trkpt lat="51.689155027270317" lon="0.753073012456298">
        <ele>5</ele>
        <time>2018-02-17T09:56:26Z</time>
      </trkpt>
      <trkpt lat="51.689171036705375" lon="0.753104025498033">
        <ele>5</ele>
        <time>2018-02-17T09:56:28Z</time>
      </trkpt>
      <trkpt lat="51.689186040312052" lon="0.753135038539767">
        <ele>5</ele>
        <time>2018-02-17T09:56:30Z</time>
      </trkpt>
      <trkpt lat="51.689203977584839" lon="0.75316496193409">
        <ele>5</ele>
        <time>2018-02-17T09:56:32Z</time>
      </trkpt>
      <trkpt lat="51.689216969534755" lon="0.753196980804205">
        <ele>5</ele>
        <time>2018-02-17T09:56:34Z</time>
      </trkpt>
      <trkpt lat="51.689229961484671" lon="0.75322799384594">
        <ele>5</ele>
        <time>2018-02-17T09:56:36Z</time>
      </trkpt>
      <trkpt lat="51.689243037253618" lon="0.753255989402533">
        <ele>5</ele>
        <time>2018-02-17T09:56:38Z</time>
      </trkpt>
      <trkpt lat="51.689257035031915" lon="0.753280967473984">
        <ele>5</ele>
        <time>2018-02-17T09:56:40Z</time>
      </trkpt>
      <trkpt lat="51.689273966476321" lon="0.753311980515718">
        <ele>5</ele>
        <time>2018-02-17T09:56:42Z</time>
      </trkpt>
      <trkpt lat="51.689295005053282" lon="0.75333695858717">
        <ele>5</ele>
        <time>2018-02-17T09:56:44Z</time>
      </trkpt>
      <trkpt lat="51.689318977296352" lon="0.75335799716413">
        <ele>5</ele>
        <time>2018-02-17T09:56:46Z</time>
      </trkpt>
      <trkpt lat="51.689343033358455" lon="0.753381969407201">
        <ele>5</ele>
        <time>2018-02-17T09:56:48Z</time>
      </trkpt>
      <trkpt lat="51.689361976459622" lon="0.753406025469303">
        <ele>5</ele>
        <time>2018-02-17T09:56:50Z</time>
      </trkpt>
      <trkpt lat="51.689381003379822" lon="0.753425974398851">
        <ele>5</ele>
        <time>2018-02-17T09:56:52Z</time>
      </trkpt>
      <trkpt lat="51.689403969794512" lon="0.753449024632573">
        <ele>5</ele>
        <time>2018-02-17T09:56:54Z</time>
      </trkpt>
      <trkpt lat="51.689426014199853" lon="0.753478026017547">
        <ele>5</ele>
        <time>2018-02-17T09:56:56Z</time>
      </trkpt>
      <trkpt lat="51.689445963129401" lon="0.753505015745759">
        <ele>5</ele>
        <time>2018-02-17T09:56:58Z</time>
      </trkpt>
      <trkpt lat="51.689465995877981" lon="0.75352999381721">
        <ele>5</ele>
        <time>2018-02-17T09:57:00Z</time>
      </trkpt>
      <trkpt lat="51.689489968121052" lon="0.7535719871521">
        <ele>5</ele>
        <time>2018-02-17T09:57:02Z</time>
      </trkpt>
      <trkpt lat="51.689502038061619" lon="0.75359201990068">
        <ele>5</ele>
        <time>2018-02-17T09:57:03Z</time>
      </trkpt>
      <trkpt lat="51.689518969506025" lon="0.753613980486989">
        <ele>5</ele>
        <time>2018-02-17T09:57:04Z</time>
      </trkpt>
      <trkpt lat="51.689533973112702" lon="0.753637030720711">
        <ele>5</ele>
        <time>2018-02-17T09:57:05Z</time>
      </trkpt>
      <trkpt lat="51.689548976719379" lon="0.753661002963781">
        <ele>5</ele>
        <time>2018-02-17T09:57:06Z</time>
      </trkpt>
      <trkpt lat="51.689563980326056" lon="0.753686986863613">
        <ele>5</ele>
        <time>2018-02-17T09:57:07Z</time>
      </trkpt>
      <trkpt lat="51.689579989761114" lon="0.753712970763445">
        <ele>5</ele>
        <time>2018-02-17T09:57:08Z</time>
      </trkpt>
      <trkpt lat="51.689594993367791" lon="0.753737026825547">
        <ele>5</ele>
        <time>2018-02-17T09:57:09Z</time>
      </trkpt>
      <trkpt lat="51.689608991146088" lon="0.753760999068618">
        <ele>5</ele>
        <time>2018-02-17T09:57:10Z</time>
      </trkpt>
      <trkpt lat="51.689623994752765" lon="0.753782959654927">
        <ele>5</ele>
        <time>2018-02-17T09:57:11Z</time>
      </trkpt>
      <trkpt lat="51.689640004187822" lon="0.75380802154541">
        <ele>5</ele>
        <time>2018-02-17T09:57:12Z</time>
      </trkpt>
      <trkpt lat="51.689654001966119" lon="0.753834005445242">
        <ele>5</ele>
        <time>2018-02-17T09:57:13Z</time>
      </trkpt>
      <trkpt lat="51.689670011401176" lon="0.753858983516693">
        <ele>5</ele>
        <time>2018-02-17T09:57:14Z</time>
      </trkpt>
      <trkpt lat="51.689684009179473" lon="0.753884967416525">
        <ele>5</ele>
        <time>2018-02-17T09:57:15Z</time>
      </trkpt>
      <trkpt lat="51.689698006957769" lon="0.753910029307008">
        <ele>5</ele>
        <time>2018-02-17T09:57:16Z</time>
      </trkpt>
      <trkpt lat="51.689714016392827" lon="0.753940036520362">
        <ele>5</ele>
        <time>2018-02-17T09:57:17Z</time>
      </trkpt>
      <trkpt lat="51.689732037484646" lon="0.753967026248574">
        <ele>5</ele>
        <time>2018-02-17T09:57:18Z</time>
      </trkpt>
      <trkpt lat="51.689746035262942" lon="0.753994015976787">
        <ele>5</ele>
        <time>2018-02-17T09:57:19Z</time>
      </trkpt>
      <trkpt lat="51.689761038869619" lon="0.754019999876618">
        <ele>5</ele>
        <time>2018-02-17T09:57:20Z</time>
      </trkpt>
      <trkpt lat="51.689777970314026" lon="0.754042966291308">
        <ele>5</ele>
        <time>2018-02-17T09:57:21Z</time>
      </trkpt>
      <trkpt lat="51.689791968092322" lon="0.75406601652503">
        <ele>5</ele>
        <time>2018-02-17T09:57:22Z</time>
      </trkpt>
      <trkpt lat="51.68980797752738" lon="0.754092000424862">
        <ele>5</ele>
        <time>2018-02-17T09:57:23Z</time>
      </trkpt>
      <trkpt lat="51.689821975305676" lon="0.754116978496313">
        <ele>5</ele>
        <time>2018-02-17T09:57:24Z</time>
      </trkpt>
      <trkpt lat="51.689839996397495" lon="0.754143968224525">
        <ele>5</ele>
        <time>2018-02-17T09:57:25Z</time>
      </trkpt>
      <trkpt lat="51.689853994175792" lon="0.754169030115008">
        <ele>5</ele>
        <time>2018-02-17T09:57:26Z</time>
      </trkpt>
      <trkpt lat="51.68987100943923" lon="0.75419501401484">
        <ele>5</ele>
        <time>2018-02-17T09:57:27Z</time>
      </trkpt>
      <trkpt lat="51.689888024702668" lon="0.754218986257911">
        <ele>5</ele>
        <time>2018-02-17T09:57:28Z</time>
      </trkpt>
      <trkpt lat="51.689904034137726" lon="0.754242036491632">
        <ele>5</ele>
        <time>2018-02-17T09:57:29Z</time>
      </trkpt>
      <trkpt lat="51.689919959753752" lon="0.754267014563084">
        <ele>5</ele>
        <time>2018-02-17T09:57:30Z</time>
      </trkpt>
      <trkpt lat="51.689937980845571" lon="0.754289980977774">
        <ele>5</ele>
        <time>2018-02-17T09:57:31Z</time>
      </trkpt>
      <trkpt lat="51.689953990280628" lon="0.754313031211495">
        <ele>5</ele>
        <time>2018-02-17T09:57:32Z</time>
      </trkpt>
      <trkpt lat="51.689969999715686" lon="0.754333985969424">
        <ele>5</ele>
        <time>2018-02-17T09:57:33Z</time>
      </trkpt>
      <trkpt lat="51.689989026635885" lon="0.754352007061243">
        <ele>5</ele>
        <time>2018-02-17T09:57:34Z</time>
      </trkpt>
      <trkpt lat="51.690007969737053" lon="0.754371033981442">
        <ele>5</ele>
        <time>2018-02-17T09:57:35Z</time>
      </trkpt>
      <trkpt lat="51.690025990828872" lon="0.754386959597468">
        <ele>5</ele>
        <time>2018-02-17T09:57:36Z</time>
      </trkpt>
      <trkpt lat="51.690046023577452" lon="0.754402969032526">
        <ele>5</ele>
        <time>2018-02-17T09:57:37Z</time>
      </trkpt>
      <trkpt lat="51.690063960850239" lon="0.754417972639203">
        <ele>5</ele>
        <time>2018-02-17T09:57:38Z</time>
      </trkpt>
      <trkpt lat="51.690083993598819" lon="0.75442903675139">
        <ele>5</ele>
        <time>2018-02-17T09:57:39Z</time>
      </trkpt>
      <trkpt lat="51.690104026347399" lon="0.754441022872925">
        <ele>5</ele>
        <time>2018-02-17T09:57:40Z</time>
      </trkpt>
      <trkpt lat="51.690123975276947" lon="0.75445200316608">
        <ele>5</ele>
        <time>2018-02-17T09:57:41Z</time>
      </trkpt>
      <trkpt lat="51.690146019682288" lon="0.754464995115995">
        <ele>5</ele>
        <time>2018-02-17T09:57:42Z</time>
      </trkpt>
      <trkpt lat="51.690165968611836" lon="0.754476981237531">
        <ele>5</ele>
        <time>2018-02-17T09:57:43Z</time>
      </trkpt>
      <trkpt lat="51.690186001360416" lon="0.754492990672588">
        <ele>5</ele>
        <time>2018-02-17T09:57:44Z</time>
      </trkpt>
      <trkpt lat="51.690204022452235" lon="0.754513023421168">
        <ele>5</ele>
        <time>2018-02-17T09:57:45Z</time>
      </trkpt>
      <trkpt lat="51.690220031887293" lon="0.754533978179097">
        <ele>5</ele>
        <time>2018-02-17T09:57:46Z</time>
      </trkpt>
      <trkpt lat="51.690234029665589" lon="0.75456096790731">
        <ele>5</ele>
        <time>2018-02-17T09:57:47Z</time>
      </trkpt>
      <trkpt lat="51.690248027443886" lon="0.754591980949044">
        <ele>5</ele>
        <time>2018-02-17T09:57:48Z</time>
      </trkpt>
      <trkpt lat="51.690260013565421" lon="0.75462500564754">
        <ele>5</ele>
        <time>2018-02-17T09:57:49Z</time>
      </trkpt>
      <trkpt lat="51.690269988030195" lon="0.754658030346036">
        <ele>5</ele>
        <time>2018-02-17T09:57:50Z</time>
      </trkpt>
      <trkpt lat="51.69027803465724" lon="0.754692982882261">
        <ele>5</ele>
        <time>2018-02-17T09:57:51Z</time>
      </trkpt>
      <trkpt lat="51.690281974151731" lon="0.754728019237518">
        <ele>5</ele>
        <time>2018-02-17T09:57:52Z</time>
      </trkpt>
      <trkpt lat="51.690288009122014" lon="0.754760038107634">
        <ele>5</ele>
        <time>2018-02-17T09:57:53Z</time>
      </trkpt>
      <trkpt lat="51.690292032435536" lon="0.754793984815478">
        <ele>5</ele>
        <time>2018-02-17T09:57:54Z</time>
      </trkpt>
      <trkpt lat="51.690299995243549" lon="0.754830026999116">
        <ele>5</ele>
        <time>2018-02-17T09:57:55Z</time>
      </trkpt>
      <trkpt lat="51.690306030213833" lon="0.754863973706961">
        <ele>5</ele>
        <time>2018-02-17T09:57:56Z</time>
      </trkpt>
      <trkpt lat="51.690312987193465" lon="0.754899010062218">
        <ele>5</ele>
        <time>2018-02-17T09:57:57Z</time>
      </trkpt>
      <trkpt lat="51.690320027992129" lon="0.754934968426824">
        <ele>5</ele>
        <time>2018-02-17T09:57:58Z</time>
      </trkpt>
      <trkpt lat="51.690330002456903" lon="0.754973022267222">
        <ele>5</ele>
        <time>2018-02-17T09:57:59Z</time>
      </trkpt>
      <trkpt lat="51.690339976921678" lon="0.755007974803448">
        <ele>5</ele>
        <time>2018-02-17T09:58:00Z</time>
      </trkpt>
      <trkpt lat="51.690350035205483" lon="0.755044016987085">
        <ele>5</ele>
        <time>2018-02-17T09:58:01Z</time>
      </trkpt>
      <trkpt lat="51.690356992185116" lon="0.755078969523311">
        <ele>5</ele>
        <time>2018-02-17T09:58:02Z</time>
      </trkpt>
      <trkpt lat="51.690365960821509" lon="0.755113000050187">
        <ele>5</ele>
        <time>2018-02-17T09:58:03Z</time>
      </trkpt>
      <trkpt lat="51.690376019105315" lon="0.755148036405444">
        <ele>5</ele>
        <time>2018-02-17T09:58:04Z</time>
      </trkpt>
      <trkpt lat="51.690383981913328" lon="0.755179971456528">
        <ele>5</ele>
        <time>2018-02-17T09:58:05Z</time>
      </trkpt>
      <trkpt lat="51.690391022711992" lon="0.755212996155024">
        <ele>5</ele>
        <time>2018-02-17T09:58:06Z</time>
      </trkpt>
      <trkpt lat="51.690395968034863" lon="0.755245015025139">
        <ele>5</ele>
        <time>2018-02-17T09:58:07Z</time>
      </trkpt>
      <trkpt lat="51.690402003005147" lon="0.755278039723635">
        <ele>5</ele>
        <time>2018-02-17T09:58:08Z</time>
      </trkpt>
      <trkpt lat="51.690406026318669" lon="0.755310980603099">
        <ele>5</ele>
        <time>2018-02-17T09:58:09Z</time>
      </trkpt>
      <trkpt lat="51.69040996581316" lon="0.755342999473214">
        <ele>5</ele>
        <time>2018-02-17T09:58:10Z</time>
      </trkpt>
      <trkpt lat="51.690416000783443" lon="0.75537602417171">
        <ele>5</ele>
        <time>2018-02-17T09:58:11Z</time>
      </trkpt>
      <trkpt lat="51.690421029925346" lon="0.755407037213445">
        <ele>5</ele>
        <time>2018-02-17T09:58:12Z</time>
      </trkpt>
      <trkpt lat="51.690426981076598" lon="0.755437966436148">
        <ele>5</ele>
        <time>2018-02-17T09:58:13Z</time>
      </trkpt>
      <trkpt lat="51.690431004390121" lon="0.755469985306263">
        <ele>5</ele>
        <time>2018-02-17T09:58:14Z</time>
      </trkpt>
      <trkpt lat="51.690432010218501" lon="0.755498986691237">
        <ele>5</ele>
        <time>2018-02-17T09:58:15Z</time>
      </trkpt>
      <trkpt lat="51.690436033532023" lon="0.755532011389732">
        <ele>5</ele>
        <time>2018-02-17T09:58:16Z</time>
      </trkpt>
      <trkpt lat="51.690443996340036" lon="0.755568975582719">
        <ele>5</ele>
        <time>2018-02-17T09:58:17Z</time>
      </trkpt>
      <trkpt lat="51.690449025481939" lon="0.755600994452834">
        <ele>5</ele>
        <time>2018-02-17T09:58:18Z</time>
      </trkpt>
      <trkpt lat="51.690454976633191" lon="0.755637036636472">
        <ele>5</ele>
        <time>2018-02-17T09:58:19Z</time>
      </trkpt>
      <trkpt lat="51.690463023260236" lon="0.755672995001078">
        <ele>5</ele>
        <time>2018-02-17T09:58:20Z</time>
      </trkpt>
      <trkpt lat="51.690467968583107" lon="0.755708031356335">
        <ele>5</ele>
        <time>2018-02-17T09:58:21Z</time>
      </trkpt>
      <trkpt lat="51.690474003553391" lon="0.75574298389256">
        <ele>5</ele>
        <time>2018-02-17T09:58:22Z</time>
      </trkpt>
      <trkpt lat="51.690481966361403" lon="0.755777014419436">
        <ele>5</ele>
        <time>2018-02-17T09:58:23Z</time>
      </trkpt>
      <trkpt lat="51.690490012988448" lon="0.755811966955662">
        <ele>5</ele>
        <time>2018-02-17T09:58:24Z</time>
      </trkpt>
      <trkpt lat="51.690498981624842" lon="0.75584901496768">
        <ele>5</ele>
        <time>2018-02-17T09:58:25Z</time>
      </trkpt>
      <trkpt lat="51.690501999109983" lon="0.755881033837795">
        <ele>5</ele>
        <time>2018-02-17T09:58:26Z</time>
      </trkpt>
      <trkpt lat="51.690506022423506" lon="0.755913974717259">
        <ele>5</ele>
        <time>2018-02-17T09:58:27Z</time>
      </trkpt>
      <trkpt lat="51.690509039908648" lon="0.755943981930614">
        <ele>5</ele>
        <time>2018-02-17T09:58:28Z</time>
      </trkpt>
      <trkpt lat="51.690513985231519" lon="0.755976000800729">
        <ele>5</ele>
        <time>2018-02-17T09:58:29Z</time>
      </trkpt>
      <trkpt lat="51.690519014373422" lon="0.756009025499225">
        <ele>5</ele>
        <time>2018-02-17T09:58:30Z</time>
      </trkpt>
      <trkpt lat="51.690524965524673" lon="0.756040960550308">
        <ele>5</ele>
        <time>2018-02-17T09:58:31Z</time>
      </trkpt>
      <trkpt lat="51.690533012151718" lon="0.756073985248804">
        <ele>5</ele>
        <time>2018-02-17T09:58:32Z</time>
      </trkpt>
      <trkpt lat="51.690538041293621" lon="0.756104998290539">
        <ele>5</ele>
        <time>2018-02-17T09:58:33Z</time>
      </trkpt>
      <trkpt lat="51.690540974959731" lon="0.756135005503893">
        <ele>5</ele>
        <time>2018-02-17T09:58:34Z</time>
      </trkpt>
      <trkpt lat="51.690548015758395" lon="0.756164006888866">
        <ele>5</ele>
        <time>2018-02-17T09:58:35Z</time>
      </trkpt>
      <trkpt lat="51.690552039071918" lon="0.756195019930601">
        <ele>5</ele>
        <time>2018-02-17T09:58:36Z</time>
      </trkpt>
      <trkpt lat="51.690555978566408" lon="0.756226032972336">
        <ele>5</ele>
        <time>2018-02-17T09:58:37Z</time>
      </trkpt>
      <trkpt lat="51.690563019365072" lon="0.756257968023419">
        <ele>5</ele>
        <time>2018-02-17T09:58:38Z</time>
      </trkpt>
      <trkpt lat="51.690569976344705" lon="0.756290992721915">
        <ele>5</ele>
        <time>2018-02-17T09:58:39Z</time>
      </trkpt>
      <trkpt lat="51.690577017143369" lon="0.756326029077172">
        <ele>5</ele>
        <time>2018-02-17T09:58:40Z</time>
      </trkpt>
      <trkpt lat="51.690576011314988" lon="0.756356036290526">
        <ele>5</ele>
        <time>2018-02-17T09:58:41Z</time>
      </trkpt>
      <trkpt lat="51.690581040456891" lon="0.756388977169991">
        <ele>5</ele>
        <time>2018-02-17T09:58:42Z</time>
      </trkpt>
      <trkpt lat="51.690589003264904" lon="0.756418984383345">
        <ele>5</ele>
        <time>2018-02-17T09:58:43Z</time>
      </trkpt>
      <trkpt lat="51.690595960244536" lon="0.756452009081841">
        <ele>5</ele>
        <time>2018-02-17T09:58:44Z</time>
      </trkpt>
      <trkpt lat="51.690600989386439" lon="0.756485033780336">
        <ele>5</ele>
        <time>2018-02-17T09:58:45Z</time>
      </trkpt>
      <trkpt lat="51.690607024356723" lon="0.756517974659801">
        <ele>5</ele>
        <time>2018-02-17T09:58:46Z</time>
      </trkpt>
      <trkpt lat="51.690611969679594" lon="0.756552005186677">
        <ele>5</ele>
        <time>2018-02-17T09:58:47Z</time>
      </trkpt>
      <trkpt lat="51.690616998821497" lon="0.756587041541934">
        <ele>5</ele>
        <time>2018-02-17T09:58:48Z</time>
      </trkpt>
      <trkpt lat="51.69062303379178" lon="0.756621994078159">
        <ele>5</ele>
        <time>2018-02-17T09:58:49Z</time>
      </trkpt>
      <trkpt lat="51.690628984943032" lon="0.756655018776655">
        <ele>5</ele>
        <time>2018-02-17T09:58:50Z</time>
      </trkpt>
      <trkpt lat="51.690634014084935" lon="0.75668703764677">
        <ele>5</ele>
        <time>2018-02-17T09:58:51Z</time>
      </trkpt>
      <trkpt lat="51.690638959407806" lon="0.756719978526235">
        <ele>5</ele>
        <time>2018-02-17T09:58:52Z</time>
      </trkpt>
      <trkpt lat="51.690647006034851" lon="0.75675300322473">
        <ele>5</ele>
        <time>2018-02-17T09:58:53Z</time>
      </trkpt>
      <trkpt lat="51.690655974671245" lon="0.756786027923226">
        <ele>5</ele>
        <time>2018-02-17T09:58:54Z</time>
      </trkpt>
      <trkpt lat="51.69066502712667" lon="0.756819974631071">
        <ele>5</ele>
        <time>2018-02-17T09:58:55Z</time>
      </trkpt>
      <trkpt lat="51.690671984106302" lon="0.756852999329567">
        <ele>5</ele>
        <time>2018-02-17T09:58:56Z</time>
      </trkpt>
      <trkpt lat="51.690680030733347" lon="0.756888035684824">
        <ele>5</ele>
        <time>2018-02-17T09:58:57Z</time>
      </trkpt>
      <trkpt lat="51.69068899936974" lon="0.756919970735908">
        <ele>5</ele>
        <time>2018-02-17T09:58:58Z</time>
      </trkpt>
      <trkpt lat="51.690697968006134" lon="0.756951989606023">
        <ele>5</ele>
        <time>2018-02-17T09:58:59Z</time>
      </trkpt>
      <trkpt lat="51.69070802628994" lon="0.756981996819377">
        <ele>5</ele>
        <time>2018-02-17T09:59:00Z</time>
      </trkpt>
      <trkpt lat="51.690720012411475" lon="0.757008986547589">
        <ele>5</ele>
        <time>2018-02-17T09:59:01Z</time>
      </trkpt>
      <trkpt lat="51.690735016018152" lon="0.75703295879066">
        <ele>5</ele>
        <time>2018-02-17T09:59:02Z</time>
      </trkpt>
      <trkpt lat="51.690750019624829" lon="0.757051985710859">
        <ele>5</ele>
        <time>2018-02-17T09:59:03Z</time>
      </trkpt>
      <trkpt lat="51.690768962725997" lon="0.757071012631059">
        <ele>5</ele>
        <time>2018-02-17T09:59:05Z</time>
      </trkpt>
      <trkpt lat="51.690792012959719" lon="0.757082998752594">
        <ele>5</ele>
        <time>2018-02-17T09:59:08Z</time>
      </trkpt>
      <trkpt lat="51.690803999081254" lon="0.757109988480806">
        <ele>5</ele>
        <time>2018-02-17T09:59:11Z</time>
      </trkpt>
      <trkpt lat="51.690807016566396" lon="0.75713898986578">
        <ele>5</ele>
        <time>2018-02-17T09:59:29Z</time>
      </trkpt>
      <trkpt lat="51.690807016566396" lon="0.757174026221037">
        <ele>5</ele>
        <time>2018-02-17T09:59:50Z</time>
      </trkpt>
      <trkpt lat="51.690807016566396" lon="0.757204033434391">
        <ele>5</ele>
        <time>2018-02-17T09:59:53Z</time>
      </trkpt>
      <trkpt lat="51.690808022394776" lon="0.757234962657094">
        <ele>5</ele>
        <time>2018-02-17T09:59:55Z</time>
      </trkpt>
      <trkpt lat="51.690799975767732" lon="0.75726899318397">
        <ele>5</ele>
        <time>2018-02-17T09:59:57Z</time>
      </trkpt>
      <trkpt lat="51.690784972161055" lon="0.757308974862099">
        <ele>5</ele>
        <time>2018-02-17T09:59:59Z</time>
      </trkpt>
      <trkpt lat="51.690759994089603" lon="0.757338982075453">
        <ele>5</ele>
        <time>2018-02-17T10:00:01Z</time>
      </trkpt>
      <trkpt lat="51.690725963562727" lon="0.757358008995652">
        <ele>5</ele>
        <time>2018-02-17T10:00:03Z</time>
      </trkpt>
      <trkpt lat="51.690705008804798" lon="0.757372006773949">
        <ele>5</ele>
        <time>2018-02-17T10:00:04Z</time>
      </trkpt>
      <trkpt lat="51.690680030733347" lon="0.757383992895484">
        <ele>5</ele>
        <time>2018-02-17T10:00:05Z</time>
      </trkpt>
      <trkpt lat="51.690656980499625" lon="0.757393967360258">
        <ele>5</ele>
        <time>2018-02-17T10:00:06Z</time>
      </trkpt>
      <trkpt lat="51.690633008256555" lon="0.757404025644064">
        <ele>5</ele>
        <time>2018-02-17T10:00:07Z</time>
      </trkpt>
      <trkpt lat="51.690610963851213" lon="0.757415005937219">
        <ele>5</ele>
        <time>2018-02-17T10:00:08Z</time>
      </trkpt>
      <trkpt lat="51.690590009093285" lon="0.757429003715515">
        <ele>5</ele>
        <time>2018-02-17T10:00:09Z</time>
      </trkpt>
      <trkpt lat="51.690570982173085" lon="0.75744098983705">
        <ele>5</ele>
        <time>2018-02-17T10:00:10Z</time>
      </trkpt>
      <trkpt lat="51.690549021586776" lon="0.757455993443727">
        <ele>5</ele>
        <time>2018-02-17T10:00:11Z</time>
      </trkpt>
      <trkpt lat="51.690527983009815" lon="0.757469991222024">
        <ele>5</ele>
        <time>2018-02-17T10:00:12Z</time>
      </trkpt>
      <trkpt lat="51.690506022423506" lon="0.757479965686798">
        <ele>5</ele>
        <time>2018-02-17T10:00:13Z</time>
      </trkpt>
      <trkpt lat="51.690480960533023" lon="0.757491029798985">
        <ele>5</ele>
        <time>2018-02-17T10:00:14Z</time>
      </trkpt>
      <trkpt lat="51.690464029088616" lon="0.757502010092139">
        <ele>5</ele>
        <time>2018-02-17T10:00:15Z</time>
      </trkpt>
      <trkpt lat="51.690439973026514" lon="0.757512990385294">
        <ele>5</ele>
        <time>2018-02-17T10:00:16Z</time>
      </trkpt>
      <trkpt lat="51.690418012440205" lon="0.757520031183958">
        <ele>5</ele>
        <time>2018-02-17T10:00:17Z</time>
      </trkpt>
      <trkpt lat="51.690395968034863" lon="0.75752598233521">
        <ele>5</ele>
        <time>2018-02-17T10:00:18Z</time>
      </trkpt>
      <trkpt lat="51.690376019105315" lon="0.757528999820352">
        <ele>5</ele>
        <time>2018-02-17T10:00:19Z</time>
      </trkpt>
      <trkpt lat="51.690351963043213" lon="0.757534028962255">
        <ele>5</ele>
        <time>2018-02-17T10:00:20Z</time>
      </trkpt>
      <trkpt lat="51.690328996628523" lon="0.757539980113506">
        <ele>5</ele>
        <time>2018-02-17T10:00:21Z</time>
      </trkpt>
      <trkpt lat="51.690306030213833" lon="0.75754601508379">
        <ele>5</ele>
        <time>2018-02-17T10:00:22Z</time>
      </trkpt>
      <trkpt lat="51.69027803465724" lon="0.757551966235042">
        <ele>5</ele>
        <time>2018-02-17T10:00:23Z</time>
      </trkpt>
      <trkpt lat="51.690250961109996" lon="0.757558001205325">
        <ele>5</ele>
        <time>2018-02-17T10:00:24Z</time>
      </trkpt>
      <trkpt lat="51.690223971381783" lon="0.757564036175609">
        <ele>5</ele>
        <time>2018-02-17T10:00:25Z</time>
      </trkpt>
      <trkpt lat="51.690195975825191" lon="0.757571998983622">
        <ele>5</ele>
        <time>2018-02-17T10:00:26Z</time>
      </trkpt>
      <trkpt lat="51.690170997753739" lon="0.757578033953905">
        <ele>5</ele>
        <time>2018-02-17T10:00:27Z</time>
      </trkpt>
      <trkpt lat="51.690146019682288" lon="0.757582979276776">
        <ele>5</ele>
        <time>2018-02-17T10:00:28Z</time>
      </trkpt>
      <trkpt lat="51.690122969448566" lon="0.757588008418679">
        <ele>5</ele>
        <time>2018-02-17T10:00:29Z</time>
      </trkpt>
      <trkpt lat="51.690102014690638" lon="0.757592031732202">
        <ele>5</ele>
        <time>2018-02-17T10:00:30Z</time>
      </trkpt>
      <trkpt lat="51.690078964456916" lon="0.757593037560582">
        <ele>5</ele>
        <time>2018-02-17T10:00:31Z</time>
      </trkpt>
      <trkpt lat="51.690049041062593" lon="0.757597982883453">
        <ele>5</ele>
        <time>2018-02-17T10:00:32Z</time>
      </trkpt>
      <trkpt lat="51.690024985000491" lon="0.757602006196976">
        <ele>5</ele>
        <time>2018-02-17T10:00:33Z</time>
      </trkpt>
      <trkpt lat="51.689997995272279" lon="0.757608041167259">
        <ele>5</ele>
        <time>2018-02-17T10:00:34Z</time>
      </trkpt>
      <trkpt lat="51.689972011372447" lon="0.757613992318511">
        <ele>5</ele>
        <time>2018-02-17T10:00:35Z</time>
      </trkpt>
      <trkpt lat="51.689945021644235" lon="0.757621033117175">
        <ele>5</ele>
        <time>2018-02-17T10:00:36Z</time>
      </trkpt>
      <trkpt lat="51.689920965582132" lon="0.757625978440046">
        <ele>5</ele>
        <time>2018-02-17T10:00:37Z</time>
      </trkpt>
      <trkpt lat="51.689899004995823" lon="0.75763201341033">
        <ele>5</ele>
        <time>2018-02-17T10:00:38Z</time>
      </trkpt>
      <trkpt lat="51.68987100943923" lon="0.757638970389962">
        <ele>5</ele>
        <time>2018-02-17T10:00:39Z</time>
      </trkpt>
      <trkpt lat="51.689845025539398" lon="0.757645005360246">
        <ele>5</ele>
        <time>2018-02-17T10:00:40Z</time>
      </trkpt>
      <trkpt lat="51.689817029982805" lon="0.757651040330529">
        <ele>5</ele>
        <time>2018-02-17T10:00:41Z</time>
      </trkpt>
      <trkpt lat="51.689792973920703" lon="0.7576559856534">
        <ele>5</ele>
        <time>2018-02-17T10:00:42Z</time>
      </trkpt>
      <trkpt lat="51.689770007506013" lon="0.757662020623684">
        <ele>5</ele>
        <time>2018-02-17T10:00:43Z</time>
      </trkpt>
      <trkpt lat="51.689745029434562" lon="0.757665038108826">
        <ele>5</ele>
        <time>2018-02-17T10:00:44Z</time>
      </trkpt>
      <trkpt lat="51.689720973372459" lon="0.757671995088458">
        <ele>5</ele>
        <time>2018-02-17T10:00:45Z</time>
      </trkpt>
      <trkpt lat="51.689695995301008" lon="0.757679035887122">
        <ele>5</ele>
        <time>2018-02-17T10:00:46Z</time>
      </trkpt>
      <trkpt lat="51.689672023057938" lon="0.757684987038374">
        <ele>5</ele>
        <time>2018-02-17T10:00:47Z</time>
      </trkpt>
      <trkpt lat="51.689645033329725" lon="0.757693033665419">
        <ele>5</ele>
        <time>2018-02-17T10:00:48Z</time>
      </trkpt>
      <trkpt lat="51.689620977267623" lon="0.757702002301812">
        <ele>5</ele>
        <time>2018-02-17T10:00:49Z</time>
      </trkpt>
      <trkpt lat="51.689599016681314" lon="0.757707031443715">
        <ele>5</ele>
        <time>2018-02-17T10:00:50Z</time>
      </trkpt>
      <trkpt lat="51.689575966447592" lon="0.757712982594967">
        <ele>5</ele>
        <time>2018-02-17T10:00:51Z</time>
      </trkpt>
      <trkpt lat="51.689553000032902" lon="0.757723040878773">
        <ele>5</ele>
        <time>2018-02-17T10:00:52Z</time>
      </trkpt>
      <trkpt lat="51.689530033618212" lon="0.757731003686786">
        <ele>5</ele>
        <time>2018-02-17T10:00:53Z</time>
      </trkpt>
      <trkpt lat="51.689511006698012" lon="0.757737038657069">
        <ele>5</ele>
        <time>2018-02-17T10:00:54Z</time>
      </trkpt>
      <trkpt lat="51.689488962292671" lon="0.75774198397994">
        <ele>5</ele>
        <time>2018-02-17T10:00:55Z</time>
      </trkpt>
      <trkpt lat="51.689468007534742" lon="0.757748018950224">
        <ele>5</ele>
        <time>2018-02-17T10:00:56Z</time>
      </trkpt>
      <trkpt lat="51.68944101780653" lon="0.757751958444715">
        <ele>5</ele>
        <time>2018-02-17T10:00:57Z</time>
      </trkpt>
      <trkpt lat="51.689417967572808" lon="0.757753970101476">
        <ele>5</ele>
        <time>2018-02-17T10:00:58Z</time>
      </trkpt>
      <trkpt lat="51.689392989501357" lon="0.757757993414998">
        <ele>5</ele>
        <time>2018-02-17T10:00:59Z</time>
      </trkpt>
      <trkpt lat="51.689368011429906" lon="0.757763022556901">
        <ele>5</ele>
        <time>2018-02-17T10:01:00Z</time>
      </trkpt>
      <trkpt lat="51.689341021701694" lon="0.757767967879772">
        <ele>5</ele>
        <time>2018-02-17T10:01:01Z</time>
      </trkpt>
      <trkpt lat="51.689319983124733" lon="0.757774002850056">
        <ele>5</ele>
        <time>2018-02-17T10:01:02Z</time>
      </trkpt>
      <trkpt lat="51.689299028366804" lon="0.757777020335197">
        <ele>5</ele>
        <time>2018-02-17T10:01:03Z</time>
      </trkpt>
      <trkpt lat="51.689273966476321" lon="0.757778026163578">
        <ele>5</ele>
        <time>2018-02-17T10:01:04Z</time>
      </trkpt>
      <trkpt lat="51.689251000061631" lon="0.757781965658069">
        <ele>5</ele>
        <time>2018-02-17T10:01:05Z</time>
      </trkpt>
      <trkpt lat="51.689228033646941" lon="0.757785988971591">
        <ele>5</ele>
        <time>2018-02-17T10:01:06Z</time>
      </trkpt>
      <trkpt lat="51.689204983413219" lon="0.757789006456733">
        <ele>5</ele>
        <time>2018-02-17T10:01:07Z</time>
      </trkpt>
      <trkpt lat="51.689185034483671" lon="0.757794035598636">
        <ele>5</ele>
        <time>2018-02-17T10:01:08Z</time>
      </trkpt>
      <trkpt lat="51.68916299007833" lon="0.757796969264746">
        <ele>5</ele>
        <time>2018-02-17T10:01:09Z</time>
      </trkpt>
      <trkpt lat="51.68914002366364" lon="0.757798980921507">
        <ele>5</ele>
        <time>2018-02-17T10:01:10Z</time>
      </trkpt>
      <trkpt lat="51.689114961773157" lon="0.757806021720171">
        <ele>5</ele>
        <time>2018-02-17T10:01:11Z</time>
      </trkpt>
      <trkpt lat="51.689093001186848" lon="0.757809961214662">
        <ele>5</ele>
        <time>2018-02-17T10:01:12Z</time>
      </trkpt>
      <trkpt lat="51.689067017287016" lon="0.757812978699803">
        <ele>5</ele>
        <time>2018-02-17T10:01:13Z</time>
      </trkpt>
      <trkpt lat="51.689041033387184" lon="0.757815996184945">
        <ele>5</ele>
        <time>2018-02-17T10:01:14Z</time>
      </trkpt>
      <trkpt lat="51.689017983153462" lon="0.757815996184945">
        <ele>5</ele>
        <time>2018-02-17T10:01:15Z</time>
      </trkpt>
      <trkpt lat="51.688994010910392" lon="0.757817002013326">
        <ele>5</ele>
        <time>2018-02-17T10:01:16Z</time>
      </trkpt>
      <trkpt lat="51.688970038667321" lon="0.757824964821339">
        <ele>5</ele>
        <time>2018-02-17T10:01:17Z</time>
      </trkpt>
      <trkpt lat="51.688946988433599" lon="0.757832005620003">
        <ele>5</ele>
        <time>2018-02-17T10:01:18Z</time>
      </trkpt>
      <trkpt lat="51.68892502784729" lon="0.757836028933525">
        <ele>5</ele>
        <time>2018-02-17T10:01:19Z</time>
      </trkpt>
      <trkpt lat="51.688898960128427" lon="0.757839968428016">
        <ele>5</ele>
        <time>2018-02-17T10:01:20Z</time>
      </trkpt>
      <trkpt lat="51.688872976228595" lon="0.757846003398299">
        <ele>5</ele>
        <time>2018-02-17T10:01:21Z</time>
      </trkpt>
      <trkpt lat="51.688847998157144" lon="0.757852038368583">
        <ele>5</ele>
        <time>2018-02-17T10:01:22Z</time>
      </trkpt>
      <trkpt lat="51.688823020085692" lon="0.757857989519835">
        <ele>5</ele>
        <time>2018-02-17T10:01:23Z</time>
      </trkpt>
      <trkpt lat="51.688800975680351" lon="0.757862012833357">
        <ele>5</ele>
        <time>2018-02-17T10:01:24Z</time>
      </trkpt>
      <trkpt lat="51.688779015094042" lon="0.75786997564137">
        <ele>5</ele>
        <time>2018-02-17T10:01:25Z</time>
      </trkpt>
      <trkpt lat="51.68875596486032" lon="0.757875004783273">
        <ele>5</ele>
        <time>2018-02-17T10:01:26Z</time>
      </trkpt>
      <trkpt lat="51.688731992617249" lon="0.757881039753556">
        <ele>5</ele>
        <time>2018-02-17T10:01:27Z</time>
      </trkpt>
      <trkpt lat="51.688708020374179" lon="0.757885985076427">
        <ele>5</ele>
        <time>2018-02-17T10:01:28Z</time>
      </trkpt>
      <trkpt lat="51.688683964312077" lon="0.75789000838995">
        <ele>5</ele>
        <time>2018-02-17T10:01:29Z</time>
      </trkpt>
      <trkpt lat="51.688662003725767" lon="0.757894031703472">
        <ele>5</ele>
        <time>2018-02-17T10:01:30Z</time>
      </trkpt>
      <trkpt lat="51.688639037311077" lon="0.757897971197963">
        <ele>5</ele>
        <time>2018-02-17T10:01:31Z</time>
      </trkpt>
      <trkpt lat="51.688617998734117" lon="0.757899982854724">
        <ele>5</ele>
        <time>2018-02-17T10:01:32Z</time>
      </trkpt>
      <trkpt lat="51.688596038147807" lon="0.757901994511485">
        <ele>5</ele>
        <time>2018-02-17T10:01:33Z</time>
      </trkpt>
      <trkpt lat="51.688574999570847" lon="0.757905011996627">
        <ele>5</ele>
        <time>2018-02-17T10:01:34Z</time>
      </trkpt>
      <trkpt lat="51.688552033156157" lon="0.757905011996627">
        <ele>5</ele>
        <time>2018-02-17T10:01:35Z</time>
      </trkpt>
      <trkpt lat="51.688529988750815" lon="0.757908029481769">
        <ele>5</ele>
        <time>2018-02-17T10:01:36Z</time>
      </trkpt>
      <trkpt lat="51.688507022336125" lon="0.757911968976259">
        <ele>5</ele>
        <time>2018-02-17T10:01:37Z</time>
      </trkpt>
      <trkpt lat="51.688485983759165" lon="0.75791398063302">
        <ele>5</ele>
        <time>2018-02-17T10:01:38Z</time>
      </trkpt>
      <trkpt lat="51.688463017344475" lon="0.757915992289782">
        <ele>5</ele>
        <time>2018-02-17T10:01:39Z</time>
      </trkpt>
      <trkpt lat="51.688441978767514" lon="0.757920015603304">
        <ele>5</ele>
        <time>2018-02-17T10:01:40Z</time>
      </trkpt>
      <trkpt lat="51.688423035666347" lon="0.757922027260065">
        <ele>5</ele>
        <time>2018-02-17T10:01:41Z</time>
      </trkpt>
      <trkpt lat="51.688404008746147" lon="0.757925966754556">
        <ele>5</ele>
        <time>2018-02-17T10:01:42Z</time>
      </trkpt>
      <trkpt lat="51.688382970169187" lon="0.757927978411317">
        <ele>5</ele>
        <time>2018-02-17T10:01:43Z</time>
      </trkpt>
      <trkpt lat="51.688360003754497" lon="0.757935019209981">
        <ele>5</ele>
        <time>2018-02-17T10:01:44Z</time>
      </trkpt>
      <trkpt lat="51.688338965177536" lon="0.757938036695123">
        <ele>5</ele>
        <time>2018-02-17T10:01:45Z</time>
      </trkpt>
      <trkpt lat="51.688321027904749" lon="0.757943987846375">
        <ele>5</ele>
        <time>2018-02-17T10:01:46Z</time>
      </trkpt>
      <trkpt lat="51.688288003206253" lon="0.757953962311149">
        <ele>5</ele>
        <time>2018-02-17T10:01:48Z</time>
      </trkpt>
      <trkpt lat="51.688257995992899" lon="0.757957985624671">
        <ele>5</ele>
        <time>2018-02-17T10:01:50Z</time>
      </trkpt>
      <trkpt lat="51.6882389690727" lon="0.757959997281432">
        <ele>5</ele>
        <time>2018-02-17T10:01:51Z</time>
      </trkpt>
      <trkpt lat="51.688213991001248" lon="0.757964020594954">
        <ele>5</ele>
        <time>2018-02-17T10:01:52Z</time>
      </trkpt>
      <trkpt lat="51.688188007101417" lon="0.757967960089445">
        <ele>5</ele>
        <time>2018-02-17T10:01:53Z</time>
      </trkpt>
      <trkpt lat="51.688165040686727" lon="0.757967960089445">
        <ele>5</ele>
        <time>2018-02-17T10:01:54Z</time>
      </trkpt>
      <trkpt lat="51.688136961311102" lon="0.757971983402967">
        <ele>5</ele>
        <time>2018-02-17T10:01:55Z</time>
      </trkpt>
      <trkpt lat="51.688115000724792" lon="0.75797600671649">
        <ele>5</ele>
        <time>2018-02-17T10:01:56Z</time>
      </trkpt>
      <trkpt lat="51.688093962147832" lon="0.757982041686773">
        <ele>5</ele>
        <time>2018-02-17T10:01:57Z</time>
      </trkpt>
      <trkpt lat="51.688069989904761" lon="0.757987992838025">
        <ele>5</ele>
        <time>2018-02-17T10:01:58Z</time>
      </trkpt>
      <trkpt lat="51.688050040975213" lon="0.757994027808309">
        <ele>5</ele>
        <time>2018-02-17T10:01:59Z</time>
      </trkpt>
      <trkpt lat="51.68802497908473" lon="0.75799897313118">
        <ele>5</ele>
        <time>2018-02-17T10:02:00Z</time>
      </trkpt>
      <trkpt lat="51.687991032376885" lon="0.758010037243366">
        <ele>5</ele>
        <time>2018-02-17T10:02:01Z</time>
      </trkpt>
      <trkpt lat="51.687955996021628" lon="0.758010959252715">
        <ele>5</ele>
        <time>2018-02-17T10:02:03Z</time>
      </trkpt>
      <trkpt lat="51.687920037657022" lon="0.758021017536521">
        <ele>5</ele>
        <time>2018-02-17T10:02:05Z</time>
      </trkpt>
      <trkpt lat="51.687900004908442" lon="0.758025962859392">
        <ele>5</ele>
        <time>2018-02-17T10:02:06Z</time>
      </trkpt>
      <trkpt lat="51.687877960503101" lon="0.758031997829676">
        <ele>5</ele>
        <time>2018-02-17T10:02:07Z</time>
      </trkpt>
      <trkpt lat="51.687858011573553" lon="0.758036021143198">
        <ele>5</ele>
        <time>2018-02-17T10:02:08Z</time>
      </trkpt>
      <trkpt lat="51.687837978824973" lon="0.758040966466069">
        <ele>5</ele>
        <time>2018-02-17T10:02:09Z</time>
      </trkpt>
      <trkpt lat="51.687817024067044" lon="0.758045995607972">
        <ele>5</ele>
        <time>2018-02-17T10:02:10Z</time>
      </trkpt>
      <trkpt lat="51.687796991318464" lon="0.758052030578256">
        <ele>5</ele>
        <time>2018-02-17T10:02:11Z</time>
      </trkpt>
      <trkpt lat="51.687775030732155" lon="0.758058987557888">
        <ele>5</ele>
        <time>2018-02-17T10:02:12Z</time>
      </trkpt>
      <trkpt lat="51.687752986326814" lon="0.758066028356552">
        <ele>5</ele>
        <time>2018-02-17T10:02:13Z</time>
      </trkpt>
      <trkpt lat="51.687732031568885" lon="0.758070973679423">
        <ele>5</ele>
        <time>2018-02-17T10:02:14Z</time>
      </trkpt>
      <trkpt lat="51.687707975506783" lon="0.758076002821326">
        <ele>5</ele>
        <time>2018-02-17T10:02:15Z</time>
      </trkpt>
      <trkpt lat="51.687687020748854" lon="0.758076002821326">
        <ele>5</ele>
        <time>2018-02-17T10:02:16Z</time>
      </trkpt>
      <trkpt lat="51.687665982171893" lon="0.758076002821326">
        <ele>5</ele>
        <time>2018-02-17T10:02:17Z</time>
      </trkpt>
      <trkpt lat="51.687645027413964" lon="0.758081031963229">
        <ele>5</ele>
        <time>2018-02-17T10:02:18Z</time>
      </trkpt>
      <trkpt lat="51.687623988837004" lon="0.758087988942862">
        <ele>5</ele>
        <time>2018-02-17T10:02:19Z</time>
      </trkpt>
      <trkpt lat="51.687603034079075" lon="0.758095029741526">
        <ele>5</ele>
        <time>2018-02-17T10:02:20Z</time>
      </trkpt>
      <trkpt lat="51.687584007158875" lon="0.758100980892777">
        <ele>5</ele>
        <time>2018-02-17T10:02:21Z</time>
      </trkpt>
      <trkpt lat="51.687561962753534" lon="0.758110033348203">
        <ele>5</ele>
        <time>2018-02-17T10:02:22Z</time>
      </trkpt>
      <trkpt lat="51.687540002167225" lon="0.758113972842693">
        <ele>5</ele>
        <time>2018-02-17T10:02:23Z</time>
      </trkpt>
      <trkpt lat="51.687517035752535" lon="0.758117996156216">
        <ele>5</ele>
        <time>2018-02-17T10:02:24Z</time>
      </trkpt>
      <trkpt lat="51.687493985518813" lon="0.758122019469738">
        <ele>5</ele>
        <time>2018-02-17T10:02:25Z</time>
      </trkpt>
      <trkpt lat="51.687471019104123" lon="0.75812503695488">
        <ele>5</ele>
        <time>2018-02-17T10:02:26Z</time>
      </trkpt>
      <trkpt lat="51.687446963042021" lon="0.75812897644937">
        <ele>5</ele>
        <time>2018-02-17T10:02:27Z</time>
      </trkpt>
      <trkpt lat="51.687426008284092" lon="0.758131993934512">
        <ele>5</ele>
        <time>2018-02-17T10:02:28Z</time>
      </trkpt>
      <trkpt lat="51.687404969707131" lon="0.758139034733176">
        <ele>5</ele>
        <time>2018-02-17T10:02:29Z</time>
      </trkpt>
      <trkpt lat="51.687382003292441" lon="0.758145991712809">
        <ele>5</ele>
        <time>2018-02-17T10:02:30Z</time>
      </trkpt>
      <trkpt lat="51.687360964715481" lon="0.75814900919795">
        <ele>5</ele>
        <time>2018-02-17T10:02:31Z</time>
      </trkpt>
      <trkpt lat="51.687337998300791" lon="0.758154038339853">
        <ele>5</ele>
        <time>2018-02-17T10:02:32Z</time>
      </trkpt>
      <trkpt lat="51.687316037714481" lon="0.758154038339853">
        <ele>5</ele>
        <time>2018-02-17T10:02:33Z</time>
      </trkpt>
      <trkpt lat="51.68729399330914" lon="0.758151020854712">
        <ele>5</ele>
        <time>2018-02-17T10:02:34Z</time>
      </trkpt>
      <trkpt lat="51.68727002106607" lon="0.758144985884428">
        <ele>5</ele>
        <time>2018-02-17T10:02:35Z</time>
      </trkpt>
      <trkpt lat="51.687245965003967" lon="0.758137023076415">
        <ele>5</ele>
        <time>2018-02-17T10:02:36Z</time>
      </trkpt>
      <trkpt lat="51.687226016074419" lon="0.758129982277751">
        <ele>5</ele>
        <time>2018-02-17T10:02:37Z</time>
      </trkpt>
      <trkpt lat="51.687202965840697" lon="0.758116990327835">
        <ele>5</ele>
        <time>2018-02-17T10:02:38Z</time>
      </trkpt>
      <trkpt lat="51.687182011082768" lon="0.758102992549539">
        <ele>5</ele>
        <time>2018-02-17T10:02:39Z</time>
      </trkpt>
      <trkpt lat="51.68716398999095" lon="0.758086983114481">
        <ele>5</ele>
        <time>2018-02-17T10:02:40Z</time>
      </trkpt>
      <trkpt lat="51.687140017747879" lon="0.758071979507804">
        <ele>5</ele>
        <time>2018-02-17T10:02:41Z</time>
      </trkpt>
      <trkpt lat="51.687116967514157" lon="0.758056975901127">
        <ele>5</ele>
        <time>2018-02-17T10:02:42Z</time>
      </trkpt>
      <trkpt lat="51.687096012756228" lon="0.758040966466069">
        <ele>5</ele>
        <time>2018-02-17T10:02:43Z</time>
      </trkpt>
      <trkpt lat="51.68707799166441" lon="0.758025040850043">
        <ele>5</ele>
        <time>2018-02-17T10:02:44Z</time>
      </trkpt>
      <trkpt lat="51.68705795891583" lon="0.758011965081096">
        <ele>5</ele>
        <time>2018-02-17T10:02:45Z</time>
      </trkpt>
      <trkpt lat="51.687041027471423" lon="0.757996961474419">
        <ele>5</ele>
        <time>2018-02-17T10:02:46Z</time>
      </trkpt>
      <trkpt lat="51.687022000551224" lon="0.757980030030012">
        <ele>5</ele>
        <time>2018-02-17T10:02:47Z</time>
      </trkpt>
      <trkpt lat="51.687003979459405" lon="0.757962008938193">
        <ele>5</ele>
        <time>2018-02-17T10:02:48Z</time>
      </trkpt>
      <trkpt lat="51.686988975852728" lon="0.757943987846375">
        <ele>5</ele>
        <time>2018-02-17T10:02:49Z</time>
      </trkpt>
      <trkpt lat="51.68696902692318" lon="0.757927978411317">
        <ele>5</ele>
        <time>2018-02-17T10:02:50Z</time>
      </trkpt>
      <trkpt lat="51.6869489941746" lon="0.757915992289782">
        <ele>5</ele>
        <time>2018-02-17T10:02:51Z</time>
      </trkpt>
      <trkpt lat="51.6869299672544" lon="0.75791004113853">
        <ele>5</ele>
        <time>2018-02-17T10:02:52Z</time>
      </trkpt>
      <trkpt lat="51.686904989182949" lon="0.757928984239697">
        <ele>5</ele>
        <time>2018-02-17T10:02:54Z</time>
      </trkpt>
      <trkpt lat="51.686893003061414" lon="0.757954968139529">
        <ele>5</ele>
        <time>2018-02-17T10:02:55Z</time>
      </trkpt>
      <trkpt lat="51.686885040253401" lon="0.757983969524503">
        <ele>5</ele>
        <time>2018-02-17T10:02:56Z</time>
      </trkpt>
      <trkpt lat="51.686873976141214" lon="0.758018000051379">
        <ele>5</ele>
        <time>2018-02-17T10:02:57Z</time>
      </trkpt>
      <trkpt lat="51.68686299584806" lon="0.758053036406636">
        <ele>5</ele>
        <time>2018-02-17T10:02:58Z</time>
      </trkpt>
      <trkpt lat="51.686853021383286" lon="0.758081031963229">
        <ele>5</ele>
        <time>2018-02-17T10:02:59Z</time>
      </trkpt>
      <trkpt lat="51.686845980584621" lon="0.758110033348203">
        <ele>5</ele>
        <time>2018-02-17T10:03:00Z</time>
      </trkpt>
      <trkpt lat="51.686839023604989" lon="0.758141968399286">
        <ele>5</ele>
        <time>2018-02-17T10:03:01Z</time>
      </trkpt>
      <trkpt lat="51.686830976977944" lon="0.758173987269402">
        <ele>5</ele>
        <time>2018-02-17T10:03:02Z</time>
      </trkpt>
      <trkpt lat="51.686818990856409" lon="0.758206006139517">
        <ele>5</ele>
        <time>2018-02-17T10:03:03Z</time>
      </trkpt>
      <trkpt lat="51.686809016391635" lon="0.75823400169611">
        <ele>5</ele>
        <time>2018-02-17T10:03:04Z</time>
      </trkpt>
      <trkpt lat="51.68679803609848" lon="0.758267026394606">
        <ele>5</ele>
        <time>2018-02-17T10:03:05Z</time>
      </trkpt>
      <trkpt lat="51.686790995299816" lon="0.75829803943634">
        <ele>5</ele>
        <time>2018-02-17T10:03:06Z</time>
      </trkpt>
      <trkpt lat="51.686784038320184" lon="0.758331986144185">
        <ele>5</ele>
        <time>2018-02-17T10:03:07Z</time>
      </trkpt>
      <trkpt lat="51.686773980036378" lon="0.758365010842681">
        <ele>5</ele>
        <time>2018-02-17T10:03:08Z</time>
      </trkpt>
      <trkpt lat="51.686766017228365" lon="0.758399041369557">
        <ele>5</ele>
        <time>2018-02-17T10:03:09Z</time>
      </trkpt>
      <trkpt lat="51.686758976429701" lon="0.758433993905783">
        <ele>5</ele>
        <time>2018-02-17T10:03:10Z</time>
      </trkpt>
      <trkpt lat="51.686751013621688" lon="0.758467018604279">
        <ele>5</ele>
        <time>2018-02-17T10:03:11Z</time>
      </trkpt>
      <trkpt lat="51.686743972823024" lon="0.758499959483743">
        <ele>5</ele>
        <time>2018-02-17T10:03:12Z</time>
      </trkpt>
      <trkpt lat="51.68673500418663" lon="0.758531978353858">
        <ele>5</ele>
        <time>2018-02-17T10:03:13Z</time>
      </trkpt>
      <trkpt lat="51.686727041378617" lon="0.758563997223973">
        <ele>5</ele>
        <time>2018-02-17T10:03:14Z</time>
      </trkpt>
      <trkpt lat="51.686718994751573" lon="0.758596016094089">
        <ele>5</ele>
        <time>2018-02-17T10:03:15Z</time>
      </trkpt>
      <trkpt lat="51.68671103194356" lon="0.758624011650682">
        <ele>5</ele>
        <time>2018-02-17T10:03:16Z</time>
      </trkpt>
      <trkpt lat="51.686702985316515" lon="0.758654018864036">
        <ele>5</ele>
        <time>2018-02-17T10:03:17Z</time>
      </trkpt>
      <trkpt lat="51.686693010851741" lon="0.75868402607739">
        <ele>5</ele>
        <time>2018-02-17T10:03:18Z</time>
      </trkpt>
      <trkpt lat="51.686683958396316" lon="0.758715961128473">
        <ele>5</ele>
        <time>2018-02-17T10:03:19Z</time>
      </trkpt>
      <trkpt lat="51.686675995588303" lon="0.75875099748373">
        <ele>5</ele>
        <time>2018-02-17T10:03:20Z</time>
      </trkpt>
      <trkpt lat="51.686665015295148" lon="0.758783016353846">
        <ele>5</ele>
        <time>2018-02-17T10:03:21Z</time>
      </trkpt>
      <trkpt lat="51.686655040830374" lon="0.758816041052341">
        <ele>5</ele>
        <time>2018-02-17T10:03:22Z</time>
      </trkpt>
      <trkpt lat="51.686644982546568" lon="0.758850993588567">
        <ele>5</ele>
        <time>2018-02-17T10:03:23Z</time>
      </trkpt>
      <trkpt lat="51.686632996425033" lon="0.758882006630301">
        <ele>5</ele>
        <time>2018-02-17T10:03:24Z</time>
      </trkpt>
      <trkpt lat="51.686623021960258" lon="0.758912013843656">
        <ele>5</ele>
        <time>2018-02-17T10:03:25Z</time>
      </trkpt>
      <trkpt lat="51.686612041667104" lon="0.758945038542151">
        <ele>5</ele>
        <time>2018-02-17T10:03:26Z</time>
      </trkpt>
      <trkpt lat="51.686601983383298" lon="0.758974039927125">
        <ele>5</ele>
        <time>2018-02-17T10:03:27Z</time>
      </trkpt>
      <trkpt lat="51.686592008918524" lon="0.75902902521193">
        <ele>5</ele>
        <time>2018-02-17T10:03:29Z</time>
      </trkpt>
      <trkpt lat="51.686581028625369" lon="0.759057020768523">
        <ele>5</ele>
        <time>2018-02-17T10:03:30Z</time>
      </trkpt>
      <trkpt lat="51.686571976169944" lon="0.759087027981877">
        <ele>5</ele>
        <time>2018-02-17T10:03:31Z</time>
      </trkpt>
      <trkpt lat="51.686560995876789" lon="0.759116029366851">
        <ele>5</ele>
        <time>2018-02-17T10:03:32Z</time>
      </trkpt>
      <trkpt lat="51.686552027240396" lon="0.759145030751824">
        <ele>5</ele>
        <time>2018-02-17T10:03:33Z</time>
      </trkpt>
      <trkpt lat="51.68654196895659" lon="0.759173026308417">
        <ele>5</ele>
        <time>2018-02-17T10:03:34Z</time>
      </trkpt>
      <trkpt lat="51.686528977006674" lon="0.759203033521771">
        <ele>5</ele>
        <time>2018-02-17T10:03:35Z</time>
      </trkpt>
      <trkpt lat="51.686515985056758" lon="0.759230023249984">
        <ele>5</ele>
        <time>2018-02-17T10:03:36Z</time>
      </trkpt>
      <trkpt lat="51.686501987278461" lon="0.759271010756493">
        <ele>5</ele>
        <time>2018-02-17T10:03:38Z</time>
      </trkpt>
      <trkpt lat="51.68652000837028" lon="0.759294982999563">
        <ele>5</ele>
        <time>2018-02-17T10:03:41Z</time>
      </trkpt>
      <trkpt lat="51.686546998098493" lon="0.759292971342802">
        <ele>5</ele>
        <time>2018-02-17T10:03:43Z</time>
      </trkpt>
      <trkpt lat="51.686580022796988" lon="0.759282996878028">
        <ele>5</ele>
        <time>2018-02-17T10:03:45Z</time>
      </trkpt>
      <trkpt lat="51.686598965898156" lon="0.75928601436317">
        <ele>5</ele>
        <time>2018-02-17T10:03:46Z</time>
      </trkpt>
      <trkpt lat="51.686634002253413" lon="0.759294982999563">
        <ele>5</ele>
        <time>2018-02-17T10:03:48Z</time>
      </trkpt>
      <trkpt lat="51.686665015295148" lon="0.759317027404904">
        <ele>5</ele>
        <time>2018-02-17T10:03:50Z</time>
      </trkpt>
      <trkpt lat="51.686677001416683" lon="0.759339993819594">
        <ele>5</ele>
        <time>2018-02-17T10:03:51Z</time>
      </trkpt>
      <trkpt lat="51.686684964224696" lon="0.759367989376187">
        <ele>5</ele>
        <time>2018-02-17T10:03:52Z</time>
      </trkpt>
      <trkpt lat="51.686697034165263" lon="0.759425992146134">
        <ele>5</ele>
        <time>2018-02-17T10:03:54Z</time>
      </trkpt>
      <trkpt lat="51.686706002801657" lon="0.759454993531108">
        <ele>5</ele>
        <time>2018-02-17T10:03:55Z</time>
      </trkpt>
      <trkpt lat="51.686712959781289" lon="0.759489024057984">
        <ele>5</ele>
        <time>2018-02-17T10:03:56Z</time>
      </trkpt>
      <trkpt lat="51.686716983094811" lon="0.759522970765829">
        <ele>5</ele>
        <time>2018-02-17T10:03:57Z</time>
      </trkpt>
      <trkpt lat="51.686722012236714" lon="0.759557001292706">
        <ele>5</ele>
        <time>2018-02-17T10:03:58Z</time>
      </trkpt>
      <trkpt lat="51.68673399835825" lon="0.759595977142453">
        <ele>5</ele>
        <time>2018-02-17T10:03:59Z</time>
      </trkpt>
      <trkpt lat="51.686742966994643" lon="0.759633025154471">
        <ele>5</ele>
        <time>2018-02-17T10:04:00Z</time>
      </trkpt>
      <trkpt lat="51.686750007793307" lon="0.759668983519077">
        <ele>5</ele>
        <time>2018-02-17T10:04:01Z</time>
      </trkpt>
      <trkpt lat="51.686761993914843" lon="0.759704019874334">
        <ele>5</ele>
        <time>2018-02-17T10:04:02Z</time>
      </trkpt>
      <trkpt lat="51.686772974207997" lon="0.759737966582179">
        <ele>5</ele>
        <time>2018-02-17T10:04:03Z</time>
      </trkpt>
      <trkpt lat="51.686781020835042" lon="0.759769985452294">
        <ele>5</ele>
        <time>2018-02-17T10:04:04Z</time>
      </trkpt>
      <trkpt lat="51.686785966157913" lon="0.75980301015079">
        <ele>5</ele>
        <time>2018-02-17T10:04:05Z</time>
      </trkpt>
      <trkpt lat="51.686788983643055" lon="0.759836034849286">
        <ele>5</ele>
        <time>2018-02-17T10:04:06Z</time>
      </trkpt>
      <trkpt lat="51.686784038320184" lon="0.759870987385511">
        <ele>5</ele>
        <time>2018-02-17T10:04:07Z</time>
      </trkpt>
      <trkpt lat="51.686785966157913" lon="0.759900994598866">
        <ele>5</ele>
        <time>2018-02-17T10:04:08Z</time>
      </trkpt>
      <trkpt lat="51.686792001128197" lon="0.759933013468981">
        <ele>5</ele>
        <time>2018-02-17T10:04:09Z</time>
      </trkpt>
      <trkpt lat="51.686794012784958" lon="0.759970983490348">
        <ele>5</ele>
        <time>2018-02-17T10:04:10Z</time>
      </trkpt>
      <trkpt lat="51.68680096976459" lon="0.760007025673985">
        <ele>5</ele>
        <time>2018-02-17T10:04:11Z</time>
      </trkpt>
      <trkpt lat="51.686808010563254" lon="0.76003703288734">
        <ele>5</ele>
        <time>2018-02-17T10:04:12Z</time>
      </trkpt>
      <trkpt lat="51.686815973371267" lon="0.760072991251946">
        <ele>5</ele>
        <time>2018-02-17T10:04:13Z</time>
      </trkpt>
      <trkpt lat="51.686829971149564" lon="0.760109033435583">
        <ele>5</ele>
        <time>2018-02-17T10:04:14Z</time>
      </trkpt>
      <trkpt lat="51.68684103526175" lon="0.76014599762857">
        <ele>5</ele>
        <time>2018-02-17T10:04:15Z</time>
      </trkpt>
      <trkpt lat="51.686845980584621" lon="0.760182961821556">
        <ele>5</ele>
        <time>2018-02-17T10:04:16Z</time>
      </trkpt>
      <trkpt lat="51.686854027211666" lon="0.760214980691671">
        <ele>5</ele>
        <time>2018-02-17T10:04:17Z</time>
      </trkpt>
      <trkpt lat="51.686859978362918" lon="0.760311037302017">
        <ele>5</ele>
        <time>2018-02-17T10:04:20Z</time>
      </trkpt>
      <trkpt lat="51.686874981969595" lon="0.760480016469955">
        <ele>5</ele>
        <time>2018-02-17T10:04:26Z</time>
      </trkpt>
      <trkpt lat="51.68688302859664" lon="0.760513041168451">
        <ele>5</ele>
        <time>2018-02-17T10:04:27Z</time>
      </trkpt>
      <trkpt lat="51.68688696809113" lon="0.760542964562774">
        <ele>5</ele>
        <time>2018-02-17T10:04:28Z</time>
      </trkpt>
      <trkpt lat="51.686890991404653" lon="0.760571965947747">
        <ele>5</ele>
        <time>2018-02-17T10:04:29Z</time>
      </trkpt>
      <trkpt lat="51.686898032203317" lon="0.760600967332721">
        <ele>5</ele>
        <time>2018-02-17T10:04:30Z</time>
      </trkpt>
      <trkpt lat="51.686922004446387" lon="0.760746980085969">
        <ele>5</ele>
        <time>2018-02-17T10:04:35Z</time>
      </trkpt>
      <trkpt lat="51.68692703358829" lon="0.76089701615274">
        <ele>5</ele>
        <time>2018-02-17T10:04:39Z</time>
      </trkpt>
      <trkpt lat="51.686936002224684" lon="0.760930040851235">
        <ele>5</ele>
        <time>2018-02-17T10:04:40Z</time>
      </trkpt>
      <trkpt lat="51.686940025538206" lon="0.760960970073938">
        <ele>5</ele>
        <time>2018-02-17T10:04:41Z</time>
      </trkpt>
      <trkpt lat="51.686951005831361" lon="0.761073958128691">
        <ele>5</ele>
        <time>2018-02-17T10:04:44Z</time>
      </trkpt>
      <trkpt lat="51.686956034973264" lon="0.76111301779747">
        <ele>5</ele>
        <time>2018-02-17T10:04:45Z</time>
      </trkpt>
      <trkpt lat="51.686961986124516" lon="0.761145958676934">
        <ele>5</ele>
        <time>2018-02-17T10:04:46Z</time>
      </trkpt>
      <trkpt lat="51.686980007216334" lon="0.761222988367081">
        <ele>5</ele>
        <time>2018-02-17T10:04:48Z</time>
      </trkpt>
      <trkpt lat="51.686989981681108" lon="0.761260958388448">
        <ele>5</ele>
        <time>2018-02-17T10:04:49Z</time>
      </trkpt>
      <trkpt lat="51.687000961974263" lon="0.761300018057227">
        <ele>5</ele>
        <time>2018-02-17T10:04:50Z</time>
      </trkpt>
      <trkpt lat="51.687005991116166" lon="0.761334970593452">
        <ele>5</ele>
        <time>2018-02-17T10:04:51Z</time>
      </trkpt>
      <trkpt lat="51.687006996944547" lon="0.76137101277709">
        <ele>5</ele>
        <time>2018-02-17T10:04:52Z</time>
      </trkpt>
      <trkpt lat="51.687011020258069" lon="0.761404959484935">
        <ele>5</ele>
        <time>2018-02-17T10:04:53Z</time>
      </trkpt>
      <trkpt lat="51.68701202608645" lon="0.761437984183431">
        <ele>5</ele>
        <time>2018-02-17T10:04:54Z</time>
      </trkpt>
      <trkpt lat="51.687014037743211" lon="0.761472014710307">
        <ele>5</ele>
        <time>2018-02-17T10:04:55Z</time>
      </trkpt>
      <trkpt lat="51.68701596558094" lon="0.761504033580422">
        <ele>5</ele>
        <time>2018-02-17T10:04:56Z</time>
      </trkpt>
      <trkpt lat="51.68701495975256" lon="0.761535968631506">
        <ele>5</ele>
        <time>2018-02-17T10:04:57Z</time>
      </trkpt>
      <trkpt lat="51.687014037743211" lon="0.761566981673241">
        <ele>5</ele>
        <time>2018-02-17T10:04:58Z</time>
      </trkpt>
      <trkpt lat="51.687014037743211" lon="0.761597994714975">
        <ele>5</ele>
        <time>2018-02-17T10:04:59Z</time>
      </trkpt>
      <trkpt lat="51.687023006379604" lon="0.761631019413471">
        <ele>5</ele>
        <time>2018-02-17T10:05:00Z</time>
      </trkpt>
      <trkpt lat="51.687029963359237" lon="0.761663960292935">
        <ele>5</ele>
        <time>2018-02-17T10:05:01Z</time>
      </trkpt>
      <trkpt lat="51.687039015814662" lon="0.761697990819812">
        <ele>5</ele>
        <time>2018-02-17T10:05:02Z</time>
      </trkpt>
      <trkpt lat="51.687044966965914" lon="0.761732021346688">
        <ele>5</ele>
        <time>2018-02-17T10:05:03Z</time>
      </trkpt>
      <trkpt lat="51.687051001936197" lon="0.761770997196436">
        <ele>5</ele>
        <time>2018-02-17T10:05:04Z</time>
      </trkpt>
      <trkpt lat="51.68705896474421" lon="0.761804021894932">
        <ele>5</ele>
        <time>2018-02-17T10:05:05Z</time>
      </trkpt>
      <trkpt lat="51.687064999714494" lon="0.761836040765047">
        <ele>5</ele>
        <time>2018-02-17T10:05:06Z</time>
      </trkpt>
      <trkpt lat="51.687071034684777" lon="0.761868981644511">
        <ele>5</ele>
        <time>2018-02-17T10:05:07Z</time>
      </trkpt>
      <trkpt lat="51.687074974179268" lon="0.761904017999768">
        <ele>5</ele>
        <time>2018-02-17T10:05:08Z</time>
      </trkpt>
      <trkpt lat="51.687081009149551" lon="0.761937964707613">
        <ele>5</ele>
        <time>2018-02-17T10:05:09Z</time>
      </trkpt>
      <trkpt lat="51.687087966129184" lon="0.76197300106287">
        <ele>5</ele>
        <time>2018-02-17T10:05:10Z</time>
      </trkpt>
      <trkpt lat="51.687095006927848" lon="0.762003008276224">
        <ele>5</ele>
        <time>2018-02-17T10:05:11Z</time>
      </trkpt>
      <trkpt lat="51.687101041898131" lon="0.762034021317959">
        <ele>5</ele>
        <time>2018-02-17T10:05:12Z</time>
      </trkpt>
      <trkpt lat="51.687102969735861" lon="0.762063022702932">
        <ele>5</ele>
        <time>2018-02-17T10:05:13Z</time>
      </trkpt>
      <trkpt lat="51.687103975564241" lon="0.762094035744667">
        <ele>5</ele>
        <time>2018-02-17T10:05:14Z</time>
      </trkpt>
      <trkpt lat="51.687110010534525" lon="0.762127982452512">
        <ele>5</ele>
        <time>2018-02-17T10:05:15Z</time>
      </trkpt>
      <trkpt lat="51.687114033848047" lon="0.762186991050839">
        <ele>5</ele>
        <time>2018-02-17T10:05:17Z</time>
      </trkpt>
      <trkpt lat="51.687117973342538" lon="0.762215992435813">
        <ele>5</ele>
        <time>2018-02-17T10:05:18Z</time>
      </trkpt>
      <trkpt lat="51.687116967514157" lon="0.762268966063857">
        <ele>5</ele>
        <time>2018-02-17T10:05:20Z</time>
      </trkpt>
      <trkpt lat="51.687115961685777" lon="0.762301990762353">
        <ele>5</ele>
        <time>2018-02-17T10:05:21Z</time>
      </trkpt>
      <trkpt lat="51.687116967514157" lon="0.762330992147326">
        <ele>5</ele>
        <time>2018-02-17T10:05:22Z</time>
      </trkpt>
      <trkpt lat="51.687117973342538" lon="0.762360999360681">
        <ele>5</ele>
        <time>2018-02-17T10:05:23Z</time>
      </trkpt>
      <trkpt lat="51.687118979170918" lon="0.762393018230796">
        <ele>5</ele>
        <time>2018-02-17T10:05:24Z</time>
      </trkpt>
      <trkpt lat="51.687123002484441" lon="0.762425037100911">
        <ele>5</ele>
        <time>2018-02-17T10:05:25Z</time>
      </trkpt>
      <trkpt lat="51.687129037454724" lon="0.762458983808756">
        <ele>5</ele>
        <time>2018-02-17T10:05:26Z</time>
      </trkpt>
      <trkpt lat="51.687129959464073" lon="0.762512963265181">
        <ele>5</ele>
        <time>2018-02-17T10:05:28Z</time>
      </trkpt>
      <trkpt lat="51.687130965292454" lon="0.762543976306915">
        <ele>5</ele>
        <time>2018-02-17T10:05:29Z</time>
      </trkpt>
      <trkpt lat="51.687133982777596" lon="0.762575995177031">
        <ele>5</ele>
        <time>2018-02-17T10:05:30Z</time>
      </trkpt>
      <trkpt lat="51.687132976949215" lon="0.762606002390385">
        <ele>5</ele>
        <time>2018-02-17T10:05:31Z</time>
      </trkpt>
      <trkpt lat="51.687134988605976" lon="0.762635003775358">
        <ele>5</ele>
        <time>2018-02-17T10:05:32Z</time>
      </trkpt>
      <trkpt lat="51.68714102357626" lon="0.762662999331951">
        <ele>5</ele>
        <time>2018-02-17T10:05:33Z</time>
      </trkpt>
      <trkpt lat="51.687147980555892" lon="0.762696024030447">
        <ele>5</ele>
        <time>2018-02-17T10:05:34Z</time>
      </trkpt>
      <trkpt lat="51.687155021354556" lon="0.762727037072182">
        <ele>5</ele>
        <time>2018-02-17T10:05:35Z</time>
      </trkpt>
      <trkpt lat="51.687161978334188" lon="0.762760983780026">
        <ele>5</ele>
        <time>2018-02-17T10:05:36Z</time>
      </trkpt>
      <trkpt lat="51.687170024961233" lon="0.762793002650142">
        <ele>5</ele>
        <time>2018-02-17T10:05:37Z</time>
      </trkpt>
      <trkpt lat="51.687175976112485" lon="0.762823009863496">
        <ele>5</ele>
        <time>2018-02-17T10:05:38Z</time>
      </trkpt>
      <trkpt lat="51.687175976112485" lon="0.762856034561992">
        <ele>5</ele>
        <time>2018-02-17T10:05:39Z</time>
      </trkpt>
      <trkpt lat="51.687175976112485" lon="0.762887969613075">
        <ele>5</ele>
        <time>2018-02-17T10:05:40Z</time>
      </trkpt>
      <trkpt lat="51.687178993597627" lon="0.762920994311571">
        <ele>5</ele>
        <time>2018-02-17T10:05:41Z</time>
      </trkpt>
      <trkpt lat="51.687188968062401" lon="0.762956030666828">
        <ele>5</ele>
        <time>2018-02-17T10:05:43Z</time>
      </trkpt>
      <trkpt lat="51.687198020517826" lon="0.762999029830098">
        <ele>5</ele>
        <time>2018-02-17T10:05:46Z</time>
      </trkpt>
      <trkpt lat="51.687204977497458" lon="0.763045968487859">
        <ele>5</ele>
        <time>2018-02-17T10:05:49Z</time>
      </trkpt>
      <trkpt lat="51.687209000810981" lon="0.763091985136271">
        <ele>5</ele>
        <time>2018-02-17T10:05:52Z</time>
      </trkpt>
      <trkpt lat="51.687218975275755" lon="0.763193992897868">
        <ele>5</ele>
        <time>2018-02-17T10:05:56Z</time>
      </trkpt>
      <trkpt lat="51.687224004417658" lon="0.763227017596364">
        <ele>5</ele>
        <time>2018-02-17T10:05:57Z</time>
      </trkpt>
      <trkpt lat="51.687246970832348" lon="0.76330597512424">
        <ele>5</ele>
        <time>2018-02-17T10:05:59Z</time>
      </trkpt>
      <trkpt lat="51.687253005802631" lon="0.763346962630749">
        <ele>5</ele>
        <time>2018-02-17T10:06:00Z</time>
      </trkpt>
      <trkpt lat="51.687254011631012" lon="0.763385016471148">
        <ele>5</ele>
        <time>2018-02-17T10:06:01Z</time>
      </trkpt>
      <trkpt lat="51.687253005802631" lon="0.763419969007373">
        <ele>5</ele>
        <time>2018-02-17T10:06:02Z</time>
      </trkpt>
      <trkpt lat="51.687251999974251" lon="0.763459028676152">
        <ele>5</ele>
        <time>2018-02-17T10:06:03Z</time>
      </trkpt>
      <trkpt lat="51.687258034944534" lon="0.763494987040758">
        <ele>5</ele>
        <time>2018-02-17T10:06:04Z</time>
      </trkpt>
      <trkpt lat="51.687263986095786" lon="0.763536980375648">
        <ele>5</ele>
        <time>2018-02-17T10:06:05Z</time>
      </trkpt>
      <trkpt lat="51.687268009409308" lon="0.763579979538918">
        <ele>5</ele>
        <time>2018-02-17T10:06:06Z</time>
      </trkpt>
      <trkpt lat="51.687272032722831" lon="0.763618033379316">
        <ele>5</ele>
        <time>2018-02-17T10:06:07Z</time>
      </trkpt>
      <trkpt lat="51.687273038551211" lon="0.763652985915542">
        <ele>5</ele>
        <time>2018-02-17T10:06:08Z</time>
      </trkpt>
      <trkpt lat="51.68727396056056" lon="0.763687016442418">
        <ele>5</ele>
        <time>2018-02-17T10:06:09Z</time>
      </trkpt>
      <trkpt lat="51.687279995530844" lon="0.763720963150263">
        <ele>5</ele>
        <time>2018-02-17T10:06:10Z</time>
      </trkpt>
      <trkpt lat="51.687289969995618" lon="0.7637570053339">
        <ele>5</ele>
        <time>2018-02-17T10:06:11Z</time>
      </trkpt>
      <trkpt lat="51.687301034107804" lon="0.763793969526887">
        <ele>5</ele>
        <time>2018-02-17T10:06:12Z</time>
      </trkpt>
      <trkpt lat="51.687310002744198" lon="0.763831017538905">
        <ele>5</ele>
        <time>2018-02-17T10:06:13Z</time>
      </trkpt>
      <trkpt lat="51.68731302022934" lon="0.76386597007513">
        <ele>5</ele>
        <time>2018-02-17T10:06:14Z</time>
      </trkpt>
      <trkpt lat="51.68731302022934" lon="0.76390502974391">
        <ele>5</ele>
        <time>2018-02-17T10:06:15Z</time>
      </trkpt>
      <trkpt lat="51.687312014400959" lon="0.763939982280135">
        <ele>5</ele>
        <time>2018-02-17T10:06:16Z</time>
      </trkpt>
      <trkpt lat="51.687315031886101" lon="0.763978036120534">
        <ele>5</ele>
        <time>2018-02-17T10:06:17Z</time>
      </trkpt>
      <trkpt lat="51.687317965552211" lon="0.76401399448514">
        <ele>5</ele>
        <time>2018-02-17T10:06:18Z</time>
      </trkpt>
      <trkpt lat="51.687327018007636" lon="0.764044001698494">
        <ele>5</ele>
        <time>2018-02-17T10:06:19Z</time>
      </trkpt>
      <trkpt lat="51.687332969158888" lon="0.764075014740229">
        <ele>5</ele>
        <time>2018-02-17T10:06:20Z</time>
      </trkpt>
      <trkpt lat="51.687337998300791" lon="0.764105021953583">
        <ele>5</ele>
        <time>2018-02-17T10:06:21Z</time>
      </trkpt>
      <trkpt lat="51.687359036877751" lon="0.764138968661428">
        <ele>5</ele>
        <time>2018-02-17T10:06:23Z</time>
      </trkpt>
      <trkpt lat="51.687377979978919" lon="0.764165036380291">
        <ele>5</ele>
        <time>2018-02-17T10:06:24Z</time>
      </trkpt>
      <trkpt lat="51.687391977757215" lon="0.764204012230039">
        <ele>5</ele>
        <time>2018-02-17T10:06:25Z</time>
      </trkpt>
      <trkpt lat="51.687389966100454" lon="0.764243993908167">
        <ele>5</ele>
        <time>2018-02-17T10:06:26Z</time>
      </trkpt>
      <trkpt lat="51.68737999163568" lon="0.764275006949902">
        <ele>5</ele>
        <time>2018-02-17T10:06:27Z</time>
      </trkpt>
      <trkpt lat="51.687360964715481" lon="0.764318006113172">
        <ele>5</ele>
        <time>2018-02-17T10:06:29Z</time>
      </trkpt>
      <trkpt lat="51.687358031049371" lon="0.764370979741216">
        <ele>5</ele>
        <time>2018-02-17T10:06:31Z</time>
      </trkpt>
      <trkpt lat="51.687354007735848" lon="0.764398975297809">
        <ele>5</ele>
        <time>2018-02-17T10:06:32Z</time>
      </trkpt>
      <trkpt lat="51.687343027442694" lon="0.764439962804317">
        <ele>5</ele>
        <time>2018-02-17T10:06:34Z</time>
      </trkpt>
      <trkpt lat="51.687311008572578" lon="0.76457398943603">
        <ele>5</ele>
        <time>2018-02-17T10:06:39Z</time>
      </trkpt>
      <trkpt lat="51.687300028279424" lon="0.764741040766239">
        <ele>5</ele>
        <time>2018-02-17T10:06:44Z</time>
      </trkpt>
      <trkpt lat="51.68727396056056" lon="0.764884036034346">
        <ele>5</ele>
        <time>2018-02-17T10:06:48Z</time>
      </trkpt>
      <trkpt lat="51.687251999974251" lon="0.765054021030664">
        <ele>5</ele>
        <time>2018-02-17T10:06:53Z</time>
      </trkpt>
      <trkpt lat="51.687222998589277" lon="0.765201039612293">
        <ele>5</ele>
        <time>2018-02-17T10:06:58Z</time>
      </trkpt>
      <trkpt lat="51.687175976112485" lon="0.76530103571713">
        <ele>5</ele>
        <time>2018-02-17T10:07:01Z</time>
      </trkpt>
      <trkpt lat="51.687152003869414" lon="0.76536700129509">
        <ele>5</ele>
        <time>2018-02-17T10:07:03Z</time>
      </trkpt>
      <trkpt lat="51.687146974727511" lon="0.765400025993586">
        <ele>5</ele>
        <time>2018-02-17T10:07:04Z</time>
      </trkpt>
      <trkpt lat="51.687149992212653" lon="0.765451993793249">
        <ele>5</ele>
        <time>2018-02-17T10:07:06Z</time>
      </trkpt>
      <trkpt lat="51.687154015526175" lon="0.765498010441661">
        <ele>5</ele>
        <time>2018-02-17T10:07:08Z</time>
      </trkpt>
      <trkpt lat="51.687155021354556" lon="0.765542015433311">
        <ele>5</ele>
        <time>2018-02-17T10:07:10Z</time>
      </trkpt>
      <trkpt lat="51.687154015526175" lon="0.765588032081723">
        <ele>5</ele>
        <time>2018-02-17T10:07:12Z</time>
      </trkpt>
      <trkpt lat="51.687157033011317" lon="0.765634970739484">
        <ele>5</ele>
        <time>2018-02-17T10:07:14Z</time>
      </trkpt>
      <trkpt lat="51.687154015526175" lon="0.765673024579883">
        <ele>5</ele>
        <time>2018-02-17T10:07:16Z</time>
      </trkpt>
      <trkpt lat="51.687158038839698" lon="0.765716023743153">
        <ele>5</ele>
        <time>2018-02-17T10:07:18Z</time>
      </trkpt>
      <trkpt lat="51.687166001647711" lon="0.765765979886055">
        <ele>5</ele>
        <time>2018-02-17T10:07:20Z</time>
      </trkpt>
      <trkpt lat="51.687170024961233" lon="0.765810990706086">
        <ele>5</ele>
        <time>2018-02-17T10:07:22Z</time>
      </trkpt>
      <trkpt lat="51.687181005254388" lon="0.765856001526117">
        <ele>5</ele>
        <time>2018-02-17T10:07:24Z</time>
      </trkpt>
      <trkpt lat="51.68718796223402" lon="0.7659069634974">
        <ele>5</ele>
        <time>2018-02-17T10:07:26Z</time>
      </trkpt>
      <trkpt lat="51.687188968062401" lon="0.765949040651321">
        <ele>5</ele>
        <time>2018-02-17T10:07:28Z</time>
      </trkpt>
      <trkpt lat="51.68718502856791" lon="0.765993967652321">
        <ele>5</ele>
        <time>2018-02-17T10:07:30Z</time>
      </trkpt>
      <trkpt lat="51.687188968062401" lon="0.766043001785874">
        <ele>5</ele>
        <time>2018-02-17T10:07:32Z</time>
      </trkpt>
      <trkpt lat="51.68718402273953" lon="0.766083989292383">
        <ele>5</ele>
        <time>2018-02-17T10:07:34Z</time>
      </trkpt>
      <trkpt lat="51.68718402273953" lon="0.766127994284034">
        <ele>5</ele>
        <time>2018-02-17T10:07:36Z</time>
      </trkpt>
      <trkpt lat="51.687189973890781" lon="0.766170993447304">
        <ele>5</ele>
        <time>2018-02-17T10:07:38Z</time>
      </trkpt>
      <trkpt lat="51.687192991375923" lon="0.766220027580857">
        <ele>5</ele>
        <time>2018-02-17T10:07:40Z</time>
      </trkpt>
      <trkpt lat="51.687196008861065" lon="0.766261015087366">
        <ele>5</ele>
        <time>2018-02-17T10:07:42Z</time>
      </trkpt>
      <trkpt lat="51.687199026346207" lon="0.766307031735778">
        <ele>5</ele>
        <time>2018-02-17T10:07:44Z</time>
      </trkpt>
      <trkpt lat="51.687202965840697" lon="0.766341984272003">
        <ele>5</ele>
        <time>2018-02-17T10:07:46Z</time>
      </trkpt>
      <trkpt lat="51.687210006639361" lon="0.76637601479888">
        <ele>5</ele>
        <time>2018-02-17T10:07:48Z</time>
      </trkpt>
      <trkpt lat="51.68723096139729" lon="0.766412978991866">
        <ele>5</ele>
        <time>2018-02-17T10:07:50Z</time>
      </trkpt>
      <trkpt lat="51.687239008024335" lon="0.766447009518743">
        <ele>5</ele>
        <time>2018-02-17T10:07:52Z</time>
      </trkpt>
      <trkpt lat="51.687254011631012" lon="0.766481040045619">
        <ele>5</ele>
        <time>2018-02-17T10:07:54Z</time>
      </trkpt>
      <trkpt lat="51.687259962782264" lon="0.766525967046618">
        <ele>5</ele>
        <time>2018-02-17T10:07:57Z</time>
      </trkpt>
      <trkpt lat="51.687260968610644" lon="0.766562009230256">
        <ele>5</ele>
        <time>2018-02-17T10:07:59Z</time>
      </trkpt>
      <trkpt lat="51.687251999974251" lon="0.766588998958468">
        <ele>5</ele>
        <time>2018-02-17T10:08:01Z</time>
      </trkpt>
      <trkpt lat="51.687238002195954" lon="0.766610037535429">
        <ele>5</ele>
        <time>2018-02-17T10:08:04Z</time>
      </trkpt>
      <trkpt lat="51.687218975275755" lon="0.766618000343442">
        <ele>5</ele>
        <time>2018-02-17T10:08:06Z</time>
      </trkpt>
      <trkpt lat="51.687216041609645" lon="0.766658987849951">
        <ele>5</ele>
        <time>2018-02-17T10:08:08Z</time>
      </trkpt>
      <trkpt lat="51.687213024124503" lon="0.76669997535646">
        <ele>5</ele>
        <time>2018-02-17T10:08:10Z</time>
      </trkpt>
      <trkpt lat="51.687205983325839" lon="0.766734005883336">
        <ele>5</ele>
        <time>2018-02-17T10:08:12Z</time>
      </trkpt>
      <trkpt lat="51.687193997204304" lon="0.766768958419561">
        <ele>5</ele>
        <time>2018-02-17T10:08:14Z</time>
      </trkpt>
      <trkpt lat="51.687187040224671" lon="0.76680701225996">
        <ele>5</ele>
        <time>2018-02-17T10:08:16Z</time>
      </trkpt>
      <trkpt lat="51.687176981940866" lon="0.766842970624566">
        <ele>5</ele>
        <time>2018-02-17T10:08:18Z</time>
      </trkpt>
      <trkpt lat="51.687173964455724" lon="0.766880018636584">
        <ele>5</ele>
        <time>2018-02-17T10:08:20Z</time>
      </trkpt>
      <trkpt lat="51.687170024961233" lon="0.766923017799854">
        <ele>5</ele>
        <time>2018-02-17T10:08:22Z</time>
      </trkpt>
      <trkpt lat="51.687157033011317" lon="0.76686903834343">
        <ele>5</ele>
        <time>2018-02-17T10:08:26Z</time>
      </trkpt>
      <trkpt lat="51.687159966677427" lon="0.766815980896354">
        <ele>5</ele>
        <time>2018-02-17T10:08:27Z</time>
      </trkpt>
      <trkpt lat="51.68716499581933" lon="0.766769964247942">
        <ele>5</ele>
        <time>2018-02-17T10:08:28Z</time>
      </trkpt>
      <trkpt lat="51.687171030789614" lon="0.766726965084672">
        <ele>5</ele>
        <time>2018-02-17T10:08:29Z</time>
      </trkpt>
      <trkpt lat="51.687179999426007" lon="0.766694024205208">
        <ele>5</ele>
        <time>2018-02-17T10:08:30Z</time>
      </trkpt>
      <trkpt lat="51.68718402273953" lon="0.766653036698699">
        <ele>5</ele>
        <time>2018-02-17T10:08:32Z</time>
      </trkpt>
      <trkpt lat="51.687181005254388" lon="0.766695030033588">
        <ele>5</ele>
        <time>2018-02-17T10:08:37Z</time>
      </trkpt>
      <trkpt lat="51.687182011082768" lon="0.766737023368478">
        <ele>5</ele>
        <time>2018-02-17T10:08:38Z</time>
      </trkpt>
      <trkpt lat="51.687179999426007" lon="0.766781028360128">
        <ele>5</ele>
        <time>2018-02-17T10:08:39Z</time>
      </trkpt>
      <trkpt lat="51.687176981940866" lon="0.766825033351779">
        <ele>5</ele>
        <time>2018-02-17T10:08:40Z</time>
      </trkpt>
      <trkpt lat="51.687171030789614" lon="0.766864009201527">
        <ele>5</ele>
        <time>2018-02-17T10:08:41Z</time>
      </trkpt>
      <trkpt lat="51.68716499581933" lon="0.766900973394513">
        <ele>5</ele>
        <time>2018-02-17T10:08:42Z</time>
      </trkpt>
      <trkpt lat="51.687161978334188" lon="0.766933998093009">
        <ele>5</ele>
        <time>2018-02-17T10:08:43Z</time>
      </trkpt>
      <trkpt lat="51.687158960849047" lon="0.766966016963124">
        <ele>5</ele>
        <time>2018-02-17T10:08:44Z</time>
      </trkpt>
      <trkpt lat="51.687157033011317" lon="0.76699803583324">
        <ele>5</ele>
        <time>2018-02-17T10:08:45Z</time>
      </trkpt>
      <trkpt lat="51.687149992212653" lon="0.767026031389833">
        <ele>5</ele>
        <time>2018-02-17T10:08:46Z</time>
      </trkpt>
      <trkpt lat="51.687144041061401" lon="0.767056960612535">
        <ele>5</ele>
        <time>2018-02-17T10:08:47Z</time>
      </trkpt>
      <trkpt lat="51.687138006091118" lon="0.767089985311031">
        <ele>5</ele>
        <time>2018-02-17T10:08:48Z</time>
      </trkpt>
      <trkpt lat="51.687131971120834" lon="0.767118986696005">
        <ele>5</ele>
        <time>2018-02-17T10:08:49Z</time>
      </trkpt>
      <trkpt lat="51.687128031626344" lon="0.767153017222881">
        <ele>5</ele>
        <time>2018-02-17T10:08:50Z</time>
      </trkpt>
      <trkpt lat="51.687124008312821" lon="0.767185958102345">
        <ele>5</ele>
        <time>2018-02-17T10:08:51Z</time>
      </trkpt>
      <trkpt lat="51.687123002484441" lon="0.767219988629222">
        <ele>5</ele>
        <time>2018-02-17T10:08:52Z</time>
      </trkpt>
      <trkpt lat="51.687117973342538" lon="0.767254019156098">
        <ele>5</ele>
        <time>2018-02-17T10:08:53Z</time>
      </trkpt>
      <trkpt lat="51.687115961685777" lon="0.767289977520704">
        <ele>5</ele>
        <time>2018-02-17T10:08:54Z</time>
      </trkpt>
      <trkpt lat="51.687111016362906" lon="0.767326019704342">
        <ele>5</ele>
        <time>2018-02-17T10:08:55Z</time>
      </trkpt>
      <trkpt lat="51.687103975564241" lon="0.767362983897328">
        <ele>5</ele>
        <time>2018-02-17T10:08:56Z</time>
      </trkpt>
      <trkpt lat="51.687096012756228" lon="0.767400031909347">
        <ele>5</ele>
        <time>2018-02-17T10:08:57Z</time>
      </trkpt>
      <trkpt lat="51.687088971957564" lon="0.767439007759094">
        <ele>5</ele>
        <time>2018-02-17T10:08:58Z</time>
      </trkpt>
      <trkpt lat="51.687082014977932" lon="0.767478989437222">
        <ele>5</ele>
        <time>2018-02-17T10:08:59Z</time>
      </trkpt>
      <trkpt lat="51.68707899749279" lon="0.767519976943731">
        <ele>5</ele>
        <time>2018-02-17T10:09:00Z</time>
      </trkpt>
      <trkpt lat="51.687072962522507" lon="0.767559036612511">
        <ele>4.94364419765995</ele>
        <time>2018-02-17T10:09:01Z</time>
      </trkpt>
      <trkpt lat="51.687070028856397" lon="0.76760002411902">
        <ele>3</ele>
        <time>2018-02-17T10:09:02Z</time>
      </trkpt>
      <trkpt lat="51.687064999714494" lon="0.767641011625528">
        <ele>3</ele>
        <time>2018-02-17T10:09:03Z</time>
      </trkpt>
      <trkpt lat="51.687061982229352" lon="0.767675964161754">
        <ele>3</ele>
        <time>2018-02-17T10:09:04Z</time>
      </trkpt>
      <trkpt lat="51.687052007764578" lon="0.767750982195139">
        <ele>3</ele>
        <time>2018-02-17T10:09:06Z</time>
      </trkpt>
      <trkpt lat="51.687044966965914" lon="0.767788030207157">
        <ele>3</ele>
        <time>2018-02-17T10:09:07Z</time>
      </trkpt>
      <trkpt lat="51.68703599832952" lon="0.767826000228524">
        <ele>3</ele>
        <time>2018-02-17T10:09:08Z</time>
      </trkpt>
      <trkpt lat="51.687028035521507" lon="0.76786195859313">
        <ele>3</ele>
        <time>2018-02-17T10:09:09Z</time>
      </trkpt>
      <trkpt lat="51.687022000551224" lon="0.767901018261909">
        <ele>3.26562</ele>
        <time>2018-02-17T10:09:10Z</time>
      </trkpt>
      <trkpt lat="51.687014037743211" lon="0.767938988283277">
        <ele>4</ele>
        <time>2018-02-17T10:09:11Z</time>
      </trkpt>
      <trkpt lat="51.687009008601308" lon="0.767975030466914">
        <ele>4</ele>
        <time>2018-02-17T10:09:12Z</time>
      </trkpt>
      <trkpt lat="51.687003979459405" lon="0.768014006316662">
        <ele>4</ele>
        <time>2018-02-17T10:09:13Z</time>
      </trkpt>
      <trkpt lat="51.686997022479773" lon="0.768049964681268">
        <ele>4</ele>
        <time>2018-02-17T10:09:14Z</time>
      </trkpt>
      <trkpt lat="51.68699299916625" lon="0.768085001036525">
        <ele>3.69090507109777</ele>
        <time>2018-02-17T10:09:15Z</time>
      </trkpt>
      <trkpt lat="51.686985036358237" lon="0.768118025735021">
        <ele>3</ele>
        <time>2018-02-17T10:09:16Z</time>
      </trkpt>
      <trkpt lat="51.686979001387954" lon="0.768152978271246">
        <ele>3</ele>
        <time>2018-02-17T10:09:17Z</time>
      </trkpt>
      <trkpt lat="51.68697296641767" lon="0.768187008798122">
        <ele>3.31775387891331</ele>
        <time>2018-02-17T10:09:18Z</time>
      </trkpt>
      <trkpt lat="51.686966009438038" lon="0.768221039324999">
        <ele>4</ele>
        <time>2018-02-17T10:09:19Z</time>
      </trkpt>
      <trkpt lat="51.686960980296135" lon="0.768255991861224">
        <ele>4</ele>
        <time>2018-02-17T10:09:20Z</time>
      </trkpt>
      <trkpt lat="51.686953017488122" lon="0.768292034044862">
        <ele>4</ele>
        <time>2018-02-17T10:09:21Z</time>
      </trkpt>
      <trkpt lat="51.686946982517838" lon="0.768325980752707">
        <ele>3.75781</ele>
        <time>2018-02-17T10:09:22Z</time>
      </trkpt>
      <trkpt lat="51.686942959204316" lon="0.768361017107964">
        <ele>3</ele>
        <time>2018-02-17T10:09:23Z</time>
      </trkpt>
      <trkpt lat="51.686938013881445" lon="0.768392030149698">
        <ele>3</ele>
        <time>2018-02-17T10:09:24Z</time>
      </trkpt>
      <trkpt lat="51.686932984739542" lon="0.768426982685924">
        <ele>3</ele>
        <time>2018-02-17T10:09:25Z</time>
      </trkpt>
      <trkpt lat="51.686925021931529" lon="0.768463024869561">
        <ele>3</ele>
        <time>2018-02-17T10:09:26Z</time>
      </trkpt>
      <trkpt lat="51.686919992789626" lon="0.768495965749025">
        <ele>3</ele>
        <time>2018-02-17T10:09:27Z</time>
      </trkpt>
      <trkpt lat="51.686914041638374" lon="0.768532007932663">
        <ele>3</ele>
        <time>2018-02-17T10:09:28Z</time>
      </trkpt>
      <trkpt lat="51.686908006668091" lon="0.768566038459539">
        <ele>2.7299968</ele>
        <time>2018-02-17T10:09:29Z</time>
      </trkpt>
      <trkpt lat="51.686902977526188" lon="0.768600990995765">
        <ele>2</ele>
        <time>2018-02-17T10:09:30Z</time>
      </trkpt>
      <trkpt lat="51.686897026374936" lon="0.768638039007783">
        <ele>2</ele>
        <time>2018-02-17T10:09:31Z</time>
      </trkpt>
      <trkpt lat="51.686891997233033" lon="0.768675003200769">
        <ele>2</ele>
        <time>2018-02-17T10:09:32Z</time>
      </trkpt>
      <trkpt lat="51.686885040253401" lon="0.768710039556026">
        <ele>2</ele>
        <time>2018-02-17T10:09:33Z</time>
      </trkpt>
      <trkpt lat="51.686879005283117" lon="0.768745997920632">
        <ele>2</ele>
        <time>2018-02-17T10:09:34Z</time>
      </trkpt>
      <trkpt lat="51.686872970312834" lon="0.768778016790748">
        <ele>2</ele>
        <time>2018-02-17T10:09:35Z</time>
      </trkpt>
      <trkpt lat="51.68686299584806" lon="0.768811963498592">
        <ele>2</ele>
        <time>2018-02-17T10:09:36Z</time>
      </trkpt>
      <trkpt lat="51.686855033040047" lon="0.768842976540327">
        <ele>2</ele>
        <time>2018-02-17T10:09:37Z</time>
      </trkpt>
      <trkpt lat="51.686847992241383" lon="0.768873989582062">
        <ele>2</ele>
        <time>2018-02-17T10:09:38Z</time>
      </trkpt>
      <trkpt lat="51.68684103526175" lon="0.768909025937319">
        <ele>2</ele>
        <time>2018-02-17T10:09:39Z</time>
      </trkpt>
      <trkpt lat="51.686836006119847" lon="0.768940038979054">
        <ele>2</ele>
        <time>2018-02-17T10:09:40Z</time>
      </trkpt>
      <trkpt lat="51.686832988634706" lon="0.768971974030137">
        <ele>2</ele>
        <time>2018-02-17T10:09:41Z</time>
      </trkpt>
      <trkpt lat="51.686828965321183" lon="0.769007010385394">
        <ele>2</ele>
        <time>2018-02-17T10:09:42Z</time>
      </trkpt>
      <trkpt lat="51.686822008341551" lon="0.769039029255509">
        <ele>2</ele>
        <time>2018-02-17T10:09:43Z</time>
      </trkpt>
      <trkpt lat="51.686814967542887" lon="0.769070964306593">
        <ele>2</ele>
        <time>2018-02-17T10:09:44Z</time>
      </trkpt>
      <trkpt lat="51.686810022220016" lon="0.769102983176708">
        <ele>2</ele>
        <time>2018-02-17T10:09:45Z</time>
      </trkpt>
      <trkpt lat="51.686803987249732" lon="0.769136007875204">
        <ele>2</ele>
        <time>2018-02-17T10:09:46Z</time>
      </trkpt>
      <trkpt lat="51.686796024441719" lon="0.769168026745319">
        <ele>2</ele>
        <time>2018-02-17T10:09:47Z</time>
      </trkpt>
      <trkpt lat="51.686790995299816" lon="0.769199961796403">
        <ele>2</ele>
        <time>2018-02-17T10:09:48Z</time>
      </trkpt>
      <trkpt lat="51.686782026663423" lon="0.769231980666518">
        <ele>2</ele>
        <time>2018-02-17T10:09:49Z</time>
      </trkpt>
      <trkpt lat="51.686775991693139" lon="0.769267017021775">
        <ele>2</ele>
        <time>2018-02-17T10:09:50Z</time>
      </trkpt>
      <trkpt lat="51.686770040541887" lon="0.769301969558001">
        <ele>2</ele>
        <time>2018-02-17T10:09:51Z</time>
      </trkpt>
      <trkpt lat="51.686761993914843" lon="0.76934102922678">
        <ele>2</ele>
        <time>2018-02-17T10:09:52Z</time>
      </trkpt>
      <trkpt lat="51.686753025278449" lon="0.769374975934625">
        <ele>2</ele>
        <time>2018-02-17T10:09:53Z</time>
      </trkpt>
      <trkpt lat="51.686745984479785" lon="0.769409006461501">
        <ele>2</ele>
        <time>2018-02-17T10:09:54Z</time>
      </trkpt>
      <trkpt lat="51.686741961166263" lon="0.769446976482868">
        <ele>2</ele>
        <time>2018-02-17T10:09:55Z</time>
      </trkpt>
      <trkpt lat="51.686731986701488" lon="0.769478995352983">
        <ele>2</ele>
        <time>2018-02-17T10:09:56Z</time>
      </trkpt>
      <trkpt lat="51.686727041378617" lon="0.76951302587986">
        <ele>2</ele>
        <time>2018-02-17T10:09:57Z</time>
      </trkpt>
      <trkpt lat="51.686722012236714" lon="0.769545966759324">
        <ele>2</ele>
        <time>2018-02-17T10:09:58Z</time>
      </trkpt>
      <trkpt lat="51.686715977266431" lon="0.769579997286201">
        <ele>2</ele>
        <time>2018-02-17T10:09:59Z</time>
      </trkpt>
      <trkpt lat="51.68671203777194" lon="0.769616039469838">
        <ele>2</ele>
        <time>2018-02-17T10:10:00Z</time>
      </trkpt>
      <trkpt lat="51.686700973659754" lon="0.769647974520922">
        <ele>1.94518866601206</ele>
        <time>2018-02-17T10:10:01Z</time>
      </trkpt>
      <trkpt lat="51.68669099919498" lon="0.769680999219418">
        <ele>0</ele>
        <time>2018-02-17T10:10:02Z</time>
      </trkpt>
      <trkpt lat="51.686682030558586" lon="0.769715029746294">
        <ele>0</ele>
        <time>2018-02-17T10:10:03Z</time>
      </trkpt>
      <trkpt lat="51.686673983931541" lon="0.769747970625758">
        <ele>0</ele>
        <time>2018-02-17T10:10:04Z</time>
      </trkpt>
      <trkpt lat="51.686666021123528" lon="0.769783006981015">
        <ele>0</ele>
        <time>2018-02-17T10:10:05Z</time>
      </trkpt>
      <trkpt lat="51.686655962839723" lon="0.769817959517241">
        <ele>0</ele>
        <time>2018-02-17T10:10:06Z</time>
      </trkpt>
      <trkpt lat="51.686650011688471" lon="0.769851990044117">
        <ele>0</ele>
        <time>2018-02-17T10:10:07Z</time>
      </trkpt>
      <trkpt lat="51.686641965061426" lon="0.769887026399374">
        <ele>0</ele>
        <time>2018-02-17T10:10:08Z</time>
      </trkpt>
      <trkpt lat="51.686636013910174" lon="0.769917033612728">
        <ele>0.336636800283878</ele>
        <time>2018-02-17T10:10:09Z</time>
      </trkpt>
      <trkpt lat="51.686631990596652" lon="0.769948968663812">
        <ele>1</ele>
        <time>2018-02-17T10:10:10Z</time>
      </trkpt>
      <trkpt lat="51.686624027788639" lon="0.769982999190688">
        <ele>1</ele>
        <time>2018-02-17T10:10:11Z</time>
      </trkpt>
      <trkpt lat="51.686615981161594" lon="0.770013006404042">
        <ele>1</ele>
        <time>2018-02-17T10:10:12Z</time>
      </trkpt>
      <trkpt lat="51.686610030010343" lon="0.770045025274158">
        <ele>1</ele>
        <time>2018-02-17T10:10:13Z</time>
      </trkpt>
      <trkpt lat="51.68660500086844" lon="0.770075032487512">
        <ele>1</ele>
        <time>2018-02-17T10:10:14Z</time>
      </trkpt>
      <trkpt lat="51.686594020575285" lon="0.77011601999402">
        <ele>0.336628393278078</ele>
        <time>2018-02-17T10:10:16Z</time>
      </trkpt>
      <trkpt lat="51.686593014746904" lon="0.770147033035755">
        <ele>1</ele>
        <time>2018-02-17T10:10:18Z</time>
      </trkpt>
      <trkpt lat="51.686586979776621" lon="0.770177040249109">
        <ele>1</ele>
        <time>2018-02-17T10:10:20Z</time>
      </trkpt>
      <trkpt lat="51.68658597394824" lon="0.770218027755618">
        <ele>1</ele>
        <time>2018-02-17T10:10:26Z</time>
      </trkpt>
      <trkpt lat="51.686580022796988" lon="0.770251974463463">
        <ele>1</ele>
        <time>2018-02-17T10:10:28Z</time>
      </trkpt>
      <trkpt lat="51.686579016968608" lon="0.77028701081872">
        <ele>1</ele>
        <time>2018-02-17T10:10:30Z</time>
      </trkpt>
      <trkpt lat="51.686577005311847" lon="0.770326992496848">
        <ele>1</ele>
        <time>2018-02-17T10:10:32Z</time>
      </trkpt>
      <trkpt lat="51.686575999483466" lon="0.770378960296512">
        <ele>1</ele>
        <time>2018-02-17T10:10:34Z</time>
      </trkpt>
      <trkpt lat="51.68658496811986" lon="0.770430006086826">
        <ele>1</ele>
        <time>2018-02-17T10:10:36Z</time>
      </trkpt>
      <trkpt lat="51.686591003090143" lon="0.770485997200012">
        <ele>2</ele>
        <time>2018-02-17T10:10:38Z</time>
      </trkpt>
      <trkpt lat="51.686594020575285" lon="0.770516004413366">
        <ele>2</ele>
        <time>2018-02-17T10:10:39Z</time>
      </trkpt>
      <trkpt lat="51.686594020575285" lon="0.770543999969959">
        <ele>2</ele>
        <time>2018-02-17T10:10:40Z</time>
      </trkpt>
      <trkpt lat="51.686597960069776" lon="0.770594039931893">
        <ele>2</ele>
        <time>2018-02-17T10:10:42Z</time>
      </trkpt>
      <trkpt lat="51.68658597394824" lon="0.770646007731557">
        <ele>2</ele>
        <time>2018-02-17T10:10:44Z</time>
      </trkpt>
      <trkpt lat="51.686569964513183" lon="0.770689006894827">
        <ele>2</ele>
        <time>2018-02-17T10:10:46Z</time>
      </trkpt>
      <trkpt lat="51.686564013361931" lon="0.770729994401336">
        <ele>2</ele>
        <time>2018-02-17T10:10:48Z</time>
      </trkpt>
      <trkpt lat="51.686555966734886" lon="0.770779028534889">
        <ele>2</ele>
        <time>2018-02-17T10:10:50Z</time>
      </trkpt>
      <trkpt lat="51.68656200170517" lon="0.770834013819695">
        <ele>2</ele>
        <time>2018-02-17T10:10:52Z</time>
      </trkpt>
      <trkpt lat="51.686556972563267" lon="0.770863015204668">
        <ele>2</ele>
        <time>2018-02-17T10:10:53Z</time>
      </trkpt>
      <trkpt lat="51.68654196895659" lon="0.77090903185308">
        <ele>2</ele>
        <time>2018-02-17T10:10:55Z</time>
      </trkpt>
      <trkpt lat="51.686530988663435" lon="0.770935015752912">
        <ele>2</ele>
        <time>2018-02-17T10:10:56Z</time>
      </trkpt>
      <trkpt lat="51.686526965349913" lon="0.770964017137885">
        <ele>2</ele>
        <time>2018-02-17T10:10:57Z</time>
      </trkpt>
      <trkpt lat="51.686511039733887" lon="0.771013973280787">
        <ele>2</ele>
        <time>2018-02-17T10:10:59Z</time>
      </trkpt>
      <trkpt lat="51.686496958136559" lon="0.771057978272438">
        <ele>2</ele>
        <time>2018-02-17T10:11:01Z</time>
      </trkpt>
      <trkpt lat="51.686482038348913" lon="0.771108018234372">
        <ele>2</ele>
        <time>2018-02-17T10:11:03Z</time>
      </trkpt>
      <trkpt lat="51.686467034742236" lon="0.771156968548894">
        <ele>2</ele>
        <time>2018-02-17T10:11:05Z</time>
      </trkpt>
      <trkpt lat="51.686453958973289" lon="0.771207008510828">
        <ele>3</ele>
        <time>2018-02-17T10:11:07Z</time>
      </trkpt>
      <trkpt lat="51.686439961194992" lon="0.771226035431027">
        <ele>3.2499968</ele>
        <time>2018-02-17T10:11:08Z</time>
      </trkpt>
      <trkpt lat="51.686410959810019" lon="0.771266017109156">
        <ele>4</ele>
        <time>2018-02-17T10:11:10Z</time>
      </trkpt>
      <trkpt lat="51.686400985345244" lon="0.771287977695465">
        <ele>4</ele>
        <time>2018-02-17T10:11:11Z</time>
      </trkpt>
      <trkpt lat="51.686392016708851" lon="0.771313961595297">
        <ele>4</ele>
        <time>2018-02-17T10:11:12Z</time>
      </trkpt>
      <trkpt lat="51.686373995617032" lon="0.77136198990047">
        <ele>4</ele>
        <time>2018-02-17T10:11:14Z</time>
      </trkpt>
      <trkpt lat="51.686363015323877" lon="0.77140599489212">
        <ele>4</ele>
        <time>2018-02-17T10:11:16Z</time>
      </trkpt>
      <trkpt lat="51.6863480117172" lon="0.77144798822701">
        <ele>4</ele>
        <time>2018-02-17T10:11:18Z</time>
      </trkpt>
      <trkpt lat="51.68632797896862" lon="0.771487969905138">
        <ele>4</ele>
        <time>2018-02-17T10:11:20Z</time>
      </trkpt>
      <trkpt lat="51.686309035867453" lon="0.771524012088776">
        <ele>5</ele>
        <time>2018-02-17T10:11:22Z</time>
      </trkpt>
      <trkpt lat="51.686295960098505" lon="0.771564999595284">
        <ele>5</ele>
        <time>2018-02-17T10:11:24Z</time>
      </trkpt>
      <trkpt lat="51.686285985633731" lon="0.7715970184654">
        <ele>5</ele>
        <time>2018-02-17T10:11:26Z</time>
      </trkpt>
      <trkpt lat="51.686270982027054" lon="0.771633982658386">
        <ele>5</ele>
        <time>2018-02-17T10:11:28Z</time>
      </trkpt>
      <trkpt lat="51.68626201339066" lon="0.771668013185263">
        <ele>5</ele>
        <time>2018-02-17T10:11:30Z</time>
      </trkpt>
      <trkpt lat="51.686248015612364" lon="0.771696008741856">
        <ele>5</ele>
        <time>2018-02-17T10:11:32Z</time>
      </trkpt>
      <trkpt lat="51.686233012005687" lon="0.771728027611971">
        <ele>5.25252446892414</ele>
        <time>2018-02-17T10:11:34Z</time>
      </trkpt>
      <trkpt lat="51.68621800839901" lon="0.771765997633338">
        <ele>6</ele>
        <time>2018-02-17T10:11:36Z</time>
      </trkpt>
      <trkpt lat="51.686203004792333" lon="0.771797010675073">
        <ele>6</ele>
        <time>2018-02-17T10:11:38Z</time>
      </trkpt>
      <trkpt lat="51.686183977872133" lon="0.771826012060046">
        <ele>6</ele>
        <time>2018-02-17T10:11:40Z</time>
      </trkpt>
      <trkpt lat="51.686162017285824" lon="0.771858030930161">
        <ele>6</ele>
        <time>2018-02-17T10:11:42Z</time>
      </trkpt>
      <trkpt lat="51.686146007850766" lon="0.771886026486754">
        <ele>6</ele>
        <time>2018-02-17T10:11:44Z</time>
      </trkpt>
      <trkpt lat="51.686123963445425" lon="0.771918967366219">
        <ele>6</ele>
        <time>2018-02-17T10:11:46Z</time>
      </trkpt>
      <trkpt lat="51.686107032001019" lon="0.771954003721476">
        <ele>6</ele>
        <time>2018-02-17T10:11:48Z</time>
      </trkpt>
      <trkpt lat="51.686083981767297" lon="0.771986022591591">
        <ele>6</ele>
        <time>2018-02-17T10:11:50Z</time>
      </trkpt>
      <trkpt lat="51.686063027009368" lon="0.772014018148184">
        <ele>6</ele>
        <time>2018-02-17T10:11:52Z</time>
      </trkpt>
      <trkpt lat="51.686042994260788" lon="0.772033967077732">
        <ele>6</ele>
        <time>2018-02-17T10:11:54Z</time>
      </trkpt>
      <trkpt lat="51.686027990654111" lon="0.772058023139834">
        <ele>6</ele>
        <time>2018-02-17T10:11:56Z</time>
      </trkpt>
      <trkpt lat="51.685999995097518" lon="0.772079983726144">
        <ele>6</ele>
        <time>2018-02-17T10:11:58Z</time>
      </trkpt>
      <trkpt lat="51.685981974005699" lon="0.772089958190918">
        <ele>6</ele>
        <time>2018-02-17T10:11:59Z</time>
      </trkpt>
      <trkpt lat="51.685951966792345" lon="0.772104961797595">
        <ele>6</ele>
        <time>2018-02-17T10:12:01Z</time>
      </trkpt>
      <trkpt lat="51.685922965407372" lon="0.772110996767879">
        <ele>6</ele>
        <time>2018-02-17T10:12:03Z</time>
      </trkpt>
      <trkpt lat="51.685892958194017" lon="0.772124994546175">
        <ele>6</ele>
        <time>2018-02-17T10:12:05Z</time>
      </trkpt>
      <trkpt lat="51.685869991779327" lon="0.772134969010949">
        <ele>6</ele>
        <time>2018-02-17T10:12:07Z</time>
      </trkpt>
      <trkpt lat="51.685847025364637" lon="0.772145027294755">
        <ele>6</ele>
        <time>2018-02-17T10:12:09Z</time>
      </trkpt>
      <trkpt lat="51.685823975130916" lon="0.772161036729813">
        <ele>6</ele>
        <time>2018-02-17T10:12:11Z</time>
      </trkpt>
      <trkpt lat="51.685793967917562" lon="0.772180985659361">
        <ele>6</ele>
        <time>2018-02-17T10:12:13Z</time>
      </trkpt>
      <trkpt lat="51.685766978189349" lon="0.772198000922799">
        <ele>6</ele>
        <time>2018-02-17T10:12:15Z</time>
      </trkpt>
      <trkpt lat="51.685743005946279" lon="0.772210992872715">
        <ele>6</ele>
        <time>2018-02-17T10:12:17Z</time>
      </trkpt>
      <trkpt lat="51.685720961540937" lon="0.77222197316587">
        <ele>6</ele>
        <time>2018-02-17T10:12:19Z</time>
      </trkpt>
      <trkpt lat="51.685697995126247" lon="0.772229013964534">
        <ele>6</ele>
        <time>2018-02-17T10:12:21Z</time>
      </trkpt>
      <trkpt lat="51.685674022883177" lon="0.772233959287405">
        <ele>6</ele>
        <time>2018-02-17T10:12:25Z</time>
      </trkpt>
      <trkpt lat="51.685650972649455" lon="0.77224200591445">
        <ele>6</ele>
        <time>2018-02-17T10:12:27Z</time>
      </trkpt>
      <trkpt lat="51.685628006234765" lon="0.772251980379224">
        <ele>6</ele>
        <time>2018-02-17T10:12:29Z</time>
      </trkpt>
      <trkpt lat="51.685605039820075" lon="0.772261032834649">
        <ele>6</ele>
        <time>2018-02-17T10:12:31Z</time>
      </trkpt>
      <trkpt lat="51.685584001243114" lon="0.772272013127804">
        <ele>6</ele>
        <time>2018-02-17T10:12:33Z</time>
      </trkpt>
      <trkpt lat="51.685560029000044" lon="0.77228500507772">
        <ele>6</ele>
        <time>2018-02-17T10:12:35Z</time>
      </trkpt>
      <trkpt lat="51.685524992644787" lon="0.772295985370874">
        <ele>6</ele>
        <time>2018-02-17T10:12:37Z</time>
      </trkpt>
      <trkpt lat="51.685494985431433" lon="0.772305959835649">
        <ele>6</ele>
        <time>2018-02-17T10:12:39Z</time>
      </trkpt>
      <trkpt lat="51.685470007359982" lon="0.772320963442326">
        <ele>6</ele>
        <time>2018-02-17T10:12:41Z</time>
      </trkpt>
      <trkpt lat="51.685446035116911" lon="0.772339990362525">
        <ele>6</ele>
        <time>2018-02-17T10:12:43Z</time>
      </trkpt>
      <trkpt lat="51.685421979054809" lon="0.77237200923264">
        <ele>6</ele>
        <time>2018-02-17T10:12:45Z</time>
      </trkpt>
      <trkpt lat="51.68540102429688" lon="0.772406039759517">
        <ele>6</ele>
        <time>2018-02-17T10:12:47Z</time>
      </trkpt>
      <trkpt lat="51.685377974063158" lon="0.772426994517446">
        <ele>5</ele>
        <time>2018-02-17T10:12:49Z</time>
      </trkpt>
      <trkpt lat="51.685357019305229" lon="0.772449038922787">
        <ele>6</ele>
        <time>2018-02-17T10:12:51Z</time>
      </trkpt>
      <trkpt lat="51.685342015698552" lon="0.772467982023954">
        <ele>6</ele>
        <time>2018-02-17T10:12:53Z</time>
      </trkpt>
      <trkpt lat="51.685321982949972" lon="0.77248097397387">
        <ele>6</ele>
        <time>2018-02-17T10:12:55Z</time>
      </trkpt>
      <trkpt lat="51.68529599905014" lon="0.772493965923786">
        <ele>6</ele>
        <time>2018-02-17T10:12:57Z</time>
      </trkpt>
      <trkpt lat="51.68527202680707" lon="0.772508969530463">
        <ele>6</ele>
        <time>2018-02-17T10:12:59Z</time>
      </trkpt>
      <trkpt lat="51.685245037078857" lon="0.77252003364265">
        <ele>6</ele>
        <time>2018-02-17T10:13:01Z</time>
      </trkpt>
      <trkpt lat="51.685220981016755" lon="0.772534031420946">
        <ele>6</ele>
        <time>2018-02-17T10:13:03Z</time>
      </trkpt>
      <trkpt lat="51.685200026258826" lon="0.772550962865353">
        <ele>6</ele>
        <time>2018-02-17T10:13:05Z</time>
      </trkpt>
      <trkpt lat="51.685174964368343" lon="0.772568983957171">
        <ele>5.65999795202621</ele>
        <time>2018-02-17T10:13:07Z</time>
      </trkpt>
      <trkpt lat="51.685151997953653" lon="0.772589016705751">
        <ele>5</ele>
        <time>2018-02-17T10:13:09Z</time>
      </trkpt>
      <trkpt lat="51.685125008225441" lon="0.77260603196919">
        <ele>5</ele>
        <time>2018-02-17T10:13:11Z</time>
      </trkpt>
      <trkpt lat="51.6851029638201" lon="0.772615000605583">
        <ele>5</ele>
        <time>2018-02-17T10:13:13Z</time>
      </trkpt>
      <trkpt lat="51.685077985748649" lon="0.772631010040641">
        <ele>5</ele>
        <time>2018-02-17T10:13:15Z</time>
      </trkpt>
      <trkpt lat="51.68505703099072" lon="0.772648025304079">
        <ele>5</ele>
        <time>2018-02-17T10:13:17Z</time>
      </trkpt>
      <trkpt lat="51.685033980756998" lon="0.772656993940473">
        <ele>5</ele>
        <time>2018-02-17T10:13:19Z</time>
      </trkpt>
      <trkpt lat="51.685001961886883" lon="0.77267199754715">
        <ele>5</ele>
        <time>2018-02-17T10:13:21Z</time>
      </trkpt>
      <trkpt lat="51.68497203849256" lon="0.772687001153827">
        <ele>5</ele>
        <time>2018-02-17T10:13:23Z</time>
      </trkpt>
      <trkpt lat="51.6849509999156" lon="0.772702004760504">
        <ele>5</ele>
        <time>2018-02-17T10:13:25Z</time>
      </trkpt>
      <trkpt lat="51.684939013794065" lon="0.772731006145477">
        <ele>5</ele>
        <time>2018-02-17T10:13:27Z</time>
      </trkpt>
      <trkpt lat="51.68493096716702" lon="0.772767970338464">
        <ele>5</ele>
        <time>2018-02-17T10:13:29Z</time>
      </trkpt>
      <trkpt lat="51.684919986873865" lon="0.772799989208579">
        <ele>5</ele>
        <time>2018-02-17T10:13:31Z</time>
      </trkpt>
      <trkpt lat="51.684916969388723" lon="0.772837037220597">
        <ele>5</ele>
        <time>2018-02-17T10:13:34Z</time>
      </trkpt>
      <trkpt lat="51.684926021844149" lon="0.772878024727106">
        <ele>5</ele>
        <time>2018-02-17T10:13:36Z</time>
      </trkpt>
      <trkpt lat="51.684935996308923" lon="0.772920018061996">
        <ele>5</ele>
        <time>2018-02-17T10:13:38Z</time>
      </trkpt>
      <trkpt lat="51.684942031279206" lon="0.772965028882027">
        <ele>4</ele>
        <time>2018-02-17T10:13:40Z</time>
      </trkpt>
      <trkpt lat="51.68495200574398" lon="0.77299595810473">
        <ele>4</ele>
        <time>2018-02-17T10:13:41Z</time>
      </trkpt>
      <trkpt lat="51.684958962723613" lon="0.773024959489703">
        <ele>4</ele>
        <time>2018-02-17T10:13:42Z</time>
      </trkpt>
      <trkpt lat="51.684964997693896" lon="0.773055972531438">
        <ele>4</ele>
        <time>2018-02-17T10:13:43Z</time>
      </trkpt>
      <trkpt lat="51.68497103266418" lon="0.773092014715075">
        <ele>4</ele>
        <time>2018-02-17T10:13:44Z</time>
      </trkpt>
      <trkpt lat="51.684975977987051" lon="0.773128978908062">
        <ele>4</ele>
        <time>2018-02-17T10:13:45Z</time>
      </trkpt>
      <trkpt lat="51.684980001300573" lon="0.7731650210917">
        <ele>4</ele>
        <time>2018-02-17T10:13:46Z</time>
      </trkpt>
      <trkpt lat="51.684986036270857" lon="0.773199973627925">
        <ele>3.66667097641705</ele>
        <time>2018-02-17T10:13:47Z</time>
      </trkpt>
      <trkpt lat="51.684989975765347" lon="0.773234004154801">
        <ele>3</ele>
        <time>2018-02-17T10:13:48Z</time>
      </trkpt>
      <trkpt lat="51.684987964108586" lon="0.773269040510058">
        <ele>3</ele>
        <time>2018-02-17T10:13:49Z</time>
      </trkpt>
      <trkpt lat="51.684990981593728" lon="0.773302987217903">
        <ele>3</ele>
        <time>2018-02-17T10:13:50Z</time>
      </trkpt>
      <trkpt lat="51.684991987422109" lon="0.773340035229921">
        <ele>3</ele>
        <time>2018-02-17T10:13:51Z</time>
      </trkpt>
      <trkpt lat="51.68499399907887" lon="0.773375993594527">
        <ele>3</ele>
        <time>2018-02-17T10:13:52Z</time>
      </trkpt>
      <trkpt lat="51.685001961886883" lon="0.773413963615894">
        <ele>3</ele>
        <time>2018-02-17T10:13:53Z</time>
      </trkpt>
      <trkpt lat="51.685007996857166" lon="0.77344698831439">
        <ele>3</ele>
        <time>2018-02-17T10:13:54Z</time>
      </trkpt>
      <trkpt lat="51.685012020170689" lon="0.773480013012886">
        <ele>3</ele>
        <time>2018-02-17T10:13:55Z</time>
      </trkpt>
      <trkpt lat="51.685013025999069" lon="0.773514965549111">
        <ele>3</ele>
        <time>2018-02-17T10:13:56Z</time>
      </trkpt>
      <trkpt lat="51.68501797132194" lon="0.773547990247607">
        <ele>3</ele>
        <time>2018-02-17T10:13:57Z</time>
      </trkpt>
      <trkpt lat="51.685020988807082" lon="0.773585960268974">
        <ele>3</ele>
        <time>2018-02-17T10:13:58Z</time>
      </trkpt>
      <trkpt lat="51.685026017948985" lon="0.773620996624231">
        <ele>3</ele>
        <time>2018-02-17T10:13:59Z</time>
      </trkpt>
      <trkpt lat="51.685030963271856" lon="0.773657960817218">
        <ele>2.8499968</ele>
        <time>2018-02-17T10:14:00Z</time>
      </trkpt>
      <trkpt lat="51.685033980756998" lon="0.773694003000855">
        <ele>2</ele>
        <time>2018-02-17T10:14:01Z</time>
      </trkpt>
      <trkpt lat="51.685035992413759" lon="0.773728033527732">
        <ele>2.14851660815897</ele>
        <time>2018-02-17T10:14:02Z</time>
      </trkpt>
      <trkpt lat="51.685041021555662" lon="0.773762986063957">
        <ele>3</ele>
        <time>2018-02-17T10:14:03Z</time>
      </trkpt>
      <trkpt lat="51.685044961050153" lon="0.773796010762453">
        <ele>3</ele>
        <time>2018-02-17T10:14:04Z</time>
      </trkpt>
      <trkpt lat="51.685050996020436" lon="0.77383297495544">
        <ele>3</ele>
        <time>2018-02-17T10:14:05Z</time>
      </trkpt>
      <trkpt lat="51.685054013505578" lon="0.773870022967458">
        <ele>3</ele>
        <time>2018-02-17T10:14:06Z</time>
      </trkpt>
      <trkpt lat="51.6850580368191" lon="0.773903969675303">
        <ele>3</ele>
        <time>2018-02-17T10:14:07Z</time>
      </trkpt>
      <trkpt lat="51.68505703099072" lon="0.773936994373798">
        <ele>3</ele>
        <time>2018-02-17T10:14:08Z</time>
      </trkpt>
      <trkpt lat="51.685062982141972" lon="0.773971024900675">
        <ele>3</ele>
        <time>2018-02-17T10:14:09Z</time>
      </trkpt>
      <trkpt lat="51.685067005455494" lon="0.7740059774369">
        <ele>3</ele>
        <time>2018-02-17T10:14:10Z</time>
      </trkpt>
      <trkpt lat="51.685069017112255" lon="0.774041013792157">
        <ele>3</ele>
        <time>2018-02-17T10:14:11Z</time>
      </trkpt>
      <trkpt lat="51.685073962435126" lon="0.774075966328382">
        <ele>3</ele>
        <time>2018-02-17T10:14:12Z</time>
      </trkpt>
      <trkpt lat="51.685074968263507" lon="0.774115025997162">
        <ele>2.68</ele>
        <time>2018-02-17T10:14:13Z</time>
      </trkpt>
      <trkpt lat="51.685078991577029" lon="0.774149978533387">
        <ele>2</ele>
        <time>2018-02-17T10:14:14Z</time>
      </trkpt>
      <trkpt lat="51.685086032375693" lon="0.774187026545405">
        <ele>2</ele>
        <time>2018-02-17T10:14:15Z</time>
      </trkpt>
      <trkpt lat="51.685087960213423" lon="0.774226002395153">
        <ele>2</ele>
        <time>2018-02-17T10:14:16Z</time>
      </trkpt>
      <trkpt lat="51.685084020718932" lon="0.774261960759759">
        <ele>2</ele>
        <time>2018-02-17T10:14:17Z</time>
      </trkpt>
      <trkpt lat="51.685087038204074" lon="0.774296997115016">
        <ele>2</ele>
        <time>2018-02-17T10:14:18Z</time>
      </trkpt>
      <trkpt lat="51.685092989355326" lon="0.774332033470273">
        <ele>2.32323127844435</ele>
        <time>2018-02-17T10:14:19Z</time>
      </trkpt>
      <trkpt lat="51.685097012668848" lon="0.774366986006498">
        <ele>3</ele>
        <time>2018-02-17T10:14:20Z</time>
      </trkpt>
      <trkpt lat="51.68510103598237" lon="0.774402022361755">
        <ele>3</ele>
        <time>2018-02-17T10:14:21Z</time>
      </trkpt>
      <trkpt lat="51.685107992962003" lon="0.774439992383122">
        <ele>3</ele>
        <time>2018-02-17T10:14:22Z</time>
      </trkpt>
      <trkpt lat="51.685112016275525" lon="0.774474022909999">
        <ele>3</ele>
        <time>2018-02-17T10:14:23Z</time>
      </trkpt>
      <trkpt lat="51.685115033760667" lon="0.774505035951734">
        <ele>3</ele>
        <time>2018-02-17T10:14:24Z</time>
      </trkpt>
      <trkpt lat="51.685112016275525" lon="0.774534959346056">
        <ele>2.68</ele>
        <time>2018-02-17T10:14:25Z</time>
      </trkpt>
      <trkpt lat="51.685111010447145" lon="0.774566978216171">
        <ele>2</ele>
        <time>2018-02-17T10:14:26Z</time>
      </trkpt>
      <trkpt lat="51.685108998790383" lon="0.77460503205657">
        <ele>2</ele>
        <time>2018-02-17T10:14:27Z</time>
      </trkpt>
      <trkpt lat="51.685115033760667" lon="0.774750038981438">
        <ele>2</ele>
        <time>2018-02-17T10:14:31Z</time>
      </trkpt>
      <trkpt lat="51.685118973255157" lon="0.774784991517663">
        <ele>2</ele>
        <time>2018-02-17T10:14:32Z</time>
      </trkpt>
      <trkpt lat="51.685116961598396" lon="0.77482002787292">
        <ele>2</ele>
        <time>2018-02-17T10:14:33Z</time>
      </trkpt>
      <trkpt lat="51.685113022103906" lon="0.774851962924004">
        <ele>2</ele>
        <time>2018-02-17T10:14:34Z</time>
      </trkpt>
      <trkpt lat="51.685120984911919" lon="0.774908037856221">
        <ele>2</ele>
        <time>2018-02-17T10:14:36Z</time>
      </trkpt>
      <trkpt lat="51.685128025710583" lon="0.774942990392447">
        <ele>2</ele>
        <time>2018-02-17T10:14:37Z</time>
      </trkpt>
      <trkpt lat="51.685136994346976" lon="0.774975009262562">
        <ele>2</ele>
        <time>2018-02-17T10:14:38Z</time>
      </trkpt>
      <trkpt lat="51.68514302931726" lon="0.775008033961058">
        <ele>2</ele>
        <time>2018-02-17T10:14:39Z</time>
      </trkpt>
      <trkpt lat="51.685147974640131" lon="0.775038963183761">
        <ele>2</ele>
        <time>2018-02-17T10:14:40Z</time>
      </trkpt>
      <trkpt lat="51.685153003782034" lon="0.775068970397115">
        <ele>2</ele>
        <time>2018-02-17T10:14:41Z</time>
      </trkpt>
      <trkpt lat="51.685158032923937" lon="0.775099983438849">
        <ele>2</ele>
        <time>2018-02-17T10:14:42Z</time>
      </trkpt>
      <trkpt lat="51.685158032923937" lon="0.775262005627155">
        <ele>2</ele>
        <time>2018-02-17T10:14:46Z</time>
      </trkpt>
      <trkpt lat="51.685161972418427" lon="0.775426039472222">
        <ele>2</ele>
        <time>2018-02-17T10:14:50Z</time>
      </trkpt>
      <trkpt lat="51.68516599573195" lon="0.77546501532197">
        <ele>2</ele>
        <time>2018-02-17T10:14:51Z</time>
      </trkpt>
      <trkpt lat="51.685172030702233" lon="0.775501979514956">
        <ele>2</ele>
        <time>2018-02-17T10:14:52Z</time>
      </trkpt>
      <trkpt lat="51.685173036530614" lon="0.775539027526975">
        <ele>2</ele>
        <time>2018-02-17T10:14:53Z</time>
      </trkpt>
      <trkpt lat="51.685173036530614" lon="0.775575991719961">
        <ele>2</ele>
        <time>2018-02-17T10:14:54Z</time>
      </trkpt>
      <trkpt lat="51.685183010995388" lon="0.775755029171705">
        <ele>2</ele>
        <time>2018-02-17T10:14:59Z</time>
      </trkpt>
      <trkpt lat="51.685197008773685" lon="0.775911016389728">
        <ele>2</ele>
        <time>2018-02-17T10:15:03Z</time>
      </trkpt>
      <trkpt lat="51.685194997116923" lon="0.775945968925953">
        <ele>2</ele>
        <time>2018-02-17T10:15:04Z</time>
      </trkpt>
      <trkpt lat="51.685196002945304" lon="0.775987040251493">
        <ele>2</ele>
        <time>2018-02-17T10:15:05Z</time>
      </trkpt>
      <trkpt lat="51.685196002945304" lon="0.776030961424112">
        <ele>2</ele>
        <time>2018-02-17T10:15:06Z</time>
      </trkpt>
      <trkpt lat="51.685203965753317" lon="0.776072032749653">
        <ele>2</ele>
        <time>2018-02-17T10:15:07Z</time>
      </trkpt>
      <trkpt lat="51.68520899489522" lon="0.776113020256162">
        <ele>2</ele>
        <time>2018-02-17T10:15:08Z</time>
      </trkpt>
      <trkpt lat="51.685211006551981" lon="0.77615300193429">
        <ele>2</ele>
        <time>2018-02-17T10:15:09Z</time>
      </trkpt>
      <trkpt lat="51.685206983238459" lon="0.776192983612418">
        <ele>2</ele>
        <time>2018-02-17T10:15:10Z</time>
      </trkpt>
      <trkpt lat="51.685207989066839" lon="0.776230031624436">
        <ele>2</ele>
        <time>2018-02-17T10:15:11Z</time>
      </trkpt>
      <trkpt lat="51.6852100007236" lon="0.776271019130945">
        <ele>2</ele>
        <time>2018-02-17T10:15:12Z</time>
      </trkpt>
      <trkpt lat="51.685214024037123" lon="0.776311000809073">
        <ele>2</ele>
        <time>2018-02-17T10:15:13Z</time>
      </trkpt>
      <trkpt lat="51.685219975188375" lon="0.77634603716433">
        <ele>2</ele>
        <time>2018-02-17T10:15:14Z</time>
      </trkpt>
      <trkpt lat="51.685220981016755" lon="0.776381995528936">
        <ele>2</ele>
        <time>2018-02-17T10:15:15Z</time>
      </trkpt>
      <trkpt lat="51.685219975188375" lon="0.776418959721923">
        <ele>2</ele>
        <time>2018-02-17T10:15:16Z</time>
      </trkpt>
      <trkpt lat="51.685217963531613" lon="0.776460031047463">
        <ele>2</ele>
        <time>2018-02-17T10:15:17Z</time>
      </trkpt>
      <trkpt lat="51.685216035693884" lon="0.776501018553972">
        <ele>2</ele>
        <time>2018-02-17T10:15:18Z</time>
      </trkpt>
      <trkpt lat="51.685213018208742" lon="0.776538988575339">
        <ele>2</ele>
        <time>2018-02-17T10:15:19Z</time>
      </trkpt>
      <trkpt lat="51.685216035693884" lon="0.776617024093866">
        <ele>2</ele>
        <time>2018-02-17T10:15:21Z</time>
      </trkpt>
      <trkpt lat="51.685217963531613" lon="0.776657005771995">
        <ele>2</ele>
        <time>2018-02-17T10:15:22Z</time>
      </trkpt>
      <trkpt lat="51.685217041522264" lon="0.776694975793362">
        <ele>2</ele>
        <time>2018-02-17T10:15:23Z</time>
      </trkpt>
      <trkpt lat="51.685217963531613" lon="0.77673302963376">
        <ele>2</ele>
        <time>2018-02-17T10:15:24Z</time>
      </trkpt>
      <trkpt lat="51.685216035693884" lon="0.776770999655128">
        <ele>2</ele>
        <time>2018-02-17T10:15:25Z</time>
      </trkpt>
      <trkpt lat="51.685217963531613" lon="0.776808969676495">
        <ele>2</ele>
        <time>2018-02-17T10:15:26Z</time>
      </trkpt>
      <trkpt lat="51.685219975188375" lon="0.776848029345274">
        <ele>2</ele>
        <time>2018-02-17T10:15:27Z</time>
      </trkpt>
      <trkpt lat="51.685227015987039" lon="0.776885999366641">
        <ele>2</ele>
        <time>2018-02-17T10:15:28Z</time>
      </trkpt>
      <trkpt lat="51.685231039300561" lon="0.776925981044769">
        <ele>2</ele>
        <time>2018-02-17T10:15:29Z</time>
      </trkpt>
      <trkpt lat="51.685236990451813" lon="0.776961017400026">
        <ele>2</ele>
        <time>2018-02-17T10:15:30Z</time>
      </trkpt>
      <trkpt lat="51.685243025422096" lon="0.776997981593013">
        <ele>2</ele>
        <time>2018-02-17T10:15:31Z</time>
      </trkpt>
      <trkpt lat="51.685247970744967" lon="0.77703402377665">
        <ele>2</ele>
        <time>2018-02-17T10:15:32Z</time>
      </trkpt>
      <trkpt lat="51.68525299988687" lon="0.777066964656115">
        <ele>2</ele>
        <time>2018-02-17T10:15:33Z</time>
      </trkpt>
      <trkpt lat="51.685260040685534" lon="0.777100995182991">
        <ele>2</ele>
        <time>2018-02-17T10:15:34Z</time>
      </trkpt>
      <trkpt lat="51.685264986008406" lon="0.777135025709867">
        <ele>2</ele>
        <time>2018-02-17T10:15:35Z</time>
      </trkpt>
      <trkpt lat="51.68527202680707" lon="0.777175007387996">
        <ele>2</ele>
        <time>2018-02-17T10:15:36Z</time>
      </trkpt>
      <trkpt lat="51.685277977958322" lon="0.777209959924221">
        <ele>2</ele>
        <time>2018-02-17T10:15:37Z</time>
      </trkpt>
      <trkpt lat="51.685279989615083" lon="0.777243990451097">
        <ele>2</ele>
        <time>2018-02-17T10:15:38Z</time>
      </trkpt>
      <trkpt lat="51.685285018756986" lon="0.777283972129226">
        <ele>2</ele>
        <time>2018-02-17T10:15:39Z</time>
      </trkpt>
      <trkpt lat="51.685290969908237" lon="0.777320014312863">
        <ele>2</ele>
        <time>2018-02-17T10:15:40Z</time>
      </trkpt>
      <trkpt lat="51.685283007100224" lon="0.77735697850585">
        <ele>2</ele>
        <time>2018-02-17T10:15:41Z</time>
      </trkpt>
      <trkpt lat="51.68527596630156" lon="0.777392014861107">
        <ele>2</ele>
        <time>2018-02-17T10:15:42Z</time>
      </trkpt>
      <trkpt lat="51.685265991836786" lon="0.777425039559603">
        <ele>2</ele>
        <time>2018-02-17T10:15:43Z</time>
      </trkpt>
      <trkpt lat="51.68525199405849" lon="0.777459992095828">
        <ele>2</ele>
        <time>2018-02-17T10:15:44Z</time>
      </trkpt>
      <trkpt lat="51.685237996280193" lon="0.777493016794324">
        <ele>2</ele>
        <time>2018-02-17T10:15:45Z</time>
      </trkpt>
      <trkpt lat="51.685225004330277" lon="0.777522018179297">
        <ele>2</ele>
        <time>2018-02-17T10:15:46Z</time>
      </trkpt>
      <trkpt lat="51.685202959924936" lon="0.77755001373589">
        <ele>2</ele>
        <time>2018-02-17T10:15:47Z</time>
      </trkpt>
      <trkpt lat="51.68518602848053" lon="0.777573985978961">
        <ele>2</ele>
        <time>2018-02-17T10:15:48Z</time>
      </trkpt>
      <trkpt lat="51.685173036530614" lon="0.777596030384302">
        <ele>2</ele>
        <time>2018-02-17T10:15:49Z</time>
      </trkpt>
      <trkpt lat="51.685153003782034" lon="0.777609022334218">
        <ele>2</ele>
        <time>2018-02-17T10:15:50Z</time>
      </trkpt>
      <trkpt lat="51.685129031538963" lon="0.777616985142231">
        <ele>2</ele>
        <time>2018-02-17T10:15:51Z</time>
      </trkpt>
      <trkpt lat="51.685105981305242" lon="0.777626959607005">
        <ele>2</ele>
        <time>2018-02-17T10:15:52Z</time>
      </trkpt>
      <trkpt lat="51.68508100323379" lon="0.777639029547572">
        <ele>2</ele>
        <time>2018-02-17T10:15:53Z</time>
      </trkpt>
      <trkpt lat="51.685061976313591" lon="0.777650009840727">
        <ele>2</ele>
        <time>2018-02-17T10:15:54Z</time>
      </trkpt>
      <trkpt lat="51.685042027384043" lon="0.777689991518855">
        <ele>2</ele>
        <time>2018-02-17T10:15:56Z</time>
      </trkpt>
      <trkpt lat="51.685029035434127" lon="0.777737013995647">
        <ele>2</ele>
        <time>2018-02-17T10:15:58Z</time>
      </trkpt>
      <trkpt lat="51.685027023777366" lon="0.77778697013855">
        <ele>2</ele>
        <time>2018-02-17T10:16:00Z</time>
      </trkpt>
      <trkpt lat="51.685042027384043" lon="0.7778309751302">
        <ele>2</ele>
        <time>2018-02-17T10:16:02Z</time>
      </trkpt>
      <trkpt lat="51.685052001848817" lon="0.777865005657077">
        <ele>2</ele>
        <time>2018-02-17T10:16:04Z</time>
      </trkpt>
      <trkpt lat="51.685062982141972" lon="0.777899036183953">
        <ele>2</ele>
        <time>2018-02-17T10:16:06Z</time>
      </trkpt>
      <trkpt lat="51.685074968263507" lon="0.77793600037694">
        <ele>2</ele>
        <time>2018-02-17T10:16:08Z</time>
      </trkpt>
      <trkpt lat="51.685086032375693" lon="0.777967013418674">
        <ele>2</ele>
        <time>2018-02-17T10:16:10Z</time>
      </trkpt>
      <trkpt lat="51.68510003015399" lon="0.77800297178328">
        <ele>2</ele>
        <time>2018-02-17T10:16:12Z</time>
      </trkpt>
      <trkpt lat="51.685112016275525" lon="0.778038008138537">
        <ele>2</ele>
        <time>2018-02-17T10:16:14Z</time>
      </trkpt>
      <trkpt lat="51.68512400239706" lon="0.778073966503143">
        <ele>2</ele>
        <time>2018-02-17T10:16:16Z</time>
      </trkpt>
      <trkpt lat="51.685133976861835" lon="0.778102967888117">
        <ele>2</ele>
        <time>2018-02-17T10:16:18Z</time>
      </trkpt>
      <trkpt lat="51.68514596298337" lon="0.778130041435361">
        <ele>2</ele>
        <time>2018-02-17T10:16:20Z</time>
      </trkpt>
      <trkpt lat="51.685159960761666" lon="0.778165999799967">
        <ele>2</ele>
        <time>2018-02-17T10:16:23Z</time>
      </trkpt>
      <trkpt lat="51.685175970196724" lon="0.778187038376927">
        <ele>2</ele>
        <time>2018-02-17T10:16:25Z</time>
      </trkpt>
      <trkpt lat="51.685192985460162" lon="0.778206987306476">
        <ele>2</ele>
        <time>2018-02-17T10:16:27Z</time>
      </trkpt>
      <trkpt lat="51.685214024037123" lon="0.77821796759963">
        <ele>2</ele>
        <time>2018-02-17T10:16:51Z</time>
      </trkpt>
      <trkpt lat="51.685233972966671" lon="0.77821696177125">
        <ele>2</ele>
        <time>2018-02-17T10:16:53Z</time>
      </trkpt>
      <trkpt lat="51.685258029028773" lon="0.77821796759963">
        <ele>2</ele>
        <time>2018-02-17T10:16:55Z</time>
      </trkpt>
      <trkpt lat="51.685279989615083" lon="0.778211010619998">
        <ele>2</ele>
        <time>2018-02-17T10:16:57Z</time>
      </trkpt>
      <trkpt lat="51.685302034020424" lon="0.778201958164573">
        <ele>2</ele>
        <time>2018-02-17T10:16:59Z</time>
      </trkpt>
      <trkpt lat="51.685329023748636" lon="0.778186032548547">
        <ele>2</ele>
        <time>2018-02-17T10:17:01Z</time>
      </trkpt>
      <trkpt lat="51.685351990163326" lon="0.77817496843636">
        <ele>2</ele>
        <time>2018-02-17T10:17:03Z</time>
      </trkpt>
      <trkpt lat="51.685375040397048" lon="0.778169017285109">
        <ele>2</ele>
        <time>2018-02-17T10:17:05Z</time>
      </trkpt>
      <trkpt lat="51.685400018468499" lon="0.778158959001303">
        <ele>2</ele>
        <time>2018-02-17T10:17:07Z</time>
      </trkpt>
      <trkpt lat="51.685426002368331" lon="0.778145967051387">
        <ele>2</ele>
        <time>2018-02-17T10:17:09Z</time>
      </trkpt>
      <trkpt lat="51.685449974611402" lon="0.778130041435361">
        <ele>2</ele>
        <time>2018-02-17T10:17:11Z</time>
      </trkpt>
      <trkpt lat="51.685472019016743" lon="0.778111014515162">
        <ele>2</ele>
        <time>2018-02-17T10:17:13Z</time>
      </trkpt>
      <trkpt lat="51.685490040108562" lon="0.77808796428144">
        <ele>2</ele>
        <time>2018-02-17T10:17:15Z</time>
      </trkpt>
      <trkpt lat="51.685513006523252" lon="0.778062986209989">
        <ele>2</ele>
        <time>2018-02-17T10:17:17Z</time>
      </trkpt>
      <trkpt lat="51.68553102761507" lon="0.778032978996634">
        <ele>2</ele>
        <time>2018-02-17T10:17:19Z</time>
      </trkpt>
      <trkpt lat="51.685550976544619" lon="0.778000960126519">
        <ele>2</ele>
        <time>2018-02-17T10:17:21Z</time>
      </trkpt>
      <trkpt lat="51.685564974322915" lon="0.777960978448391">
        <ele>2</ele>
        <time>2018-02-17T10:17:23Z</time>
      </trkpt>
      <trkpt lat="51.685579977929592" lon="0.777923008427024">
        <ele>2</ele>
        <time>2018-02-17T10:17:25Z</time>
      </trkpt>
      <trkpt lat="51.685599004849792" lon="0.777888977900147">
        <ele>2</ele>
        <time>2018-02-17T10:17:27Z</time>
      </trkpt>
      <trkpt lat="51.685611996799707" lon="0.777854025363922">
        <ele>2</ele>
        <time>2018-02-17T10:17:29Z</time>
      </trkpt>
      <trkpt lat="51.685621971264482" lon="0.777813959866762">
        <ele>2</ele>
        <time>2018-02-17T10:17:31Z</time>
      </trkpt>
      <trkpt lat="51.685634041205049" lon="0.777773978188634">
        <ele>2</ele>
        <time>2018-02-17T10:17:33Z</time>
      </trkpt>
      <trkpt lat="51.685648038983345" lon="0.777730979025364">
        <ele>2</ele>
        <time>2018-02-17T10:17:35Z</time>
      </trkpt>
      <trkpt lat="51.685664970427752" lon="0.777697032317519">
        <ele>2</ele>
        <time>2018-02-17T10:17:37Z</time>
      </trkpt>
      <trkpt lat="51.685690032318234" lon="0.777683034539223">
        <ele>2</ele>
        <time>2018-02-17T10:17:39Z</time>
      </trkpt>
      <trkpt lat="51.685715010389686" lon="0.7776790112257">
        <ele>2</ele>
        <time>2018-02-17T10:17:41Z</time>
      </trkpt>
      <trkpt lat="51.685742000117898" lon="0.777680017054081">
        <ele>2</ele>
        <time>2018-02-17T10:17:43Z</time>
      </trkpt>
      <trkpt lat="51.685772007331252" lon="0.777685968205333">
        <ele>2</ele>
        <time>2018-02-17T10:17:45Z</time>
      </trkpt>
      <trkpt lat="51.685798997059464" lon="0.777695020660758">
        <ele>2</ele>
        <time>2018-02-17T10:17:47Z</time>
      </trkpt>
      <trkpt lat="51.685821963474154" lon="0.777702983468771">
        <ele>2</ele>
        <time>2018-02-17T10:17:52Z</time>
      </trkpt>
      <trkpt lat="51.685851970687509" lon="0.777706000953913">
        <ele>2</ele>
        <time>2018-02-17T10:17:54Z</time>
      </trkpt>
      <trkpt lat="51.685881977900863" lon="0.777707006782293">
        <ele>2</ele>
        <time>2018-02-17T10:17:56Z</time>
      </trkpt>
      <trkpt lat="51.685911985114217" lon="0.777704995125532">
        <ele>2.29896675947797</ele>
        <time>2018-02-17T10:17:58Z</time>
      </trkpt>
      <trkpt lat="51.685945009812713" lon="0.777702983468771">
        <ele>2</ele>
        <time>2018-02-17T10:18:00Z</time>
      </trkpt>
      <trkpt lat="51.685976022854447" lon="0.777695020660758">
        <ele>2</ele>
        <time>2018-02-17T10:18:02Z</time>
      </trkpt>
      <trkpt lat="51.686006030067801" lon="0.777681022882462">
        <ele>2</ele>
        <time>2018-02-17T10:18:04Z</time>
      </trkpt>
      <trkpt lat="51.686033019796014" lon="0.77765797264874">
        <ele>2</ele>
        <time>2018-02-17T10:18:06Z</time>
      </trkpt>
      <trkpt lat="51.686052968725562" lon="0.777628971263766">
        <ele>2</ele>
        <time>2018-02-17T10:18:08Z</time>
      </trkpt>
      <trkpt lat="51.686074007302523" lon="0.777599969878793">
        <ele>2</ele>
        <time>2018-02-17T10:18:10Z</time>
      </trkpt>
      <trkpt lat="51.686098985373974" lon="0.777569962665439">
        <ele>2</ele>
        <time>2018-02-17T10:18:12Z</time>
      </trkpt>
      <trkpt lat="51.686122035607696" lon="0.777534004300833">
        <ele>3</ele>
        <time>2018-02-17T10:18:14Z</time>
      </trkpt>
      <trkpt lat="51.686147013679147" lon="0.777501985430717">
        <ele>3</ele>
        <time>2018-02-17T10:18:16Z</time>
      </trkpt>
      <trkpt lat="51.686164028942585" lon="0.777484970167279">
        <ele>3</ele>
        <time>2018-02-17T10:18:17Z</time>
      </trkpt>
      <trkpt lat="51.686179032549262" lon="0.777466027066112">
        <ele>3</ele>
        <time>2018-02-17T10:18:18Z</time>
      </trkpt>
      <trkpt lat="51.686203004792333" lon="0.777435014024377">
        <ele>3</ele>
        <time>2018-02-17T10:18:20Z</time>
      </trkpt>
      <trkpt lat="51.686225971207023" lon="0.777402995154262">
        <ele>3</ele>
        <time>2018-02-17T10:18:22Z</time>
      </trkpt>
      <trkpt lat="51.686250027269125" lon="0.777370976284146">
        <ele>3</ele>
        <time>2018-02-17T10:18:24Z</time>
      </trkpt>
      <trkpt lat="51.686275005340576" lon="0.777338035404682">
        <ele>3</ele>
        <time>2018-02-17T10:18:26Z</time>
      </trkpt>
      <trkpt lat="51.686297971755266" lon="0.777312973514199">
        <ele>3</ele>
        <time>2018-02-17T10:18:28Z</time>
      </trkpt>
      <trkpt lat="51.68632403947413" lon="0.777284977957606">
        <ele>3</ele>
        <time>2018-02-17T10:18:30Z</time>
      </trkpt>
      <trkpt lat="51.686349017545581" lon="0.777262011542916">
        <ele>3</ele>
        <time>2018-02-17T10:18:32Z</time>
      </trkpt>
      <trkpt lat="51.686378018930554" lon="0.777243990451097">
        <ele>3</ele>
        <time>2018-02-17T10:18:34Z</time>
      </trkpt>
      <trkpt lat="51.686400985345244" lon="0.777225969359279">
        <ele>2.70408296543977</ele>
        <time>2018-02-17T10:18:36Z</time>
      </trkpt>
      <trkpt lat="51.686429986730218" lon="0.777207026258111">
        <ele>2</ele>
        <time>2018-02-17T10:18:38Z</time>
      </trkpt>
      <trkpt lat="51.686458988115191" lon="0.777191016823053">
        <ele>2</ele>
        <time>2018-02-17T10:18:40Z</time>
      </trkpt>
      <trkpt lat="51.686486983671784" lon="0.777169978246093">
        <ele>2</ele>
        <time>2018-02-17T10:18:42Z</time>
      </trkpt>
      <trkpt lat="51.686513973399997" lon="0.777150029316545">
        <ele>2</ele>
        <time>2018-02-17T10:18:44Z</time>
      </trkpt>
      <trkpt lat="51.68654004111886" lon="0.777131002396345">
        <ele>2</ele>
        <time>2018-02-17T10:18:46Z</time>
      </trkpt>
      <trkpt lat="51.686569964513183" lon="0.777113987132907">
        <ele>2</ele>
        <time>2018-02-17T10:18:48Z</time>
      </trkpt>
      <trkpt lat="51.686597960069776" lon="0.777094038203359">
        <ele>2</ele>
        <time>2018-02-17T10:18:50Z</time>
      </trkpt>
      <trkpt lat="51.68662503361702" lon="0.777079034596682">
        <ele>2</ele>
        <time>2018-02-17T10:18:52Z</time>
      </trkpt>
      <trkpt lat="51.686657974496484" lon="0.777067970484495">
        <ele>2</ele>
        <time>2018-02-17T10:18:54Z</time>
      </trkpt>
      <trkpt lat="51.686678007245064" lon="0.777064030990005">
        <ele>2</ele>
        <time>2018-02-17T10:18:55Z</time>
      </trkpt>
      <trkpt lat="51.686707008630037" lon="0.777068976312876">
        <ele>2</ele>
        <time>2018-02-17T10:18:57Z</time>
      </trkpt>
      <trkpt lat="51.686728969216347" lon="0.777066964656115">
        <ele>2</ele>
        <time>2018-02-17T10:19:00Z</time>
      </trkpt>
      <trkpt lat="51.686750007793307" lon="0.777072999626398">
        <ele>2</ele>
        <time>2018-02-17T10:19:02Z</time>
      </trkpt>
      <trkpt lat="51.686779009178281" lon="0.777080040425062">
        <ele>2.2899968</ele>
        <time>2018-02-17T10:19:04Z</time>
      </trkpt>
      <trkpt lat="51.686815973371267" lon="0.77709898352623">
        <ele>3</ele>
        <time>2018-02-17T10:19:06Z</time>
      </trkpt>
      <trkpt lat="51.686839023604989" lon="0.777115998789668">
        <ele>3</ele>
        <time>2018-02-17T10:19:07Z</time>
      </trkpt>
      <trkpt lat="51.686861990019679" lon="0.777136031538248">
        <ele>3</ele>
        <time>2018-02-17T10:19:08Z</time>
      </trkpt>
      <trkpt lat="51.686882022768259" lon="0.777155980467796">
        <ele>3</ele>
        <time>2018-02-17T10:19:09Z</time>
      </trkpt>
      <trkpt lat="51.686900965869427" lon="0.777177019044757">
        <ele>3</ele>
        <time>2018-02-17T10:19:10Z</time>
      </trkpt>
      <trkpt lat="51.686930973082781" lon="0.777201997116208">
        <ele>3</ele>
        <time>2018-02-17T10:19:12Z</time>
      </trkpt>
      <trkpt lat="51.686960980296135" lon="0.77722798101604">
        <ele>2.70408296543977</ele>
        <time>2018-02-17T10:19:14Z</time>
      </trkpt>
      <trkpt lat="51.686979001387954" lon="0.777240972965956">
        <ele>2</ele>
        <time>2018-02-17T10:19:15Z</time>
      </trkpt>
      <trkpt lat="51.686997022479773" lon="0.777254970744252">
        <ele>2</ele>
        <time>2018-02-17T10:19:16Z</time>
      </trkpt>
      <trkpt lat="51.68701495975256" lon="0.777266034856439">
        <ele>2</ele>
        <time>2018-02-17T10:19:17Z</time>
      </trkpt>
      <trkpt lat="51.687049996107817" lon="0.777277015149593">
        <ele>2</ele>
        <time>2018-02-17T10:19:19Z</time>
      </trkpt>
      <trkpt lat="51.687080003321171" lon="0.777268968522549">
        <ele>2</ele>
        <time>2018-02-17T10:19:21Z</time>
      </trkpt>
      <trkpt lat="51.687106993049383" lon="0.777256982401013">
        <ele>3</ele>
        <time>2018-02-17T10:19:23Z</time>
      </trkpt>
      <trkpt lat="51.687131971120834" lon="0.777240972965956">
        <ele>3</ele>
        <time>2018-02-17T10:19:25Z</time>
      </trkpt>
      <trkpt lat="51.687149992212653" lon="0.777222029864788">
        <ele>2.70297569259625</ele>
        <time>2018-02-17T10:19:27Z</time>
      </trkpt>
      <trkpt lat="51.687168013304472" lon="0.777209959924221">
        <ele>2</ele>
        <time>2018-02-17T10:19:29Z</time>
      </trkpt>
      <trkpt lat="51.687192991375923" lon="0.777199985459447">
        <ele>2</ele>
        <time>2018-02-17T10:19:31Z</time>
      </trkpt>
      <trkpt lat="51.687216041609645" lon="0.777189005166292">
        <ele>3</ele>
        <time>2018-02-17T10:19:33Z</time>
      </trkpt>
      <trkpt lat="51.687241019681096" lon="0.777172995731235">
        <ele>3</ele>
        <time>2018-02-17T10:19:35Z</time>
      </trkpt>
      <trkpt lat="51.687268009409308" lon="0.777160003781319">
        <ele>3</ele>
        <time>2018-02-17T10:19:37Z</time>
      </trkpt>
      <trkpt lat="51.687296004965901" lon="0.777151035144925">
        <ele>3</ele>
        <time>2018-02-17T10:19:39Z</time>
      </trkpt>
      <trkpt lat="51.687321988865733" lon="0.777146006003022">
        <ele>3</ele>
        <time>2018-02-17T10:19:41Z</time>
      </trkpt>
      <trkpt lat="51.687347972765565" lon="0.777140976861119">
        <ele>3</ele>
        <time>2018-02-17T10:19:43Z</time>
      </trkpt>
      <trkpt lat="51.687374040484428" lon="0.777137959375978">
        <ele>3</ele>
        <time>2018-02-17T10:19:45Z</time>
      </trkpt>
      <trkpt lat="51.687398012727499" lon="0.777134019881487">
        <ele>3</ele>
        <time>2018-02-17T10:19:47Z</time>
      </trkpt>
      <trkpt lat="51.687417961657047" lon="0.777125973254442">
        <ele>3</ele>
        <time>2018-02-17T10:19:49Z</time>
      </trkpt>
      <trkpt lat="51.687437994405627" lon="0.777107030153275">
        <ele>3</ele>
        <time>2018-02-17T10:19:56Z</time>
      </trkpt>
      <trkpt lat="51.687456015497446" lon="0.777103006839752">
        <ele>2.7235802816022</ele>
        <time>2018-02-17T10:19:58Z</time>
      </trkpt>
      <trkpt lat="51.687479987740517" lon="0.777094960212708">
        <ele>2</ele>
        <time>2018-02-17T10:20:01Z</time>
      </trkpt>
      <trkpt lat="51.687509994953871" lon="0.777085991576314">
        <ele>2</ele>
        <time>2018-02-17T10:20:03Z</time>
      </trkpt>
      <trkpt lat="51.687536984682083" lon="0.777079034596682">
        <ele>3</ele>
        <time>2018-02-17T10:20:05Z</time>
      </trkpt>
      <trkpt lat="51.687564980238676" lon="0.777068976312876">
        <ele>3</ele>
        <time>2018-02-17T10:20:07Z</time>
      </trkpt>
      <trkpt lat="51.687602028250694" lon="0.777063025161624">
        <ele>3</ele>
        <time>2018-02-17T10:20:09Z</time>
      </trkpt>
      <trkpt lat="51.687623988837004" lon="0.77705598436296">
        <ele>3</ele>
        <time>2018-02-17T10:20:10Z</time>
      </trkpt>
      <trkpt lat="51.687647039070725" lon="0.777054978534579">
        <ele>3</ele>
        <time>2018-02-17T10:20:11Z</time>
      </trkpt>
      <trkpt lat="51.687668999657035" lon="0.777050033211708">
        <ele>3</ele>
        <time>2018-02-17T10:20:12Z</time>
      </trkpt>
      <trkpt lat="51.687691966071725" lon="0.777041986584663">
        <ele>3</ele>
        <time>2018-02-17T10:20:13Z</time>
      </trkpt>
      <trkpt lat="51.687715016305447" lon="0.777035029605031">
        <ele>3</ele>
        <time>2018-02-17T10:20:14Z</time>
      </trkpt>
      <trkpt lat="51.687738988548517" lon="0.777028994634748">
        <ele>3</ele>
        <time>2018-02-17T10:20:15Z</time>
      </trkpt>
      <trkpt lat="51.687763966619968" lon="0.777022037655115">
        <ele>3.20660947202505</ele>
        <time>2018-02-17T10:20:16Z</time>
      </trkpt>
      <trkpt lat="51.687788022682071" lon="0.77701399102807">
        <ele>4</ele>
        <time>2018-02-17T10:20:17Z</time>
      </trkpt>
      <trkpt lat="51.68780998326838" lon="0.777009967714548">
        <ele>4</ele>
        <time>2018-02-17T10:20:18Z</time>
      </trkpt>
      <trkpt lat="51.687832027673721" lon="0.777004016563296">
        <ele>4</ele>
        <time>2018-02-17T10:20:19Z</time>
      </trkpt>
      <trkpt lat="51.687854994088411" lon="0.776998987421393">
        <ele>3.96</ele>
        <time>2018-02-17T10:20:20Z</time>
      </trkpt>
      <trkpt lat="51.687879972159863" lon="0.77699395827949">
        <ele>3</ele>
        <time>2018-02-17T10:20:21Z</time>
      </trkpt>
      <trkpt lat="51.687903022393584" lon="0.776988007128239">
        <ele>2.79339052797495</ele>
        <time>2018-02-17T10:20:22Z</time>
      </trkpt>
      <trkpt lat="51.687923977151513" lon="0.776984989643097">
        <ele>2</ele>
        <time>2018-02-17T10:20:23Z</time>
      </trkpt>
      <trkpt lat="51.687947027385235" lon="0.776982977986336">
        <ele>2</ele>
        <time>2018-02-17T10:20:24Z</time>
      </trkpt>
      <trkpt lat="51.687969993799925" lon="0.776982977986336">
        <ele>2</ele>
        <time>2018-02-17T10:20:25Z</time>
      </trkpt>
      <trkpt lat="51.687991032376885" lon="0.776984989643097">
        <ele>2.2</ele>
        <time>2018-02-17T10:20:26Z</time>
      </trkpt>
      <trkpt lat="51.688012992963195" lon="0.776988007128239">
        <ele>3</ele>
        <time>2018-02-17T10:20:27Z</time>
      </trkpt>
      <trkpt lat="51.688036965206265" lon="0.77699395827949">
        <ele>3</ele>
        <time>2018-02-17T10:20:28Z</time>
      </trkpt>
      <trkpt lat="51.688059009611607" lon="0.776998987421393">
        <ele>3</ele>
        <time>2018-02-17T10:20:29Z</time>
      </trkpt>
      <trkpt lat="51.688082981854677" lon="0.777007034048438">
        <ele>3</ele>
        <time>2018-02-17T10:20:30Z</time>
      </trkpt>
      <trkpt lat="51.68810703791678" lon="0.77701399102807">
        <ele>3</ele>
        <time>2018-02-17T10:20:31Z</time>
      </trkpt>
      <trkpt lat="51.68813000433147" lon="0.777021031826735">
        <ele>3</ele>
        <time>2018-02-17T10:20:32Z</time>
      </trkpt>
      <trkpt lat="51.688151964917779" lon="0.777025977149606">
        <ele>3</ele>
        <time>2018-02-17T10:20:33Z</time>
      </trkpt>
      <trkpt lat="51.68817400932312" lon="0.777030000463128">
        <ele>3</ele>
        <time>2018-02-17T10:20:34Z</time>
      </trkpt>
      <trkpt lat="51.68819697573781" lon="0.777038969099522">
        <ele>3</ele>
        <time>2018-02-17T10:20:35Z</time>
      </trkpt>
      <trkpt lat="51.68821700848639" lon="0.777043998241425">
        <ele>3</ele>
        <time>2018-02-17T10:20:36Z</time>
      </trkpt>
      <trkpt lat="51.6882389690727" lon="0.777048021554947">
        <ele>3</ele>
        <time>2018-02-17T10:20:37Z</time>
      </trkpt>
      <trkpt lat="51.688261013478041" lon="0.77705598436296">
        <ele>3</ele>
        <time>2018-02-17T10:20:38Z</time>
      </trkpt>
      <trkpt lat="51.68828196823597" lon="0.777067970484495">
        <ele>2.68</ele>
        <time>2018-02-17T10:20:39Z</time>
      </trkpt>
      <trkpt lat="51.68830300681293" lon="0.777080962434411">
        <ele>2</ele>
        <time>2018-02-17T10:20:40Z</time>
      </trkpt>
      <trkpt lat="51.68832303956151" lon="0.777093032374978">
        <ele>2</ele>
        <time>2018-02-17T10:20:41Z</time>
      </trkpt>
      <trkpt lat="51.688343994319439" lon="0.777108035981655">
        <ele>2</ele>
        <time>2018-02-17T10:20:42Z</time>
      </trkpt>
      <trkpt lat="51.688364027068019" lon="0.777124967426062">
        <ele>2.29591703456023</ele>
        <time>2018-02-17T10:20:43Z</time>
      </trkpt>
      <trkpt lat="51.688384981825948" lon="0.777140976861119">
        <ele>3</ele>
        <time>2018-02-17T10:20:44Z</time>
      </trkpt>
      <trkpt lat="51.688407026231289" lon="0.777161009609699">
        <ele>3</ele>
        <time>2018-02-17T10:20:45Z</time>
      </trkpt>
      <trkpt lat="51.688427980989218" lon="0.777179030701518">
        <ele>3</ele>
        <time>2018-02-17T10:20:46Z</time>
      </trkpt>
      <trkpt lat="51.688449019566178" lon="0.777198979631066">
        <ele>3</ele>
        <time>2018-02-17T10:20:47Z</time>
      </trkpt>
      <trkpt lat="51.688468968495727" lon="0.777217000722885">
        <ele>3</ele>
        <time>2018-02-17T10:20:48Z</time>
      </trkpt>
      <trkpt lat="51.688490007072687" lon="0.777232004329562">
        <ele>3</ele>
        <time>2018-02-17T10:20:49Z</time>
      </trkpt>
      <trkpt lat="51.688510039821267" lon="0.777249019593">
        <ele>2.6899968</ele>
        <time>2018-02-17T10:20:50Z</time>
      </trkpt>
      <trkpt lat="51.688528982922435" lon="0.777265029028058">
        <ele>2</ele>
        <time>2018-02-17T10:20:51Z</time>
      </trkpt>
      <trkpt lat="51.688549015671015" lon="0.777282966300845">
        <ele>2.31313353330575</ele>
        <time>2018-02-17T10:20:52Z</time>
      </trkpt>
      <trkpt lat="51.688569970428944" lon="0.777298975735903">
        <ele>3</ele>
        <time>2018-02-17T10:20:53Z</time>
      </trkpt>
      <trkpt lat="51.688591009005904" lon="0.77731498517096">
        <ele>3</ele>
        <time>2018-02-17T10:20:54Z</time>
      </trkpt>
      <trkpt lat="51.688612969592214" lon="0.777333006262779">
        <ele>3</ele>
        <time>2018-02-17T10:20:55Z</time>
      </trkpt>
      <trkpt lat="51.688631996512413" lon="0.777352033182979">
        <ele>3</ele>
        <time>2018-02-17T10:20:56Z</time>
      </trkpt>
      <trkpt lat="51.688654040917754" lon="0.777371982112527">
        <ele>3</ele>
        <time>2018-02-17T10:20:57Z</time>
      </trkpt>
      <trkpt lat="51.688676001504064" lon="0.777391009032726">
        <ele>3</ele>
        <time>2018-02-17T10:20:58Z</time>
      </trkpt>
      <trkpt lat="51.688695028424263" lon="0.777410035952926">
        <ele>3</ele>
        <time>2018-02-17T10:20:59Z</time>
      </trkpt>
      <trkpt lat="51.688715983182192" lon="0.777428979054093">
        <ele>3</ele>
        <time>2018-02-17T10:21:00Z</time>
      </trkpt>
      <trkpt lat="51.688738027587533" lon="0.777444988489151">
        <ele>3</ele>
        <time>2018-02-17T10:21:01Z</time>
      </trkpt>
      <trkpt lat="51.688759988173842" lon="0.77746300958097">
        <ele>3</ele>
        <time>2018-02-17T10:21:02Z</time>
      </trkpt>
      <trkpt lat="51.688780020922422" lon="0.777480024844408">
        <ele>3</ele>
        <time>2018-02-17T10:21:03Z</time>
      </trkpt>
      <trkpt lat="51.688801981508732" lon="0.777498967945576">
        <ele>3</ele>
        <time>2018-02-17T10:21:04Z</time>
      </trkpt>
      <trkpt lat="51.688821008428931" lon="0.777514977380633">
        <ele>3</ele>
        <time>2018-02-17T10:21:05Z</time>
      </trkpt>
      <trkpt lat="51.688840035349131" lon="0.777534004300833">
        <ele>3</ele>
        <time>2018-02-17T10:21:06Z</time>
      </trkpt>
      <trkpt lat="51.688860990107059" lon="0.777554037049413">
        <ele>3</ele>
        <time>2018-02-17T10:21:07Z</time>
      </trkpt>
      <trkpt lat="51.688880017027259" lon="0.777569962665439">
        <ele>3</ele>
        <time>2018-02-17T10:21:08Z</time>
      </trkpt>
      <trkpt lat="51.688898038119078" lon="0.777585972100496">
        <ele>3</ele>
        <time>2018-02-17T10:21:09Z</time>
      </trkpt>
      <trkpt lat="51.688916981220245" lon="0.777601981535554">
        <ele>3</ele>
        <time>2018-02-17T10:21:10Z</time>
      </trkpt>
      <trkpt lat="51.688939025625587" lon="0.777620002627373">
        <ele>3</ele>
        <time>2018-02-17T10:21:11Z</time>
      </trkpt>
      <trkpt lat="51.688958974555135" lon="0.777640035375953">
        <ele>3</ele>
        <time>2018-02-17T10:21:12Z</time>
      </trkpt>
      <trkpt lat="51.688980013132095" lon="0.777656966820359">
        <ele>3</ele>
        <time>2018-02-17T10:21:13Z</time>
      </trkpt>
      <trkpt lat="51.688999962061644" lon="0.77767800539732">
        <ele>3</ele>
        <time>2018-02-17T10:21:14Z</time>
      </trkpt>
      <trkpt lat="51.689017983153462" lon="0.777695020660758">
        <ele>3</ele>
        <time>2018-02-17T10:21:15Z</time>
      </trkpt>
      <trkpt lat="51.689038015902042" lon="0.777713041752577">
        <ele>3</ele>
        <time>2018-02-17T10:21:16Z</time>
      </trkpt>
      <trkpt lat="51.689056036993861" lon="0.777729973196983">
        <ele>3</ele>
        <time>2018-02-17T10:21:17Z</time>
      </trkpt>
      <trkpt lat="51.689075985923409" lon="0.777745982632041">
        <ele>3</ele>
        <time>2018-02-17T10:21:18Z</time>
      </trkpt>
      <trkpt lat="51.689096018671989" lon="0.777761992067099">
        <ele>3</ele>
        <time>2018-02-17T10:21:19Z</time>
      </trkpt>
      <trkpt lat="51.689114039763808" lon="0.777774984017015">
        <ele>3</ele>
        <time>2018-02-17T10:21:20Z</time>
      </trkpt>
      <trkpt lat="51.689136000350118" lon="0.777788981795311">
        <ele>3</ele>
        <time>2018-02-17T10:21:21Z</time>
      </trkpt>
      <trkpt lat="51.689157960936427" lon="0.777801973745227">
        <ele>3</ele>
        <time>2018-02-17T10:21:22Z</time>
      </trkpt>
      <trkpt lat="51.689181011170149" lon="0.777812032029033">
        <ele>3</ele>
        <time>2018-02-17T10:21:23Z</time>
      </trkpt>
      <trkpt lat="51.689203977584839" lon="0.777821000665426">
        <ele>3</ele>
        <time>2018-02-17T10:21:24Z</time>
      </trkpt>
      <trkpt lat="51.68922602199018" lon="0.777825023978949">
        <ele>3</ele>
        <time>2018-02-17T10:21:25Z</time>
      </trkpt>
      <trkpt lat="51.689247982576489" lon="0.777826029807329">
        <ele>3</ele>
        <time>2018-02-17T10:21:26Z</time>
      </trkpt>
      <trkpt lat="51.689272038638592" lon="0.777825023978949">
        <ele>3</ele>
        <time>2018-02-17T10:21:27Z</time>
      </trkpt>
      <trkpt lat="51.689295005053282" lon="0.777826029807329">
        <ele>3</ele>
        <time>2018-02-17T10:21:28Z</time>
      </trkpt>
      <trkpt lat="51.689316965639591" lon="0.77782703563571">
        <ele>3</ele>
        <time>2018-02-17T10:21:29Z</time>
      </trkpt>
      <trkpt lat="51.689344039186835" lon="0.77782804146409">
        <ele>3</ele>
        <time>2018-02-17T10:21:30Z</time>
      </trkpt>
      <trkpt lat="51.689368011429906" lon="0.77782804146409">
        <ele>3</ele>
        <time>2018-02-17T10:21:31Z</time>
      </trkpt>
      <trkpt lat="51.689389972016215" lon="0.777826029807329">
        <ele>3</ele>
        <time>2018-02-17T10:21:32Z</time>
      </trkpt>
      <trkpt lat="51.689413022249937" lon="0.77782703563571">
        <ele>2.77227333789572</ele>
        <time>2018-02-17T10:21:33Z</time>
      </trkpt>
      <trkpt lat="51.689435988664627" lon="0.77782804146409">
        <ele>2</ele>
        <time>2018-02-17T10:21:34Z</time>
      </trkpt>
      <trkpt lat="51.689459960907698" lon="0.77782996930182">
        <ele>2.2300032</ele>
        <time>2018-02-17T10:21:35Z</time>
      </trkpt>
      <trkpt lat="51.689483011141419" lon="0.777831980958581">
        <ele>3</ele>
        <time>2018-02-17T10:21:36Z</time>
      </trkpt>
      <trkpt lat="51.689505977556109" lon="0.777828963473439">
        <ele>3</ele>
        <time>2018-02-17T10:21:37Z</time>
      </trkpt>
      <trkpt lat="51.689530033618212" lon="0.777826029807329">
        <ele>3</ele>
        <time>2018-02-17T10:21:38Z</time>
      </trkpt>
      <trkpt lat="51.689551994204521" lon="0.777821000665426">
        <ele>3</ele>
        <time>2018-02-17T10:21:39Z</time>
      </trkpt>
      <trkpt lat="51.689575966447592" lon="0.777817983180285">
        <ele>3</ele>
        <time>2018-02-17T10:21:40Z</time>
      </trkpt>
      <trkpt lat="51.689601028338075" lon="0.777816977351904">
        <ele>3</ele>
        <time>2018-02-17T10:21:41Z</time>
      </trkpt>
      <trkpt lat="51.689623994752765" lon="0.777813959866762">
        <ele>3</ele>
        <time>2018-02-17T10:21:42Z</time>
      </trkpt>
      <trkpt lat="51.689649978652596" lon="0.777811026200652">
        <ele>3</ele>
        <time>2018-02-17T10:21:43Z</time>
      </trkpt>
      <trkpt lat="51.689674034714699" lon="0.77780700288713">
        <ele>3</ele>
        <time>2018-02-17T10:21:44Z</time>
      </trkpt>
      <trkpt lat="51.689698006957769" lon="0.777803985401988">
        <ele>3</ele>
        <time>2018-02-17T10:21:45Z</time>
      </trkpt>
      <trkpt lat="51.689719967544079" lon="0.777800967916846">
        <ele>3</ele>
        <time>2018-02-17T10:21:46Z</time>
      </trkpt>
      <trkpt lat="51.689744023606181" lon="0.777800967916846">
        <ele>3</ele>
        <time>2018-02-17T10:21:47Z</time>
      </trkpt>
      <trkpt lat="51.689766990020871" lon="0.777800967916846">
        <ele>3</ele>
        <time>2018-02-17T10:21:48Z</time>
      </trkpt>
      <trkpt lat="51.689790962263942" lon="0.777801973745227">
        <ele>2.6700032</ele>
        <time>2018-02-17T10:21:49Z</time>
      </trkpt>
      <trkpt lat="51.689815018326044" lon="0.777799962088466">
        <ele>2</ele>
        <time>2018-02-17T10:21:50Z</time>
      </trkpt>
      <trkpt lat="51.689835973083973" lon="0.777796022593975">
        <ele>2</ele>
        <time>2018-02-17T10:21:51Z</time>
      </trkpt>
      <trkpt lat="51.689860029146075" lon="0.777793005108833">
        <ele>2</ele>
        <time>2018-02-17T10:21:52Z</time>
      </trkpt>
      <trkpt lat="51.689879978075624" lon="0.777789987623692">
        <ele>2</ele>
        <time>2018-02-17T10:21:53Z</time>
      </trkpt>
      <trkpt lat="51.689900010824203" lon="0.777784958481789">
        <ele>2</ele>
        <time>2018-02-17T10:21:54Z</time>
      </trkpt>
      <trkpt lat="51.689920965582132" lon="0.777780013158917">
        <ele>2</ele>
        <time>2018-02-17T10:21:55Z</time>
      </trkpt>
      <trkpt lat="51.689939992502332" lon="0.777770038694143">
        <ele>2</ele>
        <time>2018-02-17T10:21:56Z</time>
      </trkpt>
      <trkpt lat="51.689956001937389" lon="0.777750005945563">
        <ele>2</ele>
        <time>2018-02-17T10:21:57Z</time>
      </trkpt>
      <trkpt lat="51.689965976402164" lon="0.777724022045732">
        <ele>2</ele>
        <time>2018-02-17T10:21:58Z</time>
      </trkpt>
      <trkpt lat="51.689972011372447" lon="0.777688985690475">
        <ele>2</ele>
        <time>2018-02-17T10:21:59Z</time>
      </trkpt>
      <trkpt lat="51.689976034685969" lon="0.777652021497488">
        <ele>2</ele>
        <time>2018-02-17T10:22:00Z</time>
      </trkpt>
      <trkpt lat="51.68997997418046" lon="0.77761497348547">
        <ele>2</ele>
        <time>2018-02-17T10:22:01Z</time>
      </trkpt>
      <trkpt lat="51.689983997493982" lon="0.777577003464103">
        <ele>2</ele>
        <time>2018-02-17T10:22:02Z</time>
      </trkpt>
      <trkpt lat="51.689991038292646" lon="0.777546996250749">
        <ele>2</ele>
        <time>2018-02-17T10:22:03Z</time>
      </trkpt>
      <trkpt lat="51.690004030242562" lon="0.777523024007678">
        <ele>2</ele>
        <time>2018-02-17T10:22:04Z</time>
      </trkpt>
      <trkpt lat="51.690021967515349" lon="0.77750701457262">
        <ele>2</ele>
        <time>2018-02-17T10:22:05Z</time>
      </trkpt>
      <trkpt lat="51.690042000263929" lon="0.777497962117195">
        <ele>2</ele>
        <time>2018-02-17T10:22:06Z</time>
      </trkpt>
      <trkpt lat="51.690062033012509" lon="0.777495028451085">
        <ele>2</ele>
        <time>2018-02-17T10:22:07Z</time>
      </trkpt>
      <trkpt lat="51.690082987770438" lon="0.777493016794324">
        <ele>2</ele>
        <time>2018-02-17T10:22:08Z</time>
      </trkpt>
      <trkpt lat="51.690103020519018" lon="0.777488993480802">
        <ele>2</ele>
        <time>2018-02-17T10:22:09Z</time>
      </trkpt>
      <trkpt lat="51.690123975276947" lon="0.777484970167279">
        <ele>2</ele>
        <time>2018-02-17T10:22:10Z</time>
      </trkpt>
      <trkpt lat="51.690143002197146" lon="0.777481030672789">
        <ele>2.22104851857341</ele>
        <time>2018-02-17T10:22:11Z</time>
      </trkpt>
      <trkpt lat="51.690163034945726" lon="0.777477007359266">
        <ele>3</ele>
        <time>2018-02-17T10:22:12Z</time>
      </trkpt>
      <trkpt lat="51.690181978046894" lon="0.777473989874125">
        <ele>3</ele>
        <time>2018-02-17T10:22:13Z</time>
      </trkpt>
      <trkpt lat="51.690201004967093" lon="0.777467032894492">
        <ele>3</ele>
        <time>2018-02-17T10:22:14Z</time>
      </trkpt>
      <trkpt lat="51.690223971381783" lon="0.77746300958097">
        <ele>3</ele>
        <time>2018-02-17T10:22:15Z</time>
      </trkpt>
      <trkpt lat="51.690247021615505" lon="0.777457980439067">
        <ele>3</ele>
        <time>2018-02-17T10:22:16Z</time>
      </trkpt>
      <trkpt lat="51.690267976373434" lon="0.777452029287815">
        <ele>3</ele>
        <time>2018-02-17T10:22:17Z</time>
      </trkpt>
      <trkpt lat="51.690289014950395" lon="0.77744398266077">
        <ele>3</ele>
        <time>2018-02-17T10:22:18Z</time>
      </trkpt>
      <trkpt lat="51.690309969708323" lon="0.777439959347248">
        <ele>3</ele>
        <time>2018-02-17T10:22:19Z</time>
      </trkpt>
      <trkpt lat="51.690335031598806" lon="0.777435014024377">
        <ele>3</ele>
        <time>2018-02-17T10:22:20Z</time>
      </trkpt>
      <trkpt lat="51.690357998013496" lon="0.777429984882474">
        <ele>2.79844615109841</ele>
        <time>2018-02-17T10:22:21Z</time>
      </trkpt>
      <trkpt lat="51.690380964428186" lon="0.777424033731222">
        <ele>2.02325812148995</ele>
        <time>2018-02-17T10:22:22Z</time>
      </trkpt>
      <trkpt lat="51.690404014661908" lon="0.777415987104177">
        <ele>2</ele>
        <time>2018-02-17T10:22:23Z</time>
      </trkpt>
      <trkpt lat="51.690425975248218" lon="0.777409030124545">
        <ele>2.062496</ele>
        <time>2018-02-17T10:22:24Z</time>
      </trkpt>
      <trkpt lat="51.69045003131032" lon="0.777404000982642">
        <ele>3</ele>
        <time>2018-02-17T10:22:25Z</time>
      </trkpt>
      <trkpt lat="51.690475009381771" lon="0.77739997766912">
        <ele>3</ele>
        <time>2018-02-17T10:22:26Z</time>
      </trkpt>
      <trkpt lat="51.690500993281603" lon="0.777395032346249">
        <ele>3</ele>
        <time>2018-02-17T10:22:27Z</time>
      </trkpt>
      <trkpt lat="51.690524965524673" lon="0.777392014861107">
        <ele>2.7500032</ele>
        <time>2018-02-17T10:22:28Z</time>
      </trkpt>
      <trkpt lat="51.690548015758395" lon="0.777386985719204">
        <ele>2</ele>
        <time>2018-02-17T10:22:29Z</time>
      </trkpt>
      <trkpt lat="51.690570982173085" lon="0.777383968234062">
        <ele>2.062496</ele>
        <time>2018-02-17T10:22:30Z</time>
      </trkpt>
      <trkpt lat="51.690592020750046" lon="0.777379022911191">
        <ele>3</ele>
        <time>2018-02-17T10:22:31Z</time>
      </trkpt>
      <trkpt lat="51.690611969679594" lon="0.777371982112527">
        <ele>3</ele>
        <time>2018-02-17T10:22:32Z</time>
      </trkpt>
      <trkpt lat="51.690633008256555" lon="0.777364019304514">
        <ele>3</ele>
        <time>2018-02-17T10:22:33Z</time>
      </trkpt>
      <trkpt lat="51.690655974671245" lon="0.777358990162611">
        <ele>3</ele>
        <time>2018-02-17T10:22:34Z</time>
      </trkpt>
      <trkpt lat="51.690678019076586" lon="0.777355972677469">
        <ele>2.70103324052203</ele>
        <time>2018-02-17T10:22:35Z</time>
      </trkpt>
      <trkpt lat="51.690699979662895" lon="0.777353961020708">
        <ele>2</ele>
        <time>2018-02-17T10:22:36Z</time>
      </trkpt>
      <trkpt lat="51.690724035724998" lon="0.777353039011359">
        <ele>2</ele>
        <time>2018-02-17T10:22:37Z</time>
      </trkpt>
      <trkpt lat="51.690744990482926" lon="0.777349015697837">
        <ele>2</ele>
        <time>2018-02-17T10:22:38Z</time>
      </trkpt>
      <trkpt lat="51.690766029059887" lon="0.777340969070792">
        <ele>2</ele>
        <time>2018-02-17T10:22:39Z</time>
      </trkpt>
      <trkpt lat="51.690788995474577" lon="0.777337029576302">
        <ele>2</ele>
        <time>2018-02-17T10:22:40Z</time>
      </trkpt>
      <trkpt lat="51.690810034051538" lon="0.777336023747921">
        <ele>2</ele>
        <time>2018-02-17T10:22:41Z</time>
      </trkpt>
      <trkpt lat="51.690833000466228" lon="0.777332000434399">
        <ele>2</ele>
        <time>2018-02-17T10:22:42Z</time>
      </trkpt>
      <trkpt lat="51.690854961052537" lon="0.777326971292496">
        <ele>2</ele>
        <time>2018-02-17T10:22:43Z</time>
      </trkpt>
      <trkpt lat="51.690878011286259" lon="0.777322025969625">
        <ele>2</ele>
        <time>2018-02-17T10:22:44Z</time>
      </trkpt>
      <trkpt lat="51.690900977700949" lon="0.77731498517096">
        <ele>2</ele>
        <time>2018-02-17T10:22:45Z</time>
      </trkpt>
      <trkpt lat="51.69092302210629" lon="0.777310039848089">
        <ele>2</ele>
        <time>2018-02-17T10:22:46Z</time>
      </trkpt>
      <trkpt lat="51.69094699434936" lon="0.777306016534567">
        <ele>2</ele>
        <time>2018-02-17T10:22:47Z</time>
      </trkpt>
      <trkpt lat="51.690968032926321" lon="0.777301993221045">
        <ele>2</ele>
        <time>2018-02-17T10:22:48Z</time>
      </trkpt>
      <trkpt lat="51.690990999341011" lon="0.777297969907522">
        <ele>2</ele>
        <time>2018-02-17T10:22:49Z</time>
      </trkpt>
      <trkpt lat="51.691013965755701" lon="0.777294030413032">
        <ele>2</ele>
        <time>2018-02-17T10:22:50Z</time>
      </trkpt>
      <trkpt lat="51.691036010161042" lon="0.77729101292789">
        <ele>2</ele>
        <time>2018-02-17T10:22:51Z</time>
      </trkpt>
      <trkpt lat="51.691056964918971" lon="0.777285983785987">
        <ele>2</ele>
        <time>2018-02-17T10:22:52Z</time>
      </trkpt>
      <trkpt lat="51.691078003495932" lon="0.777281038463116">
        <ele>2</ele>
        <time>2018-02-17T10:22:53Z</time>
      </trkpt>
      <trkpt lat="51.691098036244512" lon="0.777275003492832">
        <ele>2</ele>
        <time>2018-02-17T10:22:54Z</time>
      </trkpt>
      <trkpt lat="51.691121002659202" lon="0.777272991836071">
        <ele>2</ele>
        <time>2018-02-17T10:22:55Z</time>
      </trkpt>
      <trkpt lat="51.691142041236162" lon="0.777266034856439">
        <ele>2</ele>
        <time>2018-02-17T10:22:56Z</time>
      </trkpt>
      <trkpt lat="51.691165007650852" lon="0.777257988229394">
        <ele>2</ele>
        <time>2018-02-17T10:22:57Z</time>
      </trkpt>
      <trkpt lat="51.691185040399432" lon="0.777251031249762">
        <ele>2</ele>
        <time>2018-02-17T10:22:58Z</time>
      </trkpt>
      <trkpt lat="51.691205995157361" lon="0.777246002107859">
        <ele>2</ele>
        <time>2018-02-17T10:22:59Z</time>
      </trkpt>
      <trkpt lat="51.691228039562702" lon="0.777240972965956">
        <ele>2</ele>
        <time>2018-02-17T10:23:00Z</time>
      </trkpt>
      <trkpt lat="51.69124798849225" lon="0.777235021814704">
        <ele>2</ele>
        <time>2018-02-17T10:23:01Z</time>
      </trkpt>
      <trkpt lat="51.691270032897592" lon="0.77722798101604">
        <ele>2</ele>
        <time>2018-02-17T10:23:02Z</time>
      </trkpt>
      <trkpt lat="51.691291993483901" lon="0.777220018208027">
        <ele>2</ele>
        <time>2018-02-17T10:23:03Z</time>
      </trkpt>
      <trkpt lat="51.691312026232481" lon="0.777214989066124">
        <ele>2</ele>
        <time>2018-02-17T10:23:04Z</time>
      </trkpt>
      <trkpt lat="51.69133298099041" lon="0.777212977409363">
        <ele>2</ele>
        <time>2018-02-17T10:23:05Z</time>
      </trkpt>
      <trkpt lat="51.691352007910609" lon="0.777208032086492">
        <ele>2</ele>
        <time>2018-02-17T10:23:06Z</time>
      </trkpt>
      <trkpt lat="51.691372040659189" lon="0.777201997116208">
        <ele>2</ele>
        <time>2018-02-17T10:23:07Z</time>
      </trkpt>
      <trkpt lat="51.691391989588737" lon="0.777196967974305">
        <ele>2</ele>
        <time>2018-02-17T10:23:08Z</time>
      </trkpt>
      <trkpt lat="51.691412022337317" lon="0.777191016823053">
        <ele>2</ele>
        <time>2018-02-17T10:23:09Z</time>
      </trkpt>
      <trkpt lat="51.691432977095246" lon="0.777186993509531">
        <ele>2</ele>
        <time>2018-02-17T10:23:10Z</time>
      </trkpt>
      <trkpt lat="51.691453009843826" lon="0.777182970196009">
        <ele>2</ele>
        <time>2018-02-17T10:23:11Z</time>
      </trkpt>
      <trkpt lat="51.691472958773375" lon="0.777180036529899">
        <ele>2</ele>
        <time>2018-02-17T10:23:12Z</time>
      </trkpt>
      <trkpt lat="51.691492991521955" lon="0.777177019044757">
        <ele>2</ele>
        <time>2018-02-17T10:23:13Z</time>
      </trkpt>
      <trkpt lat="51.691513024270535" lon="0.777174001559615">
        <ele>2</ele>
        <time>2018-02-17T10:23:14Z</time>
      </trkpt>
      <trkpt lat="51.691534984856844" lon="0.777170984074473">
        <ele>2</ele>
        <time>2018-02-17T10:23:15Z</time>
      </trkpt>
      <trkpt lat="51.691556023433805" lon="0.777165032923222">
        <ele>2</ele>
        <time>2018-02-17T10:23:16Z</time>
      </trkpt>
      <trkpt lat="51.691578989848495" lon="0.77716201543808">
        <ele>2</ele>
        <time>2018-02-17T10:23:17Z</time>
      </trkpt>
      <trkpt lat="51.691600028425455" lon="0.777158997952938">
        <ele>2</ele>
        <time>2018-02-17T10:23:18Z</time>
      </trkpt>
      <trkpt lat="51.691620983183384" lon="0.777157992124558">
        <ele>2</ele>
        <time>2018-02-17T10:23:19Z</time>
      </trkpt>
      <trkpt lat="51.691643027588725" lon="0.777165032923222">
        <ele>2</ele>
        <time>2018-02-17T10:23:20Z</time>
      </trkpt>
      <trkpt lat="51.691664988175035" lon="0.777172995731235">
        <ele>2</ele>
        <time>2018-02-17T10:23:21Z</time>
      </trkpt>
      <trkpt lat="51.691686026751995" lon="0.77718498185277">
        <ele>2</ele>
        <time>2018-02-17T10:23:22Z</time>
      </trkpt>
      <trkpt lat="51.691707987338305" lon="0.777199985459447">
        <ele>2</ele>
        <time>2018-02-17T10:23:23Z</time>
      </trkpt>
      <trkpt lat="51.691728020086884" lon="0.777212977409363">
        <ele>2</ele>
        <time>2018-02-17T10:23:24Z</time>
      </trkpt>
      <trkpt lat="51.691747969016433" lon="0.777226975187659">
        <ele>2</ele>
        <time>2018-02-17T10:23:25Z</time>
      </trkpt>
      <trkpt lat="51.691766995936632" lon="0.777240972965956">
        <ele>2</ele>
        <time>2018-02-17T10:23:26Z</time>
      </trkpt>
      <trkpt lat="51.691786022856832" lon="0.777252959087491">
        <ele>2</ele>
        <time>2018-02-17T10:23:27Z</time>
      </trkpt>
      <trkpt lat="51.691804965957999" lon="0.777267040684819">
        <ele>2</ele>
        <time>2018-02-17T10:23:28Z</time>
      </trkpt>
      <trkpt lat="51.69182600453496" lon="0.777281038463116">
        <ele>2</ele>
        <time>2018-02-17T10:23:29Z</time>
      </trkpt>
      <trkpt lat="51.69184603728354" lon="0.777295036241412">
        <ele>2.22772377609084</ele>
        <time>2018-02-17T10:23:30Z</time>
      </trkpt>
      <trkpt lat="51.691865986213088" lon="0.777309034019709">
        <ele>3</ele>
        <time>2018-02-17T10:23:31Z</time>
      </trkpt>
      <trkpt lat="51.691885013133287" lon="0.777322025969625">
        <ele>3</ele>
        <time>2018-02-17T10:23:32Z</time>
      </trkpt>
      <trkpt lat="51.691904040053487" lon="0.777338035404682">
        <ele>3</ele>
        <time>2018-02-17T10:23:33Z</time>
      </trkpt>
      <trkpt lat="51.691923988983035" lon="0.777353039011359">
        <ele>3</ele>
        <time>2018-02-17T10:23:34Z</time>
      </trkpt>
      <trkpt lat="51.691947039216757" lon="0.777367958799005">
        <ele>3</ele>
        <time>2018-02-17T10:23:35Z</time>
      </trkpt>
      <trkpt lat="51.691966988146305" lon="0.777384974062443">
        <ele>3</ele>
        <time>2018-02-17T10:23:36Z</time>
      </trkpt>
      <trkpt lat="51.691986015066504" lon="0.777398971840739">
        <ele>3</ele>
        <time>2018-02-17T10:23:37Z</time>
      </trkpt>
      <trkpt lat="51.692004958167672" lon="0.777412969619036">
        <ele>3</ele>
        <time>2018-02-17T10:23:38Z</time>
      </trkpt>
      <trkpt lat="51.692022979259491" lon="0.777426967397332">
        <ele>3</ele>
        <time>2018-02-17T10:23:39Z</time>
      </trkpt>
      <trkpt lat="51.69204200617969" lon="0.777440965175629">
        <ele>3</ele>
        <time>2018-02-17T10:23:40Z</time>
      </trkpt>
      <trkpt lat="51.69206103309989" lon="0.777454962953925">
        <ele>3</ele>
        <time>2018-02-17T10:23:41Z</time>
      </trkpt>
      <trkpt lat="51.692079976201057" lon="0.777468960732222">
        <ele>3</ele>
        <time>2018-02-17T10:23:42Z</time>
      </trkpt>
      <trkpt lat="51.692101014778018" lon="0.777481030672789">
        <ele>3</ele>
        <time>2018-02-17T10:23:43Z</time>
      </trkpt>
      <trkpt lat="51.692121969535947" lon="0.777494022622705">
        <ele>3</ele>
        <time>2018-02-17T10:23:44Z</time>
      </trkpt>
      <trkpt lat="51.692142002284527" lon="0.77750600874424">
        <ele>3</ele>
        <time>2018-02-17T10:23:45Z</time>
      </trkpt>
      <trkpt lat="51.692163962870836" lon="0.777517994865775">
        <ele>3</ele>
        <time>2018-02-17T10:23:46Z</time>
      </trkpt>
      <trkpt lat="51.692182989791036" lon="0.777530986815691">
        <ele>3</ele>
        <time>2018-02-17T10:23:47Z</time>
      </trkpt>
      <trkpt lat="51.692203022539616" lon="0.777544984593987">
        <ele>3</ele>
        <time>2018-02-17T10:23:48Z</time>
      </trkpt>
      <trkpt lat="51.692221965640783" lon="0.777560994029045">
        <ele>2.6899968</ele>
        <time>2018-02-17T10:23:49Z</time>
      </trkpt>
      <trkpt lat="51.692240992560983" lon="0.77757298015058">
        <ele>2</ele>
        <time>2018-02-17T10:23:50Z</time>
      </trkpt>
      <trkpt lat="51.692259013652802" lon="0.777587983757257">
        <ele>2.15841634349733</ele>
        <time>2018-02-17T10:23:51Z</time>
      </trkpt>
      <trkpt lat="51.69227703474462" lon="0.777601981535554">
        <ele>3</ele>
        <time>2018-02-17T10:23:52Z</time>
      </trkpt>
      <trkpt lat="51.692295977845788" lon="0.777617990970612">
        <ele>3</ele>
        <time>2018-02-17T10:23:53Z</time>
      </trkpt>
      <trkpt lat="51.692315004765987" lon="0.777632994577289">
        <ele>3</ele>
        <time>2018-02-17T10:23:54Z</time>
      </trkpt>
      <trkpt lat="51.692334031686187" lon="0.777645986527205">
        <ele>3</ele>
        <time>2018-02-17T10:23:55Z</time>
      </trkpt>
      <trkpt lat="51.692352974787354" lon="0.777660990133882">
        <ele>3</ele>
        <time>2018-02-17T10:23:56Z</time>
      </trkpt>
      <trkpt lat="51.692369990050793" lon="0.777672976255417">
        <ele>3</ele>
        <time>2018-02-17T10:23:57Z</time>
      </trkpt>
      <trkpt lat="51.692389016970992" lon="0.777687979862094">
        <ele>3</ele>
        <time>2018-02-17T10:23:58Z</time>
      </trkpt>
      <trkpt lat="51.69240603223443" lon="0.777710024267435">
        <ele>2.82051506465659</ele>
        <time>2018-02-17T10:23:59Z</time>
      </trkpt>
      <trkpt lat="51.692416006699204" lon="0.777739025652409">
        <ele>2</ele>
        <time>2018-02-17T10:24:00Z</time>
      </trkpt>
      <trkpt lat="51.692419024184346" lon="0.777771966531873">
        <ele>2</ele>
        <time>2018-02-17T10:24:01Z</time>
      </trkpt>
      <trkpt lat="51.692418018355966" lon="0.77780700288713">
        <ele>2</ele>
        <time>2018-02-17T10:24:02Z</time>
      </trkpt>
      <trkpt lat="51.692413995042443" lon="0.777842039242387">
        <ele>2.04651128177651</ele>
        <time>2018-02-17T10:24:03Z</time>
      </trkpt>
      <trkpt lat="51.692411983385682" lon="0.777875985950232">
        <ele>3</ele>
        <time>2018-02-17T10:24:04Z</time>
      </trkpt>
      <trkpt lat="51.692410977557302" lon="0.777910016477108">
        <ele>3</ele>
        <time>2018-02-17T10:24:05Z</time>
      </trkpt>
      <trkpt lat="51.69240896590054" lon="0.777943963184953">
        <ele>3</ele>
        <time>2018-02-17T10:24:06Z</time>
      </trkpt>
      <trkpt lat="51.69240603223443" lon="0.777977993711829">
        <ele>3</ele>
        <time>2018-02-17T10:24:07Z</time>
      </trkpt>
      <trkpt lat="51.692404020577669" lon="0.778011018410325">
        <ele>3</ele>
        <time>2018-02-17T10:24:08Z</time>
      </trkpt>
      <trkpt lat="51.692404020577669" lon="0.778047982603312">
        <ele>3</ele>
        <time>2018-02-17T10:24:09Z</time>
      </trkpt>
      <trkpt lat="51.692403014749289" lon="0.778084024786949">
        <ele>3</ele>
        <time>2018-02-17T10:24:10Z</time>
      </trkpt>
      <trkpt lat="51.692401003092527" lon="0.778119983151555">
        <ele>3</ele>
        <time>2018-02-17T10:24:11Z</time>
      </trkpt>
      <trkpt lat="51.692401003092527" lon="0.778156025335193">
        <ele>3</ele>
        <time>2018-02-17T10:24:12Z</time>
      </trkpt>
      <trkpt lat="51.692403014749289" lon="0.778192989528179">
        <ele>3</ele>
        <time>2018-02-17T10:24:13Z</time>
      </trkpt>
      <trkpt lat="51.692402008920908" lon="0.778230037540197">
        <ele>3</ele>
        <time>2018-02-17T10:24:14Z</time>
      </trkpt>
      <trkpt lat="51.692399997264147" lon="0.778262978419662">
        <ele>3</ele>
        <time>2018-02-17T10:24:15Z</time>
      </trkpt>
      <trkpt lat="51.692398991435766" lon="0.77830002643168">
        <ele>3</ele>
        <time>2018-02-17T10:24:16Z</time>
      </trkpt>
      <trkpt lat="51.692396979779005" lon="0.778337996453047">
        <ele>2</ele>
        <time>2018-02-17T10:24:17Z</time>
      </trkpt>
      <trkpt lat="51.692393962293863" lon="0.778374038636684">
        <ele>2</ele>
        <time>2018-02-17T10:24:18Z</time>
      </trkpt>
      <trkpt lat="51.692388011142612" lon="0.77840999700129">
        <ele>2.27522429423646</ele>
        <time>2018-02-17T10:24:19Z</time>
      </trkpt>
      <trkpt lat="51.692383987829089" lon="0.778444027528167">
        <ele>3</ele>
        <time>2018-02-17T10:24:20Z</time>
      </trkpt>
      <trkpt lat="51.692380970343947" lon="0.778480991721153">
        <ele>3</ele>
        <time>2018-02-17T10:24:21Z</time>
      </trkpt>
      <trkpt lat="51.692377030849457" lon="0.778517033904791">
        <ele>3</ele>
        <time>2018-02-17T10:24:22Z</time>
      </trkpt>
      <trkpt lat="51.692376025021076" lon="0.778553998097777">
        <ele>3</ele>
        <time>2018-02-17T10:24:23Z</time>
      </trkpt>
      <trkpt lat="51.692374013364315" lon="0.778590040281415">
        <ele>3</ele>
        <time>2018-02-17T10:24:24Z</time>
      </trkpt>
      <trkpt lat="51.692372001707554" lon="0.778622981160879">
        <ele>3</ele>
        <time>2018-02-17T10:24:25Z</time>
      </trkpt>
      <trkpt lat="51.692370995879173" lon="0.778659023344517">
        <ele>3</ele>
        <time>2018-02-17T10:24:26Z</time>
      </trkpt>
      <trkpt lat="51.692366972565651" lon="0.778692970052361">
        <ele>3</ele>
        <time>2018-02-17T10:24:27Z</time>
      </trkpt>
      <trkpt lat="51.692364038899541" lon="0.778723983094096">
        <ele>3</ele>
        <time>2018-02-17T10:24:28Z</time>
      </trkpt>
      <trkpt lat="51.692361021414399" lon="0.778756001964211">
        <ele>3</ele>
        <time>2018-02-17T10:24:29Z</time>
      </trkpt>
      <trkpt lat="51.692361021414399" lon="0.778790032491088">
        <ele>3</ele>
        <time>2018-02-17T10:24:30Z</time>
      </trkpt>
      <trkpt lat="51.692359009757638" lon="0.778822973370552">
        <ele>3</ele>
        <time>2018-02-17T10:24:31Z</time>
      </trkpt>
      <trkpt lat="51.692359009757638" lon="0.778853986412287">
        <ele>3</ele>
        <time>2018-02-17T10:24:32Z</time>
      </trkpt>
      <trkpt lat="51.692358003929257" lon="0.778888016939163">
        <ele>3</ele>
        <time>2018-02-17T10:24:33Z</time>
      </trkpt>
      <trkpt lat="51.692358003929257" lon="0.778921963647008">
        <ele>3</ele>
        <time>2018-02-17T10:24:34Z</time>
      </trkpt>
      <trkpt lat="51.692359009757638" lon="0.778955994173884">
        <ele>3</ele>
        <time>2018-02-17T10:24:35Z</time>
      </trkpt>
      <trkpt lat="51.692359009757638" lon="0.778990024700761">
        <ele>3</ele>
        <time>2018-02-17T10:24:36Z</time>
      </trkpt>
      <trkpt lat="51.692354986444116" lon="0.779023971408606">
        <ele>3</ele>
        <time>2018-02-17T10:24:37Z</time>
      </trkpt>
      <trkpt lat="51.692350963130593" lon="0.779055990278721">
        <ele>3</ele>
        <time>2018-02-17T10:24:38Z</time>
      </trkpt>
      <trkpt lat="51.692350041121244" lon="0.779091026633978">
        <ele>3</ele>
        <time>2018-02-17T10:24:39Z</time>
      </trkpt>
      <trkpt lat="51.692348029464483" lon="0.779122961685061">
        <ele>3</ele>
        <time>2018-02-17T10:24:40Z</time>
      </trkpt>
      <trkpt lat="51.692347023636103" lon="0.779155986383557">
        <ele>3</ele>
        <time>2018-02-17T10:24:41Z</time>
      </trkpt>
      <trkpt lat="51.692345011979342" lon="0.779189011082053">
        <ele>3</ele>
        <time>2018-02-17T10:24:42Z</time>
      </trkpt>
      <trkpt lat="51.692340988665819" lon="0.779222035780549">
        <ele>3</ele>
        <time>2018-02-17T10:24:43Z</time>
      </trkpt>
      <trkpt lat="51.692340988665819" lon="0.779257994145155">
        <ele>3</ele>
        <time>2018-02-17T10:24:44Z</time>
      </trkpt>
      <trkpt lat="51.692340988665819" lon="0.779292024672031">
        <ele>3</ele>
        <time>2018-02-17T10:24:45Z</time>
      </trkpt>
      <trkpt lat="51.692339982837439" lon="0.779324965551496">
        <ele>3</ele>
        <time>2018-02-17T10:24:46Z</time>
      </trkpt>
      <trkpt lat="51.692336965352297" lon="0.779357990249991">
        <ele>3</ele>
        <time>2018-02-17T10:24:47Z</time>
      </trkpt>
      <trkpt lat="51.692334031686187" lon="0.779389003291726">
        <ele>3</ele>
        <time>2018-02-17T10:24:48Z</time>
      </trkpt>
      <trkpt lat="51.692331014201045" lon="0.779425967484713">
        <ele>3</ele>
        <time>2018-02-17T10:24:49Z</time>
      </trkpt>
      <trkpt lat="51.692331014201045" lon="0.779457986354828">
        <ele>3</ele>
        <time>2018-02-17T10:24:50Z</time>
      </trkpt>
      <trkpt lat="51.692335037514567" lon="0.779486987739801">
        <ele>2.74257036764799</ele>
        <time>2018-02-17T10:24:51Z</time>
      </trkpt>
      <trkpt lat="51.692344006150961" lon="0.779512971639633">
        <ele>2</ele>
        <time>2018-02-17T10:24:52Z</time>
      </trkpt>
      <trkpt lat="51.692373007535934" lon="0.779540967196226">
        <ele>2.84459243243243</ele>
        <time>2018-02-17T10:24:54Z</time>
      </trkpt>
      <trkpt lat="51.692407038062811" lon="0.779557982459664">
        <ele>3</ele>
        <time>2018-02-17T10:24:56Z</time>
      </trkpt>
      <trkpt lat="51.692426986992359" lon="0.7795699685812">
        <ele>3</ele>
        <time>2018-02-17T10:24:57Z</time>
      </trkpt>
      <trkpt lat="51.692446013912559" lon="0.779581032693386">
        <ele>3</ele>
        <time>2018-02-17T10:24:58Z</time>
      </trkpt>
      <trkpt lat="51.692465040832758" lon="0.779592012986541">
        <ele>3</ele>
        <time>2018-02-17T10:24:59Z</time>
      </trkpt>
      <trkpt lat="51.692482978105545" lon="0.779608022421598">
        <ele>3</ele>
        <time>2018-02-17T10:25:00Z</time>
      </trkpt>
      <trkpt lat="51.692497981712222" lon="0.779625037685037">
        <ele>2.70000256003277</ele>
        <time>2018-02-17T10:25:01Z</time>
      </trkpt>
      <trkpt lat="51.692516002804041" lon="0.779644986614585">
        <ele>2</ele>
        <time>2018-02-17T10:25:02Z</time>
      </trkpt>
      <trkpt lat="51.692531006410718" lon="0.779663007706404">
        <ele>2</ele>
        <time>2018-02-17T10:25:03Z</time>
      </trkpt>
      <trkpt lat="51.692545004189014" lon="0.779681028798223">
        <ele>2</ele>
        <time>2018-02-17T10:25:04Z</time>
      </trkpt>
      <trkpt lat="51.692564031109214" lon="0.779707012698054">
        <ele>2</ele>
        <time>2018-02-17T10:25:06Z</time>
      </trkpt>
      <trkpt lat="51.692581968382001" lon="0.779729979112744">
        <ele>2.22772377609084</ele>
        <time>2018-02-17T10:25:08Z</time>
      </trkpt>
      <trkpt lat="51.692597977817059" lon="0.779743976891041">
        <ele>3</ele>
        <time>2018-02-17T10:25:10Z</time>
      </trkpt>
      <trkpt lat="51.692611975595355" lon="0.779765015468001">
        <ele>3</ele>
        <time>2018-02-17T10:25:12Z</time>
      </trkpt>
      <trkpt lat="51.69262396171689" lon="0.779789993539453">
        <ele>3</ele>
        <time>2018-02-17T10:25:14Z</time>
      </trkpt>
      <trkpt lat="51.692640976980329" lon="0.779813965782523">
        <ele>3</ele>
        <time>2018-02-17T10:25:16Z</time>
      </trkpt>
      <trkpt lat="51.692660003900528" lon="0.779830981045961">
        <ele>3</ele>
        <time>2018-02-17T10:25:18Z</time>
      </trkpt>
      <trkpt lat="51.692679030820727" lon="0.779845984652638">
        <ele>3</ele>
        <time>2018-02-17T10:25:20Z</time>
      </trkpt>
      <trkpt lat="51.692699985578656" lon="0.779861994087696">
        <ele>3</ele>
        <time>2018-02-17T10:25:22Z</time>
      </trkpt>
      <trkpt lat="51.692718006670475" lon="0.779872974380851">
        <ele>3</ele>
        <time>2018-02-17T10:25:24Z</time>
      </trkpt>
      <trkpt lat="51.692736027762294" lon="0.779878003522754">
        <ele>3</ele>
        <time>2018-02-17T10:25:26Z</time>
      </trkpt>
      <trkpt lat="51.692757988348603" lon="0.779882026836276">
        <ele>3</ele>
        <time>2018-02-17T10:25:28Z</time>
      </trkpt>
      <trkpt lat="51.692778021097183" lon="0.77989200130105">
        <ele>3</ele>
        <time>2018-02-17T10:25:30Z</time>
      </trkpt>
      <trkpt lat="51.692795036360621" lon="0.779896024614573">
        <ele>3</ele>
        <time>2018-02-17T10:25:32Z</time>
      </trkpt>
      <trkpt lat="51.692813979461789" lon="0.779896024614573">
        <ele>3</ele>
        <time>2018-02-17T10:25:34Z</time>
      </trkpt>
      <trkpt lat="51.692832000553608" lon="0.779887977987528">
        <ele>3</ele>
        <time>2018-02-17T10:25:36Z</time>
      </trkpt>
      <trkpt lat="51.692853961139917" lon="0.779880015179515">
        <ele>3</ele>
        <time>2018-02-17T10:25:38Z</time>
      </trkpt>
      <trkpt lat="51.692872988060117" lon="0.779872974380851">
        <ele>3</ele>
        <time>2018-02-17T10:25:40Z</time>
      </trkpt>
      <trkpt lat="51.692897966131568" lon="0.779856964945793">
        <ele>3</ele>
        <time>2018-02-17T10:25:43Z</time>
      </trkpt>
      <trkpt lat="51.692917998880148" lon="0.779843972995877">
        <ele>3</ele>
        <time>2018-02-17T10:25:45Z</time>
      </trkpt>
      <trkpt lat="51.692938031628728" lon="0.779830981045961">
        <ele>3</ele>
        <time>2018-02-17T10:25:47Z</time>
      </trkpt>
      <trkpt lat="51.692959992215037" lon="0.779816983267665">
        <ele>3</ele>
        <time>2018-02-17T10:25:49Z</time>
      </trkpt>
      <trkpt lat="51.692983964458108" lon="0.779803991317749">
        <ele>3</ele>
        <time>2018-02-17T10:25:51Z</time>
      </trkpt>
      <trkpt lat="51.693010032176971" lon="0.779788987711072">
        <ele>3</ele>
        <time>2018-02-17T10:25:53Z</time>
      </trkpt>
      <trkpt lat="51.693031992763281" lon="0.779774989932776">
        <ele>2.79439666000742</ele>
        <time>2018-02-17T10:25:55Z</time>
      </trkpt>
      <trkpt lat="51.693056970834732" lon="0.779759986326098">
        <ele>3</ele>
        <time>2018-02-17T10:25:57Z</time>
      </trkpt>
      <trkpt lat="51.693078009411693" lon="0.779744982719421">
        <ele>3</ele>
        <time>2018-02-17T10:25:59Z</time>
      </trkpt>
      <trkpt lat="51.693096030503511" lon="0.779732996597886">
        <ele>3</ele>
        <time>2018-02-17T10:26:01Z</time>
      </trkpt>
      <trkpt lat="51.693112961947918" lon="0.77972000464797">
        <ele>3</ele>
        <time>2018-02-17T10:26:03Z</time>
      </trkpt>
      <trkpt lat="51.693126037716866" lon="0.77969997189939">
        <ele>3</ele>
        <time>2018-02-17T10:26:05Z</time>
      </trkpt>
      <trkpt lat="51.693140035495162" lon="0.779668958857656">
        <ele>3.14285888433782</ele>
        <time>2018-02-17T10:26:07Z</time>
      </trkpt>
      <trkpt lat="51.693146992474794" lon="0.7796960324049">
        <ele>3</ele>
        <time>2018-02-17T10:26:21Z</time>
      </trkpt>
      <trkpt lat="51.693147998303175" lon="0.779732996597886">
        <ele>3</ele>
        <time>2018-02-17T10:26:27Z</time>
      </trkpt>
      <trkpt lat="51.69315998442471" lon="0.779765015468001">
        <ele>3</ele>
        <time>2018-02-17T10:26:30Z</time>
      </trkpt>
      <trkpt lat="51.693169958889484" lon="0.779790999367833">
        <ele>3</ele>
        <time>2018-02-17T10:26:32Z</time>
      </trkpt>
      <trkpt lat="51.693176999688148" lon="0.779821006581187">
        <ele>3</ele>
        <time>2018-02-17T10:26:34Z</time>
      </trkpt>
      <trkpt lat="51.693183034658432" lon="0.7798479963094">
        <ele>2.20561284302701</ele>
        <time>2018-02-17T10:26:36Z</time>
      </trkpt>
      <trkpt lat="51.693186974152923" lon="0.779878003522754">
        <ele>3</ele>
        <time>2018-02-17T10:26:38Z</time>
      </trkpt>
      <trkpt lat="51.693184962496161" lon="0.779907004907727">
        <ele>3</ele>
        <time>2018-02-17T10:26:40Z</time>
      </trkpt>
      <trkpt lat="51.693184962496161" lon="0.779939023777843">
        <ele>3</ele>
        <time>2018-02-17T10:26:42Z</time>
      </trkpt>
      <trkpt lat="51.693184040486813" lon="0.779975987970829">
        <ele>3</ele>
        <time>2018-02-17T10:26:44Z</time>
      </trkpt>
      <trkpt lat="51.693182028830051" lon="0.780012030154467">
        <ele>3</ele>
        <time>2018-02-17T10:26:46Z</time>
      </trkpt>
      <trkpt lat="51.693174988031387" lon="0.780046982690692">
        <ele>3</ele>
        <time>2018-02-17T10:26:48Z</time>
      </trkpt>
      <trkpt lat="51.693164007738233" lon="0.780082019045949">
        <ele>3</ele>
        <time>2018-02-17T10:26:50Z</time>
      </trkpt>
      <trkpt lat="51.693154033273458" lon="0.780114037916064">
        <ele>2.66990604960978</ele>
        <time>2018-02-17T10:26:52Z</time>
      </trkpt>
      <trkpt lat="51.693141963332891" lon="0.780146978795528">
        <ele>2</ele>
        <time>2018-02-17T10:26:54Z</time>
      </trkpt>
      <trkpt lat="51.693128971382976" lon="0.780177991837263">
        <ele>2</ele>
        <time>2018-02-17T10:26:56Z</time>
      </trkpt>
      <trkpt lat="51.69311597943306" lon="0.780209004878998">
        <ele>2.15841634349733</ele>
        <time>2018-02-17T10:26:58Z</time>
      </trkpt>
      <trkpt lat="51.693101981654763" lon="0.780242029577494">
        <ele>3</ele>
        <time>2018-02-17T10:27:00Z</time>
      </trkpt>
      <trkpt lat="51.693088989704847" lon="0.780276982113719">
        <ele>3</ele>
        <time>2018-02-17T10:27:02Z</time>
      </trkpt>
      <trkpt lat="51.69307398609817" lon="0.780309000983834">
        <ele>3</ele>
        <time>2018-02-17T10:27:04Z</time>
      </trkpt>
      <trkpt lat="51.693061999976635" lon="0.780336996540427">
        <ele>3</ele>
        <time>2018-02-17T10:27:06Z</time>
      </trkpt>
      <trkpt lat="51.693048002198339" lon="0.780373038724065">
        <ele>3</ele>
        <time>2018-02-17T10:27:08Z</time>
      </trkpt>
      <trkpt lat="51.693034004420042" lon="0.78040698543191">
        <ele>3</ele>
        <time>2018-02-17T10:27:10Z</time>
      </trkpt>
      <trkpt lat="51.693019000813365" lon="0.780437998473644">
        <ele>3</ele>
        <time>2018-02-17T10:27:12Z</time>
      </trkpt>
      <trkpt lat="51.69300701469183" lon="0.78047001734376">
        <ele>3</ele>
        <time>2018-02-17T10:27:14Z</time>
      </trkpt>
      <trkpt lat="51.692989999428391" lon="0.780496001243591">
        <ele>3</ele>
        <time>2018-02-17T10:27:16Z</time>
      </trkpt>
      <trkpt lat="51.692972984164953" lon="0.780520979315043">
        <ele>3</ele>
        <time>2018-02-17T10:27:18Z</time>
      </trkpt>
      <trkpt lat="51.692954963073134" lon="0.780547969043255">
        <ele>3</ele>
        <time>2018-02-17T10:27:20Z</time>
      </trkpt>
      <trkpt lat="51.692940965294838" lon="0.78057898208499">
        <ele>3</ele>
        <time>2018-02-17T10:27:22Z</time>
      </trkpt>
      <trkpt lat="51.692927973344922" lon="0.780608989298344">
        <ele>3</ele>
        <time>2018-02-17T10:27:24Z</time>
      </trkpt>
      <trkpt lat="51.692912969738245" lon="0.780637990683317">
        <ele>3</ele>
        <time>2018-02-17T10:27:26Z</time>
      </trkpt>
      <trkpt lat="51.692898971959949" lon="0.780671015381813">
        <ele>3</ele>
        <time>2018-02-17T10:27:28Z</time>
      </trkpt>
      <trkpt lat="51.692888997495174" lon="0.780699010938406">
        <ele>3</ele>
        <time>2018-02-17T10:27:30Z</time>
      </trkpt>
      <trkpt lat="51.692873993888497" lon="0.780731029808521">
        <ele>3</ele>
        <time>2018-02-17T10:27:32Z</time>
      </trkpt>
      <trkpt lat="51.692856978625059" lon="0.780761037021875">
        <ele>3</ele>
        <time>2018-02-17T10:27:34Z</time>
      </trkpt>
      <trkpt lat="51.692843986675143" lon="0.780789032578468">
        <ele>3</ele>
        <time>2018-02-17T10:27:36Z</time>
      </trkpt>
      <trkpt lat="51.692828983068466" lon="0.780818033963442">
        <ele>3</ele>
        <time>2018-02-17T10:27:38Z</time>
      </trkpt>
      <trkpt lat="51.69281498529017" lon="0.780848963186145">
        <ele>3</ele>
        <time>2018-02-17T10:27:40Z</time>
      </trkpt>
      <trkpt lat="51.692802999168634" lon="0.780881987884641">
        <ele>3</ele>
        <time>2018-02-17T10:27:42Z</time>
      </trkpt>
      <trkpt lat="51.692790007218719" lon="0.780916018411517">
        <ele>3</ele>
        <time>2018-02-17T10:27:44Z</time>
      </trkpt>
      <trkpt lat="51.692775003612041" lon="0.780947031453252">
        <ele>3</ele>
        <time>2018-02-17T10:27:46Z</time>
      </trkpt>
      <trkpt lat="51.692761005833745" lon="0.780977038666606">
        <ele>3</ele>
        <time>2018-02-17T10:27:48Z</time>
      </trkpt>
      <trkpt lat="51.692747008055449" lon="0.781007967889309">
        <ele>3</ele>
        <time>2018-02-17T10:27:50Z</time>
      </trkpt>
      <trkpt lat="51.692734016105533" lon="0.781040992587805">
        <ele>3</ele>
        <time>2018-02-17T10:27:52Z</time>
      </trkpt>
      <trkpt lat="51.692727981135249" lon="0.781068988144398">
        <ele>3</ele>
        <time>2018-02-17T10:27:54Z</time>
      </trkpt>
      <trkpt lat="51.692710965871811" lon="0.781101007014513">
        <ele>3</ele>
        <time>2018-02-17T10:27:56Z</time>
      </trkpt>
      <trkpt lat="51.692694034427404" lon="0.781133025884628">
        <ele>3</ele>
        <time>2018-02-17T10:27:58Z</time>
      </trkpt>
      <trkpt lat="51.692680036649108" lon="0.781162027269602">
        <ele>3</ele>
        <time>2018-02-17T10:28:00Z</time>
      </trkpt>
      <trkpt lat="51.692665033042431" lon="0.781193040311337">
        <ele>3</ele>
        <time>2018-02-17T10:28:02Z</time>
      </trkpt>
      <trkpt lat="51.692651035264134" lon="0.781228998675942">
        <ele>3</ele>
        <time>2018-02-17T10:28:04Z</time>
      </trkpt>
      <trkpt lat="51.692636031657457" lon="0.781263029202819">
        <ele>3</ele>
        <time>2018-02-17T10:28:06Z</time>
      </trkpt>
      <trkpt lat="51.692623039707541" lon="0.781295970082283">
        <ele>3</ele>
        <time>2018-02-17T10:28:08Z</time>
      </trkpt>
      <trkpt lat="51.692606024444103" lon="0.781332012265921">
        <ele>4</ele>
        <time>2018-02-17T10:28:10Z</time>
      </trkpt>
      <trkpt lat="51.692590015009046" lon="0.781365958973765">
        <ele>3</ele>
        <time>2018-02-17T10:28:12Z</time>
      </trkpt>
      <trkpt lat="51.692574005573988" lon="0.781399989500642">
        <ele>3</ele>
        <time>2018-02-17T10:28:14Z</time>
      </trkpt>
      <trkpt lat="51.69255699031055" lon="0.781433014199138">
        <ele>3</ele>
        <time>2018-02-17T10:28:16Z</time>
      </trkpt>
      <trkpt lat="51.692543998360634" lon="0.78146000392735">
        <ele>3</ele>
        <time>2018-02-17T10:28:18Z</time>
      </trkpt>
      <trkpt lat="51.692528994753957" lon="0.781496968120337">
        <ele>3</ele>
        <time>2018-02-17T10:28:20Z</time>
      </trkpt>
      <trkpt lat="51.692512985318899" lon="0.781534016132355">
        <ele>3</ele>
        <time>2018-02-17T10:28:22Z</time>
      </trkpt>
      <trkpt lat="51.692496975883842" lon="0.781567040830851">
        <ele>3</ele>
        <time>2018-02-17T10:28:24Z</time>
      </trkpt>
      <trkpt lat="51.692480966448784" lon="0.781596964225173">
        <ele>3</ele>
        <time>2018-02-17T10:28:26Z</time>
      </trkpt>
      <trkpt lat="51.692466968670487" lon="0.78163200058043">
        <ele>3</ele>
        <time>2018-02-17T10:28:28Z</time>
      </trkpt>
      <trkpt lat="51.692450037226081" lon="0.781666031107306">
        <ele>3</ele>
        <time>2018-02-17T10:28:30Z</time>
      </trkpt>
      <trkpt lat="51.692432016134262" lon="0.781702995300293">
        <ele>3</ele>
        <time>2018-02-17T10:28:32Z</time>
      </trkpt>
      <trkpt lat="51.692413995042443" lon="0.781739037483931">
        <ele>3</ele>
        <time>2018-02-17T10:28:34Z</time>
      </trkpt>
      <trkpt lat="51.692397985607386" lon="0.781772984191775">
        <ele>3</ele>
        <time>2018-02-17T10:28:36Z</time>
      </trkpt>
      <trkpt lat="51.692380970343947" lon="0.781800979748368">
        <ele>3</ele>
        <time>2018-02-17T10:28:38Z</time>
      </trkpt>
      <trkpt lat="51.69236596673727" lon="0.781828975304961">
        <ele>3</ele>
        <time>2018-02-17T10:28:40Z</time>
      </trkpt>
      <trkpt lat="51.692351968958974" lon="0.781859988346696">
        <ele>3</ele>
        <time>2018-02-17T10:28:42Z</time>
      </trkpt>
      <trkpt lat="51.692339982837439" lon="0.781896030530334">
        <ele>3</ele>
        <time>2018-02-17T10:28:44Z</time>
      </trkpt>
      <trkpt lat="51.692326990887523" lon="0.781931988894939">
        <ele>3</ele>
        <time>2018-02-17T10:28:46Z</time>
      </trkpt>
      <trkpt lat="51.692313998937607" lon="0.781968031078577">
        <ele>3</ele>
        <time>2018-02-17T10:28:48Z</time>
      </trkpt>
      <trkpt lat="51.692297989502549" lon="0.78199896030128">
        <ele>3</ele>
        <time>2018-02-17T10:28:50Z</time>
      </trkpt>
      <trkpt lat="51.692291032522917" lon="0.782029973343015">
        <ele>3</ele>
        <time>2018-02-17T10:28:52Z</time>
      </trkpt>
      <trkpt lat="51.692288015037775" lon="0.782067021355033">
        <ele>3</ele>
        <time>2018-02-17T10:28:54Z</time>
      </trkpt>
      <trkpt lat="51.692289020866156" lon="0.782113960012794">
        <ele>3</ele>
        <time>2018-02-17T10:28:56Z</time>
      </trkpt>
      <trkpt lat="51.692292960360646" lon="0.782154025509954">
        <ele>3</ele>
        <time>2018-02-17T10:28:58Z</time>
      </trkpt>
      <trkpt lat="51.692296983674169" lon="0.782197024673224">
        <ele>3</ele>
        <time>2018-02-17T10:29:00Z</time>
      </trkpt>
      <trkpt lat="51.69229899533093" lon="0.782237006351352">
        <ele>3</ele>
        <time>2018-02-17T10:29:02Z</time>
      </trkpt>
      <trkpt lat="51.692302012816072" lon="0.782283022999763">
        <ele>4</ele>
        <time>2018-02-17T10:29:04Z</time>
      </trkpt>
      <trkpt lat="51.692305030301213" lon="0.78231998719275">
        <ele>4</ele>
        <time>2018-02-17T10:29:06Z</time>
      </trkpt>
      <trkpt lat="51.692310981452465" lon="0.782369021326303">
        <ele>3</ele>
        <time>2018-02-17T10:29:08Z</time>
      </trkpt>
      <trkpt lat="51.692312993109226" lon="0.782409003004432">
        <ele>3</ele>
        <time>2018-02-17T10:29:10Z</time>
      </trkpt>
      <trkpt lat="51.692315004765987" lon="0.782453007996082">
        <ele>3</ele>
        <time>2018-02-17T10:29:12Z</time>
      </trkpt>
      <trkpt lat="51.692321039736271" lon="0.782497012987733">
        <ele>3</ele>
        <time>2018-02-17T10:29:14Z</time>
      </trkpt>
      <trkpt lat="51.692326990887523" lon="0.782544035464525">
        <ele>3</ele>
        <time>2018-02-17T10:29:16Z</time>
      </trkpt>
      <trkpt lat="51.692335959523916" lon="0.782594997435808">
        <ele>3</ele>
        <time>2018-02-17T10:29:18Z</time>
      </trkpt>
      <trkpt lat="51.692339982837439" lon="0.782632967457175">
        <ele>3</ele>
        <time>2018-02-17T10:29:20Z</time>
      </trkpt>
      <trkpt lat="51.6923419944942" lon="0.782669009640813">
        <ele>3</ele>
        <time>2018-02-17T10:29:22Z</time>
      </trkpt>
      <trkpt lat="51.692347023636103" lon="0.782709997147322">
        <ele>3.30928188751946</ele>
        <time>2018-02-17T10:29:24Z</time>
      </trkpt>
      <trkpt lat="51.692352974787354" lon="0.782742016017437">
        <ele>4</ele>
        <time>2018-02-17T10:29:26Z</time>
      </trkpt>
      <trkpt lat="51.692361021414399" lon="0.782785015180707">
        <ele>4</ele>
        <time>2018-02-17T10:29:28Z</time>
      </trkpt>
      <trkpt lat="51.692368984222412" lon="0.782828014343977">
        <ele>4</ele>
        <time>2018-02-17T10:29:30Z</time>
      </trkpt>
      <trkpt lat="51.692370995879173" lon="0.782877970486879">
        <ele>4</ele>
        <time>2018-02-17T10:29:32Z</time>
      </trkpt>
      <trkpt lat="51.692376025021076" lon="0.782917030155659">
        <ele>4.32673054013636</ele>
        <time>2018-02-17T10:29:34Z</time>
      </trkpt>
      <trkpt lat="51.692379964515567" lon="0.782956006005406">
        <ele>5</ele>
        <time>2018-02-17T10:29:36Z</time>
      </trkpt>
      <trkpt lat="51.692382982000709" lon="0.782995987683535">
        <ele>5</ele>
        <time>2018-02-17T10:29:38Z</time>
      </trkpt>
      <trkpt lat="51.69238599948585" lon="0.783035969361663">
        <ele>5</ele>
        <time>2018-02-17T10:29:40Z</time>
      </trkpt>
      <trkpt lat="51.692389016970992" lon="0.783080980181694">
        <ele>5</ele>
        <time>2018-02-17T10:29:42Z</time>
      </trkpt>
      <trkpt lat="51.692395973950624" lon="0.783121967688203">
        <ele>5</ele>
        <time>2018-02-17T10:29:44Z</time>
      </trkpt>
      <trkpt lat="51.69240502640605" lon="0.783169995993376">
        <ele>5</ele>
        <time>2018-02-17T10:29:46Z</time>
      </trkpt>
      <trkpt lat="51.692411983385682" lon="0.783208971843123">
        <ele>5</ele>
        <time>2018-02-17T10:29:48Z</time>
      </trkpt>
      <trkpt lat="51.692421035841107" lon="0.783254988491535">
        <ele>5</ele>
        <time>2018-02-17T10:29:50Z</time>
      </trkpt>
      <trkpt lat="51.692426986992359" lon="0.783293964341283">
        <ele>5</ele>
        <time>2018-02-17T10:29:52Z</time>
      </trkpt>
      <trkpt lat="51.692436039447784" lon="0.783334029838443">
        <ele>6</ele>
        <time>2018-02-17T10:29:54Z</time>
      </trkpt>
      <trkpt lat="51.692438973113894" lon="0.783380968496203">
        <ele>6</ele>
        <time>2018-02-17T10:29:56Z</time>
      </trkpt>
      <trkpt lat="51.692444002255797" lon="0.783425979316235">
        <ele>6</ele>
        <time>2018-02-17T10:29:58Z</time>
      </trkpt>
      <trkpt lat="51.69244802556932" lon="0.783468978479505">
        <ele>6</ele>
        <time>2018-02-17T10:30:00Z</time>
      </trkpt>
      <trkpt lat="51.692453976720572" lon="0.783511977642775">
        <ele>6</ele>
        <time>2018-02-17T10:30:02Z</time>
      </trkpt>
      <trkpt lat="51.692461017519236" lon="0.783552965149283">
        <ele>5.77999641604587</ele>
        <time>2018-02-17T10:30:04Z</time>
      </trkpt>
      <trkpt lat="51.692466968670487" lon="0.783594036474824">
        <ele>5.22222796855606</ele>
        <time>2018-02-17T10:30:06Z</time>
      </trkpt>
      <trkpt lat="51.692473003640771" lon="0.783637035638094">
        <ele>6.21782604838607</ele>
        <time>2018-02-17T10:30:08Z</time>
      </trkpt>
      <trkpt lat="51.692479960620403" lon="0.783687997609377">
        <ele>7</ele>
        <time>2018-02-17T10:30:10Z</time>
      </trkpt>
      <trkpt lat="51.692485995590687" lon="0.783729990944266">
        <ele>6.82758620689655</ele>
        <time>2018-02-17T10:30:12Z</time>
      </trkpt>
      <trkpt lat="51.6924939583987" lon="0.783773995935917">
        <ele>6.2</ele>
        <time>2018-02-17T10:30:14Z</time>
      </trkpt>
      <trkpt lat="51.692500999197364" lon="0.783818000927567">
        <ele>7</ele>
        <time>2018-02-17T10:30:16Z</time>
      </trkpt>
      <trkpt lat="51.692508039996028" lon="0.783862005919218">
        <ele>7</ele>
        <time>2018-02-17T10:30:18Z</time>
      </trkpt>
      <trkpt lat="51.692516002804041" lon="0.783905005082488">
        <ele>7</ele>
        <time>2018-02-17T10:30:20Z</time>
      </trkpt>
      <trkpt lat="51.692522037774324" lon="0.783949010074139">
        <ele>7</ele>
        <time>2018-02-17T10:30:22Z</time>
      </trkpt>
      <trkpt lat="51.692526983097196" lon="0.78399402089417">
        <ele>7</ele>
        <time>2018-02-17T10:30:24Z</time>
      </trkpt>
      <trkpt lat="51.692532012239099" lon="0.784034002572298">
        <ele>7</ele>
        <time>2018-02-17T10:30:26Z</time>
      </trkpt>
      <trkpt lat="51.692538969218731" lon="0.784074990078807">
        <ele>8</ele>
        <time>2018-02-17T10:30:28Z</time>
      </trkpt>
      <trkpt lat="51.692545004189014" lon="0.784122012555599">
        <ele>8</ele>
        <time>2018-02-17T10:30:30Z</time>
      </trkpt>
      <trkpt lat="51.692551039159298" lon="0.78416601754725">
        <ele>8</ele>
        <time>2018-02-17T10:30:32Z</time>
      </trkpt>
      <trkpt lat="51.692555984482169" lon="0.784211028367281">
        <ele>8</ele>
        <time>2018-02-17T10:30:34Z</time>
      </trkpt>
      <trkpt lat="51.692562019452453" lon="0.784248998388648">
        <ele>8</ele>
        <time>2018-02-17T10:30:36Z</time>
      </trkpt>
      <trkpt lat="51.692569982260466" lon="0.78429501503706">
        <ele>8</ele>
        <time>2018-02-17T10:30:38Z</time>
      </trkpt>
      <trkpt lat="51.69257802888751" lon="0.784333990886807">
        <ele>8</ele>
        <time>2018-02-17T10:30:40Z</time>
      </trkpt>
      <trkpt lat="51.692584985867143" lon="0.784384030848742">
        <ele>8</ele>
        <time>2018-02-17T10:30:42Z</time>
      </trkpt>
      <trkpt lat="51.692593032494187" lon="0.78442501835525">
        <ele>8</ele>
        <time>2018-02-17T10:30:44Z</time>
      </trkpt>
      <trkpt lat="51.69259998947382" lon="0.78446701169014">
        <ele>8</ele>
        <time>2018-02-17T10:30:46Z</time>
      </trkpt>
      <trkpt lat="51.692608958110213" lon="0.784513028338552">
        <ele>8</ele>
        <time>2018-02-17T10:30:48Z</time>
      </trkpt>
      <trkpt lat="51.692613987252116" lon="0.78455301001668">
        <ele>8</ele>
        <time>2018-02-17T10:30:50Z</time>
      </trkpt>
      <trkpt lat="51.692618010565639" lon="0.784590980038047">
        <ele>8</ele>
        <time>2018-02-17T10:30:52Z</time>
      </trkpt>
      <trkpt lat="51.692623039707541" lon="0.784629033878446">
        <ele>8</ele>
        <time>2018-02-17T10:30:54Z</time>
      </trkpt>
      <trkpt lat="51.692631002515554" lon="0.784672033041716">
        <ele>8</ele>
        <time>2018-02-17T10:30:56Z</time>
      </trkpt>
      <trkpt lat="51.692639971151948" lon="0.784716960042715">
        <ele>8</ele>
        <time>2018-02-17T10:30:58Z</time>
      </trkpt>
      <trkpt lat="51.692650029435754" lon="0.784759037196636">
        <ele>8</ele>
        <time>2018-02-17T10:31:00Z</time>
      </trkpt>
      <trkpt lat="51.692656986415386" lon="0.784802036359906">
        <ele>8</ele>
        <time>2018-02-17T10:31:02Z</time>
      </trkpt>
      <trkpt lat="51.69266302138567" lon="0.784842018038034">
        <ele>8</ele>
        <time>2018-02-17T10:31:04Z</time>
      </trkpt>
      <trkpt lat="51.692669978365302" lon="0.784885017201304">
        <ele>8</ele>
        <time>2018-02-17T10:31:06Z</time>
      </trkpt>
      <trkpt lat="51.692676013335586" lon="0.784921981394291">
        <ele>8</ele>
        <time>2018-02-17T10:31:08Z</time>
      </trkpt>
      <trkpt lat="51.692680036649108" lon="0.784969003871083">
        <ele>8</ele>
        <time>2018-02-17T10:31:10Z</time>
      </trkpt>
      <trkpt lat="51.692680036649108" lon="0.78500697389245">
        <ele>8</ele>
        <time>2018-02-17T10:31:12Z</time>
      </trkpt>
      <trkpt lat="51.69268598780036" lon="0.78504997305572">
        <ele>8</ele>
        <time>2018-02-17T10:31:14Z</time>
      </trkpt>
      <trkpt lat="51.692692022770643" lon="0.785090960562229">
        <ele>8</ele>
        <time>2018-02-17T10:31:16Z</time>
      </trkpt>
      <trkpt lat="51.692694034427404" lon="0.78513303771615">
        <ele>9</ele>
        <time>2018-02-17T10:31:18Z</time>
      </trkpt>
      <trkpt lat="51.692697973921895" lon="0.785170001909137">
        <ele>9</ele>
        <time>2018-02-17T10:31:20Z</time>
      </trkpt>
      <trkpt lat="51.692700991407037" lon="0.785211995244026">
        <ele>9</ele>
        <time>2018-02-17T10:31:22Z</time>
      </trkpt>
      <trkpt lat="51.692711971700191" lon="0.785266980528831">
        <ele>9</ele>
        <time>2018-02-17T10:31:24Z</time>
      </trkpt>
      <trkpt lat="51.692717000842094" lon="0.78530402854085">
        <ele>8.75510364013949</ele>
        <time>2018-02-17T10:31:25Z</time>
      </trkpt>
      <trkpt lat="51.692720018327236" lon="0.785337975248694">
        <ele>8</ele>
        <time>2018-02-17T10:31:26Z</time>
      </trkpt>
      <trkpt lat="51.692722029983997" lon="0.785372005775571">
        <ele>8</ele>
        <time>2018-02-17T10:31:27Z</time>
      </trkpt>
      <trkpt lat="51.692722029983997" lon="0.785406036302447">
        <ele>8</ele>
        <time>2018-02-17T10:31:28Z</time>
      </trkpt>
      <trkpt lat="51.692721024155617" lon="0.785441994667053">
        <ele>8</ele>
        <time>2018-02-17T10:31:29Z</time>
      </trkpt>
      <trkpt lat="51.692722029983997" lon="0.78547703102231">
        <ele>8</ele>
        <time>2018-02-17T10:31:30Z</time>
      </trkpt>
      <trkpt lat="51.692724041640759" lon="0.785511983558536">
        <ele>8.063286832255869</ele>
        <time>2018-02-17T10:31:31Z</time>
      </trkpt>
      <trkpt lat="51.692725969478488" lon="0.785550037398934">
        <ele>9</ele>
        <time>2018-02-17T10:31:32Z</time>
      </trkpt>
      <trkpt lat="51.692727981135249" lon="0.785588007420301">
        <ele>9</ele>
        <time>2018-02-17T10:31:33Z</time>
      </trkpt>
      <trkpt lat="51.692733010277152" lon="0.785624971613288">
        <ele>9</ele>
        <time>2018-02-17T10:31:34Z</time>
      </trkpt>
      <trkpt lat="51.692734016105533" lon="0.785661013796926">
        <ele>9</ele>
        <time>2018-02-17T10:31:35Z</time>
      </trkpt>
      <trkpt lat="51.692735021933913" lon="0.785698983818293">
        <ele>8</ele>
        <time>2018-02-17T10:31:36Z</time>
      </trkpt>
      <trkpt lat="51.692737033590674" lon="0.785738965496421">
        <ele>8</ele>
        <time>2018-02-17T10:31:37Z</time>
      </trkpt>
      <trkpt lat="51.692738039419055" lon="0.785776013508439">
        <ele>8</ele>
        <time>2018-02-17T10:31:38Z</time>
      </trkpt>
      <trkpt lat="51.692739967256784" lon="0.785815995186567">
        <ele>8</ele>
        <time>2018-02-17T10:31:39Z</time>
      </trkpt>
      <trkpt lat="51.692741978913546" lon="0.785854971036315">
        <ele>8</ele>
        <time>2018-02-17T10:31:40Z</time>
      </trkpt>
      <trkpt lat="51.692740973085165" lon="0.785895958542824">
        <ele>8</ele>
        <time>2018-02-17T10:31:41Z</time>
      </trkpt>
      <trkpt lat="51.692738961428404" lon="0.785936024039984">
        <ele>8</ele>
        <time>2018-02-17T10:31:42Z</time>
      </trkpt>
      <trkpt lat="51.692736027762294" lon="0.785973994061351">
        <ele>8</ele>
        <time>2018-02-17T10:31:43Z</time>
      </trkpt>
      <trkpt lat="51.692735021933913" lon="0.786013975739479">
        <ele>8</ele>
        <time>2018-02-17T10:31:44Z</time>
      </trkpt>
      <trkpt lat="51.692735021933913" lon="0.786051023751497">
        <ele>8</ele>
        <time>2018-02-17T10:31:45Z</time>
      </trkpt>
      <trkpt lat="51.692738039419055" lon="0.786092011258006">
        <ele>8</ele>
        <time>2018-02-17T10:31:46Z</time>
      </trkpt>
      <trkpt lat="51.692741978913546" lon="0.786131992936134">
        <ele>8</ele>
        <time>2018-02-17T10:31:47Z</time>
      </trkpt>
      <trkpt lat="51.692741978913546" lon="0.786172980442643">
        <ele>8</ele>
        <time>2018-02-17T10:31:48Z</time>
      </trkpt>
      <trkpt lat="51.692744996398687" lon="0.786212962120771">
        <ele>8</ele>
        <time>2018-02-17T10:31:49Z</time>
      </trkpt>
      <trkpt lat="51.692747008055449" lon="0.786254033446312">
        <ele>8</ele>
        <time>2018-02-17T10:31:50Z</time>
      </trkpt>
      <trkpt lat="51.692748013883829" lon="0.786295020952821">
        <ele>8</ele>
        <time>2018-02-17T10:31:51Z</time>
      </trkpt>
      <trkpt lat="51.692748013883829" lon="0.786333996802568">
        <ele>7.91665777777778</ele>
        <time>2018-02-17T10:31:52Z</time>
      </trkpt>
      <trkpt lat="51.692747008055449" lon="0.786373978480697">
        <ele>7</ele>
        <time>2018-02-17T10:31:53Z</time>
      </trkpt>
      <trkpt lat="51.69274901971221" lon="0.786413038149476">
        <ele>7</ele>
        <time>2018-02-17T10:31:54Z</time>
      </trkpt>
      <trkpt lat="51.692751031368971" lon="0.786456037312746">
        <ele>6.79439666000742</ele>
        <time>2018-02-17T10:31:55Z</time>
      </trkpt>
      <trkpt lat="51.6927529592067" lon="0.786499036476016">
        <ele>6</ele>
        <time>2018-02-17T10:31:56Z</time>
      </trkpt>
      <trkpt lat="51.692751031368971" lon="0.786541029810905">
        <ele>6.30302677682531</ele>
        <time>2018-02-17T10:31:57Z</time>
      </trkpt>
      <trkpt lat="51.69275002554059" lon="0.786580005660653">
        <ele>7</ele>
        <time>2018-02-17T10:31:58Z</time>
      </trkpt>
      <trkpt lat="51.69275002554059" lon="0.78661696985364">
        <ele>7</ele>
        <time>2018-02-17T10:31:59Z</time>
      </trkpt>
      <trkpt lat="51.692752037197351" lon="0.78665804117918">
        <ele>7</ele>
        <time>2018-02-17T10:32:00Z</time>
      </trkpt>
      <trkpt lat="51.6927529592067" lon="0.786697017028928">
        <ele>6.38776416499047</ele>
        <time>2018-02-17T10:32:01Z</time>
      </trkpt>
      <trkpt lat="51.692752037197351" lon="0.786734987050295">
        <ele>5</ele>
        <time>2018-02-17T10:32:02Z</time>
      </trkpt>
      <trkpt lat="51.6927529592067" lon="0.786772035062313">
        <ele>5</ele>
        <time>2018-02-17T10:32:03Z</time>
      </trkpt>
      <trkpt lat="51.692753965035081" lon="0.786806987598538">
        <ele>5</ele>
        <time>2018-02-17T10:32:04Z</time>
      </trkpt>
      <trkpt lat="51.692755976691842" lon="0.786840012297034">
        <ele>5</ele>
        <time>2018-02-17T10:32:05Z</time>
      </trkpt>
      <trkpt lat="51.692757988348603" lon="0.78687203116715">
        <ele>5.31683268699465</ele>
        <time>2018-02-17T10:32:06Z</time>
      </trkpt>
      <trkpt lat="51.692761005833745" lon="0.786906983703375">
        <ele>6</ele>
        <time>2018-02-17T10:32:07Z</time>
      </trkpt>
      <trkpt lat="51.692764023318887" lon="0.786942020058632">
        <ele>6</ele>
        <time>2018-02-17T10:32:08Z</time>
      </trkpt>
      <trkpt lat="51.692767040804029" lon="0.786975966766477">
        <ele>6</ele>
        <time>2018-02-17T10:32:09Z</time>
      </trkpt>
      <trkpt lat="51.692768968641758" lon="0.787013014778495">
        <ele>6</ele>
        <time>2018-02-17T10:32:10Z</time>
      </trkpt>
      <trkpt lat="51.6927719861269" lon="0.78704796731472">
        <ele>6</ele>
        <time>2018-02-17T10:32:11Z</time>
      </trkpt>
      <trkpt lat="51.6927719861269" lon="0.7870870269835">
        <ele>6</ele>
        <time>2018-02-17T10:32:12Z</time>
      </trkpt>
      <trkpt lat="51.692776009440422" lon="0.787123991176486">
        <ele>6</ele>
        <time>2018-02-17T10:32:13Z</time>
      </trkpt>
      <trkpt lat="51.692778021097183" lon="0.787161039188504">
        <ele>5.7524776316123</ele>
        <time>2018-02-17T10:32:14Z</time>
      </trkpt>
      <trkpt lat="51.692778021097183" lon="0.787194985896349">
        <ele>5</ele>
        <time>2018-02-17T10:32:15Z</time>
      </trkpt>
      <trkpt lat="51.692778021097183" lon="0.787223987281322">
        <ele>5</ele>
        <time>2018-02-17T10:32:16Z</time>
      </trkpt>
      <trkpt lat="51.692775003612041" lon="0.78728199005127">
        <ele>5</ele>
        <time>2018-02-17T10:32:18Z</time>
      </trkpt>
      <trkpt lat="51.692767040804029" lon="0.787338986992836">
        <ele>4.7524776316123</ele>
        <time>2018-02-17T10:32:20Z</time>
      </trkpt>
      <trkpt lat="51.692761005833745" lon="0.78736899420619">
        <ele>4</ele>
        <time>2018-02-17T10:32:21Z</time>
      </trkpt>
      <trkpt lat="51.692755976691842" lon="0.787401013076305">
        <ele>4</ele>
        <time>2018-02-17T10:32:22Z</time>
      </trkpt>
      <trkpt lat="51.692753965035081" lon="0.787433031946421">
        <ele>4</ele>
        <time>2018-02-17T10:32:23Z</time>
      </trkpt>
      <trkpt lat="51.692752037197351" lon="0.787462033331394">
        <ele>4</ele>
        <time>2018-02-17T10:32:24Z</time>
      </trkpt>
      <trkpt lat="51.692751031368971" lon="0.787492962554097">
        <ele>4</ele>
        <time>2018-02-17T10:32:25Z</time>
      </trkpt>
      <trkpt lat="51.69275002554059" lon="0.787526993080974">
        <ele>4</ele>
        <time>2018-02-17T10:32:26Z</time>
      </trkpt>
      <trkpt lat="51.69275002554059" lon="0.787557000294328">
        <ele>4</ele>
        <time>2018-02-17T10:32:27Z</time>
      </trkpt>
      <trkpt lat="51.69275002554059" lon="0.787588013336062">
        <ele>4.062496</ele>
        <time>2018-02-17T10:32:28Z</time>
      </trkpt>
      <trkpt lat="51.69275002554059" lon="0.787620032206178">
        <ele>5</ele>
        <time>2018-02-17T10:32:29Z</time>
      </trkpt>
      <trkpt lat="51.6927529592067" lon="0.787649033591151">
        <ele>5</ele>
        <time>2018-02-17T10:32:30Z</time>
      </trkpt>
      <trkpt lat="51.692755976691842" lon="0.787679040804505">
        <ele>5</ele>
        <time>2018-02-17T10:32:31Z</time>
      </trkpt>
      <trkpt lat="51.692755976691842" lon="0.787709970027208">
        <ele>5</ele>
        <time>2018-02-17T10:32:32Z</time>
      </trkpt>
      <trkpt lat="51.692753965035081" lon="0.787740983068943">
        <ele>4.6700032</ele>
        <time>2018-02-17T10:32:33Z</time>
      </trkpt>
      <trkpt lat="51.692752037197351" lon="0.787774007767439">
        <ele>4</ele>
        <time>2018-02-17T10:32:34Z</time>
      </trkpt>
      <trkpt lat="51.692755976691842" lon="0.787807032465935">
        <ele>4</ele>
        <time>2018-02-17T10:32:35Z</time>
      </trkpt>
      <trkpt lat="51.692763017490506" lon="0.787840979173779">
        <ele>4</ele>
        <time>2018-02-17T10:32:36Z</time>
      </trkpt>
      <trkpt lat="51.692770980298519" lon="0.787871992215514">
        <ele>4.3299968</ele>
        <time>2018-02-17T10:32:37Z</time>
      </trkpt>
      <trkpt lat="51.692778021097183" lon="0.787903005257249">
        <ele>5</ele>
        <time>2018-02-17T10:32:38Z</time>
      </trkpt>
      <trkpt lat="51.692782966420054" lon="0.787938041612506">
        <ele>5</ele>
        <time>2018-02-17T10:32:39Z</time>
      </trkpt>
      <trkpt lat="51.692786989733577" lon="0.787967965006828">
        <ele>5</ele>
        <time>2018-02-17T10:32:40Z</time>
      </trkpt>
      <trkpt lat="51.692791013047099" lon="0.787999983876944">
        <ele>5</ele>
        <time>2018-02-17T10:32:41Z</time>
      </trkpt>
      <trkpt lat="51.692798975855112" lon="0.788036026060581">
        <ele>5</ele>
        <time>2018-02-17T10:32:42Z</time>
      </trkpt>
      <trkpt lat="51.692801993340254" lon="0.788069972768426">
        <ele>4.66336319971612</ele>
        <time>2018-02-17T10:32:43Z</time>
      </trkpt>
      <trkpt lat="51.692805010825396" lon="0.788104003295302">
        <ele>4</ele>
        <time>2018-02-17T10:32:44Z</time>
      </trkpt>
      <trkpt lat="51.692805010825396" lon="0.788137027993798">
        <ele>4</ele>
        <time>2018-02-17T10:32:45Z</time>
      </trkpt>
      <trkpt lat="51.692808028310537" lon="0.788172986358404">
        <ele>4</ele>
        <time>2018-02-17T10:32:46Z</time>
      </trkpt>
      <trkpt lat="51.692808028310537" lon="0.788211040198803">
        <ele>4</ele>
        <time>2018-02-17T10:32:47Z</time>
      </trkpt>
      <trkpt lat="51.692806016653776" lon="0.788244986906648">
        <ele>4</ele>
        <time>2018-02-17T10:32:48Z</time>
      </trkpt>
      <trkpt lat="51.692808028310537" lon="0.788280023261905">
        <ele>4</ele>
        <time>2018-02-17T10:32:49Z</time>
      </trkpt>
      <trkpt lat="51.692806016653776" lon="0.788315981626511">
        <ele>4</ele>
        <time>2018-02-17T10:32:50Z</time>
      </trkpt>
      <trkpt lat="51.692806016653776" lon="0.788352023810148">
        <ele>4</ele>
        <time>2018-02-17T10:32:51Z</time>
      </trkpt>
      <trkpt lat="51.692806016653776" lon="0.788385970517993">
        <ele>4</ele>
        <time>2018-02-17T10:32:52Z</time>
      </trkpt>
      <trkpt lat="51.692810039967299" lon="0.788418995216489">
        <ele>4</ele>
        <time>2018-02-17T10:32:53Z</time>
      </trkpt>
      <trkpt lat="51.692811967805028" lon="0.788452019914985">
        <ele>4.31428362448343</ele>
        <time>2018-02-17T10:32:54Z</time>
      </trkpt>
      <trkpt lat="51.692818002775311" lon="0.788503987714648">
        <ele>5</ele>
        <time>2018-02-17T10:32:56Z</time>
      </trkpt>
      <trkpt lat="51.692825965583324" lon="0.788555033504963">
        <ele>5</ele>
        <time>2018-02-17T10:32:58Z</time>
      </trkpt>
      <trkpt lat="51.692823031917214" lon="0.788588980212808">
        <ele>5</ele>
        <time>2018-02-17T10:32:59Z</time>
      </trkpt>
      <trkpt lat="51.692819008603692" lon="0.788626028224826">
        <ele>5</ele>
        <time>2018-02-17T10:33:00Z</time>
      </trkpt>
      <trkpt lat="51.692813979461789" lon="0.788663998246193">
        <ele>5</ele>
        <time>2018-02-17T10:33:01Z</time>
      </trkpt>
      <trkpt lat="51.692810961976647" lon="0.788702974095941">
        <ele>5</ele>
        <time>2018-02-17T10:33:02Z</time>
      </trkpt>
      <trkpt lat="51.692807022482157" lon="0.788741027936339">
        <ele>5</ele>
        <time>2018-02-17T10:33:03Z</time>
      </trkpt>
      <trkpt lat="51.692801993340254" lon="0.788777992129326">
        <ele>5</ele>
        <time>2018-02-17T10:33:04Z</time>
      </trkpt>
      <trkpt lat="51.692796964198351" lon="0.788813028484583">
        <ele>5</ele>
        <time>2018-02-17T10:33:05Z</time>
      </trkpt>
      <trkpt lat="51.69279302470386" lon="0.788847981020808">
        <ele>5</ele>
        <time>2018-02-17T10:33:06Z</time>
      </trkpt>
      <trkpt lat="51.692784978076816" lon="0.788884023204446">
        <ele>5</ele>
        <time>2018-02-17T10:33:07Z</time>
      </trkpt>
      <trkpt lat="51.692778021097183" lon="0.788919981569052">
        <ele>5</ele>
        <time>2018-02-17T10:33:08Z</time>
      </trkpt>
      <trkpt lat="51.692769974470139" lon="0.788956023752689">
        <ele>5</ele>
        <time>2018-02-17T10:33:09Z</time>
      </trkpt>
      <trkpt lat="51.692763017490506" lon="0.788990976288915">
        <ele>5</ele>
        <time>2018-02-17T10:33:10Z</time>
      </trkpt>
      <trkpt lat="51.692757988348603" lon="0.789025006815791">
        <ele>5</ele>
        <time>2018-02-17T10:33:11Z</time>
      </trkpt>
      <trkpt lat="51.692753965035081" lon="0.789062976837158">
        <ele>5</ele>
        <time>2018-02-17T10:33:12Z</time>
      </trkpt>
      <trkpt lat="51.692751031368971" lon="0.789099019020796">
        <ele>5</ele>
        <time>2018-02-17T10:33:13Z</time>
      </trkpt>
      <trkpt lat="51.692746002227068" lon="0.789132965728641">
        <ele>5</ele>
        <time>2018-02-17T10:33:14Z</time>
      </trkpt>
      <trkpt lat="51.692737033590674" lon="0.789168002083898">
        <ele>5</ele>
        <time>2018-02-17T10:33:15Z</time>
      </trkpt>
      <trkpt lat="51.692726975306869" lon="0.789198009297252">
        <ele>5</ele>
        <time>2018-02-17T10:33:16Z</time>
      </trkpt>
      <trkpt lat="51.692711971700191" lon="0.789230028167367">
        <ele>5</ele>
        <time>2018-02-17T10:33:17Z</time>
      </trkpt>
      <trkpt lat="51.692703003063798" lon="0.789262969046831">
        <ele>5</ele>
        <time>2018-02-17T10:33:18Z</time>
      </trkpt>
      <trkpt lat="51.692693028599024" lon="0.789299011230469">
        <ele>5</ele>
        <time>2018-02-17T10:33:19Z</time>
      </trkpt>
      <trkpt lat="51.692680958658457" lon="0.789334969595075">
        <ele>5</ele>
        <time>2018-02-17T10:33:20Z</time>
      </trkpt>
      <trkpt lat="51.692670984193683" lon="0.789363970980048">
        <ele>5</ele>
        <time>2018-02-17T10:33:21Z</time>
      </trkpt>
      <trkpt lat="51.692657992243767" lon="0.789392972365022">
        <ele>5</ele>
        <time>2018-02-17T10:33:22Z</time>
      </trkpt>
      <trkpt lat="51.692650029435754" lon="0.789420967921615">
        <ele>5</ele>
        <time>2018-02-17T10:33:23Z</time>
      </trkpt>
      <trkpt lat="51.692635025829077" lon="0.789460027590394">
        <ele>5</ele>
        <time>2018-02-17T10:33:25Z</time>
      </trkpt>
      <trkpt lat="51.692632008343935" lon="0.789492968469858">
        <ele>5</ele>
        <time>2018-02-17T10:33:27Z</time>
      </trkpt>
      <trkpt lat="51.692618010565639" lon="0.789536973461509">
        <ele>5</ele>
        <time>2018-02-17T10:33:29Z</time>
      </trkpt>
      <trkpt lat="51.692591020837426" lon="0.789582990109921">
        <ele>5</ele>
        <time>2018-02-17T10:33:31Z</time>
      </trkpt>
      <trkpt lat="51.692579034715891" lon="0.789612997323275">
        <ele>5</ele>
        <time>2018-02-17T10:33:32Z</time>
      </trkpt>
      <trkpt lat="51.692566964775324" lon="0.78964501619339">
        <ele>5</ele>
        <time>2018-02-17T10:33:33Z</time>
      </trkpt>
      <trkpt lat="51.692555984482169" lon="0.789678040891886">
        <ele>5</ele>
        <time>2018-02-17T10:33:34Z</time>
      </trkpt>
      <trkpt lat="51.692543998360634" lon="0.789709975942969">
        <ele>5</ele>
        <time>2018-02-17T10:33:35Z</time>
      </trkpt>
      <trkpt lat="51.692533018067479" lon="0.789743000641465">
        <ele>5</ele>
        <time>2018-02-17T10:33:36Z</time>
      </trkpt>
      <trkpt lat="51.692522037774324" lon="0.78977501951158">
        <ele>5</ele>
        <time>2018-02-17T10:33:37Z</time>
      </trkpt>
      <trkpt lat="51.692509967833757" lon="0.789807960391045">
        <ele>5</ele>
        <time>2018-02-17T10:33:38Z</time>
      </trkpt>
      <trkpt lat="51.692499993368983" lon="0.789841990917921">
        <ele>5</ele>
        <time>2018-02-17T10:33:39Z</time>
      </trkpt>
      <trkpt lat="51.692489013075829" lon="0.789879960939288">
        <ele>5</ele>
        <time>2018-02-17T10:33:40Z</time>
      </trkpt>
      <trkpt lat="51.692478032782674" lon="0.789914997294545">
        <ele>5</ele>
        <time>2018-02-17T10:33:41Z</time>
      </trkpt>
      <trkpt lat="51.692469986155629" lon="0.789948021993041">
        <ele>5</ele>
        <time>2018-02-17T10:33:42Z</time>
      </trkpt>
      <trkpt lat="51.692461017519236" lon="0.789981968700886">
        <ele>5</ele>
        <time>2018-02-17T10:33:43Z</time>
      </trkpt>
      <trkpt lat="51.69245196506381" lon="0.790014993399382">
        <ele>5</ele>
        <time>2018-02-17T10:33:44Z</time>
      </trkpt>
      <trkpt lat="51.692441990599036" lon="0.790051035583019">
        <ele>5</ele>
        <time>2018-02-17T10:33:45Z</time>
      </trkpt>
      <trkpt lat="51.692435033619404" lon="0.790083976462483">
        <ele>5</ele>
        <time>2018-02-17T10:33:46Z</time>
      </trkpt>
      <trkpt lat="51.692426986992359" lon="0.790121024474502">
        <ele>5</ele>
        <time>2018-02-17T10:33:47Z</time>
      </trkpt>
      <trkpt lat="51.692418018355966" lon="0.790156982839108">
        <ele>5</ele>
        <time>2018-02-17T10:33:48Z</time>
      </trkpt>
      <trkpt lat="51.69240896590054" lon="0.790192019194365">
        <ele>5</ele>
        <time>2018-02-17T10:33:49Z</time>
      </trkpt>
      <trkpt lat="51.692401003092527" lon="0.79022797755897">
        <ele>5</ele>
        <time>2018-02-17T10:33:50Z</time>
      </trkpt>
      <trkpt lat="51.692392034456134" lon="0.790265025570989">
        <ele>5</ele>
        <time>2018-02-17T10:33:51Z</time>
      </trkpt>
      <trkpt lat="51.692382982000709" lon="0.790301989763975">
        <ele>5</ele>
        <time>2018-02-17T10:33:52Z</time>
      </trkpt>
      <trkpt lat="51.692376025021076" lon="0.790338031947613">
        <ele>5</ele>
        <time>2018-02-17T10:33:53Z</time>
      </trkpt>
      <trkpt lat="51.692366972565651" lon="0.790374996140599">
        <ele>5</ele>
        <time>2018-02-17T10:33:54Z</time>
      </trkpt>
      <trkpt lat="51.692358003929257" lon="0.790411960333586">
        <ele>5</ele>
        <time>2018-02-17T10:33:55Z</time>
      </trkpt>
      <trkpt lat="51.692347023636103" lon="0.790450014173985">
        <ele>5</ele>
        <time>2018-02-17T10:33:56Z</time>
      </trkpt>
      <trkpt lat="51.692338977009058" lon="0.79048597253859">
        <ele>5</ele>
        <time>2018-02-17T10:33:57Z</time>
      </trkpt>
      <trkpt lat="51.692329002544284" lon="0.79052503220737">
        <ele>5</ele>
        <time>2018-02-17T10:33:58Z</time>
      </trkpt>
      <trkpt lat="51.692321039736271" lon="0.790563002228737">
        <ele>5</ele>
        <time>2018-02-17T10:33:59Z</time>
      </trkpt>
      <trkpt lat="51.692313998937607" lon="0.790599966421723">
        <ele>5</ele>
        <time>2018-02-17T10:34:00Z</time>
      </trkpt>
      <trkpt lat="51.692306036129594" lon="0.790637014433742">
        <ele>5</ele>
        <time>2018-02-17T10:34:01Z</time>
      </trkpt>
      <trkpt lat="51.692297989502549" lon="0.790672972798347">
        <ele>5</ele>
        <time>2018-02-17T10:34:02Z</time>
      </trkpt>
      <trkpt lat="51.692291032522917" lon="0.790712032467127">
        <ele>5</ele>
        <time>2018-02-17T10:34:03Z</time>
      </trkpt>
      <trkpt lat="51.692281980067492" lon="0.790746985003352">
        <ele>5</ele>
        <time>2018-02-17T10:34:04Z</time>
      </trkpt>
      <trkpt lat="51.692275023087859" lon="0.790785038843751">
        <ele>5</ele>
        <time>2018-02-17T10:34:05Z</time>
      </trkpt>
      <trkpt lat="51.692267982289195" lon="0.790819991379976">
        <ele>5</ele>
        <time>2018-02-17T10:34:06Z</time>
      </trkpt>
      <trkpt lat="51.692263958975673" lon="0.790854021906853">
        <ele>5</ele>
        <time>2018-02-17T10:34:07Z</time>
      </trkpt>
      <trkpt lat="51.69225700199604" lon="0.790887968614697">
        <ele>5</ele>
        <time>2018-02-17T10:34:08Z</time>
      </trkpt>
      <trkpt lat="51.692248033359647" lon="0.790923004969954">
        <ele>5</ele>
        <time>2018-02-17T10:34:09Z</time>
      </trkpt>
      <trkpt lat="51.692241998389363" lon="0.790958041325212">
        <ele>5</ele>
        <time>2018-02-17T10:34:10Z</time>
      </trkpt>
      <trkpt lat="51.692235041409731" lon="0.790993999689817">
        <ele>5</ele>
        <time>2018-02-17T10:34:11Z</time>
      </trkpt>
      <trkpt lat="51.692225988954306" lon="0.791026018559933">
        <ele>5</ele>
        <time>2018-02-17T10:34:12Z</time>
      </trkpt>
      <trkpt lat="51.69221299700439" lon="0.791058037430048">
        <ele>5</ele>
        <time>2018-02-17T10:34:13Z</time>
      </trkpt>
      <trkpt lat="51.692202016711235" lon="0.791091984137893">
        <ele>5</ele>
        <time>2018-02-17T10:34:14Z</time>
      </trkpt>
      <trkpt lat="51.69219397008419" lon="0.791126014664769">
        <ele>5</ele>
        <time>2018-02-17T10:34:15Z</time>
      </trkpt>
      <trkpt lat="51.692183995619416" lon="0.791159961372614">
        <ele>5</ele>
        <time>2018-02-17T10:34:16Z</time>
      </trkpt>
      <trkpt lat="51.692174021154642" lon="0.79119399189949">
        <ele>5</ele>
        <time>2018-02-17T10:34:17Z</time>
      </trkpt>
      <trkpt lat="51.692166980355978" lon="0.791232967749238">
        <ele>5</ele>
        <time>2018-02-17T10:34:18Z</time>
      </trkpt>
      <trkpt lat="51.692158011719584" lon="0.791270015761256">
        <ele>5</ele>
        <time>2018-02-17T10:34:19Z</time>
      </trkpt>
      <trkpt lat="51.69215097092092" lon="0.791305974125862">
        <ele>5</ele>
        <time>2018-02-17T10:34:20Z</time>
      </trkpt>
      <trkpt lat="51.692143008112907" lon="0.7913420163095">
        <ele>5</ele>
        <time>2018-02-17T10:34:21Z</time>
      </trkpt>
      <trkpt lat="51.692136973142624" lon="0.791377974674106">
        <ele>5</ele>
        <time>2018-02-17T10:34:22Z</time>
      </trkpt>
      <trkpt lat="51.692130016162992" lon="0.791412005200982">
        <ele>5</ele>
        <time>2018-02-17T10:34:23Z</time>
      </trkpt>
      <trkpt lat="51.692124987021089" lon="0.791447041556239">
        <ele>5</ele>
        <time>2018-02-17T10:34:24Z</time>
      </trkpt>
      <trkpt lat="51.692118030041456" lon="0.791481994092464">
        <ele>5</ele>
        <time>2018-02-17T10:34:25Z</time>
      </trkpt>
      <trkpt lat="51.692111995071173" lon="0.791518036276102">
        <ele>5</ele>
        <time>2018-02-17T10:34:26Z</time>
      </trkpt>
      <trkpt lat="51.69210503809154" lon="0.791550977155566">
        <ele>5</ele>
        <time>2018-02-17T10:34:27Z</time>
      </trkpt>
      <trkpt lat="51.692099003121257" lon="0.791588025167584">
        <ele>5</ele>
        <time>2018-02-17T10:34:28Z</time>
      </trkpt>
      <trkpt lat="51.692091962322593" lon="0.791625995188951">
        <ele>5</ele>
        <time>2018-02-17T10:34:29Z</time>
      </trkpt>
      <trkpt lat="51.692082993686199" lon="0.791662037372589">
        <ele>5</ele>
        <time>2018-02-17T10:34:30Z</time>
      </trkpt>
      <trkpt lat="51.692076958715916" lon="0.791695984080434">
        <ele>5</ele>
        <time>2018-02-17T10:34:31Z</time>
      </trkpt>
      <trkpt lat="51.692067990079522" lon="0.79173001460731">
        <ele>5</ele>
        <time>2018-02-17T10:34:32Z</time>
      </trkpt>
      <trkpt lat="51.692054998129606" lon="0.791765972971916">
        <ele>5</ele>
        <time>2018-02-17T10:34:33Z</time>
      </trkpt>
      <trkpt lat="51.692048041149974" lon="0.791804026812315">
        <ele>5</ele>
        <time>2018-02-17T10:34:34Z</time>
      </trkpt>
      <trkpt lat="51.692038988694549" lon="0.791839985176921">
        <ele>5</ele>
        <time>2018-02-17T10:34:35Z</time>
      </trkpt>
      <trkpt lat="51.692029014229774" lon="0.79187803901732">
        <ele>5</ele>
        <time>2018-02-17T10:34:36Z</time>
      </trkpt>
      <trkpt lat="51.69201803393662" lon="0.791912991553545">
        <ele>5</ele>
        <time>2018-02-17T10:34:37Z</time>
      </trkpt>
      <trkpt lat="51.692009987309575" lon="0.791948027908802">
        <ele>5</ele>
        <time>2018-02-17T10:34:38Z</time>
      </trkpt>
      <trkpt lat="51.692003030329943" lon="0.791983986273408">
        <ele>5</ele>
        <time>2018-02-17T10:34:39Z</time>
      </trkpt>
      <trkpt lat="51.69199900701642" lon="0.792021034285426">
        <ele>5</ele>
        <time>2018-02-17T10:34:40Z</time>
      </trkpt>
      <trkpt lat="51.691989032551646" lon="0.792054980993271">
        <ele>5</ele>
        <time>2018-02-17T10:34:41Z</time>
      </trkpt>
      <trkpt lat="51.691980985924602" lon="0.792088005691767">
        <ele>5</ele>
        <time>2018-02-17T10:34:42Z</time>
      </trkpt>
      <trkpt lat="51.691972017288208" lon="0.792122036218643">
        <ele>5</ele>
        <time>2018-02-17T10:34:43Z</time>
      </trkpt>
      <trkpt lat="51.691964976489544" lon="0.792155982926488">
        <ele>6</ele>
        <time>2018-02-17T10:34:44Z</time>
      </trkpt>
      <trkpt lat="51.691960031166673" lon="0.792190013453364">
        <ele>6</ele>
        <time>2018-02-17T10:34:45Z</time>
      </trkpt>
      <trkpt lat="51.691953996196389" lon="0.79222203232348">
        <ele>6</ele>
        <time>2018-02-17T10:34:46Z</time>
      </trkpt>
      <trkpt lat="51.691948967054486" lon="0.792260002344847">
        <ele>6</ele>
        <time>2018-02-17T10:34:47Z</time>
      </trkpt>
      <trkpt lat="51.691946033388376" lon="0.792295960709453">
        <ele>6</ele>
        <time>2018-02-17T10:34:48Z</time>
      </trkpt>
      <trkpt lat="51.691939998418093" lon="0.79233200289309">
        <ele>6</ele>
        <time>2018-02-17T10:34:49Z</time>
      </trkpt>
      <trkpt lat="51.691931029781699" lon="0.792364021763206">
        <ele>6</ele>
        <time>2018-02-17T10:34:50Z</time>
      </trkpt>
      <trkpt lat="51.691919965669513" lon="0.792400985956192">
        <ele>6</ele>
        <time>2018-02-17T10:34:51Z</time>
      </trkpt>
      <trkpt lat="51.691909991204739" lon="0.79243803396821">
        <ele>6</ele>
        <time>2018-02-17T10:34:52Z</time>
      </trkpt>
      <trkpt lat="51.691902028396726" lon="0.792476003989577">
        <ele>6</ele>
        <time>2018-02-17T10:34:53Z</time>
      </trkpt>
      <trkpt lat="51.691894987598062" lon="0.792511040344834">
        <ele>6</ele>
        <time>2018-02-17T10:34:54Z</time>
      </trkpt>
      <trkpt lat="51.691887024790049" lon="0.792548004537821">
        <ele>6</ele>
        <time>2018-02-17T10:34:55Z</time>
      </trkpt>
      <trkpt lat="51.691875038668513" lon="0.792582035064697">
        <ele>6</ele>
        <time>2018-02-17T10:34:56Z</time>
      </trkpt>
      <trkpt lat="51.691864980384707" lon="0.792617993429303">
        <ele>6</ele>
        <time>2018-02-17T10:34:57Z</time>
      </trkpt>
      <trkpt lat="51.691857017576694" lon="0.79265202395618">
        <ele>6</ele>
        <time>2018-02-17T10:34:58Z</time>
      </trkpt>
      <trkpt lat="51.691847965121269" lon="0.792687982320786">
        <ele>6</ele>
        <time>2018-02-17T10:34:59Z</time>
      </trkpt>
      <trkpt lat="51.691841008141637" lon="0.792724024504423">
        <ele>6</ele>
        <time>2018-02-17T10:35:00Z</time>
      </trkpt>
      <trkpt lat="51.691832961514592" lon="0.792759982869029">
        <ele>6</ele>
        <time>2018-02-17T10:35:01Z</time>
      </trkpt>
      <trkpt lat="51.691824998706579" lon="0.792796025052667">
        <ele>6</ele>
        <time>2018-02-17T10:35:02Z</time>
      </trkpt>
      <trkpt lat="51.691818041726947" lon="0.79282796010375">
        <ele>6</ele>
        <time>2018-02-17T10:35:03Z</time>
      </trkpt>
      <trkpt lat="51.691813012585044" lon="0.792864002287388">
        <ele>6</ele>
        <time>2018-02-17T10:35:04Z</time>
      </trkpt>
      <trkpt lat="51.69180697761476" lon="0.792901972308755">
        <ele>6</ele>
        <time>2018-02-17T10:35:05Z</time>
      </trkpt>
      <trkpt lat="51.691801026463509" lon="0.792938014492393">
        <ele>6</ele>
        <time>2018-02-17T10:35:06Z</time>
      </trkpt>
      <trkpt lat="51.691798008978367" lon="0.792974978685379">
        <ele>6</ele>
        <time>2018-02-17T10:35:07Z</time>
      </trkpt>
      <trkpt lat="51.691797003149986" lon="0.793013032525778">
        <ele>6</ele>
        <time>2018-02-17T10:35:08Z</time>
      </trkpt>
      <trkpt lat="51.691794991493225" lon="0.793052008375525">
        <ele>6</ele>
        <time>2018-02-17T10:35:09Z</time>
      </trkpt>
      <trkpt lat="51.691794991493225" lon="0.793089978396893">
        <ele>6</ele>
        <time>2018-02-17T10:35:10Z</time>
      </trkpt>
      <trkpt lat="51.691791974008083" lon="0.793127026408911">
        <ele>6</ele>
        <time>2018-02-17T10:35:11Z</time>
      </trkpt>
      <trkpt lat="51.691789962351322" lon="0.793160973116755">
        <ele>6.30000255996723</ele>
        <time>2018-02-17T10:35:12Z</time>
      </trkpt>
      <trkpt lat="51.691790968179703" lon="0.793196009472013">
        <ele>7</ele>
        <time>2018-02-17T10:35:13Z</time>
      </trkpt>
      <trkpt lat="51.691795997321606" lon="0.79323397949338">
        <ele>7</ele>
        <time>2018-02-17T10:35:14Z</time>
      </trkpt>
      <trkpt lat="51.691800020635128" lon="0.793270021677017">
        <ele>7</ele>
        <time>2018-02-17T10:35:15Z</time>
      </trkpt>
      <trkpt lat="51.691801026463509" lon="0.793305980041623">
        <ele>7</ele>
        <time>2018-02-17T10:35:16Z</time>
      </trkpt>
      <trkpt lat="51.69180597178638" lon="0.793337998911738">
        <ele>7</ele>
        <time>2018-02-17T10:35:17Z</time>
      </trkpt>
      <trkpt lat="51.691811000928283" lon="0.793367000296712">
        <ele>7</ele>
        <time>2018-02-17T10:35:18Z</time>
      </trkpt>
      <trkpt lat="51.691818041726947" lon="0.793393990024924">
        <ele>7</ele>
        <time>2018-02-17T10:35:19Z</time>
      </trkpt>
      <trkpt lat="51.69182701036334" lon="0.793425003066659">
        <ele>7</ele>
        <time>2018-02-17T10:35:20Z</time>
      </trkpt>
      <trkpt lat="51.691837990656495" lon="0.793455010280013">
        <ele>7</ele>
        <time>2018-02-17T10:35:21Z</time>
      </trkpt>
      <trkpt lat="51.691843019798398" lon="0.793485017493367">
        <ele>7</ele>
        <time>2018-02-17T10:35:22Z</time>
      </trkpt>
      <trkpt lat="51.69184897094965" lon="0.793515024706721">
        <ele>7.3100032</ele>
        <time>2018-02-17T10:35:23Z</time>
      </trkpt>
      <trkpt lat="51.691858023405075" lon="0.79357797279954">
        <ele>8</ele>
        <time>2018-02-17T10:35:25Z</time>
      </trkpt>
      <trkpt lat="51.691861040890217" lon="0.793617032468319">
        <ele>8</ele>
        <time>2018-02-17T10:35:26Z</time>
      </trkpt>
      <trkpt lat="51.691866992041469" lon="0.793649973347783">
        <ele>8</ele>
        <time>2018-02-17T10:35:27Z</time>
      </trkpt>
      <trkpt lat="51.691875960677862" lon="0.793682998046279">
        <ele>8</ele>
        <time>2018-02-17T10:35:28Z</time>
      </trkpt>
      <trkpt lat="51.691883001476526" lon="0.793717028573155">
        <ele>8</ele>
        <time>2018-02-17T10:35:29Z</time>
      </trkpt>
      <trkpt lat="51.691890964284539" lon="0.79374996945262">
        <ele>8</ele>
        <time>2018-02-17T10:35:30Z</time>
      </trkpt>
      <trkpt lat="51.691896999254823" lon="0.793785005807877">
        <ele>8</ele>
        <time>2018-02-17T10:35:31Z</time>
      </trkpt>
      <trkpt lat="51.691900016739964" lon="0.793819958344102">
        <ele>8</ele>
        <time>2018-02-17T10:35:32Z</time>
      </trkpt>
      <trkpt lat="51.691901022568345" lon="0.793850971385837">
        <ele>8</ele>
        <time>2018-02-17T10:35:33Z</time>
      </trkpt>
      <trkpt lat="51.691904962062836" lon="0.793886007741094">
        <ele>8</ele>
        <time>2018-02-17T10:35:34Z</time>
      </trkpt>
      <trkpt lat="51.691904962062836" lon="0.79391903243959">
        <ele>8</ele>
        <time>2018-02-17T10:35:35Z</time>
      </trkpt>
      <trkpt lat="51.691906973719597" lon="0.793951973319054">
        <ele>8</ele>
        <time>2018-02-17T10:35:36Z</time>
      </trkpt>
      <trkpt lat="51.691906973719597" lon="0.79398600384593">
        <ele>8</ele>
        <time>2018-02-17T10:35:37Z</time>
      </trkpt>
      <trkpt lat="51.691907979547977" lon="0.794019028544426">
        <ele>8</ele>
        <time>2018-02-17T10:35:38Z</time>
      </trkpt>
      <trkpt lat="51.691908985376358" lon="0.794056998565793">
        <ele>8</ele>
        <time>2018-02-17T10:35:39Z</time>
      </trkpt>
      <trkpt lat="51.691908985376358" lon="0.794090023264289">
        <ele>8</ele>
        <time>2018-02-17T10:35:40Z</time>
      </trkpt>
      <trkpt lat="51.691910997033119" lon="0.794120030477643">
        <ele>8</ele>
        <time>2018-02-17T10:35:41Z</time>
      </trkpt>
      <trkpt lat="51.691914014518261" lon="0.794152971357107">
        <ele>8</ele>
        <time>2018-02-17T10:35:42Z</time>
      </trkpt>
      <trkpt lat="51.691917032003403" lon="0.794188007712364">
        <ele>8</ele>
        <time>2018-02-17T10:35:43Z</time>
      </trkpt>
      <trkpt lat="51.691915020346642" lon="0.794224971905351">
        <ele>8</ele>
        <time>2018-02-17T10:35:44Z</time>
      </trkpt>
      <trkpt lat="51.691915020346642" lon="0.794261014088988">
        <ele>8</ele>
        <time>2018-02-17T10:35:45Z</time>
      </trkpt>
      <trkpt lat="51.691915020346642" lon="0.794296972453594">
        <ele>8.24</ele>
        <time>2018-02-17T10:35:46Z</time>
      </trkpt>
      <trkpt lat="51.691918037831783" lon="0.794332008808851">
        <ele>9</ele>
        <time>2018-02-17T10:35:47Z</time>
      </trkpt>
      <trkpt lat="51.691918037831783" lon="0.794363021850586">
        <ele>9</ele>
        <time>2018-02-17T10:35:48Z</time>
      </trkpt>
      <trkpt lat="51.691918037831783" lon="0.794398980215192">
        <ele>9</ele>
        <time>2018-02-17T10:35:49Z</time>
      </trkpt>
      <trkpt lat="51.691918959841132" lon="0.794437034055591">
        <ele>9</ele>
        <time>2018-02-17T10:35:50Z</time>
      </trkpt>
      <trkpt lat="51.691917032003403" lon="0.794475004076958">
        <ele>9</ele>
        <time>2018-02-17T10:35:51Z</time>
      </trkpt>
      <trkpt lat="51.691915020346642" lon="0.794510962441564">
        <ele>9</ele>
        <time>2018-02-17T10:35:52Z</time>
      </trkpt>
      <trkpt lat="51.691914014518261" lon="0.794548010453582">
        <ele>9</ele>
        <time>2018-02-17T10:35:53Z</time>
      </trkpt>
      <trkpt lat="51.691914014518261" lon="0.794585980474949">
        <ele>9</ele>
        <time>2018-02-17T10:35:54Z</time>
      </trkpt>
      <trkpt lat="51.6919120028615" lon="0.794625040143728">
        <ele>9</ele>
        <time>2018-02-17T10:35:55Z</time>
      </trkpt>
      <trkpt lat="51.691904962062836" lon="0.794665021821857">
        <ele>9</ele>
        <time>2018-02-17T10:35:56Z</time>
      </trkpt>
      <trkpt lat="51.691898005083203" lon="0.794701986014843">
        <ele>9</ele>
        <time>2018-02-17T10:35:57Z</time>
      </trkpt>
      <trkpt lat="51.691898005083203" lon="0.794738028198481">
        <ele>9</ele>
        <time>2018-02-17T10:35:58Z</time>
      </trkpt>
      <trkpt lat="51.691899010911584" lon="0.794772980734706">
        <ele>9</ele>
        <time>2018-02-17T10:35:59Z</time>
      </trkpt>
      <trkpt lat="51.691903034225106" lon="0.794807011261582">
        <ele>9</ele>
        <time>2018-02-17T10:36:00Z</time>
      </trkpt>
      <trkpt lat="51.691906973719597" lon="0.794841963797808">
        <ele>9</ele>
        <time>2018-02-17T10:36:01Z</time>
      </trkpt>
      <trkpt lat="51.691910997033119" lon="0.794880017638206">
        <ele>9</ele>
        <time>2018-02-17T10:36:02Z</time>
      </trkpt>
      <trkpt lat="51.6919120028615" lon="0.794915976002812">
        <ele>9</ele>
        <time>2018-02-17T10:36:03Z</time>
      </trkpt>
      <trkpt lat="51.69191300868988" lon="0.794954029843211">
        <ele>9</ele>
        <time>2018-02-17T10:36:04Z</time>
      </trkpt>
      <trkpt lat="51.69191300868988" lon="0.794989988207817">
        <ele>9</ele>
        <time>2018-02-17T10:36:05Z</time>
      </trkpt>
      <trkpt lat="51.69191300868988" lon="0.795027958229184">
        <ele>9</ele>
        <time>2018-02-17T10:36:06Z</time>
      </trkpt>
      <trkpt lat="51.6919120028615" lon="0.795067017897964">
        <ele>9</ele>
        <time>2018-02-17T10:36:07Z</time>
      </trkpt>
      <trkpt lat="51.691909991204739" lon="0.795105993747711">
        <ele>9</ele>
        <time>2018-02-17T10:36:08Z</time>
      </trkpt>
      <trkpt lat="51.691907979547977" lon="0.795143963769078">
        <ele>9</ele>
        <time>2018-02-17T10:36:09Z</time>
      </trkpt>
      <trkpt lat="51.691909991204739" lon="0.795182017609477">
        <ele>9</ele>
        <time>2018-02-17T10:36:10Z</time>
      </trkpt>
      <trkpt lat="51.691910997033119" lon="0.795215964317322">
        <ele>9</ele>
        <time>2018-02-17T10:36:11Z</time>
      </trkpt>
      <trkpt lat="51.691906973719597" lon="0.795258041471243">
        <ele>9</ele>
        <time>2018-02-17T10:36:12Z</time>
      </trkpt>
      <trkpt lat="51.691901022568345" lon="0.79529601149261">
        <ele>9</ele>
        <time>2018-02-17T10:36:13Z</time>
      </trkpt>
      <trkpt lat="51.691895993426442" lon="0.795334987342358">
        <ele>9</ele>
        <time>2018-02-17T10:36:14Z</time>
      </trkpt>
      <trkpt lat="51.691895993426442" lon="0.795377986505628">
        <ele>9</ele>
        <time>2018-02-17T10:36:15Z</time>
      </trkpt>
      <trkpt lat="51.691896999254823" lon="0.795416040346026">
        <ele>9</ele>
        <time>2018-02-17T10:36:16Z</time>
      </trkpt>
      <trkpt lat="51.691898005083203" lon="0.795454010367393">
        <ele>9</ele>
        <time>2018-02-17T10:36:17Z</time>
      </trkpt>
      <trkpt lat="51.691901022568345" lon="0.795486029237509">
        <ele>9</ele>
        <time>2018-02-17T10:36:18Z</time>
      </trkpt>
      <trkpt lat="51.691905967891216" lon="0.795519975945354">
        <ele>9</ele>
        <time>2018-02-17T10:36:19Z</time>
      </trkpt>
      <trkpt lat="51.691905967891216" lon="0.79555400647223">
        <ele>9</ele>
        <time>2018-02-17T10:36:20Z</time>
      </trkpt>
      <trkpt lat="51.691903034225106" lon="0.795589964836836">
        <ele>9</ele>
        <time>2018-02-17T10:36:21Z</time>
      </trkpt>
      <trkpt lat="51.691894987598062" lon="0.795635981485248">
        <ele>9</ele>
        <time>2018-02-17T10:36:23Z</time>
      </trkpt>
      <trkpt lat="51.691880989819765" lon="0.795686021447182">
        <ele>9</ele>
        <time>2018-02-17T10:36:25Z</time>
      </trkpt>
      <trkpt lat="51.691873027011752" lon="0.795718040317297">
        <ele>9</ele>
        <time>2018-02-17T10:36:26Z</time>
      </trkpt>
      <trkpt lat="51.691867997869849" lon="0.795751987025142">
        <ele>9</ele>
        <time>2018-02-17T10:36:27Z</time>
      </trkpt>
      <trkpt lat="51.691864980384707" lon="0.795788029208779">
        <ele>9</ele>
        <time>2018-02-17T10:36:28Z</time>
      </trkpt>
      <trkpt lat="51.691866992041469" lon="0.795825999230146">
        <ele>9</ele>
        <time>2018-02-17T10:36:29Z</time>
      </trkpt>
      <trkpt lat="51.691871015354991" lon="0.795858018100262">
        <ele>9</ele>
        <time>2018-02-17T10:36:30Z</time>
      </trkpt>
      <trkpt lat="51.691875038668513" lon="0.795891964808106">
        <ele>9</ele>
        <time>2018-02-17T10:36:31Z</time>
      </trkpt>
      <trkpt lat="51.691876966506243" lon="0.795930018648505">
        <ele>9</ele>
        <time>2018-02-17T10:36:32Z</time>
      </trkpt>
      <trkpt lat="51.691879983991385" lon="0.79596396535635">
        <ele>9</ele>
        <time>2018-02-17T10:36:33Z</time>
      </trkpt>
      <trkpt lat="51.691884007304907" lon="0.796000007539988">
        <ele>9</ele>
        <time>2018-02-17T10:36:34Z</time>
      </trkpt>
      <trkpt lat="51.691885013133287" lon="0.796034038066864">
        <ele>9</ele>
        <time>2018-02-17T10:36:35Z</time>
      </trkpt>
      <trkpt lat="51.691884007304907" lon="0.796067984774709">
        <ele>9</ele>
        <time>2018-02-17T10:36:36Z</time>
      </trkpt>
      <trkpt lat="51.691884007304907" lon="0.796104026958346">
        <ele>9</ele>
        <time>2018-02-17T10:36:37Z</time>
      </trkpt>
      <trkpt lat="51.691887024790049" lon="0.796137973666191">
        <ele>9</ele>
        <time>2018-02-17T10:36:38Z</time>
      </trkpt>
      <trkpt lat="51.691890964284539" lon="0.796170998364687">
        <ele>9</ele>
        <time>2018-02-17T10:36:39Z</time>
      </trkpt>
      <trkpt lat="51.691895993426442" lon="0.796205028891563">
        <ele>9</ele>
        <time>2018-02-17T10:36:40Z</time>
      </trkpt>
      <trkpt lat="51.691895993426442" lon="0.796237969771028">
        <ele>8.76</ele>
        <time>2018-02-17T10:36:41Z</time>
      </trkpt>
      <trkpt lat="51.691899010911584" lon="0.796274011954665">
        <ele>8</ele>
        <time>2018-02-17T10:36:42Z</time>
      </trkpt>
      <trkpt lat="51.691904040053487" lon="0.7963050249964">
        <ele>8</ele>
        <time>2018-02-17T10:36:43Z</time>
      </trkpt>
      <trkpt lat="51.691908985376358" lon="0.796337965875864">
        <ele>8</ele>
        <time>2018-02-17T10:36:44Z</time>
      </trkpt>
      <trkpt lat="51.691914014518261" lon="0.79637199640274">
        <ele>8</ele>
        <time>2018-02-17T10:36:45Z</time>
      </trkpt>
      <trkpt lat="51.691918037831783" lon="0.796406026929617">
        <ele>8</ele>
        <time>2018-02-17T10:36:46Z</time>
      </trkpt>
      <trkpt lat="51.691920971497893" lon="0.796439973637462">
        <ele>8</ele>
        <time>2018-02-17T10:36:47Z</time>
      </trkpt>
      <trkpt lat="51.691923988983035" lon="0.796474004164338">
        <ele>8</ele>
        <time>2018-02-17T10:36:48Z</time>
      </trkpt>
      <trkpt lat="51.691927006468177" lon="0.796510968357325">
        <ele>8.24</ele>
        <time>2018-02-17T10:36:49Z</time>
      </trkpt>
      <trkpt lat="51.691931029781699" lon="0.79654399305582">
        <ele>9</ele>
        <time>2018-02-17T10:36:50Z</time>
      </trkpt>
      <trkpt lat="51.69193496927619" lon="0.796579029411078">
        <ele>9</ele>
        <time>2018-02-17T10:36:51Z</time>
      </trkpt>
      <trkpt lat="51.691936980932951" lon="0.796613981947303">
        <ele>9</ele>
        <time>2018-02-17T10:36:52Z</time>
      </trkpt>
      <trkpt lat="51.691939998418093" lon="0.796651029959321">
        <ele>9</ele>
        <time>2018-02-17T10:36:53Z</time>
      </trkpt>
      <trkpt lat="51.691943015903234" lon="0.796687994152308">
        <ele>9</ele>
        <time>2018-02-17T10:36:54Z</time>
      </trkpt>
      <trkpt lat="51.691946033388376" lon="0.796722024679184">
        <ele>8.81889557443635</ele>
        <time>2018-02-17T10:36:55Z</time>
      </trkpt>
      <trkpt lat="51.691948967054486" lon="0.79675898887217">
        <ele>8.031495983632171</ele>
        <time>2018-02-17T10:36:56Z</time>
      </trkpt>
      <trkpt lat="51.691951984539628" lon="0.796794025227427">
        <ele>8</ele>
        <time>2018-02-17T10:36:57Z</time>
      </trkpt>
      <trkpt lat="51.691953996196389" lon="0.796827971935272">
        <ele>8</ele>
        <time>2018-02-17T10:36:58Z</time>
      </trkpt>
      <trkpt lat="51.691958019509912" lon="0.79686401411891">
        <ele>8</ele>
        <time>2018-02-17T10:36:59Z</time>
      </trkpt>
      <trkpt lat="51.691961959004402" lon="0.796897960826755">
        <ele>8</ele>
        <time>2018-02-17T10:37:00Z</time>
      </trkpt>
      <trkpt lat="51.691962964832783" lon="0.796935008838773">
        <ele>8</ele>
        <time>2018-02-17T10:37:01Z</time>
      </trkpt>
      <trkpt lat="51.691965982317924" lon="0.796970967203379">
        <ele>8</ele>
        <time>2018-02-17T10:37:02Z</time>
      </trkpt>
      <trkpt lat="51.691968999803066" lon="0.797004997730255">
        <ele>8</ele>
        <time>2018-02-17T10:37:03Z</time>
      </trkpt>
      <trkpt lat="51.691973023116589" lon="0.797040034085512">
        <ele>8</ele>
        <time>2018-02-17T10:37:04Z</time>
      </trkpt>
      <trkpt lat="51.69197796843946" lon="0.797073980793357">
        <ele>8.3299968</ele>
        <time>2018-02-17T10:37:05Z</time>
      </trkpt>
      <trkpt lat="51.691984003409743" lon="0.797105999663472">
        <ele>9</ele>
        <time>2018-02-17T10:37:06Z</time>
      </trkpt>
      <trkpt lat="51.691987020894885" lon="0.797138018533587">
        <ele>9</ele>
        <time>2018-02-17T10:37:07Z</time>
      </trkpt>
      <trkpt lat="51.691989032551646" lon="0.797170959413052">
        <ele>9</ele>
        <time>2018-02-17T10:37:08Z</time>
      </trkpt>
      <trkpt lat="51.691992972046137" lon="0.797205995768309">
        <ele>8.68269538461538</ele>
        <time>2018-02-17T10:37:09Z</time>
      </trkpt>
      <trkpt lat="51.691994983702898" lon="0.797242037951946">
        <ele>8</ele>
        <time>2018-02-17T10:37:10Z</time>
      </trkpt>
      <trkpt lat="51.691996995359659" lon="0.797275984659791">
        <ele>8.310003200000001</ele>
        <time>2018-02-17T10:37:11Z</time>
      </trkpt>
      <trkpt lat="51.691996995359659" lon="0.797310015186667">
        <ele>9</ele>
        <time>2018-02-17T10:37:12Z</time>
      </trkpt>
      <trkpt lat="51.691996995359659" lon="0.797344967722893">
        <ele>9</ele>
        <time>2018-02-17T10:37:13Z</time>
      </trkpt>
      <trkpt lat="51.691993977874517" lon="0.797385033220053">
        <ele>9</ele>
        <time>2018-02-17T10:37:14Z</time>
      </trkpt>
      <trkpt lat="51.691991966217756" lon="0.79742300324142">
        <ele>9</ele>
        <time>2018-02-17T10:37:15Z</time>
      </trkpt>
      <trkpt lat="51.691993977874517" lon="0.797459967434406">
        <ele>9</ele>
        <time>2018-02-17T10:37:16Z</time>
      </trkpt>
      <trkpt lat="51.691996995359659" lon="0.797496009618044">
        <ele>9</ele>
        <time>2018-02-17T10:37:17Z</time>
      </trkpt>
      <trkpt lat="51.69199800118804" lon="0.79752903431654">
        <ele>9</ele>
        <time>2018-02-17T10:37:18Z</time>
      </trkpt>
      <trkpt lat="51.692001018673182" lon="0.797564992681146">
        <ele>9</ele>
        <time>2018-02-17T10:37:19Z</time>
      </trkpt>
      <trkpt lat="51.692003030329943" lon="0.797600029036403">
        <ele>9</ele>
        <time>2018-02-17T10:37:20Z</time>
      </trkpt>
      <trkpt lat="51.692001018673182" lon="0.797635987401009">
        <ele>9</ele>
        <time>2018-02-17T10:37:21Z</time>
      </trkpt>
      <trkpt lat="51.69199900701642" lon="0.797673035413027">
        <ele>9</ele>
        <time>2018-02-17T10:37:22Z</time>
      </trkpt>
      <trkpt lat="51.69199900701642" lon="0.797713017091155">
        <ele>9</ele>
        <time>2018-02-17T10:37:23Z</time>
      </trkpt>
      <trkpt lat="51.69199800118804" lon="0.797751992940903">
        <ele>9</ele>
        <time>2018-02-17T10:37:24Z</time>
      </trkpt>
      <trkpt lat="51.692000012844801" lon="0.797789040952921">
        <ele>9</ele>
        <time>2018-02-17T10:37:25Z</time>
      </trkpt>
      <trkpt lat="51.692000012844801" lon="0.797823993489146">
        <ele>9</ele>
        <time>2018-02-17T10:37:26Z</time>
      </trkpt>
      <trkpt lat="51.692003030329943" lon="0.797859029844403">
        <ele>9</ele>
        <time>2018-02-17T10:37:27Z</time>
      </trkpt>
      <trkpt lat="51.692004036158323" lon="0.797898005694151">
        <ele>9</ele>
        <time>2018-02-17T10:37:28Z</time>
      </trkpt>
      <trkpt lat="51.692004036158323" lon="0.797934969887137">
        <ele>9</ele>
        <time>2018-02-17T10:37:29Z</time>
      </trkpt>
      <trkpt lat="51.692004958167672" lon="0.797972017899156">
        <ele>9</ele>
        <time>2018-02-17T10:37:30Z</time>
      </trkpt>
      <trkpt lat="51.692004958167672" lon="0.798008982092142">
        <ele>9</ele>
        <time>2018-02-17T10:37:31Z</time>
      </trkpt>
      <trkpt lat="51.692006969824433" lon="0.798043012619019">
        <ele>9</ele>
        <time>2018-02-17T10:37:32Z</time>
      </trkpt>
      <trkpt lat="51.692004958167672" lon="0.798074025660753">
        <ele>9</ele>
        <time>2018-02-17T10:37:33Z</time>
      </trkpt>
      <trkpt lat="51.692002024501562" lon="0.798106966540217">
        <ele>9</ele>
        <time>2018-02-17T10:37:34Z</time>
      </trkpt>
      <trkpt lat="51.692002024501562" lon="0.798144014552236">
        <ele>9</ele>
        <time>2018-02-17T10:37:35Z</time>
      </trkpt>
      <trkpt lat="51.691996995359659" lon="0.798179972916842">
        <ele>9</ele>
        <time>2018-02-17T10:37:36Z</time>
      </trkpt>
      <trkpt lat="51.691994983702898" lon="0.79822096042335">
        <ele>9</ele>
        <time>2018-02-17T10:37:37Z</time>
      </trkpt>
      <trkpt lat="51.691996995359659" lon="0.798263037577271">
        <ele>9</ele>
        <time>2018-02-17T10:37:38Z</time>
      </trkpt>
      <trkpt lat="51.691995989531279" lon="0.798302013427019">
        <ele>9</ele>
        <time>2018-02-17T10:37:39Z</time>
      </trkpt>
      <trkpt lat="51.691994983702898" lon="0.798341995105147">
        <ele>9</ele>
        <time>2018-02-17T10:37:40Z</time>
      </trkpt>
      <trkpt lat="51.691994983702898" lon="0.798378959298134">
        <ele>9</ele>
        <time>2018-02-17T10:37:41Z</time>
      </trkpt>
      <trkpt lat="51.69199900701642" lon="0.798416007310152">
        <ele>9</ele>
        <time>2018-02-17T10:37:42Z</time>
      </trkpt>
      <trkpt lat="51.69199900701642" lon="0.798450959846377">
        <ele>9</ele>
        <time>2018-02-17T10:37:43Z</time>
      </trkpt>
      <trkpt lat="51.69199900701642" lon="0.798490019515157">
        <ele>9</ele>
        <time>2018-02-17T10:37:44Z</time>
      </trkpt>
      <trkpt lat="51.692001018673182" lon="0.798530001193285">
        <ele>9</ele>
        <time>2018-02-17T10:37:45Z</time>
      </trkpt>
      <trkpt lat="51.692000012844801" lon="0.798566965386271">
        <ele>9</ele>
        <time>2018-02-17T10:37:46Z</time>
      </trkpt>
      <trkpt lat="51.692002024501562" lon="0.798607030883431">
        <ele>9</ele>
        <time>2018-02-17T10:37:47Z</time>
      </trkpt>
      <trkpt lat="51.692006969824433" lon="0.798645000904799">
        <ele>9</ele>
        <time>2018-02-17T10:37:48Z</time>
      </trkpt>
      <trkpt lat="51.692010993137956" lon="0.798683976754546">
        <ele>9</ele>
        <time>2018-02-17T10:37:49Z</time>
      </trkpt>
      <trkpt lat="51.692014010623097" lon="0.798721024766564">
        <ele>9</ele>
        <time>2018-02-17T10:37:50Z</time>
      </trkpt>
      <trkpt lat="51.692019961774349" lon="0.79875698313117">
        <ele>9</ele>
        <time>2018-02-17T10:37:51Z</time>
      </trkpt>
      <trkpt lat="51.692024990916252" lon="0.798792019486427">
        <ele>9</ele>
        <time>2018-02-17T10:37:52Z</time>
      </trkpt>
      <trkpt lat="51.692031025886536" lon="0.798827977851033">
        <ele>9</ele>
        <time>2018-02-17T10:37:53Z</time>
      </trkpt>
      <trkpt lat="51.692032031714916" lon="0.798864020034671">
        <ele>8</ele>
        <time>2018-02-17T10:37:54Z</time>
      </trkpt>
      <trkpt lat="51.692035971209407" lon="0.798898972570896">
        <ele>8</ele>
        <time>2018-02-17T10:37:55Z</time>
      </trkpt>
      <trkpt lat="51.692038988694549" lon="0.798935014754534">
        <ele>8.247522368387701</ele>
        <time>2018-02-17T10:37:56Z</time>
      </trkpt>
      <trkpt lat="51.692045023664832" lon="0.798969967290759">
        <ele>9</ele>
        <time>2018-02-17T10:37:57Z</time>
      </trkpt>
      <trkpt lat="51.692050974816084" lon="0.799003997817636">
        <ele>9</ele>
        <time>2018-02-17T10:37:58Z</time>
      </trkpt>
      <trkpt lat="51.692054998129606" lon="0.799040040001273">
        <ele>9</ele>
        <time>2018-02-17T10:37:59Z</time>
      </trkpt>
      <trkpt lat="51.69206203892827" lon="0.799073986709118">
        <ele>9</ele>
        <time>2018-02-17T10:38:00Z</time>
      </trkpt>
      <trkpt lat="51.692068995907903" lon="0.799112040549517">
        <ele>9</ele>
        <time>2018-02-17T10:38:01Z</time>
      </trkpt>
      <trkpt lat="51.692072013393044" lon="0.799151016399264">
        <ele>9</ele>
        <time>2018-02-17T10:38:02Z</time>
      </trkpt>
      <trkpt lat="51.692074025049806" lon="0.79918596893549">
        <ele>9</ele>
        <time>2018-02-17T10:38:03Z</time>
      </trkpt>
      <trkpt lat="51.692077964544296" lon="0.799221005290747">
        <ele>9</ele>
        <time>2018-02-17T10:38:04Z</time>
      </trkpt>
      <trkpt lat="51.692078970372677" lon="0.799256041646004">
        <ele>9</ele>
        <time>2018-02-17T10:38:05Z</time>
      </trkpt>
      <trkpt lat="51.692079976201057" lon="0.799289988353848">
        <ele>9</ele>
        <time>2018-02-17T10:38:06Z</time>
      </trkpt>
      <trkpt lat="51.692080982029438" lon="0.799324018880725">
        <ele>9</ele>
        <time>2018-02-17T10:38:07Z</time>
      </trkpt>
      <trkpt lat="51.69208399951458" lon="0.79935796558857">
        <ele>9</ele>
        <time>2018-02-17T10:38:08Z</time>
      </trkpt>
      <trkpt lat="51.692090034484863" lon="0.799396019428968">
        <ele>9</ele>
        <time>2018-02-17T10:38:09Z</time>
      </trkpt>
      <trkpt lat="51.692094979807734" lon="0.799433989450336">
        <ele>9.201545926315481</ele>
        <time>2018-02-17T10:38:10Z</time>
      </trkpt>
      <trkpt lat="51.692100008949637" lon="0.799470031633973">
        <ele>9.97674164773122</ele>
        <time>2018-02-17T10:38:11Z</time>
      </trkpt>
      <trkpt lat="51.69210403226316" lon="0.799505989998579">
        <ele>10</ele>
        <time>2018-02-17T10:38:12Z</time>
      </trkpt>
      <trkpt lat="51.692108977586031" lon="0.799540020525455">
        <ele>10</ele>
        <time>2018-02-17T10:38:13Z</time>
      </trkpt>
      <trkpt lat="51.692113000899553" lon="0.799575978890061">
        <ele>10</ele>
        <time>2018-02-17T10:38:14Z</time>
      </trkpt>
      <trkpt lat="51.692115012556314" lon="0.799610009416938">
        <ele>10</ele>
        <time>2018-02-17T10:38:15Z</time>
      </trkpt>
      <trkpt lat="51.692114006727934" lon="0.799644039943814">
        <ele>10</ele>
        <time>2018-02-17T10:38:16Z</time>
      </trkpt>
      <trkpt lat="51.692113000899553" lon="0.799675974994898">
        <ele>10</ele>
        <time>2018-02-17T10:38:17Z</time>
      </trkpt>
      <trkpt lat="51.692119035869837" lon="0.799707993865013">
        <ele>10</ele>
        <time>2018-02-17T10:38:18Z</time>
      </trkpt>
      <trkpt lat="51.69212800450623" lon="0.79974202439189">
        <ele>10</ele>
        <time>2018-02-17T10:38:19Z</time>
      </trkpt>
      <trkpt lat="51.692134961485863" lon="0.799775971099734">
        <ele>10</ele>
        <time>2018-02-17T10:38:20Z</time>
      </trkpt>
      <trkpt lat="51.692140996456146" lon="0.79980798996985">
        <ele>10</ele>
        <time>2018-02-17T10:38:21Z</time>
      </trkpt>
      <trkpt lat="51.692148959264159" lon="0.799837997183204">
        <ele>10</ele>
        <time>2018-02-17T10:38:22Z</time>
      </trkpt>
      <trkpt lat="51.692156000062823" lon="0.799868004396558">
        <ele>10</ele>
        <time>2018-02-17T10:38:23Z</time>
      </trkpt>
      <trkpt lat="51.692163962870836" lon="0.799897005781531">
        <ele>10</ele>
        <time>2018-02-17T10:38:24Z</time>
      </trkpt>
      <trkpt lat="51.692173015326262" lon="0.799930030480027">
        <ele>10</ele>
        <time>2018-02-17T10:38:25Z</time>
      </trkpt>
      <trkpt lat="51.692177960649133" lon="0.799960037693381">
        <ele>10</ele>
        <time>2018-02-17T10:38:26Z</time>
      </trkpt>
      <trkpt lat="51.692188018932939" lon="0.799988033249974">
        <ele>9.76</ele>
        <time>2018-02-17T10:38:27Z</time>
      </trkpt>
      <trkpt lat="51.692198999226093" lon="0.800009993836284">
        <ele>9</ele>
        <time>2018-02-17T10:38:28Z</time>
      </trkpt>
      <trkpt lat="51.692210985347629" lon="0.800033966079354">
        <ele>9</ele>
        <time>2018-02-17T10:38:29Z</time>
      </trkpt>
      <trkpt lat="51.692226994782686" lon="0.800081994384527">
        <ele>9</ele>
        <time>2018-02-17T10:38:31Z</time>
      </trkpt>
      <trkpt lat="51.69223403558135" lon="0.80010998994112">
        <ele>9</ele>
        <time>2018-02-17T10:38:32Z</time>
      </trkpt>
      <trkpt lat="51.692240992560983" lon="0.800142008811235">
        <ele>9</ele>
        <time>2018-02-17T10:38:33Z</time>
      </trkpt>
      <trkpt lat="51.692248033359647" lon="0.80017302185297">
        <ele>9</ele>
        <time>2018-02-17T10:38:34Z</time>
      </trkpt>
      <trkpt lat="51.692261025309563" lon="0.800204034894705">
        <ele>9</ele>
        <time>2018-02-17T10:38:35Z</time>
      </trkpt>
      <trkpt lat="51.692269993945956" lon="0.800233036279678">
        <ele>9</ele>
        <time>2018-02-17T10:38:36Z</time>
      </trkpt>
      <trkpt lat="51.69227896258235" lon="0.800260026007891">
        <ele>9</ele>
        <time>2018-02-17T10:38:37Z</time>
      </trkpt>
      <trkpt lat="51.692289020866156" lon="0.800286009907722">
        <ele>9</ele>
        <time>2018-02-17T10:38:38Z</time>
      </trkpt>
      <trkpt lat="51.692295977845788" lon="0.800318028777838">
        <ele>9</ele>
        <time>2018-02-17T10:38:39Z</time>
      </trkpt>
      <trkpt lat="51.692308969795704" lon="0.80034401267767">
        <ele>9</ele>
        <time>2018-02-17T10:38:40Z</time>
      </trkpt>
      <trkpt lat="51.69232196174562" lon="0.80036798492074">
        <ele>9</ele>
        <time>2018-02-17T10:38:41Z</time>
      </trkpt>
      <trkpt lat="51.692329002544284" lon="0.800397992134094">
        <ele>9</ele>
        <time>2018-02-17T10:38:42Z</time>
      </trkpt>
      <trkpt lat="51.692336965352297" lon="0.800427999347448">
        <ele>9</ele>
        <time>2018-02-17T10:38:43Z</time>
      </trkpt>
      <trkpt lat="51.692344006150961" lon="0.800458006560802">
        <ele>9</ele>
        <time>2018-02-17T10:38:44Z</time>
      </trkpt>
      <trkpt lat="51.692354986444116" lon="0.800489019602537">
        <ele>9</ele>
        <time>2018-02-17T10:38:45Z</time>
      </trkpt>
      <trkpt lat="51.692364038899541" lon="0.800521038472652">
        <ele>9</ele>
        <time>2018-02-17T10:38:46Z</time>
      </trkpt>
      <trkpt lat="51.692375019192696" lon="0.800549034029245">
        <ele>9</ele>
        <time>2018-02-17T10:38:47Z</time>
      </trkpt>
      <trkpt lat="51.69238499365747" lon="0.800579963251948">
        <ele>9</ele>
        <time>2018-02-17T10:38:48Z</time>
      </trkpt>
      <trkpt lat="51.692398991435766" lon="0.800609970465302">
        <ele>9</ele>
        <time>2018-02-17T10:38:49Z</time>
      </trkpt>
      <trkpt lat="51.692411983385682" lon="0.800644000992179">
        <ele>9</ele>
        <time>2018-02-17T10:38:50Z</time>
      </trkpt>
      <trkpt lat="51.692439978942275" lon="0.800706027075648">
        <ele>9.24731271591175</ele>
        <time>2018-02-17T10:38:52Z</time>
      </trkpt>
      <trkpt lat="51.692458000034094" lon="0.800724970176816">
        <ele>10</ele>
        <time>2018-02-17T10:38:53Z</time>
      </trkpt>
      <trkpt lat="51.692477026954293" lon="0.800734022632241">
        <ele>10</ele>
        <time>2018-02-17T10:38:54Z</time>
      </trkpt>
      <trkpt lat="51.692497981712222" lon="0.800736034289002">
        <ele>10</ele>
        <time>2018-02-17T10:38:55Z</time>
      </trkpt>
      <trkpt lat="51.692537041381001" lon="0.800762018188834">
        <ele>10</ele>
        <time>2018-02-17T10:38:57Z</time>
      </trkpt>
      <trkpt lat="51.69255799613893" lon="0.800792025402188">
        <ele>10</ele>
        <time>2018-02-17T10:38:58Z</time>
      </trkpt>
      <trkpt lat="51.692575011402369" lon="0.800825972110033">
        <ele>10</ele>
        <time>2018-02-17T10:38:59Z</time>
      </trkpt>
      <trkpt lat="51.692586997523904" lon="0.800862014293671">
        <ele>10</ele>
        <time>2018-02-17T10:39:00Z</time>
      </trkpt>
      <trkpt lat="51.692603006958961" lon="0.800896966829896">
        <ele>10</ele>
        <time>2018-02-17T10:39:01Z</time>
      </trkpt>
      <trkpt lat="51.692618010565639" lon="0.800933009013534">
        <ele>10</ele>
        <time>2018-02-17T10:39:02Z</time>
      </trkpt>
      <trkpt lat="51.692631002515554" lon="0.800966033712029">
        <ele>10</ele>
        <time>2018-02-17T10:39:03Z</time>
      </trkpt>
      <trkpt lat="51.692641982808709" lon="0.800997968763113">
        <ele>10</ele>
        <time>2018-02-17T10:39:04Z</time>
      </trkpt>
      <trkpt lat="51.692652963101864" lon="0.801028981804848">
        <ele>10</ele>
        <time>2018-02-17T10:39:05Z</time>
      </trkpt>
      <trkpt lat="51.692666038870811" lon="0.801059994846582">
        <ele>10</ele>
        <time>2018-02-17T10:39:06Z</time>
      </trkpt>
      <trkpt lat="51.692678024992347" lon="0.801091007888317">
        <ele>10</ele>
        <time>2018-02-17T10:39:07Z</time>
      </trkpt>
      <trkpt lat="51.692684981971979" lon="0.801116991788149">
        <ele>10.26562</ele>
        <time>2018-02-17T10:39:08Z</time>
      </trkpt>
      <trkpt lat="51.692694034427404" lon="0.801156973466277">
        <ele>11</ele>
        <time>2018-02-17T10:39:10Z</time>
      </trkpt>
      <trkpt lat="51.692709038034081" lon="0.801197038963437">
        <ele>10.8690438095238</ele>
        <time>2018-02-17T10:39:14Z</time>
      </trkpt>
      <trkpt lat="51.692719012498856" lon="0.80122796818614">
        <ele>9.74257977847059</ele>
        <time>2018-02-17T10:39:16Z</time>
      </trkpt>
      <trkpt lat="51.69272898696363" lon="0.801264010369778">
        <ele>9.2577295100355</ele>
        <time>2018-02-17T10:39:18Z</time>
      </trkpt>
      <trkpt lat="51.692739967256784" lon="0.801289994269609">
        <ele>0</ele>
        <time>2018-02-17T10:39:20Z</time>
      </trkpt>
      <trkpt lat="51.693222764879465" lon="0.802846597507596">
        <ele>11.3359375</ele>
      </trkpt>
      <trkpt lat="51.693474305793643" lon="0.804395908489823">
        <ele>11.8671875</ele>
      </trkpt>
      <trkpt lat="51.693411441519856" lon="0.805945303291082">
        <ele>12</ele>
      </trkpt>
      <trkpt lat="51.694165980443358" lon="0.807494698092341">
        <ele>12.33203125</ele>
      </trkpt>
      <trkpt lat="51.694606197997928" lon="0.809818748384714">
        <ele>13</ele>
      </trkpt>
      <trkpt lat="51.694731926545501" lon="0.811368059366941">
        <ele>13</ele>
      </trkpt>
      <trkpt lat="51.694857655093074" lon="0.813802750781178">
        <ele>12.83984375</ele>
      </trkpt>
      <trkpt lat="51.695172060281038" lon="0.816458808258176">
        <ele>12.9921875</ele>
      </trkpt>
      <trkpt lat="51.695612277835608" lon="0.818229569122195">
        <ele>12.69140625</ele>
      </trkpt>
      <trkpt lat="51.695572463795543" lon="0.818276423960924">
        <ele>11.6732178</ele>
        <time>2012-12-04T11:31:11Z</time>
      </trkpt>
      <trkpt lat="51.695564165711403" lon="0.818328140303493">
        <ele>11.192504899999999</ele>
        <time>2012-12-04T11:31:15Z</time>
      </trkpt>
      <trkpt lat="51.69555033557117" lon="0.818524695932865">
        <ele>10.711792000000001</ele>
        <time>2012-12-04T11:31:25Z</time>
      </trkpt>
      <trkpt lat="51.695549078285694" lon="0.818569958209991">
        <ele>11.192504899999999</ele>
        <time>2012-12-04T11:31:27Z</time>
      </trkpt>
      <trkpt lat="51.69550783932209" lon="0.818666769191623">
        <ele>11.6732178</ele>
        <time>2012-12-04T11:31:33Z</time>
      </trkpt>
      <trkpt lat="51.695498032495379" lon="0.818734662607312">
        <ele>12.1538086</ele>
        <time>2012-12-04T11:31:36Z</time>
      </trkpt>
      <trkpt lat="51.695508174598217" lon="0.818856535479426">
        <ele>12.6343994</ele>
        <time>2012-12-04T11:31:42Z</time>
      </trkpt>
      <trkpt lat="51.69550783932209" lon="0.818899031728506">
        <ele>12.6343994</ele>
        <time>2012-12-04T11:31:44Z</time>
      </trkpt>
      <trkpt lat="51.695512365549803" lon="0.819080332294106">
        <ele>12.6343994</ele>
        <time>2012-12-04T11:31:52Z</time>
      </trkpt>
      <trkpt lat="51.695503061637282" lon="0.819240259006619">
        <ele>11.192504899999999</ele>
        <time>2012-12-04T11:31:59Z</time>
      </trkpt>
      <trkpt lat="51.695505576208234" lon="0.819351486861706">
        <ele>12.6343994</ele>
        <time>2012-12-04T11:32:04Z</time>
      </trkpt>
      <trkpt lat="51.695508928969502" lon="0.819524321705103">
        <ele>13.1151123</ele>
        <time>2012-12-04T11:32:12Z</time>
      </trkpt>
      <trkpt lat="51.695518987253308" lon="0.819684667512774">
        <ele>13.5958252</ele>
        <time>2012-12-04T11:32:19Z</time>
      </trkpt>
      <trkpt lat="51.695515969768167" lon="0.819819364696741">
        <ele>14.076416</ele>
        <time>2012-12-04T11:32:25Z</time>
      </trkpt>
      <trkpt lat="51.695522340014577" lon="0.82000401802361">
        <ele>15.518432600000001</ele>
        <time>2012-12-04T11:32:33Z</time>
      </trkpt>
      <trkpt lat="51.695514461025596" lon="0.820188838988543">
        <ele>16.479736299999999</ele>
        <time>2012-12-04T11:32:41Z</time>
      </trkpt>
      <trkpt lat="51.695521669462323" lon="0.820330493152142">
        <ele>16.960449199999999</ele>
        <time>2012-12-04T11:32:47Z</time>
      </trkpt>
      <trkpt lat="51.695519993081689" lon="0.820503076538444">
        <ele>18.402343800000001</ele>
        <time>2012-12-04T11:32:54Z</time>
      </trkpt>
      <trkpt lat="51.695529380813241" lon="0.820625787600875">
        <ele>19.3637695</ele>
        <time>2012-12-04T11:33:00Z</time>
      </trkpt>
      <trkpt lat="51.69553273357451" lon="0.820778086781502">
        <ele>20.805664100000001</ele>
        <time>2012-12-04T11:33:07Z</time>
      </trkpt>
      <trkpt lat="51.695534661412239" lon="0.820888392627239">
        <ele>21.7669678</ele>
        <time>2012-12-04T11:33:12Z</time>
      </trkpt>
      <trkpt lat="51.695536421611905" lon="0.821013785898685">
        <ele>22.728271500000002</ele>
        <time>2012-12-04T11:33:18Z</time>
      </trkpt>
      <trkpt lat="51.695535834878683" lon="0.821188716217875">
        <ele>22.728271500000002</ele>
        <time>2012-12-04T11:33:26Z</time>
      </trkpt>
      <trkpt lat="51.695541283115745" lon="0.821346128359437">
        <ele>21.7669678</ele>
        <time>2012-12-04T11:33:33Z</time>
      </trkpt>
      <trkpt lat="51.695552095770836" lon="0.821450483053923">
        <ele>22.247558600000001</ele>
        <time>2012-12-04T11:33:38Z</time>
      </trkpt>
      <trkpt lat="51.695577576756477" lon="0.821613762527704">
        <ele>22.247558600000001</ele>
        <time>2012-12-04T11:33:46Z</time>
      </trkpt>
      <trkpt lat="51.695581097155809" lon="0.821634465828538">
        <ele>22.247558600000001</ele>
        <time>2012-12-04T11:33:47Z</time>
      </trkpt>
      <trkpt lat="51.695607667788863" lon="0.821803193539381">
        <ele>22.247558600000001</ele>
        <time>2012-12-04T11:33:55Z</time>
      </trkpt>
      <trkpt lat="51.695625940337777" lon="0.821949038654566">
        <ele>22.728271500000002</ele>
        <time>2012-12-04T11:34:02Z</time>
      </trkpt>
      <trkpt lat="51.69564756564796" lon="0.82210318185389">
        <ele>22.728271500000002</ele>
        <time>2012-12-04T11:34:09Z</time>
      </trkpt>
      <trkpt lat="51.695666592568159" lon="0.822183229029179">
        <ele>22.247558600000001</ele>
        <time>2012-12-04T11:34:13Z</time>
      </trkpt>
      <trkpt lat="51.695600124076009" lon="0.822289176285267">
        <ele>20.324951200000001</ele>
        <time>2012-12-04T11:34:19Z</time>
      </trkpt>
      <trkpt lat="51.695587635040283" lon="0.822346759960055">
        <ele>20.324951200000001</ele>
        <time>2012-12-04T11:34:22Z</time>
      </trkpt>
      <trkpt lat="51.69558553956449" lon="0.822389423847198">
        <ele>20.805664100000001</ele>
        <time>2012-12-04T11:34:24Z</time>
      </trkpt>
      <trkpt lat="51.695575229823589" lon="0.822479026392102">
        <ele>21.286377000000002</ele>
        <time>2012-12-04T11:34:28Z</time>
      </trkpt>
      <trkpt lat="51.695573637261987" lon="0.82258639857173">
        <ele>20.805664100000001</ele>
        <time>2012-12-04T11:34:33Z</time>
      </trkpt>
      <trkpt lat="51.695581516250968" lon="0.822727885097265">
        <ele>20.805664100000001</ele>
        <time>2012-12-04T11:34:39Z</time>
      </trkpt>
      <trkpt lat="51.695590987801552" lon="0.822774488478899">
        <ele>21.286377000000002</ele>
        <time>2012-12-04T11:34:41Z</time>
      </trkpt>
      <trkpt lat="51.695631137117743" lon="0.822964422404766">
        <ele>21.286377000000002</ele>
        <time>2012-12-04T11:34:50Z</time>
      </trkpt>
      <trkpt lat="51.695652678608894" lon="0.823079841211438">
        <ele>21.286377000000002</ele>
        <time>2012-12-04T11:34:56Z</time>
      </trkpt>
      <trkpt lat="51.695655360817909" lon="0.823100628331304">
        <ele>21.286377000000002</ele>
        <time>2012-12-04T11:34:57Z</time>
      </trkpt>
      <trkpt lat="51.6956886369735" lon="0.82331788726151">
        <ele>21.7669678</ele>
        <time>2012-12-04T11:35:07Z</time>
      </trkpt>
      <trkpt lat="51.695719063282013" lon="0.823494577780366">
        <ele>22.728271500000002</ele>
        <time>2012-12-04T11:35:15Z</time>
      </trkpt>
      <trkpt lat="51.695730378851295" lon="0.823635393753648">
        <ele>22.247558600000001</ele>
        <time>2012-12-04T11:35:21Z</time>
      </trkpt>
      <trkpt lat="51.695748986676335" lon="0.823837229982018">
        <ele>21.7669678</ele>
        <time>2012-12-04T11:35:30Z</time>
      </trkpt>
      <trkpt lat="51.695776479318738" lon="0.824032025411725">
        <ele>22.247558600000001</ele>
        <time>2012-12-04T11:35:39Z</time>
      </trkpt>
      <trkpt lat="51.69580933637917" lon="0.824182061478496">
        <ele>23.6895752</ele>
        <time>2012-12-04T11:35:46Z</time>
      </trkpt>
      <trkpt lat="51.695841187611222" lon="0.824336791411042">
        <ele>24.651001000000001</ele>
        <time>2012-12-04T11:35:53Z</time>
      </trkpt>
      <trkpt lat="51.695870440453291" lon="0.824503758922219">
        <ele>25.612304699999999</ele>
        <time>2012-12-04T11:36:01Z</time>
      </trkpt>
      <trkpt lat="51.69589533470571" lon="0.824655136093497">
        <ele>25.612304699999999</ele>
        <time>2012-12-04T11:36:09Z</time>
      </trkpt>
      <trkpt lat="51.695933640003204" lon="0.824767537415028">
        <ele>28.015502900000001</ele>
        <time>2012-12-04T11:36:15Z</time>
      </trkpt>
      <trkpt lat="51.69595442712307" lon="0.824827887117863">
        <ele>29.4575195</ele>
        <time>2012-12-04T11:36:18Z</time>
      </trkpt>
      <trkpt lat="51.695983428508043" lon="0.825009271502495">
        <ele>31.380127000000002</ele>
        <time>2012-12-04T11:36:26Z</time>
      </trkpt>
      <trkpt lat="51.695988290011883" lon="0.825071381404996">
        <ele>30.899536099999999</ele>
        <time>2012-12-04T11:36:31Z</time>
      </trkpt>
      <trkpt lat="51.695987535640597" lon="0.825109938159585">
        <ele>29.4575195</ele>
        <time>2012-12-04T11:36:33Z</time>
      </trkpt>
      <trkpt lat="51.696005472913384" lon="0.825247820466757">
        <ele>28.976928699999998</ele>
        <time>2012-12-04T11:36:40Z</time>
      </trkpt>
      <trkpt lat="51.69601016677916" lon="0.825270786881447">
        <ele>28.976928699999998</ele>
        <time>2012-12-04T11:36:41Z</time>
      </trkpt>
      <trkpt lat="51.696037827059627" lon="0.825474970042706">
        <ele>27.5349121</ele>
        <time>2012-12-04T11:36:50Z</time>
      </trkpt>
      <trkpt lat="51.696045622229576" lon="0.825648726895452">
        <ele>25.612304699999999</ele>
        <time>2012-12-04T11:36:58Z</time>
      </trkpt>
      <trkpt lat="51.696060122922063" lon="0.825820975005627">
        <ele>25.131713900000001</ele>
        <time>2012-12-04T11:37:06Z</time>
      </trkpt>
      <trkpt lat="51.696077641099691" lon="0.825985763221979">
        <ele>23.6895752</ele>
        <time>2012-12-04T11:37:13Z</time>
      </trkpt>
      <trkpt lat="51.696103624999523" lon="0.826209560036659">
        <ele>20.805664100000001</ele>
        <time>2012-12-04T11:37:23Z</time>
      </trkpt>
      <trkpt lat="51.696129189804196" lon="0.82641776651144">
        <ele>19.3637695</ele>
        <time>2012-12-04T11:37:32Z</time>
      </trkpt>
      <trkpt lat="51.69615332968533" lon="0.826625134795904">
        <ele>17.921752900000001</ele>
        <time>2012-12-04T11:37:41Z</time>
      </trkpt>
      <trkpt lat="51.696184678003192" lon="0.826860833913088">
        <ele>16.960449199999999</ele>
        <time>2012-12-04T11:37:51Z</time>
      </trkpt>
      <trkpt lat="51.696218540892005" lon="0.827088067308068">
        <ele>15.518432600000001</ele>
        <time>2012-12-04T11:38:01Z</time>
      </trkpt>
      <trkpt lat="51.696247961372137" lon="0.827250173315406">
        <ele>15.0377197</ele>
        <time>2012-12-04T11:38:09Z</time>
      </trkpt>
      <trkpt lat="51.696276376023889" lon="0.827428121119738">
        <ele>15.518432600000001</ele>
        <time>2012-12-04T11:38:17Z</time>
      </trkpt>
      <trkpt lat="51.696309065446258" lon="0.827673291787505">
        <ele>15.518432600000001</ele>
        <time>2012-12-04T11:38:28Z</time>
      </trkpt>
      <trkpt lat="51.696357931941748" lon="0.827918378636241">
        <ele>15.9990234</ele>
        <time>2012-12-04T11:38:39Z</time>
      </trkpt>
      <trkpt lat="51.696380563080311" lon="0.828133458271623">
        <ele>15.9990234</ele>
        <time>2012-12-04T11:38:49Z</time>
      </trkpt>
      <trkpt lat="51.696413839235902" lon="0.828332277014852">
        <ele>16.479736299999999</ele>
        <time>2012-12-04T11:38:58Z</time>
      </trkpt>
      <trkpt lat="51.696448288857937" lon="0.828536879271269">
        <ele>17.4411621</ele>
        <time>2012-12-04T11:39:07Z</time>
      </trkpt>
      <trkpt lat="51.69646848924458" lon="0.828647939488292">
        <ele>18.402343800000001</ele>
        <time>2012-12-04T11:39:12Z</time>
      </trkpt>
      <trkpt lat="51.696492293849587" lon="0.828806441277266">
        <ele>18.402343800000001</ele>
        <time>2012-12-04T11:39:20Z</time>
      </trkpt>
      <trkpt lat="51.696519618853927" lon="0.828979695215821">
        <ele>18.402343800000001</ele>
        <time>2012-12-04T11:39:28Z</time>
      </trkpt>
      <trkpt lat="51.696560773998499" lon="0.829138699918985">
        <ele>19.844360399999999</ele>
        <time>2012-12-04T11:39:35Z</time>
      </trkpt>
      <trkpt lat="51.696598660200834" lon="0.829290160909295">
        <ele>21.286377000000002</ele>
        <time>2012-12-04T11:39:42Z</time>
      </trkpt>
      <trkpt lat="51.696627158671618" lon="0.829425696283579">
        <ele>22.247558600000001</ele>
        <time>2012-12-04T11:39:48Z</time>
      </trkpt>
      <trkpt lat="51.696656662970781" lon="0.829574894160032">
        <ele>23.6895752</ele>
        <time>2012-12-04T11:39:55Z</time>
      </trkpt>
      <trkpt lat="51.696694968268275" lon="0.829759631305933">
        <ele>25.131713900000001</ele>
        <time>2012-12-04T11:40:03Z</time>
      </trkpt>
      <trkpt lat="51.696718689054251" lon="0.829933388158679">
        <ele>26.573608400000001</ele>
        <time>2012-12-04T11:40:11Z</time>
      </trkpt>
      <trkpt lat="51.696743918582797" lon="0.830064062029123">
        <ele>26.092895500000001</ele>
        <time>2012-12-04T11:40:18Z</time>
      </trkpt>
      <trkpt lat="51.696762191131711" lon="0.83019339479506">
        <ele>26.573608400000001</ele>
        <time>2012-12-04T11:40:24Z</time>
      </trkpt>
      <trkpt lat="51.696802927181125" lon="0.830396069213748">
        <ele>28.015502900000001</ele>
        <time>2012-12-04T11:40:33Z</time>
      </trkpt>
      <trkpt lat="51.696817763149738" lon="0.830514337867498">
        <ele>27.054321300000002</ele>
        <time>2012-12-04T11:40:39Z</time>
      </trkpt>
      <trkpt lat="51.696853721514344" lon="0.830699075013399">
        <ele>25.131713900000001</ele>
        <time>2012-12-04T11:40:48Z</time>
      </trkpt>
      <trkpt lat="51.696871491149068" lon="0.830849697813392">
        <ele>25.131713900000001</ele>
        <time>2012-12-04T11:40:53Z</time>
      </trkpt>
      <trkpt lat="51.696876185014844" lon="0.83088138140738">
        <ele>24.651001000000001</ele>
        <time>2012-12-04T11:40:54Z</time>
      </trkpt>
      <trkpt lat="51.696921279653907" lon="0.831085732206702">
        <ele>22.728271500000002</ele>
        <time>2012-12-04T11:41:00Z</time>
      </trkpt>
      <trkpt lat="51.696977186948061" lon="0.831238785758615">
        <ele>25.131713900000001</ele>
        <time>2012-12-04T11:41:05Z</time>
      </trkpt>
      <trkpt lat="51.696987999603152" lon="0.831261835992336">
        <ele>25.612304699999999</ele>
        <time>2012-12-04T11:41:06Z</time>
      </trkpt>
      <trkpt lat="51.696973079815507" lon="0.831388738006353">
        <ele>23.6895752</ele>
        <time>2012-12-04T11:41:12Z</time>
      </trkpt>
      <trkpt lat="51.696983138099313" lon="0.83149409852922">
        <ele>27.5349121</ele>
        <time>2012-12-04T11:41:18Z</time>
      </trkpt>
      <trkpt lat="51.697022365406156" lon="0.831538522616029">
        <ele>30.418823199999999</ele>
        <time>2012-12-04T11:41:22Z</time>
      </trkpt>
      <trkpt lat="51.697089672088623" lon="0.831706998869777">
        <ele>31.8607178</ele>
        <time>2012-12-04T11:41:29Z</time>
      </trkpt>
      <trkpt lat="51.697139963507652" lon="0.83193339407444">
        <ele>31.380127000000002</ele>
        <time>2012-12-04T11:41:35Z</time>
      </trkpt>
      <trkpt lat="51.69718137010932" lon="0.832172781229019">
        <ele>31.8607178</ele>
        <time>2012-12-04T11:41:42Z</time>
      </trkpt>
      <trkpt lat="51.697239624336362" lon="0.832388699054718">
        <ele>34.264160199999999</ele>
        <time>2012-12-04T11:41:49Z</time>
      </trkpt>
      <trkpt lat="51.69729134067893" lon="0.832594558596611">
        <ele>34.264160199999999</ele>
        <time>2012-12-04T11:41:55Z</time>
      </trkpt>
      <trkpt lat="51.69730793684721" lon="0.832665469497442">
        <ele>33.302856400000003</ele>
        <time>2012-12-04T11:41:57Z</time>
      </trkpt>
      <trkpt lat="51.69731866568327" lon="0.832835622131824">
        <ele>30.899536099999999</ele>
        <time>2012-12-04T11:42:02Z</time>
      </trkpt>
      <trkpt lat="51.697255382314324" lon="0.832920363172889">
        <ele>27.054321300000002</ele>
        <time>2012-12-04T11:42:06Z</time>
      </trkpt>
      <trkpt lat="51.69716184027493" lon="0.832975767552853">
        <ele>24.651001000000001</ele>
        <time>2012-12-04T11:42:10Z</time>
      </trkpt>
      <trkpt lat="51.697171898558736" lon="0.833136364817619">
        <ele>26.092895500000001</ele>
        <time>2012-12-04T11:42:15Z</time>
      </trkpt>
      <trkpt lat="51.697234595194459" lon="0.833325041458011">
        <ele>28.015502900000001</ele>
        <time>2012-12-04T11:42:21Z</time>
      </trkpt>
      <trkpt lat="51.697288071736693" lon="0.833489075303078">
        <ele>28.496215800000002</ele>
        <time>2012-12-04T11:42:26Z</time>
      </trkpt>
      <trkpt lat="51.697339285165071" lon="0.833688732236624">
        <ele>28.015502900000001</ele>
        <time>2012-12-04T11:42:32Z</time>
      </trkpt>
      <trkpt lat="51.697392174974084" lon="0.833883779123425">
        <ele>27.5349121</ele>
        <time>2012-12-04T11:42:38Z</time>
      </trkpt>
      <trkpt lat="51.697433665394783" lon="0.834092572331429">
        <ele>26.573608400000001</ele>
        <time>2012-12-04T11:42:44Z</time>
      </trkpt>
      <trkpt lat="51.697486387565732" lon="0.834364565089345">
        <ele>27.054321300000002</ele>
        <time>2012-12-04T11:42:52Z</time>
      </trkpt>
      <trkpt lat="51.697533661499619" lon="0.834571765735745">
        <ele>27.054321300000002</ele>
        <time>2012-12-04T11:42:58Z</time>
      </trkpt>
      <trkpt lat="51.697576828300953" lon="0.834769578650594">
        <ele>28.015502900000001</ele>
        <time>2012-12-04T11:43:04Z</time>
      </trkpt>
      <trkpt lat="51.697620581835508" lon="0.834982898086309">
        <ele>28.496215800000002</ele>
        <time>2012-12-04T11:43:10Z</time>
      </trkpt>
      <trkpt lat="51.697669699788094" lon="0.835224380716681">
        <ele>28.496215800000002</ele>
        <time>2012-12-04T11:43:17Z</time>
      </trkpt>
      <trkpt lat="51.697693420574069" lon="0.835429485887289">
        <ele>29.4575195</ele>
        <time>2012-12-04T11:43:23Z</time>
      </trkpt>
      <trkpt lat="51.697719236835837" lon="0.835600728169084">
        <ele>30.418823199999999</ele>
        <time>2012-12-04T11:43:28Z</time>
      </trkpt>
      <trkpt lat="51.697696438059211" lon="0.835753781720996">
        <ele>31.380127000000002</ele>
        <time>2012-12-04T11:43:34Z</time>
      </trkpt>
      <trkpt lat="51.697714878246188" lon="0.835799463093281">
        <ele>32.341552700000001</ele>
        <time>2012-12-04T11:43:36Z</time>
      </trkpt>
      <trkpt lat="51.697787716984749" lon="0.835977494716644">
        <ele>32.822265600000001</ele>
        <time>2012-12-04T11:43:43Z</time>
      </trkpt>
      <trkpt lat="51.697856280952692" lon="0.836233561858535">
        <ele>32.341552700000001</ele>
        <time>2012-12-04T11:43:51Z</time>
      </trkpt>
      <trkpt lat="51.697909086942673" lon="0.836482672020793">
        <ele>29.938110399999999</ele>
        <time>2012-12-04T11:43:58Z</time>
      </trkpt>
      <trkpt lat="51.697940938174725" lon="0.836660033091903">
        <ele>30.418823199999999</ele>
        <time>2012-12-04T11:44:04Z</time>
      </trkpt>
      <trkpt lat="51.698001036420465" lon="0.836922889575362">
        <ele>26.573608400000001</ele>
        <time>2012-12-04T11:44:12Z</time>
      </trkpt>
      <trkpt lat="51.698010675609112" lon="0.836951639503241">
        <ele>26.573608400000001</ele>
        <time>2012-12-04T11:44:13Z</time>
      </trkpt>
      <trkpt lat="51.698047975078225" lon="0.8371367957443">
        <ele>23.208984399999999</ele>
        <time>2012-12-04T11:44:20Z</time>
      </trkpt>
      <trkpt lat="51.698113940656185" lon="0.837378278374672">
        <ele>21.7669678</ele>
        <time>2012-12-04T11:44:27Z</time>
      </trkpt>
      <trkpt lat="51.698172362521291" lon="0.837578773498535">
        <ele>25.612304699999999</ele>
        <time>2012-12-04T11:44:32Z</time>
      </trkpt>
      <trkpt lat="51.698220977559686" lon="0.837754039093852">
        <ele>28.015502900000001</ele>
        <time>2012-12-04T11:44:37Z</time>
      </trkpt>
      <trkpt lat="51.698288787156343" lon="0.838006921112537">
        <ele>31.380127000000002</ele>
        <time>2012-12-04T11:44:44Z</time>
      </trkpt>
      <trkpt lat="51.698331870138645" lon="0.838215462863445">
        <ele>34.264160199999999</ele>
        <time>2012-12-04T11:44:50Z</time>
      </trkpt>
      <trkpt lat="51.698368666693568" lon="0.838437667116523">
        <ele>34.744872999999998</ele>
        <time>2012-12-04T11:44:56Z</time>
      </trkpt>
      <trkpt lat="51.69842298142612" lon="0.838644364848733">
        <ele>36.186767600000003</ele>
        <time>2012-12-04T11:45:02Z</time>
      </trkpt>
      <trkpt lat="51.698463298380375" lon="0.83883136510849">
        <ele>35.225463900000001</ele>
        <time>2012-12-04T11:45:07Z</time>
      </trkpt>
      <trkpt lat="51.698512667790055" lon="0.839091371744871">
        <ele>32.822265600000001</ele>
        <time>2012-12-04T11:45:14Z</time>
      </trkpt>
      <trkpt lat="51.698547536507249" lon="0.839315922930837">
        <ele>31.380127000000002</ele>
        <time>2012-12-04T11:45:20Z</time>
      </trkpt>
      <trkpt lat="51.698599923402071" lon="0.839612474665046">
        <ele>29.4575195</ele>
        <time>2012-12-04T11:45:28Z</time>
      </trkpt>
      <trkpt lat="51.698632864281535" lon="0.839859237894416">
        <ele>28.496215800000002</ele>
        <time>2012-12-04T11:45:35Z</time>
      </trkpt>
      <trkpt lat="51.698671421036124" lon="0.840091165155172">
        <ele>28.015502900000001</ele>
        <time>2012-12-04T11:45:41Z</time>
      </trkpt>
      <trkpt lat="51.698706541210413" lon="0.840321332216263">
        <ele>29.4575195</ele>
        <time>2012-12-04T11:45:47Z</time>
      </trkpt>
      <trkpt lat="51.698711821809411" lon="0.840357290580869">
        <ele>28.976928699999998</ele>
        <time>2012-12-04T11:45:48Z</time>
      </trkpt>
      <trkpt lat="51.698711821809411" lon="0.840357290580869">
        <ele>28.976928699999998</ele>
        <time>2012-12-04T11:45:48Z</time>
      </trkpt>
      <trkpt lat="51.698761358857155" lon="0.840581841766834">
        <ele>29.938110399999999</ele>
        <time>2012-12-04T11:45:54Z</time>
      </trkpt>
      <trkpt lat="51.698804860934615" lon="0.840855175629258">
        <ele>31.380127000000002</ele>
        <time>2012-12-04T11:46:01Z</time>
      </trkpt>
      <trkpt lat="51.698832437396049" lon="0.841037482023239">
        <ele>31.8607178</ele>
        <time>2012-12-04T11:46:06Z</time>
      </trkpt>
      <trkpt lat="51.698854565620422" lon="0.841216938570142">
        <ele>32.822265600000001</ele>
        <time>2012-12-04T11:46:11Z</time>
      </trkpt>
      <trkpt lat="51.698891697451472" lon="0.841405531391501">
        <ele>32.822265600000001</ele>
        <time>2012-12-04T11:46:16Z</time>
      </trkpt>
      <trkpt lat="51.69891893863678" lon="0.841610971838236">
        <ele>32.822265600000001</ele>
        <time>2012-12-04T11:46:22Z</time>
      </trkpt>
      <trkpt lat="51.698940899223089" lon="0.841838959604502">
        <ele>33.302856400000003</ele>
        <time>2012-12-04T11:46:28Z</time>
      </trkpt>
      <trkpt lat="51.698967386037111" lon="0.842062924057245">
        <ele>32.341552700000001</ele>
        <time>2012-12-04T11:46:34Z</time>
      </trkpt>
      <trkpt lat="51.699001919478178" lon="0.842191921547055">
        <ele>32.341552700000001</ele>
        <time>2012-12-04T11:46:39Z</time>
      </trkpt>
      <trkpt lat="51.699034441262484" lon="0.842351596802473">
        <ele>31.380127000000002</ele>
        <time>2012-12-04T11:46:48Z</time>
      </trkpt>
      <trkpt lat="51.699067130684853" lon="0.842491993680596">
        <ele>32.341552700000001</ele>
        <time>2012-12-04T11:46:54Z</time>
      </trkpt>
      <trkpt lat="51.69912806712091" lon="0.84267639555037">
        <ele>32.341552700000001</ele>
        <time>2012-12-04T11:47:00Z</time>
      </trkpt>
      <trkpt lat="51.699185483157635" lon="0.84289968945086">
        <ele>32.822265600000001</ele>
        <time>2012-12-04T11:47:07Z</time>
      </trkpt>
      <trkpt lat="51.69923703186214" lon="0.843126336112618">
        <ele>32.822265600000001</ele>
        <time>2012-12-04T11:47:14Z</time>
      </trkpt>
      <trkpt lat="51.699294364079833" lon="0.843360358849168">
        <ele>32.822265600000001</ele>
        <time>2012-12-04T11:47:21Z</time>
      </trkpt>
      <trkpt lat="51.69935722835362" lon="0.843623969703913">
        <ele>32.341552700000001</ele>
        <time>2012-12-04T11:47:29Z</time>
      </trkpt>
      <trkpt lat="51.699411794543266" lon="0.843849359080195">
        <ele>30.899536099999999</ele>
        <time>2012-12-04T11:47:36Z</time>
      </trkpt>
      <trkpt lat="51.699473820626736" lon="0.844100397080183">
        <ele>29.938110399999999</ele>
        <time>2012-12-04T11:47:44Z</time>
      </trkpt>
      <trkpt lat="51.699513383209705" lon="0.844293935224414">
        <ele>29.4575195</ele>
        <time>2012-12-04T11:47:50Z</time>
      </trkpt>
      <trkpt lat="51.699568536132574" lon="0.844558216631413">
        <ele>29.938110399999999</ele>
        <time>2012-12-04T11:47:58Z</time>
      </trkpt>
      <trkpt lat="51.699616899713874" lon="0.844776229932904">
        <ele>29.4575195</ele>
        <time>2012-12-04T11:48:05Z</time>
      </trkpt>
      <trkpt lat="51.69965042732656" lon="0.84496758878231">
        <ele>28.496215800000002</ele>
        <time>2012-12-04T11:48:11Z</time>
      </trkpt>
      <trkpt lat="51.699685882776976" lon="0.845143441110849">
        <ele>28.015502900000001</ele>
        <time>2012-12-04T11:48:17Z</time>
      </trkpt>
      <trkpt lat="51.699703484773636" lon="0.845352737233043">
        <ele>28.015502900000001</ele>
        <time>2012-12-04T11:48:23Z</time>
      </trkpt>
      <trkpt lat="51.69971932657063" lon="0.845595728605986">
        <ele>29.938110399999999</ele>
        <time>2012-12-04T11:48:30Z</time>
      </trkpt>
      <trkpt lat="51.699716476723552" lon="0.845848526805639">
        <ele>30.418823199999999</ele>
        <time>2012-12-04T11:48:37Z</time>
      </trkpt>
      <trkpt lat="51.699713626876473" lon="0.846169637516141">
        <ele>32.341552700000001</ele>
        <time>2012-12-04T11:48:45Z</time>
      </trkpt>
      <trkpt lat="51.699710441753268" lon="0.846396619454026">
        <ele>31.8607178</ele>
        <time>2012-12-04T11:48:51Z</time>
      </trkpt>
      <trkpt lat="51.699715470895171" lon="0.846622930839658">
        <ele>32.822265600000001</ele>
        <time>2012-12-04T11:48:57Z</time>
      </trkpt>
      <trkpt lat="51.699718991294503" lon="0.846869274973869">
        <ele>32.822265600000001</ele>
        <time>2012-12-04T11:49:03Z</time>
      </trkpt>
      <trkpt lat="51.699720164760947" lon="0.847121989354491">
        <ele>33.302856400000003</ele>
        <time>2012-12-04T11:49:09Z</time>
      </trkpt>
      <trkpt lat="51.699721338227391" lon="0.847315359860659">
        <ele>31.8607178</ele>
        <time>2012-12-04T11:49:14Z</time>
      </trkpt>
      <trkpt lat="51.699732067063451" lon="0.84754703566432">
        <ele>32.341552700000001</ele>
        <time>2012-12-04T11:49:20Z</time>
      </trkpt>
      <trkpt lat="51.699723936617374" lon="0.847877198830247">
        <ele>31.380127000000002</ele>
        <time>2012-12-04T11:49:28Z</time>
      </trkpt>
      <trkpt lat="51.699717398732901" lon="0.84816075861454">
        <ele>33.783447299999999</ele>
        <time>2012-12-04T11:49:35Z</time>
      </trkpt>
      <trkpt lat="51.699719661846757" lon="0.848382040858269">
        <ele>33.783447299999999</ele>
        <time>2012-12-04T11:49:41Z</time>
      </trkpt>
      <trkpt lat="51.69974179007113" lon="0.848492095246911">
        <ele>33.302856400000003</ele>
        <time>2012-12-04T11:49:46Z</time>
      </trkpt>
      <trkpt lat="51.699782526120543" lon="0.848735338076949">
        <ele>32.822265600000001</ele>
        <time>2012-12-04T11:49:53Z</time>
      </trkpt>
      <trkpt lat="51.699804989621043" lon="0.848971540108323">
        <ele>32.822265600000001</ele>
        <time>2012-12-04T11:49:59Z</time>
      </trkpt>
      <trkpt lat="51.699830973520875" lon="0.849257698282599">
        <ele>33.783447299999999</ele>
        <time>2012-12-04T11:50:06Z</time>
      </trkpt>
      <trkpt lat="51.699842037633061" lon="0.849534720182419">
        <ele>33.783447299999999</ele>
        <time>2012-12-04T11:50:13Z</time>
      </trkpt>
      <trkpt lat="51.699852934107184" lon="0.849771928042173">
        <ele>33.783447299999999</ele>
        <time>2012-12-04T11:50:19Z</time>
      </trkpt>
      <trkpt lat="51.69986885972321" lon="0.850020367652178">
        <ele>33.302856400000003</ele>
        <time>2012-12-04T11:50:25Z</time>
      </trkpt>
      <trkpt lat="51.699885036796331" lon="0.850392859429121">
        <ele>31.380127000000002</ele>
        <time>2012-12-04T11:50:34Z</time>
      </trkpt>
      <trkpt lat="51.699893837794662" lon="0.850641131401062">
        <ele>30.899536099999999</ele>
        <time>2012-12-04T11:50:40Z</time>
      </trkpt>
      <trkpt lat="51.699914122000337" lon="0.850968360900879">
        <ele>30.418823199999999</ele>
        <time>2012-12-04T11:50:48Z</time>
      </trkpt>
      <trkpt lat="51.699932226911187" lon="0.851296680048108">
        <ele>30.418823199999999</ele>
        <time>2012-12-04T11:50:56Z</time>
      </trkpt>
      <trkpt lat="51.699944296851754" lon="0.851541766896844">
        <ele>29.4575195</ele>
        <time>2012-12-04T11:51:02Z</time>
      </trkpt>
      <trkpt lat="51.699965167790651" lon="0.851824739947915">
        <ele>28.496215800000002</ele>
        <time>2012-12-04T11:51:09Z</time>
      </trkpt>
      <trkpt lat="51.699980339035392" lon="0.852094637230039">
        <ele>28.015502900000001</ele>
        <time>2012-12-04T11:51:16Z</time>
      </trkpt>
      <trkpt lat="51.70000079087913" lon="0.852370820939541">
        <ele>27.5349121</ele>
        <time>2012-12-04T11:51:23Z</time>
      </trkpt>
      <trkpt lat="51.700010765343904" lon="0.852605430409312">
        <ele>27.054321300000002</ele>
        <time>2012-12-04T11:51:29Z</time>
      </trkpt>
      <trkpt lat="51.700025936588645" lon="0.852870885282755">
        <ele>27.054321300000002</ele>
        <time>2012-12-04T11:51:36Z</time>
      </trkpt>
      <trkpt lat="51.700042868033051" lon="0.853109434247017">
        <ele>26.573608400000001</ele>
        <time>2012-12-04T11:51:42Z</time>
      </trkpt>
      <trkpt lat="51.700061392039061" lon="0.853342367336154">
        <ele>26.573608400000001</ele>
        <time>2012-12-04T11:51:48Z</time>
      </trkpt>
      <trkpt lat="51.70009508728981" lon="0.853563565760851">
        <ele>26.092895500000001</ele>
        <time>2012-12-04T11:51:54Z</time>
      </trkpt>
      <trkpt lat="51.700162058696151" lon="0.853691892698407">
        <ele>26.573608400000001</ele>
        <time>2012-12-04T11:51:59Z</time>
      </trkpt>
      <trkpt lat="51.700234729796648" lon="0.853857435286045">
        <ele>25.131713900000001</ele>
        <time>2012-12-04T11:52:05Z</time>
      </trkpt>
      <trkpt lat="51.700264737010002" lon="0.853907726705074">
        <ele>25.612304699999999</ele>
        <time>2012-12-04T11:52:07Z</time>
      </trkpt>
      <trkpt lat="51.700290637090802" lon="0.854062540456653">
        <ele>24.651001000000001</ele>
        <time>2012-12-04T11:52:11Z</time>
      </trkpt>
      <trkpt lat="51.700299186632037" lon="0.854336293414235">
        <ele>25.131713900000001</ele>
        <time>2012-12-04T11:52:18Z</time>
      </trkpt>
      <trkpt lat="51.700308825820684" lon="0.854527484625578">
        <ele>24.1702881</ele>
        <time>2012-12-04T11:52:23Z</time>
      </trkpt>
      <trkpt lat="51.700313435867429" lon="0.85470057092607">
        <ele>23.6895752</ele>
        <time>2012-12-04T11:52:28Z</time>
      </trkpt>
      <trkpt lat="51.700319219380617" lon="0.854973569512367">
        <ele>22.247558600000001</ele>
        <time>2012-12-04T11:52:35Z</time>
      </trkpt>
      <trkpt lat="51.700319135561585" lon="0.85524003021419">
        <ele>22.728271500000002</ele>
        <time>2012-12-04T11:52:42Z</time>
      </trkpt>
      <trkpt lat="51.700319135561585" lon="0.855499031022191">
        <ele>22.728271500000002</ele>
        <time>2012-12-04T11:52:49Z</time>
      </trkpt>
      <trkpt lat="51.700328858569264" lon="0.855768760666251">
        <ele>23.6895752</ele>
        <time>2012-12-04T11:52:56Z</time>
      </trkpt>
      <trkpt lat="51.700319638475776" lon="0.856001358479261">
        <ele>23.6895752</ele>
        <time>2012-12-04T11:53:02Z</time>
      </trkpt>
      <trkpt lat="51.700311759486794" lon="0.856277626007795">
        <ele>23.6895752</ele>
        <time>2012-12-04T11:53:09Z</time>
      </trkpt>
      <trkpt lat="51.700326260179281" lon="0.856560934334993">
        <ele>24.651001000000001</ele>
        <time>2012-12-04T11:53:16Z</time>
      </trkpt>
      <trkpt lat="51.700332630425692" lon="0.856843320652843">
        <ele>23.6895752</ele>
        <time>2012-12-04T11:53:23Z</time>
      </trkpt>
      <trkpt lat="51.700349729508162" lon="0.857088323682547">
        <ele>23.6895752</ele>
        <time>2012-12-04T11:53:29Z</time>
      </trkpt>
      <trkpt lat="51.700361631810665" lon="0.857323687523603">
        <ele>22.247558600000001</ele>
        <time>2012-12-04T11:53:35Z</time>
      </trkpt>
      <trkpt lat="51.700362637639046" lon="0.857555782422423">
        <ele>20.805664100000001</ele>
        <time>2012-12-04T11:53:41Z</time>
      </trkpt>
      <trkpt lat="51.700372863560915" lon="0.857823919504881">
        <ele>20.805664100000001</ele>
        <time>2012-12-04T11:53:48Z</time>
      </trkpt>
      <trkpt lat="51.700382418930531" lon="0.858093565329909">
        <ele>20.324951200000001</ele>
        <time>2012-12-04T11:53:55Z</time>
      </trkpt>
      <trkpt lat="51.700385771691799" lon="0.858371341601014">
        <ele>20.324951200000001</ele>
        <time>2012-12-04T11:54:02Z</time>
      </trkpt>
      <trkpt lat="51.700405469164252" lon="0.858681472018361">
        <ele>20.324951200000001</ele>
        <time>2012-12-04T11:54:10Z</time>
      </trkpt>
      <trkpt lat="51.700426759198308" lon="0.858955141156912">
        <ele>21.7669678</ele>
        <time>2012-12-04T11:54:17Z</time>
      </trkpt>
      <trkpt lat="51.700453581288457" lon="0.859182290732861">
        <ele>21.286377000000002</ele>
        <time>2012-12-04T11:54:23Z</time>
      </trkpt>
      <trkpt lat="51.700463723391294" lon="0.859459899365902">
        <ele>21.7669678</ele>
        <time>2012-12-04T11:54:30Z</time>
      </trkpt>
      <trkpt lat="51.700469423085451" lon="0.859698364511132">
        <ele>23.208984399999999</ele>
        <time>2012-12-04T11:54:36Z</time>
      </trkpt>
      <trkpt lat="51.700474619865417" lon="0.859983516857028">
        <ele>22.247558600000001</ele>
        <time>2012-12-04T11:54:43Z</time>
      </trkpt>
      <trkpt lat="51.700477888807654" lon="0.860259030014277">
        <ele>21.7669678</ele>
        <time>2012-12-04T11:54:50Z</time>
      </trkpt>
      <trkpt lat="51.700494736433029" lon="0.860521718859673">
        <ele>23.208984399999999</ele>
        <time>2012-12-04T11:54:57Z</time>
      </trkpt>
      <trkpt lat="51.700494820252061" lon="0.860790777951479">
        <ele>22.247558600000001</ele>
        <time>2012-12-04T11:55:04Z</time>
      </trkpt>
      <trkpt lat="51.700489288195968" lon="0.860983058810234">
        <ele>20.324951200000001</ele>
        <time>2012-12-04T11:55:09Z</time>
      </trkpt>
      <trkpt lat="51.700481241568923" lon="0.861212639138103">
        <ele>19.3637695</ele>
        <time>2012-12-04T11:55:15Z</time>
      </trkpt>
      <trkpt lat="51.700483839958906" lon="0.861439369618893">
        <ele>17.921752900000001</ele>
        <time>2012-12-04T11:55:21Z</time>
      </trkpt>
      <trkpt lat="51.700491635128856" lon="0.861710021272302">
        <ele>19.3637695</ele>
        <time>2012-12-04T11:55:28Z</time>
      </trkpt>
      <trkpt lat="51.700487360358238" lon="0.861952593550086">
        <ele>19.3637695</ele>
        <time>2012-12-04T11:55:34Z</time>
      </trkpt>
      <trkpt lat="51.700485935434699" lon="0.862226597964764">
        <ele>18.402343800000001</ele>
        <time>2012-12-04T11:55:41Z</time>
      </trkpt>
      <trkpt lat="51.70048694126308" lon="0.862455423921347">
        <ele>18.8830566</ele>
        <time>2012-12-04T11:55:47Z</time>
      </trkpt>
      <trkpt lat="51.700532119721174" lon="0.862593725323677">
        <ele>17.4411621</ele>
        <time>2012-12-04T11:55:52Z</time>
      </trkpt>
      <trkpt lat="51.700618788599968" lon="0.862651560455561">
        <ele>14.076416</ele>
        <time>2012-12-04T11:55:57Z</time>
      </trkpt>
      <trkpt lat="51.700669666752219" lon="0.862696822732687">
        <ele>12.6343994</ele>
        <time>2012-12-04T11:56:00Z</time>
      </trkpt>
      <trkpt lat="51.700687939301133" lon="0.862912740558386">
        <ele>12.6343994</ele>
        <time>2012-12-04T11:56:06Z</time>
      </trkpt>
      <trkpt lat="51.700677797198296" lon="0.862985830754042">
        <ele>12.1538086</ele>
        <time>2012-12-04T11:56:08Z</time>
      </trkpt>
      <trkpt lat="51.70063647441566" lon="0.863221194595099">
        <ele>13.1151123</ele>
        <time>2012-12-04T11:56:14Z</time>
      </trkpt>
      <trkpt lat="51.70061593875289" lon="0.863427137956023">
        <ele>14.5570068</ele>
        <time>2012-12-04T11:56:19Z</time>
      </trkpt>
      <trkpt lat="51.700615435838699" lon="0.863632326945663">
        <ele>15.9990234</ele>
        <time>2012-12-04T11:56:24Z</time>
      </trkpt>
      <trkpt lat="51.700592720881104" lon="0.863838270306587">
        <ele>15.0377197</ele>
        <time>2012-12-04T11:56:30Z</time>
      </trkpt>
      <trkpt lat="51.700575537979603" lon="0.864064665511251">
        <ele>15.0377197</ele>
        <time>2012-12-04T11:56:36Z</time>
      </trkpt>
      <trkpt lat="51.700557935982943" lon="0.864326264709234">
        <ele>13.5958252</ele>
        <time>2012-12-04T11:56:43Z</time>
      </trkpt>
      <trkpt lat="51.700538489967585" lon="0.864511923864484">
        <ele>9.750610399999999</ele>
        <time>2012-12-04T11:56:48Z</time>
      </trkpt>
      <trkpt lat="51.700518121942878" lon="0.864796238020062">
        <ele>9.750610399999999</ele>
        <time>2012-12-04T11:56:55Z</time>
      </trkpt>
      <trkpt lat="51.700522731989622" lon="0.86503897793591">
        <ele>13.5958252</ele>
        <time>2012-12-04T11:57:01Z</time>
      </trkpt>
      <trkpt lat="51.700507393106818" lon="0.865288758650422">
        <ele>16.960449199999999</ele>
        <time>2012-12-04T11:57:07Z</time>
      </trkpt>
      <trkpt lat="51.700502531602979" lon="0.865586316213012">
        <ele>18.402343800000001</ele>
        <time>2012-12-04T11:57:14Z</time>
      </trkpt>
      <trkpt lat="51.700478391721845" lon="0.865874066948891">
        <ele>19.844360399999999</ele>
        <time>2012-12-04T11:57:21Z</time>
      </trkpt>
      <trkpt lat="51.700466237962246" lon="0.866155782714486">
        <ele>17.4411621</ele>
        <time>2012-12-04T11:57:28Z</time>
      </trkpt>
      <trkpt lat="51.700444277375937" lon="0.866444120183587">
        <ele>18.402343800000001</ele>
        <time>2012-12-04T11:57:35Z</time>
      </trkpt>
      <trkpt lat="51.700410665944219" lon="0.866741258651018">
        <ele>17.921752900000001</ele>
        <time>2012-12-04T11:57:42Z</time>
      </trkpt>
      <trkpt lat="51.700400859117508" lon="0.8669045381248">
        <ele>16.479736299999999</ele>
        <time>2012-12-04T11:57:46Z</time>
      </trkpt>
      <trkpt lat="51.700354758650064" lon="0.867227325215936">
        <ele>12.6343994</ele>
        <time>2012-12-04T11:57:54Z</time>
      </trkpt>
      <trkpt lat="51.700302958488464" lon="0.867466293275356">
        <ele>13.5958252</ele>
        <time>2012-12-04T11:58:00Z</time>
      </trkpt>
      <trkpt lat="51.700184941291809" lon="0.867708530277014">
        <ele>14.076416</ele>
        <time>2012-12-04T11:58:07Z</time>
      </trkpt>
      <trkpt lat="51.700060637667775" lon="0.867871139198542">
        <ele>11.6732178</ele>
        <time>2012-12-04T11:58:13Z</time>
      </trkpt>
      <trkpt lat="51.699929963797331" lon="0.868091583251953">
        <ele>12.6343994</ele>
        <time>2012-12-04T11:58:20Z</time>
      </trkpt>
      <trkpt lat="51.69983952306211" lon="0.868317894637585">
        <ele>13.5958252</ele>
        <time>2012-12-04T11:58:27Z</time>
      </trkpt>
      <trkpt lat="51.699779676273465" lon="0.868493998423219">
        <ele>14.076416</ele>
        <time>2012-12-04T11:58:32Z</time>
      </trkpt>
      <trkpt lat="51.699722930788994" lon="0.868718884885311">
        <ele>16.960449199999999</ele>
        <time>2012-12-04T11:58:38Z</time>
      </trkpt>
      <trkpt lat="51.699622934684157" lon="0.868844278156757">
        <ele>15.518432600000001</ele>
        <time>2012-12-04T11:58:43Z</time>
      </trkpt>
      <trkpt lat="51.699554789811373" lon="0.868853162974119">
        <ele>14.5570068</ele>
        <time>2012-12-04T11:58:46Z</time>
      </trkpt>
      <trkpt lat="51.699517825618386" lon="0.868918122723699">
        <ele>14.076416</ele>
        <time>2012-12-04T11:58:52Z</time>
      </trkpt>
      <trkpt lat="51.69946912676096" lon="0.869117360562086">
        <ele>14.5570068</ele>
        <time>2012-12-04T11:58:58Z</time>
      </trkpt>
      <trkpt lat="51.699428558349609" lon="0.869375187903643">
        <ele>12.6343994</ele>
        <time>2012-12-04T11:59:05Z</time>
      </trkpt>
      <trkpt lat="51.699413135647774" lon="0.869614239782095">
        <ele>9.750610399999999</ele>
        <time>2012-12-04T11:59:12Z</time>
      </trkpt>
      <trkpt lat="51.699371058493853" lon="0.869886064901948">
        <ele>6.8664551</ele>
        <time>2012-12-04T11:59:19Z</time>
      </trkpt>
      <trkpt lat="51.699316492304206" lon="0.870157638564706">
        <ele>12.1538086</ele>
        <time>2012-12-04T11:59:25Z</time>
      </trkpt>
      <trkpt lat="51.699253125116229" lon="0.870443461462855">
        <ele>14.5570068</ele>
        <time>2012-12-04T11:59:32Z</time>
      </trkpt>
      <trkpt lat="51.699205180630088" lon="0.87071729823947">
        <ele>15.518432600000001</ele>
        <time>2012-12-04T11:59:39Z</time>
      </trkpt>
      <trkpt lat="51.699158577248454" lon="0.870952662080526">
        <ele>15.9990234</ele>
        <time>2012-12-04T11:59:45Z</time>
      </trkpt>
      <trkpt lat="51.699099317193031" lon="0.87123186327517">
        <ele>15.518432600000001</ele>
        <time>2012-12-04T11:59:52Z</time>
      </trkpt>
      <trkpt lat="51.699047433212399" lon="0.87146395817399">
        <ele>14.076416</ele>
        <time>2012-12-04T11:59:58Z</time>
      </trkpt>
      <trkpt lat="51.698991861194372" lon="0.871731592342258">
        <ele>11.6732178</ele>
        <time>2012-12-04T12:00:05Z</time>
      </trkpt>
      <trkpt lat="51.698954729363322" lon="0.871972823515534">
        <ele>11.6732178</ele>
        <time>2012-12-04T12:00:11Z</time>
      </trkpt>
      <trkpt lat="51.698892284184694" lon="0.87218564003706">
        <ele>11.192504899999999</ele>
        <time>2012-12-04T12:00:17Z</time>
      </trkpt>
      <trkpt lat="51.698876274749637" lon="0.872211372479796">
        <ele>10.711792000000001</ele>
        <time>2012-12-04T12:00:18Z</time>
      </trkpt>
      <trkpt lat="51.698862863704562" lon="0.872354535385966">
        <ele>10.711792000000001</ele>
        <time>2012-12-04T12:00:24Z</time>
      </trkpt>
      <trkpt lat="51.69882757589221" lon="0.872445227578282">
        <ele>10.231201199999999</ele>
        <time>2012-12-04T12:00:30Z</time>
      </trkpt>
      <trkpt lat="51.698813326656818" lon="0.872461991384625">
        <ele>10.231201199999999</ele>
        <time>2012-12-04T12:00:32Z</time>
      </trkpt>
      <trkpt lat="51.698771584779024" lon="0.872546061873436">
        <ele>13.5958252</ele>
        <time>2012-12-04T12:00:38Z</time>
      </trkpt>
      <trkpt lat="51.69872933998704" lon="0.872600795701146">
        <ele>13.5958252</ele>
        <time>2012-12-04T12:00:42Z</time>
      </trkpt>
      <trkpt lat="51.698668738827109" lon="0.87274462915957">
        <ele>18.8830566</ele>
        <time>2012-12-04T12:00:50Z</time>
      </trkpt>
      <trkpt lat="51.698605958372355" lon="0.872879661619663">
        <ele>15.9990234</ele>
        <time>2012-12-04T12:00:56Z</time>
      </trkpt>
      <trkpt lat="51.698520798236132" lon="0.873095327988267">
        <ele>13.5958252</ele>
        <time>2012-12-04T12:01:03Z</time>
      </trkpt>
      <trkpt lat="51.698421137407422" lon="0.873419959098101">
        <ele>11.6732178</ele>
        <time>2012-12-04T12:01:13Z</time>
      </trkpt>
      <trkpt lat="51.698370259255171" lon="0.873603941872716">
        <ele>11.192504899999999</ele>
        <time>2012-12-04T12:01:18Z</time>
      </trkpt>
      <trkpt lat="51.698308233171701" lon="0.873866630718112">
        <ele>13.5958252</ele>
        <time>2012-12-04T12:01:25Z</time>
      </trkpt>
      <trkpt lat="51.698247967287898" lon="0.87412353605032">
        <ele>12.6343994</ele>
        <time>2012-12-04T12:01:32Z</time>
      </trkpt>
      <trkpt lat="51.698199938982725" lon="0.874394020065665">
        <ele>13.5958252</ele>
        <time>2012-12-04T12:01:39Z</time>
      </trkpt>
      <trkpt lat="51.698157358914614" lon="0.874588061124086">
        <ele>13.1151123</ele>
        <time>2012-12-04T12:01:44Z</time>
      </trkpt>
      <trkpt lat="51.698044873774052" lon="0.874796435236931">
        <ele>12.1538086</ele>
        <time>2012-12-04T12:01:51Z</time>
      </trkpt>
      <trkpt lat="51.697957785800099" lon="0.874943369999528">
        <ele>11.192504899999999</ele>
        <time>2012-12-04T12:01:57Z</time>
      </trkpt>
      <trkpt lat="51.697917720302939" lon="0.875210920348763">
        <ele>13.1151123</ele>
        <time>2012-12-04T12:02:04Z</time>
      </trkpt>
      <trkpt lat="51.697916379198432" lon="0.875410661101341">
        <ele>13.5958252</ele>
        <time>2012-12-04T12:02:09Z</time>
      </trkpt>
      <trkpt lat="51.697904141619802" lon="0.875679636374116">
        <ele>13.5958252</ele>
        <time>2012-12-04T12:02:16Z</time>
      </trkpt>
      <trkpt lat="51.697888299822807" lon="0.875895721837878">
        <ele>12.6343994</ele>
        <time>2012-12-04T12:02:22Z</time>
      </trkpt>
      <trkpt lat="51.697862735018134" lon="0.876135360449553">
        <ele>14.076416</ele>
        <time>2012-12-04T12:02:28Z</time>
      </trkpt>
      <trkpt lat="51.697837337851524" lon="0.876384386792779">
        <ele>16.960449199999999</ele>
        <time>2012-12-04T12:02:34Z</time>
      </trkpt>
      <trkpt lat="51.697829123586416" lon="0.876664677634835">
        <ele>17.921752900000001</ele>
        <time>2012-12-04T12:02:41Z</time>
      </trkpt>
      <trkpt lat="51.697818981483579" lon="0.876908591017127">
        <ele>19.844360399999999</ele>
        <time>2012-12-04T12:02:47Z</time>
      </trkpt>
      <trkpt lat="51.697812024503946" lon="0.877144960686564">
        <ele>21.7669678</ele>
        <time>2012-12-04T12:02:53Z</time>
      </trkpt>
      <trkpt lat="51.697805486619473" lon="0.877424497157335">
        <ele>23.6895752</ele>
        <time>2012-12-04T12:03:00Z</time>
      </trkpt>
      <trkpt lat="51.697782184928656" lon="0.877700261771679">
        <ele>22.247558600000001</ele>
        <time>2012-12-04T12:03:07Z</time>
      </trkpt>
      <trkpt lat="51.697754859924316" lon="0.877925483509898">
        <ele>21.286377000000002</ele>
        <time>2012-12-04T12:03:13Z</time>
      </trkpt>
      <trkpt lat="51.697734659537673" lon="0.878142826259136">
        <ele>21.286377000000002</ele>
        <time>2012-12-04T12:03:19Z</time>
      </trkpt>
      <trkpt lat="51.697735162451863" lon="0.878316918388009">
        <ele>21.286377000000002</ele>
        <time>2012-12-04T12:03:24Z</time>
      </trkpt>
      <trkpt lat="51.697729462757707" lon="0.878519089892507">
        <ele>20.805664100000001</ele>
        <time>2012-12-04T12:03:29Z</time>
      </trkpt>
      <trkpt lat="51.697717979550362" lon="0.878726374357939">
        <ele>19.3637695</ele>
        <time>2012-12-04T12:03:35Z</time>
      </trkpt>
      <trkpt lat="51.697718566283584" lon="0.878976322710514">
        <ele>19.3637695</ele>
        <time>2012-12-04T12:03:41Z</time>
      </trkpt>
      <trkpt lat="51.697685541585088" lon="0.879252338781953">
        <ele>18.8830566</ele>
        <time>2012-12-04T12:03:48Z</time>
      </trkpt>
      <trkpt lat="51.697638183832169" lon="0.879498096182942">
        <ele>18.402343800000001</ele>
        <time>2012-12-04T12:03:55Z</time>
      </trkpt>
      <trkpt lat="51.697568697854877" lon="0.879704961553216">
        <ele>16.960449199999999</ele>
        <time>2012-12-04T12:04:01Z</time>
      </trkpt>
      <trkpt lat="51.697556460276246" lon="0.87973153218627">
        <ele>16.960449199999999</ele>
        <time>2012-12-04T12:04:02Z</time>
      </trkpt>
      <trkpt lat="51.697579426690936" lon="0.87986153550446">
        <ele>14.076416</ele>
        <time>2012-12-04T12:04:06Z</time>
      </trkpt>
      <trkpt lat="51.69756886549294" lon="0.879946695640683">
        <ele>18.402343800000001</ele>
        <time>2012-12-04T12:04:12Z</time>
      </trkpt>
      <trkpt lat="51.697574984282255" lon="0.880003776401281">
        <ele>14.5570068</ele>
        <time>2012-12-04T12:04:16Z</time>
      </trkpt>
      <trkpt lat="51.697570877149701" lon="0.880116680637002">
        <ele>16.479736299999999</ele>
        <time>2012-12-04T12:04:21Z</time>
      </trkpt>
      <trkpt lat="51.697572385892272" lon="0.880140736699104">
        <ele>17.4411621</ele>
        <time>2012-12-04T12:04:28Z</time>
      </trkpt>
      <trkpt lat="51.697564339265227" lon="0.880174180492759">
        <ele>19.844360399999999</ele>
        <time>2012-12-04T12:04:32Z</time>
      </trkpt>
      <trkpt lat="51.697582360357046" lon="0.880434941500425">
        <ele>16.479736299999999</ele>
        <time>2012-12-04T12:04:39Z</time>
      </trkpt>
      <trkpt lat="51.69759426265955" lon="0.880667371675372">
        <ele>13.1151123</ele>
        <time>2012-12-04T12:04:45Z</time>
      </trkpt>
      <trkpt lat="51.697596861049533" lon="0.880795028060675">
        <ele>13.1151123</ele>
        <time>2012-12-04T12:04:49Z</time>
      </trkpt>
      <trkpt lat="51.697636758908629" lon="0.881037432700396">
        <ele>11.192504899999999</ele>
        <time>2012-12-04T12:04:55Z</time>
      </trkpt>
      <trkpt lat="51.697627538815141" lon="0.881120664998889">
        <ele>13.5958252</ele>
        <time>2012-12-04T12:04:57Z</time>
      </trkpt>
      <trkpt lat="51.697632735595107" lon="0.88142023421824">
        <ele>14.076416</ele>
        <time>2012-12-04T12:05:04Z</time>
      </trkpt>
      <trkpt lat="51.697653774172068" lon="0.881702536717057">
        <ele>15.518432600000001</ele>
        <time>2012-12-04T12:05:10Z</time>
      </trkpt>
      <trkpt lat="51.697716219350696" lon="0.881865061819553">
        <ele>14.5570068</ele>
        <time>2012-12-04T12:05:15Z</time>
      </trkpt>
      <trkpt lat="51.697826441377401" lon="0.881885765120387">
        <ele>19.3637695</ele>
        <time>2012-12-04T12:05:22Z</time>
      </trkpt>
      <trkpt lat="51.69783809222281" lon="0.881938235834241">
        <ele>18.402343800000001</ele>
        <time>2012-12-04T12:05:24Z</time>
      </trkpt>
      <trkpt lat="51.697851838544011" lon="0.882025323808193">
        <ele>17.921752900000001</ele>
        <time>2012-12-04T12:05:28Z</time>
      </trkpt>
      <trkpt lat="51.697868434712291" lon="0.882296226918697">
        <ele>23.208984399999999</ele>
        <time>2012-12-04T12:05:35Z</time>
      </trkpt>
      <trkpt lat="51.697925683110952" lon="0.882515665143728">
        <ele>26.092895500000001</ele>
        <time>2012-12-04T12:05:41Z</time>
      </trkpt>
      <trkpt lat="51.697925683110952" lon="0.882550030946732">
        <ele>25.612304699999999</ele>
        <time>2012-12-04T12:05:42Z</time>
      </trkpt>
      <trkpt lat="51.697901459410787" lon="0.882621193304658">
        <ele>26.092895500000001</ele>
        <time>2012-12-04T12:05:44Z</time>
      </trkpt>
      <trkpt lat="51.697859382256866" lon="0.882721524685621">
        <ele>20.805664100000001</ele>
        <time>2012-12-04T12:05:48Z</time>
      </trkpt>
      <trkpt lat="51.697837086394429" lon="0.882954122498631">
        <ele>17.921752900000001</ele>
        <time>2012-12-04T12:05:54Z</time>
      </trkpt>
      <trkpt lat="51.697763577103615" lon="0.883194096386433">
        <ele>19.844360399999999</ele>
        <time>2012-12-04T12:06:00Z</time>
      </trkpt>
      <trkpt lat="51.697718817740679" lon="0.883344886824489">
        <ele>20.805664100000001</ele>
        <time>2012-12-04T12:06:04Z</time>
      </trkpt>
      <trkpt lat="51.697734324261546" lon="0.883428789675236">
        <ele>21.7669678</ele>
        <time>2012-12-04T12:06:06Z</time>
      </trkpt>
      <trkpt lat="51.697748741135001" lon="0.883513782173395">
        <ele>19.3637695</ele>
        <time>2012-12-04T12:06:12Z</time>
      </trkpt>
      <trkpt lat="51.697789561003447" lon="0.88349936529994">
        <ele>18.8830566</ele>
        <time>2012-12-04T12:06:14Z</time>
      </trkpt>
      <trkpt lat="51.69793289154768" lon="0.883429041132331">
        <ele>17.921752900000001</ele>
        <time>2012-12-04T12:06:21Z</time>
      </trkpt>
      <trkpt lat="51.698101786896586" lon="0.883435579016805">
        <ele>17.921752900000001</ele>
        <time>2012-12-04T12:06:28Z</time>
      </trkpt>
      <trkpt lat="51.698231790214777" lon="0.883411439135671">
        <ele>15.9990234</ele>
        <time>2012-12-04T12:06:34Z</time>
      </trkpt>
      <trkpt lat="51.698318878188729" lon="0.883423760533333">
        <ele>14.076416</ele>
        <time>2012-12-04T12:06:38Z</time>
      </trkpt>
      <trkpt lat="51.698363134637475" lon="0.883435495197773">
        <ele>13.1151123</ele>
        <time>2012-12-04T12:06:43Z</time>
      </trkpt>
      <trkpt lat="51.698381658643484" lon="0.883505987003446">
        <ele>12.6343994</ele>
        <time>2012-12-04T12:06:46Z</time>
      </trkpt>
      <trkpt lat="51.698401859030128" lon="0.883625261485577">
        <ele>15.9990234</ele>
        <time>2012-12-04T12:06:50Z</time>
      </trkpt>
      <trkpt lat="51.698436979204416" lon="0.883903875946999">
        <ele>17.4411621</ele>
        <time>2012-12-04T12:06:57Z</time>
      </trkpt>
      <trkpt lat="51.698456676676869" lon="0.884028933942318">
        <ele>18.402343800000001</ele>
        <time>2012-12-04T12:07:02Z</time>
      </trkpt>
      <trkpt lat="51.69843228533864" lon="0.884231440722942">
        <ele>17.921752900000001</ele>
        <time>2012-12-04T12:07:08Z</time>
      </trkpt>
      <trkpt lat="51.698457933962345" lon="0.884452639147639">
        <ele>15.518432600000001</ele>
        <time>2012-12-04T12:07:14Z</time>
      </trkpt>
      <trkpt lat="51.698503363877535" lon="0.884709879755974">
        <ele>14.076416</ele>
        <time>2012-12-04T12:07:21Z</time>
      </trkpt>
      <trkpt lat="51.698526162654161" lon="0.884986398741603">
        <ele>15.0377197</ele>
        <time>2012-12-04T12:07:28Z</time>
      </trkpt>
      <trkpt lat="51.698541669175029" lon="0.885215979069471">
        <ele>14.5570068</ele>
        <time>2012-12-04T12:07:34Z</time>
      </trkpt>
      <trkpt lat="51.698571089655161" lon="0.885446397587657">
        <ele>12.1538086</ele>
        <time>2012-12-04T12:07:40Z</time>
      </trkpt>
      <trkpt lat="51.698619034141302" lon="0.885718893259764">
        <ele>10.711792000000001</ele>
        <time>2012-12-04T12:07:47Z</time>
      </trkpt>
      <trkpt lat="51.698655327782035" lon="0.886004464700818">
        <ele>11.6732178</ele>
        <time>2012-12-04T12:07:54Z</time>
      </trkpt>
      <trkpt lat="51.698680641129613" lon="0.886198421940207">
        <ele>11.6732178</ele>
        <time>2012-12-04T12:07:59Z</time>
      </trkpt>
      <trkpt lat="51.698724394664168" lon="0.886517437174916">
        <ele>10.711792000000001</ele>
        <time>2012-12-04T12:08:07Z</time>
      </trkpt>
      <trkpt lat="51.698776530101895" lon="0.886789681389928">
        <ele>10.711792000000001</ele>
        <time>2012-12-04T12:08:14Z</time>
      </trkpt>
      <trkpt lat="51.69881827197969" lon="0.887022195383906">
        <ele>11.192504899999999</ele>
        <time>2012-12-04T12:08:20Z</time>
      </trkpt>
      <trkpt lat="51.698863869532943" lon="0.887285135686398">
        <ele>11.192504899999999</ele>
        <time>2012-12-04T12:08:27Z</time>
      </trkpt>
      <trkpt lat="51.698905862867832" lon="0.887558134272695">
        <ele>11.6732178</ele>
        <time>2012-12-04T12:08:34Z</time>
      </trkpt>
      <trkpt lat="51.698945760726929" lon="0.887748990207911">
        <ele>12.1538086</ele>
        <time>2012-12-04T12:08:39Z</time>
      </trkpt>
      <trkpt lat="51.698990436270833" lon="0.888022659346461">
        <ele>10.711792000000001</ele>
        <time>2012-12-04T12:08:46Z</time>
      </trkpt>
      <trkpt lat="51.698999824002385" lon="0.888256682083011">
        <ele>10.231201199999999</ele>
        <time>2012-12-04T12:08:52Z</time>
      </trkpt>
      <trkpt lat="51.699001668021083" lon="0.888534123077989">
        <ele>7.8278809</ele>
        <time>2012-12-04T12:08:59Z</time>
      </trkpt>
      <trkpt lat="51.699017425999045" lon="0.888772085309029">
        <ele>7.347168</ele>
        <time>2012-12-04T12:09:05Z</time>
      </trkpt>
      <trkpt lat="51.699040476232767" lon="0.889043239876628">
        <ele>9.269897500000001</ele>
        <time>2012-12-04T12:09:12Z</time>
      </trkpt>
      <trkpt lat="51.699070986360312" lon="0.889336774125695">
        <ele>10.711792000000001</ele>
        <time>2012-12-04T12:09:19Z</time>
      </trkpt>
      <trkpt lat="51.69908506795764" lon="0.889578759670258">
        <ele>12.1538086</ele>
        <time>2012-12-04T12:09:25Z</time>
      </trkpt>
      <trkpt lat="51.699098395183682" lon="0.889786463230848">
        <ele>14.076416</ele>
        <time>2012-12-04T12:09:30Z</time>
      </trkpt>
      <trkpt lat="51.699098479002714" lon="0.890019731596112">
        <ele>14.5570068</ele>
        <time>2012-12-04T12:09:36Z</time>
      </trkpt>
      <trkpt lat="51.69911926612258" lon="0.890181418508291">
        <ele>14.5570068</ele>
        <time>2012-12-04T12:09:40Z</time>
      </trkpt>
      <trkpt lat="51.699151620268822" lon="0.890446035191417">
        <ele>12.6343994</ele>
        <time>2012-12-04T12:09:47Z</time>
      </trkpt>
      <trkpt lat="51.699171736836433" lon="0.890683829784393">
        <ele>12.1538086</ele>
        <time>2012-12-04T12:09:53Z</time>
      </trkpt>
      <trkpt lat="51.699197385460138" lon="0.890876781195402">
        <ele>10.711792000000001</ele>
        <time>2012-12-04T12:09:58Z</time>
      </trkpt>
      <trkpt lat="51.699242983013391" lon="0.891139637678862">
        <ele>8.789184600000001</ele>
        <time>2012-12-04T12:10:05Z</time>
      </trkpt>
      <trkpt lat="51.699275840073824" lon="0.891370140016079">
        <ele>8.308593800000001</ele>
        <time>2012-12-04T12:10:11Z</time>
      </trkpt>
      <trkpt lat="51.699305763468146" lon="0.891632158309221">
        <ele>7.8278809</ele>
        <time>2012-12-04T12:10:18Z</time>
      </trkpt>
      <trkpt lat="51.699346164241433" lon="0.891845226287842">
        <ele>7.8278809</ele>
        <time>2012-12-04T12:10:24Z</time>
      </trkpt>
      <trkpt lat="51.699357395991683" lon="0.891878334805369">
        <ele>7.8278809</ele>
        <time>2012-12-04T12:10:25Z</time>
      </trkpt>
      <trkpt lat="51.69944666326046" lon="0.89213146828115">
        <ele>8.789184600000001</ele>
        <time>2012-12-04T12:10:32Z</time>
      </trkpt>
      <trkpt lat="51.699486477300525" lon="0.892322324216366">
        <ele>8.308593800000001</ele>
        <time>2012-12-04T12:10:37Z</time>
      </trkpt>
      <trkpt lat="51.699516819790006" lon="0.892528938129544">
        <ele>7.347168</ele>
        <time>2012-12-04T12:10:42Z</time>
      </trkpt>
      <trkpt lat="51.699591167271137" lon="0.892822472378612">
        <ele>7.8278809</ele>
        <time>2012-12-04T12:10:50Z</time>
      </trkpt>
      <trkpt lat="51.69963089749217" lon="0.893038641661406">
        <ele>6.8664551</ele>
        <time>2012-12-04T12:10:56Z</time>
      </trkpt>
      <trkpt lat="51.699663838371634" lon="0.893231760710478">
        <ele>10.711792000000001</ele>
        <time>2012-12-04T12:11:01Z</time>
      </trkpt>
      <trkpt lat="51.699720835313201" lon="0.893468717113137">
        <ele>10.711792000000001</ele>
        <time>2012-12-04T12:11:07Z</time>
      </trkpt>
      <trkpt lat="51.699762074276805" lon="0.893718078732491">
        <ele>12.1538086</ele>
        <time>2012-12-04T12:11:13Z</time>
      </trkpt>
      <trkpt lat="51.69980825856328" lon="0.893911365419626">
        <ele>11.6732178</ele>
        <time>2012-12-04T12:11:18Z</time>
      </trkpt>
      <trkpt lat="51.699859723448753" lon="0.894122337922454">
        <ele>7.8278809</ele>
        <time>2012-12-04T12:11:24Z</time>
      </trkpt>
      <trkpt lat="51.699897861108184" lon="0.894303889945149">
        <ele>7.347168</ele>
        <time>2012-12-04T12:11:29Z</time>
      </trkpt>
      <trkpt lat="51.699903979897499" lon="0.894577978178859">
        <ele>8.308593800000001</ele>
        <time>2012-12-04T12:11:36Z</time>
      </trkpt>
      <trkpt lat="51.699814293533564" lon="0.894722817465663">
        <ele>6.3858643</ele>
        <time>2012-12-04T12:11:41Z</time>
      </trkpt>
      <trkpt lat="51.69983709231019" lon="0.894869165495038">
        <ele>7.347168</ele>
        <time>2012-12-04T12:11:45Z</time>
      </trkpt>
      <trkpt lat="51.699908673763275" lon="0.895169069990516">
        <ele>5.4245605</ele>
        <time>2012-12-04T12:11:53Z</time>
      </trkpt>
      <trkpt lat="51.699968436732888" lon="0.895389765501022">
        <ele>3.982666</ele>
        <time>2012-12-04T12:11:59Z</time>
      </trkpt>
      <trkpt lat="51.700030462816358" lon="0.895604426041245">
        <ele>3.0212402</ele>
        <time>2012-12-04T12:12:05Z</time>
      </trkpt>
      <trkpt lat="51.700088465586305" lon="0.895814727991819">
        <ele>2.5406494</ele>
        <time>2012-12-04T12:12:11Z</time>
      </trkpt>
      <trkpt lat="51.700151497498155" lon="0.896041039377451">
        <ele>3.0212402</ele>
        <time>2012-12-04T12:12:18Z</time>
      </trkpt>
      <trkpt lat="51.700236238539219" lon="0.896288640797138">
        <ele>4.4632568</ele>
        <time>2012-12-04T12:12:25Z</time>
      </trkpt>
      <trkpt lat="51.700324835255742" lon="0.896536996588111">
        <ele>3.5019531</ele>
        <time>2012-12-04T12:12:32Z</time>
      </trkpt>
      <trkpt lat="51.700378730893135" lon="0.896754087880254">
        <ele>3.982666</ele>
        <time>2012-12-04T12:12:38Z</time>
      </trkpt>
      <trkpt lat="51.700410665944219" lon="0.896971933543682">
        <ele>3.982666</ele>
        <time>2012-12-04T12:12:44Z</time>
      </trkpt>
      <trkpt lat="51.700454335659742" lon="0.897196484729648">
        <ele>3.0212402</ele>
        <time>2012-12-04T12:12:50Z</time>
      </trkpt>
      <trkpt lat="51.700532035902143" lon="0.897447690367699">
        <ele>1.5793457</ele>
        <time>2012-12-04T12:12:57Z</time>
      </trkpt>
      <trkpt lat="51.700619962066412" lon="0.897738039493561">
        <ele>1.5793457</ele>
        <time>2012-12-04T12:13:05Z</time>
      </trkpt>
      <trkpt lat="51.700691962614655" lon="0.897956388071179">
        <ele>-0.3433838</ele>
        <time>2012-12-04T12:13:11Z</time>
      </trkpt>
      <trkpt lat="51.700746864080429" lon="0.89817482046783">
        <ele>0.1374512</ele>
        <time>2012-12-04T12:13:17Z</time>
      </trkpt>
      <trkpt lat="51.700831772759557" lon="0.898401383310556">
        <ele>0.618042</ele>
        <time>2012-12-04T12:13:23Z</time>
      </trkpt>
      <trkpt lat="51.700913161039352" lon="0.898661725223064">
        <ele>1.0986328</ele>
        <time>2012-12-04T12:13:30Z</time>
      </trkpt>
      <trkpt lat="51.700983317568898" lon="0.898889880627394">
        <ele>3.5019531</ele>
        <time>2012-12-04T12:13:36Z</time>
      </trkpt>
      <trkpt lat="51.701062358915806" lon="0.899163382127881">
        <ele>4.4632568</ele>
        <time>2012-12-04T12:13:43Z</time>
      </trkpt>
      <trkpt lat="51.701129917055368" lon="0.899379635229707">
        <ele>3.5019531</ele>
        <time>2012-12-04T12:13:49Z</time>
      </trkpt>
      <trkpt lat="51.70118716545403" lon="0.899551883339882">
        <ele>2.5406494</ele>
        <time>2012-12-04T12:13:54Z</time>
      </trkpt>
      <trkpt lat="51.701256483793259" lon="0.899818260222673">
        <ele>2.5406494</ele>
        <time>2012-12-04T12:14:01Z</time>
      </trkpt>
      <trkpt lat="51.701329071074724" lon="0.900105172768235">
        <ele>3.0212402</ele>
        <time>2012-12-04T12:14:08Z</time>
      </trkpt>
      <trkpt lat="51.70138699002564" lon="0.900354366749525">
        <ele>1.0986328</ele>
        <time>2012-12-04T12:14:15Z</time>
      </trkpt>
      <trkpt lat="51.701455134898424" lon="0.900575565174222">
        <ele>0.1374512</ele>
        <time>2012-12-04T12:14:21Z</time>
      </trkpt>
      <trkpt lat="51.701533086597919" lon="0.900833895429969">
        <ele>-1.7852783</ele>
        <time>2012-12-04T12:14:28Z</time>
      </trkpt>
      <trkpt lat="51.701631573960185" lon="0.901142936199903">
        <ele>-2.2659912</ele>
        <time>2012-12-04T12:14:37Z</time>
      </trkpt>
      <trkpt lat="51.701727127656341" lon="0.901354663074017">
        <ele>-2.2659912</ele>
        <time>2012-12-04T12:14:43Z</time>
      </trkpt>
      <trkpt lat="51.701834835112095" lon="0.901584578678012">
        <ele>-1.3046875</ele>
        <time>2012-12-04T12:14:50Z</time>
      </trkpt>
      <trkpt lat="51.701923683285713" lon="0.901772333309054">
        <ele>-1.3046875</ele>
        <time>2012-12-04T12:14:56Z</time>
      </trkpt>
      <trkpt lat="51.702033821493387" lon="0.902017587795854">
        <ele>1.0986328</ele>
        <time>2012-12-04T12:15:03Z</time>
      </trkpt>
      <trkpt lat="51.702122837305069" lon="0.902310870587826">
        <ele>1.5793457</ele>
        <time>2012-12-04T12:15:11Z</time>
      </trkpt>
      <trkpt lat="51.702224425971508" lon="0.902562495321035">
        <ele>2.0600586</ele>
        <time>2012-12-04T12:15:18Z</time>
      </trkpt>
      <trkpt lat="51.702309334650636" lon="0.902789058163762">
        <ele>0.618042</ele>
        <time>2012-12-04T12:15:25Z</time>
      </trkpt>
      <trkpt lat="51.702359039336443" lon="0.902888970449567">
        <ele>-0.8240967</ele>
        <time>2012-12-04T12:15:29Z</time>
      </trkpt>
      <trkpt lat="51.702525168657303" lon="0.903057027608156">
        <ele>-1.3046875</ele>
        <time>2012-12-04T12:15:37Z</time>
      </trkpt>
      <trkpt lat="51.702608317136765" lon="0.90319499373436">
        <ele>0.618042</ele>
        <time>2012-12-04T12:15:42Z</time>
      </trkpt>
      <trkpt lat="51.702670594677329" lon="0.903407139703631">
        <ele>2.5406494</ele>
        <time>2012-12-04T12:15:48Z</time>
      </trkpt>
      <trkpt lat="51.702724741771817" lon="0.903638731688261">
        <ele>1.0986328</ele>
        <time>2012-12-04T12:15:55Z</time>
      </trkpt>
      <trkpt lat="51.70273513533175" lon="0.903643928468227">
        <ele>-2.2659912</ele>
        <time>2012-12-04T12:16:01Z</time>
      </trkpt>
      <trkpt lat="51.702740835025907" lon="0.903716264292598">
        <ele>-4.6693115</ele>
        <time>2012-12-04T12:16:12Z</time>
      </trkpt>
      <trkpt lat="51.702828593552113" lon="0.904012564569712">
        <ele>-2.7467041</ele>
        <time>2012-12-04T12:16:19Z</time>
      </trkpt>
      <trkpt lat="51.70290076173842" lon="0.904273577034473">
        <ele>-2.2659912</ele>
        <time>2012-12-04T12:16:25Z</time>
      </trkpt>
      <trkpt lat="51.702979970723391" lon="0.90451774187386">
        <ele>-1.7852783</ele>
        <time>2012-12-04T12:16:31Z</time>
      </trkpt>
      <trkpt lat="51.703041158616543" lon="0.904732067137957">
        <ele>-2.2659912</ele>
        <time>2012-12-04T12:16:36Z</time>
      </trkpt>
      <trkpt lat="51.703089689835906" lon="0.90493499301374">
        <ele>-2.7467041</ele>
        <time>2012-12-04T12:16:41Z</time>
      </trkpt>
      <trkpt lat="51.70311626046896" lon="0.905020572245121">
        <ele>-3.2272949</ele>
        <time>2012-12-04T12:16:43Z</time>
      </trkpt>
      <trkpt lat="51.703169066458941" lon="0.905194161459804">
        <ele>-3.2272949</ele>
        <time>2012-12-04T12:16:47Z</time>
      </trkpt>
      <trkpt lat="51.703240731731057" lon="0.90544612146914">
        <ele>-3.2272949</ele>
        <time>2012-12-04T12:16:53Z</time>
      </trkpt>
      <trkpt lat="51.703303763642907" lon="0.905647370964289">
        <ele>-4.6693115</ele>
        <time>2012-12-04T12:16:58Z</time>
      </trkpt>
      <trkpt lat="51.703341985121369" lon="0.905920285731554">
        <ele>-2.7467041</ele>
        <time>2012-12-04T12:17:04Z</time>
      </trkpt>
      <trkpt lat="51.703244587406516" lon="0.90619663707912">
        <ele>-3.2272949</ele>
        <time>2012-12-04T12:17:11Z</time>
      </trkpt>
      <trkpt lat="51.703268559649587" lon="0.906406184658408">
        <ele>-4.6693115</ele>
        <time>2012-12-04T12:17:16Z</time>
      </trkpt>
      <trkpt lat="51.703346259891987" lon="0.906635262072086">
        <ele>-6.5919189</ele>
        <time>2012-12-04T12:17:22Z</time>
      </trkpt>
      <trkpt lat="51.703443070873618" lon="0.906860064715147">
        <ele>-8.0339355</ele>
        <time>2012-12-04T12:17:28Z</time>
      </trkpt>
      <trkpt lat="51.70351741835475" lon="0.907046226784587">
        <ele>-11.3984375</ele>
        <time>2012-12-04T12:17:33Z</time>
      </trkpt>
      <trkpt lat="51.703588329255581" lon="0.907264575362206">
        <ele>-13.801757800000001</ele>
        <time>2012-12-04T12:17:39Z</time>
      </trkpt>
      <trkpt lat="51.703699724748731" lon="0.907482085749507">
        <ele>-11.8791504</ele>
        <time>2012-12-04T12:17:45Z</time>
      </trkpt>
      <trkpt lat="51.703793099150062" lon="0.907677719369531">
        <ele>-11.8791504</ele>
        <time>2012-12-04T12:17:51Z</time>
      </trkpt>
      <trkpt lat="51.703883875161409" lon="0.907868323847651">
        <ele>-9.4758301</ele>
        <time>2012-12-04T12:17:57Z</time>
      </trkpt>
      <trkpt lat="51.703982697799802" lon="0.908082062378526">
        <ele>-9.956543</ele>
        <time>2012-12-04T12:18:04Z</time>
      </trkpt>
      <trkpt lat="51.70407054014504" lon="0.90828163549304">
        <ele>-9.4758301</ele>
        <time>2012-12-04T12:18:10Z</time>
      </trkpt>
      <trkpt lat="51.70411647297442" lon="0.908441562205553">
        <ele>-10.9178467</ele>
        <time>2012-12-04T12:18:15Z</time>
      </trkpt>
      <trkpt lat="51.704219821840525" lon="0.908552790060639">
        <ele>-10.4372559</ele>
        <time>2012-12-04T12:18:21Z</time>
      </trkpt>
      <trkpt lat="51.704391734674573" lon="0.908593526110053">
        <ele>-8.5146484</ele>
        <time>2012-12-04T12:18:28Z</time>
      </trkpt>
      <trkpt lat="51.704532634466887" lon="0.908676339313388">
        <ele>-8.5146484</ele>
        <time>2012-12-04T12:18:34Z</time>
      </trkpt>
      <trkpt lat="51.704674959182739" lon="0.908757392317057">
        <ele>-8.0339355</ele>
        <time>2012-12-04T12:18:40Z</time>
      </trkpt>
      <trkpt lat="51.704862462356687" lon="0.908753369003534">
        <ele>-5.1499023</ele>
        <time>2012-12-04T12:18:47Z</time>
      </trkpt>
      <trkpt lat="51.705019036307931" lon="0.908687235787511">
        <ele>-4.6693115</ele>
        <time>2012-12-04T12:18:53Z</time>
      </trkpt>
      <trkpt lat="51.705162283033133" lon="0.908553879708052">
        <ele>-3.2272949</ele>
        <time>2012-12-04T12:19:00Z</time>
      </trkpt>
      <trkpt lat="51.705320198088884" lon="0.908504258841276">
        <ele>-0.8240967</ele>
        <time>2012-12-04T12:19:07Z</time>
      </trkpt>
      <trkpt lat="51.705425558611751" lon="0.908555639907718">
        <ele>-1.7852783</ele>
        <time>2012-12-04T12:19:12Z</time>
      </trkpt>
      <trkpt lat="51.705493368208408" lon="0.908713974058628">
        <ele>-1.7852783</ele>
        <time>2012-12-04T12:19:17Z</time>
      </trkpt>
      <trkpt lat="51.705548437312245" lon="0.909012872725725">
        <ele>-1.3046875</ele>
        <time>2012-12-04T12:19:25Z</time>
      </trkpt>
      <trkpt lat="51.705620521679521" lon="0.909296097233891">
        <ele>-1.3046875</ele>
        <time>2012-12-04T12:19:33Z</time>
      </trkpt>
      <trkpt lat="51.705672824755311" lon="0.909547386690974">
        <ele>-1.7852783</ele>
        <time>2012-12-04T12:19:40Z</time>
      </trkpt>
      <trkpt lat="51.705722780898213" lon="0.909798759967089">
        <ele>-4.1885986</ele>
        <time>2012-12-04T12:19:47Z</time>
      </trkpt>
      <trkpt lat="51.705721188336611" lon="0.910028172656894">
        <ele>-5.6304932</ele>
        <time>2012-12-04T12:19:54Z</time>
      </trkpt>
      <trkpt lat="51.705709872767329" lon="0.910324472934008">
        <ele>-8.5146484</ele>
        <time>2012-12-04T12:20:02Z</time>
      </trkpt>
      <trkpt lat="51.70569428242743" lon="0.910557489842176">
        <ele>-8.5146484</ele>
        <time>2012-12-04T12:20:08Z</time>
      </trkpt>
      <trkpt lat="51.705683218315244" lon="0.910831075161695">
        <ele>-7.0725098</ele>
        <time>2012-12-04T12:20:15Z</time>
      </trkpt>
      <trkpt lat="51.705689840018749" lon="0.911140199750662">
        <ele>-7.0725098</ele>
        <time>2012-12-04T12:20:23Z</time>
      </trkpt>
      <trkpt lat="51.705686571076512" lon="0.911388220265508">
        <ele>-5.6304932</ele>
        <time>2012-12-04T12:20:29Z</time>
      </trkpt>
      <trkpt lat="51.705684224143624" lon="0.911634229123592">
        <ele>-3.2272949</ele>
        <time>2012-12-04T12:20:35Z</time>
      </trkpt>
      <trkpt lat="51.70570308342576" lon="0.911936899647117">
        <ele>-3.7078857</ele>
        <time>2012-12-04T12:20:43Z</time>
      </trkpt>
      <trkpt lat="51.705725379288197" lon="0.91221165843308">
        <ele>-2.7467041</ele>
        <time>2012-12-04T12:20:50Z</time>
      </trkpt>
      <trkpt lat="51.705750189721584" lon="0.912445094436407">
        <ele>-2.7467041</ele>
        <time>2012-12-04T12:20:56Z</time>
      </trkpt>
      <trkpt lat="51.705779526382685" lon="0.912676937878132">
        <ele>-3.7078857</ele>
        <time>2012-12-04T12:21:02Z</time>
      </trkpt>
      <trkpt lat="51.705789836123586" lon="0.912932334467769">
        <ele>-5.6304932</ele>
        <time>2012-12-04T12:21:09Z</time>
      </trkpt>
      <trkpt lat="51.70577634125948" lon="0.913119418546557">
        <ele>-6.1112061</ele>
        <time>2012-12-04T12:21:14Z</time>
      </trkpt>
      <trkpt lat="51.705766534432769" lon="0.913353776559234">
        <ele>-5.1499023</ele>
        <time>2012-12-04T12:21:20Z</time>
      </trkpt>
      <trkpt lat="51.705771731212735" lon="0.91358033940196">
        <ele>-5.6304932</ele>
        <time>2012-12-04T12:21:26Z</time>
      </trkpt>
      <trkpt lat="51.705803666263819" lon="0.913798939436674">
        <ele>-6.5919189</ele>
        <time>2012-12-04T12:21:32Z</time>
      </trkpt>
      <trkpt lat="51.705869967117906" lon="0.914043188095093">
        <ele>-6.1112061</ele>
        <time>2012-12-04T12:21:39Z</time>
      </trkpt>
      <trkpt lat="51.705985469743609" lon="0.914100017398596">
        <ele>-6.1112061</ele>
        <time>2012-12-04T12:21:44Z</time>
      </trkpt>
      <trkpt lat="51.706132739782333" lon="0.91407336294651">
        <ele>-4.1885986</ele>
        <time>2012-12-04T12:21:50Z</time>
      </trkpt>
      <trkpt lat="51.70631873421371" lon="0.914079565554857">
        <ele>-3.7078857</ele>
        <time>2012-12-04T12:21:58Z</time>
      </trkpt>
      <trkpt lat="51.706514284014702" lon="0.914099765941501">
        <ele>-3.7078857</ele>
        <time>2012-12-04T12:22:06Z</time>
      </trkpt>
      <trkpt lat="51.706705978140235" lon="0.914204875007272">
        <ele>-5.1499023</ele>
        <time>2012-12-04T12:22:14Z</time>
      </trkpt>
      <trkpt lat="51.706780828535557" lon="0.914381733164191">
        <ele>-4.1885986</ele>
        <time>2012-12-04T12:22:19Z</time>
      </trkpt>
      <trkpt lat="51.70687235891819" lon="0.914619360119104">
        <ele>-4.1885986</ele>
        <time>2012-12-04T12:22:26Z</time>
      </trkpt>
      <trkpt lat="51.706989035010338" lon="0.914760930463672">
        <ele>-6.5919189</ele>
        <time>2012-12-04T12:22:32Z</time>
      </trkpt>
      <trkpt lat="51.707100765779614" lon="0.9148233756423">
        <ele>-8.0339355</ele>
        <time>2012-12-04T12:22:38Z</time>
      </trkpt>
      <trkpt lat="51.707255495712161" lon="0.914891436696053">
        <ele>-9.4758301</ele>
        <time>2012-12-04T12:22:45Z</time>
      </trkpt>
      <trkpt lat="51.707397820428014" lon="0.914902584627271">
        <ele>-7.5531006</ele>
        <time>2012-12-04T12:22:51Z</time>
      </trkpt>
      <trkpt lat="51.707504438236356" lon="0.914878528565168">
        <ele>-6.5919189</ele>
        <time>2012-12-04T12:22:56Z</time>
      </trkpt>
      <trkpt lat="51.707633184269071" lon="0.914893699809909">
        <ele>-6.5919189</ele>
        <time>2012-12-04T12:23:01Z</time>
      </trkpt>
      <trkpt lat="51.707814317196608" lon="0.914903590455651">
        <ele>-6.5919189</ele>
        <time>2012-12-04T12:23:08Z</time>
      </trkpt>
      <trkpt lat="51.707970723509789" lon="0.914874337613583">
        <ele>-7.0725098</ele>
        <time>2012-12-04T12:23:15Z</time>
      </trkpt>
      <trkpt lat="51.708117071539164" lon="0.914869559928775">
        <ele>-7.0725098</ele>
        <time>2012-12-04T12:23:21Z</time>
      </trkpt>
      <trkpt lat="51.708341874182224" lon="0.914867883548141">
        <ele>-7.5531006</ele>
        <time>2012-12-04T12:23:30Z</time>
      </trkpt>
      <trkpt lat="51.708487467840314" lon="0.914848437532783">
        <ele>-7.0725098</ele>
        <time>2012-12-04T12:23:36Z</time>
      </trkpt>
      <trkpt lat="51.708670360967517" lon="0.914794038981199">
        <ele>-6.5919189</ele>
        <time>2012-12-04T12:23:44Z</time>
      </trkpt>
      <trkpt lat="51.708819894120097" lon="0.914738299325109">
        <ele>-6.5919189</ele>
        <time>2012-12-04T12:23:51Z</time>
      </trkpt>
      <trkpt lat="51.708960374817252" lon="0.914710639044642">
        <ele>-5.6304932</ele>
        <time>2012-12-04T12:23:57Z</time>
      </trkpt>
      <trkpt lat="51.709156762808561" lon="0.914698066189885">
        <ele>-6.5919189</ele>
        <time>2012-12-04T12:24:06Z</time>
      </trkpt>
      <trkpt lat="51.709301937371492" lon="0.914676189422607">
        <ele>-7.5531006</ele>
        <time>2012-12-04T12:24:13Z</time>
      </trkpt>
      <trkpt lat="51.709382738918066" lon="0.914782639592886">
        <ele>-9.956543</ele>
        <time>2012-12-04T12:24:18Z</time>
      </trkpt>
      <trkpt lat="51.709423223510385" lon="0.915013058111072">
        <ele>-8.5146484</ele>
        <time>2012-12-04T12:24:25Z</time>
      </trkpt>
      <trkpt lat="51.709478376433253" lon="0.915245823562145">
        <ele>-7.5531006</ele>
        <time>2012-12-04T12:24:32Z</time>
      </trkpt>
      <trkpt lat="51.709517436102033" lon="0.915501387789845">
        <ele>-7.0725098</ele>
        <time>2012-12-04T12:24:39Z</time>
      </trkpt>
      <trkpt lat="51.709564877673984" lon="0.915715880692005">
        <ele>-7.0725098</ele>
        <time>2012-12-04T12:24:45Z</time>
      </trkpt>
      <trkpt lat="51.709583317860961" lon="0.915917465463281">
        <ele>-8.0339355</ele>
        <time>2012-12-04T12:24:51Z</time>
      </trkpt>
      <trkpt lat="51.70960427261889" lon="0.916160959750414">
        <ele>-7.5531006</ele>
        <time>2012-12-04T12:24:58Z</time>
      </trkpt>
      <trkpt lat="51.709642326459289" lon="0.916362963616848">
        <ele>-8.5146484</ele>
        <time>2012-12-04T12:25:04Z</time>
      </trkpt>
      <trkpt lat="51.709679458290339" lon="0.916566476225853">
        <ele>-7.5531006</ele>
        <time>2012-12-04T12:25:10Z</time>
      </trkpt>
      <trkpt lat="51.709724385291338" lon="0.91680477373302">
        <ele>-6.1112061</ele>
        <time>2012-12-04T12:25:17Z</time>
      </trkpt>
      <trkpt lat="51.709770234301686" lon="0.916989762336016">
        <ele>-6.5919189</ele>
        <time>2012-12-04T12:25:23Z</time>
      </trkpt>
      <trkpt lat="51.709818597882986" lon="0.917224958539009">
        <ele>-3.7078857</ele>
        <time>2012-12-04T12:25:30Z</time>
      </trkpt>
      <trkpt lat="51.709856316447258" lon="0.917418664321303">
        <ele>-3.2272949</ele>
        <time>2012-12-04T12:25:36Z</time>
      </trkpt>
      <trkpt lat="51.709891436621547" lon="0.917641036212444">
        <ele>-3.2272949</ele>
        <time>2012-12-04T12:25:43Z</time>
      </trkpt>
      <trkpt lat="51.709917588159442" lon="0.917838430032134">
        <ele>-2.2659912</ele>
        <time>2012-12-04T12:25:49Z</time>
      </trkpt>
      <trkpt lat="51.709918929263949" lon="0.918040182441473">
        <ele>-4.6693115</ele>
        <time>2012-12-04T12:25:55Z</time>
      </trkpt>
      <trkpt lat="51.709916582331061" lon="0.918248640373349">
        <ele>-4.6693115</ele>
        <time>2012-12-04T12:26:01Z</time>
      </trkpt>
      <trkpt lat="51.709926389157772" lon="0.918479897081852">
        <ele>-4.6693115</ele>
        <time>2012-12-04T12:26:08Z</time>
      </trkpt>
      <trkpt lat="51.70991406776011" lon="0.918639488518238">
        <ele>-6.1112061</ele>
        <time>2012-12-04T12:26:14Z</time>
      </trkpt>
      <trkpt lat="51.709902081638575" lon="0.91864787042141">
        <ele>-5.1499023</ele>
        <time>2012-12-04T12:26:20Z</time>
      </trkpt>
      <trkpt lat="51.709900237619877" lon="0.918856831267476">
        <ele>-4.6693115</ele>
        <time>2012-12-04T12:26:26Z</time>
      </trkpt>
      <trkpt lat="51.709896381944418" lon="0.919122789055109">
        <ele>-6.5919189</ele>
        <time>2012-12-04T12:26:33Z</time>
      </trkpt>
      <trkpt lat="51.709883725270629" lon="0.919387238100171">
        <ele>-7.0725098</ele>
        <time>2012-12-04T12:26:40Z</time>
      </trkpt>
      <trkpt lat="51.70989453792572" lon="0.919588571414351">
        <ele>-7.5531006</ele>
        <time>2012-12-04T12:26:46Z</time>
      </trkpt>
      <trkpt lat="51.709901997819543" lon="0.919791078194976">
        <ele>-7.0725098</ele>
        <time>2012-12-04T12:26:52Z</time>
      </trkpt>
      <trkpt lat="51.70989453792572" lon="0.920003391802311">
        <ele>-5.6304932</ele>
        <time>2012-12-04T12:26:58Z</time>
      </trkpt>
      <trkpt lat="51.7098886705935" lon="0.920080337673426">
        <ele>-5.6304932</ele>
        <time>2012-12-04T12:27:00Z</time>
      </trkpt>
      <trkpt lat="51.709889927878976" lon="0.920296758413315">
        <ele>-6.1112061</ele>
        <time>2012-12-04T12:27:06Z</time>
      </trkpt>
      <trkpt lat="51.709883222356439" lon="0.920539917424321">
        <ele>-6.1112061</ele>
        <time>2012-12-04T12:27:13Z</time>
      </trkpt>
      <trkpt lat="51.709878193214536" lon="0.920805120840669">
        <ele>-7.0725098</ele>
        <time>2012-12-04T12:27:21Z</time>
      </trkpt>
      <trkpt lat="51.709863776341081" lon="0.921035371720791">
        <ele>-6.1112061</ele>
        <time>2012-12-04T12:27:28Z</time>
      </trkpt>
      <trkpt lat="51.709860758855939" lon="0.92126252129674">
        <ele>-6.5919189</ele>
        <time>2012-12-04T12:27:35Z</time>
      </trkpt>
      <trkpt lat="51.709903087466955" lon="0.921483468264341">
        <ele>-6.1112061</ele>
        <time>2012-12-04T12:27:42Z</time>
      </trkpt>
      <trkpt lat="51.709967963397503" lon="0.921531077474356">
        <ele>-6.1112061</ele>
        <time>2012-12-04T12:27:46Z</time>
      </trkpt>
      <trkpt lat="51.710007525980473" lon="0.921546164900064">
        <ele>-6.5919189</ele>
        <time>2012-12-04T12:27:48Z</time>
      </trkpt>
      <trkpt lat="51.710061840713024" lon="0.921643059700727">
        <ele>-7.0725098</ele>
        <time>2012-12-04T12:27:52Z</time>
      </trkpt>
      <trkpt lat="51.71010366640985" lon="0.921930558979511">
        <ele>-7.0725098</ele>
        <time>2012-12-04T12:28:00Z</time>
      </trkpt>
      <trkpt lat="51.710119424387813" lon="0.92215427197516">
        <ele>-6.1112061</ele>
        <time>2012-12-04T12:28:07Z</time>
      </trkpt>
      <trkpt lat="51.710094697773457" lon="0.922235241159797">
        <ele>-5.1499023</ele>
        <time>2012-12-04T12:28:12Z</time>
      </trkpt>
      <trkpt lat="51.710075419396162" lon="0.922245299443603">
        <ele>-5.1499023</ele>
        <time>2012-12-04T12:28:20Z</time>
      </trkpt>
      <trkpt lat="51.710044238716364" lon="0.922318892553449">
        <ele>-6.1112061</ele>
        <time>2012-12-04T12:28:25Z</time>
      </trkpt>
      <trkpt lat="51.710022864863276" lon="0.922382259741426">
        <ele>-6.5919189</ele>
        <time>2012-12-04T12:28:29Z</time>
      </trkpt>
      <trkpt lat="51.710006184875965" lon="0.92245576903224">
        <ele>-7.0725098</ele>
        <time>2012-12-04T12:28:34Z</time>
      </trkpt>
      <trkpt lat="51.709990175440907" lon="0.922613684087992">
        <ele>-6.1112061</ele>
        <time>2012-12-04T12:28:41Z</time>
      </trkpt>
      <trkpt lat="51.709986822679639" lon="0.922820465639234">
        <ele>-4.1885986</ele>
        <time>2012-12-04T12:28:50Z</time>
      </trkpt>
      <trkpt lat="51.709965281188488" lon="0.923030935227871">
        <ele>-1.7852783</ele>
        <time>2012-12-04T12:28:59Z</time>
      </trkpt>
      <trkpt lat="51.709958994761109" lon="0.923206033185124">
        <ele>-0.3433838</ele>
        <time>2012-12-04T12:29:07Z</time>
      </trkpt>
      <trkpt lat="51.70993946492672" lon="0.923388758674264">
        <ele>0.618042</ele>
        <time>2012-12-04T12:29:15Z</time>
      </trkpt>
      <trkpt lat="51.709926640614867" lon="0.923581290990114">
        <ele>-0.3433838</ele>
        <time>2012-12-04T12:29:23Z</time>
      </trkpt>
      <trkpt lat="51.709912475198507" lon="0.923751275986433">
        <ele>0.1374512</ele>
        <time>2012-12-04T12:29:30Z</time>
      </trkpt>
      <trkpt lat="51.709912391379476" lon="0.923772566020489">
        <ele>-0.3433838</ele>
        <time>2012-12-04T12:29:31Z</time>
      </trkpt>
      <trkpt lat="51.709912559017539" lon="0.924017485231161">
        <ele>1.0986328</ele>
        <time>2012-12-04T12:29:40Z</time>
      </trkpt>
      <trkpt lat="51.709920186549425" lon="0.924224266782403">
        <ele>1.5793457</ele>
        <time>2012-12-04T12:29:48Z</time>
      </trkpt>
      <trkpt lat="51.709929490461946" lon="0.924404980614781">
        <ele>3.5019531</ele>
        <time>2012-12-04T12:29:55Z</time>
      </trkpt>
      <trkpt lat="51.709917336702347" lon="0.924581838771701">
        <ele>1.5793457</ele>
        <time>2012-12-04T12:30:00Z</time>
      </trkpt>
      <trkpt lat="51.709895459935069" lon="0.924813766032457">
        <ele>0.618042</ele>
        <time>2012-12-04T12:30:06Z</time>
      </trkpt>
      <trkpt lat="51.709895124658942" lon="0.925079137086868">
        <ele>-1.3046875</ele>
        <time>2012-12-04T12:30:13Z</time>
      </trkpt>
      <trkpt lat="51.709913397207856" lon="0.925383232533932">
        <ele>-1.3046875</ele>
        <time>2012-12-04T12:30:21Z</time>
      </trkpt>
      <trkpt lat="51.709919180721045" lon="0.925598228350282">
        <ele>-0.8240967</ele>
        <time>2012-12-04T12:30:27Z</time>
      </trkpt>
      <trkpt lat="51.709907865151763" lon="0.925813559442759">
        <ele>-0.8240967</ele>
        <time>2012-12-04T12:30:33Z</time>
      </trkpt>
      <trkpt lat="51.709899483248591" lon="0.926097622141242">
        <ele>0.618042</ele>
        <time>2012-12-04T12:30:41Z</time>
      </trkpt>
      <trkpt lat="51.709874672815204" lon="0.926324436441064">
        <ele>-1.3046875</ele>
        <time>2012-12-04T12:30:47Z</time>
      </trkpt>
      <trkpt lat="51.709834020584822" lon="0.9266472235322">
        <ele>-0.8240967</ele>
        <time>2012-12-04T12:30:56Z</time>
      </trkpt>
      <trkpt lat="51.709817592054605" lon="0.926858363673091">
        <ele>-1.3046875</ele>
        <time>2012-12-04T12:31:02Z</time>
      </trkpt>
      <trkpt lat="51.709835864603519" lon="0.927071766927838">
        <ele>0.1374512</ele>
        <time>2012-12-04T12:31:08Z</time>
      </trkpt>
      <trkpt lat="51.709849778562784" lon="0.927279638126493">
        <ele>0.618042</ele>
        <time>2012-12-04T12:31:14Z</time>
      </trkpt>
      <trkpt lat="51.709850197657943" lon="0.927533525973558">
        <ele>0.618042</ele>
        <time>2012-12-04T12:31:21Z</time>
      </trkpt>
      <trkpt lat="51.709845839068294" lon="0.927783222869039">
        <ele>0.1374512</ele>
        <time>2012-12-04T12:31:28Z</time>
      </trkpt>
      <trkpt lat="51.709857238456607" lon="0.928019424900413">
        <ele>-0.8240967</ele>
        <time>2012-12-04T12:31:35Z</time>
      </trkpt>
      <trkpt lat="51.709850281476974" lon="0.928039122372866">
        <ele>-0.8240967</ele>
        <time>2012-12-04T12:31:36Z</time>
      </trkpt>
      <trkpt lat="51.709823794662952" lon="0.928055718541145">
        <ele>-2.7467041</ele>
        <time>2012-12-04T12:31:41Z</time>
      </trkpt>
      <trkpt lat="51.709791775792837" lon="0.928098130971193">
        <ele>-3.7078857</ele>
        <time>2012-12-04T12:31:45Z</time>
      </trkpt>
      <trkpt lat="51.709755063056946" lon="0.928213885053992">
        <ele>-3.7078857</ele>
        <time>2012-12-04T12:31:52Z</time>
      </trkpt>
      <trkpt lat="51.709739221259952" lon="0.928358640521765">
        <ele>0.1374512</ele>
        <time>2012-12-04T12:31:58Z</time>
      </trkpt>
      <trkpt lat="51.709699239581823" lon="0.928597776219249">
        <ele>0.1374512</ele>
        <time>2012-12-04T12:32:04Z</time>
      </trkpt>
      <trkpt lat="51.709667891263962" lon="0.928892819210887">
        <ele>-1.3046875</ele>
        <time>2012-12-04T12:32:12Z</time>
      </trkpt>
      <trkpt lat="51.70963017269969" lon="0.929156681522727">
        <ele>-3.2272949</ele>
        <time>2012-12-04T12:32:19Z</time>
      </trkpt>
      <trkpt lat="51.709593376144767" lon="0.929453233256936">
        <ele>-4.1885986</ele>
        <time>2012-12-04T12:32:27Z</time>
      </trkpt>
      <trkpt lat="51.709559680894017" lon="0.929718436673284">
        <ele>-4.6693115</ele>
        <time>2012-12-04T12:32:34Z</time>
      </trkpt>
      <trkpt lat="51.709531685337424" lon="0.929929073899984">
        <ele>-5.6304932</ele>
        <time>2012-12-04T12:32:40Z</time>
      </trkpt>
      <trkpt lat="51.709504025056958" lon="0.930152535438538">
        <ele>-5.6304932</ele>
        <time>2012-12-04T12:32:46Z</time>
      </trkpt>
      <trkpt lat="51.709457170218229" lon="0.930458558723331">
        <ele>-5.6304932</ele>
        <time>2012-12-04T12:32:54Z</time>
      </trkpt>
      <trkpt lat="51.709430264309049" lon="0.930688558146358">
        <ele>-4.1885986</ele>
        <time>2012-12-04T12:33:00Z</time>
      </trkpt>
      <trkpt lat="51.709391372278333" lon="0.931018637493253">
        <ele>-4.1885986</ele>
        <time>2012-12-04T12:33:09Z</time>
      </trkpt>
      <trkpt lat="51.709367483854294" lon="0.931240674108267">
        <ele>-5.1499023</ele>
        <time>2012-12-04T12:33:15Z</time>
      </trkpt>
      <trkpt lat="51.709333872422576" lon="0.931495064869523">
        <ele>-4.6693115</ele>
        <time>2012-12-04T12:33:22Z</time>
      </trkpt>
      <trkpt lat="51.709275282919407" lon="0.931791365146637">
        <ele>-3.7078857</ele>
        <time>2012-12-04T12:33:30Z</time>
      </trkpt>
      <trkpt lat="51.709219459444284" lon="0.932039637118578">
        <ele>-4.1885986</ele>
        <time>2012-12-04T12:33:37Z</time>
      </trkpt>
      <trkpt lat="51.709142932668328" lon="0.932360496371984">
        <ele>-2.7467041</ele>
        <time>2012-12-04T12:33:46Z</time>
      </trkpt>
      <trkpt lat="51.709100184962153" lon="0.932571636512876">
        <ele>-2.7467041</ele>
        <time>2012-12-04T12:33:52Z</time>
      </trkpt>
      <trkpt lat="51.709043858572841" lon="0.932809431105852">
        <ele>-4.6693115</ele>
        <time>2012-12-04T12:33:59Z</time>
      </trkpt>
      <trkpt lat="51.708961296826601" lon="0.933130038902164">
        <ele>-5.1499023</ele>
        <time>2012-12-04T12:34:08Z</time>
      </trkpt>
      <trkpt lat="51.708900276571512" lon="0.933419717475772">
        <ele>-3.7078857</ele>
        <time>2012-12-04T12:34:16Z</time>
      </trkpt>
      <trkpt lat="51.70882442034781" lon="0.933768739923835">
        <ele>-4.1885986</ele>
        <time>2012-12-04T12:34:26Z</time>
      </trkpt>
      <trkpt lat="51.708775218576193" lon="0.933983735740185">
        <ele>-3.7078857</ele>
        <time>2012-12-04T12:34:32Z</time>
      </trkpt>
      <trkpt lat="51.708730040118098" lon="0.934194540604949">
        <ele>-3.7078857</ele>
        <time>2012-12-04T12:34:38Z</time>
      </trkpt>
      <trkpt lat="51.708687040954828" lon="0.934401238337159">
        <ele>-3.2272949</ele>
        <time>2012-12-04T12:34:44Z</time>
      </trkpt>
      <trkpt lat="51.708639599382877" lon="0.934609193354845">
        <ele>-3.2272949</ele>
        <time>2012-12-04T12:34:50Z</time>
      </trkpt>
      <trkpt lat="51.70858939178288" lon="0.934848664328456">
        <ele>-2.7467041</ele>
        <time>2012-12-04T12:34:57Z</time>
      </trkpt>
      <trkpt lat="51.708525270223618" lon="0.935148736461997">
        <ele>-2.7467041</ele>
        <time>2012-12-04T12:35:06Z</time>
      </trkpt>
      <trkpt lat="51.708469027653337" lon="0.935391392558813">
        <ele>-3.2272949</ele>
        <time>2012-12-04T12:35:13Z</time>
      </trkpt>
      <trkpt lat="51.708417981863022" lon="0.935607478022575">
        <ele>-2.7467041</ele>
        <time>2012-12-04T12:35:19Z</time>
      </trkpt>
      <trkpt lat="51.708356039598584" lon="0.935891540721059">
        <ele>-2.7467041</ele>
        <time>2012-12-04T12:35:27Z</time>
      </trkpt>
      <trkpt lat="51.708313459530473" lon="0.936114164069295">
        <ele>-5.1499023</ele>
        <time>2012-12-04T12:35:34Z</time>
      </trkpt>
      <trkpt lat="51.708307592198253" lon="0.93635237775743">
        <ele>-5.1499023</ele>
        <time>2012-12-04T12:35:41Z</time>
      </trkpt>
      <trkpt lat="51.708386465907097" lon="0.936428066343069">
        <ele>-5.1499023</ele>
        <time>2012-12-04T12:35:45Z</time>
      </trkpt>
      <trkpt lat="51.70856986194849" lon="0.936473496258259">
        <ele>-5.6304932</ele>
        <time>2012-12-04T12:35:53Z</time>
      </trkpt>
      <trkpt lat="51.708734231069684" lon="0.936511466279626">
        <ele>-5.6304932</ele>
        <time>2012-12-04T12:36:00Z</time>
      </trkpt>
      <trkpt lat="51.708925170823932" lon="0.936556477099657">
        <ele>-6.1112061</ele>
        <time>2012-12-04T12:36:08Z</time>
      </trkpt>
      <trkpt lat="51.709081241860986" lon="0.936599727720022">
        <ele>-5.1499023</ele>
        <time>2012-12-04T12:36:15Z</time>
      </trkpt>
      <trkpt lat="51.709260027855635" lon="0.936646582558751">
        <ele>-5.6304932</ele>
        <time>2012-12-04T12:36:23Z</time>
      </trkpt>
      <trkpt lat="51.709416517987847" lon="0.936680696904659">
        <ele>-6.1112061</ele>
        <time>2012-12-04T12:36:30Z</time>
      </trkpt>
      <trkpt lat="51.709535960108042" lon="0.93671933747828">
        <ele>-5.6304932</ele>
        <time>2012-12-04T12:36:35Z</time>
      </trkpt>
      <trkpt lat="51.709664622321725" lon="0.936771221458912">
        <ele>-6.1112061</ele>
        <time>2012-12-04T12:36:41Z</time>
      </trkpt>
      <trkpt lat="51.709845336154103" lon="0.936809526756406">
        <ele>-7.0725098</ele>
        <time>2012-12-04T12:36:49Z</time>
      </trkpt>
      <trkpt lat="51.70995807275176" lon="0.936820339411497">
        <ele>-6.1112061</ele>
        <time>2012-12-04T12:36:54Z</time>
      </trkpt>
      <trkpt lat="51.710092937573791" lon="0.936854286119342">
        <ele>-4.6693115</ele>
        <time>2012-12-04T12:37:00Z</time>
      </trkpt>
      <trkpt lat="51.710234088823199" lon="0.936957886442542">
        <ele>-5.6304932</ele>
        <time>2012-12-04T12:37:06Z</time>
      </trkpt>
      <trkpt lat="51.71028153039515" lon="0.937123764306307">
        <ele>-6.5919189</ele>
        <time>2012-12-04T12:37:11Z</time>
      </trkpt>
      <trkpt lat="51.710331737995148" lon="0.9373037237674">
        <ele>-5.6304932</ele>
        <time>2012-12-04T12:37:17Z</time>
      </trkpt>
      <trkpt lat="51.71039929613471" lon="0.937459459528327">
        <ele>-3.7078857</ele>
        <time>2012-12-04T12:37:23Z</time>
      </trkpt>
      <trkpt lat="51.710422430187464" lon="0.937509834766388">
        <ele>-2.2659912</ele>
        <time>2012-12-04T12:37:26Z</time>
      </trkpt>
      <trkpt lat="51.710448665544391" lon="0.93751871958375">
        <ele>-1.7852783</ele>
        <time>2012-12-04T12:37:30Z</time>
      </trkpt>
      <trkpt lat="51.710588559508324" lon="0.937551073729992">
        <ele>-1.7852783</ele>
        <time>2012-12-04T12:37:37Z</time>
      </trkpt>
      <trkpt lat="51.710702637210488" lon="0.93759692274034">
        <ele>-2.7467041</ele>
        <time>2012-12-04T12:37:44Z</time>
      </trkpt>
      <trkpt lat="51.710819397121668" lon="0.937645034864545">
        <ele>-3.2272949</ele>
        <time>2012-12-04T12:37:50Z</time>
      </trkpt>
      <trkpt lat="51.710944622755051" lon="0.937685519456863">
        <ele>-2.2659912</ele>
        <time>2012-12-04T12:37:56Z</time>
      </trkpt>
      <trkpt lat="51.711093066260219" lon="0.937726674601436">
        <ele>-1.3046875</ele>
        <time>2012-12-04T12:38:03Z</time>
      </trkpt>
      <trkpt lat="51.711279060691595" lon="0.937794232740998">
        <ele>-1.3046875</ele>
        <time>2012-12-04T12:38:12Z</time>
      </trkpt>
      <trkpt lat="51.711399760097265" lon="0.937843099236488">
        <ele>-0.8240967</ele>
        <time>2012-12-04T12:38:18Z</time>
      </trkpt>
      <trkpt lat="51.711534624919295" lon="0.937876291573048">
        <ele>-0.3433838</ele>
        <time>2012-12-04T12:38:25Z</time>
      </trkpt>
      <trkpt lat="51.711687762290239" lon="0.937934461981058">
        <ele>-0.3433838</ele>
        <time>2012-12-04T12:38:32Z</time>
      </trkpt>
      <trkpt lat="51.711879121139646" lon="0.937971761450171">
        <ele>1.0986328</ele>
        <time>2012-12-04T12:38:41Z</time>
      </trkpt>
      <trkpt lat="51.711896974593401" lon="0.937973437830806">
        <ele>1.0986328</ele>
        <time>2012-12-04T12:38:42Z</time>
      </trkpt>
      <trkpt lat="51.711896974593401" lon="0.937973437830806">
        <ele>1.0986328</ele>
        <time>2012-12-04T12:38:42Z</time>
      </trkpt>
      <trkpt lat="51.712035778909922" lon="0.938010737299919">
        <ele>1.0986328</ele>
        <time>2012-12-04T12:38:49Z</time>
      </trkpt>
      <trkpt lat="51.712205680087209" lon="0.938080893829465">
        <ele>1.5793457</ele>
        <time>2012-12-04T12:38:57Z</time>
      </trkpt>
      <trkpt lat="51.712393518537283" lon="0.938162282109261">
        <ele>-0.3433838</ele>
        <time>2012-12-04T12:39:06Z</time>
      </trkpt>
      <trkpt lat="51.712559061124921" lon="0.93820963986218">
        <ele>0.618042</ele>
        <time>2012-12-04T12:39:14Z</time>
      </trkpt>
      <trkpt lat="51.712687639519572" lon="0.938246687874198">
        <ele>2.0600586</ele>
        <time>2012-12-04T12:39:20Z</time>
      </trkpt>
      <trkpt lat="51.712889140471816" lon="0.938316928222775">
        <ele>3.982666</ele>
        <time>2012-12-04T12:39:29Z</time>
      </trkpt>
      <trkpt lat="51.713049486279488" lon="0.938361939042807">
        <ele>3.982666</ele>
        <time>2012-12-04T12:39:37Z</time>
      </trkpt>
      <trkpt lat="51.713216537609696" lon="0.938419941812754">
        <ele>4.4632568</ele>
        <time>2012-12-04T12:39:45Z</time>
      </trkpt>
      <trkpt lat="51.713367076590657" lon="0.938501916825771">
        <ele>2.0600586</ele>
        <time>2012-12-04T12:39:52Z</time>
      </trkpt>
      <trkpt lat="51.713559189811349" lon="0.93856343999505">
        <ele>2.5406494</ele>
        <time>2012-12-04T12:40:01Z</time>
      </trkpt>
      <trkpt lat="51.713695228099823" lon="0.938608786091208">
        <ele>1.5793457</ele>
        <time>2012-12-04T12:40:08Z</time>
      </trkpt>
      <trkpt lat="51.713843839243054" lon="0.938656982034445">
        <ele>1.5793457</ele>
        <time>2012-12-04T12:40:15Z</time>
      </trkpt>
      <trkpt lat="51.713986163958907" lon="0.938707021996379">
        <ele>2.5406494</ele>
        <time>2012-12-04T12:40:22Z</time>
      </trkpt>
      <trkpt lat="51.714172158390284" lon="0.938750440254807">
        <ele>3.0212402</ele>
        <time>2012-12-04T12:40:31Z</time>
      </trkpt>
      <trkpt lat="51.714318674057722" lon="0.938802491873503">
        <ele>3.5019531</ele>
        <time>2012-12-04T12:40:38Z</time>
      </trkpt>
      <trkpt lat="51.714481031522155" lon="0.938855381682515">
        <ele>3.982666</ele>
        <time>2012-12-04T12:40:46Z</time>
      </trkpt>
      <trkpt lat="51.714581362903118" lon="0.938882119953632">
        <ele>3.982666</ele>
        <time>2012-12-04T12:40:52Z</time>
      </trkpt>
      <trkpt lat="51.714717317372561" lon="0.938913887366652">
        <ele>5.9052734</ele>
        <time>2012-12-04T12:40:59Z</time>
      </trkpt>
      <trkpt lat="51.714859558269382" lon="0.93893769197166">
        <ele>6.3858643</ele>
        <time>2012-12-04T12:41:06Z</time>
      </trkpt>
      <trkpt lat="51.715019317343831" lon="0.938981864601374">
        <ele>7.347168</ele>
        <time>2012-12-04T12:41:14Z</time>
      </trkpt>
      <trkpt lat="51.715154265984893" lon="0.939030731096864">
        <ele>7.347168</ele>
        <time>2012-12-04T12:41:21Z</time>
      </trkpt>
      <trkpt lat="51.715266918763518" lon="0.939066018909216">
        <ele>7.8278809</ele>
        <time>2012-12-04T12:41:27Z</time>
      </trkpt>
      <trkpt lat="51.71541309915483" lon="0.939125278964639">
        <ele>8.308593800000001</ele>
        <time>2012-12-04T12:41:34Z</time>
      </trkpt>
      <trkpt lat="51.715548299252987" lon="0.939168864861131">
        <ele>8.789184600000001</ele>
        <time>2012-12-04T12:41:41Z</time>
      </trkpt>
      <trkpt lat="51.715709818527102" lon="0.939227789640427">
        <ele>9.269897500000001</ele>
        <time>2012-12-04T12:41:49Z</time>
      </trkpt>
      <trkpt lat="51.71584652736783" lon="0.939257126301527">
        <ele>9.750610399999999</ele>
        <time>2012-12-04T12:41:56Z</time>
      </trkpt>
      <trkpt lat="51.715963538736105" lon="0.939313117414713">
        <ele>7.8278809</ele>
        <time>2012-12-04T12:42:02Z</time>
      </trkpt>
      <trkpt lat="51.716004861518741" lon="0.939595336094499">
        <ele>1.5793457</ele>
        <time>2012-12-04T12:42:08Z</time>
      </trkpt>
      <trkpt lat="51.716013075783849" lon="0.939809577539563">
        <ele>-0.8240967</ele>
        <time>2012-12-04T12:42:14Z</time>
      </trkpt>
      <trkpt lat="51.71601315960288" lon="0.940024573355913">
        <ele>-0.8240967</ele>
        <time>2012-12-04T12:42:20Z</time>
      </trkpt>
      <trkpt lat="51.716023134067655" lon="0.940267564728856">
        <ele>-0.8240967</ele>
        <time>2012-12-04T12:42:27Z</time>
      </trkpt>
      <trkpt lat="51.716027492657304" lon="0.940515836700797">
        <ele>-1.3046875</ele>
        <time>2012-12-04T12:42:34Z</time>
      </trkpt>
      <trkpt lat="51.716035958379507" lon="0.940753631293774">
        <ele>-2.2659912</ele>
        <time>2012-12-04T12:42:41Z</time>
      </trkpt>
      <trkpt lat="51.716048028320074" lon="0.940978433936834">
        <ele>-2.7467041</ele>
        <time>2012-12-04T12:42:48Z</time>
      </trkpt>
      <trkpt lat="51.716052973642945" lon="0.941216563805938">
        <ele>-2.2659912</ele>
        <time>2012-12-04T12:42:55Z</time>
      </trkpt>
      <trkpt lat="51.716064959764481" lon="0.941479587927461">
        <ele>-2.7467041</ele>
        <time>2012-12-04T12:43:03Z</time>
      </trkpt>
      <trkpt lat="51.716073928400874" lon="0.941709922626615">
        <ele>-1.7852783</ele>
        <time>2012-12-04T12:43:10Z</time>
      </trkpt>
      <trkpt lat="51.716076862066984" lon="0.941918464377522">
        <ele>-1.7852783</ele>
        <time>2012-12-04T12:43:16Z</time>
      </trkpt>
      <trkpt lat="51.716089183464646" lon="0.9421631321311">
        <ele>-1.3046875</ele>
        <time>2012-12-04T12:43:23Z</time>
      </trkpt>
      <trkpt lat="51.716106534004211" lon="0.942369494587183">
        <ele>0.618042</ele>
        <time>2012-12-04T12:43:29Z</time>
      </trkpt>
      <trkpt lat="51.716117262840271" lon="0.94257946126163">
        <ele>1.5793457</ele>
        <time>2012-12-04T12:43:35Z</time>
      </trkpt>
      <trkpt lat="51.716123884543777" lon="0.94282329082489">
        <ele>3.0212402</ele>
        <time>2012-12-04T12:43:42Z</time>
      </trkpt>
      <trkpt lat="51.716119861230254" lon="0.943031832575798">
        <ele>3.0212402</ele>
        <time>2012-12-04T12:43:48Z</time>
      </trkpt>
      <trkpt lat="51.716124890372157" lon="0.943237440660596">
        <ele>2.5406494</ele>
        <time>2012-12-04T12:43:54Z</time>
      </trkpt>
      <trkpt lat="51.716127237305045" lon="0.943440869450569">
        <ele>2.0600586</ele>
        <time>2012-12-04T12:44:00Z</time>
      </trkpt>
      <trkpt lat="51.716123465448618" lon="0.943651758134365">
        <ele>1.0986328</ele>
        <time>2012-12-04T12:44:06Z</time>
      </trkpt>
      <trkpt lat="51.716148862615228" lon="0.94382643699646">
        <ele>1.5793457</ele>
        <time>2012-12-04T12:44:11Z</time>
      </trkpt>
      <trkpt lat="51.716245841234922" lon="0.943893827497959">
        <ele>0.618042</ele>
        <time>2012-12-04T12:44:17Z</time>
      </trkpt>
      <trkpt lat="51.716371821239591" lon="0.943930624052882">
        <ele>1.0986328</ele>
        <time>2012-12-04T12:44:23Z</time>
      </trkpt>
      <trkpt lat="51.716471062973142" lon="0.943969935178757">
        <ele>0.1374512</ele>
        <time>2012-12-04T12:44:28Z</time>
      </trkpt>
      <trkpt lat="51.716612633317709" lon="0.944025423377752">
        <ele>-0.3433838</ele>
        <time>2012-12-04T12:44:35Z</time>
      </trkpt>
      <trkpt lat="51.716771638020873" lon="0.944088036194444">
        <ele>-0.8240967</ele>
        <time>2012-12-04T12:44:43Z</time>
      </trkpt>
      <trkpt lat="51.716925362125039" lon="0.944147296249866">
        <ele>-1.7852783</ele>
        <time>2012-12-04T12:44:51Z</time>
      </trkpt>
      <trkpt lat="51.717107836157084" lon="0.944217536598444">
        <ele>-1.3046875</ele>
        <time>2012-12-04T12:45:00Z</time>
      </trkpt>
      <trkpt lat="51.717261141166091" lon="0.944274365901947">
        <ele>-0.3433838</ele>
        <time>2012-12-04T12:45:07Z</time>
      </trkpt>
      <trkpt lat="51.71740279532969" lon="0.944303870201111">
        <ele>1.0986328</ele>
        <time>2012-12-04T12:45:14Z</time>
      </trkpt>
      <trkpt lat="51.717593735083938" lon="0.944368662312627">
        <ele>2.0600586</ele>
        <time>2012-12-04T12:45:23Z</time>
      </trkpt>
      <trkpt lat="51.717761289328337" lon="0.94438886269927">
        <ele>1.5793457</ele>
        <time>2012-12-04T12:45:31Z</time>
      </trkpt>
      <trkpt lat="51.71787922270596" lon="0.944401687011123">
        <ele>1.0986328</ele>
        <time>2012-12-04T12:45:37Z</time>
      </trkpt>
      <trkpt lat="51.71802582219243" lon="0.944444183260202">
        <ele>1.5793457</ele>
        <time>2012-12-04T12:45:44Z</time>
      </trkpt>
      <trkpt lat="51.718170996755362" lon="0.944477627053857">
        <ele>2.0600586</ele>
        <time>2012-12-04T12:45:51Z</time>
      </trkpt>
      <trkpt lat="51.71833117492497" lon="0.944506041705608">
        <ele>2.5406494</ele>
        <time>2012-12-04T12:45:59Z</time>
      </trkpt>
      <trkpt lat="51.718471320345998" lon="0.94453546218574">
        <ele>2.0600586</ele>
        <time>2012-12-04T12:46:06Z</time>
      </trkpt>
      <trkpt lat="51.718619177117944" lon="0.94454811885953">
        <ele>3.5019531</ele>
        <time>2012-12-04T12:46:13Z</time>
      </trkpt>
      <trkpt lat="51.7187768407166" lon="0.944586591795087">
        <ele>4.4632568</ele>
        <time>2012-12-04T12:46:20Z</time>
      </trkpt>
      <trkpt lat="51.718927128240466" lon="0.944619616493583">
        <ele>5.4245605</ele>
        <time>2012-12-04T12:46:27Z</time>
      </trkpt>
      <trkpt lat="51.719094263389707" lon="0.944633362814784">
        <ele>6.8664551</ele>
        <time>2012-12-04T12:46:35Z</time>
      </trkpt>
      <trkpt lat="51.719259135425091" lon="0.944654988124967">
        <ele>7.8278809</ele>
        <time>2012-12-04T12:46:43Z</time>
      </trkpt>
      <trkpt lat="51.719386791810393" lon="0.944672590121627">
        <ele>8.308593800000001</ele>
        <time>2012-12-04T12:46:49Z</time>
      </trkpt>
      <trkpt lat="51.719535989686847" lon="0.944685162976384">
        <ele>9.269897500000001</ele>
        <time>2012-12-04T12:46:56Z</time>
      </trkpt>
      <trkpt lat="51.719681834802032" lon="0.944711565971375">
        <ele>10.231201199999999</ele>
        <time>2012-12-04T12:47:03Z</time>
      </trkpt>
      <trkpt lat="51.719841593876481" lon="0.944731179624796">
        <ele>9.269897500000001</ele>
        <time>2012-12-04T12:47:11Z</time>
      </trkpt>
      <trkpt lat="51.720007639378309" lon="0.944755570963025">
        <ele>10.231201199999999</ele>
        <time>2012-12-04T12:47:19Z</time>
      </trkpt>
      <trkpt lat="51.720193717628717" lon="0.944782141596079">
        <ele>11.6732178</ele>
        <time>2012-12-04T12:47:28Z</time>
      </trkpt>
      <trkpt lat="51.720333779230714" lon="0.944812567904592">
        <ele>11.192504899999999</ele>
        <time>2012-12-04T12:47:35Z</time>
      </trkpt>
      <trkpt lat="51.720502339303493" lon="0.944866631180048">
        <ele>9.750610399999999</ele>
        <time>2012-12-04T12:47:43Z</time>
      </trkpt>
      <trkpt lat="51.72065606340766" lon="0.944904936477542">
        <ele>9.269897500000001</ele>
        <time>2012-12-04T12:47:50Z</time>
      </trkpt>
      <trkpt lat="51.720796460285783" lon="0.944944163784385">
        <ele>6.8664551</ele>
        <time>2012-12-04T12:47:57Z</time>
      </trkpt>
      <trkpt lat="51.720961667597294" lon="0.944986240938306">
        <ele>5.4245605</ele>
        <time>2012-12-04T12:48:05Z</time>
      </trkpt>
      <trkpt lat="51.721143387258053" lon="0.945029659196734">
        <ele>5.9052734</ele>
        <time>2012-12-04T12:48:13Z</time>
      </trkpt>
      <trkpt lat="51.721290573477745" lon="0.945070395246148">
        <ele>6.8664551</ele>
        <time>2012-12-04T12:48:20Z</time>
      </trkpt>
      <trkpt lat="51.72139735892415" lon="0.945123536512256">
        <ele>7.347168</ele>
        <time>2012-12-04T12:48:25Z</time>
      </trkpt>
      <trkpt lat="51.721524260938168" lon="0.945219593122602">
        <ele>4.4632568</ele>
        <time>2012-12-04T12:48:32Z</time>
      </trkpt>
      <trkpt lat="51.721648229286075" lon="0.94529964029789">
        <ele>2.5406494</ele>
        <time>2012-12-04T12:48:39Z</time>
      </trkpt>
      <trkpt lat="51.721787117421627" lon="0.945370718836784">
        <ele>2.5406494</ele>
        <time>2012-12-04T12:48:46Z</time>
      </trkpt>
      <trkpt lat="51.721904380246997" lon="0.945421261712909">
        <ele>3.0212402</ele>
        <time>2012-12-04T12:48:52Z</time>
      </trkpt>
      <trkpt lat="51.722079729661345" lon="0.945511870086193">
        <ele>3.0212402</ele>
        <time>2012-12-04T12:49:01Z</time>
      </trkpt>
      <trkpt lat="51.722220964729786" lon="0.945592420175672">
        <ele>3.5019531</ele>
        <time>2012-12-04T12:49:08Z</time>
      </trkpt>
      <trkpt lat="51.722405282780528" lon="0.945689985528588">
        <ele>3.0212402</ele>
        <time>2012-12-04T12:49:17Z</time>
      </trkpt>
      <trkpt lat="51.722544673830271" lon="0.945768775418401">
        <ele>1.5793457</ele>
        <time>2012-12-04T12:49:24Z</time>
      </trkpt>
      <trkpt lat="51.722677862271667" lon="0.945853516459465">
        <ele>0.1374512</ele>
        <time>2012-12-04T12:49:31Z</time>
      </trkpt>
      <trkpt lat="51.722815996035933" lon="0.945950159803033">
        <ele>-0.8240967</ele>
        <time>2012-12-04T12:49:38Z</time>
      </trkpt>
      <trkpt lat="51.722937868908048" lon="0.946016293019056">
        <ele>-1.3046875</ele>
        <time>2012-12-04T12:49:44Z</time>
      </trkpt>
      <trkpt lat="51.723075667396188" lon="0.946094579994679">
        <ele>-2.7467041</ele>
        <time>2012-12-04T12:49:51Z</time>
      </trkpt>
      <trkpt lat="51.723244898021221" lon="0.946168340742588">
        <ele>-2.7467041</ele>
        <time>2012-12-04T12:49:59Z</time>
      </trkpt>
      <trkpt lat="51.7233547847718" lon="0.946148727089167">
        <ele>-2.7467041</ele>
        <time>2012-12-04T12:50:04Z</time>
      </trkpt>
      <trkpt lat="51.723420917987823" lon="0.946117294952273">
        <ele>-2.2659912</ele>
        <time>2012-12-04T12:50:07Z</time>
      </trkpt>
      <trkpt lat="51.723504820838571" lon="0.946053676307201">
        <ele>-2.7467041</ele>
        <time>2012-12-04T12:50:11Z</time>
      </trkpt>
      <trkpt lat="51.723604816943407" lon="0.945896683260798">
        <ele>-1.7852783</ele>
        <time>2012-12-04T12:50:17Z</time>
      </trkpt>
      <trkpt lat="51.723657120019197" lon="0.945753185078502">
        <ele>-1.7852783</ele>
        <time>2012-12-04T12:50:22Z</time>
      </trkpt>
      <trkpt lat="51.723689641803503" lon="0.945565095171332">
        <ele>-0.8240967</ele>
        <time>2012-12-04T12:50:28Z</time>
      </trkpt>
      <trkpt lat="51.723744627088308" lon="0.945353284478188">
        <ele>-0.3433838</ele>
        <time>2012-12-04T12:50:35Z</time>
      </trkpt>
      <trkpt lat="51.723785363137722" lon="0.945151532068849">
        <ele>-0.3433838</ele>
        <time>2012-12-04T12:50:41Z</time>
      </trkpt>
      <trkpt lat="51.723814532160759" lon="0.944975093007088">
        <ele>0.1374512</ele>
        <time>2012-12-04T12:50:46Z</time>
      </trkpt>
      <trkpt lat="51.723856022581458" lon="0.944774765521288">
        <ele>-0.8240967</ele>
        <time>2012-12-04T12:50:52Z</time>
      </trkpt>
      <trkpt lat="51.723905140534043" lon="0.944516770541668">
        <ele>-1.3046875</ele>
        <time>2012-12-04T12:51:00Z</time>
      </trkpt>
      <trkpt lat="51.723948894068599" lon="0.944289620965719">
        <ele>-1.3046875</ele>
        <time>2012-12-04T12:51:07Z</time>
      </trkpt>
      <trkpt lat="51.723983092233539" lon="0.944099770858884">
        <ele>-1.7852783</ele>
        <time>2012-12-04T12:51:13Z</time>
      </trkpt>
      <trkpt lat="51.724027935415506" lon="0.943900365382433">
        <ele>-2.2659912</ele>
        <time>2012-12-04T12:51:19Z</time>
      </trkpt>
      <trkpt lat="51.724063139408827" lon="0.9437052346766">
        <ele>-2.2659912</ele>
        <time>2012-12-04T12:51:25Z</time>
      </trkpt>
      <trkpt lat="51.724103624001145" lon="0.943515468388796">
        <ele>-1.7852783</ele>
        <time>2012-12-04T12:51:31Z</time>
      </trkpt>
      <trkpt lat="51.724143018946052" lon="0.943292090669274">
        <ele>-2.2659912</ele>
        <time>2012-12-04T12:51:38Z</time>
      </trkpt>
      <trkpt lat="51.724187862128019" lon="0.943041639402509">
        <ele>-2.7467041</ele>
        <time>2012-12-04T12:51:46Z</time>
      </trkpt>
      <trkpt lat="51.724229771643877" lon="0.942810969427228">
        <ele>-2.2659912</ele>
        <time>2012-12-04T12:51:53Z</time>
      </trkpt>
      <trkpt lat="51.72426413744688" lon="0.94257895834744">
        <ele>-1.3046875</ele>
        <time>2012-12-04T12:52:00Z</time>
      </trkpt>
      <trkpt lat="51.724305963143706" lon="0.942352395504713">
        <ele>-0.8240967</ele>
        <time>2012-12-04T12:52:07Z</time>
      </trkpt>
      <trkpt lat="51.724356086924672" lon="0.942086689174175">
        <ele>-1.3046875</ele>
        <time>2012-12-04T12:52:15Z</time>
      </trkpt>
      <trkpt lat="51.724391039460897" lon="0.941884936764836">
        <ele>-1.3046875</ele>
        <time>2012-12-04T12:52:21Z</time>
      </trkpt>
      <trkpt lat="51.724428841844201" lon="0.941661391407251">
        <ele>-0.8240967</ele>
        <time>2012-12-04T12:52:28Z</time>
      </trkpt>
      <trkpt lat="51.724465135484934" lon="0.941501967608929">
        <ele>-0.8240967</ele>
        <time>2012-12-04T12:52:33Z</time>
      </trkpt>
      <trkpt lat="51.724511990323663" lon="0.941310860216618">
        <ele>-1.3046875</ele>
        <time>2012-12-04T12:52:39Z</time>
      </trkpt>
      <trkpt lat="51.724571920931339" lon="0.941138360649347">
        <ele>-1.3046875</ele>
        <time>2012-12-04T12:52:45Z</time>
      </trkpt>
      <trkpt lat="51.724663283675909" lon="0.941078178584576">
        <ele>-1.7852783</ele>
        <time>2012-12-04T12:52:50Z</time>
      </trkpt>
      <trkpt lat="51.724820695817471" lon="0.941065773367882">
        <ele>-2.2659912</ele>
        <time>2012-12-04T12:52:58Z</time>
      </trkpt>
      <trkpt lat="51.724987160414457" lon="0.94106032513082">
        <ele>-1.3046875</ele>
        <time>2012-12-04T12:53:06Z</time>
      </trkpt>
      <trkpt lat="51.72517198137939" lon="0.941045070067048">
        <ele>-0.3433838</ele>
        <time>2012-12-04T12:53:15Z</time>
      </trkpt>
      <trkpt lat="51.725335596129298" lon="0.941028222441673">
        <ele>0.618042</ele>
        <time>2012-12-04T12:53:23Z</time>
      </trkpt>
      <trkpt lat="51.725496361032128" lon="0.941019337624311">
        <ele>0.618042</ele>
        <time>2012-12-04T12:53:31Z</time>
      </trkpt>
      <trkpt lat="51.725635919719934" lon="0.941012380644679">
        <ele>0.1374512</ele>
        <time>2012-12-04T12:53:38Z</time>
      </trkpt>
      <trkpt lat="51.72576273791492" lon="0.941013135015965">
        <ele>1.0986328</ele>
        <time>2012-12-04T12:53:44Z</time>
      </trkpt>
      <trkpt lat="51.725887879729271" lon="0.941011290997267">
        <ele>1.0986328</ele>
        <time>2012-12-04T12:53:50Z</time>
      </trkpt>
      <trkpt lat="51.72601293772459" lon="0.941007435321808">
        <ele>1.5793457</ele>
        <time>2012-12-04T12:53:56Z</time>
      </trkpt>
      <trkpt lat="51.726174037903547" lon="0.940998131409287">
        <ele>-0.3433838</ele>
        <time>2012-12-04T12:54:04Z</time>
      </trkpt>
      <trkpt lat="51.726325079798698" lon="0.940995784476399">
        <ele>0.618042</ele>
        <time>2012-12-04T12:54:11Z</time>
      </trkpt>
      <trkpt lat="51.726483581587672" lon="0.940981786698103">
        <ele>0.618042</ele>
        <time>2012-12-04T12:54:19Z</time>
      </trkpt>
      <trkpt lat="51.726636467501521" lon="0.940972566604614">
        <ele>2.0600586</ele>
        <time>2012-12-04T12:54:26Z</time>
      </trkpt>
      <trkpt lat="51.72681282274425" lon="0.940972063690424">
        <ele>2.5406494</ele>
        <time>2012-12-04T12:54:34Z</time>
      </trkpt>
      <trkpt lat="51.726954141631722" lon="0.940976422280073">
        <ele>1.5793457</ele>
        <time>2012-12-04T12:54:41Z</time>
      </trkpt>
      <trkpt lat="51.727113062515855" lon="0.940982792526484">
        <ele>1.0986328</ele>
        <time>2012-12-04T12:54:49Z</time>
      </trkpt>
      <trkpt lat="51.727265026420355" lon="0.940993018448353">
        <ele>0.1374512</ele>
        <time>2012-12-04T12:54:57Z</time>
      </trkpt>
      <trkpt lat="51.727437023073435" lon="0.940994862467051">
        <ele>1.5793457</ele>
        <time>2012-12-04T12:55:05Z</time>
      </trkpt>
      <trkpt lat="51.727582365274429" lon="0.941002741456032">
        <ele>2.0600586</ele>
        <time>2012-12-04T12:55:12Z</time>
      </trkpt>
      <trkpt lat="51.727723935618997" lon="0.941116316244006">
        <ele>1.5793457</ele>
        <time>2012-12-04T12:55:19Z</time>
      </trkpt>
      <trkpt lat="51.727884281426668" lon="0.941269118338823">
        <ele>0.618042</ele>
        <time>2012-12-04T12:55:27Z</time>
      </trkpt>
      <trkpt lat="51.728034317493439" lon="0.941388560459018">
        <ele>0.1374512</ele>
        <time>2012-12-04T12:55:35Z</time>
      </trkpt>
      <trkpt lat="51.728172786533833" lon="0.94141747802496">
        <ele>1.0986328</ele>
        <time>2012-12-04T12:55:42Z</time>
      </trkpt>
      <trkpt lat="51.728308824822307" lon="0.941414628177881">
        <ele>0.618042</ele>
        <time>2012-12-04T12:55:49Z</time>
      </trkpt>
      <trkpt lat="51.728471098467708" lon="0.941421333700418">
        <ele>0.618042</ele>
        <time>2012-12-04T12:55:57Z</time>
      </trkpt>
      <trkpt lat="51.728661870583892" lon="0.941430721431971">
        <ele>0.618042</ele>
        <time>2012-12-04T12:56:06Z</time>
      </trkpt>
      <trkpt lat="51.728839483112097" lon="0.941428039222956">
        <ele>2.5406494</ele>
        <time>2012-12-04T12:56:14Z</time>
      </trkpt>
      <trkpt lat="51.728981388732791" lon="0.941412532702088">
        <ele>2.5406494</ele>
        <time>2012-12-04T12:56:21Z</time>
      </trkpt>
      <trkpt lat="51.729127736762166" lon="0.941401636227965">
        <ele>3.982666</ele>
        <time>2012-12-04T12:56:28Z</time>
      </trkpt>
      <trkpt lat="51.729292441159487" lon="0.941386967897415">
        <ele>4.4632568</ele>
        <time>2012-12-04T12:56:36Z</time>
      </trkpt>
      <trkpt lat="51.729469383135438" lon="0.941381016746163">
        <ele>6.3858643</ele>
        <time>2012-12-04T12:56:44Z</time>
      </trkpt>
      <trkpt lat="51.729618664830923" lon="0.941370874643326">
        <ele>6.8664551</ele>
        <time>2012-12-04T12:56:51Z</time>
      </trkpt>
      <trkpt lat="51.729787224903703" lon="0.941371126100421">
        <ele>5.9052734</ele>
        <time>2012-12-04T12:56:59Z</time>
      </trkpt>
      <trkpt lat="51.72990532591939" lon="0.941369365900755">
        <ele>3.982666</ele>
        <time>2012-12-04T12:57:05Z</time>
      </trkpt>
      <trkpt lat="51.730071287602186" lon="0.941342879086733">
        <ele>3.5019531</ele>
        <time>2012-12-04T12:57:13Z</time>
      </trkpt>
      <trkpt lat="51.730199279263616" lon="0.941330725327134">
        <ele>3.982666</ele>
        <time>2012-12-04T12:57:19Z</time>
      </trkpt>
      <trkpt lat="51.730349399149418" lon="0.941325360909104">
        <ele>3.982666</ele>
        <time>2012-12-04T12:57:26Z</time>
      </trkpt>
      <trkpt lat="51.730517540127039" lon="0.941311698406935">
        <ele>4.4632568</ele>
        <time>2012-12-04T12:57:34Z</time>
      </trkpt>
      <trkpt lat="51.730645028874278" lon="0.941302478313446">
        <ele>5.9052734</ele>
        <time>2012-12-04T12:57:40Z</time>
      </trkpt>
      <trkpt lat="51.730834124609828" lon="0.941298035904765">
        <ele>6.3858643</ele>
        <time>2012-12-04T12:57:49Z</time>
      </trkpt>
      <trkpt lat="51.730980472639203" lon="0.941292839124799">
        <ele>6.8664551</ele>
        <time>2012-12-04T12:57:56Z</time>
      </trkpt>
      <trkpt lat="51.731174765154719" lon="0.941280433908105">
        <ele>8.308593800000001</ele>
        <time>2012-12-04T12:58:05Z</time>
      </trkpt>
      <trkpt lat="51.731300326064229" lon="0.941273141652346">
        <ele>7.8278809</ele>
        <time>2012-12-04T12:58:11Z</time>
      </trkpt>
      <trkpt lat="51.731467796489596" lon="0.941259395331144">
        <ele>6.3858643</ele>
        <time>2012-12-04T12:58:19Z</time>
      </trkpt>
      <trkpt lat="51.731660161167383" lon="0.941241877153516">
        <ele>5.4245605</ele>
        <time>2012-12-04T12:58:28Z</time>
      </trkpt>
      <trkpt lat="51.731824781745672" lon="0.941235171630979">
        <ele>4.9438477</ele>
        <time>2012-12-04T12:58:36Z</time>
      </trkpt>
      <trkpt lat="51.731968531385064" lon="0.941242631524801">
        <ele>5.4245605</ele>
        <time>2012-12-04T12:58:43Z</time>
      </trkpt>
      <trkpt lat="51.732096690684557" lon="0.941238859668374">
        <ele>5.9052734</ele>
        <time>2012-12-04T12:58:49Z</time>
      </trkpt>
      <trkpt lat="51.732250498607755" lon="0.941225867718458">
        <ele>5.9052734</ele>
        <time>2012-12-04T12:58:56Z</time>
      </trkpt>
      <trkpt lat="51.732400869950652" lon="0.941211534664035">
        <ele>5.4245605</ele>
        <time>2012-12-04T12:59:03Z</time>
      </trkpt>
      <trkpt lat="51.732554426416755" lon="0.941207762807608">
        <ele>6.3858643</ele>
        <time>2012-12-04T12:59:10Z</time>
      </trkpt>
      <trkpt lat="51.732696080580354" lon="0.941205834969878">
        <ele>5.9052734</ele>
        <time>2012-12-04T12:59:17Z</time>
      </trkpt>
      <trkpt lat="51.732833795249462" lon="0.941189574077725">
        <ele>5.4245605</ele>
        <time>2012-12-04T12:59:24Z</time>
      </trkpt>
      <trkpt lat="51.732963798567653" lon="0.941167529672384">
        <ele>6.3858643</ele>
        <time>2012-12-04T12:59:30Z</time>
      </trkpt>
      <trkpt lat="51.733089862391353" lon="0.941147664561868">
        <ele>6.8664551</ele>
        <time>2012-12-04T12:59:36Z</time>
      </trkpt>
      <trkpt lat="51.733215339481831" lon="0.941122937947512">
        <ele>6.8664551</ele>
        <time>2012-12-04T12:59:42Z</time>
      </trkpt>
      <trkpt lat="51.733360262587667" lon="0.941067868843675">
        <ele>7.347168</ele>
        <time>2012-12-04T12:59:49Z</time>
      </trkpt>
      <trkpt lat="51.733497558161616" lon="0.941020762547851">
        <ele>5.9052734</ele>
        <time>2012-12-04T12:59:56Z</time>
      </trkpt>
      <trkpt lat="51.733612474054098" lon="0.940943565219641">
        <ele>5.4245605</ele>
        <time>2012-12-04T13:00:02Z</time>
      </trkpt>
      <trkpt lat="51.733724288642406" lon="0.940848682075739">
        <ele>5.4245605</ele>
        <time>2012-12-04T13:00:08Z</time>
      </trkpt>
      <trkpt lat="51.733848173171282" lon="0.94083946198225">
        <ele>6.3858643</ele>
        <time>2012-12-04T13:00:14Z</time>
      </trkpt>
      <trkpt lat="51.733970381319523" lon="0.940853878855705">
        <ele>5.9052734</ele>
        <time>2012-12-04T13:00:20Z</time>
      </trkpt>
      <trkpt lat="51.734108179807663" lon="0.940865278244019">
        <ele>6.3858643</ele>
        <time>2012-12-04T13:00:26Z</time>
      </trkpt>
      <trkpt lat="51.734236422926188" lon="0.940879778936505">
        <ele>6.8664551</ele>
        <time>2012-12-04T13:00:32Z</time>
      </trkpt>
      <trkpt lat="51.73434698022902" lon="0.940896878018975">
        <ele>4.4632568</ele>
        <time>2012-12-04T13:00:38Z</time>
      </trkpt>
      <trkpt lat="51.734360726550221" lon="0.94090199097991">
        <ele>3.0212402</ele>
        <time>2012-12-04T13:00:40Z</time>
      </trkpt>
      <trkpt lat="51.734369695186615" lon="0.940837198868394">
        <ele>-0.8240967</ele>
        <time>2012-12-04T13:00:46Z</time>
      </trkpt>
      <trkpt lat="51.734380340203643" lon="0.940764779224992">
        <ele>-0.8240967</ele>
        <time>2012-12-04T13:00:49Z</time>
      </trkpt>
      <trkpt lat="51.734425434842706" lon="0.940529834479094">
        <ele>-2.2659912</ele>
        <time>2012-12-04T13:00:57Z</time>
      </trkpt>
      <trkpt lat="51.734486287459731" lon="0.940375020727515">
        <ele>-2.2659912</ele>
        <time>2012-12-04T13:01:03Z</time>
      </trkpt>
      <trkpt lat="51.734574716538191" lon="0.940248621627688">
        <ele>-1.3046875</ele>
        <time>2012-12-04T13:01:09Z</time>
      </trkpt>
      <trkpt lat="51.734728775918484" lon="0.940134124830365">
        <ele>1.5793457</ele>
        <time>2012-12-04T13:01:17Z</time>
      </trkpt>
      <trkpt lat="51.734840758144855" lon="0.940021723508835">
        <ele>3.5019531</ele>
        <time>2012-12-04T13:01:23Z</time>
      </trkpt>
      <trkpt lat="51.734989285469055" lon="0.939896497875452">
        <ele>3.0212402</ele>
        <time>2012-12-04T13:01:31Z</time>
      </trkpt>
      <trkpt lat="51.735124485567212" lon="0.939870765432715">
        <ele>3.0212402</ele>
        <time>2012-12-04T13:01:38Z</time>
      </trkpt>
      <trkpt lat="51.735218530520797" lon="0.939844362437725">
        <ele>2.5406494</ele>
        <time>2012-12-04T13:01:44Z</time>
      </trkpt>
    </trkseg>
  </trk>
</gpx>
